<?xml version="1.0" encoding="UTF-8" standalone="no" ?>
<gpx xmlns="http://www.topografix.com/GPX/1/1" xmlns:xsi="http://www.w3.org/2001/XMLSchema-instance" xsi:schemaLocation="http://www.topografix.com/GPX/1/1 http://www.topografix.com/GPX/1/1/gpx.xsd" version="1.1" creator="VisuGPX - https://www.visugpx.com">
  <metadata>
    <name>Montpellier - Lourdes J5 (St Bertrand de Comminges - Bagnères de Bigorre) </name>
    <desc><![CDATA[Etape bien plus courte déroulée dans le Comminges et la Bigorre, et plus particulièrement le pays des Baronnies.
C'est splendide mais ça se mérite. La montée de Bonnemazon comporte plusieurs gros raidards, mais c'est tellement beau et surtout, cela évite la route rectiligne très passante.]]></desc>
  </metadata>
  <trk>
    <name><![CDATA[Montpellier - Lourdes J5 (St Bertrand de Comminges - Bagnères de Bigorre) _1]]></name>
    <trkseg>
      <trkpt lat="43.02796" lon="0.57437">
        <ele>461.3</ele>
        <time>2020-06-30T08:35:11Z</time>
      </trkpt>
      <trkpt lat="43.02797" lon="0.57433">
        <ele>461.4</ele>
        <time>2020-06-30T08:35:12Z</time>
      </trkpt>
      <trkpt lat="43.02798" lon="0.57433">
        <ele>461.4</ele>
        <time>2020-06-30T08:35:13Z</time>
      </trkpt>
      <trkpt lat="43.02799" lon="0.57432">
        <ele>461.4</ele>
        <time>2020-06-30T08:35:14Z</time>
      </trkpt>
      <trkpt lat="43.028" lon="0.57429">
        <ele>461.6</ele>
        <time>2020-06-30T08:35:15Z</time>
      </trkpt>
      <trkpt lat="43.028" lon="0.57428">
        <ele>461.6</ele>
        <time>2020-06-30T08:35:16Z</time>
      </trkpt>
      <trkpt lat="43.02801" lon="0.57427">
        <ele>461.6</ele>
        <time>2020-06-30T08:35:17Z</time>
      </trkpt>
      <trkpt lat="43.02802" lon="0.57426">
        <ele>461.7</ele>
        <time>2020-06-30T08:35:18Z</time>
      </trkpt>
      <trkpt lat="43.02804" lon="0.57426">
        <ele>461.7</ele>
        <time>2020-06-30T08:35:19Z</time>
      </trkpt>
      <trkpt lat="43.02805" lon="0.57426">
        <ele>461.7</ele>
        <time>2020-06-30T08:35:20Z</time>
      </trkpt>
      <trkpt lat="43.02806" lon="0.57425">
        <ele>461.7</ele>
        <time>2020-06-30T08:35:21Z</time>
      </trkpt>
      <trkpt lat="43.02807" lon="0.57423">
        <ele>461.8</ele>
        <time>2020-06-30T08:35:22Z</time>
      </trkpt>
      <trkpt lat="43.02807" lon="0.57421">
        <ele>461.9</ele>
        <time>2020-06-30T08:35:24Z</time>
      </trkpt>
      <trkpt lat="43.02807" lon="0.57425">
        <ele>461.7</ele>
        <time>2020-06-30T08:35:25Z</time>
      </trkpt>
      <trkpt lat="43.02807" lon="0.57425">
        <ele>461.7</ele>
        <time>2020-06-30T08:35:26Z</time>
      </trkpt>
      <trkpt lat="43.02808" lon="0.57424">
        <ele>461.8</ele>
        <time>2020-06-30T08:35:27Z</time>
      </trkpt>
      <trkpt lat="43.02805" lon="0.57424">
        <ele>461.7</ele>
        <time>2020-06-30T08:35:28Z</time>
      </trkpt>
      <trkpt lat="43.02803" lon="0.57422">
        <ele>461.8</ele>
        <time>2020-06-30T08:35:29Z</time>
      </trkpt>
      <trkpt lat="43.02801" lon="0.57421">
        <ele>461.8</ele>
        <time>2020-06-30T08:35:30Z</time>
      </trkpt>
      <trkpt lat="43.028" lon="0.5742">
        <ele>461.9</ele>
        <time>2020-06-30T08:35:31Z</time>
      </trkpt>
      <trkpt lat="43.02799" lon="0.57419">
        <ele>461.9</ele>
        <time>2020-06-30T08:35:32Z</time>
      </trkpt>
      <trkpt lat="43.02798" lon="0.57417">
        <ele>462</ele>
        <time>2020-06-30T08:35:33Z</time>
      </trkpt>
      <trkpt lat="43.02799" lon="0.57415">
        <ele>462</ele>
        <time>2020-06-30T08:35:34Z</time>
      </trkpt>
      <trkpt lat="43.02801" lon="0.57413">
        <ele>462</ele>
        <time>2020-06-30T08:35:35Z</time>
      </trkpt>
      <trkpt lat="43.02803" lon="0.57411">
        <ele>462</ele>
        <time>2020-06-30T08:35:36Z</time>
      </trkpt>
      <trkpt lat="43.02805" lon="0.57409">
        <ele>462</ele>
        <time>2020-06-30T08:35:37Z</time>
      </trkpt>
      <trkpt lat="43.02807" lon="0.57408">
        <ele>462</ele>
        <time>2020-06-30T08:35:38Z</time>
      </trkpt>
      <trkpt lat="43.02809" lon="0.57406">
        <ele>462</ele>
        <time>2020-06-30T08:35:39Z</time>
      </trkpt>
      <trkpt lat="43.02812" lon="0.57404">
        <ele>462</ele>
        <time>2020-06-30T08:35:40Z</time>
      </trkpt>
      <trkpt lat="43.02814" lon="0.57402">
        <ele>462</ele>
        <time>2020-06-30T08:35:41Z</time>
      </trkpt>
      <trkpt lat="43.02816" lon="0.574">
        <ele>462</ele>
        <time>2020-06-30T08:35:42Z</time>
      </trkpt>
      <trkpt lat="43.02819" lon="0.57397">
        <ele>462</ele>
        <time>2020-06-30T08:35:43Z</time>
      </trkpt>
      <trkpt lat="43.02821" lon="0.57394">
        <ele>462</ele>
        <time>2020-06-30T08:35:44Z</time>
      </trkpt>
      <trkpt lat="43.02823" lon="0.57392">
        <ele>462</ele>
        <time>2020-06-30T08:35:45Z</time>
      </trkpt>
      <trkpt lat="43.02826" lon="0.5739">
        <ele>462</ele>
        <time>2020-06-30T08:35:46Z</time>
      </trkpt>
      <trkpt lat="43.02828" lon="0.57389">
        <ele>462</ele>
        <time>2020-06-30T08:35:47Z</time>
      </trkpt>
      <trkpt lat="43.02829" lon="0.57388">
        <ele>462</ele>
        <time>2020-06-30T08:35:48Z</time>
      </trkpt>
      <trkpt lat="43.02831" lon="0.57394">
        <ele>462</ele>
        <time>2020-06-30T08:35:49Z</time>
      </trkpt>
      <trkpt lat="43.02832" lon="0.57394">
        <ele>462</ele>
        <time>2020-06-30T08:35:50Z</time>
      </trkpt>
      <trkpt lat="43.02832" lon="0.57394">
        <ele>462</ele>
        <time>2020-06-30T08:35:51Z</time>
      </trkpt>
      <trkpt lat="43.02833" lon="0.57394">
        <ele>462</ele>
        <time>2020-06-30T08:35:52Z</time>
      </trkpt>
      <trkpt lat="43.02832" lon="0.57393">
        <ele>462</ele>
        <time>2020-06-30T08:35:53Z</time>
      </trkpt>
      <trkpt lat="43.02832" lon="0.57393">
        <ele>462</ele>
        <time>2020-06-30T08:35:54Z</time>
      </trkpt>
      <trkpt lat="43.02831" lon="0.57393">
        <ele>462</ele>
        <time>2020-06-30T08:35:55Z</time>
      </trkpt>
      <trkpt lat="43.02831" lon="0.57392">
        <ele>462</ele>
        <time>2020-06-30T08:35:56Z</time>
      </trkpt>
      <trkpt lat="43.0283" lon="0.57392">
        <ele>462</ele>
        <time>2020-06-30T08:35:57Z</time>
      </trkpt>
      <trkpt lat="43.0283" lon="0.57391">
        <ele>462</ele>
        <time>2020-06-30T08:35:58Z</time>
      </trkpt>
      <trkpt lat="43.0283" lon="0.57391">
        <ele>462</ele>
        <time>2020-06-30T08:35:59Z</time>
      </trkpt>
      <trkpt lat="43.02829" lon="0.5739">
        <ele>462</ele>
        <time>2020-06-30T08:36:00Z</time>
      </trkpt>
      <trkpt lat="43.02829" lon="0.5739">
        <ele>462</ele>
        <time>2020-06-30T08:36:01Z</time>
      </trkpt>
      <trkpt lat="43.02829" lon="0.57389">
        <ele>462</ele>
        <time>2020-06-30T08:36:02Z</time>
      </trkpt>
      <trkpt lat="43.02787" lon="0.57379">
        <ele>462.2</ele>
        <time>2020-06-30T08:36:16Z</time>
      </trkpt>
      <trkpt lat="43.02789" lon="0.57385">
        <ele>462.1</ele>
        <time>2020-06-30T08:36:17Z</time>
      </trkpt>
      <trkpt lat="43.02789" lon="0.57383">
        <ele>462.1</ele>
        <time>2020-06-30T08:36:18Z</time>
      </trkpt>
      <trkpt lat="43.02788" lon="0.5738">
        <ele>462.2</ele>
        <time>2020-06-30T08:36:19Z</time>
      </trkpt>
      <trkpt lat="43.02787" lon="0.5738">
        <ele>462.2</ele>
        <time>2020-06-30T08:36:20Z</time>
      </trkpt>
      <trkpt lat="43.02788" lon="0.5738">
        <ele>462.2</ele>
        <time>2020-06-30T08:36:21Z</time>
      </trkpt>
      <trkpt lat="43.02786" lon="0.57378">
        <ele>462.3</ele>
        <time>2020-06-30T08:36:22Z</time>
      </trkpt>
      <trkpt lat="43.02786" lon="0.57379">
        <ele>462.3</ele>
        <time>2020-06-30T08:36:23Z</time>
      </trkpt>
      <trkpt lat="43.02787" lon="0.57382">
        <ele>462.2</ele>
        <time>2020-06-30T08:36:24Z</time>
      </trkpt>
      <trkpt lat="43.02788" lon="0.57383">
        <ele>462.1</ele>
        <time>2020-06-30T08:36:25Z</time>
      </trkpt>
      <trkpt lat="43.02787" lon="0.5738">
        <ele>462.2</ele>
        <time>2020-06-30T08:36:26Z</time>
      </trkpt>
      <trkpt lat="43.0279" lon="0.57385">
        <ele>462.1</ele>
        <time>2020-06-30T08:36:27Z</time>
      </trkpt>
      <trkpt lat="43.0279" lon="0.57381">
        <ele>462.2</ele>
        <time>2020-06-30T08:36:28Z</time>
      </trkpt>
      <trkpt lat="43.02791" lon="0.57383">
        <ele>462.1</ele>
        <time>2020-06-30T08:36:29Z</time>
      </trkpt>
      <trkpt lat="43.02792" lon="0.57384">
        <ele>462.1</ele>
        <time>2020-06-30T08:36:30Z</time>
      </trkpt>
      <trkpt lat="43.02793" lon="0.57386">
        <ele>462</ele>
        <time>2020-06-30T08:36:31Z</time>
      </trkpt>
      <trkpt lat="43.02795" lon="0.57387">
        <ele>462</ele>
        <time>2020-06-30T08:36:32Z</time>
      </trkpt>
      <trkpt lat="43.02797" lon="0.57388">
        <ele>462</ele>
        <time>2020-06-30T08:36:33Z</time>
      </trkpt>
      <trkpt lat="43.02798" lon="0.5739">
        <ele>462</ele>
        <time>2020-06-30T08:36:34Z</time>
      </trkpt>
      <trkpt lat="43.028" lon="0.57393">
        <ele>462</ele>
        <time>2020-06-30T08:36:35Z</time>
      </trkpt>
      <trkpt lat="43.02802" lon="0.57392">
        <ele>462</ele>
        <time>2020-06-30T08:36:36Z</time>
      </trkpt>
      <trkpt lat="43.02805" lon="0.57395">
        <ele>462</ele>
        <time>2020-06-30T08:36:37Z</time>
      </trkpt>
      <trkpt lat="43.02807" lon="0.57396">
        <ele>462</ele>
        <time>2020-06-30T08:36:38Z</time>
      </trkpt>
      <trkpt lat="43.0281" lon="0.57397">
        <ele>462</ele>
        <time>2020-06-30T08:36:39Z</time>
      </trkpt>
      <trkpt lat="43.02812" lon="0.57397">
        <ele>441.2</ele>
        <time>2020-06-30T08:36:40Z</time>
      </trkpt>
      <trkpt lat="43.02814" lon="0.574">
        <ele>441.2</ele>
        <time>2020-06-30T08:36:41Z</time>
      </trkpt>
      <trkpt lat="43.02814" lon="0.57398">
        <ele>441.2</ele>
        <time>2020-06-30T08:36:42Z</time>
      </trkpt>
      <trkpt lat="43.02817" lon="0.57399">
        <ele>441.2</ele>
        <time>2020-06-30T08:36:43Z</time>
      </trkpt>
      <trkpt lat="43.0282" lon="0.57401">
        <ele>441.2</ele>
        <time>2020-06-30T08:36:44Z</time>
      </trkpt>
      <trkpt lat="43.02824" lon="0.57406">
        <ele>441.2</ele>
        <time>2020-06-30T08:36:45Z</time>
      </trkpt>
      <trkpt lat="43.02826" lon="0.57408">
        <ele>441.2</ele>
        <time>2020-06-30T08:36:46Z</time>
      </trkpt>
      <trkpt lat="43.02827" lon="0.57411">
        <ele>441.2</ele>
        <time>2020-06-30T08:36:47Z</time>
      </trkpt>
      <trkpt lat="43.02829" lon="0.57411">
        <ele>441.4</ele>
        <time>2020-06-30T08:36:48Z</time>
      </trkpt>
      <trkpt lat="43.02831" lon="0.57412">
        <ele>441.4</ele>
        <time>2020-06-30T08:36:49Z</time>
      </trkpt>
      <trkpt lat="43.02833" lon="0.57415">
        <ele>441.2</ele>
        <time>2020-06-30T08:36:50Z</time>
      </trkpt>
      <trkpt lat="43.02835" lon="0.57415">
        <ele>441.4</ele>
        <time>2020-06-30T08:36:51Z</time>
      </trkpt>
      <trkpt lat="43.02837" lon="0.57416">
        <ele>441.2</ele>
        <time>2020-06-30T08:36:52Z</time>
      </trkpt>
      <trkpt lat="43.02839" lon="0.57419">
        <ele>441.2</ele>
        <time>2020-06-30T08:36:53Z</time>
      </trkpt>
      <trkpt lat="43.0284" lon="0.57418">
        <ele>441.2</ele>
        <time>2020-06-30T08:36:54Z</time>
      </trkpt>
      <trkpt lat="43.02841" lon="0.57418">
        <ele>441.4</ele>
        <time>2020-06-30T08:36:55Z</time>
      </trkpt>
      <trkpt lat="43.02843" lon="0.57422">
        <ele>441.2</ele>
        <time>2020-06-30T08:36:56Z</time>
      </trkpt>
      <trkpt lat="43.02846" lon="0.57422">
        <ele>441.4</ele>
        <time>2020-06-30T08:36:57Z</time>
      </trkpt>
      <trkpt lat="43.02849" lon="0.57424">
        <ele>441.2</ele>
        <time>2020-06-30T08:36:58Z</time>
      </trkpt>
      <trkpt lat="43.02852" lon="0.57427">
        <ele>441.2</ele>
        <time>2020-06-30T08:36:59Z</time>
      </trkpt>
      <trkpt lat="43.02857" lon="0.57428">
        <ele>441.2</ele>
        <time>2020-06-30T08:37:00Z</time>
      </trkpt>
      <trkpt lat="43.02859" lon="0.57432">
        <ele>441.4</ele>
        <time>2020-06-30T08:37:01Z</time>
      </trkpt>
      <trkpt lat="43.02861" lon="0.57434">
        <ele>441.4</ele>
        <time>2020-06-30T08:37:02Z</time>
      </trkpt>
      <trkpt lat="43.02863" lon="0.57434">
        <ele>441.4</ele>
        <time>2020-06-30T08:37:03Z</time>
      </trkpt>
      <trkpt lat="43.02867" lon="0.57436">
        <ele>441.4</ele>
        <time>2020-06-30T08:37:04Z</time>
      </trkpt>
      <trkpt lat="43.0287" lon="0.57439">
        <ele>441.4</ele>
        <time>2020-06-30T08:37:05Z</time>
      </trkpt>
      <trkpt lat="43.02872" lon="0.57439">
        <ele>441.2</ele>
        <time>2020-06-30T08:37:06Z</time>
      </trkpt>
      <trkpt lat="43.02874" lon="0.5744">
        <ele>441.2</ele>
        <time>2020-06-30T08:37:07Z</time>
      </trkpt>
      <trkpt lat="43.02875" lon="0.57439">
        <ele>441.2</ele>
        <time>2020-06-30T08:37:08Z</time>
      </trkpt>
      <trkpt lat="43.02878" lon="0.57444">
        <ele>441.2</ele>
        <time>2020-06-30T08:37:09Z</time>
      </trkpt>
      <trkpt lat="43.0288" lon="0.57445">
        <ele>441.2</ele>
        <time>2020-06-30T08:37:10Z</time>
      </trkpt>
      <trkpt lat="43.02882" lon="0.57444">
        <ele>441.2</ele>
        <time>2020-06-30T08:37:11Z</time>
      </trkpt>
      <trkpt lat="43.02883" lon="0.57446">
        <ele>441.2</ele>
        <time>2020-06-30T08:37:12Z</time>
      </trkpt>
      <trkpt lat="43.02885" lon="0.57449">
        <ele>441.2</ele>
        <time>2020-06-30T08:37:13Z</time>
      </trkpt>
      <trkpt lat="43.02887" lon="0.5745">
        <ele>441</ele>
        <time>2020-06-30T08:37:14Z</time>
      </trkpt>
      <trkpt lat="43.02889" lon="0.57452">
        <ele>441</ele>
        <time>2020-06-30T08:37:15Z</time>
      </trkpt>
      <trkpt lat="43.02891" lon="0.57452">
        <ele>440.8</ele>
        <time>2020-06-30T08:37:16Z</time>
      </trkpt>
      <trkpt lat="43.02891" lon="0.57453">
        <ele>440.8</ele>
        <time>2020-06-30T08:37:17Z</time>
      </trkpt>
      <trkpt lat="43.02894" lon="0.57453">
        <ele>440.8</ele>
        <time>2020-06-30T08:37:18Z</time>
      </trkpt>
      <trkpt lat="43.02895" lon="0.57451">
        <ele>440.8</ele>
        <time>2020-06-30T08:37:19Z</time>
      </trkpt>
      <trkpt lat="43.02897" lon="0.5745">
        <ele>440.6</ele>
        <time>2020-06-30T08:37:20Z</time>
      </trkpt>
      <trkpt lat="43.02897" lon="0.57447">
        <ele>440.6</ele>
        <time>2020-06-30T08:37:21Z</time>
      </trkpt>
      <trkpt lat="43.02898" lon="0.57446">
        <ele>440.6</ele>
        <time>2020-06-30T08:37:22Z</time>
      </trkpt>
      <trkpt lat="43.02899" lon="0.57444">
        <ele>440.6</ele>
        <time>2020-06-30T08:37:23Z</time>
      </trkpt>
      <trkpt lat="43.029" lon="0.57444">
        <ele>440.6</ele>
        <time>2020-06-30T08:37:24Z</time>
      </trkpt>
      <trkpt lat="43.02899" lon="0.57444">
        <ele>440.6</ele>
        <time>2020-06-30T08:37:25Z</time>
      </trkpt>
      <trkpt lat="43.02899" lon="0.57443">
        <ele>440.6</ele>
        <time>2020-06-30T08:37:26Z</time>
      </trkpt>
      <trkpt lat="43.02899" lon="0.57443">
        <ele>440.6</ele>
        <time>2020-06-30T08:37:27Z</time>
      </trkpt>
      <trkpt lat="43.029" lon="0.57442">
        <ele>440.6</ele>
        <time>2020-06-30T08:37:28Z</time>
      </trkpt>
      <trkpt lat="43.029" lon="0.57441">
        <ele>440.8</ele>
        <time>2020-06-30T08:37:29Z</time>
      </trkpt>
      <trkpt lat="43.029" lon="0.57442">
        <ele>440.6</ele>
        <time>2020-06-30T08:37:30Z</time>
      </trkpt>
      <trkpt lat="43.029" lon="0.57442">
        <ele>440.6</ele>
        <time>2020-06-30T08:37:31Z</time>
      </trkpt>
      <trkpt lat="43.029" lon="0.57442">
        <ele>440.6</ele>
        <time>2020-06-30T08:37:32Z</time>
      </trkpt>
      <trkpt lat="43.02901" lon="0.57441">
        <ele>440.6</ele>
        <time>2020-06-30T08:37:33Z</time>
      </trkpt>
      <trkpt lat="43.02902" lon="0.57441">
        <ele>440.6</ele>
        <time>2020-06-30T08:37:34Z</time>
      </trkpt>
      <trkpt lat="43.02902" lon="0.5744">
        <ele>440.6</ele>
        <time>2020-06-30T08:37:35Z</time>
      </trkpt>
      <trkpt lat="43.02907" lon="0.57437">
        <ele>440.6</ele>
        <time>2020-06-30T08:38:08Z</time>
      </trkpt>
      <trkpt lat="43.02908" lon="0.57436">
        <ele>440.6</ele>
        <time>2020-06-30T08:38:09Z</time>
      </trkpt>
      <trkpt lat="43.02909" lon="0.57435">
        <ele>440.6</ele>
        <time>2020-06-30T08:38:10Z</time>
      </trkpt>
      <trkpt lat="43.0291" lon="0.57433">
        <ele>440.6</ele>
        <time>2020-06-30T08:38:11Z</time>
      </trkpt>
      <trkpt lat="43.02912" lon="0.5743">
        <ele>440.6</ele>
        <time>2020-06-30T08:38:12Z</time>
      </trkpt>
      <trkpt lat="43.02913" lon="0.57428">
        <ele>440.4</ele>
        <time>2020-06-30T08:38:13Z</time>
      </trkpt>
      <trkpt lat="43.02916" lon="0.57423">
        <ele>440.4</ele>
        <time>2020-06-30T08:38:14Z</time>
      </trkpt>
      <trkpt lat="43.02919" lon="0.57419">
        <ele>440.4</ele>
        <time>2020-06-30T08:38:15Z</time>
      </trkpt>
      <trkpt lat="43.02921" lon="0.57416">
        <ele>440.4</ele>
        <time>2020-06-30T08:38:16Z</time>
      </trkpt>
      <trkpt lat="43.02923" lon="0.57413">
        <ele>440.4</ele>
        <time>2020-06-30T08:38:17Z</time>
      </trkpt>
      <trkpt lat="43.02925" lon="0.57408">
        <ele>440.2</ele>
        <time>2020-06-30T08:38:18Z</time>
      </trkpt>
      <trkpt lat="43.02927" lon="0.57404">
        <ele>440.2</ele>
        <time>2020-06-30T08:38:19Z</time>
      </trkpt>
      <trkpt lat="43.0293" lon="0.574">
        <ele>440.2</ele>
        <time>2020-06-30T08:38:20Z</time>
      </trkpt>
      <trkpt lat="43.02932" lon="0.57395">
        <ele>440.2</ele>
        <time>2020-06-30T08:38:21Z</time>
      </trkpt>
      <trkpt lat="43.02934" lon="0.5739">
        <ele>440.2</ele>
        <time>2020-06-30T08:38:22Z</time>
      </trkpt>
      <trkpt lat="43.02936" lon="0.57385">
        <ele>440.2</ele>
        <time>2020-06-30T08:38:23Z</time>
      </trkpt>
      <trkpt lat="43.02938" lon="0.57382">
        <ele>440</ele>
        <time>2020-06-30T08:38:24Z</time>
      </trkpt>
      <trkpt lat="43.0294" lon="0.57378">
        <ele>440</ele>
        <time>2020-06-30T08:38:25Z</time>
      </trkpt>
      <trkpt lat="43.02942" lon="0.57374">
        <ele>440</ele>
        <time>2020-06-30T08:38:26Z</time>
      </trkpt>
      <trkpt lat="43.02944" lon="0.5737">
        <ele>440</ele>
        <time>2020-06-30T08:38:27Z</time>
      </trkpt>
      <trkpt lat="43.02946" lon="0.57366">
        <ele>439.8</ele>
        <time>2020-06-30T08:38:28Z</time>
      </trkpt>
      <trkpt lat="43.02948" lon="0.57362">
        <ele>439.8</ele>
        <time>2020-06-30T08:38:29Z</time>
      </trkpt>
      <trkpt lat="43.02949" lon="0.57359">
        <ele>439.8</ele>
        <time>2020-06-30T08:38:30Z</time>
      </trkpt>
      <trkpt lat="43.0295" lon="0.57355">
        <ele>439.8</ele>
        <time>2020-06-30T08:38:31Z</time>
      </trkpt>
      <trkpt lat="43.02951" lon="0.57352">
        <ele>439.8</ele>
        <time>2020-06-30T08:38:32Z</time>
      </trkpt>
      <trkpt lat="43.02952" lon="0.57348">
        <ele>439.8</ele>
        <time>2020-06-30T08:38:33Z</time>
      </trkpt>
      <trkpt lat="43.02953" lon="0.57345">
        <ele>439.8</ele>
        <time>2020-06-30T08:38:34Z</time>
      </trkpt>
      <trkpt lat="43.02955" lon="0.57342">
        <ele>439.8</ele>
        <time>2020-06-30T08:38:35Z</time>
      </trkpt>
      <trkpt lat="43.02956" lon="0.57339">
        <ele>439.8</ele>
        <time>2020-06-30T08:38:36Z</time>
      </trkpt>
      <trkpt lat="43.02957" lon="0.57336">
        <ele>439.8</ele>
        <time>2020-06-30T08:38:37Z</time>
      </trkpt>
      <trkpt lat="43.02958" lon="0.57333">
        <ele>439.8</ele>
        <time>2020-06-30T08:38:38Z</time>
      </trkpt>
      <trkpt lat="43.02958" lon="0.57331">
        <ele>439.8</ele>
        <time>2020-06-30T08:38:39Z</time>
      </trkpt>
      <trkpt lat="43.02959" lon="0.5733">
        <ele>439.8</ele>
        <time>2020-06-30T08:38:40Z</time>
      </trkpt>
      <trkpt lat="43.02961" lon="0.57326">
        <ele>439.8</ele>
        <time>2020-06-30T08:38:41Z</time>
      </trkpt>
      <trkpt lat="43.02962" lon="0.57323">
        <ele>439.8</ele>
        <time>2020-06-30T08:38:42Z</time>
      </trkpt>
      <trkpt lat="43.02962" lon="0.5732">
        <ele>439.8</ele>
        <time>2020-06-30T08:38:43Z</time>
      </trkpt>
      <trkpt lat="43.02963" lon="0.57316">
        <ele>439.6</ele>
        <time>2020-06-30T08:38:44Z</time>
      </trkpt>
      <trkpt lat="43.02964" lon="0.57312">
        <ele>439.6</ele>
        <time>2020-06-30T08:38:45Z</time>
      </trkpt>
      <trkpt lat="43.02966" lon="0.57308">
        <ele>439.6</ele>
        <time>2020-06-30T08:38:46Z</time>
      </trkpt>
      <trkpt lat="43.02967" lon="0.57304">
        <ele>439.6</ele>
        <time>2020-06-30T08:38:47Z</time>
      </trkpt>
      <trkpt lat="43.02969" lon="0.57301">
        <ele>439.6</ele>
        <time>2020-06-30T08:38:48Z</time>
      </trkpt>
      <trkpt lat="43.02971" lon="0.57297">
        <ele>439.6</ele>
        <time>2020-06-30T08:38:49Z</time>
      </trkpt>
      <trkpt lat="43.02973" lon="0.57293">
        <ele>439.6</ele>
        <time>2020-06-30T08:38:50Z</time>
      </trkpt>
      <trkpt lat="43.02975" lon="0.57289">
        <ele>439.6</ele>
        <time>2020-06-30T08:38:51Z</time>
      </trkpt>
      <trkpt lat="43.02977" lon="0.57285">
        <ele>439.4</ele>
        <time>2020-06-30T08:38:52Z</time>
      </trkpt>
      <trkpt lat="43.02979" lon="0.57282">
        <ele>439.4</ele>
        <time>2020-06-30T08:38:53Z</time>
      </trkpt>
      <trkpt lat="43.02982" lon="0.57278">
        <ele>439.2</ele>
        <time>2020-06-30T08:38:54Z</time>
      </trkpt>
      <trkpt lat="43.02983" lon="0.57273">
        <ele>439.2</ele>
        <time>2020-06-30T08:38:55Z</time>
      </trkpt>
      <trkpt lat="43.02985" lon="0.5727">
        <ele>439.2</ele>
        <time>2020-06-30T08:38:56Z</time>
      </trkpt>
      <trkpt lat="43.02988" lon="0.57265">
        <ele>439.2</ele>
        <time>2020-06-30T08:38:57Z</time>
      </trkpt>
      <trkpt lat="43.02989" lon="0.57261">
        <ele>439.2</ele>
        <time>2020-06-30T08:38:58Z</time>
      </trkpt>
      <trkpt lat="43.02991" lon="0.57256">
        <ele>439</ele>
        <time>2020-06-30T08:38:59Z</time>
      </trkpt>
      <trkpt lat="43.02993" lon="0.57251">
        <ele>439.2</ele>
        <time>2020-06-30T08:39:00Z</time>
      </trkpt>
      <trkpt lat="43.02995" lon="0.57247">
        <ele>439</ele>
        <time>2020-06-30T08:39:01Z</time>
      </trkpt>
      <trkpt lat="43.02996" lon="0.57243">
        <ele>439</ele>
        <time>2020-06-30T08:39:02Z</time>
      </trkpt>
      <trkpt lat="43.02998" lon="0.57239">
        <ele>439</ele>
        <time>2020-06-30T08:39:03Z</time>
      </trkpt>
      <trkpt lat="43.03" lon="0.57236">
        <ele>439</ele>
        <time>2020-06-30T08:39:04Z</time>
      </trkpt>
      <trkpt lat="43.03002" lon="0.57232">
        <ele>439</ele>
        <time>2020-06-30T08:39:05Z</time>
      </trkpt>
      <trkpt lat="43.03004" lon="0.57229">
        <ele>439</ele>
        <time>2020-06-30T08:39:06Z</time>
      </trkpt>
      <trkpt lat="43.03006" lon="0.57225">
        <ele>439</ele>
        <time>2020-06-30T08:39:07Z</time>
      </trkpt>
      <trkpt lat="43.03008" lon="0.57222">
        <ele>439</ele>
        <time>2020-06-30T08:39:08Z</time>
      </trkpt>
      <trkpt lat="43.0301" lon="0.5722">
        <ele>439</ele>
        <time>2020-06-30T08:39:09Z</time>
      </trkpt>
      <trkpt lat="43.03011" lon="0.57218">
        <ele>439</ele>
        <time>2020-06-30T08:39:10Z</time>
      </trkpt>
      <trkpt lat="43.03012" lon="0.57215">
        <ele>439</ele>
        <time>2020-06-30T08:39:11Z</time>
      </trkpt>
      <trkpt lat="43.03014" lon="0.57211">
        <ele>439</ele>
        <time>2020-06-30T08:39:12Z</time>
      </trkpt>
      <trkpt lat="43.03016" lon="0.57208">
        <ele>439</ele>
        <time>2020-06-30T08:39:13Z</time>
      </trkpt>
      <trkpt lat="43.03018" lon="0.57203">
        <ele>438.8</ele>
        <time>2020-06-30T08:39:14Z</time>
      </trkpt>
      <trkpt lat="43.03019" lon="0.57199">
        <ele>438.8</ele>
        <time>2020-06-30T08:39:15Z</time>
      </trkpt>
      <trkpt lat="43.03021" lon="0.57196">
        <ele>438.8</ele>
        <time>2020-06-30T08:39:16Z</time>
      </trkpt>
      <trkpt lat="43.03021" lon="0.57196">
        <ele>438.8</ele>
        <time>2020-06-30T08:39:17Z</time>
      </trkpt>
      <trkpt lat="43.03021" lon="0.57195">
        <ele>438.8</ele>
        <time>2020-06-30T08:39:18Z</time>
      </trkpt>
      <trkpt lat="43.03022" lon="0.57195">
        <ele>438.8</ele>
        <time>2020-06-30T08:39:19Z</time>
      </trkpt>
      <trkpt lat="43.03022" lon="0.57195">
        <ele>438.8</ele>
        <time>2020-06-30T08:39:20Z</time>
      </trkpt>
      <trkpt lat="43.03022" lon="0.57195">
        <ele>438.8</ele>
        <time>2020-06-30T08:39:21Z</time>
      </trkpt>
      <trkpt lat="43.03021" lon="0.57194">
        <ele>438.8</ele>
        <time>2020-06-30T08:39:22Z</time>
      </trkpt>
      <trkpt lat="43.03021" lon="0.57193">
        <ele>438.8</ele>
        <time>2020-06-30T08:39:23Z</time>
      </trkpt>
      <trkpt lat="43.03021" lon="0.57194">
        <ele>438.8</ele>
        <time>2020-06-30T08:39:24Z</time>
      </trkpt>
      <trkpt lat="43.0302" lon="0.57193">
        <ele>438.8</ele>
        <time>2020-06-30T08:39:25Z</time>
      </trkpt>
      <trkpt lat="43.0302" lon="0.57194">
        <ele>438.8</ele>
        <time>2020-06-30T08:39:26Z</time>
      </trkpt>
      <trkpt lat="43.0302" lon="0.57195">
        <ele>438.8</ele>
        <time>2020-06-30T08:39:27Z</time>
      </trkpt>
      <trkpt lat="43.0302" lon="0.57195">
        <ele>438.8</ele>
        <time>2020-06-30T08:39:28Z</time>
      </trkpt>
      <trkpt lat="43.03021" lon="0.57195">
        <ele>438.8</ele>
        <time>2020-06-30T08:39:29Z</time>
      </trkpt>
      <trkpt lat="43.03022" lon="0.57194">
        <ele>438.8</ele>
        <time>2020-06-30T08:39:30Z</time>
      </trkpt>
      <trkpt lat="43.03022" lon="0.57194">
        <ele>439</ele>
        <time>2020-06-30T08:39:31Z</time>
      </trkpt>
      <trkpt lat="43.03022" lon="0.57195">
        <ele>438.8</ele>
        <time>2020-06-30T08:39:32Z</time>
      </trkpt>
      <trkpt lat="43.03022" lon="0.57194">
        <ele>438.8</ele>
        <time>2020-06-30T08:39:33Z</time>
      </trkpt>
      <trkpt lat="43.03022" lon="0.57193">
        <ele>438.8</ele>
        <time>2020-06-30T08:39:34Z</time>
      </trkpt>
      <trkpt lat="43.03022" lon="0.57193">
        <ele>438.8</ele>
        <time>2020-06-30T08:39:35Z</time>
      </trkpt>
      <trkpt lat="43.03021" lon="0.57194">
        <ele>439</ele>
        <time>2020-06-30T08:39:36Z</time>
      </trkpt>
      <trkpt lat="43.03021" lon="0.57193">
        <ele>438.8</ele>
        <time>2020-06-30T08:39:37Z</time>
      </trkpt>
      <trkpt lat="43.03021" lon="0.57193">
        <ele>438.8</ele>
        <time>2020-06-30T08:39:38Z</time>
      </trkpt>
      <trkpt lat="43.03021" lon="0.57193">
        <ele>438.8</ele>
        <time>2020-06-30T08:39:39Z</time>
      </trkpt>
      <trkpt lat="43.03022" lon="0.57192">
        <ele>438.8</ele>
        <time>2020-06-30T08:39:40Z</time>
      </trkpt>
      <trkpt lat="43.03022" lon="0.57192">
        <ele>438.8</ele>
        <time>2020-06-30T08:39:41Z</time>
      </trkpt>
      <trkpt lat="43.03024" lon="0.57182">
        <ele>439</ele>
        <time>2020-06-30T08:40:02Z</time>
      </trkpt>
      <trkpt lat="43.03026" lon="0.57181">
        <ele>439</ele>
        <time>2020-06-30T08:40:03Z</time>
      </trkpt>
      <trkpt lat="43.03027" lon="0.57179">
        <ele>439</ele>
        <time>2020-06-30T08:40:04Z</time>
      </trkpt>
      <trkpt lat="43.03028" lon="0.57178">
        <ele>439</ele>
        <time>2020-06-30T08:40:05Z</time>
      </trkpt>
      <trkpt lat="43.03028" lon="0.57178">
        <ele>439</ele>
        <time>2020-06-30T08:40:06Z</time>
      </trkpt>
      <trkpt lat="43.03028" lon="0.57174">
        <ele>439</ele>
        <time>2020-06-30T08:40:07Z</time>
      </trkpt>
      <trkpt lat="43.03029" lon="0.57172">
        <ele>439</ele>
        <time>2020-06-30T08:40:08Z</time>
      </trkpt>
      <trkpt lat="43.0303" lon="0.57169">
        <ele>439</ele>
        <time>2020-06-30T08:40:09Z</time>
      </trkpt>
      <trkpt lat="43.03031" lon="0.57166">
        <ele>439</ele>
        <time>2020-06-30T08:40:10Z</time>
      </trkpt>
      <trkpt lat="43.03032" lon="0.57162">
        <ele>439</ele>
        <time>2020-06-30T08:40:11Z</time>
      </trkpt>
      <trkpt lat="43.03033" lon="0.57158">
        <ele>439</ele>
        <time>2020-06-30T08:40:12Z</time>
      </trkpt>
      <trkpt lat="43.03035" lon="0.57156">
        <ele>439</ele>
        <time>2020-06-30T08:40:13Z</time>
      </trkpt>
      <trkpt lat="43.03037" lon="0.57151">
        <ele>439</ele>
        <time>2020-06-30T08:40:14Z</time>
      </trkpt>
      <trkpt lat="43.03038" lon="0.57149">
        <ele>439</ele>
        <time>2020-06-30T08:40:15Z</time>
      </trkpt>
      <trkpt lat="43.0304" lon="0.57146">
        <ele>439</ele>
        <time>2020-06-30T08:40:16Z</time>
      </trkpt>
      <trkpt lat="43.03041" lon="0.57143">
        <ele>438.8</ele>
        <time>2020-06-30T08:40:17Z</time>
      </trkpt>
      <trkpt lat="43.03042" lon="0.57141">
        <ele>438.8</ele>
        <time>2020-06-30T08:40:18Z</time>
      </trkpt>
      <trkpt lat="43.03044" lon="0.57139">
        <ele>438.8</ele>
        <time>2020-06-30T08:40:19Z</time>
      </trkpt>
      <trkpt lat="43.03045" lon="0.57136">
        <ele>438.8</ele>
        <time>2020-06-30T08:40:20Z</time>
      </trkpt>
      <trkpt lat="43.03047" lon="0.57133">
        <ele>438.6</ele>
        <time>2020-06-30T08:40:21Z</time>
      </trkpt>
      <trkpt lat="43.03049" lon="0.5713">
        <ele>438.6</ele>
        <time>2020-06-30T08:40:22Z</time>
      </trkpt>
      <trkpt lat="43.0305" lon="0.57128">
        <ele>438.6</ele>
        <time>2020-06-30T08:40:23Z</time>
      </trkpt>
      <trkpt lat="43.03051" lon="0.57124">
        <ele>438.6</ele>
        <time>2020-06-30T08:40:24Z</time>
      </trkpt>
      <trkpt lat="43.03052" lon="0.57123">
        <ele>438.6</ele>
        <time>2020-06-30T08:40:25Z</time>
      </trkpt>
      <trkpt lat="43.03053" lon="0.57119">
        <ele>438.6</ele>
        <time>2020-06-30T08:40:26Z</time>
      </trkpt>
      <trkpt lat="43.03056" lon="0.57115">
        <ele>438.4</ele>
        <time>2020-06-30T08:40:27Z</time>
      </trkpt>
      <trkpt lat="43.03058" lon="0.57111">
        <ele>438.4</ele>
        <time>2020-06-30T08:40:28Z</time>
      </trkpt>
      <trkpt lat="43.0306" lon="0.57108">
        <ele>438.4</ele>
        <time>2020-06-30T08:40:29Z</time>
      </trkpt>
      <trkpt lat="43.03062" lon="0.57103">
        <ele>438.4</ele>
        <time>2020-06-30T08:40:30Z</time>
      </trkpt>
      <trkpt lat="43.03064" lon="0.57098">
        <ele>438.4</ele>
        <time>2020-06-30T08:40:31Z</time>
      </trkpt>
      <trkpt lat="43.03067" lon="0.57094">
        <ele>438.4</ele>
        <time>2020-06-30T08:40:32Z</time>
      </trkpt>
      <trkpt lat="43.03069" lon="0.57088">
        <ele>438.2</ele>
        <time>2020-06-30T08:40:33Z</time>
      </trkpt>
      <trkpt lat="43.03072" lon="0.57083">
        <ele>438.2</ele>
        <time>2020-06-30T08:40:34Z</time>
      </trkpt>
      <trkpt lat="43.03074" lon="0.57077">
        <ele>438.2</ele>
        <time>2020-06-30T08:40:35Z</time>
      </trkpt>
      <trkpt lat="43.03077" lon="0.57073">
        <ele>438.2</ele>
        <time>2020-06-30T08:40:36Z</time>
      </trkpt>
      <trkpt lat="43.0308" lon="0.57068">
        <ele>438.2</ele>
        <time>2020-06-30T08:40:37Z</time>
      </trkpt>
      <trkpt lat="43.03082" lon="0.57063">
        <ele>438.2</ele>
        <time>2020-06-30T08:40:38Z</time>
      </trkpt>
      <trkpt lat="43.03085" lon="0.57057">
        <ele>438.2</ele>
        <time>2020-06-30T08:40:39Z</time>
      </trkpt>
      <trkpt lat="43.03088" lon="0.57052">
        <ele>438.2</ele>
        <time>2020-06-30T08:40:40Z</time>
      </trkpt>
      <trkpt lat="43.03091" lon="0.57048">
        <ele>438</ele>
        <time>2020-06-30T08:40:41Z</time>
      </trkpt>
      <trkpt lat="43.03094" lon="0.57042">
        <ele>438.2</ele>
        <time>2020-06-30T08:40:42Z</time>
      </trkpt>
      <trkpt lat="43.03098" lon="0.57038">
        <ele>438</ele>
        <time>2020-06-30T08:40:43Z</time>
      </trkpt>
      <trkpt lat="43.03101" lon="0.57033">
        <ele>437.8</ele>
        <time>2020-06-30T08:40:44Z</time>
      </trkpt>
      <trkpt lat="43.03103" lon="0.57028">
        <ele>437.8</ele>
        <time>2020-06-30T08:40:45Z</time>
      </trkpt>
      <trkpt lat="43.03107" lon="0.57024">
        <ele>437.8</ele>
        <time>2020-06-30T08:40:46Z</time>
      </trkpt>
      <trkpt lat="43.03109" lon="0.57021">
        <ele>437.8</ele>
        <time>2020-06-30T08:40:47Z</time>
      </trkpt>
      <trkpt lat="43.03112" lon="0.57015">
        <ele>437.6</ele>
        <time>2020-06-30T08:40:48Z</time>
      </trkpt>
      <trkpt lat="43.03115" lon="0.5701">
        <ele>437.6</ele>
        <time>2020-06-30T08:40:49Z</time>
      </trkpt>
      <trkpt lat="43.03118" lon="0.57004">
        <ele>437.6</ele>
        <time>2020-06-30T08:40:50Z</time>
      </trkpt>
      <trkpt lat="43.03121" lon="0.56999">
        <ele>437.6</ele>
        <time>2020-06-30T08:40:51Z</time>
      </trkpt>
      <trkpt lat="43.03124" lon="0.56994">
        <ele>437.4</ele>
        <time>2020-06-30T08:40:52Z</time>
      </trkpt>
      <trkpt lat="43.03128" lon="0.56988">
        <ele>437.4</ele>
        <time>2020-06-30T08:40:53Z</time>
      </trkpt>
      <trkpt lat="43.03131" lon="0.56984">
        <ele>437.4</ele>
        <time>2020-06-30T08:40:54Z</time>
      </trkpt>
      <trkpt lat="43.03133" lon="0.56978">
        <ele>437.2</ele>
        <time>2020-06-30T08:40:55Z</time>
      </trkpt>
      <trkpt lat="43.03137" lon="0.56973">
        <ele>437.2</ele>
        <time>2020-06-30T08:40:56Z</time>
      </trkpt>
      <trkpt lat="43.03139" lon="0.56968">
        <ele>437.2</ele>
        <time>2020-06-30T08:40:57Z</time>
      </trkpt>
      <trkpt lat="43.03143" lon="0.56961">
        <ele>437.2</ele>
        <time>2020-06-30T08:40:58Z</time>
      </trkpt>
      <trkpt lat="43.03146" lon="0.56956">
        <ele>437</ele>
        <time>2020-06-30T08:40:59Z</time>
      </trkpt>
      <trkpt lat="43.0315" lon="0.5695">
        <ele>437</ele>
        <time>2020-06-30T08:41:00Z</time>
      </trkpt>
      <trkpt lat="43.03153" lon="0.56945">
        <ele>437</ele>
        <time>2020-06-30T08:41:01Z</time>
      </trkpt>
      <trkpt lat="43.03157" lon="0.5694">
        <ele>437.2</ele>
        <time>2020-06-30T08:41:02Z</time>
      </trkpt>
      <trkpt lat="43.0316" lon="0.56934">
        <ele>437</ele>
        <time>2020-06-30T08:41:03Z</time>
      </trkpt>
      <trkpt lat="43.03163" lon="0.56929">
        <ele>437</ele>
        <time>2020-06-30T08:41:04Z</time>
      </trkpt>
      <trkpt lat="43.03166" lon="0.56924">
        <ele>437</ele>
        <time>2020-06-30T08:41:05Z</time>
      </trkpt>
      <trkpt lat="43.03169" lon="0.56919">
        <ele>437</ele>
        <time>2020-06-30T08:41:06Z</time>
      </trkpt>
      <trkpt lat="43.03173" lon="0.56912">
        <ele>437</ele>
        <time>2020-06-30T08:41:07Z</time>
      </trkpt>
      <trkpt lat="43.03176" lon="0.56906">
        <ele>436.8</ele>
        <time>2020-06-30T08:41:08Z</time>
      </trkpt>
      <trkpt lat="43.03179" lon="0.56901">
        <ele>436.8</ele>
        <time>2020-06-30T08:41:09Z</time>
      </trkpt>
      <trkpt lat="43.03182" lon="0.56894">
        <ele>436.8</ele>
        <time>2020-06-30T08:41:10Z</time>
      </trkpt>
      <trkpt lat="43.03185" lon="0.56889">
        <ele>436.6</ele>
        <time>2020-06-30T08:41:11Z</time>
      </trkpt>
      <trkpt lat="43.03189" lon="0.56884">
        <ele>436.6</ele>
        <time>2020-06-30T08:41:12Z</time>
      </trkpt>
      <trkpt lat="43.03192" lon="0.56879">
        <ele>436.6</ele>
        <time>2020-06-30T08:41:13Z</time>
      </trkpt>
      <trkpt lat="43.03196" lon="0.56872">
        <ele>436.6</ele>
        <time>2020-06-30T08:41:14Z</time>
      </trkpt>
      <trkpt lat="43.032" lon="0.56868">
        <ele>436.6</ele>
        <time>2020-06-30T08:41:15Z</time>
      </trkpt>
      <trkpt lat="43.03203" lon="0.56863">
        <ele>436.4</ele>
        <time>2020-06-30T08:41:16Z</time>
      </trkpt>
      <trkpt lat="43.03207" lon="0.56858">
        <ele>436.4</ele>
        <time>2020-06-30T08:41:17Z</time>
      </trkpt>
      <trkpt lat="43.0321" lon="0.56853">
        <ele>436.2</ele>
        <time>2020-06-30T08:41:18Z</time>
      </trkpt>
      <trkpt lat="43.03213" lon="0.56848">
        <ele>436.2</ele>
        <time>2020-06-30T08:41:19Z</time>
      </trkpt>
      <trkpt lat="43.03217" lon="0.56843">
        <ele>436.2</ele>
        <time>2020-06-30T08:41:20Z</time>
      </trkpt>
      <trkpt lat="43.03221" lon="0.56839">
        <ele>436.2</ele>
        <time>2020-06-30T08:41:21Z</time>
      </trkpt>
      <trkpt lat="43.03225" lon="0.56834">
        <ele>436.2</ele>
        <time>2020-06-30T08:41:22Z</time>
      </trkpt>
      <trkpt lat="43.03229" lon="0.56829">
        <ele>436</ele>
        <time>2020-06-30T08:41:23Z</time>
      </trkpt>
      <trkpt lat="43.03233" lon="0.56825">
        <ele>436</ele>
        <time>2020-06-30T08:41:24Z</time>
      </trkpt>
      <trkpt lat="43.03238" lon="0.5682">
        <ele>435.8</ele>
        <time>2020-06-30T08:41:25Z</time>
      </trkpt>
      <trkpt lat="43.03242" lon="0.56814">
        <ele>435.8</ele>
        <time>2020-06-30T08:41:26Z</time>
      </trkpt>
      <trkpt lat="43.03247" lon="0.5681">
        <ele>435.8</ele>
        <time>2020-06-30T08:41:27Z</time>
      </trkpt>
      <trkpt lat="43.03251" lon="0.56804">
        <ele>435.8</ele>
        <time>2020-06-30T08:41:28Z</time>
      </trkpt>
      <trkpt lat="43.03256" lon="0.568">
        <ele>435.8</ele>
        <time>2020-06-30T08:41:29Z</time>
      </trkpt>
      <trkpt lat="43.0326" lon="0.56794">
        <ele>435.6</ele>
        <time>2020-06-30T08:41:30Z</time>
      </trkpt>
      <trkpt lat="43.03264" lon="0.56789">
        <ele>435.6</ele>
        <time>2020-06-30T08:41:31Z</time>
      </trkpt>
      <trkpt lat="43.03268" lon="0.56784">
        <ele>435.4</ele>
        <time>2020-06-30T08:41:32Z</time>
      </trkpt>
      <trkpt lat="43.03273" lon="0.5678">
        <ele>435.4</ele>
        <time>2020-06-30T08:41:33Z</time>
      </trkpt>
      <trkpt lat="43.03277" lon="0.56775">
        <ele>435.2</ele>
        <time>2020-06-30T08:41:34Z</time>
      </trkpt>
      <trkpt lat="43.03282" lon="0.5677">
        <ele>435.2</ele>
        <time>2020-06-30T08:41:35Z</time>
      </trkpt>
      <trkpt lat="43.03286" lon="0.56767">
        <ele>435.2</ele>
        <time>2020-06-30T08:41:36Z</time>
      </trkpt>
      <trkpt lat="43.03292" lon="0.56764">
        <ele>435</ele>
        <time>2020-06-30T08:41:37Z</time>
      </trkpt>
      <trkpt lat="43.03295" lon="0.56759">
        <ele>435</ele>
        <time>2020-06-30T08:41:38Z</time>
      </trkpt>
      <trkpt lat="43.033" lon="0.56754">
        <ele>435</ele>
        <time>2020-06-30T08:41:39Z</time>
      </trkpt>
      <trkpt lat="43.03303" lon="0.56749">
        <ele>434.8</ele>
        <time>2020-06-30T08:41:40Z</time>
      </trkpt>
      <trkpt lat="43.03307" lon="0.56743">
        <ele>434.8</ele>
        <time>2020-06-30T08:41:41Z</time>
      </trkpt>
      <trkpt lat="43.03313" lon="0.56741">
        <ele>434.6</ele>
        <time>2020-06-30T08:41:42Z</time>
      </trkpt>
      <trkpt lat="43.03318" lon="0.56737">
        <ele>434.6</ele>
        <time>2020-06-30T08:41:43Z</time>
      </trkpt>
      <trkpt lat="43.03322" lon="0.56729">
        <ele>434.6</ele>
        <time>2020-06-30T08:41:44Z</time>
      </trkpt>
      <trkpt lat="43.03327" lon="0.56728">
        <ele>434.6</ele>
        <time>2020-06-30T08:41:45Z</time>
      </trkpt>
      <trkpt lat="43.0333" lon="0.56721">
        <ele>434.6</ele>
        <time>2020-06-30T08:41:46Z</time>
      </trkpt>
      <trkpt lat="43.03333" lon="0.56716">
        <ele>434.6</ele>
        <time>2020-06-30T08:41:47Z</time>
      </trkpt>
      <trkpt lat="43.03337" lon="0.56711">
        <ele>434.6</ele>
        <time>2020-06-30T08:41:48Z</time>
      </trkpt>
      <trkpt lat="43.03341" lon="0.56706">
        <ele>434.6</ele>
        <time>2020-06-30T08:41:49Z</time>
      </trkpt>
      <trkpt lat="43.03344" lon="0.56701">
        <ele>434.6</ele>
        <time>2020-06-30T08:41:50Z</time>
      </trkpt>
      <trkpt lat="43.03348" lon="0.56693">
        <ele>434.6</ele>
        <time>2020-06-30T08:41:51Z</time>
      </trkpt>
      <trkpt lat="43.0335" lon="0.56686">
        <ele>434.4</ele>
        <time>2020-06-30T08:41:52Z</time>
      </trkpt>
      <trkpt lat="43.03354" lon="0.5668">
        <ele>434.4</ele>
        <time>2020-06-30T08:41:53Z</time>
      </trkpt>
      <trkpt lat="43.03356" lon="0.56675">
        <ele>434.4</ele>
        <time>2020-06-30T08:41:54Z</time>
      </trkpt>
      <trkpt lat="43.0336" lon="0.56668">
        <ele>434.4</ele>
        <time>2020-06-30T08:41:55Z</time>
      </trkpt>
      <trkpt lat="43.03361" lon="0.56661">
        <ele>434.4</ele>
        <time>2020-06-30T08:41:56Z</time>
      </trkpt>
      <trkpt lat="43.03364" lon="0.56654">
        <ele>434.2</ele>
        <time>2020-06-30T08:41:57Z</time>
      </trkpt>
      <trkpt lat="43.03368" lon="0.56649">
        <ele>434.2</ele>
        <time>2020-06-30T08:41:58Z</time>
      </trkpt>
      <trkpt lat="43.03371" lon="0.5664">
        <ele>434</ele>
        <time>2020-06-30T08:41:59Z</time>
      </trkpt>
      <trkpt lat="43.03373" lon="0.56633">
        <ele>434</ele>
        <time>2020-06-30T08:42:00Z</time>
      </trkpt>
      <trkpt lat="43.03377" lon="0.56625">
        <ele>433.8</ele>
        <time>2020-06-30T08:42:01Z</time>
      </trkpt>
      <trkpt lat="43.0338" lon="0.56622">
        <ele>433.8</ele>
        <time>2020-06-30T08:42:02Z</time>
      </trkpt>
      <trkpt lat="43.03384" lon="0.56614">
        <ele>433.6</ele>
        <time>2020-06-30T08:42:03Z</time>
      </trkpt>
      <trkpt lat="43.03387" lon="0.56607">
        <ele>433.6</ele>
        <time>2020-06-30T08:42:04Z</time>
      </trkpt>
      <trkpt lat="43.03389" lon="0.56602">
        <ele>433.6</ele>
        <time>2020-06-30T08:42:05Z</time>
      </trkpt>
      <trkpt lat="43.03392" lon="0.56595">
        <ele>433.6</ele>
        <time>2020-06-30T08:42:06Z</time>
      </trkpt>
      <trkpt lat="43.03395" lon="0.56588">
        <ele>433.4</ele>
        <time>2020-06-30T08:42:07Z</time>
      </trkpt>
      <trkpt lat="43.03398" lon="0.56581">
        <ele>433.4</ele>
        <time>2020-06-30T08:42:08Z</time>
      </trkpt>
      <trkpt lat="43.034" lon="0.56575">
        <ele>433.4</ele>
        <time>2020-06-30T08:42:09Z</time>
      </trkpt>
      <trkpt lat="43.03403" lon="0.56568">
        <ele>433.2</ele>
        <time>2020-06-30T08:42:10Z</time>
      </trkpt>
      <trkpt lat="43.03406" lon="0.56561">
        <ele>433.2</ele>
        <time>2020-06-30T08:42:11Z</time>
      </trkpt>
      <trkpt lat="43.03409" lon="0.56555">
        <ele>433</ele>
        <time>2020-06-30T08:42:12Z</time>
      </trkpt>
      <trkpt lat="43.03413" lon="0.56549">
        <ele>433.2</ele>
        <time>2020-06-30T08:42:13Z</time>
      </trkpt>
      <trkpt lat="43.03416" lon="0.56543">
        <ele>433</ele>
        <time>2020-06-30T08:42:14Z</time>
      </trkpt>
      <trkpt lat="43.03419" lon="0.56536">
        <ele>433</ele>
        <time>2020-06-30T08:42:15Z</time>
      </trkpt>
      <trkpt lat="43.03422" lon="0.56531">
        <ele>433</ele>
        <time>2020-06-30T08:42:16Z</time>
      </trkpt>
      <trkpt lat="43.03424" lon="0.56526">
        <ele>433</ele>
        <time>2020-06-30T08:42:17Z</time>
      </trkpt>
      <trkpt lat="43.03427" lon="0.5652">
        <ele>433</ele>
        <time>2020-06-30T08:42:18Z</time>
      </trkpt>
      <trkpt lat="43.0343" lon="0.56513">
        <ele>433.2</ele>
        <time>2020-06-30T08:42:19Z</time>
      </trkpt>
      <trkpt lat="43.03432" lon="0.56507">
        <ele>433.2</ele>
        <time>2020-06-30T08:42:20Z</time>
      </trkpt>
      <trkpt lat="43.03435" lon="0.56501">
        <ele>433.2</ele>
        <time>2020-06-30T08:42:21Z</time>
      </trkpt>
      <trkpt lat="43.03438" lon="0.56495">
        <ele>433.2</ele>
        <time>2020-06-30T08:42:22Z</time>
      </trkpt>
      <trkpt lat="43.0344" lon="0.56487">
        <ele>433.2</ele>
        <time>2020-06-30T08:42:23Z</time>
      </trkpt>
      <trkpt lat="43.03442" lon="0.56482">
        <ele>433.4</ele>
        <time>2020-06-30T08:42:24Z</time>
      </trkpt>
      <trkpt lat="43.03445" lon="0.56477">
        <ele>433.4</ele>
        <time>2020-06-30T08:42:25Z</time>
      </trkpt>
      <trkpt lat="43.03447" lon="0.5647">
        <ele>433.4</ele>
        <time>2020-06-30T08:42:26Z</time>
      </trkpt>
      <trkpt lat="43.0345" lon="0.56465">
        <ele>433.4</ele>
        <time>2020-06-30T08:42:27Z</time>
      </trkpt>
      <trkpt lat="43.03453" lon="0.56461">
        <ele>433.4</ele>
        <time>2020-06-30T08:42:28Z</time>
      </trkpt>
      <trkpt lat="43.03455" lon="0.56457">
        <ele>433.4</ele>
        <time>2020-06-30T08:42:29Z</time>
      </trkpt>
      <trkpt lat="43.03457" lon="0.5645">
        <ele>433.6</ele>
        <time>2020-06-30T08:42:30Z</time>
      </trkpt>
      <trkpt lat="43.0346" lon="0.56445">
        <ele>433.6</ele>
        <time>2020-06-30T08:42:31Z</time>
      </trkpt>
      <trkpt lat="43.03463" lon="0.56438">
        <ele>433.6</ele>
        <time>2020-06-30T08:42:32Z</time>
      </trkpt>
      <trkpt lat="43.03465" lon="0.56433">
        <ele>433.8</ele>
        <time>2020-06-30T08:42:33Z</time>
      </trkpt>
      <trkpt lat="43.03468" lon="0.56428">
        <ele>433.8</ele>
        <time>2020-06-30T08:42:34Z</time>
      </trkpt>
      <trkpt lat="43.0347" lon="0.56422">
        <ele>433.8</ele>
        <time>2020-06-30T08:42:35Z</time>
      </trkpt>
      <trkpt lat="43.03472" lon="0.56417">
        <ele>433.8</ele>
        <time>2020-06-30T08:42:36Z</time>
      </trkpt>
      <trkpt lat="43.03474" lon="0.56412">
        <ele>434</ele>
        <time>2020-06-30T08:42:37Z</time>
      </trkpt>
      <trkpt lat="43.03476" lon="0.56406">
        <ele>434.2</ele>
        <time>2020-06-30T08:42:38Z</time>
      </trkpt>
      <trkpt lat="43.03478" lon="0.56402">
        <ele>434.2</ele>
        <time>2020-06-30T08:42:39Z</time>
      </trkpt>
      <trkpt lat="43.03481" lon="0.56397">
        <ele>434.2</ele>
        <time>2020-06-30T08:42:40Z</time>
      </trkpt>
      <trkpt lat="43.03482" lon="0.56393">
        <ele>434.4</ele>
        <time>2020-06-30T08:42:41Z</time>
      </trkpt>
      <trkpt lat="43.03484" lon="0.56388">
        <ele>434.4</ele>
        <time>2020-06-30T08:42:42Z</time>
      </trkpt>
      <trkpt lat="43.03486" lon="0.56385">
        <ele>434.6</ele>
        <time>2020-06-30T08:42:43Z</time>
      </trkpt>
      <trkpt lat="43.03489" lon="0.56381">
        <ele>434.6</ele>
        <time>2020-06-30T08:42:44Z</time>
      </trkpt>
      <trkpt lat="43.03491" lon="0.56375">
        <ele>434.6</ele>
        <time>2020-06-30T08:42:45Z</time>
      </trkpt>
      <trkpt lat="43.03493" lon="0.5637">
        <ele>434.8</ele>
        <time>2020-06-30T08:42:46Z</time>
      </trkpt>
      <trkpt lat="43.03496" lon="0.56366">
        <ele>434.8</ele>
        <time>2020-06-30T08:42:47Z</time>
      </trkpt>
      <trkpt lat="43.03498" lon="0.56363">
        <ele>434.8</ele>
        <time>2020-06-30T08:42:48Z</time>
      </trkpt>
      <trkpt lat="43.035" lon="0.56359">
        <ele>435</ele>
        <time>2020-06-30T08:42:49Z</time>
      </trkpt>
      <trkpt lat="43.03503" lon="0.56358">
        <ele>435</ele>
        <time>2020-06-30T08:42:50Z</time>
      </trkpt>
      <trkpt lat="43.03505" lon="0.56355">
        <ele>435.2</ele>
        <time>2020-06-30T08:42:51Z</time>
      </trkpt>
      <trkpt lat="43.03508" lon="0.56352">
        <ele>435.2</ele>
        <time>2020-06-30T08:42:52Z</time>
      </trkpt>
      <trkpt lat="43.0351" lon="0.56348">
        <ele>435.2</ele>
        <time>2020-06-30T08:42:53Z</time>
      </trkpt>
      <trkpt lat="43.03513" lon="0.56345">
        <ele>435.4</ele>
        <time>2020-06-30T08:42:54Z</time>
      </trkpt>
      <trkpt lat="43.03516" lon="0.56342">
        <ele>435.4</ele>
        <time>2020-06-30T08:42:56Z</time>
      </trkpt>
      <trkpt lat="43.0352" lon="0.56335">
        <ele>435.4</ele>
        <time>2020-06-30T08:42:57Z</time>
      </trkpt>
      <trkpt lat="43.03522" lon="0.56331">
        <ele>435.6</ele>
        <time>2020-06-30T08:42:58Z</time>
      </trkpt>
      <trkpt lat="43.03525" lon="0.56328">
        <ele>435.6</ele>
        <time>2020-06-30T08:43:00Z</time>
      </trkpt>
      <trkpt lat="43.03527" lon="0.56324">
        <ele>435.6</ele>
        <time>2020-06-30T08:43:01Z</time>
      </trkpt>
      <trkpt lat="43.03531" lon="0.56322">
        <ele>435.6</ele>
        <time>2020-06-30T08:43:02Z</time>
      </trkpt>
      <trkpt lat="43.03534" lon="0.56318">
        <ele>435.6</ele>
        <time>2020-06-30T08:43:03Z</time>
      </trkpt>
      <trkpt lat="43.03536" lon="0.56315">
        <ele>435.6</ele>
        <time>2020-06-30T08:43:04Z</time>
      </trkpt>
      <trkpt lat="43.03542" lon="0.56308">
        <ele>435.6</ele>
        <time>2020-06-30T08:43:05Z</time>
      </trkpt>
      <trkpt lat="43.03545" lon="0.56305">
        <ele>435.8</ele>
        <time>2020-06-30T08:43:06Z</time>
      </trkpt>
      <trkpt lat="43.03548" lon="0.563">
        <ele>435.8</ele>
        <time>2020-06-30T08:43:07Z</time>
      </trkpt>
      <trkpt lat="43.03551" lon="0.56298">
        <ele>435.8</ele>
        <time>2020-06-30T08:43:09Z</time>
      </trkpt>
      <trkpt lat="43.03559" lon="0.56295">
        <ele>436</ele>
        <time>2020-06-30T08:43:10Z</time>
      </trkpt>
      <trkpt lat="43.03562" lon="0.56292">
        <ele>436</ele>
        <time>2020-06-30T08:43:12Z</time>
      </trkpt>
      <trkpt lat="43.03568" lon="0.56285">
        <ele>436.2</ele>
        <time>2020-06-30T08:43:13Z</time>
      </trkpt>
      <trkpt lat="43.03573" lon="0.56282">
        <ele>436.2</ele>
        <time>2020-06-30T08:43:15Z</time>
      </trkpt>
      <trkpt lat="43.03577" lon="0.56278">
        <ele>436.2</ele>
        <time>2020-06-30T08:43:16Z</time>
      </trkpt>
      <trkpt lat="43.03581" lon="0.56275">
        <ele>436.2</ele>
        <time>2020-06-30T08:43:17Z</time>
      </trkpt>
      <trkpt lat="43.03584" lon="0.56272">
        <ele>436.2</ele>
        <time>2020-06-30T08:43:18Z</time>
      </trkpt>
      <trkpt lat="43.03588" lon="0.56269">
        <ele>436.2</ele>
        <time>2020-06-30T08:43:19Z</time>
      </trkpt>
      <trkpt lat="43.03591" lon="0.56267">
        <ele>436.4</ele>
        <time>2020-06-30T08:43:20Z</time>
      </trkpt>
      <trkpt lat="43.03593" lon="0.56262">
        <ele>436.4</ele>
        <time>2020-06-30T08:43:21Z</time>
      </trkpt>
      <trkpt lat="43.03597" lon="0.56262">
        <ele>436.6</ele>
        <time>2020-06-30T08:43:22Z</time>
      </trkpt>
      <trkpt lat="43.036" lon="0.5626">
        <ele>436.8</ele>
        <time>2020-06-30T08:43:23Z</time>
      </trkpt>
      <trkpt lat="43.03605" lon="0.56258">
        <ele>437</ele>
        <time>2020-06-30T08:43:24Z</time>
      </trkpt>
      <trkpt lat="43.03608" lon="0.56256">
        <ele>437.4</ele>
        <time>2020-06-30T08:43:25Z</time>
      </trkpt>
      <trkpt lat="43.03609" lon="0.56254">
        <ele>437.6</ele>
        <time>2020-06-30T08:43:26Z</time>
      </trkpt>
      <trkpt lat="43.03611" lon="0.56253">
        <ele>437.8</ele>
        <time>2020-06-30T08:43:28Z</time>
      </trkpt>
      <trkpt lat="43.03613" lon="0.56254">
        <ele>438</ele>
        <time>2020-06-30T08:43:29Z</time>
      </trkpt>
      <trkpt lat="43.03614" lon="0.56253">
        <ele>438.2</ele>
        <time>2020-06-30T08:43:30Z</time>
      </trkpt>
      <trkpt lat="43.03616" lon="0.56253">
        <ele>438.4</ele>
        <time>2020-06-30T08:43:31Z</time>
      </trkpt>
      <trkpt lat="43.03616" lon="0.56246">
        <ele>438.6</ele>
        <time>2020-06-30T08:43:32Z</time>
      </trkpt>
      <trkpt lat="43.03617" lon="0.56244">
        <ele>438.6</ele>
        <time>2020-06-30T08:43:33Z</time>
      </trkpt>
      <trkpt lat="43.0362" lon="0.56246">
        <ele>439</ele>
        <time>2020-06-30T08:43:34Z</time>
      </trkpt>
      <trkpt lat="43.03621" lon="0.56245">
        <ele>439.2</ele>
        <time>2020-06-30T08:43:36Z</time>
      </trkpt>
      <trkpt lat="43.03623" lon="0.56245">
        <ele>439.4</ele>
        <time>2020-06-30T08:43:37Z</time>
      </trkpt>
      <trkpt lat="43.03625" lon="0.56243">
        <ele>439.4</ele>
        <time>2020-06-30T08:43:38Z</time>
      </trkpt>
      <trkpt lat="43.0363" lon="0.5624">
        <ele>439.8</ele>
        <time>2020-06-30T08:43:40Z</time>
      </trkpt>
      <trkpt lat="43.03632" lon="0.56239">
        <ele>439.8</ele>
        <time>2020-06-30T08:43:41Z</time>
      </trkpt>
      <trkpt lat="43.03635" lon="0.56241">
        <ele>440</ele>
        <time>2020-06-30T08:43:42Z</time>
      </trkpt>
      <trkpt lat="43.03636" lon="0.56237">
        <ele>440.2</ele>
        <time>2020-06-30T08:43:43Z</time>
      </trkpt>
      <trkpt lat="43.03638" lon="0.5624">
        <ele>440.2</ele>
        <time>2020-06-30T08:43:44Z</time>
      </trkpt>
      <trkpt lat="43.03639" lon="0.56237">
        <ele>440.4</ele>
        <time>2020-06-30T08:43:45Z</time>
      </trkpt>
      <trkpt lat="43.03641" lon="0.56236">
        <ele>440.6</ele>
        <time>2020-06-30T08:43:46Z</time>
      </trkpt>
      <trkpt lat="43.0364" lon="0.56235">
        <ele>440.6</ele>
        <time>2020-06-30T08:43:47Z</time>
      </trkpt>
      <trkpt lat="43.0364" lon="0.56231">
        <ele>440.8</ele>
        <time>2020-06-30T08:43:48Z</time>
      </trkpt>
      <trkpt lat="43.03646" lon="0.56238">
        <ele>441.2</ele>
        <time>2020-06-30T08:43:49Z</time>
      </trkpt>
      <trkpt lat="43.03647" lon="0.56235">
        <ele>441.2</ele>
        <time>2020-06-30T08:43:51Z</time>
      </trkpt>
      <trkpt lat="43.03649" lon="0.56234">
        <ele>441.4</ele>
        <time>2020-06-30T08:43:52Z</time>
      </trkpt>
      <trkpt lat="43.03652" lon="0.56232">
        <ele>441.6</ele>
        <time>2020-06-30T08:43:53Z</time>
      </trkpt>
      <trkpt lat="43.03655" lon="0.56237">
        <ele>441.8</ele>
        <time>2020-06-30T08:43:55Z</time>
      </trkpt>
      <trkpt lat="43.03653" lon="0.56231">
        <ele>442</ele>
        <time>2020-06-30T08:43:56Z</time>
      </trkpt>
      <trkpt lat="43.03654" lon="0.5623">
        <ele>442.2</ele>
        <time>2020-06-30T08:43:57Z</time>
      </trkpt>
      <trkpt lat="43.03655" lon="0.56232">
        <ele>442.2</ele>
        <time>2020-06-30T08:43:58Z</time>
      </trkpt>
      <trkpt lat="43.03658" lon="0.56232">
        <ele>442.6</ele>
        <time>2020-06-30T08:43:59Z</time>
      </trkpt>
      <trkpt lat="43.03659" lon="0.56231">
        <ele>442.6</ele>
        <time>2020-06-30T08:44:00Z</time>
      </trkpt>
      <trkpt lat="43.03661" lon="0.56233">
        <ele>442.6</ele>
        <time>2020-06-30T08:44:01Z</time>
      </trkpt>
      <trkpt lat="43.03663" lon="0.56233">
        <ele>442.8</ele>
        <time>2020-06-30T08:44:02Z</time>
      </trkpt>
      <trkpt lat="43.03664" lon="0.56229">
        <ele>442.8</ele>
        <time>2020-06-30T08:44:03Z</time>
      </trkpt>
      <trkpt lat="43.03666" lon="0.56226">
        <ele>443</ele>
        <time>2020-06-30T08:44:04Z</time>
      </trkpt>
      <trkpt lat="43.03669" lon="0.56228">
        <ele>443</ele>
        <time>2020-06-30T08:44:05Z</time>
      </trkpt>
      <trkpt lat="43.03671" lon="0.56227">
        <ele>443</ele>
        <time>2020-06-30T08:44:06Z</time>
      </trkpt>
      <trkpt lat="43.03672" lon="0.56224">
        <ele>443.2</ele>
        <time>2020-06-30T08:44:07Z</time>
      </trkpt>
      <trkpt lat="43.03675" lon="0.56224">
        <ele>443.2</ele>
        <time>2020-06-30T08:44:08Z</time>
      </trkpt>
      <trkpt lat="43.03679" lon="0.56227">
        <ele>443.2</ele>
        <time>2020-06-30T08:44:09Z</time>
      </trkpt>
      <trkpt lat="43.0368" lon="0.56224">
        <ele>443.2</ele>
        <time>2020-06-30T08:44:10Z</time>
      </trkpt>
      <trkpt lat="43.03681" lon="0.56224">
        <ele>443.4</ele>
        <time>2020-06-30T08:44:11Z</time>
      </trkpt>
      <trkpt lat="43.03683" lon="0.56222">
        <ele>443.4</ele>
        <time>2020-06-30T08:44:12Z</time>
      </trkpt>
      <trkpt lat="43.03684" lon="0.56218">
        <ele>443.4</ele>
        <time>2020-06-30T08:44:13Z</time>
      </trkpt>
      <trkpt lat="43.03685" lon="0.56216">
        <ele>443.4</ele>
        <time>2020-06-30T08:44:14Z</time>
      </trkpt>
      <trkpt lat="43.03685" lon="0.56212">
        <ele>443.4</ele>
        <time>2020-06-30T08:44:15Z</time>
      </trkpt>
      <trkpt lat="43.03687" lon="0.56217">
        <ele>443.4</ele>
        <time>2020-06-30T08:44:17Z</time>
      </trkpt>
      <trkpt lat="43.03689" lon="0.56213">
        <ele>443.4</ele>
        <time>2020-06-30T08:44:18Z</time>
      </trkpt>
      <trkpt lat="43.03691" lon="0.56211">
        <ele>443.6</ele>
        <time>2020-06-30T08:44:19Z</time>
      </trkpt>
      <trkpt lat="43.03693" lon="0.56208">
        <ele>443.6</ele>
        <time>2020-06-30T08:44:20Z</time>
      </trkpt>
      <trkpt lat="43.03696" lon="0.56209">
        <ele>443.6</ele>
        <time>2020-06-30T08:44:21Z</time>
      </trkpt>
      <trkpt lat="43.03699" lon="0.56208">
        <ele>443.6</ele>
        <time>2020-06-30T08:44:22Z</time>
      </trkpt>
      <trkpt lat="43.03705" lon="0.562">
        <ele>443.6</ele>
        <time>2020-06-30T08:44:24Z</time>
      </trkpt>
      <trkpt lat="43.03709" lon="0.562">
        <ele>443.8</ele>
        <time>2020-06-30T08:44:25Z</time>
      </trkpt>
      <trkpt lat="43.0371" lon="0.56191">
        <ele>443.8</ele>
        <time>2020-06-30T08:44:26Z</time>
      </trkpt>
      <trkpt lat="43.03713" lon="0.56194">
        <ele>443.8</ele>
        <time>2020-06-30T08:44:27Z</time>
      </trkpt>
      <trkpt lat="43.03715" lon="0.5619">
        <ele>443.8</ele>
        <time>2020-06-30T08:44:28Z</time>
      </trkpt>
      <trkpt lat="43.03717" lon="0.56189">
        <ele>443.8</ele>
        <time>2020-06-30T08:44:29Z</time>
      </trkpt>
      <trkpt lat="43.0372" lon="0.56188">
        <ele>443.8</ele>
        <time>2020-06-30T08:44:30Z</time>
      </trkpt>
      <trkpt lat="43.03722" lon="0.56189">
        <ele>443.8</ele>
        <time>2020-06-30T08:44:31Z</time>
      </trkpt>
      <trkpt lat="43.03724" lon="0.56185">
        <ele>443.8</ele>
        <time>2020-06-30T08:44:32Z</time>
      </trkpt>
      <trkpt lat="43.03726" lon="0.56181">
        <ele>443.8</ele>
        <time>2020-06-30T08:44:33Z</time>
      </trkpt>
      <trkpt lat="43.0373" lon="0.56181">
        <ele>443.8</ele>
        <time>2020-06-30T08:44:34Z</time>
      </trkpt>
      <trkpt lat="43.03733" lon="0.5618">
        <ele>443.8</ele>
        <time>2020-06-30T08:44:35Z</time>
      </trkpt>
      <trkpt lat="43.03736" lon="0.56174">
        <ele>444</ele>
        <time>2020-06-30T08:44:36Z</time>
      </trkpt>
      <trkpt lat="43.03738" lon="0.56168">
        <ele>444</ele>
        <time>2020-06-30T08:44:37Z</time>
      </trkpt>
      <trkpt lat="43.0374" lon="0.56167">
        <ele>444</ele>
        <time>2020-06-30T08:44:38Z</time>
      </trkpt>
      <trkpt lat="43.03742" lon="0.56166">
        <ele>444</ele>
        <time>2020-06-30T08:44:39Z</time>
      </trkpt>
      <trkpt lat="43.03746" lon="0.56165">
        <ele>444.2</ele>
        <time>2020-06-30T08:44:41Z</time>
      </trkpt>
      <trkpt lat="43.03749" lon="0.56162">
        <ele>444.2</ele>
        <time>2020-06-30T08:44:42Z</time>
      </trkpt>
      <trkpt lat="43.03752" lon="0.56161">
        <ele>444.2</ele>
        <time>2020-06-30T08:44:43Z</time>
      </trkpt>
      <trkpt lat="43.03754" lon="0.56157">
        <ele>444.4</ele>
        <time>2020-06-30T08:44:44Z</time>
      </trkpt>
      <trkpt lat="43.03755" lon="0.5615">
        <ele>444.4</ele>
        <time>2020-06-30T08:44:45Z</time>
      </trkpt>
      <trkpt lat="43.0376" lon="0.56157">
        <ele>444.4</ele>
        <time>2020-06-30T08:44:46Z</time>
      </trkpt>
      <trkpt lat="43.0376" lon="0.5615">
        <ele>444.6</ele>
        <time>2020-06-30T08:44:47Z</time>
      </trkpt>
      <trkpt lat="43.03762" lon="0.5615">
        <ele>444.6</ele>
        <time>2020-06-30T08:44:48Z</time>
      </trkpt>
      <trkpt lat="43.03764" lon="0.56145">
        <ele>444.6</ele>
        <time>2020-06-30T08:44:49Z</time>
      </trkpt>
      <trkpt lat="43.03769" lon="0.56146">
        <ele>444.6</ele>
        <time>2020-06-30T08:44:50Z</time>
      </trkpt>
      <trkpt lat="43.03772" lon="0.56142">
        <ele>444.8</ele>
        <time>2020-06-30T08:44:51Z</time>
      </trkpt>
      <trkpt lat="43.03775" lon="0.5614">
        <ele>444.6</ele>
        <time>2020-06-30T08:44:52Z</time>
      </trkpt>
      <trkpt lat="43.03779" lon="0.5614">
        <ele>444.6</ele>
        <time>2020-06-30T08:44:53Z</time>
      </trkpt>
      <trkpt lat="43.0378" lon="0.56134">
        <ele>444.6</ele>
        <time>2020-06-30T08:44:54Z</time>
      </trkpt>
      <trkpt lat="43.03785" lon="0.56132">
        <ele>444.4</ele>
        <time>2020-06-30T08:44:55Z</time>
      </trkpt>
      <trkpt lat="43.03787" lon="0.56128">
        <ele>444.4</ele>
        <time>2020-06-30T08:44:56Z</time>
      </trkpt>
      <trkpt lat="43.03788" lon="0.56124">
        <ele>444.2</ele>
        <time>2020-06-30T08:44:57Z</time>
      </trkpt>
      <trkpt lat="43.03794" lon="0.56121">
        <ele>444</ele>
        <time>2020-06-30T08:44:58Z</time>
      </trkpt>
      <trkpt lat="43.03799" lon="0.56118">
        <ele>443.8</ele>
        <time>2020-06-30T08:44:59Z</time>
      </trkpt>
      <trkpt lat="43.03806" lon="0.56112">
        <ele>443.4</ele>
        <time>2020-06-30T08:45:01Z</time>
      </trkpt>
      <trkpt lat="43.03809" lon="0.56105">
        <ele>443.2</ele>
        <time>2020-06-30T08:45:02Z</time>
      </trkpt>
      <trkpt lat="43.03813" lon="0.56101">
        <ele>443</ele>
        <time>2020-06-30T08:45:03Z</time>
      </trkpt>
      <trkpt lat="43.03815" lon="0.56097">
        <ele>442.8</ele>
        <time>2020-06-30T08:45:04Z</time>
      </trkpt>
      <trkpt lat="43.03821" lon="0.56097">
        <ele>442.6</ele>
        <time>2020-06-30T08:45:05Z</time>
      </trkpt>
      <trkpt lat="43.0383" lon="0.56089">
        <ele>442.2</ele>
        <time>2020-06-30T08:45:07Z</time>
      </trkpt>
      <trkpt lat="43.03835" lon="0.56088">
        <ele>442</ele>
        <time>2020-06-30T08:45:08Z</time>
      </trkpt>
      <trkpt lat="43.03839" lon="0.56087">
        <ele>441.8</ele>
        <time>2020-06-30T08:45:09Z</time>
      </trkpt>
      <trkpt lat="43.03843" lon="0.56083">
        <ele>441.6</ele>
        <time>2020-06-30T08:45:10Z</time>
      </trkpt>
      <trkpt lat="43.03845" lon="0.56082">
        <ele>441.6</ele>
        <time>2020-06-30T08:45:11Z</time>
      </trkpt>
      <trkpt lat="43.0385" lon="0.56081">
        <ele>441.2</ele>
        <time>2020-06-30T08:45:12Z</time>
      </trkpt>
      <trkpt lat="43.0386" lon="0.56076">
        <ele>440.8</ele>
        <time>2020-06-30T08:45:14Z</time>
      </trkpt>
      <trkpt lat="43.03865" lon="0.56076">
        <ele>440.4</ele>
        <time>2020-06-30T08:45:15Z</time>
      </trkpt>
      <trkpt lat="43.03872" lon="0.56076">
        <ele>440.2</ele>
        <time>2020-06-30T08:45:16Z</time>
      </trkpt>
      <trkpt lat="43.03889" lon="0.56075">
        <ele>440</ele>
        <time>2020-06-30T08:45:18Z</time>
      </trkpt>
      <trkpt lat="43.03898" lon="0.56075">
        <ele>440</ele>
        <time>2020-06-30T08:45:19Z</time>
      </trkpt>
      <trkpt lat="43.03913" lon="0.56072">
        <ele>440.2</ele>
        <time>2020-06-30T08:45:21Z</time>
      </trkpt>
      <trkpt lat="43.03919" lon="0.56071">
        <ele>440.4</ele>
        <time>2020-06-30T08:45:22Z</time>
      </trkpt>
      <trkpt lat="43.03929" lon="0.56071">
        <ele>440.4</ele>
        <time>2020-06-30T08:45:23Z</time>
      </trkpt>
      <trkpt lat="43.03936" lon="0.5607">
        <ele>440.6</ele>
        <time>2020-06-30T08:45:24Z</time>
      </trkpt>
      <trkpt lat="43.03949" lon="0.56067">
        <ele>441</ele>
        <time>2020-06-30T08:45:26Z</time>
      </trkpt>
      <trkpt lat="43.03957" lon="0.56064">
        <ele>441.4</ele>
        <time>2020-06-30T08:45:27Z</time>
      </trkpt>
      <trkpt lat="43.03963" lon="0.56062">
        <ele>441.6</ele>
        <time>2020-06-30T08:45:28Z</time>
      </trkpt>
      <trkpt lat="43.03968" lon="0.5606">
        <ele>441.8</ele>
        <time>2020-06-30T08:45:29Z</time>
      </trkpt>
      <trkpt lat="43.03978" lon="0.56055">
        <ele>442.2</ele>
        <time>2020-06-30T08:45:31Z</time>
      </trkpt>
      <trkpt lat="43.03982" lon="0.56053">
        <ele>442.4</ele>
        <time>2020-06-30T08:45:32Z</time>
      </trkpt>
      <trkpt lat="43.03985" lon="0.56051">
        <ele>442.6</ele>
        <time>2020-06-30T08:45:33Z</time>
      </trkpt>
      <trkpt lat="43.03989" lon="0.56049">
        <ele>442.8</ele>
        <time>2020-06-30T08:45:34Z</time>
      </trkpt>
      <trkpt lat="43.03992" lon="0.56047">
        <ele>443</ele>
        <time>2020-06-30T08:45:35Z</time>
      </trkpt>
      <trkpt lat="43.03996" lon="0.56046">
        <ele>443.2</ele>
        <time>2020-06-30T08:45:36Z</time>
      </trkpt>
      <trkpt lat="43.03999" lon="0.56044">
        <ele>443.4</ele>
        <time>2020-06-30T08:45:37Z</time>
      </trkpt>
      <trkpt lat="43.04002" lon="0.56043">
        <ele>443.4</ele>
        <time>2020-06-30T08:45:38Z</time>
      </trkpt>
      <trkpt lat="43.04005" lon="0.5604">
        <ele>443.6</ele>
        <time>2020-06-30T08:45:39Z</time>
      </trkpt>
      <trkpt lat="43.04007" lon="0.56039">
        <ele>443.8</ele>
        <time>2020-06-30T08:45:40Z</time>
      </trkpt>
      <trkpt lat="43.0401" lon="0.56037">
        <ele>444</ele>
        <time>2020-06-30T08:45:41Z</time>
      </trkpt>
      <trkpt lat="43.04014" lon="0.56036">
        <ele>444.2</ele>
        <time>2020-06-30T08:45:42Z</time>
      </trkpt>
      <trkpt lat="43.04016" lon="0.56034">
        <ele>444.2</ele>
        <time>2020-06-30T08:45:43Z</time>
      </trkpt>
      <trkpt lat="43.04019" lon="0.56031">
        <ele>444.4</ele>
        <time>2020-06-30T08:45:44Z</time>
      </trkpt>
      <trkpt lat="43.04021" lon="0.56029">
        <ele>444.6</ele>
        <time>2020-06-30T08:45:45Z</time>
      </trkpt>
      <trkpt lat="43.04024" lon="0.56027">
        <ele>444.8</ele>
        <time>2020-06-30T08:45:46Z</time>
      </trkpt>
      <trkpt lat="43.04027" lon="0.56023">
        <ele>445</ele>
        <time>2020-06-30T08:45:47Z</time>
      </trkpt>
      <trkpt lat="43.04029" lon="0.56021">
        <ele>445</ele>
        <time>2020-06-30T08:45:48Z</time>
      </trkpt>
      <trkpt lat="43.04031" lon="0.5602">
        <ele>445.2</ele>
        <time>2020-06-30T08:45:49Z</time>
      </trkpt>
      <trkpt lat="43.04033" lon="0.56019">
        <ele>445.4</ele>
        <time>2020-06-30T08:45:50Z</time>
      </trkpt>
      <trkpt lat="43.04034" lon="0.56016">
        <ele>445.6</ele>
        <time>2020-06-30T08:45:51Z</time>
      </trkpt>
      <trkpt lat="43.04035" lon="0.56015">
        <ele>445.8</ele>
        <time>2020-06-30T08:45:52Z</time>
      </trkpt>
      <trkpt lat="43.04037" lon="0.56013">
        <ele>446</ele>
        <time>2020-06-30T08:45:53Z</time>
      </trkpt>
      <trkpt lat="43.04039" lon="0.56012">
        <ele>446.2</ele>
        <time>2020-06-30T08:45:54Z</time>
      </trkpt>
      <trkpt lat="43.04041" lon="0.5601">
        <ele>446.4</ele>
        <time>2020-06-30T08:45:55Z</time>
      </trkpt>
      <trkpt lat="43.04042" lon="0.56007">
        <ele>446.6</ele>
        <time>2020-06-30T08:45:56Z</time>
      </trkpt>
      <trkpt lat="43.04044" lon="0.56005">
        <ele>446.8</ele>
        <time>2020-06-30T08:45:57Z</time>
      </trkpt>
      <trkpt lat="43.04047" lon="0.56002">
        <ele>447</ele>
        <time>2020-06-30T08:45:58Z</time>
      </trkpt>
      <trkpt lat="43.04049" lon="0.56001">
        <ele>447</ele>
        <time>2020-06-30T08:45:59Z</time>
      </trkpt>
      <trkpt lat="43.0405" lon="0.56">
        <ele>447.2</ele>
        <time>2020-06-30T08:46:00Z</time>
      </trkpt>
      <trkpt lat="43.04052" lon="0.55998">
        <ele>447.4</ele>
        <time>2020-06-30T08:46:01Z</time>
      </trkpt>
      <trkpt lat="43.04052" lon="0.55997">
        <ele>447.6</ele>
        <time>2020-06-30T08:46:02Z</time>
      </trkpt>
      <trkpt lat="43.04054" lon="0.55995">
        <ele>447.8</ele>
        <time>2020-06-30T08:46:03Z</time>
      </trkpt>
      <trkpt lat="43.04056" lon="0.55993">
        <ele>448</ele>
        <time>2020-06-30T08:46:04Z</time>
      </trkpt>
      <trkpt lat="43.04059" lon="0.55992">
        <ele>448</ele>
        <time>2020-06-30T08:46:05Z</time>
      </trkpt>
      <trkpt lat="43.04061" lon="0.5599">
        <ele>448.2</ele>
        <time>2020-06-30T08:46:06Z</time>
      </trkpt>
      <trkpt lat="43.04065" lon="0.55988">
        <ele>448.6</ele>
        <time>2020-06-30T08:46:08Z</time>
      </trkpt>
      <trkpt lat="43.04066" lon="0.55984">
        <ele>448.6</ele>
        <time>2020-06-30T08:46:09Z</time>
      </trkpt>
      <trkpt lat="43.04067" lon="0.5598">
        <ele>448.8</ele>
        <time>2020-06-30T08:46:10Z</time>
      </trkpt>
      <trkpt lat="43.0407" lon="0.55978">
        <ele>448.8</ele>
        <time>2020-06-30T08:46:11Z</time>
      </trkpt>
      <trkpt lat="43.0407" lon="0.55972">
        <ele>449</ele>
        <time>2020-06-30T08:46:12Z</time>
      </trkpt>
      <trkpt lat="43.04074" lon="0.55973">
        <ele>449</ele>
        <time>2020-06-30T08:46:13Z</time>
      </trkpt>
      <trkpt lat="43.04074" lon="0.55968">
        <ele>449.2</ele>
        <time>2020-06-30T08:46:14Z</time>
      </trkpt>
      <trkpt lat="43.04075" lon="0.55966">
        <ele>449.2</ele>
        <time>2020-06-30T08:46:15Z</time>
      </trkpt>
      <trkpt lat="43.04077" lon="0.55967">
        <ele>449.2</ele>
        <time>2020-06-30T08:46:16Z</time>
      </trkpt>
      <trkpt lat="43.04079" lon="0.55969">
        <ele>449.2</ele>
        <time>2020-06-30T08:46:17Z</time>
      </trkpt>
      <trkpt lat="43.0408" lon="0.55964">
        <ele>449.2</ele>
        <time>2020-06-30T08:46:18Z</time>
      </trkpt>
      <trkpt lat="43.04081" lon="0.55959">
        <ele>449.2</ele>
        <time>2020-06-30T08:46:19Z</time>
      </trkpt>
      <trkpt lat="43.04084" lon="0.5595">
        <ele>449.2</ele>
        <time>2020-06-30T08:46:21Z</time>
      </trkpt>
      <trkpt lat="43.04086" lon="0.5595">
        <ele>449.2</ele>
        <time>2020-06-30T08:46:22Z</time>
      </trkpt>
      <trkpt lat="43.04088" lon="0.55948">
        <ele>449.4</ele>
        <time>2020-06-30T08:46:23Z</time>
      </trkpt>
      <trkpt lat="43.04091" lon="0.55946">
        <ele>449.2</ele>
        <time>2020-06-30T08:46:24Z</time>
      </trkpt>
      <trkpt lat="43.04092" lon="0.55941">
        <ele>449.2</ele>
        <time>2020-06-30T08:46:25Z</time>
      </trkpt>
      <trkpt lat="43.04093" lon="0.55935">
        <ele>449.2</ele>
        <time>2020-06-30T08:46:26Z</time>
      </trkpt>
      <trkpt lat="43.04097" lon="0.55933">
        <ele>449.2</ele>
        <time>2020-06-30T08:46:27Z</time>
      </trkpt>
      <trkpt lat="43.04099" lon="0.55926">
        <ele>449.2</ele>
        <time>2020-06-30T08:46:28Z</time>
      </trkpt>
      <trkpt lat="43.041" lon="0.55921">
        <ele>449.2</ele>
        <time>2020-06-30T08:46:29Z</time>
      </trkpt>
      <trkpt lat="43.04103" lon="0.55918">
        <ele>449.2</ele>
        <time>2020-06-30T08:46:30Z</time>
      </trkpt>
      <trkpt lat="43.04104" lon="0.55915">
        <ele>449.2</ele>
        <time>2020-06-30T08:46:31Z</time>
      </trkpt>
      <trkpt lat="43.04107" lon="0.55912">
        <ele>449.2</ele>
        <time>2020-06-30T08:46:32Z</time>
      </trkpt>
      <trkpt lat="43.04109" lon="0.55905">
        <ele>449.2</ele>
        <time>2020-06-30T08:46:33Z</time>
      </trkpt>
      <trkpt lat="43.04109" lon="0.55898">
        <ele>449</ele>
        <time>2020-06-30T08:46:34Z</time>
      </trkpt>
      <trkpt lat="43.04112" lon="0.55895">
        <ele>449</ele>
        <time>2020-06-30T08:46:35Z</time>
      </trkpt>
      <trkpt lat="43.04116" lon="0.55892">
        <ele>449</ele>
        <time>2020-06-30T08:46:36Z</time>
      </trkpt>
      <trkpt lat="43.04117" lon="0.55885">
        <ele>449</ele>
        <time>2020-06-30T08:46:37Z</time>
      </trkpt>
      <trkpt lat="43.04119" lon="0.5588">
        <ele>449</ele>
        <time>2020-06-30T08:46:38Z</time>
      </trkpt>
      <trkpt lat="43.04122" lon="0.55873">
        <ele>449</ele>
        <time>2020-06-30T08:46:39Z</time>
      </trkpt>
      <trkpt lat="43.04124" lon="0.55869">
        <ele>449</ele>
        <time>2020-06-30T08:46:40Z</time>
      </trkpt>
      <trkpt lat="43.04127" lon="0.55865">
        <ele>449</ele>
        <time>2020-06-30T08:46:41Z</time>
      </trkpt>
      <trkpt lat="43.04129" lon="0.5586">
        <ele>449</ele>
        <time>2020-06-30T08:46:42Z</time>
      </trkpt>
      <trkpt lat="43.04133" lon="0.55853">
        <ele>449</ele>
        <time>2020-06-30T08:46:44Z</time>
      </trkpt>
      <trkpt lat="43.04134" lon="0.55847">
        <ele>449</ele>
        <time>2020-06-30T08:46:45Z</time>
      </trkpt>
      <trkpt lat="43.04138" lon="0.55846">
        <ele>449</ele>
        <time>2020-06-30T08:46:46Z</time>
      </trkpt>
      <trkpt lat="43.04139" lon="0.55839">
        <ele>449</ele>
        <time>2020-06-30T08:46:47Z</time>
      </trkpt>
      <trkpt lat="43.04141" lon="0.55833">
        <ele>449</ele>
        <time>2020-06-30T08:46:48Z</time>
      </trkpt>
      <trkpt lat="43.04144" lon="0.55817">
        <ele>449</ele>
        <time>2020-06-30T08:46:50Z</time>
      </trkpt>
      <trkpt lat="43.04148" lon="0.55815">
        <ele>449</ele>
        <time>2020-06-30T08:46:51Z</time>
      </trkpt>
      <trkpt lat="43.0415" lon="0.55808">
        <ele>449</ele>
        <time>2020-06-30T08:46:52Z</time>
      </trkpt>
      <trkpt lat="43.04151" lon="0.55802">
        <ele>449</ele>
        <time>2020-06-30T08:46:53Z</time>
      </trkpt>
      <trkpt lat="43.04155" lon="0.55797">
        <ele>449</ele>
        <time>2020-06-30T08:46:54Z</time>
      </trkpt>
      <trkpt lat="43.04157" lon="0.55788">
        <ele>449.2</ele>
        <time>2020-06-30T08:46:55Z</time>
      </trkpt>
      <trkpt lat="43.04161" lon="0.55788">
        <ele>449</ele>
        <time>2020-06-30T08:46:56Z</time>
      </trkpt>
      <trkpt lat="43.04163" lon="0.55782">
        <ele>449</ele>
        <time>2020-06-30T08:46:57Z</time>
      </trkpt>
      <trkpt lat="43.04165" lon="0.55775">
        <ele>449</ele>
        <time>2020-06-30T08:46:58Z</time>
      </trkpt>
      <trkpt lat="43.04173" lon="0.55771">
        <ele>449</ele>
        <time>2020-06-30T08:47:00Z</time>
      </trkpt>
      <trkpt lat="43.04174" lon="0.55761">
        <ele>449</ele>
        <time>2020-06-30T08:47:01Z</time>
      </trkpt>
      <trkpt lat="43.04178" lon="0.55745">
        <ele>448.8</ele>
        <time>2020-06-30T08:47:03Z</time>
      </trkpt>
      <trkpt lat="43.0418" lon="0.55738">
        <ele>448.8</ele>
        <time>2020-06-30T08:47:04Z</time>
      </trkpt>
      <trkpt lat="43.04184" lon="0.55738">
        <ele>448.8</ele>
        <time>2020-06-30T08:47:05Z</time>
      </trkpt>
      <trkpt lat="43.04186" lon="0.55728">
        <ele>448.6</ele>
        <time>2020-06-30T08:47:06Z</time>
      </trkpt>
      <trkpt lat="43.04188" lon="0.55718">
        <ele>448.6</ele>
        <time>2020-06-30T08:47:07Z</time>
      </trkpt>
      <trkpt lat="43.04189" lon="0.55708">
        <ele>448.6</ele>
        <time>2020-06-30T08:47:08Z</time>
      </trkpt>
      <trkpt lat="43.04192" lon="0.55703">
        <ele>448.6</ele>
        <time>2020-06-30T08:47:09Z</time>
      </trkpt>
      <trkpt lat="43.04197" lon="0.55688">
        <ele>448.4</ele>
        <time>2020-06-30T08:47:11Z</time>
      </trkpt>
      <trkpt lat="43.04201" lon="0.55684">
        <ele>448.2</ele>
        <time>2020-06-30T08:47:12Z</time>
      </trkpt>
      <trkpt lat="43.04205" lon="0.55679">
        <ele>448.2</ele>
        <time>2020-06-30T08:47:13Z</time>
      </trkpt>
      <trkpt lat="43.04208" lon="0.5567">
        <ele>448</ele>
        <time>2020-06-30T08:47:14Z</time>
      </trkpt>
      <trkpt lat="43.04211" lon="0.55665">
        <ele>448</ele>
        <time>2020-06-30T08:47:15Z</time>
      </trkpt>
      <trkpt lat="43.04214" lon="0.55656">
        <ele>447.8</ele>
        <time>2020-06-30T08:47:16Z</time>
      </trkpt>
      <trkpt lat="43.04221" lon="0.55646">
        <ele>447.4</ele>
        <time>2020-06-30T08:47:18Z</time>
      </trkpt>
      <trkpt lat="43.04227" lon="0.55642">
        <ele>447.2</ele>
        <time>2020-06-30T08:47:19Z</time>
      </trkpt>
      <trkpt lat="43.04231" lon="0.55632">
        <ele>446.8</ele>
        <time>2020-06-30T08:47:20Z</time>
      </trkpt>
      <trkpt lat="43.04235" lon="0.55622">
        <ele>446.4</ele>
        <time>2020-06-30T08:47:21Z</time>
      </trkpt>
      <trkpt lat="43.04241" lon="0.55615">
        <ele>445.8</ele>
        <time>2020-06-30T08:47:22Z</time>
      </trkpt>
      <trkpt lat="43.04245" lon="0.55607">
        <ele>445.4</ele>
        <time>2020-06-30T08:47:23Z</time>
      </trkpt>
      <trkpt lat="43.04256" lon="0.55593">
        <ele>444.4</ele>
        <time>2020-06-30T08:47:25Z</time>
      </trkpt>
      <trkpt lat="43.04262" lon="0.55587">
        <ele>443.6</ele>
        <time>2020-06-30T08:47:26Z</time>
      </trkpt>
      <trkpt lat="43.04268" lon="0.55581">
        <ele>443</ele>
        <time>2020-06-30T08:47:27Z</time>
      </trkpt>
      <trkpt lat="43.04275" lon="0.55577">
        <ele>442.4</ele>
        <time>2020-06-30T08:47:28Z</time>
      </trkpt>
      <trkpt lat="43.04293" lon="0.55567">
        <ele>441.4</ele>
        <time>2020-06-30T08:47:30Z</time>
      </trkpt>
      <trkpt lat="43.04303" lon="0.55565">
        <ele>440.6</ele>
        <time>2020-06-30T08:47:31Z</time>
      </trkpt>
      <trkpt lat="43.04311" lon="0.55563">
        <ele>440</ele>
        <time>2020-06-30T08:47:32Z</time>
      </trkpt>
      <trkpt lat="43.04321" lon="0.55565">
        <ele>439.4</ele>
        <time>2020-06-30T08:47:33Z</time>
      </trkpt>
      <trkpt lat="43.04332" lon="0.55568">
        <ele>438.6</ele>
        <time>2020-06-30T08:47:34Z</time>
      </trkpt>
      <trkpt lat="43.0434" lon="0.55566">
        <ele>438</ele>
        <time>2020-06-30T08:47:35Z</time>
      </trkpt>
      <trkpt lat="43.0435" lon="0.55564">
        <ele>436.8</ele>
        <time>2020-06-30T08:47:36Z</time>
      </trkpt>
      <trkpt lat="43.04361" lon="0.55571">
        <ele>436.2</ele>
        <time>2020-06-30T08:47:37Z</time>
      </trkpt>
      <trkpt lat="43.04371" lon="0.55577">
        <ele>435.6</ele>
        <time>2020-06-30T08:47:38Z</time>
      </trkpt>
      <trkpt lat="43.04379" lon="0.55574">
        <ele>435</ele>
        <time>2020-06-30T08:47:39Z</time>
      </trkpt>
      <trkpt lat="43.0439" lon="0.55576">
        <ele>434.6</ele>
        <time>2020-06-30T08:47:40Z</time>
      </trkpt>
      <trkpt lat="43.044" lon="0.55576">
        <ele>434.4</ele>
        <time>2020-06-30T08:47:41Z</time>
      </trkpt>
      <trkpt lat="43.04409" lon="0.55573">
        <ele>434.4</ele>
        <time>2020-06-30T08:47:42Z</time>
      </trkpt>
      <trkpt lat="43.04421" lon="0.55554">
        <ele>434.6</ele>
        <time>2020-06-30T08:47:44Z</time>
      </trkpt>
      <trkpt lat="43.04429" lon="0.55547">
        <ele>434.6</ele>
        <time>2020-06-30T08:47:45Z</time>
      </trkpt>
      <trkpt lat="43.04434" lon="0.55537">
        <ele>434.6</ele>
        <time>2020-06-30T08:47:46Z</time>
      </trkpt>
      <trkpt lat="43.04446" lon="0.55537">
        <ele>434.6</ele>
        <time>2020-06-30T08:47:48Z</time>
      </trkpt>
      <trkpt lat="43.04454" lon="0.55537">
        <ele>434.6</ele>
        <time>2020-06-30T08:47:49Z</time>
      </trkpt>
      <trkpt lat="43.0446" lon="0.55532">
        <ele>434.6</ele>
        <time>2020-06-30T08:47:50Z</time>
      </trkpt>
      <trkpt lat="43.04464" lon="0.55527">
        <ele>434.8</ele>
        <time>2020-06-30T08:47:51Z</time>
      </trkpt>
      <trkpt lat="43.04469" lon="0.55525">
        <ele>434.8</ele>
        <time>2020-06-30T08:47:52Z</time>
      </trkpt>
      <trkpt lat="43.0448" lon="0.55525">
        <ele>435</ele>
        <time>2020-06-30T08:47:54Z</time>
      </trkpt>
      <trkpt lat="43.04485" lon="0.55523">
        <ele>435.2</ele>
        <time>2020-06-30T08:47:55Z</time>
      </trkpt>
      <trkpt lat="43.0449" lon="0.55521">
        <ele>435.2</ele>
        <time>2020-06-30T08:47:56Z</time>
      </trkpt>
      <trkpt lat="43.04491" lon="0.55515">
        <ele>435.4</ele>
        <time>2020-06-30T08:47:57Z</time>
      </trkpt>
      <trkpt lat="43.04496" lon="0.55516">
        <ele>435.6</ele>
        <time>2020-06-30T08:47:58Z</time>
      </trkpt>
      <trkpt lat="43.04499" lon="0.5551">
        <ele>435.6</ele>
        <time>2020-06-30T08:47:59Z</time>
      </trkpt>
      <trkpt lat="43.04504" lon="0.55512">
        <ele>435.8</ele>
        <time>2020-06-30T08:48:00Z</time>
      </trkpt>
      <trkpt lat="43.0451" lon="0.55512">
        <ele>436</ele>
        <time>2020-06-30T08:48:01Z</time>
      </trkpt>
      <trkpt lat="43.04513" lon="0.55507">
        <ele>436.2</ele>
        <time>2020-06-30T08:48:02Z</time>
      </trkpt>
      <trkpt lat="43.04517" lon="0.55508">
        <ele>436.4</ele>
        <time>2020-06-30T08:48:03Z</time>
      </trkpt>
      <trkpt lat="43.04521" lon="0.55503">
        <ele>436.6</ele>
        <time>2020-06-30T08:48:04Z</time>
      </trkpt>
      <trkpt lat="43.04525" lon="0.55502">
        <ele>436.8</ele>
        <time>2020-06-30T08:48:05Z</time>
      </trkpt>
      <trkpt lat="43.04527" lon="0.55499">
        <ele>436.8</ele>
        <time>2020-06-30T08:48:06Z</time>
      </trkpt>
      <trkpt lat="43.0453" lon="0.55495">
        <ele>437</ele>
        <time>2020-06-30T08:48:07Z</time>
      </trkpt>
      <trkpt lat="43.04532" lon="0.55494">
        <ele>437.2</ele>
        <time>2020-06-30T08:48:08Z</time>
      </trkpt>
      <trkpt lat="43.04532" lon="0.55489">
        <ele>437.4</ele>
        <time>2020-06-30T08:48:09Z</time>
      </trkpt>
      <trkpt lat="43.04535" lon="0.5549">
        <ele>437.6</ele>
        <time>2020-06-30T08:48:10Z</time>
      </trkpt>
      <trkpt lat="43.04539" lon="0.55492">
        <ele>437.6</ele>
        <time>2020-06-30T08:48:11Z</time>
      </trkpt>
      <trkpt lat="43.04541" lon="0.5549">
        <ele>437.8</ele>
        <time>2020-06-30T08:48:12Z</time>
      </trkpt>
      <trkpt lat="43.04541" lon="0.55486">
        <ele>438</ele>
        <time>2020-06-30T08:48:13Z</time>
      </trkpt>
      <trkpt lat="43.04544" lon="0.55488">
        <ele>438.2</ele>
        <time>2020-06-30T08:48:14Z</time>
      </trkpt>
      <trkpt lat="43.04548" lon="0.55489">
        <ele>438.2</ele>
        <time>2020-06-30T08:48:15Z</time>
      </trkpt>
      <trkpt lat="43.0455" lon="0.55487">
        <ele>438.4</ele>
        <time>2020-06-30T08:48:16Z</time>
      </trkpt>
      <trkpt lat="43.04552" lon="0.55485">
        <ele>438.4</ele>
        <time>2020-06-30T08:48:17Z</time>
      </trkpt>
      <trkpt lat="43.04559" lon="0.55482">
        <ele>438.8</ele>
        <time>2020-06-30T08:48:19Z</time>
      </trkpt>
      <trkpt lat="43.04563" lon="0.55482">
        <ele>438.8</ele>
        <time>2020-06-30T08:48:20Z</time>
      </trkpt>
      <trkpt lat="43.04563" lon="0.55477">
        <ele>439</ele>
        <time>2020-06-30T08:48:21Z</time>
      </trkpt>
      <trkpt lat="43.04568" lon="0.55479">
        <ele>439</ele>
        <time>2020-06-30T08:48:22Z</time>
      </trkpt>
      <trkpt lat="43.04568" lon="0.55474">
        <ele>439.2</ele>
        <time>2020-06-30T08:48:23Z</time>
      </trkpt>
      <trkpt lat="43.04569" lon="0.5547">
        <ele>439.4</ele>
        <time>2020-06-30T08:48:24Z</time>
      </trkpt>
      <trkpt lat="43.04571" lon="0.5547">
        <ele>439.4</ele>
        <time>2020-06-30T08:48:25Z</time>
      </trkpt>
      <trkpt lat="43.04574" lon="0.55471">
        <ele>439.6</ele>
        <time>2020-06-30T08:48:26Z</time>
      </trkpt>
      <trkpt lat="43.04575" lon="0.5547">
        <ele>439.6</ele>
        <time>2020-06-30T08:48:27Z</time>
      </trkpt>
      <trkpt lat="43.04577" lon="0.5547">
        <ele>439.8</ele>
        <time>2020-06-30T08:48:28Z</time>
      </trkpt>
      <trkpt lat="43.04577" lon="0.55464">
        <ele>440</ele>
        <time>2020-06-30T08:48:29Z</time>
      </trkpt>
      <trkpt lat="43.0458" lon="0.55465">
        <ele>440</ele>
        <time>2020-06-30T08:48:30Z</time>
      </trkpt>
      <trkpt lat="43.04581" lon="0.55463">
        <ele>440.2</ele>
        <time>2020-06-30T08:48:31Z</time>
      </trkpt>
      <trkpt lat="43.04583" lon="0.55462">
        <ele>440.2</ele>
        <time>2020-06-30T08:48:32Z</time>
      </trkpt>
      <trkpt lat="43.04585" lon="0.55463">
        <ele>440.4</ele>
        <time>2020-06-30T08:48:33Z</time>
      </trkpt>
      <trkpt lat="43.04586" lon="0.55463">
        <ele>440.4</ele>
        <time>2020-06-30T08:48:34Z</time>
      </trkpt>
      <trkpt lat="43.04588" lon="0.55461">
        <ele>440.6</ele>
        <time>2020-06-30T08:48:35Z</time>
      </trkpt>
      <trkpt lat="43.04591" lon="0.55462">
        <ele>440.8</ele>
        <time>2020-06-30T08:48:36Z</time>
      </trkpt>
      <trkpt lat="43.04592" lon="0.5546">
        <ele>440.8</ele>
        <time>2020-06-30T08:48:37Z</time>
      </trkpt>
      <trkpt lat="43.04594" lon="0.55459">
        <ele>441</ele>
        <time>2020-06-30T08:48:38Z</time>
      </trkpt>
      <trkpt lat="43.04595" lon="0.55456">
        <ele>441</ele>
        <time>2020-06-30T08:48:39Z</time>
      </trkpt>
      <trkpt lat="43.04599" lon="0.55455">
        <ele>441</ele>
        <time>2020-06-30T08:48:40Z</time>
      </trkpt>
      <trkpt lat="43.04602" lon="0.55454">
        <ele>441.2</ele>
        <time>2020-06-30T08:48:41Z</time>
      </trkpt>
      <trkpt lat="43.04604" lon="0.55453">
        <ele>441.4</ele>
        <time>2020-06-30T08:48:42Z</time>
      </trkpt>
      <trkpt lat="43.04606" lon="0.55453">
        <ele>441.4</ele>
        <time>2020-06-30T08:48:43Z</time>
      </trkpt>
      <trkpt lat="43.04609" lon="0.55452">
        <ele>441.4</ele>
        <time>2020-06-30T08:48:44Z</time>
      </trkpt>
      <trkpt lat="43.04611" lon="0.55449">
        <ele>441.6</ele>
        <time>2020-06-30T08:48:45Z</time>
      </trkpt>
      <trkpt lat="43.04613" lon="0.55449">
        <ele>441.8</ele>
        <time>2020-06-30T08:48:46Z</time>
      </trkpt>
      <trkpt lat="43.04616" lon="0.5545">
        <ele>441.8</ele>
        <time>2020-06-30T08:48:47Z</time>
      </trkpt>
      <trkpt lat="43.04617" lon="0.55448">
        <ele>441.8</ele>
        <time>2020-06-30T08:48:48Z</time>
      </trkpt>
      <trkpt lat="43.0462" lon="0.55448">
        <ele>442.2</ele>
        <time>2020-06-30T08:48:49Z</time>
      </trkpt>
      <trkpt lat="43.04623" lon="0.55446">
        <ele>442</ele>
        <time>2020-06-30T08:48:50Z</time>
      </trkpt>
      <trkpt lat="43.04626" lon="0.55446">
        <ele>442.2</ele>
        <time>2020-06-30T08:48:51Z</time>
      </trkpt>
      <trkpt lat="43.04627" lon="0.55443">
        <ele>442.4</ele>
        <time>2020-06-30T08:48:52Z</time>
      </trkpt>
      <trkpt lat="43.04628" lon="0.5544">
        <ele>442.4</ele>
        <time>2020-06-30T08:48:53Z</time>
      </trkpt>
      <trkpt lat="43.04632" lon="0.55441">
        <ele>442.4</ele>
        <time>2020-06-30T08:48:54Z</time>
      </trkpt>
      <trkpt lat="43.04634" lon="0.55439">
        <ele>442.6</ele>
        <time>2020-06-30T08:48:55Z</time>
      </trkpt>
      <trkpt lat="43.04637" lon="0.55441">
        <ele>442.6</ele>
        <time>2020-06-30T08:48:56Z</time>
      </trkpt>
      <trkpt lat="43.04638" lon="0.55439">
        <ele>442.6</ele>
        <time>2020-06-30T08:48:57Z</time>
      </trkpt>
      <trkpt lat="43.0464" lon="0.55439">
        <ele>442.8</ele>
        <time>2020-06-30T08:48:58Z</time>
      </trkpt>
      <trkpt lat="43.04643" lon="0.55438">
        <ele>442.8</ele>
        <time>2020-06-30T08:48:59Z</time>
      </trkpt>
      <trkpt lat="43.04645" lon="0.55436">
        <ele>442.8</ele>
        <time>2020-06-30T08:49:00Z</time>
      </trkpt>
      <trkpt lat="43.04648" lon="0.55435">
        <ele>443</ele>
        <time>2020-06-30T08:49:01Z</time>
      </trkpt>
      <trkpt lat="43.04651" lon="0.55435">
        <ele>443</ele>
        <time>2020-06-30T08:49:02Z</time>
      </trkpt>
      <trkpt lat="43.04652" lon="0.55431">
        <ele>443</ele>
        <time>2020-06-30T08:49:03Z</time>
      </trkpt>
      <trkpt lat="43.04655" lon="0.55429">
        <ele>443</ele>
        <time>2020-06-30T08:49:04Z</time>
      </trkpt>
      <trkpt lat="43.04658" lon="0.55428">
        <ele>443</ele>
        <time>2020-06-30T08:49:05Z</time>
      </trkpt>
      <trkpt lat="43.04661" lon="0.55429">
        <ele>443</ele>
        <time>2020-06-30T08:49:06Z</time>
      </trkpt>
      <trkpt lat="43.04663" lon="0.55425">
        <ele>443</ele>
        <time>2020-06-30T08:49:07Z</time>
      </trkpt>
      <trkpt lat="43.04666" lon="0.55423">
        <ele>443</ele>
        <time>2020-06-30T08:49:08Z</time>
      </trkpt>
      <trkpt lat="43.04668" lon="0.55419">
        <ele>443</ele>
        <time>2020-06-30T08:49:09Z</time>
      </trkpt>
      <trkpt lat="43.04672" lon="0.55419">
        <ele>443</ele>
        <time>2020-06-30T08:49:10Z</time>
      </trkpt>
      <trkpt lat="43.04674" lon="0.55416">
        <ele>443</ele>
        <time>2020-06-30T08:49:11Z</time>
      </trkpt>
      <trkpt lat="43.0468" lon="0.5541">
        <ele>442.8</ele>
        <time>2020-06-30T08:49:13Z</time>
      </trkpt>
      <trkpt lat="43.04682" lon="0.55406">
        <ele>442.8</ele>
        <time>2020-06-30T08:49:14Z</time>
      </trkpt>
      <trkpt lat="43.04687" lon="0.55405">
        <ele>442.6</ele>
        <time>2020-06-30T08:49:15Z</time>
      </trkpt>
      <trkpt lat="43.0469" lon="0.55401">
        <ele>442.4</ele>
        <time>2020-06-30T08:49:16Z</time>
      </trkpt>
      <trkpt lat="43.04693" lon="0.55398">
        <ele>442.2</ele>
        <time>2020-06-30T08:49:17Z</time>
      </trkpt>
      <trkpt lat="43.04701" lon="0.55391">
        <ele>441.8</ele>
        <time>2020-06-30T08:49:19Z</time>
      </trkpt>
      <trkpt lat="43.04705" lon="0.55385">
        <ele>441.4</ele>
        <time>2020-06-30T08:49:20Z</time>
      </trkpt>
      <trkpt lat="43.04709" lon="0.55381">
        <ele>441.2</ele>
        <time>2020-06-30T08:49:21Z</time>
      </trkpt>
      <trkpt lat="43.04712" lon="0.55376">
        <ele>441</ele>
        <time>2020-06-30T08:49:22Z</time>
      </trkpt>
      <trkpt lat="43.04718" lon="0.55364">
        <ele>440.8</ele>
        <time>2020-06-30T08:49:24Z</time>
      </trkpt>
      <trkpt lat="43.04721" lon="0.55358">
        <ele>440.4</ele>
        <time>2020-06-30T08:49:25Z</time>
      </trkpt>
      <trkpt lat="43.04724" lon="0.55351">
        <ele>440.6</ele>
        <time>2020-06-30T08:49:26Z</time>
      </trkpt>
      <trkpt lat="43.04727" lon="0.55344">
        <ele>440.2</ele>
        <time>2020-06-30T08:49:27Z</time>
      </trkpt>
      <trkpt lat="43.04733" lon="0.55329">
        <ele>440.2</ele>
        <time>2020-06-30T08:49:29Z</time>
      </trkpt>
      <trkpt lat="43.04737" lon="0.55322">
        <ele>440</ele>
        <time>2020-06-30T08:49:30Z</time>
      </trkpt>
      <trkpt lat="43.04741" lon="0.55314">
        <ele>440</ele>
        <time>2020-06-30T08:49:31Z</time>
      </trkpt>
      <trkpt lat="43.04744" lon="0.5531">
        <ele>440.2</ele>
        <time>2020-06-30T08:49:32Z</time>
      </trkpt>
      <trkpt lat="43.04746" lon="0.55305">
        <ele>440.2</ele>
        <time>2020-06-30T08:49:33Z</time>
      </trkpt>
      <trkpt lat="43.0475" lon="0.55301">
        <ele>440.2</ele>
        <time>2020-06-30T08:49:34Z</time>
      </trkpt>
      <trkpt lat="43.04755" lon="0.55301">
        <ele>440.4</ele>
        <time>2020-06-30T08:49:35Z</time>
      </trkpt>
      <trkpt lat="43.0476" lon="0.55296">
        <ele>440.4</ele>
        <time>2020-06-30T08:49:36Z</time>
      </trkpt>
      <trkpt lat="43.04768" lon="0.5529">
        <ele>440.4</ele>
        <time>2020-06-30T08:49:38Z</time>
      </trkpt>
      <trkpt lat="43.04772" lon="0.55289">
        <ele>440.6</ele>
        <time>2020-06-30T08:49:39Z</time>
      </trkpt>
      <trkpt lat="43.04776" lon="0.55287">
        <ele>440.6</ele>
        <time>2020-06-30T08:49:40Z</time>
      </trkpt>
      <trkpt lat="43.04781" lon="0.55285">
        <ele>440.6</ele>
        <time>2020-06-30T08:49:41Z</time>
      </trkpt>
      <trkpt lat="43.04789" lon="0.55282">
        <ele>440.8</ele>
        <time>2020-06-30T08:49:43Z</time>
      </trkpt>
      <trkpt lat="43.04793" lon="0.55281">
        <ele>441</ele>
        <time>2020-06-30T08:49:44Z</time>
      </trkpt>
      <trkpt lat="43.04796" lon="0.5528">
        <ele>441.2</ele>
        <time>2020-06-30T08:49:45Z</time>
      </trkpt>
      <trkpt lat="43.048" lon="0.55278">
        <ele>441.6</ele>
        <time>2020-06-30T08:49:46Z</time>
      </trkpt>
      <trkpt lat="43.04804" lon="0.55278">
        <ele>441.8</ele>
        <time>2020-06-30T08:49:47Z</time>
      </trkpt>
      <trkpt lat="43.04807" lon="0.55277">
        <ele>441.8</ele>
        <time>2020-06-30T08:49:48Z</time>
      </trkpt>
      <trkpt lat="43.04809" lon="0.55277">
        <ele>442</ele>
        <time>2020-06-30T08:49:49Z</time>
      </trkpt>
      <trkpt lat="43.04812" lon="0.55277">
        <ele>442.2</ele>
        <time>2020-06-30T08:49:50Z</time>
      </trkpt>
      <trkpt lat="43.04816" lon="0.55276">
        <ele>442.4</ele>
        <time>2020-06-30T08:49:51Z</time>
      </trkpt>
      <trkpt lat="43.04818" lon="0.55275">
        <ele>442.4</ele>
        <time>2020-06-30T08:49:52Z</time>
      </trkpt>
      <trkpt lat="43.04821" lon="0.55274">
        <ele>442.6</ele>
        <time>2020-06-30T08:49:53Z</time>
      </trkpt>
      <trkpt lat="43.04825" lon="0.55273">
        <ele>442.8</ele>
        <time>2020-06-30T08:49:54Z</time>
      </trkpt>
      <trkpt lat="43.04827" lon="0.55273">
        <ele>442.8</ele>
        <time>2020-06-30T08:49:55Z</time>
      </trkpt>
      <trkpt lat="43.04829" lon="0.55274">
        <ele>443</ele>
        <time>2020-06-30T08:49:56Z</time>
      </trkpt>
      <trkpt lat="43.04832" lon="0.55275">
        <ele>443</ele>
        <time>2020-06-30T08:49:57Z</time>
      </trkpt>
      <trkpt lat="43.04834" lon="0.55277">
        <ele>443</ele>
        <time>2020-06-30T08:49:58Z</time>
      </trkpt>
      <trkpt lat="43.04837" lon="0.55277">
        <ele>443.2</ele>
        <time>2020-06-30T08:49:59Z</time>
      </trkpt>
      <trkpt lat="43.04839" lon="0.55279">
        <ele>443.2</ele>
        <time>2020-06-30T08:50:00Z</time>
      </trkpt>
      <trkpt lat="43.04842" lon="0.5528">
        <ele>443.2</ele>
        <time>2020-06-30T08:50:01Z</time>
      </trkpt>
      <trkpt lat="43.04844" lon="0.55281">
        <ele>443.2</ele>
        <time>2020-06-30T08:50:02Z</time>
      </trkpt>
      <trkpt lat="43.04848" lon="0.55282">
        <ele>443.2</ele>
        <time>2020-06-30T08:50:03Z</time>
      </trkpt>
      <trkpt lat="43.04849" lon="0.5528">
        <ele>443.2</ele>
        <time>2020-06-30T08:50:04Z</time>
      </trkpt>
      <trkpt lat="43.04853" lon="0.55283">
        <ele>443.2</ele>
        <time>2020-06-30T08:50:05Z</time>
      </trkpt>
      <trkpt lat="43.04857" lon="0.55282">
        <ele>443.4</ele>
        <time>2020-06-30T08:50:06Z</time>
      </trkpt>
      <trkpt lat="43.04862" lon="0.5528">
        <ele>443.4</ele>
        <time>2020-06-30T08:50:07Z</time>
      </trkpt>
      <trkpt lat="43.04865" lon="0.5528">
        <ele>443.6</ele>
        <time>2020-06-30T08:50:08Z</time>
      </trkpt>
      <trkpt lat="43.04869" lon="0.55278">
        <ele>443.6</ele>
        <time>2020-06-30T08:50:09Z</time>
      </trkpt>
      <trkpt lat="43.04873" lon="0.55276">
        <ele>443.8</ele>
        <time>2020-06-30T08:50:10Z</time>
      </trkpt>
      <trkpt lat="43.04875" lon="0.55276">
        <ele>443.8</ele>
        <time>2020-06-30T08:50:11Z</time>
      </trkpt>
      <trkpt lat="43.04878" lon="0.55274">
        <ele>444</ele>
        <time>2020-06-30T08:50:12Z</time>
      </trkpt>
      <trkpt lat="43.04881" lon="0.55273">
        <ele>444</ele>
        <time>2020-06-30T08:50:13Z</time>
      </trkpt>
      <trkpt lat="43.04884" lon="0.55271">
        <ele>444.2</ele>
        <time>2020-06-30T08:50:14Z</time>
      </trkpt>
      <trkpt lat="43.04887" lon="0.55269">
        <ele>444.4</ele>
        <time>2020-06-30T08:50:15Z</time>
      </trkpt>
      <trkpt lat="43.0489" lon="0.55267">
        <ele>444.4</ele>
        <time>2020-06-30T08:50:16Z</time>
      </trkpt>
      <trkpt lat="43.04892" lon="0.55264">
        <ele>444.6</ele>
        <time>2020-06-30T08:50:17Z</time>
      </trkpt>
      <trkpt lat="43.04894" lon="0.55263">
        <ele>444.8</ele>
        <time>2020-06-30T08:50:18Z</time>
      </trkpt>
      <trkpt lat="43.04897" lon="0.55261">
        <ele>444.8</ele>
        <time>2020-06-30T08:50:19Z</time>
      </trkpt>
      <trkpt lat="43.04899" lon="0.5526">
        <ele>445</ele>
        <time>2020-06-30T08:50:20Z</time>
      </trkpt>
      <trkpt lat="43.04901" lon="0.55259">
        <ele>445.2</ele>
        <time>2020-06-30T08:50:21Z</time>
      </trkpt>
      <trkpt lat="43.04902" lon="0.55257">
        <ele>445.2</ele>
        <time>2020-06-30T08:50:22Z</time>
      </trkpt>
      <trkpt lat="43.04904" lon="0.55255">
        <ele>445.4</ele>
        <time>2020-06-30T08:50:23Z</time>
      </trkpt>
      <trkpt lat="43.04906" lon="0.55253">
        <ele>445.6</ele>
        <time>2020-06-30T08:50:24Z</time>
      </trkpt>
      <trkpt lat="43.04909" lon="0.55252">
        <ele>445.6</ele>
        <time>2020-06-30T08:50:25Z</time>
      </trkpt>
      <trkpt lat="43.04911" lon="0.5525">
        <ele>445.8</ele>
        <time>2020-06-30T08:50:26Z</time>
      </trkpt>
      <trkpt lat="43.04914" lon="0.55248">
        <ele>445.8</ele>
        <time>2020-06-30T08:50:27Z</time>
      </trkpt>
      <trkpt lat="43.04916" lon="0.55246">
        <ele>446</ele>
        <time>2020-06-30T08:50:28Z</time>
      </trkpt>
      <trkpt lat="43.04919" lon="0.55244">
        <ele>446</ele>
        <time>2020-06-30T08:50:29Z</time>
      </trkpt>
      <trkpt lat="43.04921" lon="0.55243">
        <ele>446.2</ele>
        <time>2020-06-30T08:50:30Z</time>
      </trkpt>
      <trkpt lat="43.04923" lon="0.55243">
        <ele>446.2</ele>
        <time>2020-06-30T08:50:31Z</time>
      </trkpt>
      <trkpt lat="43.04926" lon="0.5524">
        <ele>446.2</ele>
        <time>2020-06-30T08:50:32Z</time>
      </trkpt>
      <trkpt lat="43.04928" lon="0.55238">
        <ele>446.4</ele>
        <time>2020-06-30T08:50:33Z</time>
      </trkpt>
      <trkpt lat="43.04931" lon="0.55236">
        <ele>446.4</ele>
        <time>2020-06-30T08:50:34Z</time>
      </trkpt>
      <trkpt lat="43.04932" lon="0.55234">
        <ele>446.6</ele>
        <time>2020-06-30T08:50:35Z</time>
      </trkpt>
      <trkpt lat="43.04935" lon="0.55232">
        <ele>446.6</ele>
        <time>2020-06-30T08:50:36Z</time>
      </trkpt>
      <trkpt lat="43.04937" lon="0.55229">
        <ele>446.6</ele>
        <time>2020-06-30T08:50:37Z</time>
      </trkpt>
      <trkpt lat="43.0494" lon="0.55227">
        <ele>446.6</ele>
        <time>2020-06-30T08:50:38Z</time>
      </trkpt>
      <trkpt lat="43.04942" lon="0.55225">
        <ele>446.6</ele>
        <time>2020-06-30T08:50:39Z</time>
      </trkpt>
      <trkpt lat="43.04946" lon="0.55223">
        <ele>446.4</ele>
        <time>2020-06-30T08:50:40Z</time>
      </trkpt>
      <trkpt lat="43.04949" lon="0.55222">
        <ele>446.4</ele>
        <time>2020-06-30T08:50:41Z</time>
      </trkpt>
      <trkpt lat="43.04951" lon="0.55219">
        <ele>446.4</ele>
        <time>2020-06-30T08:50:42Z</time>
      </trkpt>
      <trkpt lat="43.04954" lon="0.55218">
        <ele>446.2</ele>
        <time>2020-06-30T08:50:43Z</time>
      </trkpt>
      <trkpt lat="43.04958" lon="0.55216">
        <ele>446</ele>
        <time>2020-06-30T08:50:44Z</time>
      </trkpt>
      <trkpt lat="43.04961" lon="0.55213">
        <ele>446</ele>
        <time>2020-06-30T08:50:45Z</time>
      </trkpt>
      <trkpt lat="43.04965" lon="0.55211">
        <ele>445.8</ele>
        <time>2020-06-30T08:50:46Z</time>
      </trkpt>
      <trkpt lat="43.04974" lon="0.55204">
        <ele>445.4</ele>
        <time>2020-06-30T08:50:48Z</time>
      </trkpt>
      <trkpt lat="43.04978" lon="0.55201">
        <ele>445.2</ele>
        <time>2020-06-30T08:50:49Z</time>
      </trkpt>
      <trkpt lat="43.04982" lon="0.55198">
        <ele>444.8</ele>
        <time>2020-06-30T08:50:50Z</time>
      </trkpt>
      <trkpt lat="43.04988" lon="0.55195">
        <ele>444.6</ele>
        <time>2020-06-30T08:50:51Z</time>
      </trkpt>
      <trkpt lat="43.04992" lon="0.55192">
        <ele>444.4</ele>
        <time>2020-06-30T08:50:52Z</time>
      </trkpt>
      <trkpt lat="43.04997" lon="0.55189">
        <ele>444</ele>
        <time>2020-06-30T08:50:53Z</time>
      </trkpt>
      <trkpt lat="43.05003" lon="0.55187">
        <ele>443.8</ele>
        <time>2020-06-30T08:50:54Z</time>
      </trkpt>
      <trkpt lat="43.05009" lon="0.55185">
        <ele>443.6</ele>
        <time>2020-06-30T08:50:55Z</time>
      </trkpt>
      <trkpt lat="43.05014" lon="0.55181">
        <ele>443.4</ele>
        <time>2020-06-30T08:50:56Z</time>
      </trkpt>
      <trkpt lat="43.0502" lon="0.55177">
        <ele>443.2</ele>
        <time>2020-06-30T08:50:57Z</time>
      </trkpt>
      <trkpt lat="43.05031" lon="0.55167">
        <ele>442.6</ele>
        <time>2020-06-30T08:50:59Z</time>
      </trkpt>
      <trkpt lat="43.05037" lon="0.55162">
        <ele>442.2</ele>
        <time>2020-06-30T08:51:00Z</time>
      </trkpt>
      <trkpt lat="43.05044" lon="0.55158">
        <ele>442</ele>
        <time>2020-06-30T08:51:01Z</time>
      </trkpt>
      <trkpt lat="43.0505" lon="0.55153">
        <ele>441.8</ele>
        <time>2020-06-30T08:51:02Z</time>
      </trkpt>
      <trkpt lat="43.05056" lon="0.55149">
        <ele>441.4</ele>
        <time>2020-06-30T08:51:03Z</time>
      </trkpt>
      <trkpt lat="43.05062" lon="0.55144">
        <ele>441.2</ele>
        <time>2020-06-30T08:51:04Z</time>
      </trkpt>
      <trkpt lat="43.05075" lon="0.55136">
        <ele>440.8</ele>
        <time>2020-06-30T08:51:06Z</time>
      </trkpt>
      <trkpt lat="43.05081" lon="0.55131">
        <ele>440.8</ele>
        <time>2020-06-30T08:51:07Z</time>
      </trkpt>
      <trkpt lat="43.05087" lon="0.55126">
        <ele>440.8</ele>
        <time>2020-06-30T08:51:08Z</time>
      </trkpt>
      <trkpt lat="43.05099" lon="0.55116">
        <ele>440.6</ele>
        <time>2020-06-30T08:51:10Z</time>
      </trkpt>
      <trkpt lat="43.05105" lon="0.55111">
        <ele>440.4</ele>
        <time>2020-06-30T08:51:11Z</time>
      </trkpt>
      <trkpt lat="43.05111" lon="0.55107">
        <ele>440.4</ele>
        <time>2020-06-30T08:51:12Z</time>
      </trkpt>
      <trkpt lat="43.05116" lon="0.55103">
        <ele>440.4</ele>
        <time>2020-06-30T08:51:13Z</time>
      </trkpt>
      <trkpt lat="43.05122" lon="0.551">
        <ele>440.4</ele>
        <time>2020-06-30T08:51:14Z</time>
      </trkpt>
      <trkpt lat="43.05133" lon="0.55093">
        <ele>440.2</ele>
        <time>2020-06-30T08:51:16Z</time>
      </trkpt>
      <trkpt lat="43.05139" lon="0.55088">
        <ele>440.4</ele>
        <time>2020-06-30T08:51:17Z</time>
      </trkpt>
      <trkpt lat="43.05144" lon="0.55083">
        <ele>440.2</ele>
        <time>2020-06-30T08:51:18Z</time>
      </trkpt>
      <trkpt lat="43.0515" lon="0.55078">
        <ele>440.2</ele>
        <time>2020-06-30T08:51:19Z</time>
      </trkpt>
      <trkpt lat="43.05155" lon="0.55073">
        <ele>440.2</ele>
        <time>2020-06-30T08:51:20Z</time>
      </trkpt>
      <trkpt lat="43.0516" lon="0.55068">
        <ele>440.2</ele>
        <time>2020-06-30T08:51:21Z</time>
      </trkpt>
      <trkpt lat="43.05165" lon="0.55065">
        <ele>440.2</ele>
        <time>2020-06-30T08:51:22Z</time>
      </trkpt>
      <trkpt lat="43.0517" lon="0.55061">
        <ele>440.2</ele>
        <time>2020-06-30T08:51:23Z</time>
      </trkpt>
      <trkpt lat="43.05179" lon="0.55052">
        <ele>440.4</ele>
        <time>2020-06-30T08:51:25Z</time>
      </trkpt>
      <trkpt lat="43.05183" lon="0.55048">
        <ele>440.4</ele>
        <time>2020-06-30T08:51:26Z</time>
      </trkpt>
      <trkpt lat="43.05187" lon="0.55043">
        <ele>440.4</ele>
        <time>2020-06-30T08:51:27Z</time>
      </trkpt>
      <trkpt lat="43.05192" lon="0.55037">
        <ele>440.4</ele>
        <time>2020-06-30T08:51:28Z</time>
      </trkpt>
      <trkpt lat="43.05196" lon="0.55034">
        <ele>440.6</ele>
        <time>2020-06-30T08:51:29Z</time>
      </trkpt>
      <trkpt lat="43.05201" lon="0.55028">
        <ele>440.6</ele>
        <time>2020-06-30T08:51:30Z</time>
      </trkpt>
      <trkpt lat="43.05205" lon="0.55024">
        <ele>440.6</ele>
        <time>2020-06-30T08:51:31Z</time>
      </trkpt>
      <trkpt lat="43.05209" lon="0.55019">
        <ele>440.8</ele>
        <time>2020-06-30T08:51:32Z</time>
      </trkpt>
      <trkpt lat="43.05218" lon="0.55009">
        <ele>440.8</ele>
        <time>2020-06-30T08:51:34Z</time>
      </trkpt>
      <trkpt lat="43.05221" lon="0.55005">
        <ele>441</ele>
        <time>2020-06-30T08:51:35Z</time>
      </trkpt>
      <trkpt lat="43.05224" lon="0.55002">
        <ele>441</ele>
        <time>2020-06-30T08:51:36Z</time>
      </trkpt>
      <trkpt lat="43.05227" lon="0.54998">
        <ele>441</ele>
        <time>2020-06-30T08:51:37Z</time>
      </trkpt>
      <trkpt lat="43.05231" lon="0.54993">
        <ele>441.2</ele>
        <time>2020-06-30T08:51:38Z</time>
      </trkpt>
      <trkpt lat="43.05235" lon="0.54989">
        <ele>441.4</ele>
        <time>2020-06-30T08:51:39Z</time>
      </trkpt>
      <trkpt lat="43.05239" lon="0.54985">
        <ele>441.4</ele>
        <time>2020-06-30T08:51:40Z</time>
      </trkpt>
      <trkpt lat="43.05243" lon="0.5498">
        <ele>441.6</ele>
        <time>2020-06-30T08:51:41Z</time>
      </trkpt>
      <trkpt lat="43.05247" lon="0.54977">
        <ele>441.8</ele>
        <time>2020-06-30T08:51:42Z</time>
      </trkpt>
      <trkpt lat="43.05251" lon="0.54972">
        <ele>441.8</ele>
        <time>2020-06-30T08:51:43Z</time>
      </trkpt>
      <trkpt lat="43.05254" lon="0.54969">
        <ele>442.2</ele>
        <time>2020-06-30T08:51:44Z</time>
      </trkpt>
      <trkpt lat="43.05257" lon="0.54966">
        <ele>442.4</ele>
        <time>2020-06-30T08:51:45Z</time>
      </trkpt>
      <trkpt lat="43.0526" lon="0.54963">
        <ele>442.6</ele>
        <time>2020-06-30T08:51:46Z</time>
      </trkpt>
      <trkpt lat="43.05263" lon="0.5496">
        <ele>442.8</ele>
        <time>2020-06-30T08:51:47Z</time>
      </trkpt>
      <trkpt lat="43.05266" lon="0.54957">
        <ele>443</ele>
        <time>2020-06-30T08:51:48Z</time>
      </trkpt>
      <trkpt lat="43.05269" lon="0.54954">
        <ele>443</ele>
        <time>2020-06-30T08:51:49Z</time>
      </trkpt>
      <trkpt lat="43.05272" lon="0.54951">
        <ele>443.2</ele>
        <time>2020-06-30T08:51:50Z</time>
      </trkpt>
      <trkpt lat="43.05275" lon="0.54951">
        <ele>443.2</ele>
        <time>2020-06-30T08:51:51Z</time>
      </trkpt>
      <trkpt lat="43.05277" lon="0.54949">
        <ele>443.2</ele>
        <time>2020-06-30T08:51:52Z</time>
      </trkpt>
      <trkpt lat="43.05279" lon="0.54947">
        <ele>443.4</ele>
        <time>2020-06-30T08:51:53Z</time>
      </trkpt>
      <trkpt lat="43.05282" lon="0.54946">
        <ele>443.4</ele>
        <time>2020-06-30T08:51:54Z</time>
      </trkpt>
      <trkpt lat="43.05285" lon="0.54941">
        <ele>443.4</ele>
        <time>2020-06-30T08:51:55Z</time>
      </trkpt>
      <trkpt lat="43.05289" lon="0.54938">
        <ele>443.4</ele>
        <time>2020-06-30T08:51:56Z</time>
      </trkpt>
      <trkpt lat="43.05292" lon="0.54937">
        <ele>443.6</ele>
        <time>2020-06-30T08:51:57Z</time>
      </trkpt>
      <trkpt lat="43.05293" lon="0.54936">
        <ele>443.6</ele>
        <time>2020-06-30T08:51:58Z</time>
      </trkpt>
      <trkpt lat="43.05298" lon="0.54931">
        <ele>443.6</ele>
        <time>2020-06-30T08:51:59Z</time>
      </trkpt>
      <trkpt lat="43.05301" lon="0.54929">
        <ele>443.6</ele>
        <time>2020-06-30T08:52:00Z</time>
      </trkpt>
      <trkpt lat="43.05305" lon="0.54927">
        <ele>443.6</ele>
        <time>2020-06-30T08:52:01Z</time>
      </trkpt>
      <trkpt lat="43.05308" lon="0.54923">
        <ele>443.8</ele>
        <time>2020-06-30T08:52:02Z</time>
      </trkpt>
      <trkpt lat="43.05311" lon="0.5492">
        <ele>443.8</ele>
        <time>2020-06-30T08:52:03Z</time>
      </trkpt>
      <trkpt lat="43.05314" lon="0.54918">
        <ele>443.8</ele>
        <time>2020-06-30T08:52:04Z</time>
      </trkpt>
      <trkpt lat="43.05318" lon="0.54915">
        <ele>444</ele>
        <time>2020-06-30T08:52:05Z</time>
      </trkpt>
      <trkpt lat="43.05321" lon="0.54913">
        <ele>444</ele>
        <time>2020-06-30T08:52:06Z</time>
      </trkpt>
      <trkpt lat="43.05323" lon="0.5491">
        <ele>444</ele>
        <time>2020-06-30T08:52:07Z</time>
      </trkpt>
      <trkpt lat="43.05326" lon="0.54909">
        <ele>444.2</ele>
        <time>2020-06-30T08:52:08Z</time>
      </trkpt>
      <trkpt lat="43.05332" lon="0.54905">
        <ele>444.2</ele>
        <time>2020-06-30T08:52:10Z</time>
      </trkpt>
      <trkpt lat="43.05335" lon="0.54901">
        <ele>444.2</ele>
        <time>2020-06-30T08:52:11Z</time>
      </trkpt>
      <trkpt lat="43.05338" lon="0.54897">
        <ele>444.2</ele>
        <time>2020-06-30T08:52:12Z</time>
      </trkpt>
      <trkpt lat="43.05341" lon="0.54896">
        <ele>444.2</ele>
        <time>2020-06-30T08:52:13Z</time>
      </trkpt>
      <trkpt lat="43.05345" lon="0.54893">
        <ele>444.2</ele>
        <time>2020-06-30T08:52:14Z</time>
      </trkpt>
      <trkpt lat="43.05348" lon="0.54889">
        <ele>444.2</ele>
        <time>2020-06-30T08:52:15Z</time>
      </trkpt>
      <trkpt lat="43.05351" lon="0.54886">
        <ele>444</ele>
        <time>2020-06-30T08:52:16Z</time>
      </trkpt>
      <trkpt lat="43.05354" lon="0.54883">
        <ele>444</ele>
        <time>2020-06-30T08:52:17Z</time>
      </trkpt>
      <trkpt lat="43.05361" lon="0.54878">
        <ele>443.6</ele>
        <time>2020-06-30T08:52:19Z</time>
      </trkpt>
      <trkpt lat="43.05366" lon="0.54874">
        <ele>443.2</ele>
        <time>2020-06-30T08:52:20Z</time>
      </trkpt>
      <trkpt lat="43.05371" lon="0.5487">
        <ele>442.8</ele>
        <time>2020-06-30T08:52:21Z</time>
      </trkpt>
      <trkpt lat="43.05377" lon="0.54867">
        <ele>442.2</ele>
        <time>2020-06-30T08:52:22Z</time>
      </trkpt>
      <trkpt lat="43.05383" lon="0.54863">
        <ele>441.6</ele>
        <time>2020-06-30T08:52:23Z</time>
      </trkpt>
      <trkpt lat="43.05389" lon="0.5486">
        <ele>441.2</ele>
        <time>2020-06-30T08:52:24Z</time>
      </trkpt>
      <trkpt lat="43.05396" lon="0.54857">
        <ele>440.6</ele>
        <time>2020-06-30T08:52:25Z</time>
      </trkpt>
      <trkpt lat="43.05404" lon="0.54853">
        <ele>439.8</ele>
        <time>2020-06-30T08:52:26Z</time>
      </trkpt>
      <trkpt lat="43.05414" lon="0.54853">
        <ele>439.2</ele>
        <time>2020-06-30T08:52:27Z</time>
      </trkpt>
      <trkpt lat="43.05423" lon="0.54851">
        <ele>438.6</ele>
        <time>2020-06-30T08:52:28Z</time>
      </trkpt>
      <trkpt lat="43.05432" lon="0.54852">
        <ele>438.2</ele>
        <time>2020-06-30T08:52:29Z</time>
      </trkpt>
      <trkpt lat="43.05441" lon="0.54852">
        <ele>438</ele>
        <time>2020-06-30T08:52:30Z</time>
      </trkpt>
      <trkpt lat="43.05447" lon="0.54853">
        <ele>438</ele>
        <time>2020-06-30T08:52:31Z</time>
      </trkpt>
      <trkpt lat="43.05455" lon="0.54856">
        <ele>437.8</ele>
        <time>2020-06-30T08:52:32Z</time>
      </trkpt>
      <trkpt lat="43.05463" lon="0.54858">
        <ele>437.8</ele>
        <time>2020-06-30T08:52:33Z</time>
      </trkpt>
      <trkpt lat="43.05471" lon="0.54859">
        <ele>437.8</ele>
        <time>2020-06-30T08:52:34Z</time>
      </trkpt>
      <trkpt lat="43.05485" lon="0.54862">
        <ele>437.4</ele>
        <time>2020-06-30T08:52:36Z</time>
      </trkpt>
      <trkpt lat="43.05491" lon="0.54862">
        <ele>437</ele>
        <time>2020-06-30T08:52:37Z</time>
      </trkpt>
      <trkpt lat="43.05499" lon="0.54863">
        <ele>436.8</ele>
        <time>2020-06-30T08:52:38Z</time>
      </trkpt>
      <trkpt lat="43.05509" lon="0.54866">
        <ele>436.4</ele>
        <time>2020-06-30T08:52:39Z</time>
      </trkpt>
      <trkpt lat="43.05524" lon="0.54856">
        <ele>435.8</ele>
        <time>2020-06-30T08:52:41Z</time>
      </trkpt>
      <trkpt lat="43.05532" lon="0.54851">
        <ele>435.4</ele>
        <time>2020-06-30T08:52:42Z</time>
      </trkpt>
      <trkpt lat="43.05538" lon="0.54844">
        <ele>435</ele>
        <time>2020-06-30T08:52:43Z</time>
      </trkpt>
      <trkpt lat="43.05545" lon="0.54838">
        <ele>435</ele>
        <time>2020-06-30T08:52:44Z</time>
      </trkpt>
      <trkpt lat="43.05551" lon="0.54832">
        <ele>435</ele>
        <time>2020-06-30T08:52:45Z</time>
      </trkpt>
      <trkpt lat="43.05564" lon="0.54818">
        <ele>434.8</ele>
        <time>2020-06-30T08:52:47Z</time>
      </trkpt>
      <trkpt lat="43.05571" lon="0.5481">
        <ele>434.6</ele>
        <time>2020-06-30T08:52:48Z</time>
      </trkpt>
      <trkpt lat="43.05578" lon="0.54807">
        <ele>434.6</ele>
        <time>2020-06-30T08:52:49Z</time>
      </trkpt>
      <trkpt lat="43.05585" lon="0.54805">
        <ele>434.6</ele>
        <time>2020-06-30T08:52:50Z</time>
      </trkpt>
      <trkpt lat="43.05598" lon="0.54801">
        <ele>434.4</ele>
        <time>2020-06-30T08:52:52Z</time>
      </trkpt>
      <trkpt lat="43.05605" lon="0.54803">
        <ele>434.4</ele>
        <time>2020-06-30T08:52:53Z</time>
      </trkpt>
      <trkpt lat="43.05612" lon="0.54804">
        <ele>434.4</ele>
        <time>2020-06-30T08:52:54Z</time>
      </trkpt>
      <trkpt lat="43.0562" lon="0.54806">
        <ele>434.4</ele>
        <time>2020-06-30T08:52:55Z</time>
      </trkpt>
      <trkpt lat="43.05625" lon="0.5481">
        <ele>434.6</ele>
        <time>2020-06-30T08:52:56Z</time>
      </trkpt>
      <trkpt lat="43.05631" lon="0.54812">
        <ele>434.6</ele>
        <time>2020-06-30T08:52:57Z</time>
      </trkpt>
      <trkpt lat="43.05637" lon="0.54814">
        <ele>434.6</ele>
        <time>2020-06-30T08:52:58Z</time>
      </trkpt>
      <trkpt lat="43.05651" lon="0.54818">
        <ele>434.2</ele>
        <time>2020-06-30T08:53:00Z</time>
      </trkpt>
      <trkpt lat="43.05657" lon="0.54822">
        <ele>434.2</ele>
        <time>2020-06-30T08:53:01Z</time>
      </trkpt>
      <trkpt lat="43.05663" lon="0.54825">
        <ele>434.2</ele>
        <time>2020-06-30T08:53:02Z</time>
      </trkpt>
      <trkpt lat="43.05669" lon="0.54827">
        <ele>434.2</ele>
        <time>2020-06-30T08:53:03Z</time>
      </trkpt>
      <trkpt lat="43.05675" lon="0.5483">
        <ele>434.4</ele>
        <time>2020-06-30T08:53:04Z</time>
      </trkpt>
      <trkpt lat="43.05687" lon="0.54836">
        <ele>434.6</ele>
        <time>2020-06-30T08:53:06Z</time>
      </trkpt>
      <trkpt lat="43.05692" lon="0.54839">
        <ele>434.6</ele>
        <time>2020-06-30T08:53:07Z</time>
      </trkpt>
      <trkpt lat="43.05698" lon="0.54843">
        <ele>434.6</ele>
        <time>2020-06-30T08:53:08Z</time>
      </trkpt>
      <trkpt lat="43.05703" lon="0.54847">
        <ele>434.6</ele>
        <time>2020-06-30T08:53:09Z</time>
      </trkpt>
      <trkpt lat="43.05709" lon="0.5485">
        <ele>434.6</ele>
        <time>2020-06-30T08:53:10Z</time>
      </trkpt>
      <trkpt lat="43.05714" lon="0.54854">
        <ele>434.6</ele>
        <time>2020-06-30T08:53:11Z</time>
      </trkpt>
      <trkpt lat="43.05718" lon="0.54856">
        <ele>434.6</ele>
        <time>2020-06-30T08:53:12Z</time>
      </trkpt>
      <trkpt lat="43.05722" lon="0.54861">
        <ele>434.6</ele>
        <time>2020-06-30T08:53:13Z</time>
      </trkpt>
      <trkpt lat="43.05726" lon="0.54865">
        <ele>434.8</ele>
        <time>2020-06-30T08:53:14Z</time>
      </trkpt>
      <trkpt lat="43.05736" lon="0.54871">
        <ele>434.8</ele>
        <time>2020-06-30T08:53:16Z</time>
      </trkpt>
      <trkpt lat="43.05741" lon="0.54872">
        <ele>434.8</ele>
        <time>2020-06-30T08:53:17Z</time>
      </trkpt>
      <trkpt lat="43.05745" lon="0.54874">
        <ele>434.8</ele>
        <time>2020-06-30T08:53:18Z</time>
      </trkpt>
      <trkpt lat="43.0575" lon="0.54874">
        <ele>434.6</ele>
        <time>2020-06-30T08:53:19Z</time>
      </trkpt>
      <trkpt lat="43.05755" lon="0.54874">
        <ele>434.4</ele>
        <time>2020-06-30T08:53:20Z</time>
      </trkpt>
      <trkpt lat="43.05761" lon="0.54872">
        <ele>434</ele>
        <time>2020-06-30T08:53:21Z</time>
      </trkpt>
      <trkpt lat="43.05766" lon="0.54869">
        <ele>433.8</ele>
        <time>2020-06-30T08:53:22Z</time>
      </trkpt>
      <trkpt lat="43.05776" lon="0.5486">
        <ele>433.6</ele>
        <time>2020-06-30T08:53:24Z</time>
      </trkpt>
      <trkpt lat="43.0578" lon="0.54854">
        <ele>433.4</ele>
        <time>2020-06-30T08:53:25Z</time>
      </trkpt>
      <trkpt lat="43.05785" lon="0.54849">
        <ele>433.4</ele>
        <time>2020-06-30T08:53:26Z</time>
      </trkpt>
      <trkpt lat="43.05791" lon="0.54844">
        <ele>433.4</ele>
        <time>2020-06-30T08:53:27Z</time>
      </trkpt>
      <trkpt lat="43.05795" lon="0.54838">
        <ele>433.4</ele>
        <time>2020-06-30T08:53:28Z</time>
      </trkpt>
      <trkpt lat="43.05798" lon="0.54833">
        <ele>433.4</ele>
        <time>2020-06-30T08:53:29Z</time>
      </trkpt>
      <trkpt lat="43.05806" lon="0.54819">
        <ele>433.4</ele>
        <time>2020-06-30T08:53:31Z</time>
      </trkpt>
      <trkpt lat="43.05809" lon="0.54812">
        <ele>433.6</ele>
        <time>2020-06-30T08:53:32Z</time>
      </trkpt>
      <trkpt lat="43.05812" lon="0.54806">
        <ele>433.6</ele>
        <time>2020-06-30T08:53:33Z</time>
      </trkpt>
      <trkpt lat="43.05814" lon="0.54799">
        <ele>433.8</ele>
        <time>2020-06-30T08:53:34Z</time>
      </trkpt>
      <trkpt lat="43.05817" lon="0.54792">
        <ele>433.8</ele>
        <time>2020-06-30T08:53:35Z</time>
      </trkpt>
      <trkpt lat="43.05819" lon="0.54786">
        <ele>434</ele>
        <time>2020-06-30T08:53:36Z</time>
      </trkpt>
      <trkpt lat="43.05821" lon="0.54779">
        <ele>434</ele>
        <time>2020-06-30T08:53:37Z</time>
      </trkpt>
      <trkpt lat="43.05822" lon="0.54772">
        <ele>434.2</ele>
        <time>2020-06-30T08:53:38Z</time>
      </trkpt>
      <trkpt lat="43.05824" lon="0.54766">
        <ele>434.4</ele>
        <time>2020-06-30T08:53:39Z</time>
      </trkpt>
      <trkpt lat="43.05826" lon="0.54761">
        <ele>434.4</ele>
        <time>2020-06-30T08:53:40Z</time>
      </trkpt>
      <trkpt lat="43.05828" lon="0.54757">
        <ele>434.6</ele>
        <time>2020-06-30T08:53:41Z</time>
      </trkpt>
      <trkpt lat="43.05831" lon="0.54747">
        <ele>434.8</ele>
        <time>2020-06-30T08:53:43Z</time>
      </trkpt>
      <trkpt lat="43.05832" lon="0.5474">
        <ele>434.8</ele>
        <time>2020-06-30T08:53:44Z</time>
      </trkpt>
      <trkpt lat="43.05834" lon="0.54737">
        <ele>435</ele>
        <time>2020-06-30T08:53:45Z</time>
      </trkpt>
      <trkpt lat="43.05836" lon="0.54732">
        <ele>435.2</ele>
        <time>2020-06-30T08:53:46Z</time>
      </trkpt>
      <trkpt lat="43.05837" lon="0.54725">
        <ele>435.2</ele>
        <time>2020-06-30T08:53:47Z</time>
      </trkpt>
      <trkpt lat="43.05838" lon="0.54718">
        <ele>435.4</ele>
        <time>2020-06-30T08:53:48Z</time>
      </trkpt>
      <trkpt lat="43.05838" lon="0.54711">
        <ele>435.6</ele>
        <time>2020-06-30T08:53:49Z</time>
      </trkpt>
      <trkpt lat="43.05839" lon="0.54706">
        <ele>435.6</ele>
        <time>2020-06-30T08:53:50Z</time>
      </trkpt>
      <trkpt lat="43.0584" lon="0.54702">
        <ele>435.8</ele>
        <time>2020-06-30T08:53:51Z</time>
      </trkpt>
      <trkpt lat="43.0584" lon="0.54697">
        <ele>436</ele>
        <time>2020-06-30T08:53:52Z</time>
      </trkpt>
      <trkpt lat="43.05843" lon="0.54694">
        <ele>436</ele>
        <time>2020-06-30T08:53:53Z</time>
      </trkpt>
      <trkpt lat="43.05842" lon="0.54684">
        <ele>436.2</ele>
        <time>2020-06-30T08:53:54Z</time>
      </trkpt>
      <trkpt lat="43.05843" lon="0.54681">
        <ele>436.4</ele>
        <time>2020-06-30T08:53:55Z</time>
      </trkpt>
      <trkpt lat="43.05842" lon="0.54675">
        <ele>436.4</ele>
        <time>2020-06-30T08:53:56Z</time>
      </trkpt>
      <trkpt lat="43.0584" lon="0.54668">
        <ele>436.6</ele>
        <time>2020-06-30T08:53:57Z</time>
      </trkpt>
      <trkpt lat="43.05842" lon="0.54668">
        <ele>436.6</ele>
        <time>2020-06-30T08:53:58Z</time>
      </trkpt>
      <trkpt lat="43.05842" lon="0.54661">
        <ele>437</ele>
        <time>2020-06-30T08:54:00Z</time>
      </trkpt>
      <trkpt lat="43.05842" lon="0.54656">
        <ele>437</ele>
        <time>2020-06-30T08:54:01Z</time>
      </trkpt>
      <trkpt lat="43.0584" lon="0.54648">
        <ele>437.2</ele>
        <time>2020-06-30T08:54:02Z</time>
      </trkpt>
      <trkpt lat="43.0584" lon="0.54646">
        <ele>437.2</ele>
        <time>2020-06-30T08:54:03Z</time>
      </trkpt>
      <trkpt lat="43.05842" lon="0.54646">
        <ele>437.4</ele>
        <time>2020-06-30T08:54:04Z</time>
      </trkpt>
      <trkpt lat="43.05843" lon="0.54645">
        <ele>437.6</ele>
        <time>2020-06-30T08:54:05Z</time>
      </trkpt>
      <trkpt lat="43.05841" lon="0.54641">
        <ele>437.6</ele>
        <time>2020-06-30T08:54:06Z</time>
      </trkpt>
      <trkpt lat="43.05839" lon="0.54633">
        <ele>437.8</ele>
        <time>2020-06-30T08:54:07Z</time>
      </trkpt>
      <trkpt lat="43.05844" lon="0.54638">
        <ele>437.8</ele>
        <time>2020-06-30T08:54:08Z</time>
      </trkpt>
      <trkpt lat="43.05843" lon="0.54632">
        <ele>438</ele>
        <time>2020-06-30T08:54:09Z</time>
      </trkpt>
      <trkpt lat="43.05842" lon="0.54627">
        <ele>438.2</ele>
        <time>2020-06-30T08:54:10Z</time>
      </trkpt>
      <trkpt lat="43.05844" lon="0.54629">
        <ele>438.2</ele>
        <time>2020-06-30T08:54:11Z</time>
      </trkpt>
      <trkpt lat="43.05843" lon="0.54623">
        <ele>438.4</ele>
        <time>2020-06-30T08:54:12Z</time>
      </trkpt>
      <trkpt lat="43.05844" lon="0.54622">
        <ele>438.6</ele>
        <time>2020-06-30T08:54:13Z</time>
      </trkpt>
      <trkpt lat="43.05844" lon="0.54618">
        <ele>438.6</ele>
        <time>2020-06-30T08:54:14Z</time>
      </trkpt>
      <trkpt lat="43.05844" lon="0.54614">
        <ele>438.8</ele>
        <time>2020-06-30T08:54:15Z</time>
      </trkpt>
      <trkpt lat="43.05845" lon="0.54612">
        <ele>439</ele>
        <time>2020-06-30T08:54:16Z</time>
      </trkpt>
      <trkpt lat="43.05844" lon="0.54607">
        <ele>439</ele>
        <time>2020-06-30T08:54:17Z</time>
      </trkpt>
      <trkpt lat="43.05844" lon="0.54604">
        <ele>439.2</ele>
        <time>2020-06-30T08:54:18Z</time>
      </trkpt>
      <trkpt lat="43.05846" lon="0.54604">
        <ele>439.4</ele>
        <time>2020-06-30T08:54:19Z</time>
      </trkpt>
      <trkpt lat="43.05845" lon="0.54595">
        <ele>439.4</ele>
        <time>2020-06-30T08:54:20Z</time>
      </trkpt>
      <trkpt lat="43.05847" lon="0.54595">
        <ele>439.6</ele>
        <time>2020-06-30T08:54:21Z</time>
      </trkpt>
      <trkpt lat="43.05848" lon="0.54591">
        <ele>439.6</ele>
        <time>2020-06-30T08:54:22Z</time>
      </trkpt>
      <trkpt lat="43.05848" lon="0.54587">
        <ele>439.8</ele>
        <time>2020-06-30T08:54:23Z</time>
      </trkpt>
      <trkpt lat="43.0585" lon="0.54585">
        <ele>440</ele>
        <time>2020-06-30T08:54:24Z</time>
      </trkpt>
      <trkpt lat="43.0585" lon="0.54582">
        <ele>440</ele>
        <time>2020-06-30T08:54:25Z</time>
      </trkpt>
      <trkpt lat="43.05853" lon="0.54582">
        <ele>440.2</ele>
        <time>2020-06-30T08:54:26Z</time>
      </trkpt>
      <trkpt lat="43.05852" lon="0.54575">
        <ele>440.4</ele>
        <time>2020-06-30T08:54:27Z</time>
      </trkpt>
      <trkpt lat="43.05852" lon="0.5457">
        <ele>440.4</ele>
        <time>2020-06-30T08:54:28Z</time>
      </trkpt>
      <trkpt lat="43.05854" lon="0.5457">
        <ele>440.6</ele>
        <time>2020-06-30T08:54:29Z</time>
      </trkpt>
      <trkpt lat="43.05855" lon="0.54568">
        <ele>440.8</ele>
        <time>2020-06-30T08:54:30Z</time>
      </trkpt>
      <trkpt lat="43.05855" lon="0.54563">
        <ele>440.8</ele>
        <time>2020-06-30T08:54:31Z</time>
      </trkpt>
      <trkpt lat="43.05855" lon="0.54558">
        <ele>441</ele>
        <time>2020-06-30T08:54:32Z</time>
      </trkpt>
      <trkpt lat="43.05856" lon="0.54555">
        <ele>441</ele>
        <time>2020-06-30T08:54:33Z</time>
      </trkpt>
      <trkpt lat="43.05857" lon="0.54554">
        <ele>441.2</ele>
        <time>2020-06-30T08:54:34Z</time>
      </trkpt>
      <trkpt lat="43.05858" lon="0.54552">
        <ele>441.2</ele>
        <time>2020-06-30T08:54:35Z</time>
      </trkpt>
      <trkpt lat="43.05859" lon="0.54548">
        <ele>441.2</ele>
        <time>2020-06-30T08:54:36Z</time>
      </trkpt>
      <trkpt lat="43.0586" lon="0.54545">
        <ele>441.2</ele>
        <time>2020-06-30T08:54:37Z</time>
      </trkpt>
      <trkpt lat="43.05862" lon="0.54538">
        <ele>441.4</ele>
        <time>2020-06-30T08:54:39Z</time>
      </trkpt>
      <trkpt lat="43.05862" lon="0.54534">
        <ele>441.4</ele>
        <time>2020-06-30T08:54:40Z</time>
      </trkpt>
      <trkpt lat="43.05864" lon="0.54532">
        <ele>441.4</ele>
        <time>2020-06-30T08:54:41Z</time>
      </trkpt>
      <trkpt lat="43.05865" lon="0.54531">
        <ele>441.4</ele>
        <time>2020-06-30T08:54:42Z</time>
      </trkpt>
      <trkpt lat="43.05866" lon="0.54526">
        <ele>441.4</ele>
        <time>2020-06-30T08:54:43Z</time>
      </trkpt>
      <trkpt lat="43.0587" lon="0.54525">
        <ele>441.4</ele>
        <time>2020-06-30T08:54:44Z</time>
      </trkpt>
      <trkpt lat="43.05872" lon="0.54521">
        <ele>441.4</ele>
        <time>2020-06-30T08:54:45Z</time>
      </trkpt>
      <trkpt lat="43.05872" lon="0.54513">
        <ele>441.4</ele>
        <time>2020-06-30T08:54:46Z</time>
      </trkpt>
      <trkpt lat="43.05874" lon="0.5451">
        <ele>441.4</ele>
        <time>2020-06-30T08:54:47Z</time>
      </trkpt>
      <trkpt lat="43.05877" lon="0.54508">
        <ele>441.4</ele>
        <time>2020-06-30T08:54:48Z</time>
      </trkpt>
      <trkpt lat="43.05878" lon="0.54502">
        <ele>441.4</ele>
        <time>2020-06-30T08:54:49Z</time>
      </trkpt>
      <trkpt lat="43.05881" lon="0.54499">
        <ele>441.4</ele>
        <time>2020-06-30T08:54:50Z</time>
      </trkpt>
      <trkpt lat="43.05885" lon="0.54497">
        <ele>441.4</ele>
        <time>2020-06-30T08:54:51Z</time>
      </trkpt>
      <trkpt lat="43.05888" lon="0.54492">
        <ele>441.4</ele>
        <time>2020-06-30T08:54:52Z</time>
      </trkpt>
      <trkpt lat="43.05891" lon="0.5449">
        <ele>441.4</ele>
        <time>2020-06-30T08:54:53Z</time>
      </trkpt>
      <trkpt lat="43.05894" lon="0.54488">
        <ele>441.4</ele>
        <time>2020-06-30T08:54:54Z</time>
      </trkpt>
      <trkpt lat="43.05897" lon="0.54484">
        <ele>441.4</ele>
        <time>2020-06-30T08:54:55Z</time>
      </trkpt>
      <trkpt lat="43.05899" lon="0.5448">
        <ele>441.4</ele>
        <time>2020-06-30T08:54:56Z</time>
      </trkpt>
      <trkpt lat="43.05903" lon="0.54477">
        <ele>441.4</ele>
        <time>2020-06-30T08:54:57Z</time>
      </trkpt>
      <trkpt lat="43.05904" lon="0.54474">
        <ele>441.4</ele>
        <time>2020-06-30T08:54:58Z</time>
      </trkpt>
      <trkpt lat="43.05909" lon="0.54474">
        <ele>441.4</ele>
        <time>2020-06-30T08:54:59Z</time>
      </trkpt>
      <trkpt lat="43.05913" lon="0.54473">
        <ele>441.4</ele>
        <time>2020-06-30T08:55:00Z</time>
      </trkpt>
      <trkpt lat="43.05917" lon="0.54472">
        <ele>441.4</ele>
        <time>2020-06-30T08:55:01Z</time>
      </trkpt>
      <trkpt lat="43.0592" lon="0.54467">
        <ele>441.2</ele>
        <time>2020-06-30T08:55:02Z</time>
      </trkpt>
      <trkpt lat="43.05925" lon="0.54466">
        <ele>441.2</ele>
        <time>2020-06-30T08:55:03Z</time>
      </trkpt>
      <trkpt lat="43.05928" lon="0.54463">
        <ele>441</ele>
        <time>2020-06-30T08:55:04Z</time>
      </trkpt>
      <trkpt lat="43.05932" lon="0.54458">
        <ele>441</ele>
        <time>2020-06-30T08:55:05Z</time>
      </trkpt>
      <trkpt lat="43.0594" lon="0.54453">
        <ele>440.8</ele>
        <time>2020-06-30T08:55:07Z</time>
      </trkpt>
      <trkpt lat="43.05944" lon="0.5445">
        <ele>440.6</ele>
        <time>2020-06-30T08:55:08Z</time>
      </trkpt>
      <trkpt lat="43.05948" lon="0.54447">
        <ele>440.6</ele>
        <time>2020-06-30T08:55:09Z</time>
      </trkpt>
      <trkpt lat="43.05957" lon="0.54445">
        <ele>440.4</ele>
        <time>2020-06-30T08:55:11Z</time>
      </trkpt>
      <trkpt lat="43.05961" lon="0.54442">
        <ele>440.4</ele>
        <time>2020-06-30T08:55:12Z</time>
      </trkpt>
      <trkpt lat="43.05966" lon="0.5444">
        <ele>440.2</ele>
        <time>2020-06-30T08:55:13Z</time>
      </trkpt>
      <trkpt lat="43.05968" lon="0.54435">
        <ele>440.2</ele>
        <time>2020-06-30T08:55:14Z</time>
      </trkpt>
      <trkpt lat="43.05973" lon="0.54433">
        <ele>440</ele>
        <time>2020-06-30T08:55:15Z</time>
      </trkpt>
      <trkpt lat="43.05977" lon="0.54431">
        <ele>440</ele>
        <time>2020-06-30T08:55:16Z</time>
      </trkpt>
      <trkpt lat="43.05982" lon="0.5443">
        <ele>439.8</ele>
        <time>2020-06-30T08:55:17Z</time>
      </trkpt>
      <trkpt lat="43.05985" lon="0.54427">
        <ele>439.8</ele>
        <time>2020-06-30T08:55:18Z</time>
      </trkpt>
      <trkpt lat="43.0599" lon="0.54425">
        <ele>439.8</ele>
        <time>2020-06-30T08:55:19Z</time>
      </trkpt>
      <trkpt lat="43.05994" lon="0.54422">
        <ele>439.6</ele>
        <time>2020-06-30T08:55:20Z</time>
      </trkpt>
      <trkpt lat="43.06002" lon="0.54417">
        <ele>439.4</ele>
        <time>2020-06-30T08:55:22Z</time>
      </trkpt>
      <trkpt lat="43.06006" lon="0.54414">
        <ele>439.4</ele>
        <time>2020-06-30T08:55:23Z</time>
      </trkpt>
      <trkpt lat="43.0601" lon="0.54414">
        <ele>439.4</ele>
        <time>2020-06-30T08:55:24Z</time>
      </trkpt>
      <trkpt lat="43.06014" lon="0.54412">
        <ele>439.2</ele>
        <time>2020-06-30T08:55:25Z</time>
      </trkpt>
      <trkpt lat="43.06019" lon="0.5441">
        <ele>439.2</ele>
        <time>2020-06-30T08:55:26Z</time>
      </trkpt>
      <trkpt lat="43.06023" lon="0.54407">
        <ele>439.2</ele>
        <time>2020-06-30T08:55:27Z</time>
      </trkpt>
      <trkpt lat="43.06032" lon="0.54401">
        <ele>439</ele>
        <time>2020-06-30T08:55:29Z</time>
      </trkpt>
      <trkpt lat="43.06036" lon="0.54399">
        <ele>439</ele>
        <time>2020-06-30T08:55:30Z</time>
      </trkpt>
      <trkpt lat="43.06041" lon="0.54395">
        <ele>439</ele>
        <time>2020-06-30T08:55:31Z</time>
      </trkpt>
      <trkpt lat="43.06046" lon="0.54393">
        <ele>438.8</ele>
        <time>2020-06-30T08:55:32Z</time>
      </trkpt>
      <trkpt lat="43.0605" lon="0.54392">
        <ele>438.6</ele>
        <time>2020-06-30T08:55:33Z</time>
      </trkpt>
      <trkpt lat="43.06056" lon="0.5439">
        <ele>438.6</ele>
        <time>2020-06-30T08:55:34Z</time>
      </trkpt>
      <trkpt lat="43.06065" lon="0.54387">
        <ele>438.4</ele>
        <time>2020-06-30T08:55:36Z</time>
      </trkpt>
      <trkpt lat="43.06071" lon="0.54385">
        <ele>438.4</ele>
        <time>2020-06-30T08:55:37Z</time>
      </trkpt>
      <trkpt lat="43.06076" lon="0.54382">
        <ele>438.2</ele>
        <time>2020-06-30T08:55:38Z</time>
      </trkpt>
      <trkpt lat="43.06081" lon="0.5438">
        <ele>438.2</ele>
        <time>2020-06-30T08:55:39Z</time>
      </trkpt>
      <trkpt lat="43.06085" lon="0.54379">
        <ele>438</ele>
        <time>2020-06-30T08:55:40Z</time>
      </trkpt>
      <trkpt lat="43.06091" lon="0.54379">
        <ele>438</ele>
        <time>2020-06-30T08:55:41Z</time>
      </trkpt>
      <trkpt lat="43.061" lon="0.54377">
        <ele>437.8</ele>
        <time>2020-06-30T08:55:43Z</time>
      </trkpt>
      <trkpt lat="43.06105" lon="0.54375">
        <ele>437.8</ele>
        <time>2020-06-30T08:55:44Z</time>
      </trkpt>
      <trkpt lat="43.06109" lon="0.54374">
        <ele>437.8</ele>
        <time>2020-06-30T08:55:45Z</time>
      </trkpt>
      <trkpt lat="43.06114" lon="0.54371">
        <ele>437.8</ele>
        <time>2020-06-30T08:55:46Z</time>
      </trkpt>
      <trkpt lat="43.06118" lon="0.54368">
        <ele>437.8</ele>
        <time>2020-06-30T08:55:47Z</time>
      </trkpt>
      <trkpt lat="43.06123" lon="0.54364">
        <ele>437.8</ele>
        <time>2020-06-30T08:55:48Z</time>
      </trkpt>
      <trkpt lat="43.06127" lon="0.54361">
        <ele>437.8</ele>
        <time>2020-06-30T08:55:49Z</time>
      </trkpt>
      <trkpt lat="43.06134" lon="0.54354">
        <ele>437.8</ele>
        <time>2020-06-30T08:55:51Z</time>
      </trkpt>
      <trkpt lat="43.06137" lon="0.5435">
        <ele>438</ele>
        <time>2020-06-30T08:55:52Z</time>
      </trkpt>
      <trkpt lat="43.06139" lon="0.54346">
        <ele>438</ele>
        <time>2020-06-30T08:55:53Z</time>
      </trkpt>
      <trkpt lat="43.06142" lon="0.54341">
        <ele>438</ele>
        <time>2020-06-30T08:55:54Z</time>
      </trkpt>
      <trkpt lat="43.06145" lon="0.54337">
        <ele>438.2</ele>
        <time>2020-06-30T08:55:55Z</time>
      </trkpt>
      <trkpt lat="43.06149" lon="0.54328">
        <ele>438.4</ele>
        <time>2020-06-30T08:55:57Z</time>
      </trkpt>
      <trkpt lat="43.06152" lon="0.54323">
        <ele>438.6</ele>
        <time>2020-06-30T08:55:58Z</time>
      </trkpt>
      <trkpt lat="43.06155" lon="0.54317">
        <ele>438.8</ele>
        <time>2020-06-30T08:55:59Z</time>
      </trkpt>
      <trkpt lat="43.06157" lon="0.54313">
        <ele>438.8</ele>
        <time>2020-06-30T08:56:00Z</time>
      </trkpt>
      <trkpt lat="43.06159" lon="0.54308">
        <ele>439</ele>
        <time>2020-06-30T08:56:01Z</time>
      </trkpt>
      <trkpt lat="43.0616" lon="0.54302">
        <ele>439.2</ele>
        <time>2020-06-30T08:56:02Z</time>
      </trkpt>
      <trkpt lat="43.06161" lon="0.54297">
        <ele>439.4</ele>
        <time>2020-06-30T08:56:03Z</time>
      </trkpt>
      <trkpt lat="43.06162" lon="0.54291">
        <ele>439.4</ele>
        <time>2020-06-30T08:56:04Z</time>
      </trkpt>
      <trkpt lat="43.06165" lon="0.54286">
        <ele>439.6</ele>
        <time>2020-06-30T08:56:05Z</time>
      </trkpt>
      <trkpt lat="43.06167" lon="0.54281">
        <ele>439.6</ele>
        <time>2020-06-30T08:56:06Z</time>
      </trkpt>
      <trkpt lat="43.06169" lon="0.54278">
        <ele>439.8</ele>
        <time>2020-06-30T08:56:07Z</time>
      </trkpt>
      <trkpt lat="43.06169" lon="0.54276">
        <ele>440</ele>
        <time>2020-06-30T08:56:08Z</time>
      </trkpt>
      <trkpt lat="43.06171" lon="0.5427">
        <ele>440.2</ele>
        <time>2020-06-30T08:56:09Z</time>
      </trkpt>
      <trkpt lat="43.06173" lon="0.54266">
        <ele>440.2</ele>
        <time>2020-06-30T08:56:10Z</time>
      </trkpt>
      <trkpt lat="43.06176" lon="0.54258">
        <ele>440.6</ele>
        <time>2020-06-30T08:56:12Z</time>
      </trkpt>
      <trkpt lat="43.06177" lon="0.54254">
        <ele>440.8</ele>
        <time>2020-06-30T08:56:13Z</time>
      </trkpt>
      <trkpt lat="43.06178" lon="0.54251">
        <ele>440.8</ele>
        <time>2020-06-30T08:56:14Z</time>
      </trkpt>
      <trkpt lat="43.0618" lon="0.54246">
        <ele>441</ele>
        <time>2020-06-30T08:56:16Z</time>
      </trkpt>
      <trkpt lat="43.06182" lon="0.54243">
        <ele>441.2</ele>
        <time>2020-06-30T08:56:17Z</time>
      </trkpt>
      <trkpt lat="43.06182" lon="0.5424">
        <ele>441.4</ele>
        <time>2020-06-30T08:56:18Z</time>
      </trkpt>
      <trkpt lat="43.06184" lon="0.54237">
        <ele>441.4</ele>
        <time>2020-06-30T08:56:19Z</time>
      </trkpt>
      <trkpt lat="43.06186" lon="0.54233">
        <ele>441.6</ele>
        <time>2020-06-30T08:56:20Z</time>
      </trkpt>
      <trkpt lat="43.06187" lon="0.5423">
        <ele>441.6</ele>
        <time>2020-06-30T08:56:21Z</time>
      </trkpt>
      <trkpt lat="43.06188" lon="0.54229">
        <ele>441.8</ele>
        <time>2020-06-30T08:56:22Z</time>
      </trkpt>
      <trkpt lat="43.06189" lon="0.54228">
        <ele>442</ele>
        <time>2020-06-30T08:56:23Z</time>
      </trkpt>
      <trkpt lat="43.0619" lon="0.54226">
        <ele>442</ele>
        <time>2020-06-30T08:56:24Z</time>
      </trkpt>
      <trkpt lat="43.06191" lon="0.54224">
        <ele>442.2</ele>
        <time>2020-06-30T08:56:25Z</time>
      </trkpt>
      <trkpt lat="43.06193" lon="0.54221">
        <ele>442.4</ele>
        <time>2020-06-30T08:56:26Z</time>
      </trkpt>
      <trkpt lat="43.06194" lon="0.54219">
        <ele>442.4</ele>
        <time>2020-06-30T08:56:27Z</time>
      </trkpt>
      <trkpt lat="43.06196" lon="0.54217">
        <ele>442.6</ele>
        <time>2020-06-30T08:56:28Z</time>
      </trkpt>
      <trkpt lat="43.06197" lon="0.54215">
        <ele>442.8</ele>
        <time>2020-06-30T08:56:29Z</time>
      </trkpt>
      <trkpt lat="43.06198" lon="0.54212">
        <ele>443</ele>
        <time>2020-06-30T08:56:30Z</time>
      </trkpt>
      <trkpt lat="43.062" lon="0.5421">
        <ele>443.2</ele>
        <time>2020-06-30T08:56:31Z</time>
      </trkpt>
      <trkpt lat="43.06202" lon="0.54208">
        <ele>443.2</ele>
        <time>2020-06-30T08:56:32Z</time>
      </trkpt>
      <trkpt lat="43.06204" lon="0.54205">
        <ele>443.2</ele>
        <time>2020-06-30T08:56:33Z</time>
      </trkpt>
      <trkpt lat="43.06206" lon="0.54203">
        <ele>443.4</ele>
        <time>2020-06-30T08:56:34Z</time>
      </trkpt>
      <trkpt lat="43.06207" lon="0.542">
        <ele>443.6</ele>
        <time>2020-06-30T08:56:35Z</time>
      </trkpt>
      <trkpt lat="43.06208" lon="0.54199">
        <ele>443.8</ele>
        <time>2020-06-30T08:56:36Z</time>
      </trkpt>
      <trkpt lat="43.06208" lon="0.54196">
        <ele>443.8</ele>
        <time>2020-06-30T08:56:37Z</time>
      </trkpt>
      <trkpt lat="43.0621" lon="0.54193">
        <ele>444</ele>
        <time>2020-06-30T08:56:38Z</time>
      </trkpt>
      <trkpt lat="43.06211" lon="0.54195">
        <ele>444.2</ele>
        <time>2020-06-30T08:56:39Z</time>
      </trkpt>
      <trkpt lat="43.06212" lon="0.54194">
        <ele>444.4</ele>
        <time>2020-06-30T08:56:40Z</time>
      </trkpt>
      <trkpt lat="43.06211" lon="0.54188">
        <ele>444.4</ele>
        <time>2020-06-30T08:56:41Z</time>
      </trkpt>
      <trkpt lat="43.06213" lon="0.54192">
        <ele>444.6</ele>
        <time>2020-06-30T08:56:42Z</time>
      </trkpt>
      <trkpt lat="43.06213" lon="0.54191">
        <ele>444.8</ele>
        <time>2020-06-30T08:56:43Z</time>
      </trkpt>
      <trkpt lat="43.06215" lon="0.54191">
        <ele>445</ele>
        <time>2020-06-30T08:56:44Z</time>
      </trkpt>
      <trkpt lat="43.06214" lon="0.54188">
        <ele>445</ele>
        <time>2020-06-30T08:56:45Z</time>
      </trkpt>
      <trkpt lat="43.06215" lon="0.54188">
        <ele>445.2</ele>
        <time>2020-06-30T08:56:46Z</time>
      </trkpt>
      <trkpt lat="43.06217" lon="0.54188">
        <ele>445.4</ele>
        <time>2020-06-30T08:56:47Z</time>
      </trkpt>
      <trkpt lat="43.06217" lon="0.54185">
        <ele>445.4</ele>
        <time>2020-06-30T08:56:48Z</time>
      </trkpt>
      <trkpt lat="43.06218" lon="0.54185">
        <ele>445.6</ele>
        <time>2020-06-30T08:56:49Z</time>
      </trkpt>
      <trkpt lat="43.0622" lon="0.54184">
        <ele>445.8</ele>
        <time>2020-06-30T08:56:50Z</time>
      </trkpt>
      <trkpt lat="43.06219" lon="0.54182">
        <ele>445.8</ele>
        <time>2020-06-30T08:56:51Z</time>
      </trkpt>
      <trkpt lat="43.0622" lon="0.5418">
        <ele>446</ele>
        <time>2020-06-30T08:56:52Z</time>
      </trkpt>
      <trkpt lat="43.06222" lon="0.5418">
        <ele>446.2</ele>
        <time>2020-06-30T08:56:53Z</time>
      </trkpt>
      <trkpt lat="43.06221" lon="0.54178">
        <ele>446.2</ele>
        <time>2020-06-30T08:56:54Z</time>
      </trkpt>
      <trkpt lat="43.06222" lon="0.54177">
        <ele>446.4</ele>
        <time>2020-06-30T08:56:55Z</time>
      </trkpt>
      <trkpt lat="43.06222" lon="0.54176">
        <ele>446.6</ele>
        <time>2020-06-30T08:56:56Z</time>
      </trkpt>
      <trkpt lat="43.06224" lon="0.54175">
        <ele>446.6</ele>
        <time>2020-06-30T08:56:57Z</time>
      </trkpt>
      <trkpt lat="43.06223" lon="0.54171">
        <ele>446.8</ele>
        <time>2020-06-30T08:56:58Z</time>
      </trkpt>
      <trkpt lat="43.06226" lon="0.54174">
        <ele>447</ele>
        <time>2020-06-30T08:56:59Z</time>
      </trkpt>
      <trkpt lat="43.06227" lon="0.54172">
        <ele>447</ele>
        <time>2020-06-30T08:57:00Z</time>
      </trkpt>
      <trkpt lat="43.06227" lon="0.5417">
        <ele>447.2</ele>
        <time>2020-06-30T08:57:01Z</time>
      </trkpt>
      <trkpt lat="43.06229" lon="0.54169">
        <ele>447.4</ele>
        <time>2020-06-30T08:57:02Z</time>
      </trkpt>
      <trkpt lat="43.06228" lon="0.54165">
        <ele>447.4</ele>
        <time>2020-06-30T08:57:03Z</time>
      </trkpt>
      <trkpt lat="43.0623" lon="0.54164">
        <ele>447.6</ele>
        <time>2020-06-30T08:57:04Z</time>
      </trkpt>
      <trkpt lat="43.06231" lon="0.54163">
        <ele>447.6</ele>
        <time>2020-06-30T08:57:05Z</time>
      </trkpt>
      <trkpt lat="43.06232" lon="0.54162">
        <ele>447.8</ele>
        <time>2020-06-30T08:57:06Z</time>
      </trkpt>
      <trkpt lat="43.06233" lon="0.5416">
        <ele>448</ele>
        <time>2020-06-30T08:57:07Z</time>
      </trkpt>
      <trkpt lat="43.06234" lon="0.54158">
        <ele>448</ele>
        <time>2020-06-30T08:57:08Z</time>
      </trkpt>
      <trkpt lat="43.06235" lon="0.54158">
        <ele>448.2</ele>
        <time>2020-06-30T08:57:09Z</time>
      </trkpt>
      <trkpt lat="43.06236" lon="0.54158">
        <ele>448.4</ele>
        <time>2020-06-30T08:57:10Z</time>
      </trkpt>
      <trkpt lat="43.06236" lon="0.54154">
        <ele>448.4</ele>
        <time>2020-06-30T08:57:11Z</time>
      </trkpt>
      <trkpt lat="43.06235" lon="0.54151">
        <ele>448.6</ele>
        <time>2020-06-30T08:57:12Z</time>
      </trkpt>
      <trkpt lat="43.06237" lon="0.54151">
        <ele>448.8</ele>
        <time>2020-06-30T08:57:13Z</time>
      </trkpt>
      <trkpt lat="43.06237" lon="0.54149">
        <ele>449</ele>
        <time>2020-06-30T08:57:14Z</time>
      </trkpt>
      <trkpt lat="43.06238" lon="0.54149">
        <ele>449</ele>
        <time>2020-06-30T08:57:15Z</time>
      </trkpt>
      <trkpt lat="43.0624" lon="0.54148">
        <ele>449.2</ele>
        <time>2020-06-30T08:57:16Z</time>
      </trkpt>
      <trkpt lat="43.06241" lon="0.54146">
        <ele>449.4</ele>
        <time>2020-06-30T08:57:17Z</time>
      </trkpt>
      <trkpt lat="43.06241" lon="0.54142">
        <ele>449.4</ele>
        <time>2020-06-30T08:57:18Z</time>
      </trkpt>
      <trkpt lat="43.0624" lon="0.54139">
        <ele>449.6</ele>
        <time>2020-06-30T08:57:19Z</time>
      </trkpt>
      <trkpt lat="43.06242" lon="0.54139">
        <ele>449.8</ele>
        <time>2020-06-30T08:57:20Z</time>
      </trkpt>
      <trkpt lat="43.06243" lon="0.54137">
        <ele>449.8</ele>
        <time>2020-06-30T08:57:21Z</time>
      </trkpt>
      <trkpt lat="43.06244" lon="0.54136">
        <ele>450</ele>
        <time>2020-06-30T08:57:22Z</time>
      </trkpt>
      <trkpt lat="43.06247" lon="0.54139">
        <ele>450.2</ele>
        <time>2020-06-30T08:57:23Z</time>
      </trkpt>
      <trkpt lat="43.06246" lon="0.54132">
        <ele>450.2</ele>
        <time>2020-06-30T08:57:24Z</time>
      </trkpt>
      <trkpt lat="43.06248" lon="0.54132">
        <ele>450.4</ele>
        <time>2020-06-30T08:57:25Z</time>
      </trkpt>
      <trkpt lat="43.06251" lon="0.54134">
        <ele>450.6</ele>
        <time>2020-06-30T08:57:26Z</time>
      </trkpt>
      <trkpt lat="43.06251" lon="0.54128">
        <ele>450.8</ele>
        <time>2020-06-30T08:57:27Z</time>
      </trkpt>
      <trkpt lat="43.06249" lon="0.54121">
        <ele>450.8</ele>
        <time>2020-06-30T08:57:28Z</time>
      </trkpt>
      <trkpt lat="43.06251" lon="0.54124">
        <ele>451</ele>
        <time>2020-06-30T08:57:29Z</time>
      </trkpt>
      <trkpt lat="43.06253" lon="0.54128">
        <ele>451.2</ele>
        <time>2020-06-30T08:57:30Z</time>
      </trkpt>
      <trkpt lat="43.06252" lon="0.54121">
        <ele>451.2</ele>
        <time>2020-06-30T08:57:31Z</time>
      </trkpt>
      <trkpt lat="43.06253" lon="0.5412">
        <ele>451.4</ele>
        <time>2020-06-30T08:57:32Z</time>
      </trkpt>
      <trkpt lat="43.06255" lon="0.5412">
        <ele>451.4</ele>
        <time>2020-06-30T08:57:33Z</time>
      </trkpt>
      <trkpt lat="43.06254" lon="0.54117">
        <ele>451.6</ele>
        <time>2020-06-30T08:57:34Z</time>
      </trkpt>
      <trkpt lat="43.06253" lon="0.54112">
        <ele>451.8</ele>
        <time>2020-06-30T08:57:35Z</time>
      </trkpt>
      <trkpt lat="43.06256" lon="0.54115">
        <ele>451.8</ele>
        <time>2020-06-30T08:57:36Z</time>
      </trkpt>
      <trkpt lat="43.06257" lon="0.54114">
        <ele>452</ele>
        <time>2020-06-30T08:57:37Z</time>
      </trkpt>
      <trkpt lat="43.06258" lon="0.54112">
        <ele>452.2</ele>
        <time>2020-06-30T08:57:38Z</time>
      </trkpt>
      <trkpt lat="43.06257" lon="0.54109">
        <ele>452.2</ele>
        <time>2020-06-30T08:57:39Z</time>
      </trkpt>
      <trkpt lat="43.06257" lon="0.54106">
        <ele>452.4</ele>
        <time>2020-06-30T08:57:40Z</time>
      </trkpt>
      <trkpt lat="43.0626" lon="0.54109">
        <ele>452.4</ele>
        <time>2020-06-30T08:57:41Z</time>
      </trkpt>
      <trkpt lat="43.06261" lon="0.54106">
        <ele>452.6</ele>
        <time>2020-06-30T08:57:42Z</time>
      </trkpt>
      <trkpt lat="43.06259" lon="0.541">
        <ele>452.8</ele>
        <time>2020-06-30T08:57:43Z</time>
      </trkpt>
      <trkpt lat="43.06262" lon="0.54102">
        <ele>452.8</ele>
        <time>2020-06-30T08:57:44Z</time>
      </trkpt>
      <trkpt lat="43.06262" lon="0.54098">
        <ele>453</ele>
        <time>2020-06-30T08:57:45Z</time>
      </trkpt>
      <trkpt lat="43.06259" lon="0.54091">
        <ele>453</ele>
        <time>2020-06-30T08:57:46Z</time>
      </trkpt>
      <trkpt lat="43.06258" lon="0.54087">
        <ele>453.2</ele>
        <time>2020-06-30T08:57:47Z</time>
      </trkpt>
      <trkpt lat="43.06261" lon="0.54087">
        <ele>453.4</ele>
        <time>2020-06-30T08:57:48Z</time>
      </trkpt>
      <trkpt lat="43.06263" lon="0.54086">
        <ele>453.4</ele>
        <time>2020-06-30T08:57:49Z</time>
      </trkpt>
      <trkpt lat="43.06262" lon="0.54081">
        <ele>453.6</ele>
        <time>2020-06-30T08:57:50Z</time>
      </trkpt>
      <trkpt lat="43.06262" lon="0.54079">
        <ele>453.6</ele>
        <time>2020-06-30T08:57:51Z</time>
      </trkpt>
      <trkpt lat="43.06263" lon="0.54077">
        <ele>453.6</ele>
        <time>2020-06-30T08:57:52Z</time>
      </trkpt>
      <trkpt lat="43.06264" lon="0.54076">
        <ele>453.8</ele>
        <time>2020-06-30T08:57:53Z</time>
      </trkpt>
      <trkpt lat="43.06264" lon="0.54072">
        <ele>453.8</ele>
        <time>2020-06-30T08:57:54Z</time>
      </trkpt>
      <trkpt lat="43.06266" lon="0.54072">
        <ele>454</ele>
        <time>2020-06-30T08:57:55Z</time>
      </trkpt>
      <trkpt lat="43.06265" lon="0.54065">
        <ele>454</ele>
        <time>2020-06-30T08:57:56Z</time>
      </trkpt>
      <trkpt lat="43.06264" lon="0.54061">
        <ele>454.2</ele>
        <time>2020-06-30T08:57:57Z</time>
      </trkpt>
      <trkpt lat="43.06267" lon="0.54062">
        <ele>454.2</ele>
        <time>2020-06-30T08:57:58Z</time>
      </trkpt>
      <trkpt lat="43.06266" lon="0.54057">
        <ele>454.2</ele>
        <time>2020-06-30T08:57:59Z</time>
      </trkpt>
      <trkpt lat="43.06268" lon="0.54053">
        <ele>454.4</ele>
        <time>2020-06-30T08:58:00Z</time>
      </trkpt>
      <trkpt lat="43.06268" lon="0.54048">
        <ele>454.4</ele>
        <time>2020-06-30T08:58:01Z</time>
      </trkpt>
      <trkpt lat="43.06269" lon="0.54047">
        <ele>454.4</ele>
        <time>2020-06-30T08:58:02Z</time>
      </trkpt>
      <trkpt lat="43.06274" lon="0.54047">
        <ele>454.4</ele>
        <time>2020-06-30T08:58:03Z</time>
      </trkpt>
      <trkpt lat="43.06272" lon="0.5404">
        <ele>454.4</ele>
        <time>2020-06-30T08:58:04Z</time>
      </trkpt>
      <trkpt lat="43.06274" lon="0.54043">
        <ele>454.4</ele>
        <time>2020-06-30T08:58:05Z</time>
      </trkpt>
      <trkpt lat="43.06275" lon="0.54038">
        <ele>454.4</ele>
        <time>2020-06-30T08:58:06Z</time>
      </trkpt>
      <trkpt lat="43.06276" lon="0.54035">
        <ele>454.4</ele>
        <time>2020-06-30T08:58:07Z</time>
      </trkpt>
      <trkpt lat="43.06276" lon="0.5403">
        <ele>454.4</ele>
        <time>2020-06-30T08:58:08Z</time>
      </trkpt>
      <trkpt lat="43.06277" lon="0.54026">
        <ele>454.2</ele>
        <time>2020-06-30T08:58:09Z</time>
      </trkpt>
      <trkpt lat="43.06281" lon="0.54027">
        <ele>454.2</ele>
        <time>2020-06-30T08:58:10Z</time>
      </trkpt>
      <trkpt lat="43.06281" lon="0.54018">
        <ele>454.2</ele>
        <time>2020-06-30T08:58:11Z</time>
      </trkpt>
      <trkpt lat="43.06282" lon="0.54015">
        <ele>454.2</ele>
        <time>2020-06-30T08:58:12Z</time>
      </trkpt>
      <trkpt lat="43.06283" lon="0.5401">
        <ele>454.2</ele>
        <time>2020-06-30T08:58:13Z</time>
      </trkpt>
      <trkpt lat="43.06287" lon="0.5401">
        <ele>454.2</ele>
        <time>2020-06-30T08:58:14Z</time>
      </trkpt>
      <trkpt lat="43.06285" lon="0.53998">
        <ele>454.2</ele>
        <time>2020-06-30T08:58:15Z</time>
      </trkpt>
      <trkpt lat="43.06289" lon="0.53999">
        <ele>454.4</ele>
        <time>2020-06-30T08:58:16Z</time>
      </trkpt>
      <trkpt lat="43.06289" lon="0.53993">
        <ele>454.4</ele>
        <time>2020-06-30T08:58:17Z</time>
      </trkpt>
      <trkpt lat="43.06289" lon="0.5399">
        <ele>454.4</ele>
        <time>2020-06-30T08:58:18Z</time>
      </trkpt>
      <trkpt lat="43.06291" lon="0.53988">
        <ele>454.4</ele>
        <time>2020-06-30T08:58:19Z</time>
      </trkpt>
      <trkpt lat="43.06289" lon="0.53981">
        <ele>454.6</ele>
        <time>2020-06-30T08:58:20Z</time>
      </trkpt>
      <trkpt lat="43.06288" lon="0.53972">
        <ele>454.6</ele>
        <time>2020-06-30T08:58:21Z</time>
      </trkpt>
      <trkpt lat="43.06294" lon="0.53977">
        <ele>454.8</ele>
        <time>2020-06-30T08:58:22Z</time>
      </trkpt>
      <trkpt lat="43.06293" lon="0.53967">
        <ele>455</ele>
        <time>2020-06-30T08:58:23Z</time>
      </trkpt>
      <trkpt lat="43.06294" lon="0.53962">
        <ele>455.2</ele>
        <time>2020-06-30T08:58:24Z</time>
      </trkpt>
      <trkpt lat="43.06293" lon="0.53951">
        <ele>455.2</ele>
        <time>2020-06-30T08:58:25Z</time>
      </trkpt>
      <trkpt lat="43.06295" lon="0.53947">
        <ele>455.4</ele>
        <time>2020-06-30T08:58:26Z</time>
      </trkpt>
      <trkpt lat="43.06296" lon="0.53941">
        <ele>455.4</ele>
        <time>2020-06-30T08:58:27Z</time>
      </trkpt>
      <trkpt lat="43.06298" lon="0.53937">
        <ele>455.6</ele>
        <time>2020-06-30T08:58:28Z</time>
      </trkpt>
      <trkpt lat="43.06298" lon="0.5393">
        <ele>455.8</ele>
        <time>2020-06-30T08:58:29Z</time>
      </trkpt>
      <trkpt lat="43.063" lon="0.53928">
        <ele>456</ele>
        <time>2020-06-30T08:58:30Z</time>
      </trkpt>
      <trkpt lat="43.06303" lon="0.53926">
        <ele>456.2</ele>
        <time>2020-06-30T08:58:31Z</time>
      </trkpt>
      <trkpt lat="43.06306" lon="0.53923">
        <ele>456.6</ele>
        <time>2020-06-30T08:58:32Z</time>
      </trkpt>
      <trkpt lat="43.06305" lon="0.53916">
        <ele>456.6</ele>
        <time>2020-06-30T08:58:33Z</time>
      </trkpt>
      <trkpt lat="43.06308" lon="0.53915">
        <ele>456.8</ele>
        <time>2020-06-30T08:58:34Z</time>
      </trkpt>
      <trkpt lat="43.06308" lon="0.53909">
        <ele>457.2</ele>
        <time>2020-06-30T08:58:35Z</time>
      </trkpt>
      <trkpt lat="43.06309" lon="0.53907">
        <ele>457.4</ele>
        <time>2020-06-30T08:58:36Z</time>
      </trkpt>
      <trkpt lat="43.0631" lon="0.53906">
        <ele>457.6</ele>
        <time>2020-06-30T08:58:37Z</time>
      </trkpt>
      <trkpt lat="43.0631" lon="0.539">
        <ele>457.8</ele>
        <time>2020-06-30T08:58:38Z</time>
      </trkpt>
      <trkpt lat="43.06313" lon="0.53899">
        <ele>458.2</ele>
        <time>2020-06-30T08:58:39Z</time>
      </trkpt>
      <trkpt lat="43.06316" lon="0.53897">
        <ele>458.4</ele>
        <time>2020-06-30T08:58:40Z</time>
      </trkpt>
      <trkpt lat="43.06316" lon="0.53895">
        <ele>458.6</ele>
        <time>2020-06-30T08:58:41Z</time>
      </trkpt>
      <trkpt lat="43.06319" lon="0.53894">
        <ele>458.8</ele>
        <time>2020-06-30T08:58:42Z</time>
      </trkpt>
      <trkpt lat="43.06319" lon="0.53891">
        <ele>459</ele>
        <time>2020-06-30T08:58:43Z</time>
      </trkpt>
      <trkpt lat="43.06321" lon="0.5389">
        <ele>459.2</ele>
        <time>2020-06-30T08:58:44Z</time>
      </trkpt>
      <trkpt lat="43.06323" lon="0.53889">
        <ele>459.4</ele>
        <time>2020-06-30T08:58:45Z</time>
      </trkpt>
      <trkpt lat="43.06324" lon="0.53886">
        <ele>459.6</ele>
        <time>2020-06-30T08:58:46Z</time>
      </trkpt>
      <trkpt lat="43.06325" lon="0.53883">
        <ele>459.8</ele>
        <time>2020-06-30T08:58:47Z</time>
      </trkpt>
      <trkpt lat="43.06326" lon="0.53878">
        <ele>460</ele>
        <time>2020-06-30T08:58:48Z</time>
      </trkpt>
      <trkpt lat="43.06327" lon="0.53875">
        <ele>460.2</ele>
        <time>2020-06-30T08:58:49Z</time>
      </trkpt>
      <trkpt lat="43.06328" lon="0.53872">
        <ele>460.4</ele>
        <time>2020-06-30T08:58:50Z</time>
      </trkpt>
      <trkpt lat="43.06329" lon="0.53869">
        <ele>460.6</ele>
        <time>2020-06-30T08:58:51Z</time>
      </trkpt>
      <trkpt lat="43.0633" lon="0.53866">
        <ele>460.6</ele>
        <time>2020-06-30T08:58:52Z</time>
      </trkpt>
      <trkpt lat="43.06331" lon="0.53864">
        <ele>460.8</ele>
        <time>2020-06-30T08:58:53Z</time>
      </trkpt>
      <trkpt lat="43.06332" lon="0.53863">
        <ele>461</ele>
        <time>2020-06-30T08:58:54Z</time>
      </trkpt>
      <trkpt lat="43.06333" lon="0.53858">
        <ele>461</ele>
        <time>2020-06-30T08:58:55Z</time>
      </trkpt>
      <trkpt lat="43.06335" lon="0.53858">
        <ele>461</ele>
        <time>2020-06-30T08:58:56Z</time>
      </trkpt>
      <trkpt lat="43.06335" lon="0.53853">
        <ele>461</ele>
        <time>2020-06-30T08:58:57Z</time>
      </trkpt>
      <trkpt lat="43.06336" lon="0.5385">
        <ele>461.2</ele>
        <time>2020-06-30T08:58:58Z</time>
      </trkpt>
      <trkpt lat="43.06337" lon="0.53845">
        <ele>461.2</ele>
        <time>2020-06-30T08:58:59Z</time>
      </trkpt>
      <trkpt lat="43.06337" lon="0.53841">
        <ele>461.2</ele>
        <time>2020-06-30T08:59:00Z</time>
      </trkpt>
      <trkpt lat="43.06337" lon="0.53838">
        <ele>461.2</ele>
        <time>2020-06-30T08:59:01Z</time>
      </trkpt>
      <trkpt lat="43.06338" lon="0.53838">
        <ele>461.2</ele>
        <time>2020-06-30T08:59:02Z</time>
      </trkpt>
      <trkpt lat="43.06339" lon="0.53835">
        <ele>461.2</ele>
        <time>2020-06-30T08:59:03Z</time>
      </trkpt>
      <trkpt lat="43.06339" lon="0.53831">
        <ele>461.2</ele>
        <time>2020-06-30T08:59:04Z</time>
      </trkpt>
      <trkpt lat="43.06339" lon="0.53826">
        <ele>461</ele>
        <time>2020-06-30T08:59:05Z</time>
      </trkpt>
      <trkpt lat="43.06341" lon="0.53825">
        <ele>461</ele>
        <time>2020-06-30T08:59:06Z</time>
      </trkpt>
      <trkpt lat="43.0634" lon="0.53817">
        <ele>460.8</ele>
        <time>2020-06-30T08:59:07Z</time>
      </trkpt>
      <trkpt lat="43.06342" lon="0.53813">
        <ele>460.8</ele>
        <time>2020-06-30T08:59:08Z</time>
      </trkpt>
      <trkpt lat="43.06344" lon="0.53808">
        <ele>460.6</ele>
        <time>2020-06-30T08:59:09Z</time>
      </trkpt>
      <trkpt lat="43.06343" lon="0.53801">
        <ele>460.4</ele>
        <time>2020-06-30T08:59:10Z</time>
      </trkpt>
      <trkpt lat="43.06342" lon="0.53795">
        <ele>460.2</ele>
        <time>2020-06-30T08:59:11Z</time>
      </trkpt>
      <trkpt lat="43.06343" lon="0.5379">
        <ele>460</ele>
        <time>2020-06-30T08:59:12Z</time>
      </trkpt>
      <trkpt lat="43.06343" lon="0.53782">
        <ele>459.6</ele>
        <time>2020-06-30T08:59:13Z</time>
      </trkpt>
      <trkpt lat="43.06342" lon="0.53774">
        <ele>459.4</ele>
        <time>2020-06-30T08:59:14Z</time>
      </trkpt>
      <trkpt lat="43.06343" lon="0.53766">
        <ele>459.2</ele>
        <time>2020-06-30T08:59:15Z</time>
      </trkpt>
      <trkpt lat="43.06341" lon="0.53757">
        <ele>459</ele>
        <time>2020-06-30T08:59:16Z</time>
      </trkpt>
      <trkpt lat="43.06341" lon="0.53753">
        <ele>458.4</ele>
        <time>2020-06-30T08:59:17Z</time>
      </trkpt>
      <trkpt lat="43.06339" lon="0.53746">
        <ele>457.8</ele>
        <time>2020-06-30T08:59:18Z</time>
      </trkpt>
      <trkpt lat="43.06339" lon="0.53743">
        <ele>457.4</ele>
        <time>2020-06-30T08:59:19Z</time>
      </trkpt>
      <trkpt lat="43.06336" lon="0.53733">
        <ele>457.2</ele>
        <time>2020-06-30T08:59:20Z</time>
      </trkpt>
      <trkpt lat="43.06335" lon="0.53729">
        <ele>456.8</ele>
        <time>2020-06-30T08:59:21Z</time>
      </trkpt>
      <trkpt lat="43.06336" lon="0.53731">
        <ele>456.8</ele>
        <time>2020-06-30T08:59:22Z</time>
      </trkpt>
      <trkpt lat="43.06335" lon="0.5373">
        <ele>456.6</ele>
        <time>2020-06-30T08:59:23Z</time>
      </trkpt>
      <trkpt lat="43.06336" lon="0.53733">
        <ele>456.6</ele>
        <time>2020-06-30T08:59:24Z</time>
      </trkpt>
      <trkpt lat="43.06336" lon="0.53733">
        <ele>456.8</ele>
        <time>2020-06-30T08:59:25Z</time>
      </trkpt>
      <trkpt lat="43.06335" lon="0.53733">
        <ele>456.8</ele>
        <time>2020-06-30T08:59:26Z</time>
      </trkpt>
      <trkpt lat="43.06335" lon="0.53732">
        <ele>456.8</ele>
        <time>2020-06-30T08:59:27Z</time>
      </trkpt>
      <trkpt lat="43.06333" lon="0.5373">
        <ele>456.6</ele>
        <time>2020-06-30T08:59:28Z</time>
      </trkpt>
      <trkpt lat="43.06334" lon="0.53733">
        <ele>456.8</ele>
        <time>2020-06-30T08:59:29Z</time>
      </trkpt>
      <trkpt lat="43.06333" lon="0.53731">
        <ele>456.8</ele>
        <time>2020-06-30T08:59:30Z</time>
      </trkpt>
      <trkpt lat="43.06333" lon="0.53733">
        <ele>456.6</ele>
        <time>2020-06-30T08:59:31Z</time>
      </trkpt>
      <trkpt lat="43.06333" lon="0.53732">
        <ele>456.6</ele>
        <time>2020-06-30T08:59:32Z</time>
      </trkpt>
      <trkpt lat="43.06332" lon="0.5373">
        <ele>456.8</ele>
        <time>2020-06-30T08:59:33Z</time>
      </trkpt>
      <trkpt lat="43.06325" lon="0.53721">
        <ele>456.6</ele>
        <time>2020-06-30T09:03:41Z</time>
      </trkpt>
      <trkpt lat="43.06325" lon="0.53721">
        <ele>456.4</ele>
        <time>2020-06-30T09:03:42Z</time>
      </trkpt>
      <trkpt lat="43.06324" lon="0.53719">
        <ele>456.4</ele>
        <time>2020-06-30T09:03:43Z</time>
      </trkpt>
      <trkpt lat="43.06322" lon="0.53718">
        <ele>456</ele>
        <time>2020-06-30T09:03:44Z</time>
      </trkpt>
      <trkpt lat="43.0632" lon="0.53715">
        <ele>455.8</ele>
        <time>2020-06-30T09:03:45Z</time>
      </trkpt>
      <trkpt lat="43.06319" lon="0.53711">
        <ele>455.6</ele>
        <time>2020-06-30T09:03:46Z</time>
      </trkpt>
      <trkpt lat="43.06315" lon="0.53706">
        <ele>455.2</ele>
        <time>2020-06-30T09:03:47Z</time>
      </trkpt>
      <trkpt lat="43.06313" lon="0.537">
        <ele>454.8</ele>
        <time>2020-06-30T09:03:48Z</time>
      </trkpt>
      <trkpt lat="43.06309" lon="0.53693">
        <ele>454.4</ele>
        <time>2020-06-30T09:03:49Z</time>
      </trkpt>
      <trkpt lat="43.06306" lon="0.53687">
        <ele>454</ele>
        <time>2020-06-30T09:03:50Z</time>
      </trkpt>
      <trkpt lat="43.06302" lon="0.53681">
        <ele>453.4</ele>
        <time>2020-06-30T09:03:51Z</time>
      </trkpt>
      <trkpt lat="43.06298" lon="0.53673">
        <ele>453</ele>
        <time>2020-06-30T09:03:52Z</time>
      </trkpt>
      <trkpt lat="43.06295" lon="0.53663">
        <ele>452.4</ele>
        <time>2020-06-30T09:03:53Z</time>
      </trkpt>
      <trkpt lat="43.06293" lon="0.53654">
        <ele>452</ele>
        <time>2020-06-30T09:03:54Z</time>
      </trkpt>
      <trkpt lat="43.06291" lon="0.53643">
        <ele>451.4</ele>
        <time>2020-06-30T09:03:55Z</time>
      </trkpt>
      <trkpt lat="43.06289" lon="0.53636">
        <ele>451</ele>
        <time>2020-06-30T09:03:56Z</time>
      </trkpt>
      <trkpt lat="43.0629" lon="0.53625">
        <ele>450.8</ele>
        <time>2020-06-30T09:03:57Z</time>
      </trkpt>
      <trkpt lat="43.0629" lon="0.53615">
        <ele>450.2</ele>
        <time>2020-06-30T09:03:58Z</time>
      </trkpt>
      <trkpt lat="43.06293" lon="0.53606">
        <ele>449.6</ele>
        <time>2020-06-30T09:03:59Z</time>
      </trkpt>
      <trkpt lat="43.06295" lon="0.53598">
        <ele>449.2</ele>
        <time>2020-06-30T09:04:00Z</time>
      </trkpt>
      <trkpt lat="43.06297" lon="0.53588">
        <ele>448.8</ele>
        <time>2020-06-30T09:04:01Z</time>
      </trkpt>
      <trkpt lat="43.06301" lon="0.53572">
        <ele>448.2</ele>
        <time>2020-06-30T09:04:02Z</time>
      </trkpt>
      <trkpt lat="43.06308" lon="0.53562">
        <ele>447.8</ele>
        <time>2020-06-30T09:04:03Z</time>
      </trkpt>
      <trkpt lat="43.06311" lon="0.53551">
        <ele>447.8</ele>
        <time>2020-06-30T09:04:04Z</time>
      </trkpt>
      <trkpt lat="43.06317" lon="0.53541">
        <ele>447.6</ele>
        <time>2020-06-30T09:04:05Z</time>
      </trkpt>
      <trkpt lat="43.06322" lon="0.53533">
        <ele>447.8</ele>
        <time>2020-06-30T09:04:06Z</time>
      </trkpt>
      <trkpt lat="43.06329" lon="0.53528">
        <ele>447.6</ele>
        <time>2020-06-30T09:04:07Z</time>
      </trkpt>
      <trkpt lat="43.06335" lon="0.53522">
        <ele>447.2</ele>
        <time>2020-06-30T09:04:08Z</time>
      </trkpt>
      <trkpt lat="43.06342" lon="0.53515">
        <ele>447</ele>
        <time>2020-06-30T09:04:09Z</time>
      </trkpt>
      <trkpt lat="43.06343" lon="0.53509">
        <ele>446.4</ele>
        <time>2020-06-30T09:04:10Z</time>
      </trkpt>
      <trkpt lat="43.06347" lon="0.535">
        <ele>446</ele>
        <time>2020-06-30T09:04:11Z</time>
      </trkpt>
      <trkpt lat="43.06352" lon="0.53492">
        <ele>445.4</ele>
        <time>2020-06-30T09:04:12Z</time>
      </trkpt>
      <trkpt lat="43.06355" lon="0.53486">
        <ele>444.8</ele>
        <time>2020-06-30T09:04:13Z</time>
      </trkpt>
      <trkpt lat="43.06359" lon="0.53476">
        <ele>444</ele>
        <time>2020-06-30T09:04:14Z</time>
      </trkpt>
      <trkpt lat="43.06361" lon="0.53466">
        <ele>443.2</ele>
        <time>2020-06-30T09:04:15Z</time>
      </trkpt>
      <trkpt lat="43.06365" lon="0.53455">
        <ele>442.4</ele>
        <time>2020-06-30T09:04:16Z</time>
      </trkpt>
      <trkpt lat="43.06369" lon="0.53436">
        <ele>441.8</ele>
        <time>2020-06-30T09:04:17Z</time>
      </trkpt>
      <trkpt lat="43.06374" lon="0.53421">
        <ele>441</ele>
        <time>2020-06-30T09:04:18Z</time>
      </trkpt>
      <trkpt lat="43.06377" lon="0.53405">
        <ele>440.2</ele>
        <time>2020-06-30T09:04:19Z</time>
      </trkpt>
      <trkpt lat="43.0638" lon="0.5339">
        <ele>439.8</ele>
        <time>2020-06-30T09:04:20Z</time>
      </trkpt>
      <trkpt lat="43.06382" lon="0.53375">
        <ele>439.6</ele>
        <time>2020-06-30T09:04:21Z</time>
      </trkpt>
      <trkpt lat="43.06386" lon="0.53363">
        <ele>439.4</ele>
        <time>2020-06-30T09:04:22Z</time>
      </trkpt>
      <trkpt lat="43.06391" lon="0.53351">
        <ele>439</ele>
        <time>2020-06-30T09:04:23Z</time>
      </trkpt>
      <trkpt lat="43.06393" lon="0.53339">
        <ele>438.8</ele>
        <time>2020-06-30T09:04:24Z</time>
      </trkpt>
      <trkpt lat="43.06399" lon="0.53329">
        <ele>438.8</ele>
        <time>2020-06-30T09:04:25Z</time>
      </trkpt>
      <trkpt lat="43.06403" lon="0.53318">
        <ele>438.6</ele>
        <time>2020-06-30T09:04:26Z</time>
      </trkpt>
      <trkpt lat="43.06406" lon="0.53309">
        <ele>438.4</ele>
        <time>2020-06-30T09:04:27Z</time>
      </trkpt>
      <trkpt lat="43.06408" lon="0.53295">
        <ele>438.4</ele>
        <time>2020-06-30T09:04:28Z</time>
      </trkpt>
      <trkpt lat="43.06413" lon="0.53286">
        <ele>438.4</ele>
        <time>2020-06-30T09:04:29Z</time>
      </trkpt>
      <trkpt lat="43.06417" lon="0.53277">
        <ele>438.4</ele>
        <time>2020-06-30T09:04:30Z</time>
      </trkpt>
      <trkpt lat="43.06421" lon="0.53268">
        <ele>438.4</ele>
        <time>2020-06-30T09:04:31Z</time>
      </trkpt>
      <trkpt lat="43.06424" lon="0.53256">
        <ele>438.4</ele>
        <time>2020-06-30T09:04:32Z</time>
      </trkpt>
      <trkpt lat="43.06427" lon="0.53245">
        <ele>438.4</ele>
        <time>2020-06-30T09:04:33Z</time>
      </trkpt>
      <trkpt lat="43.06431" lon="0.53235">
        <ele>438.4</ele>
        <time>2020-06-30T09:04:34Z</time>
      </trkpt>
      <trkpt lat="43.06434" lon="0.53227">
        <ele>438.4</ele>
        <time>2020-06-30T09:04:35Z</time>
      </trkpt>
      <trkpt lat="43.06438" lon="0.53216">
        <ele>438.6</ele>
        <time>2020-06-30T09:04:36Z</time>
      </trkpt>
      <trkpt lat="43.0644" lon="0.53206">
        <ele>438.6</ele>
        <time>2020-06-30T09:04:37Z</time>
      </trkpt>
      <trkpt lat="43.06443" lon="0.53196">
        <ele>438.6</ele>
        <time>2020-06-30T09:04:38Z</time>
      </trkpt>
      <trkpt lat="43.06446" lon="0.53186">
        <ele>438.8</ele>
        <time>2020-06-30T09:04:39Z</time>
      </trkpt>
      <trkpt lat="43.06448" lon="0.53179">
        <ele>438.8</ele>
        <time>2020-06-30T09:04:40Z</time>
      </trkpt>
      <trkpt lat="43.06451" lon="0.53171">
        <ele>438.8</ele>
        <time>2020-06-30T09:04:41Z</time>
      </trkpt>
      <trkpt lat="43.06454" lon="0.53163">
        <ele>438.8</ele>
        <time>2020-06-30T09:04:42Z</time>
      </trkpt>
      <trkpt lat="43.06457" lon="0.53154">
        <ele>438.6</ele>
        <time>2020-06-30T09:04:43Z</time>
      </trkpt>
      <trkpt lat="43.06461" lon="0.53146">
        <ele>438.6</ele>
        <time>2020-06-30T09:04:44Z</time>
      </trkpt>
      <trkpt lat="43.06464" lon="0.5314">
        <ele>438.6</ele>
        <time>2020-06-30T09:04:45Z</time>
      </trkpt>
      <trkpt lat="43.06467" lon="0.53132">
        <ele>438.6</ele>
        <time>2020-06-30T09:04:46Z</time>
      </trkpt>
      <trkpt lat="43.06469" lon="0.53121">
        <ele>438.4</ele>
        <time>2020-06-30T09:04:47Z</time>
      </trkpt>
      <trkpt lat="43.06471" lon="0.53112">
        <ele>438.4</ele>
        <time>2020-06-30T09:04:48Z</time>
      </trkpt>
      <trkpt lat="43.06475" lon="0.53101">
        <ele>438.4</ele>
        <time>2020-06-30T09:04:49Z</time>
      </trkpt>
      <trkpt lat="43.06478" lon="0.53092">
        <ele>438.4</ele>
        <time>2020-06-30T09:04:50Z</time>
      </trkpt>
      <trkpt lat="43.06482" lon="0.53086">
        <ele>438.4</ele>
        <time>2020-06-30T09:04:51Z</time>
      </trkpt>
      <trkpt lat="43.06484" lon="0.53078">
        <ele>438.4</ele>
        <time>2020-06-30T09:04:52Z</time>
      </trkpt>
      <trkpt lat="43.06488" lon="0.53069">
        <ele>438.4</ele>
        <time>2020-06-30T09:04:53Z</time>
      </trkpt>
      <trkpt lat="43.0649" lon="0.53058">
        <ele>438.2</ele>
        <time>2020-06-30T09:04:54Z</time>
      </trkpt>
      <trkpt lat="43.06494" lon="0.5305">
        <ele>438.2</ele>
        <time>2020-06-30T09:04:55Z</time>
      </trkpt>
      <trkpt lat="43.06496" lon="0.53041">
        <ele>438</ele>
        <time>2020-06-30T09:04:56Z</time>
      </trkpt>
      <trkpt lat="43.06498" lon="0.53032">
        <ele>437.8</ele>
        <time>2020-06-30T09:04:57Z</time>
      </trkpt>
      <trkpt lat="43.065" lon="0.53024">
        <ele>437.6</ele>
        <time>2020-06-30T09:04:58Z</time>
      </trkpt>
      <trkpt lat="43.06503" lon="0.53014">
        <ele>437</ele>
        <time>2020-06-30T09:04:59Z</time>
      </trkpt>
      <trkpt lat="43.06505" lon="0.53003">
        <ele>436.4</ele>
        <time>2020-06-30T09:05:00Z</time>
      </trkpt>
      <trkpt lat="43.06505" lon="0.52993">
        <ele>436</ele>
        <time>2020-06-30T09:05:01Z</time>
      </trkpt>
      <trkpt lat="43.06506" lon="0.52981">
        <ele>435.8</ele>
        <time>2020-06-30T09:05:02Z</time>
      </trkpt>
      <trkpt lat="43.06506" lon="0.52969">
        <ele>435.6</ele>
        <time>2020-06-30T09:05:03Z</time>
      </trkpt>
      <trkpt lat="43.06506" lon="0.52959">
        <ele>435.4</ele>
        <time>2020-06-30T09:05:04Z</time>
      </trkpt>
      <trkpt lat="43.06506" lon="0.52949">
        <ele>435.4</ele>
        <time>2020-06-30T09:05:05Z</time>
      </trkpt>
      <trkpt lat="43.06505" lon="0.52939">
        <ele>435.2</ele>
        <time>2020-06-30T09:05:06Z</time>
      </trkpt>
      <trkpt lat="43.06505" lon="0.52928">
        <ele>435.2</ele>
        <time>2020-06-30T09:05:07Z</time>
      </trkpt>
      <trkpt lat="43.06504" lon="0.52917">
        <ele>435.2</ele>
        <time>2020-06-30T09:05:08Z</time>
      </trkpt>
      <trkpt lat="43.06504" lon="0.52906">
        <ele>435.2</ele>
        <time>2020-06-30T09:05:09Z</time>
      </trkpt>
      <trkpt lat="43.06501" lon="0.52894">
        <ele>435.2</ele>
        <time>2020-06-30T09:05:10Z</time>
      </trkpt>
      <trkpt lat="43.065" lon="0.52883">
        <ele>435.4</ele>
        <time>2020-06-30T09:05:11Z</time>
      </trkpt>
      <trkpt lat="43.06499" lon="0.52873">
        <ele>435.4</ele>
        <time>2020-06-30T09:05:12Z</time>
      </trkpt>
      <trkpt lat="43.06497" lon="0.52864">
        <ele>435.4</ele>
        <time>2020-06-30T09:05:13Z</time>
      </trkpt>
      <trkpt lat="43.06496" lon="0.52855">
        <ele>435.4</ele>
        <time>2020-06-30T09:05:14Z</time>
      </trkpt>
      <trkpt lat="43.06496" lon="0.52848">
        <ele>435.4</ele>
        <time>2020-06-30T09:05:15Z</time>
      </trkpt>
      <trkpt lat="43.06495" lon="0.52837">
        <ele>435.6</ele>
        <time>2020-06-30T09:05:16Z</time>
      </trkpt>
      <trkpt lat="43.06493" lon="0.52827">
        <ele>435.6</ele>
        <time>2020-06-30T09:05:17Z</time>
      </trkpt>
      <trkpt lat="43.06492" lon="0.52816">
        <ele>435.6</ele>
        <time>2020-06-30T09:05:18Z</time>
      </trkpt>
      <trkpt lat="43.0649" lon="0.52807">
        <ele>435.6</ele>
        <time>2020-06-30T09:05:19Z</time>
      </trkpt>
      <trkpt lat="43.06489" lon="0.52798">
        <ele>435.8</ele>
        <time>2020-06-30T09:05:20Z</time>
      </trkpt>
      <trkpt lat="43.06488" lon="0.52789">
        <ele>435.8</ele>
        <time>2020-06-30T09:05:21Z</time>
      </trkpt>
      <trkpt lat="43.06487" lon="0.52784">
        <ele>435.8</ele>
        <time>2020-06-30T09:05:22Z</time>
      </trkpt>
      <trkpt lat="43.06486" lon="0.52775">
        <ele>435.8</ele>
        <time>2020-06-30T09:05:23Z</time>
      </trkpt>
      <trkpt lat="43.06485" lon="0.52766">
        <ele>436</ele>
        <time>2020-06-30T09:05:24Z</time>
      </trkpt>
      <trkpt lat="43.06485" lon="0.52758">
        <ele>436</ele>
        <time>2020-06-30T09:05:25Z</time>
      </trkpt>
      <trkpt lat="43.06485" lon="0.52751">
        <ele>436.2</ele>
        <time>2020-06-30T09:05:26Z</time>
      </trkpt>
      <trkpt lat="43.06484" lon="0.52741">
        <ele>436.2</ele>
        <time>2020-06-30T09:05:27Z</time>
      </trkpt>
      <trkpt lat="43.06483" lon="0.52732">
        <ele>436.4</ele>
        <time>2020-06-30T09:05:28Z</time>
      </trkpt>
      <trkpt lat="43.06482" lon="0.52724">
        <ele>436.4</ele>
        <time>2020-06-30T09:05:29Z</time>
      </trkpt>
      <trkpt lat="43.06483" lon="0.52717">
        <ele>436.4</ele>
        <time>2020-06-30T09:05:30Z</time>
      </trkpt>
      <trkpt lat="43.06483" lon="0.52711">
        <ele>436.4</ele>
        <time>2020-06-30T09:05:31Z</time>
      </trkpt>
      <trkpt lat="43.06485" lon="0.52707">
        <ele>436.4</ele>
        <time>2020-06-30T09:05:32Z</time>
      </trkpt>
      <trkpt lat="43.06486" lon="0.527">
        <ele>436.4</ele>
        <time>2020-06-30T09:05:33Z</time>
      </trkpt>
      <trkpt lat="43.06487" lon="0.52694">
        <ele>436.4</ele>
        <time>2020-06-30T09:05:34Z</time>
      </trkpt>
      <trkpt lat="43.06489" lon="0.52689">
        <ele>436.4</ele>
        <time>2020-06-30T09:05:35Z</time>
      </trkpt>
      <trkpt lat="43.0649" lon="0.52683">
        <ele>436.4</ele>
        <time>2020-06-30T09:05:36Z</time>
      </trkpt>
      <trkpt lat="43.06489" lon="0.52676">
        <ele>436.4</ele>
        <time>2020-06-30T09:05:37Z</time>
      </trkpt>
      <trkpt lat="43.06491" lon="0.52669">
        <ele>436.4</ele>
        <time>2020-06-30T09:05:38Z</time>
      </trkpt>
      <trkpt lat="43.06491" lon="0.52661">
        <ele>436.2</ele>
        <time>2020-06-30T09:05:39Z</time>
      </trkpt>
      <trkpt lat="43.06492" lon="0.52653">
        <ele>436.2</ele>
        <time>2020-06-30T09:05:40Z</time>
      </trkpt>
      <trkpt lat="43.06492" lon="0.52643">
        <ele>436</ele>
        <time>2020-06-30T09:05:41Z</time>
      </trkpt>
      <trkpt lat="43.06491" lon="0.52635">
        <ele>436</ele>
        <time>2020-06-30T09:05:42Z</time>
      </trkpt>
      <trkpt lat="43.06492" lon="0.52627">
        <ele>435.8</ele>
        <time>2020-06-30T09:05:43Z</time>
      </trkpt>
      <trkpt lat="43.06492" lon="0.52621">
        <ele>435.6</ele>
        <time>2020-06-30T09:05:44Z</time>
      </trkpt>
      <trkpt lat="43.06493" lon="0.52613">
        <ele>435.2</ele>
        <time>2020-06-30T09:05:45Z</time>
      </trkpt>
      <trkpt lat="43.06493" lon="0.52604">
        <ele>435</ele>
        <time>2020-06-30T09:05:46Z</time>
      </trkpt>
      <trkpt lat="43.06492" lon="0.52593">
        <ele>434.8</ele>
        <time>2020-06-30T09:05:47Z</time>
      </trkpt>
      <trkpt lat="43.06493" lon="0.52583">
        <ele>434.6</ele>
        <time>2020-06-30T09:05:48Z</time>
      </trkpt>
      <trkpt lat="43.06493" lon="0.52573">
        <ele>434.2</ele>
        <time>2020-06-30T09:05:49Z</time>
      </trkpt>
      <trkpt lat="43.06492" lon="0.52564">
        <ele>433.8</ele>
        <time>2020-06-30T09:05:50Z</time>
      </trkpt>
      <trkpt lat="43.06493" lon="0.52558">
        <ele>433.6</ele>
        <time>2020-06-30T09:05:51Z</time>
      </trkpt>
      <trkpt lat="43.06493" lon="0.5255">
        <ele>433</ele>
        <time>2020-06-30T09:05:52Z</time>
      </trkpt>
      <trkpt lat="43.06493" lon="0.52542">
        <ele>432.8</ele>
        <time>2020-06-30T09:05:53Z</time>
      </trkpt>
      <trkpt lat="43.06492" lon="0.52533">
        <ele>432.4</ele>
        <time>2020-06-30T09:05:54Z</time>
      </trkpt>
      <trkpt lat="43.06493" lon="0.52524">
        <ele>431.8</ele>
        <time>2020-06-30T09:05:55Z</time>
      </trkpt>
      <trkpt lat="43.06492" lon="0.52509">
        <ele>431.4</ele>
        <time>2020-06-30T09:05:56Z</time>
      </trkpt>
      <trkpt lat="43.06492" lon="0.52496">
        <ele>431</ele>
        <time>2020-06-30T09:05:57Z</time>
      </trkpt>
      <trkpt lat="43.06492" lon="0.52486">
        <ele>430.6</ele>
        <time>2020-06-30T09:05:58Z</time>
      </trkpt>
      <trkpt lat="43.06493" lon="0.52478">
        <ele>430</ele>
        <time>2020-06-30T09:05:59Z</time>
      </trkpt>
      <trkpt lat="43.06491" lon="0.52466">
        <ele>429.6</ele>
        <time>2020-06-30T09:06:00Z</time>
      </trkpt>
      <trkpt lat="43.0649" lon="0.52452">
        <ele>429.4</ele>
        <time>2020-06-30T09:06:01Z</time>
      </trkpt>
      <trkpt lat="43.06488" lon="0.5244">
        <ele>428.8</ele>
        <time>2020-06-30T09:06:02Z</time>
      </trkpt>
      <trkpt lat="43.06487" lon="0.52427">
        <ele>428.4</ele>
        <time>2020-06-30T09:06:03Z</time>
      </trkpt>
      <trkpt lat="43.06483" lon="0.52413">
        <ele>428.2</ele>
        <time>2020-06-30T09:06:04Z</time>
      </trkpt>
      <trkpt lat="43.06479" lon="0.524">
        <ele>427.8</ele>
        <time>2020-06-30T09:06:05Z</time>
      </trkpt>
      <trkpt lat="43.06475" lon="0.52389">
        <ele>427.4</ele>
        <time>2020-06-30T09:06:06Z</time>
      </trkpt>
      <trkpt lat="43.06469" lon="0.52374">
        <ele>427.2</ele>
        <time>2020-06-30T09:06:07Z</time>
      </trkpt>
      <trkpt lat="43.06466" lon="0.5236">
        <ele>426.8</ele>
        <time>2020-06-30T09:06:08Z</time>
      </trkpt>
      <trkpt lat="43.06462" lon="0.52346">
        <ele>426.6</ele>
        <time>2020-06-30T09:06:09Z</time>
      </trkpt>
      <trkpt lat="43.06459" lon="0.52338">
        <ele>426.2</ele>
        <time>2020-06-30T09:06:10Z</time>
      </trkpt>
      <trkpt lat="43.06456" lon="0.52328">
        <ele>426.2</ele>
        <time>2020-06-30T09:06:11Z</time>
      </trkpt>
      <trkpt lat="43.06453" lon="0.52317">
        <ele>426</ele>
        <time>2020-06-30T09:06:12Z</time>
      </trkpt>
      <trkpt lat="43.0645" lon="0.52307">
        <ele>426</ele>
        <time>2020-06-30T09:06:13Z</time>
      </trkpt>
      <trkpt lat="43.06446" lon="0.52294">
        <ele>425.8</ele>
        <time>2020-06-30T09:06:14Z</time>
      </trkpt>
      <trkpt lat="43.06443" lon="0.52283">
        <ele>425.6</ele>
        <time>2020-06-30T09:06:15Z</time>
      </trkpt>
      <trkpt lat="43.06441" lon="0.52272">
        <ele>425.6</ele>
        <time>2020-06-30T09:06:16Z</time>
      </trkpt>
      <trkpt lat="43.06439" lon="0.52263">
        <ele>425.6</ele>
        <time>2020-06-30T09:06:17Z</time>
      </trkpt>
      <trkpt lat="43.06439" lon="0.52252">
        <ele>425.6</ele>
        <time>2020-06-30T09:06:18Z</time>
      </trkpt>
      <trkpt lat="43.0644" lon="0.52244">
        <ele>425.6</ele>
        <time>2020-06-30T09:06:19Z</time>
      </trkpt>
      <trkpt lat="43.06444" lon="0.52234">
        <ele>425.6</ele>
        <time>2020-06-30T09:06:20Z</time>
      </trkpt>
      <trkpt lat="43.06448" lon="0.52228">
        <ele>425.8</ele>
        <time>2020-06-30T09:06:21Z</time>
      </trkpt>
      <trkpt lat="43.06451" lon="0.52223">
        <ele>425.8</ele>
        <time>2020-06-30T09:06:22Z</time>
      </trkpt>
      <trkpt lat="43.06456" lon="0.52219">
        <ele>425.6</ele>
        <time>2020-06-30T09:06:23Z</time>
      </trkpt>
      <trkpt lat="43.06461" lon="0.52213">
        <ele>425.6</ele>
        <time>2020-06-30T09:06:24Z</time>
      </trkpt>
      <trkpt lat="43.06468" lon="0.52211">
        <ele>425.4</ele>
        <time>2020-06-30T09:06:25Z</time>
      </trkpt>
      <trkpt lat="43.06474" lon="0.52207">
        <ele>425.2</ele>
        <time>2020-06-30T09:06:26Z</time>
      </trkpt>
      <trkpt lat="43.0648" lon="0.52201">
        <ele>425</ele>
        <time>2020-06-30T09:06:27Z</time>
      </trkpt>
      <trkpt lat="43.06485" lon="0.52195">
        <ele>424.6</ele>
        <time>2020-06-30T09:06:28Z</time>
      </trkpt>
      <trkpt lat="43.06491" lon="0.5219">
        <ele>424.6</ele>
        <time>2020-06-30T09:06:29Z</time>
      </trkpt>
      <trkpt lat="43.06498" lon="0.52187">
        <ele>424.4</ele>
        <time>2020-06-30T09:06:30Z</time>
      </trkpt>
      <trkpt lat="43.06503" lon="0.52183">
        <ele>424.2</ele>
        <time>2020-06-30T09:06:31Z</time>
      </trkpt>
      <trkpt lat="43.06509" lon="0.52177">
        <ele>424</ele>
        <time>2020-06-30T09:06:32Z</time>
      </trkpt>
      <trkpt lat="43.06516" lon="0.52174">
        <ele>424</ele>
        <time>2020-06-30T09:06:33Z</time>
      </trkpt>
      <trkpt lat="43.06522" lon="0.52171">
        <ele>423.8</ele>
        <time>2020-06-30T09:06:34Z</time>
      </trkpt>
      <trkpt lat="43.06529" lon="0.52169">
        <ele>423.6</ele>
        <time>2020-06-30T09:06:35Z</time>
      </trkpt>
      <trkpt lat="43.06535" lon="0.52168">
        <ele>423.6</ele>
        <time>2020-06-30T09:06:36Z</time>
      </trkpt>
      <trkpt lat="43.06542" lon="0.52167">
        <ele>423.6</ele>
        <time>2020-06-30T09:06:37Z</time>
      </trkpt>
      <trkpt lat="43.06548" lon="0.52164">
        <ele>423.4</ele>
        <time>2020-06-30T09:06:38Z</time>
      </trkpt>
      <trkpt lat="43.06554" lon="0.5216">
        <ele>423.4</ele>
        <time>2020-06-30T09:06:39Z</time>
      </trkpt>
      <trkpt lat="43.06558" lon="0.52158">
        <ele>423.4</ele>
        <time>2020-06-30T09:06:40Z</time>
      </trkpt>
      <trkpt lat="43.06564" lon="0.52157">
        <ele>423.4</ele>
        <time>2020-06-30T09:06:41Z</time>
      </trkpt>
      <trkpt lat="43.0657" lon="0.52153">
        <ele>423.4</ele>
        <time>2020-06-30T09:06:42Z</time>
      </trkpt>
      <trkpt lat="43.06576" lon="0.52151">
        <ele>423.4</ele>
        <time>2020-06-30T09:06:43Z</time>
      </trkpt>
      <trkpt lat="43.06581" lon="0.52147">
        <ele>423.4</ele>
        <time>2020-06-30T09:06:44Z</time>
      </trkpt>
      <trkpt lat="43.06586" lon="0.52144">
        <ele>423.4</ele>
        <time>2020-06-30T09:06:45Z</time>
      </trkpt>
      <trkpt lat="43.06593" lon="0.52141">
        <ele>423.4</ele>
        <time>2020-06-30T09:06:46Z</time>
      </trkpt>
      <trkpt lat="43.06599" lon="0.52138">
        <ele>423.4</ele>
        <time>2020-06-30T09:06:47Z</time>
      </trkpt>
      <trkpt lat="43.06606" lon="0.52135">
        <ele>423.4</ele>
        <time>2020-06-30T09:06:48Z</time>
      </trkpt>
      <trkpt lat="43.06611" lon="0.52133">
        <ele>423.2</ele>
        <time>2020-06-30T09:06:49Z</time>
      </trkpt>
      <trkpt lat="43.06616" lon="0.52128">
        <ele>423</ele>
        <time>2020-06-30T09:06:50Z</time>
      </trkpt>
      <trkpt lat="43.06622" lon="0.52123">
        <ele>423</ele>
        <time>2020-06-30T09:06:51Z</time>
      </trkpt>
      <trkpt lat="43.06626" lon="0.52122">
        <ele>423</ele>
        <time>2020-06-30T09:06:52Z</time>
      </trkpt>
      <trkpt lat="43.06633" lon="0.52117">
        <ele>423.2</ele>
        <time>2020-06-30T09:06:53Z</time>
      </trkpt>
      <trkpt lat="43.06638" lon="0.52114">
        <ele>423.2</ele>
        <time>2020-06-30T09:06:54Z</time>
      </trkpt>
      <trkpt lat="43.06644" lon="0.52109">
        <ele>423.2</ele>
        <time>2020-06-30T09:06:55Z</time>
      </trkpt>
      <trkpt lat="43.06648" lon="0.52107">
        <ele>423.2</ele>
        <time>2020-06-30T09:06:56Z</time>
      </trkpt>
      <trkpt lat="43.06652" lon="0.52103">
        <ele>423</ele>
        <time>2020-06-30T09:06:57Z</time>
      </trkpt>
      <trkpt lat="43.06658" lon="0.521">
        <ele>423</ele>
        <time>2020-06-30T09:06:58Z</time>
      </trkpt>
      <trkpt lat="43.06665" lon="0.52099">
        <ele>423</ele>
        <time>2020-06-30T09:06:59Z</time>
      </trkpt>
      <trkpt lat="43.0667" lon="0.52097">
        <ele>423</ele>
        <time>2020-06-30T09:07:00Z</time>
      </trkpt>
      <trkpt lat="43.06676" lon="0.52095">
        <ele>423.2</ele>
        <time>2020-06-30T09:07:01Z</time>
      </trkpt>
      <trkpt lat="43.0668" lon="0.52092">
        <ele>423</ele>
        <time>2020-06-30T09:07:02Z</time>
      </trkpt>
      <trkpt lat="43.06683" lon="0.52092">
        <ele>423</ele>
        <time>2020-06-30T09:07:03Z</time>
      </trkpt>
      <trkpt lat="43.06688" lon="0.52091">
        <ele>423</ele>
        <time>2020-06-30T09:07:04Z</time>
      </trkpt>
      <trkpt lat="43.06692" lon="0.52092">
        <ele>423.2</ele>
        <time>2020-06-30T09:07:05Z</time>
      </trkpt>
      <trkpt lat="43.06696" lon="0.52093">
        <ele>423.2</ele>
        <time>2020-06-30T09:07:06Z</time>
      </trkpt>
      <trkpt lat="43.067" lon="0.52093">
        <ele>423.2</ele>
        <time>2020-06-30T09:07:07Z</time>
      </trkpt>
      <trkpt lat="43.06704" lon="0.52095">
        <ele>423.4</ele>
        <time>2020-06-30T09:07:08Z</time>
      </trkpt>
      <trkpt lat="43.06708" lon="0.52097">
        <ele>423.4</ele>
        <time>2020-06-30T09:07:09Z</time>
      </trkpt>
      <trkpt lat="43.0671" lon="0.52098">
        <ele>423.2</ele>
        <time>2020-06-30T09:07:10Z</time>
      </trkpt>
      <trkpt lat="43.06715" lon="0.52099">
        <ele>423.2</ele>
        <time>2020-06-30T09:07:11Z</time>
      </trkpt>
      <trkpt lat="43.0672" lon="0.52099">
        <ele>423.2</ele>
        <time>2020-06-30T09:07:12Z</time>
      </trkpt>
      <trkpt lat="43.06725" lon="0.521">
        <ele>423.2</ele>
        <time>2020-06-30T09:07:13Z</time>
      </trkpt>
      <trkpt lat="43.0673" lon="0.52101">
        <ele>423.2</ele>
        <time>2020-06-30T09:07:14Z</time>
      </trkpt>
      <trkpt lat="43.06734" lon="0.52102">
        <ele>423.4</ele>
        <time>2020-06-30T09:07:15Z</time>
      </trkpt>
      <trkpt lat="43.06742" lon="0.52105">
        <ele>423.4</ele>
        <time>2020-06-30T09:07:16Z</time>
      </trkpt>
      <trkpt lat="43.06744" lon="0.52105">
        <ele>423.4</ele>
        <time>2020-06-30T09:07:17Z</time>
      </trkpt>
      <trkpt lat="43.06749" lon="0.52106">
        <ele>423.6</ele>
        <time>2020-06-30T09:07:18Z</time>
      </trkpt>
      <trkpt lat="43.06755" lon="0.52107">
        <ele>423.8</ele>
        <time>2020-06-30T09:07:19Z</time>
      </trkpt>
      <trkpt lat="43.06757" lon="0.52108">
        <ele>423.8</ele>
        <time>2020-06-30T09:07:20Z</time>
      </trkpt>
      <trkpt lat="43.06757" lon="0.52112">
        <ele>424</ele>
        <time>2020-06-30T09:07:21Z</time>
      </trkpt>
      <trkpt lat="43.06759" lon="0.52115">
        <ele>424.2</ele>
        <time>2020-06-30T09:07:22Z</time>
      </trkpt>
      <trkpt lat="43.0676" lon="0.5212">
        <ele>424.2</ele>
        <time>2020-06-30T09:07:23Z</time>
      </trkpt>
      <trkpt lat="43.06762" lon="0.52123">
        <ele>424.4</ele>
        <time>2020-06-30T09:07:24Z</time>
      </trkpt>
      <trkpt lat="43.06762" lon="0.52126">
        <ele>424.4</ele>
        <time>2020-06-30T09:07:25Z</time>
      </trkpt>
      <trkpt lat="43.06764" lon="0.5213">
        <ele>424.6</ele>
        <time>2020-06-30T09:07:26Z</time>
      </trkpt>
      <trkpt lat="43.06767" lon="0.52131">
        <ele>424.8</ele>
        <time>2020-06-30T09:07:27Z</time>
      </trkpt>
      <trkpt lat="43.06769" lon="0.52133">
        <ele>424.8</ele>
        <time>2020-06-30T09:07:28Z</time>
      </trkpt>
      <trkpt lat="43.0677" lon="0.52135">
        <ele>425</ele>
        <time>2020-06-30T09:07:29Z</time>
      </trkpt>
      <trkpt lat="43.06774" lon="0.52136">
        <ele>425</ele>
        <time>2020-06-30T09:07:30Z</time>
      </trkpt>
      <trkpt lat="43.06776" lon="0.52138">
        <ele>425.2</ele>
        <time>2020-06-30T09:07:31Z</time>
      </trkpt>
      <trkpt lat="43.06778" lon="0.52141">
        <ele>425.2</ele>
        <time>2020-06-30T09:07:32Z</time>
      </trkpt>
      <trkpt lat="43.06779" lon="0.52143">
        <ele>425.4</ele>
        <time>2020-06-30T09:07:33Z</time>
      </trkpt>
      <trkpt lat="43.0678" lon="0.52145">
        <ele>425.4</ele>
        <time>2020-06-30T09:07:34Z</time>
      </trkpt>
      <trkpt lat="43.06784" lon="0.52147">
        <ele>425.4</ele>
        <time>2020-06-30T09:07:35Z</time>
      </trkpt>
      <trkpt lat="43.06787" lon="0.52148">
        <ele>425.6</ele>
        <time>2020-06-30T09:07:36Z</time>
      </trkpt>
      <trkpt lat="43.0679" lon="0.52147">
        <ele>425.6</ele>
        <time>2020-06-30T09:07:37Z</time>
      </trkpt>
      <trkpt lat="43.06792" lon="0.52147">
        <ele>425.8</ele>
        <time>2020-06-30T09:07:38Z</time>
      </trkpt>
      <trkpt lat="43.06795" lon="0.5215">
        <ele>425.8</ele>
        <time>2020-06-30T09:07:39Z</time>
      </trkpt>
      <trkpt lat="43.06798" lon="0.52151">
        <ele>426</ele>
        <time>2020-06-30T09:07:40Z</time>
      </trkpt>
      <trkpt lat="43.06802" lon="0.52151">
        <ele>426</ele>
        <time>2020-06-30T09:07:41Z</time>
      </trkpt>
      <trkpt lat="43.06803" lon="0.52152">
        <ele>425.8</ele>
        <time>2020-06-30T09:07:42Z</time>
      </trkpt>
      <trkpt lat="43.06804" lon="0.52151">
        <ele>425.8</ele>
        <time>2020-06-30T09:07:43Z</time>
      </trkpt>
      <trkpt lat="43.06807" lon="0.5215">
        <ele>425.8</ele>
        <time>2020-06-30T09:07:44Z</time>
      </trkpt>
      <trkpt lat="43.06811" lon="0.52149">
        <ele>425.8</ele>
        <time>2020-06-30T09:07:45Z</time>
      </trkpt>
      <trkpt lat="43.06815" lon="0.52147">
        <ele>426</ele>
        <time>2020-06-30T09:07:46Z</time>
      </trkpt>
      <trkpt lat="43.06818" lon="0.52145">
        <ele>426</ele>
        <time>2020-06-30T09:07:47Z</time>
      </trkpt>
      <trkpt lat="43.0682" lon="0.52144">
        <ele>426.2</ele>
        <time>2020-06-30T09:07:48Z</time>
      </trkpt>
      <trkpt lat="43.06823" lon="0.52141">
        <ele>426.2</ele>
        <time>2020-06-30T09:07:49Z</time>
      </trkpt>
      <trkpt lat="43.06825" lon="0.52139">
        <ele>426.2</ele>
        <time>2020-06-30T09:07:50Z</time>
      </trkpt>
      <trkpt lat="43.06828" lon="0.52136">
        <ele>426.4</ele>
        <time>2020-06-30T09:07:51Z</time>
      </trkpt>
      <trkpt lat="43.0683" lon="0.52133">
        <ele>426.4</ele>
        <time>2020-06-30T09:07:52Z</time>
      </trkpt>
      <trkpt lat="43.06833" lon="0.5213">
        <ele>426.4</ele>
        <time>2020-06-30T09:07:53Z</time>
      </trkpt>
      <trkpt lat="43.06835" lon="0.52128">
        <ele>426.4</ele>
        <time>2020-06-30T09:07:54Z</time>
      </trkpt>
      <trkpt lat="43.06837" lon="0.52124">
        <ele>426.4</ele>
        <time>2020-06-30T09:07:55Z</time>
      </trkpt>
      <trkpt lat="43.0684" lon="0.52121">
        <ele>426.4</ele>
        <time>2020-06-30T09:07:56Z</time>
      </trkpt>
      <trkpt lat="43.06842" lon="0.52118">
        <ele>426.4</ele>
        <time>2020-06-30T09:07:57Z</time>
      </trkpt>
      <trkpt lat="43.06844" lon="0.52114">
        <ele>426.4</ele>
        <time>2020-06-30T09:07:58Z</time>
      </trkpt>
      <trkpt lat="43.06846" lon="0.5211">
        <ele>426.4</ele>
        <time>2020-06-30T09:07:59Z</time>
      </trkpt>
      <trkpt lat="43.06849" lon="0.52107">
        <ele>426.4</ele>
        <time>2020-06-30T09:08:00Z</time>
      </trkpt>
      <trkpt lat="43.06851" lon="0.52103">
        <ele>426.4</ele>
        <time>2020-06-30T09:08:01Z</time>
      </trkpt>
      <trkpt lat="43.06853" lon="0.52099">
        <ele>426.6</ele>
        <time>2020-06-30T09:08:02Z</time>
      </trkpt>
      <trkpt lat="43.06855" lon="0.52096">
        <ele>426.6</ele>
        <time>2020-06-30T09:08:03Z</time>
      </trkpt>
      <trkpt lat="43.06857" lon="0.52091">
        <ele>426.6</ele>
        <time>2020-06-30T09:08:04Z</time>
      </trkpt>
      <trkpt lat="43.06859" lon="0.52086">
        <ele>426.6</ele>
        <time>2020-06-30T09:08:05Z</time>
      </trkpt>
      <trkpt lat="43.06862" lon="0.52081">
        <ele>426.6</ele>
        <time>2020-06-30T09:08:06Z</time>
      </trkpt>
      <trkpt lat="43.06864" lon="0.52077">
        <ele>426.8</ele>
        <time>2020-06-30T09:08:07Z</time>
      </trkpt>
      <trkpt lat="43.06865" lon="0.52073">
        <ele>426.8</ele>
        <time>2020-06-30T09:08:08Z</time>
      </trkpt>
      <trkpt lat="43.06868" lon="0.52068">
        <ele>426.8</ele>
        <time>2020-06-30T09:08:09Z</time>
      </trkpt>
      <trkpt lat="43.06869" lon="0.52063">
        <ele>426.8</ele>
        <time>2020-06-30T09:08:10Z</time>
      </trkpt>
      <trkpt lat="43.06871" lon="0.52059">
        <ele>427</ele>
        <time>2020-06-30T09:08:11Z</time>
      </trkpt>
      <trkpt lat="43.06873" lon="0.52054">
        <ele>427</ele>
        <time>2020-06-30T09:08:12Z</time>
      </trkpt>
      <trkpt lat="43.06874" lon="0.52049">
        <ele>427</ele>
        <time>2020-06-30T09:08:13Z</time>
      </trkpt>
      <trkpt lat="43.06875" lon="0.52045">
        <ele>427</ele>
        <time>2020-06-30T09:08:14Z</time>
      </trkpt>
      <trkpt lat="43.06876" lon="0.5204">
        <ele>427.2</ele>
        <time>2020-06-30T09:08:15Z</time>
      </trkpt>
      <trkpt lat="43.06877" lon="0.52036">
        <ele>427.2</ele>
        <time>2020-06-30T09:08:16Z</time>
      </trkpt>
      <trkpt lat="43.06878" lon="0.52031">
        <ele>427.2</ele>
        <time>2020-06-30T09:08:17Z</time>
      </trkpt>
      <trkpt lat="43.06879" lon="0.52025">
        <ele>427.2</ele>
        <time>2020-06-30T09:08:18Z</time>
      </trkpt>
      <trkpt lat="43.06879" lon="0.52021">
        <ele>427.2</ele>
        <time>2020-06-30T09:08:19Z</time>
      </trkpt>
      <trkpt lat="43.06878" lon="0.52016">
        <ele>427.2</ele>
        <time>2020-06-30T09:08:20Z</time>
      </trkpt>
      <trkpt lat="43.06878" lon="0.52011">
        <ele>427.2</ele>
        <time>2020-06-30T09:08:21Z</time>
      </trkpt>
      <trkpt lat="43.06878" lon="0.52007">
        <ele>427.4</ele>
        <time>2020-06-30T09:08:22Z</time>
      </trkpt>
      <trkpt lat="43.06877" lon="0.52004">
        <ele>427.4</ele>
        <time>2020-06-30T09:08:23Z</time>
      </trkpt>
      <trkpt lat="43.06875" lon="0.52001">
        <ele>427.4</ele>
        <time>2020-06-30T09:08:24Z</time>
      </trkpt>
      <trkpt lat="43.06874" lon="0.52">
        <ele>427.6</ele>
        <time>2020-06-30T09:08:25Z</time>
      </trkpt>
      <trkpt lat="43.06872" lon="0.51999">
        <ele>427.6</ele>
        <time>2020-06-30T09:08:26Z</time>
      </trkpt>
      <trkpt lat="43.0687" lon="0.51999">
        <ele>427.8</ele>
        <time>2020-06-30T09:08:27Z</time>
      </trkpt>
      <trkpt lat="43.0687" lon="0.51998">
        <ele>427.8</ele>
        <time>2020-06-30T09:08:28Z</time>
      </trkpt>
      <trkpt lat="43.06868" lon="0.51996">
        <ele>428</ele>
        <time>2020-06-30T09:08:29Z</time>
      </trkpt>
      <trkpt lat="43.06863" lon="0.51993">
        <ele>428</ele>
        <time>2020-06-30T09:08:30Z</time>
      </trkpt>
      <trkpt lat="43.06868" lon="0.51993">
        <ele>428.2</ele>
        <time>2020-06-30T09:08:31Z</time>
      </trkpt>
      <trkpt lat="43.06865" lon="0.51992">
        <ele>428.2</ele>
        <time>2020-06-30T09:08:32Z</time>
      </trkpt>
      <trkpt lat="43.06863" lon="0.5199">
        <ele>428.4</ele>
        <time>2020-06-30T09:08:33Z</time>
      </trkpt>
      <trkpt lat="43.06862" lon="0.51989">
        <ele>428.6</ele>
        <time>2020-06-30T09:08:34Z</time>
      </trkpt>
      <trkpt lat="43.0686" lon="0.51987">
        <ele>428.8</ele>
        <time>2020-06-30T09:08:35Z</time>
      </trkpt>
      <trkpt lat="43.06859" lon="0.51986">
        <ele>429</ele>
        <time>2020-06-30T09:08:36Z</time>
      </trkpt>
      <trkpt lat="43.06858" lon="0.51984">
        <ele>429</ele>
        <time>2020-06-30T09:08:37Z</time>
      </trkpt>
      <trkpt lat="43.06852" lon="0.51982">
        <ele>429.2</ele>
        <time>2020-06-30T09:08:38Z</time>
      </trkpt>
      <trkpt lat="43.06854" lon="0.51983">
        <ele>429.4</ele>
        <time>2020-06-30T09:08:39Z</time>
      </trkpt>
      <trkpt lat="43.06853" lon="0.51982">
        <ele>429.6</ele>
        <time>2020-06-30T09:08:40Z</time>
      </trkpt>
      <trkpt lat="43.0685" lon="0.5198">
        <ele>429.8</ele>
        <time>2020-06-30T09:08:41Z</time>
      </trkpt>
      <trkpt lat="43.06847" lon="0.5198">
        <ele>430</ele>
        <time>2020-06-30T09:08:42Z</time>
      </trkpt>
      <trkpt lat="43.06846" lon="0.51979">
        <ele>430</ele>
        <time>2020-06-30T09:08:43Z</time>
      </trkpt>
      <trkpt lat="43.06845" lon="0.51977">
        <ele>430.2</ele>
        <time>2020-06-30T09:08:44Z</time>
      </trkpt>
      <trkpt lat="43.06844" lon="0.51976">
        <ele>430.2</ele>
        <time>2020-06-30T09:08:45Z</time>
      </trkpt>
      <trkpt lat="43.06842" lon="0.51975">
        <ele>430.4</ele>
        <time>2020-06-30T09:08:46Z</time>
      </trkpt>
      <trkpt lat="43.0684" lon="0.51973">
        <ele>430.6</ele>
        <time>2020-06-30T09:08:47Z</time>
      </trkpt>
      <trkpt lat="43.06843" lon="0.51972">
        <ele>430.6</ele>
        <time>2020-06-30T09:08:48Z</time>
      </trkpt>
      <trkpt lat="43.06835" lon="0.51971">
        <ele>430.8</ele>
        <time>2020-06-30T09:08:49Z</time>
      </trkpt>
      <trkpt lat="43.06837" lon="0.51971">
        <ele>431</ele>
        <time>2020-06-30T09:08:50Z</time>
      </trkpt>
      <trkpt lat="43.06839" lon="0.5197">
        <ele>431.2</ele>
        <time>2020-06-30T09:08:51Z</time>
      </trkpt>
      <trkpt lat="43.06839" lon="0.5197">
        <ele>431.4</ele>
        <time>2020-06-30T09:08:52Z</time>
      </trkpt>
      <trkpt lat="43.06838" lon="0.51969">
        <ele>431.6</ele>
        <time>2020-06-30T09:08:53Z</time>
      </trkpt>
      <trkpt lat="43.06835" lon="0.51968">
        <ele>431.8</ele>
        <time>2020-06-30T09:08:54Z</time>
      </trkpt>
      <trkpt lat="43.06833" lon="0.51967">
        <ele>432</ele>
        <time>2020-06-30T09:08:55Z</time>
      </trkpt>
      <trkpt lat="43.06831" lon="0.51967">
        <ele>432</ele>
        <time>2020-06-30T09:08:56Z</time>
      </trkpt>
      <trkpt lat="43.06827" lon="0.51965">
        <ele>432.2</ele>
        <time>2020-06-30T09:08:57Z</time>
      </trkpt>
      <trkpt lat="43.06826" lon="0.51964">
        <ele>432.2</ele>
        <time>2020-06-30T09:08:58Z</time>
      </trkpt>
      <trkpt lat="43.06824" lon="0.51963">
        <ele>432.4</ele>
        <time>2020-06-30T09:08:59Z</time>
      </trkpt>
      <trkpt lat="43.06824" lon="0.51964">
        <ele>432.6</ele>
        <time>2020-06-30T09:09:00Z</time>
      </trkpt>
      <trkpt lat="43.06823" lon="0.51963">
        <ele>432.6</ele>
        <time>2020-06-30T09:09:01Z</time>
      </trkpt>
      <trkpt lat="43.06818" lon="0.51963">
        <ele>432.8</ele>
        <time>2020-06-30T09:09:02Z</time>
      </trkpt>
      <trkpt lat="43.0682" lon="0.51963">
        <ele>432.8</ele>
        <time>2020-06-30T09:09:03Z</time>
      </trkpt>
      <trkpt lat="43.06818" lon="0.51963">
        <ele>433</ele>
        <time>2020-06-30T09:09:04Z</time>
      </trkpt>
      <trkpt lat="43.06817" lon="0.51962">
        <ele>433.2</ele>
        <time>2020-06-30T09:09:05Z</time>
      </trkpt>
      <trkpt lat="43.06815" lon="0.51961">
        <ele>433.2</ele>
        <time>2020-06-30T09:09:06Z</time>
      </trkpt>
      <trkpt lat="43.06813" lon="0.51962">
        <ele>433.2</ele>
        <time>2020-06-30T09:09:07Z</time>
      </trkpt>
      <trkpt lat="43.06811" lon="0.5196">
        <ele>433.4</ele>
        <time>2020-06-30T09:09:08Z</time>
      </trkpt>
      <trkpt lat="43.06809" lon="0.5196">
        <ele>433.4</ele>
        <time>2020-06-30T09:09:09Z</time>
      </trkpt>
      <trkpt lat="43.06808" lon="0.51959">
        <ele>433.4</ele>
        <time>2020-06-30T09:09:10Z</time>
      </trkpt>
      <trkpt lat="43.06806" lon="0.51959">
        <ele>433.6</ele>
        <time>2020-06-30T09:09:11Z</time>
      </trkpt>
      <trkpt lat="43.06804" lon="0.51957">
        <ele>433.6</ele>
        <time>2020-06-30T09:09:12Z</time>
      </trkpt>
      <trkpt lat="43.06801" lon="0.51957">
        <ele>433.6</ele>
        <time>2020-06-30T09:09:13Z</time>
      </trkpt>
      <trkpt lat="43.06799" lon="0.51957">
        <ele>433.8</ele>
        <time>2020-06-30T09:09:14Z</time>
      </trkpt>
      <trkpt lat="43.06797" lon="0.51956">
        <ele>433.8</ele>
        <time>2020-06-30T09:09:15Z</time>
      </trkpt>
      <trkpt lat="43.06795" lon="0.51956">
        <ele>433.8</ele>
        <time>2020-06-30T09:09:16Z</time>
      </trkpt>
      <trkpt lat="43.06793" lon="0.51954">
        <ele>433.8</ele>
        <time>2020-06-30T09:09:17Z</time>
      </trkpt>
      <trkpt lat="43.06791" lon="0.51954">
        <ele>433.8</ele>
        <time>2020-06-30T09:09:18Z</time>
      </trkpt>
      <trkpt lat="43.06789" lon="0.51953">
        <ele>433.8</ele>
        <time>2020-06-30T09:09:19Z</time>
      </trkpt>
      <trkpt lat="43.06787" lon="0.51952">
        <ele>434</ele>
        <time>2020-06-30T09:09:20Z</time>
      </trkpt>
      <trkpt lat="43.06785" lon="0.5195">
        <ele>434.4</ele>
        <time>2020-06-30T09:09:21Z</time>
      </trkpt>
      <trkpt lat="43.06783" lon="0.51949">
        <ele>434.4</ele>
        <time>2020-06-30T09:09:22Z</time>
      </trkpt>
      <trkpt lat="43.06781" lon="0.51947">
        <ele>434.2</ele>
        <time>2020-06-30T09:09:23Z</time>
      </trkpt>
      <trkpt lat="43.06777" lon="0.51947">
        <ele>434</ele>
        <time>2020-06-30T09:09:24Z</time>
      </trkpt>
      <trkpt lat="43.06775" lon="0.51946">
        <ele>434</ele>
        <time>2020-06-30T09:09:25Z</time>
      </trkpt>
      <trkpt lat="43.06772" lon="0.51944">
        <ele>434.2</ele>
        <time>2020-06-30T09:09:26Z</time>
      </trkpt>
      <trkpt lat="43.06769" lon="0.51944">
        <ele>434.2</ele>
        <time>2020-06-30T09:09:27Z</time>
      </trkpt>
      <trkpt lat="43.06766" lon="0.51943">
        <ele>434.2</ele>
        <time>2020-06-30T09:09:28Z</time>
      </trkpt>
      <trkpt lat="43.06764" lon="0.51943">
        <ele>434.2</ele>
        <time>2020-06-30T09:09:29Z</time>
      </trkpt>
      <trkpt lat="43.06761" lon="0.51941">
        <ele>434.4</ele>
        <time>2020-06-30T09:09:30Z</time>
      </trkpt>
      <trkpt lat="43.06754" lon="0.51938">
        <ele>434.4</ele>
        <time>2020-06-30T09:09:31Z</time>
      </trkpt>
      <trkpt lat="43.06753" lon="0.51936">
        <ele>434.4</ele>
        <time>2020-06-30T09:09:32Z</time>
      </trkpt>
      <trkpt lat="43.0675" lon="0.51935">
        <ele>434.4</ele>
        <time>2020-06-30T09:09:33Z</time>
      </trkpt>
      <trkpt lat="43.06747" lon="0.51931">
        <ele>434.4</ele>
        <time>2020-06-30T09:09:34Z</time>
      </trkpt>
      <trkpt lat="43.06746" lon="0.5193">
        <ele>434.6</ele>
        <time>2020-06-30T09:09:35Z</time>
      </trkpt>
      <trkpt lat="43.06744" lon="0.51927">
        <ele>434.6</ele>
        <time>2020-06-30T09:09:36Z</time>
      </trkpt>
      <trkpt lat="43.06742" lon="0.51926">
        <ele>434.6</ele>
        <time>2020-06-30T09:09:37Z</time>
      </trkpt>
      <trkpt lat="43.06742" lon="0.51925">
        <ele>434.8</ele>
        <time>2020-06-30T09:09:38Z</time>
      </trkpt>
      <trkpt lat="43.06739" lon="0.51923">
        <ele>434.8</ele>
        <time>2020-06-30T09:09:39Z</time>
      </trkpt>
      <trkpt lat="43.0674" lon="0.51921">
        <ele>434.8</ele>
        <time>2020-06-30T09:09:40Z</time>
      </trkpt>
      <trkpt lat="43.06737" lon="0.51919">
        <ele>434.8</ele>
        <time>2020-06-30T09:09:41Z</time>
      </trkpt>
      <trkpt lat="43.06734" lon="0.51915">
        <ele>434.8</ele>
        <time>2020-06-30T09:09:42Z</time>
      </trkpt>
      <trkpt lat="43.06733" lon="0.51912">
        <ele>435</ele>
        <time>2020-06-30T09:09:43Z</time>
      </trkpt>
      <trkpt lat="43.06731" lon="0.51908">
        <ele>435</ele>
        <time>2020-06-30T09:09:44Z</time>
      </trkpt>
      <trkpt lat="43.0673" lon="0.51904">
        <ele>435</ele>
        <time>2020-06-30T09:09:45Z</time>
      </trkpt>
      <trkpt lat="43.06729" lon="0.519">
        <ele>435</ele>
        <time>2020-06-30T09:09:46Z</time>
      </trkpt>
      <trkpt lat="43.0673" lon="0.51896">
        <ele>435</ele>
        <time>2020-06-30T09:09:47Z</time>
      </trkpt>
      <trkpt lat="43.06729" lon="0.51891">
        <ele>435.2</ele>
        <time>2020-06-30T09:09:48Z</time>
      </trkpt>
      <trkpt lat="43.06729" lon="0.51887">
        <ele>435.2</ele>
        <time>2020-06-30T09:09:49Z</time>
      </trkpt>
      <trkpt lat="43.0673" lon="0.51883">
        <ele>435.4</ele>
        <time>2020-06-30T09:09:50Z</time>
      </trkpt>
      <trkpt lat="43.0673" lon="0.51879">
        <ele>435.4</ele>
        <time>2020-06-30T09:09:51Z</time>
      </trkpt>
      <trkpt lat="43.0673" lon="0.51875">
        <ele>435.6</ele>
        <time>2020-06-30T09:09:52Z</time>
      </trkpt>
      <trkpt lat="43.06731" lon="0.51871">
        <ele>435.6</ele>
        <time>2020-06-30T09:09:53Z</time>
      </trkpt>
      <trkpt lat="43.06731" lon="0.51866">
        <ele>435.6</ele>
        <time>2020-06-30T09:09:54Z</time>
      </trkpt>
      <trkpt lat="43.06731" lon="0.51861">
        <ele>435.6</ele>
        <time>2020-06-30T09:09:55Z</time>
      </trkpt>
      <trkpt lat="43.0673" lon="0.51856">
        <ele>435.6</ele>
        <time>2020-06-30T09:09:56Z</time>
      </trkpt>
      <trkpt lat="43.06731" lon="0.51851">
        <ele>435.6</ele>
        <time>2020-06-30T09:09:57Z</time>
      </trkpt>
      <trkpt lat="43.06731" lon="0.51846">
        <ele>435.8</ele>
        <time>2020-06-30T09:09:58Z</time>
      </trkpt>
      <trkpt lat="43.06731" lon="0.51842">
        <ele>435.8</ele>
        <time>2020-06-30T09:09:59Z</time>
      </trkpt>
      <trkpt lat="43.06731" lon="0.51837">
        <ele>435.8</ele>
        <time>2020-06-30T09:10:00Z</time>
      </trkpt>
      <trkpt lat="43.06732" lon="0.51832">
        <ele>435.8</ele>
        <time>2020-06-30T09:10:01Z</time>
      </trkpt>
      <trkpt lat="43.06732" lon="0.51827">
        <ele>436</ele>
        <time>2020-06-30T09:10:02Z</time>
      </trkpt>
      <trkpt lat="43.06732" lon="0.51822">
        <ele>436</ele>
        <time>2020-06-30T09:10:03Z</time>
      </trkpt>
      <trkpt lat="43.06732" lon="0.51816">
        <ele>436</ele>
        <time>2020-06-30T09:10:04Z</time>
      </trkpt>
      <trkpt lat="43.06732" lon="0.5181">
        <ele>436.2</ele>
        <time>2020-06-30T09:10:05Z</time>
      </trkpt>
      <trkpt lat="43.06731" lon="0.51802">
        <ele>436.2</ele>
        <time>2020-06-30T09:10:06Z</time>
      </trkpt>
      <trkpt lat="43.06731" lon="0.51795">
        <ele>436.2</ele>
        <time>2020-06-30T09:10:07Z</time>
      </trkpt>
      <trkpt lat="43.06731" lon="0.51789">
        <ele>436.2</ele>
        <time>2020-06-30T09:10:08Z</time>
      </trkpt>
      <trkpt lat="43.06731" lon="0.51784">
        <ele>436.2</ele>
        <time>2020-06-30T09:10:09Z</time>
      </trkpt>
      <trkpt lat="43.06731" lon="0.51779">
        <ele>436.2</ele>
        <time>2020-06-30T09:10:10Z</time>
      </trkpt>
      <trkpt lat="43.06733" lon="0.51773">
        <ele>436.2</ele>
        <time>2020-06-30T09:10:11Z</time>
      </trkpt>
      <trkpt lat="43.06733" lon="0.51768">
        <ele>436.4</ele>
        <time>2020-06-30T09:10:12Z</time>
      </trkpt>
      <trkpt lat="43.06734" lon="0.51762">
        <ele>436.4</ele>
        <time>2020-06-30T09:10:13Z</time>
      </trkpt>
      <trkpt lat="43.06735" lon="0.51757">
        <ele>436.2</ele>
        <time>2020-06-30T09:10:14Z</time>
      </trkpt>
      <trkpt lat="43.06737" lon="0.51751">
        <ele>436.4</ele>
        <time>2020-06-30T09:10:15Z</time>
      </trkpt>
      <trkpt lat="43.06738" lon="0.51746">
        <ele>436.4</ele>
        <time>2020-06-30T09:10:16Z</time>
      </trkpt>
      <trkpt lat="43.06738" lon="0.51739">
        <ele>436.4</ele>
        <time>2020-06-30T09:10:17Z</time>
      </trkpt>
      <trkpt lat="43.06739" lon="0.51734">
        <ele>436.6</ele>
        <time>2020-06-30T09:10:18Z</time>
      </trkpt>
      <trkpt lat="43.0674" lon="0.51728">
        <ele>436.6</ele>
        <time>2020-06-30T09:10:19Z</time>
      </trkpt>
      <trkpt lat="43.06741" lon="0.51722">
        <ele>436.6</ele>
        <time>2020-06-30T09:10:20Z</time>
      </trkpt>
      <trkpt lat="43.06742" lon="0.51717">
        <ele>436.6</ele>
        <time>2020-06-30T09:10:21Z</time>
      </trkpt>
      <trkpt lat="43.06743" lon="0.51712">
        <ele>436.6</ele>
        <time>2020-06-30T09:10:22Z</time>
      </trkpt>
      <trkpt lat="43.06743" lon="0.51706">
        <ele>436.6</ele>
        <time>2020-06-30T09:10:23Z</time>
      </trkpt>
      <trkpt lat="43.06744" lon="0.517">
        <ele>436.6</ele>
        <time>2020-06-30T09:10:24Z</time>
      </trkpt>
      <trkpt lat="43.06744" lon="0.51694">
        <ele>436.6</ele>
        <time>2020-06-30T09:10:25Z</time>
      </trkpt>
      <trkpt lat="43.06745" lon="0.51689">
        <ele>436.8</ele>
        <time>2020-06-30T09:10:26Z</time>
      </trkpt>
      <trkpt lat="43.06746" lon="0.51683">
        <ele>436.8</ele>
        <time>2020-06-30T09:10:27Z</time>
      </trkpt>
      <trkpt lat="43.06745" lon="0.51676">
        <ele>436.6</ele>
        <time>2020-06-30T09:10:28Z</time>
      </trkpt>
      <trkpt lat="43.06746" lon="0.51669">
        <ele>436.6</ele>
        <time>2020-06-30T09:10:29Z</time>
      </trkpt>
      <trkpt lat="43.06746" lon="0.51663">
        <ele>436.8</ele>
        <time>2020-06-30T09:10:30Z</time>
      </trkpt>
      <trkpt lat="43.06746" lon="0.51656">
        <ele>436.8</ele>
        <time>2020-06-30T09:10:31Z</time>
      </trkpt>
      <trkpt lat="43.06747" lon="0.5165">
        <ele>436.8</ele>
        <time>2020-06-30T09:10:32Z</time>
      </trkpt>
      <trkpt lat="43.06748" lon="0.51646">
        <ele>436.8</ele>
        <time>2020-06-30T09:10:33Z</time>
      </trkpt>
      <trkpt lat="43.06748" lon="0.5164">
        <ele>436.8</ele>
        <time>2020-06-30T09:10:34Z</time>
      </trkpt>
      <trkpt lat="43.06749" lon="0.51636">
        <ele>436.8</ele>
        <time>2020-06-30T09:10:35Z</time>
      </trkpt>
      <trkpt lat="43.0675" lon="0.5163">
        <ele>436.8</ele>
        <time>2020-06-30T09:10:36Z</time>
      </trkpt>
      <trkpt lat="43.0675" lon="0.51624">
        <ele>436.8</ele>
        <time>2020-06-30T09:10:37Z</time>
      </trkpt>
      <trkpt lat="43.0675" lon="0.51618">
        <ele>437</ele>
        <time>2020-06-30T09:10:38Z</time>
      </trkpt>
      <trkpt lat="43.0675" lon="0.51611">
        <ele>437</ele>
        <time>2020-06-30T09:10:39Z</time>
      </trkpt>
      <trkpt lat="43.0675" lon="0.51604">
        <ele>437</ele>
        <time>2020-06-30T09:10:40Z</time>
      </trkpt>
      <trkpt lat="43.0675" lon="0.51598">
        <ele>437.2</ele>
        <time>2020-06-30T09:10:41Z</time>
      </trkpt>
      <trkpt lat="43.06751" lon="0.51593">
        <ele>437.2</ele>
        <time>2020-06-30T09:10:42Z</time>
      </trkpt>
      <trkpt lat="43.06751" lon="0.51587">
        <ele>437.2</ele>
        <time>2020-06-30T09:10:43Z</time>
      </trkpt>
      <trkpt lat="43.06752" lon="0.51581">
        <ele>437.2</ele>
        <time>2020-06-30T09:10:44Z</time>
      </trkpt>
      <trkpt lat="43.06752" lon="0.51575">
        <ele>437.2</ele>
        <time>2020-06-30T09:10:45Z</time>
      </trkpt>
      <trkpt lat="43.06753" lon="0.5157">
        <ele>437.2</ele>
        <time>2020-06-30T09:10:46Z</time>
      </trkpt>
      <trkpt lat="43.06754" lon="0.51563">
        <ele>437.2</ele>
        <time>2020-06-30T09:10:47Z</time>
      </trkpt>
      <trkpt lat="43.06754" lon="0.51557">
        <ele>437.4</ele>
        <time>2020-06-30T09:10:48Z</time>
      </trkpt>
      <trkpt lat="43.06755" lon="0.51552">
        <ele>437.4</ele>
        <time>2020-06-30T09:10:49Z</time>
      </trkpt>
      <trkpt lat="43.06756" lon="0.51546">
        <ele>437.4</ele>
        <time>2020-06-30T09:10:50Z</time>
      </trkpt>
      <trkpt lat="43.06757" lon="0.5154">
        <ele>437.4</ele>
        <time>2020-06-30T09:10:51Z</time>
      </trkpt>
      <trkpt lat="43.06758" lon="0.51535">
        <ele>437.4</ele>
        <time>2020-06-30T09:10:52Z</time>
      </trkpt>
      <trkpt lat="43.06759" lon="0.51529">
        <ele>437.6</ele>
        <time>2020-06-30T09:10:53Z</time>
      </trkpt>
      <trkpt lat="43.0676" lon="0.51523">
        <ele>437.6</ele>
        <time>2020-06-30T09:10:54Z</time>
      </trkpt>
      <trkpt lat="43.0676" lon="0.51516">
        <ele>437.6</ele>
        <time>2020-06-30T09:10:55Z</time>
      </trkpt>
      <trkpt lat="43.06761" lon="0.5151">
        <ele>437.6</ele>
        <time>2020-06-30T09:10:56Z</time>
      </trkpt>
      <trkpt lat="43.06762" lon="0.51504">
        <ele>437.6</ele>
        <time>2020-06-30T09:10:57Z</time>
      </trkpt>
      <trkpt lat="43.06762" lon="0.51498">
        <ele>437.6</ele>
        <time>2020-06-30T09:10:58Z</time>
      </trkpt>
      <trkpt lat="43.06763" lon="0.51492">
        <ele>437.6</ele>
        <time>2020-06-30T09:10:59Z</time>
      </trkpt>
      <trkpt lat="43.06764" lon="0.51486">
        <ele>437.6</ele>
        <time>2020-06-30T09:11:00Z</time>
      </trkpt>
      <trkpt lat="43.06763" lon="0.51478">
        <ele>437.6</ele>
        <time>2020-06-30T09:11:01Z</time>
      </trkpt>
      <trkpt lat="43.06764" lon="0.51473">
        <ele>437.6</ele>
        <time>2020-06-30T09:11:02Z</time>
      </trkpt>
      <trkpt lat="43.06764" lon="0.51466">
        <ele>437.8</ele>
        <time>2020-06-30T09:11:03Z</time>
      </trkpt>
      <trkpt lat="43.06764" lon="0.5146">
        <ele>437.8</ele>
        <time>2020-06-30T09:11:04Z</time>
      </trkpt>
      <trkpt lat="43.06764" lon="0.51454">
        <ele>437.8</ele>
        <time>2020-06-30T09:11:05Z</time>
      </trkpt>
      <trkpt lat="43.06765" lon="0.51448">
        <ele>437.8</ele>
        <time>2020-06-30T09:11:06Z</time>
      </trkpt>
      <trkpt lat="43.06765" lon="0.51442">
        <ele>437.8</ele>
        <time>2020-06-30T09:11:07Z</time>
      </trkpt>
      <trkpt lat="43.06766" lon="0.51435">
        <ele>437.8</ele>
        <time>2020-06-30T09:11:08Z</time>
      </trkpt>
      <trkpt lat="43.06767" lon="0.5143">
        <ele>438</ele>
        <time>2020-06-30T09:11:09Z</time>
      </trkpt>
      <trkpt lat="43.06767" lon="0.51424">
        <ele>438</ele>
        <time>2020-06-30T09:11:10Z</time>
      </trkpt>
      <trkpt lat="43.06767" lon="0.51419">
        <ele>438</ele>
        <time>2020-06-30T09:11:11Z</time>
      </trkpt>
      <trkpt lat="43.06766" lon="0.51412">
        <ele>438</ele>
        <time>2020-06-30T09:11:12Z</time>
      </trkpt>
      <trkpt lat="43.06766" lon="0.51406">
        <ele>438</ele>
        <time>2020-06-30T09:11:13Z</time>
      </trkpt>
      <trkpt lat="43.06766" lon="0.514">
        <ele>438</ele>
        <time>2020-06-30T09:11:14Z</time>
      </trkpt>
      <trkpt lat="43.06767" lon="0.51394">
        <ele>438</ele>
        <time>2020-06-30T09:11:15Z</time>
      </trkpt>
      <trkpt lat="43.06767" lon="0.51388">
        <ele>438.2</ele>
        <time>2020-06-30T09:11:16Z</time>
      </trkpt>
      <trkpt lat="43.06768" lon="0.51382">
        <ele>438.2</ele>
        <time>2020-06-30T09:11:17Z</time>
      </trkpt>
      <trkpt lat="43.06768" lon="0.51376">
        <ele>438.2</ele>
        <time>2020-06-30T09:11:18Z</time>
      </trkpt>
      <trkpt lat="43.06768" lon="0.51371">
        <ele>438.2</ele>
        <time>2020-06-30T09:11:19Z</time>
      </trkpt>
      <trkpt lat="43.06768" lon="0.51365">
        <ele>438.2</ele>
        <time>2020-06-30T09:11:20Z</time>
      </trkpt>
      <trkpt lat="43.06768" lon="0.51358">
        <ele>438.2</ele>
        <time>2020-06-30T09:11:21Z</time>
      </trkpt>
      <trkpt lat="43.06768" lon="0.51353">
        <ele>438.2</ele>
        <time>2020-06-30T09:11:22Z</time>
      </trkpt>
      <trkpt lat="43.06768" lon="0.51347">
        <ele>438.2</ele>
        <time>2020-06-30T09:11:23Z</time>
      </trkpt>
      <trkpt lat="43.06769" lon="0.5134">
        <ele>438.4</ele>
        <time>2020-06-30T09:11:24Z</time>
      </trkpt>
      <trkpt lat="43.06769" lon="0.51333">
        <ele>438.4</ele>
        <time>2020-06-30T09:11:25Z</time>
      </trkpt>
      <trkpt lat="43.06767" lon="0.51326">
        <ele>438.4</ele>
        <time>2020-06-30T09:11:26Z</time>
      </trkpt>
      <trkpt lat="43.06767" lon="0.51319">
        <ele>438.4</ele>
        <time>2020-06-30T09:11:27Z</time>
      </trkpt>
      <trkpt lat="43.06768" lon="0.51313">
        <ele>438.4</ele>
        <time>2020-06-30T09:11:28Z</time>
      </trkpt>
      <trkpt lat="43.06768" lon="0.51308">
        <ele>438.4</ele>
        <time>2020-06-30T09:11:29Z</time>
      </trkpt>
      <trkpt lat="43.06769" lon="0.51302">
        <ele>438.6</ele>
        <time>2020-06-30T09:11:30Z</time>
      </trkpt>
      <trkpt lat="43.0677" lon="0.51296">
        <ele>438.6</ele>
        <time>2020-06-30T09:11:31Z</time>
      </trkpt>
      <trkpt lat="43.0677" lon="0.51291">
        <ele>438.6</ele>
        <time>2020-06-30T09:11:32Z</time>
      </trkpt>
      <trkpt lat="43.06771" lon="0.51285">
        <ele>438.6</ele>
        <time>2020-06-30T09:11:33Z</time>
      </trkpt>
      <trkpt lat="43.06772" lon="0.5128">
        <ele>438.6</ele>
        <time>2020-06-30T09:11:34Z</time>
      </trkpt>
      <trkpt lat="43.06773" lon="0.51274">
        <ele>438.8</ele>
        <time>2020-06-30T09:11:35Z</time>
      </trkpt>
      <trkpt lat="43.06773" lon="0.51268">
        <ele>438.8</ele>
        <time>2020-06-30T09:11:36Z</time>
      </trkpt>
      <trkpt lat="43.06773" lon="0.51261">
        <ele>438.8</ele>
        <time>2020-06-30T09:11:37Z</time>
      </trkpt>
      <trkpt lat="43.06772" lon="0.51255">
        <ele>438.8</ele>
        <time>2020-06-30T09:11:38Z</time>
      </trkpt>
      <trkpt lat="43.06772" lon="0.51249">
        <ele>438.8</ele>
        <time>2020-06-30T09:11:39Z</time>
      </trkpt>
      <trkpt lat="43.06772" lon="0.51244">
        <ele>438.8</ele>
        <time>2020-06-30T09:11:40Z</time>
      </trkpt>
      <trkpt lat="43.06771" lon="0.51237">
        <ele>438.8</ele>
        <time>2020-06-30T09:11:41Z</time>
      </trkpt>
      <trkpt lat="43.06771" lon="0.5123">
        <ele>438.8</ele>
        <time>2020-06-30T09:11:42Z</time>
      </trkpt>
      <trkpt lat="43.06771" lon="0.51223">
        <ele>438.8</ele>
        <time>2020-06-30T09:11:43Z</time>
      </trkpt>
      <trkpt lat="43.0677" lon="0.51217">
        <ele>438.8</ele>
        <time>2020-06-30T09:11:44Z</time>
      </trkpt>
      <trkpt lat="43.06768" lon="0.51211">
        <ele>438.8</ele>
        <time>2020-06-30T09:11:45Z</time>
      </trkpt>
      <trkpt lat="43.06767" lon="0.51205">
        <ele>438.8</ele>
        <time>2020-06-30T09:11:46Z</time>
      </trkpt>
      <trkpt lat="43.06766" lon="0.51199">
        <ele>439</ele>
        <time>2020-06-30T09:11:47Z</time>
      </trkpt>
      <trkpt lat="43.06764" lon="0.51192">
        <ele>439</ele>
        <time>2020-06-30T09:11:48Z</time>
      </trkpt>
      <trkpt lat="43.06762" lon="0.51186">
        <ele>439</ele>
        <time>2020-06-30T09:11:49Z</time>
      </trkpt>
      <trkpt lat="43.06761" lon="0.51181">
        <ele>439</ele>
        <time>2020-06-30T09:11:50Z</time>
      </trkpt>
      <trkpt lat="43.06758" lon="0.51175">
        <ele>439</ele>
        <time>2020-06-30T09:11:51Z</time>
      </trkpt>
      <trkpt lat="43.06755" lon="0.51169">
        <ele>439</ele>
        <time>2020-06-30T09:11:52Z</time>
      </trkpt>
      <trkpt lat="43.06754" lon="0.51163">
        <ele>439</ele>
        <time>2020-06-30T09:11:53Z</time>
      </trkpt>
      <trkpt lat="43.0675" lon="0.51156">
        <ele>439.2</ele>
        <time>2020-06-30T09:11:54Z</time>
      </trkpt>
      <trkpt lat="43.06746" lon="0.51149">
        <ele>439.2</ele>
        <time>2020-06-30T09:11:55Z</time>
      </trkpt>
      <trkpt lat="43.06744" lon="0.51143">
        <ele>439.2</ele>
        <time>2020-06-30T09:11:56Z</time>
      </trkpt>
      <trkpt lat="43.06743" lon="0.51136">
        <ele>439</ele>
        <time>2020-06-30T09:11:57Z</time>
      </trkpt>
      <trkpt lat="43.06742" lon="0.5113">
        <ele>439</ele>
        <time>2020-06-30T09:11:58Z</time>
      </trkpt>
      <trkpt lat="43.06739" lon="0.51124">
        <ele>439</ele>
        <time>2020-06-30T09:11:59Z</time>
      </trkpt>
      <trkpt lat="43.06738" lon="0.51117">
        <ele>439</ele>
        <time>2020-06-30T09:12:00Z</time>
      </trkpt>
      <trkpt lat="43.06736" lon="0.51111">
        <ele>439</ele>
        <time>2020-06-30T09:12:01Z</time>
      </trkpt>
      <trkpt lat="43.06735" lon="0.51105">
        <ele>439.2</ele>
        <time>2020-06-30T09:12:02Z</time>
      </trkpt>
      <trkpt lat="43.06733" lon="0.51099">
        <ele>439.2</ele>
        <time>2020-06-30T09:12:03Z</time>
      </trkpt>
      <trkpt lat="43.06731" lon="0.51093">
        <ele>439.2</ele>
        <time>2020-06-30T09:12:04Z</time>
      </trkpt>
      <trkpt lat="43.0673" lon="0.51086">
        <ele>439.2</ele>
        <time>2020-06-30T09:12:05Z</time>
      </trkpt>
      <trkpt lat="43.06729" lon="0.5108">
        <ele>439.4</ele>
        <time>2020-06-30T09:12:06Z</time>
      </trkpt>
      <trkpt lat="43.06729" lon="0.51073">
        <ele>439.4</ele>
        <time>2020-06-30T09:12:07Z</time>
      </trkpt>
      <trkpt lat="43.06727" lon="0.51065">
        <ele>439.4</ele>
        <time>2020-06-30T09:12:08Z</time>
      </trkpt>
      <trkpt lat="43.06726" lon="0.51059">
        <ele>439.6</ele>
        <time>2020-06-30T09:12:09Z</time>
      </trkpt>
      <trkpt lat="43.06725" lon="0.51053">
        <ele>439.6</ele>
        <time>2020-06-30T09:12:10Z</time>
      </trkpt>
      <trkpt lat="43.06725" lon="0.51048">
        <ele>439.6</ele>
        <time>2020-06-30T09:12:11Z</time>
      </trkpt>
      <trkpt lat="43.06724" lon="0.51042">
        <ele>439.6</ele>
        <time>2020-06-30T09:12:12Z</time>
      </trkpt>
      <trkpt lat="43.06723" lon="0.51037">
        <ele>439.6</ele>
        <time>2020-06-30T09:12:13Z</time>
      </trkpt>
      <trkpt lat="43.06723" lon="0.51032">
        <ele>439.8</ele>
        <time>2020-06-30T09:12:14Z</time>
      </trkpt>
      <trkpt lat="43.06723" lon="0.51025">
        <ele>439.8</ele>
        <time>2020-06-30T09:12:15Z</time>
      </trkpt>
      <trkpt lat="43.06722" lon="0.51019">
        <ele>439.8</ele>
        <time>2020-06-30T09:12:16Z</time>
      </trkpt>
      <trkpt lat="43.06722" lon="0.51013">
        <ele>439.8</ele>
        <time>2020-06-30T09:12:17Z</time>
      </trkpt>
      <trkpt lat="43.06723" lon="0.51007">
        <ele>439.8</ele>
        <time>2020-06-30T09:12:18Z</time>
      </trkpt>
      <trkpt lat="43.06724" lon="0.51001">
        <ele>439.8</ele>
        <time>2020-06-30T09:12:19Z</time>
      </trkpt>
      <trkpt lat="43.06723" lon="0.50995">
        <ele>439.8</ele>
        <time>2020-06-30T09:12:20Z</time>
      </trkpt>
      <trkpt lat="43.06723" lon="0.50989">
        <ele>439.8</ele>
        <time>2020-06-30T09:12:21Z</time>
      </trkpt>
      <trkpt lat="43.06724" lon="0.50983">
        <ele>439.8</ele>
        <time>2020-06-30T09:12:22Z</time>
      </trkpt>
      <trkpt lat="43.06723" lon="0.50976">
        <ele>439.8</ele>
        <time>2020-06-30T09:12:23Z</time>
      </trkpt>
      <trkpt lat="43.06724" lon="0.5097">
        <ele>439.8</ele>
        <time>2020-06-30T09:12:24Z</time>
      </trkpt>
      <trkpt lat="43.06724" lon="0.50963">
        <ele>439.8</ele>
        <time>2020-06-30T09:12:25Z</time>
      </trkpt>
      <trkpt lat="43.06724" lon="0.50956">
        <ele>439.8</ele>
        <time>2020-06-30T09:12:26Z</time>
      </trkpt>
      <trkpt lat="43.06725" lon="0.50949">
        <ele>440</ele>
        <time>2020-06-30T09:12:27Z</time>
      </trkpt>
      <trkpt lat="43.06724" lon="0.50943">
        <ele>439.6</ele>
        <time>2020-06-30T09:12:28Z</time>
      </trkpt>
      <trkpt lat="43.06724" lon="0.50936">
        <ele>439.6</ele>
        <time>2020-06-30T09:12:29Z</time>
      </trkpt>
      <trkpt lat="43.06723" lon="0.50929">
        <ele>439.6</ele>
        <time>2020-06-30T09:12:30Z</time>
      </trkpt>
      <trkpt lat="43.06722" lon="0.50922">
        <ele>439.6</ele>
        <time>2020-06-30T09:12:31Z</time>
      </trkpt>
      <trkpt lat="43.06721" lon="0.50916">
        <ele>439.6</ele>
        <time>2020-06-30T09:12:32Z</time>
      </trkpt>
      <trkpt lat="43.06721" lon="0.50909">
        <ele>439.6</ele>
        <time>2020-06-30T09:12:33Z</time>
      </trkpt>
      <trkpt lat="43.06721" lon="0.50902">
        <ele>439.6</ele>
        <time>2020-06-30T09:12:34Z</time>
      </trkpt>
      <trkpt lat="43.0672" lon="0.50896">
        <ele>439.6</ele>
        <time>2020-06-30T09:12:35Z</time>
      </trkpt>
      <trkpt lat="43.0672" lon="0.50889">
        <ele>439.6</ele>
        <time>2020-06-30T09:12:36Z</time>
      </trkpt>
      <trkpt lat="43.0672" lon="0.50883">
        <ele>439.6</ele>
        <time>2020-06-30T09:12:37Z</time>
      </trkpt>
      <trkpt lat="43.06719" lon="0.50875">
        <ele>439.6</ele>
        <time>2020-06-30T09:12:38Z</time>
      </trkpt>
      <trkpt lat="43.06718" lon="0.50867">
        <ele>439.6</ele>
        <time>2020-06-30T09:12:39Z</time>
      </trkpt>
      <trkpt lat="43.06718" lon="0.5086">
        <ele>439.6</ele>
        <time>2020-06-30T09:12:40Z</time>
      </trkpt>
      <trkpt lat="43.06718" lon="0.50854">
        <ele>439.6</ele>
        <time>2020-06-30T09:12:41Z</time>
      </trkpt>
      <trkpt lat="43.06717" lon="0.50848">
        <ele>439.6</ele>
        <time>2020-06-30T09:12:42Z</time>
      </trkpt>
      <trkpt lat="43.06717" lon="0.50842">
        <ele>439.6</ele>
        <time>2020-06-30T09:12:43Z</time>
      </trkpt>
      <trkpt lat="43.06716" lon="0.50835">
        <ele>439.6</ele>
        <time>2020-06-30T09:12:44Z</time>
      </trkpt>
      <trkpt lat="43.06716" lon="0.5083">
        <ele>439.8</ele>
        <time>2020-06-30T09:12:45Z</time>
      </trkpt>
      <trkpt lat="43.06717" lon="0.50825">
        <ele>439.6</ele>
        <time>2020-06-30T09:12:46Z</time>
      </trkpt>
      <trkpt lat="43.06716" lon="0.50817">
        <ele>439.8</ele>
        <time>2020-06-30T09:12:47Z</time>
      </trkpt>
      <trkpt lat="43.06715" lon="0.50811">
        <ele>439.8</ele>
        <time>2020-06-30T09:12:48Z</time>
      </trkpt>
      <trkpt lat="43.06714" lon="0.50805">
        <ele>439.8</ele>
        <time>2020-06-30T09:12:49Z</time>
      </trkpt>
      <trkpt lat="43.06711" lon="0.50799">
        <ele>439.8</ele>
        <time>2020-06-30T09:12:50Z</time>
      </trkpt>
      <trkpt lat="43.06709" lon="0.50793">
        <ele>440</ele>
        <time>2020-06-30T09:12:51Z</time>
      </trkpt>
      <trkpt lat="43.06706" lon="0.50786">
        <ele>440</ele>
        <time>2020-06-30T09:12:52Z</time>
      </trkpt>
      <trkpt lat="43.06703" lon="0.5078">
        <ele>440</ele>
        <time>2020-06-30T09:12:53Z</time>
      </trkpt>
      <trkpt lat="43.067" lon="0.50774">
        <ele>440</ele>
        <time>2020-06-30T09:12:54Z</time>
      </trkpt>
      <trkpt lat="43.06697" lon="0.50768">
        <ele>440.2</ele>
        <time>2020-06-30T09:12:55Z</time>
      </trkpt>
      <trkpt lat="43.06695" lon="0.50762">
        <ele>440.2</ele>
        <time>2020-06-30T09:12:56Z</time>
      </trkpt>
      <trkpt lat="43.06692" lon="0.50757">
        <ele>440.2</ele>
        <time>2020-06-30T09:12:57Z</time>
      </trkpt>
      <trkpt lat="43.06689" lon="0.50752">
        <ele>440.2</ele>
        <time>2020-06-30T09:12:58Z</time>
      </trkpt>
      <trkpt lat="43.06686" lon="0.50747">
        <ele>440.4</ele>
        <time>2020-06-30T09:12:59Z</time>
      </trkpt>
      <trkpt lat="43.06683" lon="0.50742">
        <ele>440.4</ele>
        <time>2020-06-30T09:13:00Z</time>
      </trkpt>
      <trkpt lat="43.06681" lon="0.50737">
        <ele>440.4</ele>
        <time>2020-06-30T09:13:01Z</time>
      </trkpt>
      <trkpt lat="43.06678" lon="0.50732">
        <ele>440.6</ele>
        <time>2020-06-30T09:13:02Z</time>
      </trkpt>
      <trkpt lat="43.06676" lon="0.50727">
        <ele>440.6</ele>
        <time>2020-06-30T09:13:03Z</time>
      </trkpt>
      <trkpt lat="43.06675" lon="0.50722">
        <ele>440.6</ele>
        <time>2020-06-30T09:13:04Z</time>
      </trkpt>
      <trkpt lat="43.06672" lon="0.50716">
        <ele>440.6</ele>
        <time>2020-06-30T09:13:05Z</time>
      </trkpt>
      <trkpt lat="43.06671" lon="0.50711">
        <ele>440.8</ele>
        <time>2020-06-30T09:13:06Z</time>
      </trkpt>
      <trkpt lat="43.06669" lon="0.50706">
        <ele>440.8</ele>
        <time>2020-06-30T09:13:07Z</time>
      </trkpt>
      <trkpt lat="43.06667" lon="0.50702">
        <ele>441</ele>
        <time>2020-06-30T09:13:08Z</time>
      </trkpt>
      <trkpt lat="43.06667" lon="0.50696">
        <ele>441</ele>
        <time>2020-06-30T09:13:09Z</time>
      </trkpt>
      <trkpt lat="43.06666" lon="0.50692">
        <ele>441</ele>
        <time>2020-06-30T09:13:10Z</time>
      </trkpt>
      <trkpt lat="43.06664" lon="0.50687">
        <ele>441.2</ele>
        <time>2020-06-30T09:13:11Z</time>
      </trkpt>
      <trkpt lat="43.06664" lon="0.50681">
        <ele>441.2</ele>
        <time>2020-06-30T09:13:12Z</time>
      </trkpt>
      <trkpt lat="43.06663" lon="0.50675">
        <ele>441.2</ele>
        <time>2020-06-30T09:13:13Z</time>
      </trkpt>
      <trkpt lat="43.06662" lon="0.5067">
        <ele>441.2</ele>
        <time>2020-06-30T09:13:14Z</time>
      </trkpt>
      <trkpt lat="43.06662" lon="0.50664">
        <ele>441.4</ele>
        <time>2020-06-30T09:13:15Z</time>
      </trkpt>
      <trkpt lat="43.06661" lon="0.50658">
        <ele>441.4</ele>
        <time>2020-06-30T09:13:16Z</time>
      </trkpt>
      <trkpt lat="43.0666" lon="0.50653">
        <ele>441.4</ele>
        <time>2020-06-30T09:13:17Z</time>
      </trkpt>
      <trkpt lat="43.0666" lon="0.50647">
        <ele>441.4</ele>
        <time>2020-06-30T09:13:18Z</time>
      </trkpt>
      <trkpt lat="43.06658" lon="0.50641">
        <ele>441.4</ele>
        <time>2020-06-30T09:13:19Z</time>
      </trkpt>
      <trkpt lat="43.06658" lon="0.50636">
        <ele>441.4</ele>
        <time>2020-06-30T09:13:20Z</time>
      </trkpt>
      <trkpt lat="43.06657" lon="0.50632">
        <ele>441.6</ele>
        <time>2020-06-30T09:13:21Z</time>
      </trkpt>
      <trkpt lat="43.06656" lon="0.50626">
        <ele>441.6</ele>
        <time>2020-06-30T09:13:22Z</time>
      </trkpt>
      <trkpt lat="43.06656" lon="0.5062">
        <ele>441.6</ele>
        <time>2020-06-30T09:13:23Z</time>
      </trkpt>
      <trkpt lat="43.06655" lon="0.50614">
        <ele>441.6</ele>
        <time>2020-06-30T09:13:24Z</time>
      </trkpt>
      <trkpt lat="43.06653" lon="0.50608">
        <ele>441.6</ele>
        <time>2020-06-30T09:13:25Z</time>
      </trkpt>
      <trkpt lat="43.06652" lon="0.50603">
        <ele>441.6</ele>
        <time>2020-06-30T09:13:26Z</time>
      </trkpt>
      <trkpt lat="43.06651" lon="0.50597">
        <ele>441.6</ele>
        <time>2020-06-30T09:13:27Z</time>
      </trkpt>
      <trkpt lat="43.0665" lon="0.50592">
        <ele>441.6</ele>
        <time>2020-06-30T09:13:28Z</time>
      </trkpt>
      <trkpt lat="43.0665" lon="0.50587">
        <ele>441.4</ele>
        <time>2020-06-30T09:13:29Z</time>
      </trkpt>
      <trkpt lat="43.06649" lon="0.5058">
        <ele>441.4</ele>
        <time>2020-06-30T09:13:30Z</time>
      </trkpt>
      <trkpt lat="43.06648" lon="0.50574">
        <ele>441.6</ele>
        <time>2020-06-30T09:13:31Z</time>
      </trkpt>
      <trkpt lat="43.06648" lon="0.50568">
        <ele>441.6</ele>
        <time>2020-06-30T09:13:32Z</time>
      </trkpt>
      <trkpt lat="43.06647" lon="0.50561">
        <ele>441.6</ele>
        <time>2020-06-30T09:13:33Z</time>
      </trkpt>
      <trkpt lat="43.06646" lon="0.50555">
        <ele>441.6</ele>
        <time>2020-06-30T09:13:34Z</time>
      </trkpt>
      <trkpt lat="43.06646" lon="0.50549">
        <ele>441.6</ele>
        <time>2020-06-30T09:13:35Z</time>
      </trkpt>
      <trkpt lat="43.06646" lon="0.50543">
        <ele>441.6</ele>
        <time>2020-06-30T09:13:36Z</time>
      </trkpt>
      <trkpt lat="43.06647" lon="0.50539">
        <ele>441.6</ele>
        <time>2020-06-30T09:13:37Z</time>
      </trkpt>
      <trkpt lat="43.06646" lon="0.50532">
        <ele>441.6</ele>
        <time>2020-06-30T09:13:38Z</time>
      </trkpt>
      <trkpt lat="43.06646" lon="0.50527">
        <ele>441.6</ele>
        <time>2020-06-30T09:13:39Z</time>
      </trkpt>
      <trkpt lat="43.06646" lon="0.5052">
        <ele>441.6</ele>
        <time>2020-06-30T09:13:40Z</time>
      </trkpt>
      <trkpt lat="43.06646" lon="0.50514">
        <ele>441.6</ele>
        <time>2020-06-30T09:13:41Z</time>
      </trkpt>
      <trkpt lat="43.06646" lon="0.50508">
        <ele>441.6</ele>
        <time>2020-06-30T09:13:42Z</time>
      </trkpt>
      <trkpt lat="43.06647" lon="0.50503">
        <ele>441.6</ele>
        <time>2020-06-30T09:13:43Z</time>
      </trkpt>
      <trkpt lat="43.06646" lon="0.50496">
        <ele>441.6</ele>
        <time>2020-06-30T09:13:44Z</time>
      </trkpt>
      <trkpt lat="43.06647" lon="0.5049">
        <ele>441.6</ele>
        <time>2020-06-30T09:13:45Z</time>
      </trkpt>
      <trkpt lat="43.06647" lon="0.50483">
        <ele>441.6</ele>
        <time>2020-06-30T09:13:46Z</time>
      </trkpt>
      <trkpt lat="43.06648" lon="0.50478">
        <ele>441.8</ele>
        <time>2020-06-30T09:13:47Z</time>
      </trkpt>
      <trkpt lat="43.06647" lon="0.50471">
        <ele>441.8</ele>
        <time>2020-06-30T09:13:48Z</time>
      </trkpt>
      <trkpt lat="43.06647" lon="0.50465">
        <ele>441.8</ele>
        <time>2020-06-30T09:13:49Z</time>
      </trkpt>
      <trkpt lat="43.06647" lon="0.50458">
        <ele>441.8</ele>
        <time>2020-06-30T09:13:50Z</time>
      </trkpt>
      <trkpt lat="43.06648" lon="0.50451">
        <ele>441.8</ele>
        <time>2020-06-30T09:13:51Z</time>
      </trkpt>
      <trkpt lat="43.06647" lon="0.50444">
        <ele>441.8</ele>
        <time>2020-06-30T09:13:52Z</time>
      </trkpt>
      <trkpt lat="43.06648" lon="0.50438">
        <ele>441.8</ele>
        <time>2020-06-30T09:13:53Z</time>
      </trkpt>
      <trkpt lat="43.06648" lon="0.50432">
        <ele>441.8</ele>
        <time>2020-06-30T09:13:54Z</time>
      </trkpt>
      <trkpt lat="43.06647" lon="0.50427">
        <ele>442</ele>
        <time>2020-06-30T09:13:55Z</time>
      </trkpt>
      <trkpt lat="43.06648" lon="0.50421">
        <ele>442</ele>
        <time>2020-06-30T09:13:56Z</time>
      </trkpt>
      <trkpt lat="43.06647" lon="0.50415">
        <ele>442</ele>
        <time>2020-06-30T09:13:57Z</time>
      </trkpt>
      <trkpt lat="43.06648" lon="0.5041">
        <ele>442</ele>
        <time>2020-06-30T09:13:58Z</time>
      </trkpt>
      <trkpt lat="43.06648" lon="0.50405">
        <ele>442</ele>
        <time>2020-06-30T09:13:59Z</time>
      </trkpt>
      <trkpt lat="43.06648" lon="0.50399">
        <ele>442.2</ele>
        <time>2020-06-30T09:14:00Z</time>
      </trkpt>
      <trkpt lat="43.06647" lon="0.50393">
        <ele>442</ele>
        <time>2020-06-30T09:14:01Z</time>
      </trkpt>
      <trkpt lat="43.06646" lon="0.50388">
        <ele>442.2</ele>
        <time>2020-06-30T09:14:02Z</time>
      </trkpt>
      <trkpt lat="43.06646" lon="0.50383">
        <ele>442.2</ele>
        <time>2020-06-30T09:14:03Z</time>
      </trkpt>
      <trkpt lat="43.06644" lon="0.50376">
        <ele>442.2</ele>
        <time>2020-06-30T09:14:04Z</time>
      </trkpt>
      <trkpt lat="43.06643" lon="0.50371">
        <ele>442.2</ele>
        <time>2020-06-30T09:14:05Z</time>
      </trkpt>
      <trkpt lat="43.06642" lon="0.50366">
        <ele>442.2</ele>
        <time>2020-06-30T09:14:06Z</time>
      </trkpt>
      <trkpt lat="43.06641" lon="0.50363">
        <ele>442.2</ele>
        <time>2020-06-30T09:14:07Z</time>
      </trkpt>
      <trkpt lat="43.06639" lon="0.50358">
        <ele>442.4</ele>
        <time>2020-06-30T09:14:08Z</time>
      </trkpt>
      <trkpt lat="43.06636" lon="0.50352">
        <ele>442.4</ele>
        <time>2020-06-30T09:14:09Z</time>
      </trkpt>
      <trkpt lat="43.06633" lon="0.50345">
        <ele>442.4</ele>
        <time>2020-06-30T09:14:10Z</time>
      </trkpt>
      <trkpt lat="43.06631" lon="0.5034">
        <ele>442.4</ele>
        <time>2020-06-30T09:14:11Z</time>
      </trkpt>
      <trkpt lat="43.06631" lon="0.50334">
        <ele>442.6</ele>
        <time>2020-06-30T09:14:12Z</time>
      </trkpt>
      <trkpt lat="43.0663" lon="0.50329">
        <ele>442.6</ele>
        <time>2020-06-30T09:14:13Z</time>
      </trkpt>
      <trkpt lat="43.06628" lon="0.50323">
        <ele>442.4</ele>
        <time>2020-06-30T09:14:14Z</time>
      </trkpt>
      <trkpt lat="43.06627" lon="0.50316">
        <ele>442.6</ele>
        <time>2020-06-30T09:14:15Z</time>
      </trkpt>
      <trkpt lat="43.06627" lon="0.5031">
        <ele>442.6</ele>
        <time>2020-06-30T09:14:16Z</time>
      </trkpt>
      <trkpt lat="43.06627" lon="0.50304">
        <ele>442.8</ele>
        <time>2020-06-30T09:14:17Z</time>
      </trkpt>
      <trkpt lat="43.06627" lon="0.50298">
        <ele>442.8</ele>
        <time>2020-06-30T09:14:18Z</time>
      </trkpt>
      <trkpt lat="43.06626" lon="0.50291">
        <ele>442.8</ele>
        <time>2020-06-30T09:14:19Z</time>
      </trkpt>
      <trkpt lat="43.06626" lon="0.50285">
        <ele>442.8</ele>
        <time>2020-06-30T09:14:20Z</time>
      </trkpt>
      <trkpt lat="43.06627" lon="0.50279">
        <ele>443</ele>
        <time>2020-06-30T09:14:21Z</time>
      </trkpt>
      <trkpt lat="43.06627" lon="0.50275">
        <ele>443</ele>
        <time>2020-06-30T09:14:22Z</time>
      </trkpt>
      <trkpt lat="43.06627" lon="0.50269">
        <ele>443</ele>
        <time>2020-06-30T09:14:23Z</time>
      </trkpt>
      <trkpt lat="43.06628" lon="0.50263">
        <ele>443.2</ele>
        <time>2020-06-30T09:14:24Z</time>
      </trkpt>
      <trkpt lat="43.0663" lon="0.50259">
        <ele>443.2</ele>
        <time>2020-06-30T09:14:25Z</time>
      </trkpt>
      <trkpt lat="43.0663" lon="0.50253">
        <ele>443.2</ele>
        <time>2020-06-30T09:14:26Z</time>
      </trkpt>
      <trkpt lat="43.06632" lon="0.50248">
        <ele>443.4</ele>
        <time>2020-06-30T09:14:27Z</time>
      </trkpt>
      <trkpt lat="43.06632" lon="0.50244">
        <ele>443.6</ele>
        <time>2020-06-30T09:14:28Z</time>
      </trkpt>
      <trkpt lat="43.06633" lon="0.50239">
        <ele>443.6</ele>
        <time>2020-06-30T09:14:29Z</time>
      </trkpt>
      <trkpt lat="43.06634" lon="0.50233">
        <ele>443.8</ele>
        <time>2020-06-30T09:14:30Z</time>
      </trkpt>
      <trkpt lat="43.06634" lon="0.50226">
        <ele>443.8</ele>
        <time>2020-06-30T09:14:31Z</time>
      </trkpt>
      <trkpt lat="43.06635" lon="0.50222">
        <ele>443.8</ele>
        <time>2020-06-30T09:14:32Z</time>
      </trkpt>
      <trkpt lat="43.06637" lon="0.50215">
        <ele>443.8</ele>
        <time>2020-06-30T09:14:33Z</time>
      </trkpt>
      <trkpt lat="43.06638" lon="0.5021">
        <ele>443.8</ele>
        <time>2020-06-30T09:14:34Z</time>
      </trkpt>
      <trkpt lat="43.0664" lon="0.50205">
        <ele>443.6</ele>
        <time>2020-06-30T09:14:35Z</time>
      </trkpt>
      <trkpt lat="43.06641" lon="0.50199">
        <ele>443.8</ele>
        <time>2020-06-30T09:14:36Z</time>
      </trkpt>
      <trkpt lat="43.06643" lon="0.50192">
        <ele>443.6</ele>
        <time>2020-06-30T09:14:37Z</time>
      </trkpt>
      <trkpt lat="43.06645" lon="0.50186">
        <ele>443.6</ele>
        <time>2020-06-30T09:14:38Z</time>
      </trkpt>
      <trkpt lat="43.06647" lon="0.50181">
        <ele>443.6</ele>
        <time>2020-06-30T09:14:39Z</time>
      </trkpt>
      <trkpt lat="43.06648" lon="0.50174">
        <ele>443.6</ele>
        <time>2020-06-30T09:14:40Z</time>
      </trkpt>
      <trkpt lat="43.0665" lon="0.50166">
        <ele>443.6</ele>
        <time>2020-06-30T09:14:41Z</time>
      </trkpt>
      <trkpt lat="43.06652" lon="0.5016">
        <ele>443.6</ele>
        <time>2020-06-30T09:14:42Z</time>
      </trkpt>
      <trkpt lat="43.06653" lon="0.50153">
        <ele>443.6</ele>
        <time>2020-06-30T09:14:43Z</time>
      </trkpt>
      <trkpt lat="43.06655" lon="0.50147">
        <ele>443.6</ele>
        <time>2020-06-30T09:14:44Z</time>
      </trkpt>
      <trkpt lat="43.06657" lon="0.50142">
        <ele>443.6</ele>
        <time>2020-06-30T09:14:45Z</time>
      </trkpt>
      <trkpt lat="43.0666" lon="0.50135">
        <ele>443.6</ele>
        <time>2020-06-30T09:14:46Z</time>
      </trkpt>
      <trkpt lat="43.06662" lon="0.50128">
        <ele>443.8</ele>
        <time>2020-06-30T09:14:47Z</time>
      </trkpt>
      <trkpt lat="43.06663" lon="0.50123">
        <ele>443.8</ele>
        <time>2020-06-30T09:14:48Z</time>
      </trkpt>
      <trkpt lat="43.06665" lon="0.50116">
        <ele>443.8</ele>
        <time>2020-06-30T09:14:49Z</time>
      </trkpt>
      <trkpt lat="43.06667" lon="0.5011">
        <ele>443.8</ele>
        <time>2020-06-30T09:14:50Z</time>
      </trkpt>
      <trkpt lat="43.06669" lon="0.50104">
        <ele>443.8</ele>
        <time>2020-06-30T09:14:51Z</time>
      </trkpt>
      <trkpt lat="43.06671" lon="0.50097">
        <ele>443.8</ele>
        <time>2020-06-30T09:14:52Z</time>
      </trkpt>
      <trkpt lat="43.06674" lon="0.50091">
        <ele>443.8</ele>
        <time>2020-06-30T09:14:53Z</time>
      </trkpt>
      <trkpt lat="43.06676" lon="0.50085">
        <ele>443.8</ele>
        <time>2020-06-30T09:14:54Z</time>
      </trkpt>
      <trkpt lat="43.06678" lon="0.50078">
        <ele>444</ele>
        <time>2020-06-30T09:14:55Z</time>
      </trkpt>
      <trkpt lat="43.0668" lon="0.50071">
        <ele>444</ele>
        <time>2020-06-30T09:14:56Z</time>
      </trkpt>
      <trkpt lat="43.06682" lon="0.50065">
        <ele>444</ele>
        <time>2020-06-30T09:14:57Z</time>
      </trkpt>
      <trkpt lat="43.06684" lon="0.5006">
        <ele>444</ele>
        <time>2020-06-30T09:14:58Z</time>
      </trkpt>
      <trkpt lat="43.06686" lon="0.50055">
        <ele>444.2</ele>
        <time>2020-06-30T09:14:59Z</time>
      </trkpt>
      <trkpt lat="43.06688" lon="0.50049">
        <ele>444.2</ele>
        <time>2020-06-30T09:15:00Z</time>
      </trkpt>
      <trkpt lat="43.0669" lon="0.50043">
        <ele>444.2</ele>
        <time>2020-06-30T09:15:01Z</time>
      </trkpt>
      <trkpt lat="43.06692" lon="0.50037">
        <ele>444.2</ele>
        <time>2020-06-30T09:15:02Z</time>
      </trkpt>
      <trkpt lat="43.06694" lon="0.50031">
        <ele>444.2</ele>
        <time>2020-06-30T09:15:03Z</time>
      </trkpt>
      <trkpt lat="43.06695" lon="0.50026">
        <ele>444.4</ele>
        <time>2020-06-30T09:15:04Z</time>
      </trkpt>
      <trkpt lat="43.06697" lon="0.5002">
        <ele>444.4</ele>
        <time>2020-06-30T09:15:05Z</time>
      </trkpt>
      <trkpt lat="43.06699" lon="0.50014">
        <ele>444.4</ele>
        <time>2020-06-30T09:15:06Z</time>
      </trkpt>
      <trkpt lat="43.06701" lon="0.50008">
        <ele>444.4</ele>
        <time>2020-06-30T09:15:07Z</time>
      </trkpt>
      <trkpt lat="43.06703" lon="0.50003">
        <ele>444.4</ele>
        <time>2020-06-30T09:15:08Z</time>
      </trkpt>
      <trkpt lat="43.06705" lon="0.49997">
        <ele>444.4</ele>
        <time>2020-06-30T09:15:09Z</time>
      </trkpt>
      <trkpt lat="43.06707" lon="0.49991">
        <ele>444.6</ele>
        <time>2020-06-30T09:15:10Z</time>
      </trkpt>
      <trkpt lat="43.06709" lon="0.49984">
        <ele>444.6</ele>
        <time>2020-06-30T09:15:11Z</time>
      </trkpt>
      <trkpt lat="43.06712" lon="0.49978">
        <ele>444.6</ele>
        <time>2020-06-30T09:15:12Z</time>
      </trkpt>
      <trkpt lat="43.06714" lon="0.49972">
        <ele>444.8</ele>
        <time>2020-06-30T09:15:13Z</time>
      </trkpt>
      <trkpt lat="43.06716" lon="0.49967">
        <ele>444.8</ele>
        <time>2020-06-30T09:15:14Z</time>
      </trkpt>
      <trkpt lat="43.06718" lon="0.49961">
        <ele>444.8</ele>
        <time>2020-06-30T09:15:15Z</time>
      </trkpt>
      <trkpt lat="43.06721" lon="0.49956">
        <ele>444.8</ele>
        <time>2020-06-30T09:15:16Z</time>
      </trkpt>
      <trkpt lat="43.06723" lon="0.49949">
        <ele>444.8</ele>
        <time>2020-06-30T09:15:17Z</time>
      </trkpt>
      <trkpt lat="43.06726" lon="0.49944">
        <ele>444.8</ele>
        <time>2020-06-30T09:15:18Z</time>
      </trkpt>
      <trkpt lat="43.06729" lon="0.49939">
        <ele>445</ele>
        <time>2020-06-30T09:15:19Z</time>
      </trkpt>
      <trkpt lat="43.06733" lon="0.49933">
        <ele>445</ele>
        <time>2020-06-30T09:15:20Z</time>
      </trkpt>
      <trkpt lat="43.06735" lon="0.49928">
        <ele>445</ele>
        <time>2020-06-30T09:15:21Z</time>
      </trkpt>
      <trkpt lat="43.06738" lon="0.49922">
        <ele>445.2</ele>
        <time>2020-06-30T09:15:22Z</time>
      </trkpt>
      <trkpt lat="43.06741" lon="0.49916">
        <ele>445.2</ele>
        <time>2020-06-30T09:15:23Z</time>
      </trkpt>
      <trkpt lat="43.06743" lon="0.49911">
        <ele>445.2</ele>
        <time>2020-06-30T09:15:24Z</time>
      </trkpt>
      <trkpt lat="43.06746" lon="0.49906">
        <ele>445.4</ele>
        <time>2020-06-30T09:15:25Z</time>
      </trkpt>
      <trkpt lat="43.06749" lon="0.49901">
        <ele>445.4</ele>
        <time>2020-06-30T09:15:26Z</time>
      </trkpt>
      <trkpt lat="43.06752" lon="0.49896">
        <ele>445.4</ele>
        <time>2020-06-30T09:15:27Z</time>
      </trkpt>
      <trkpt lat="43.06755" lon="0.4989">
        <ele>445.6</ele>
        <time>2020-06-30T09:15:28Z</time>
      </trkpt>
      <trkpt lat="43.06757" lon="0.49885">
        <ele>445.6</ele>
        <time>2020-06-30T09:15:29Z</time>
      </trkpt>
      <trkpt lat="43.0676" lon="0.49879">
        <ele>445.6</ele>
        <time>2020-06-30T09:15:30Z</time>
      </trkpt>
      <trkpt lat="43.06762" lon="0.49874">
        <ele>445.8</ele>
        <time>2020-06-30T09:15:31Z</time>
      </trkpt>
      <trkpt lat="43.06764" lon="0.49868">
        <ele>445.8</ele>
        <time>2020-06-30T09:15:32Z</time>
      </trkpt>
      <trkpt lat="43.06766" lon="0.49862">
        <ele>445.8</ele>
        <time>2020-06-30T09:15:33Z</time>
      </trkpt>
      <trkpt lat="43.06769" lon="0.49857">
        <ele>446</ele>
        <time>2020-06-30T09:15:34Z</time>
      </trkpt>
      <trkpt lat="43.06771" lon="0.49852">
        <ele>446</ele>
        <time>2020-06-30T09:15:35Z</time>
      </trkpt>
      <trkpt lat="43.06773" lon="0.49846">
        <ele>446.2</ele>
        <time>2020-06-30T09:15:36Z</time>
      </trkpt>
      <trkpt lat="43.06775" lon="0.49839">
        <ele>446</ele>
        <time>2020-06-30T09:15:37Z</time>
      </trkpt>
      <trkpt lat="43.06776" lon="0.49832">
        <ele>446.2</ele>
        <time>2020-06-30T09:15:38Z</time>
      </trkpt>
      <trkpt lat="43.06778" lon="0.49825">
        <ele>446.2</ele>
        <time>2020-06-30T09:15:39Z</time>
      </trkpt>
      <trkpt lat="43.0678" lon="0.49819">
        <ele>446.2</ele>
        <time>2020-06-30T09:15:40Z</time>
      </trkpt>
      <trkpt lat="43.06781" lon="0.49813">
        <ele>446.2</ele>
        <time>2020-06-30T09:15:41Z</time>
      </trkpt>
      <trkpt lat="43.06782" lon="0.49806">
        <ele>446.4</ele>
        <time>2020-06-30T09:15:42Z</time>
      </trkpt>
      <trkpt lat="43.06783" lon="0.49799">
        <ele>446.4</ele>
        <time>2020-06-30T09:15:43Z</time>
      </trkpt>
      <trkpt lat="43.06784" lon="0.49792">
        <ele>446.4</ele>
        <time>2020-06-30T09:15:44Z</time>
      </trkpt>
      <trkpt lat="43.06785" lon="0.49786">
        <ele>446.4</ele>
        <time>2020-06-30T09:15:45Z</time>
      </trkpt>
      <trkpt lat="43.06786" lon="0.4978">
        <ele>446.4</ele>
        <time>2020-06-30T09:15:46Z</time>
      </trkpt>
      <trkpt lat="43.06786" lon="0.49774">
        <ele>446.6</ele>
        <time>2020-06-30T09:15:47Z</time>
      </trkpt>
      <trkpt lat="43.06786" lon="0.49768">
        <ele>446.6</ele>
        <time>2020-06-30T09:15:48Z</time>
      </trkpt>
      <trkpt lat="43.06786" lon="0.49762">
        <ele>446.6</ele>
        <time>2020-06-30T09:15:49Z</time>
      </trkpt>
      <trkpt lat="43.06786" lon="0.49755">
        <ele>446.6</ele>
        <time>2020-06-30T09:15:50Z</time>
      </trkpt>
      <trkpt lat="43.06786" lon="0.49749">
        <ele>446.8</ele>
        <time>2020-06-30T09:15:51Z</time>
      </trkpt>
      <trkpt lat="43.06786" lon="0.49741">
        <ele>446.8</ele>
        <time>2020-06-30T09:15:52Z</time>
      </trkpt>
      <trkpt lat="43.06786" lon="0.49735">
        <ele>446.8</ele>
        <time>2020-06-30T09:15:53Z</time>
      </trkpt>
      <trkpt lat="43.06786" lon="0.49727">
        <ele>446.8</ele>
        <time>2020-06-30T09:15:54Z</time>
      </trkpt>
      <trkpt lat="43.06786" lon="0.49721">
        <ele>446.8</ele>
        <time>2020-06-30T09:15:55Z</time>
      </trkpt>
      <trkpt lat="43.06786" lon="0.49715">
        <ele>446.8</ele>
        <time>2020-06-30T09:15:56Z</time>
      </trkpt>
      <trkpt lat="43.06786" lon="0.49709">
        <ele>446.8</ele>
        <time>2020-06-30T09:15:57Z</time>
      </trkpt>
      <trkpt lat="43.06786" lon="0.49703">
        <ele>446.8</ele>
        <time>2020-06-30T09:15:58Z</time>
      </trkpt>
      <trkpt lat="43.06785" lon="0.49696">
        <ele>447</ele>
        <time>2020-06-30T09:15:59Z</time>
      </trkpt>
      <trkpt lat="43.06784" lon="0.4969">
        <ele>447</ele>
        <time>2020-06-30T09:16:00Z</time>
      </trkpt>
      <trkpt lat="43.06783" lon="0.49684">
        <ele>447</ele>
        <time>2020-06-30T09:16:01Z</time>
      </trkpt>
      <trkpt lat="43.06781" lon="0.49679">
        <ele>447.2</ele>
        <time>2020-06-30T09:16:02Z</time>
      </trkpt>
      <trkpt lat="43.06779" lon="0.49673">
        <ele>447.2</ele>
        <time>2020-06-30T09:16:03Z</time>
      </trkpt>
      <trkpt lat="43.06778" lon="0.49666">
        <ele>447.2</ele>
        <time>2020-06-30T09:16:04Z</time>
      </trkpt>
      <trkpt lat="43.06776" lon="0.49658">
        <ele>447.2</ele>
        <time>2020-06-30T09:16:05Z</time>
      </trkpt>
      <trkpt lat="43.06775" lon="0.49653">
        <ele>447.4</ele>
        <time>2020-06-30T09:16:06Z</time>
      </trkpt>
      <trkpt lat="43.06774" lon="0.49646">
        <ele>447.2</ele>
        <time>2020-06-30T09:16:07Z</time>
      </trkpt>
      <trkpt lat="43.06772" lon="0.49639">
        <ele>447.2</ele>
        <time>2020-06-30T09:16:08Z</time>
      </trkpt>
      <trkpt lat="43.06771" lon="0.49634">
        <ele>447.2</ele>
        <time>2020-06-30T09:16:09Z</time>
      </trkpt>
      <trkpt lat="43.0677" lon="0.49628">
        <ele>447.4</ele>
        <time>2020-06-30T09:16:10Z</time>
      </trkpt>
      <trkpt lat="43.06769" lon="0.49622">
        <ele>447.4</ele>
        <time>2020-06-30T09:16:11Z</time>
      </trkpt>
      <trkpt lat="43.06768" lon="0.49615">
        <ele>447.4</ele>
        <time>2020-06-30T09:16:12Z</time>
      </trkpt>
      <trkpt lat="43.06766" lon="0.49608">
        <ele>447.4</ele>
        <time>2020-06-30T09:16:13Z</time>
      </trkpt>
      <trkpt lat="43.06764" lon="0.49601">
        <ele>447.6</ele>
        <time>2020-06-30T09:16:14Z</time>
      </trkpt>
      <trkpt lat="43.06763" lon="0.49595">
        <ele>447.6</ele>
        <time>2020-06-30T09:16:15Z</time>
      </trkpt>
      <trkpt lat="43.06762" lon="0.49589">
        <ele>447.6</ele>
        <time>2020-06-30T09:16:16Z</time>
      </trkpt>
      <trkpt lat="43.06761" lon="0.49582">
        <ele>447.6</ele>
        <time>2020-06-30T09:16:17Z</time>
      </trkpt>
      <trkpt lat="43.0676" lon="0.49575">
        <ele>447.6</ele>
        <time>2020-06-30T09:16:18Z</time>
      </trkpt>
      <trkpt lat="43.06759" lon="0.49569">
        <ele>447.6</ele>
        <time>2020-06-30T09:16:19Z</time>
      </trkpt>
      <trkpt lat="43.06759" lon="0.49563">
        <ele>447.8</ele>
        <time>2020-06-30T09:16:20Z</time>
      </trkpt>
      <trkpt lat="43.06758" lon="0.49557">
        <ele>447.8</ele>
        <time>2020-06-30T09:16:21Z</time>
      </trkpt>
      <trkpt lat="43.06758" lon="0.49551">
        <ele>447.8</ele>
        <time>2020-06-30T09:16:22Z</time>
      </trkpt>
      <trkpt lat="43.06757" lon="0.49544">
        <ele>447.8</ele>
        <time>2020-06-30T09:16:23Z</time>
      </trkpt>
      <trkpt lat="43.06757" lon="0.49538">
        <ele>448</ele>
        <time>2020-06-30T09:16:24Z</time>
      </trkpt>
      <trkpt lat="43.06757" lon="0.49532">
        <ele>448</ele>
        <time>2020-06-30T09:16:25Z</time>
      </trkpt>
      <trkpt lat="43.06756" lon="0.49526">
        <ele>448</ele>
        <time>2020-06-30T09:16:26Z</time>
      </trkpt>
      <trkpt lat="43.06755" lon="0.49519">
        <ele>448</ele>
        <time>2020-06-30T09:16:27Z</time>
      </trkpt>
      <trkpt lat="43.06755" lon="0.49513">
        <ele>448</ele>
        <time>2020-06-30T09:16:28Z</time>
      </trkpt>
      <trkpt lat="43.06754" lon="0.49507">
        <ele>448</ele>
        <time>2020-06-30T09:16:29Z</time>
      </trkpt>
      <trkpt lat="43.06753" lon="0.49499">
        <ele>448.2</ele>
        <time>2020-06-30T09:16:30Z</time>
      </trkpt>
      <trkpt lat="43.06752" lon="0.49493">
        <ele>448.2</ele>
        <time>2020-06-30T09:16:31Z</time>
      </trkpt>
      <trkpt lat="43.06752" lon="0.49486">
        <ele>448.2</ele>
        <time>2020-06-30T09:16:32Z</time>
      </trkpt>
      <trkpt lat="43.06752" lon="0.49481">
        <ele>448.2</ele>
        <time>2020-06-30T09:16:33Z</time>
      </trkpt>
      <trkpt lat="43.06753" lon="0.49476">
        <ele>448.2</ele>
        <time>2020-06-30T09:16:34Z</time>
      </trkpt>
      <trkpt lat="43.06753" lon="0.49469">
        <ele>448.4</ele>
        <time>2020-06-30T09:16:35Z</time>
      </trkpt>
      <trkpt lat="43.06752" lon="0.49462">
        <ele>448.4</ele>
        <time>2020-06-30T09:16:36Z</time>
      </trkpt>
      <trkpt lat="43.06751" lon="0.49455">
        <ele>448.4</ele>
        <time>2020-06-30T09:16:37Z</time>
      </trkpt>
      <trkpt lat="43.06752" lon="0.49449">
        <ele>448.4</ele>
        <time>2020-06-30T09:16:38Z</time>
      </trkpt>
      <trkpt lat="43.06751" lon="0.49442">
        <ele>448.4</ele>
        <time>2020-06-30T09:16:39Z</time>
      </trkpt>
      <trkpt lat="43.06751" lon="0.49435">
        <ele>448.4</ele>
        <time>2020-06-30T09:16:40Z</time>
      </trkpt>
      <trkpt lat="43.06752" lon="0.49429">
        <ele>448.4</ele>
        <time>2020-06-30T09:16:41Z</time>
      </trkpt>
      <trkpt lat="43.06752" lon="0.49421">
        <ele>448.6</ele>
        <time>2020-06-30T09:16:42Z</time>
      </trkpt>
      <trkpt lat="43.06752" lon="0.49414">
        <ele>448.6</ele>
        <time>2020-06-30T09:16:43Z</time>
      </trkpt>
      <trkpt lat="43.06752" lon="0.49407">
        <ele>448.8</ele>
        <time>2020-06-30T09:16:44Z</time>
      </trkpt>
      <trkpt lat="43.06752" lon="0.49399">
        <ele>448.8</ele>
        <time>2020-06-30T09:16:45Z</time>
      </trkpt>
      <trkpt lat="43.06752" lon="0.49392">
        <ele>448.8</ele>
        <time>2020-06-30T09:16:46Z</time>
      </trkpt>
      <trkpt lat="43.06753" lon="0.49386">
        <ele>448.8</ele>
        <time>2020-06-30T09:16:47Z</time>
      </trkpt>
      <trkpt lat="43.06753" lon="0.49381">
        <ele>448.8</ele>
        <time>2020-06-30T09:16:48Z</time>
      </trkpt>
      <trkpt lat="43.06753" lon="0.49375">
        <ele>449</ele>
        <time>2020-06-30T09:16:49Z</time>
      </trkpt>
      <trkpt lat="43.06754" lon="0.49369">
        <ele>449</ele>
        <time>2020-06-30T09:16:50Z</time>
      </trkpt>
      <trkpt lat="43.06754" lon="0.49363">
        <ele>449</ele>
        <time>2020-06-30T09:16:51Z</time>
      </trkpt>
      <trkpt lat="43.06755" lon="0.49357">
        <ele>449</ele>
        <time>2020-06-30T09:16:52Z</time>
      </trkpt>
      <trkpt lat="43.06756" lon="0.49351">
        <ele>449.2</ele>
        <time>2020-06-30T09:16:53Z</time>
      </trkpt>
      <trkpt lat="43.06756" lon="0.49345">
        <ele>449.2</ele>
        <time>2020-06-30T09:16:54Z</time>
      </trkpt>
      <trkpt lat="43.06757" lon="0.49338">
        <ele>449.2</ele>
        <time>2020-06-30T09:16:55Z</time>
      </trkpt>
      <trkpt lat="43.06758" lon="0.49332">
        <ele>449.2</ele>
        <time>2020-06-30T09:16:56Z</time>
      </trkpt>
      <trkpt lat="43.06758" lon="0.49325">
        <ele>449.2</ele>
        <time>2020-06-30T09:16:57Z</time>
      </trkpt>
      <trkpt lat="43.06758" lon="0.49318">
        <ele>449.2</ele>
        <time>2020-06-30T09:16:58Z</time>
      </trkpt>
      <trkpt lat="43.06758" lon="0.49311">
        <ele>449.2</ele>
        <time>2020-06-30T09:16:59Z</time>
      </trkpt>
      <trkpt lat="43.06758" lon="0.49304">
        <ele>449.4</ele>
        <time>2020-06-30T09:17:00Z</time>
      </trkpt>
      <trkpt lat="43.06759" lon="0.49298">
        <ele>449.4</ele>
        <time>2020-06-30T09:17:01Z</time>
      </trkpt>
      <trkpt lat="43.0676" lon="0.4929">
        <ele>449.4</ele>
        <time>2020-06-30T09:17:02Z</time>
      </trkpt>
      <trkpt lat="43.0676" lon="0.49283">
        <ele>449.4</ele>
        <time>2020-06-30T09:17:03Z</time>
      </trkpt>
      <trkpt lat="43.06759" lon="0.49275">
        <ele>449.4</ele>
        <time>2020-06-30T09:17:04Z</time>
      </trkpt>
      <trkpt lat="43.06759" lon="0.49268">
        <ele>449.6</ele>
        <time>2020-06-30T09:17:05Z</time>
      </trkpt>
      <trkpt lat="43.0676" lon="0.49262">
        <ele>449.6</ele>
        <time>2020-06-30T09:17:06Z</time>
      </trkpt>
      <trkpt lat="43.06761" lon="0.49255">
        <ele>449.8</ele>
        <time>2020-06-30T09:17:07Z</time>
      </trkpt>
      <trkpt lat="43.0676" lon="0.49248">
        <ele>449.8</ele>
        <time>2020-06-30T09:17:08Z</time>
      </trkpt>
      <trkpt lat="43.0676" lon="0.49242">
        <ele>449.8</ele>
        <time>2020-06-30T09:17:09Z</time>
      </trkpt>
      <trkpt lat="43.0676" lon="0.49236">
        <ele>449.8</ele>
        <time>2020-06-30T09:17:10Z</time>
      </trkpt>
      <trkpt lat="43.06759" lon="0.49228">
        <ele>449.8</ele>
        <time>2020-06-30T09:17:11Z</time>
      </trkpt>
      <trkpt lat="43.06759" lon="0.49221">
        <ele>449.8</ele>
        <time>2020-06-30T09:17:12Z</time>
      </trkpt>
      <trkpt lat="43.06759" lon="0.49215">
        <ele>449.8</ele>
        <time>2020-06-30T09:17:13Z</time>
      </trkpt>
      <trkpt lat="43.0676" lon="0.49209">
        <ele>450</ele>
        <time>2020-06-30T09:17:14Z</time>
      </trkpt>
      <trkpt lat="43.0676" lon="0.49203">
        <ele>450</ele>
        <time>2020-06-30T09:17:15Z</time>
      </trkpt>
      <trkpt lat="43.0676" lon="0.49198">
        <ele>450.2</ele>
        <time>2020-06-30T09:17:16Z</time>
      </trkpt>
      <trkpt lat="43.0676" lon="0.49192">
        <ele>450.2</ele>
        <time>2020-06-30T09:17:17Z</time>
      </trkpt>
      <trkpt lat="43.0676" lon="0.49185">
        <ele>450.2</ele>
        <time>2020-06-30T09:17:18Z</time>
      </trkpt>
      <trkpt lat="43.0676" lon="0.4918">
        <ele>450.2</ele>
        <time>2020-06-30T09:17:19Z</time>
      </trkpt>
      <trkpt lat="43.06759" lon="0.49173">
        <ele>450.2</ele>
        <time>2020-06-30T09:17:20Z</time>
      </trkpt>
      <trkpt lat="43.06759" lon="0.49167">
        <ele>450.2</ele>
        <time>2020-06-30T09:17:21Z</time>
      </trkpt>
      <trkpt lat="43.06758" lon="0.4916">
        <ele>450.4</ele>
        <time>2020-06-30T09:17:22Z</time>
      </trkpt>
      <trkpt lat="43.06757" lon="0.49152">
        <ele>450.4</ele>
        <time>2020-06-30T09:17:23Z</time>
      </trkpt>
      <trkpt lat="43.06756" lon="0.49146">
        <ele>450.4</ele>
        <time>2020-06-30T09:17:24Z</time>
      </trkpt>
      <trkpt lat="43.06755" lon="0.49138">
        <ele>450.4</ele>
        <time>2020-06-30T09:17:25Z</time>
      </trkpt>
      <trkpt lat="43.06754" lon="0.49131">
        <ele>450.4</ele>
        <time>2020-06-30T09:17:26Z</time>
      </trkpt>
      <trkpt lat="43.06753" lon="0.49125">
        <ele>450.6</ele>
        <time>2020-06-30T09:17:27Z</time>
      </trkpt>
      <trkpt lat="43.06752" lon="0.49119">
        <ele>450.6</ele>
        <time>2020-06-30T09:17:28Z</time>
      </trkpt>
      <trkpt lat="43.06752" lon="0.49113">
        <ele>450.6</ele>
        <time>2020-06-30T09:17:29Z</time>
      </trkpt>
      <trkpt lat="43.06752" lon="0.49107">
        <ele>450.6</ele>
        <time>2020-06-30T09:17:30Z</time>
      </trkpt>
      <trkpt lat="43.06751" lon="0.49101">
        <ele>450.6</ele>
        <time>2020-06-30T09:17:31Z</time>
      </trkpt>
      <trkpt lat="43.06751" lon="0.49096">
        <ele>450.8</ele>
        <time>2020-06-30T09:17:32Z</time>
      </trkpt>
      <trkpt lat="43.06751" lon="0.4909">
        <ele>450.8</ele>
        <time>2020-06-30T09:17:33Z</time>
      </trkpt>
      <trkpt lat="43.0675" lon="0.49084">
        <ele>450.8</ele>
        <time>2020-06-30T09:17:34Z</time>
      </trkpt>
      <trkpt lat="43.06749" lon="0.49078">
        <ele>450.8</ele>
        <time>2020-06-30T09:17:35Z</time>
      </trkpt>
      <trkpt lat="43.06747" lon="0.49071">
        <ele>451</ele>
        <time>2020-06-30T09:17:36Z</time>
      </trkpt>
      <trkpt lat="43.06747" lon="0.49065">
        <ele>451</ele>
        <time>2020-06-30T09:17:37Z</time>
      </trkpt>
      <trkpt lat="43.06745" lon="0.49059">
        <ele>451</ele>
        <time>2020-06-30T09:17:38Z</time>
      </trkpt>
      <trkpt lat="43.06744" lon="0.49053">
        <ele>451</ele>
        <time>2020-06-30T09:17:39Z</time>
      </trkpt>
      <trkpt lat="43.06743" lon="0.49048">
        <ele>451</ele>
        <time>2020-06-30T09:17:40Z</time>
      </trkpt>
      <trkpt lat="43.06742" lon="0.49042">
        <ele>451</ele>
        <time>2020-06-30T09:17:41Z</time>
      </trkpt>
      <trkpt lat="43.06742" lon="0.49036">
        <ele>451</ele>
        <time>2020-06-30T09:17:42Z</time>
      </trkpt>
      <trkpt lat="43.06741" lon="0.49031">
        <ele>451</ele>
        <time>2020-06-30T09:17:43Z</time>
      </trkpt>
      <trkpt lat="43.06739" lon="0.49025">
        <ele>451</ele>
        <time>2020-06-30T09:17:44Z</time>
      </trkpt>
      <trkpt lat="43.06738" lon="0.49019">
        <ele>451</ele>
        <time>2020-06-30T09:17:45Z</time>
      </trkpt>
      <trkpt lat="43.06737" lon="0.49014">
        <ele>451</ele>
        <time>2020-06-30T09:17:46Z</time>
      </trkpt>
      <trkpt lat="43.06736" lon="0.49009">
        <ele>451</ele>
        <time>2020-06-30T09:17:47Z</time>
      </trkpt>
      <trkpt lat="43.06735" lon="0.49004">
        <ele>451</ele>
        <time>2020-06-30T09:17:48Z</time>
      </trkpt>
      <trkpt lat="43.06734" lon="0.48998">
        <ele>451</ele>
        <time>2020-06-30T09:17:49Z</time>
      </trkpt>
      <trkpt lat="43.06733" lon="0.48993">
        <ele>451.2</ele>
        <time>2020-06-30T09:17:50Z</time>
      </trkpt>
      <trkpt lat="43.06732" lon="0.48988">
        <ele>451.2</ele>
        <time>2020-06-30T09:17:51Z</time>
      </trkpt>
      <trkpt lat="43.06732" lon="0.48982">
        <ele>451.2</ele>
        <time>2020-06-30T09:17:52Z</time>
      </trkpt>
      <trkpt lat="43.06731" lon="0.48976">
        <ele>451.2</ele>
        <time>2020-06-30T09:17:53Z</time>
      </trkpt>
      <trkpt lat="43.06729" lon="0.4897">
        <ele>451.2</ele>
        <time>2020-06-30T09:17:54Z</time>
      </trkpt>
      <trkpt lat="43.06729" lon="0.48966">
        <ele>451.4</ele>
        <time>2020-06-30T09:17:55Z</time>
      </trkpt>
      <trkpt lat="43.06728" lon="0.48961">
        <ele>451.4</ele>
        <time>2020-06-30T09:17:56Z</time>
      </trkpt>
      <trkpt lat="43.06727" lon="0.48956">
        <ele>451.4</ele>
        <time>2020-06-30T09:17:57Z</time>
      </trkpt>
      <trkpt lat="43.06726" lon="0.48951">
        <ele>451.4</ele>
        <time>2020-06-30T09:17:58Z</time>
      </trkpt>
      <trkpt lat="43.06725" lon="0.48946">
        <ele>451.4</ele>
        <time>2020-06-30T09:17:59Z</time>
      </trkpt>
      <trkpt lat="43.06724" lon="0.48941">
        <ele>451.4</ele>
        <time>2020-06-30T09:18:00Z</time>
      </trkpt>
      <trkpt lat="43.06724" lon="0.48937">
        <ele>451.6</ele>
        <time>2020-06-30T09:18:01Z</time>
      </trkpt>
      <trkpt lat="43.06722" lon="0.4893">
        <ele>451.6</ele>
        <time>2020-06-30T09:18:02Z</time>
      </trkpt>
      <trkpt lat="43.06721" lon="0.48925">
        <ele>451.6</ele>
        <time>2020-06-30T09:18:03Z</time>
      </trkpt>
      <trkpt lat="43.0672" lon="0.48919">
        <ele>451.6</ele>
        <time>2020-06-30T09:18:04Z</time>
      </trkpt>
      <trkpt lat="43.06719" lon="0.48913">
        <ele>451.6</ele>
        <time>2020-06-30T09:18:05Z</time>
      </trkpt>
      <trkpt lat="43.06718" lon="0.48907">
        <ele>451.6</ele>
        <time>2020-06-30T09:18:06Z</time>
      </trkpt>
      <trkpt lat="43.06719" lon="0.48902">
        <ele>451.6</ele>
        <time>2020-06-30T09:18:07Z</time>
      </trkpt>
      <trkpt lat="43.06717" lon="0.48895">
        <ele>451.8</ele>
        <time>2020-06-30T09:18:08Z</time>
      </trkpt>
      <trkpt lat="43.06717" lon="0.4889">
        <ele>451.6</ele>
        <time>2020-06-30T09:18:09Z</time>
      </trkpt>
      <trkpt lat="43.06715" lon="0.48883">
        <ele>451.6</ele>
        <time>2020-06-30T09:18:10Z</time>
      </trkpt>
      <trkpt lat="43.06714" lon="0.48877">
        <ele>451.8</ele>
        <time>2020-06-30T09:18:11Z</time>
      </trkpt>
      <trkpt lat="43.06712" lon="0.48871">
        <ele>451.8</ele>
        <time>2020-06-30T09:18:12Z</time>
      </trkpt>
      <trkpt lat="43.06711" lon="0.48864">
        <ele>451.8</ele>
        <time>2020-06-30T09:18:13Z</time>
      </trkpt>
      <trkpt lat="43.0671" lon="0.48858">
        <ele>451.8</ele>
        <time>2020-06-30T09:18:14Z</time>
      </trkpt>
      <trkpt lat="43.06708" lon="0.48851">
        <ele>451.8</ele>
        <time>2020-06-30T09:18:15Z</time>
      </trkpt>
      <trkpt lat="43.06706" lon="0.48843">
        <ele>451.8</ele>
        <time>2020-06-30T09:18:16Z</time>
      </trkpt>
      <trkpt lat="43.06705" lon="0.48838">
        <ele>451.8</ele>
        <time>2020-06-30T09:18:17Z</time>
      </trkpt>
      <trkpt lat="43.06704" lon="0.48832">
        <ele>451.8</ele>
        <time>2020-06-30T09:18:18Z</time>
      </trkpt>
      <trkpt lat="43.06702" lon="0.48826">
        <ele>451.8</ele>
        <time>2020-06-30T09:18:19Z</time>
      </trkpt>
      <trkpt lat="43.06701" lon="0.48819">
        <ele>451.8</ele>
        <time>2020-06-30T09:18:20Z</time>
      </trkpt>
      <trkpt lat="43.067" lon="0.48814">
        <ele>451.8</ele>
        <time>2020-06-30T09:18:21Z</time>
      </trkpt>
      <trkpt lat="43.06698" lon="0.48807">
        <ele>451.6</ele>
        <time>2020-06-30T09:18:22Z</time>
      </trkpt>
      <trkpt lat="43.06697" lon="0.488">
        <ele>451.6</ele>
        <time>2020-06-30T09:18:23Z</time>
      </trkpt>
      <trkpt lat="43.06695" lon="0.48793">
        <ele>451.8</ele>
        <time>2020-06-30T09:18:24Z</time>
      </trkpt>
      <trkpt lat="43.06695" lon="0.48787">
        <ele>451.6</ele>
        <time>2020-06-30T09:18:25Z</time>
      </trkpt>
      <trkpt lat="43.06693" lon="0.4878">
        <ele>451.6</ele>
        <time>2020-06-30T09:18:26Z</time>
      </trkpt>
      <trkpt lat="43.06692" lon="0.48775">
        <ele>451.6</ele>
        <time>2020-06-30T09:18:27Z</time>
      </trkpt>
      <trkpt lat="43.0669" lon="0.48768">
        <ele>451.6</ele>
        <time>2020-06-30T09:18:28Z</time>
      </trkpt>
      <trkpt lat="43.0669" lon="0.48761">
        <ele>451.4</ele>
        <time>2020-06-30T09:18:29Z</time>
      </trkpt>
      <trkpt lat="43.06688" lon="0.48755">
        <ele>451.4</ele>
        <time>2020-06-30T09:18:30Z</time>
      </trkpt>
      <trkpt lat="43.06688" lon="0.4875">
        <ele>451.4</ele>
        <time>2020-06-30T09:18:31Z</time>
      </trkpt>
      <trkpt lat="43.06687" lon="0.48745">
        <ele>451.2</ele>
        <time>2020-06-30T09:18:32Z</time>
      </trkpt>
      <trkpt lat="43.06685" lon="0.48738">
        <ele>451</ele>
        <time>2020-06-30T09:18:33Z</time>
      </trkpt>
      <trkpt lat="43.06683" lon="0.48732">
        <ele>451</ele>
        <time>2020-06-30T09:18:34Z</time>
      </trkpt>
      <trkpt lat="43.06682" lon="0.48726">
        <ele>451.2</ele>
        <time>2020-06-30T09:18:35Z</time>
      </trkpt>
      <trkpt lat="43.0668" lon="0.48718">
        <ele>450.8</ele>
        <time>2020-06-30T09:18:36Z</time>
      </trkpt>
      <trkpt lat="43.06679" lon="0.48712">
        <ele>450.8</ele>
        <time>2020-06-30T09:18:37Z</time>
      </trkpt>
      <trkpt lat="43.06678" lon="0.48705">
        <ele>450.6</ele>
        <time>2020-06-30T09:18:38Z</time>
      </trkpt>
      <trkpt lat="43.06677" lon="0.48699">
        <ele>450.4</ele>
        <time>2020-06-30T09:18:39Z</time>
      </trkpt>
      <trkpt lat="43.06675" lon="0.48692">
        <ele>450.2</ele>
        <time>2020-06-30T09:18:40Z</time>
      </trkpt>
      <trkpt lat="43.06674" lon="0.48686">
        <ele>450</ele>
        <time>2020-06-30T09:18:41Z</time>
      </trkpt>
      <trkpt lat="43.06673" lon="0.48678">
        <ele>449.8</ele>
        <time>2020-06-30T09:18:42Z</time>
      </trkpt>
      <trkpt lat="43.06672" lon="0.48672">
        <ele>449.8</ele>
        <time>2020-06-30T09:18:43Z</time>
      </trkpt>
      <trkpt lat="43.06671" lon="0.48664">
        <ele>449.6</ele>
        <time>2020-06-30T09:18:44Z</time>
      </trkpt>
      <trkpt lat="43.06669" lon="0.48657">
        <ele>449.4</ele>
        <time>2020-06-30T09:18:45Z</time>
      </trkpt>
      <trkpt lat="43.06669" lon="0.48649">
        <ele>449.2</ele>
        <time>2020-06-30T09:18:46Z</time>
      </trkpt>
      <trkpt lat="43.06667" lon="0.48641">
        <ele>449</ele>
        <time>2020-06-30T09:18:47Z</time>
      </trkpt>
      <trkpt lat="43.06666" lon="0.48635">
        <ele>448.8</ele>
        <time>2020-06-30T09:18:48Z</time>
      </trkpt>
      <trkpt lat="43.06666" lon="0.48627">
        <ele>448.8</ele>
        <time>2020-06-30T09:18:49Z</time>
      </trkpt>
      <trkpt lat="43.06666" lon="0.48619">
        <ele>448.4</ele>
        <time>2020-06-30T09:18:50Z</time>
      </trkpt>
      <trkpt lat="43.06666" lon="0.48612">
        <ele>448.2</ele>
        <time>2020-06-30T09:18:51Z</time>
      </trkpt>
      <trkpt lat="43.06666" lon="0.48605">
        <ele>448.2</ele>
        <time>2020-06-30T09:18:52Z</time>
      </trkpt>
      <trkpt lat="43.06667" lon="0.48599">
        <ele>448.2</ele>
        <time>2020-06-30T09:18:53Z</time>
      </trkpt>
      <trkpt lat="43.06666" lon="0.48592">
        <ele>448.2</ele>
        <time>2020-06-30T09:18:54Z</time>
      </trkpt>
      <trkpt lat="43.06664" lon="0.48587">
        <ele>448.4</ele>
        <time>2020-06-30T09:18:55Z</time>
      </trkpt>
      <trkpt lat="43.06662" lon="0.48582">
        <ele>448.4</ele>
        <time>2020-06-30T09:18:56Z</time>
      </trkpt>
      <trkpt lat="43.06659" lon="0.48577">
        <ele>448.8</ele>
        <time>2020-06-30T09:18:57Z</time>
      </trkpt>
      <trkpt lat="43.06656" lon="0.48574">
        <ele>449</ele>
        <time>2020-06-30T09:18:58Z</time>
      </trkpt>
      <trkpt lat="43.06654" lon="0.48571">
        <ele>449.2</ele>
        <time>2020-06-30T09:18:59Z</time>
      </trkpt>
      <trkpt lat="43.06652" lon="0.48568">
        <ele>449.4</ele>
        <time>2020-06-30T09:19:00Z</time>
      </trkpt>
      <trkpt lat="43.0665" lon="0.48565">
        <ele>449.4</ele>
        <time>2020-06-30T09:19:01Z</time>
      </trkpt>
      <trkpt lat="43.06647" lon="0.48561">
        <ele>449.6</ele>
        <time>2020-06-30T09:19:02Z</time>
      </trkpt>
      <trkpt lat="43.06645" lon="0.4856">
        <ele>449.8</ele>
        <time>2020-06-30T09:19:03Z</time>
      </trkpt>
      <trkpt lat="43.06647" lon="0.48559">
        <ele>450</ele>
        <time>2020-06-30T09:19:04Z</time>
      </trkpt>
      <trkpt lat="43.06644" lon="0.48555">
        <ele>450.2</ele>
        <time>2020-06-30T09:19:05Z</time>
      </trkpt>
      <trkpt lat="43.06641" lon="0.48552">
        <ele>450.4</ele>
        <time>2020-06-30T09:19:06Z</time>
      </trkpt>
      <trkpt lat="43.0664" lon="0.4855">
        <ele>450.4</ele>
        <time>2020-06-30T09:19:07Z</time>
      </trkpt>
      <trkpt lat="43.06636" lon="0.48546">
        <ele>450.6</ele>
        <time>2020-06-30T09:19:08Z</time>
      </trkpt>
      <trkpt lat="43.06633" lon="0.48542">
        <ele>450.8</ele>
        <time>2020-06-30T09:19:09Z</time>
      </trkpt>
      <trkpt lat="43.06631" lon="0.48539">
        <ele>450.8</ele>
        <time>2020-06-30T09:19:10Z</time>
      </trkpt>
      <trkpt lat="43.06628" lon="0.48535">
        <ele>451</ele>
        <time>2020-06-30T09:19:11Z</time>
      </trkpt>
      <trkpt lat="43.06627" lon="0.48534">
        <ele>451.2</ele>
        <time>2020-06-30T09:19:12Z</time>
      </trkpt>
      <trkpt lat="43.06626" lon="0.48532">
        <ele>451.4</ele>
        <time>2020-06-30T09:19:13Z</time>
      </trkpt>
      <trkpt lat="43.06623" lon="0.48528">
        <ele>451.4</ele>
        <time>2020-06-30T09:19:14Z</time>
      </trkpt>
      <trkpt lat="43.0662" lon="0.48525">
        <ele>451.6</ele>
        <time>2020-06-30T09:19:15Z</time>
      </trkpt>
      <trkpt lat="43.06617" lon="0.48523">
        <ele>451.8</ele>
        <time>2020-06-30T09:19:16Z</time>
      </trkpt>
      <trkpt lat="43.06615" lon="0.48521">
        <ele>451.8</ele>
        <time>2020-06-30T09:19:17Z</time>
      </trkpt>
      <trkpt lat="43.06612" lon="0.48518">
        <ele>452</ele>
        <time>2020-06-30T09:19:18Z</time>
      </trkpt>
      <trkpt lat="43.06611" lon="0.48516">
        <ele>452.2</ele>
        <time>2020-06-30T09:19:19Z</time>
      </trkpt>
      <trkpt lat="43.06609" lon="0.48515">
        <ele>452.4</ele>
        <time>2020-06-30T09:19:20Z</time>
      </trkpt>
      <trkpt lat="43.06607" lon="0.48511">
        <ele>452.6</ele>
        <time>2020-06-30T09:19:21Z</time>
      </trkpt>
      <trkpt lat="43.06603" lon="0.48509">
        <ele>452.6</ele>
        <time>2020-06-30T09:19:22Z</time>
      </trkpt>
      <trkpt lat="43.06602" lon="0.48506">
        <ele>452.8</ele>
        <time>2020-06-30T09:19:23Z</time>
      </trkpt>
      <trkpt lat="43.06601" lon="0.48503">
        <ele>452.8</ele>
        <time>2020-06-30T09:19:24Z</time>
      </trkpt>
      <trkpt lat="43.066" lon="0.48502">
        <ele>453</ele>
        <time>2020-06-30T09:19:25Z</time>
      </trkpt>
      <trkpt lat="43.06596" lon="0.48499">
        <ele>453.2</ele>
        <time>2020-06-30T09:19:26Z</time>
      </trkpt>
      <trkpt lat="43.06594" lon="0.48495">
        <ele>453.4</ele>
        <time>2020-06-30T09:19:27Z</time>
      </trkpt>
      <trkpt lat="43.06592" lon="0.48493">
        <ele>453.4</ele>
        <time>2020-06-30T09:19:28Z</time>
      </trkpt>
      <trkpt lat="43.0659" lon="0.48491">
        <ele>453.6</ele>
        <time>2020-06-30T09:19:29Z</time>
      </trkpt>
      <trkpt lat="43.06589" lon="0.48489">
        <ele>453.8</ele>
        <time>2020-06-30T09:19:30Z</time>
      </trkpt>
      <trkpt lat="43.06587" lon="0.48487">
        <ele>453.8</ele>
        <time>2020-06-30T09:19:31Z</time>
      </trkpt>
      <trkpt lat="43.06586" lon="0.48484">
        <ele>454</ele>
        <time>2020-06-30T09:19:32Z</time>
      </trkpt>
      <trkpt lat="43.06584" lon="0.48481">
        <ele>454</ele>
        <time>2020-06-30T09:19:33Z</time>
      </trkpt>
      <trkpt lat="43.06582" lon="0.48477">
        <ele>454.2</ele>
        <time>2020-06-30T09:19:34Z</time>
      </trkpt>
      <trkpt lat="43.0658" lon="0.48475">
        <ele>454.4</ele>
        <time>2020-06-30T09:19:35Z</time>
      </trkpt>
      <trkpt lat="43.06579" lon="0.48472">
        <ele>454.4</ele>
        <time>2020-06-30T09:19:36Z</time>
      </trkpt>
      <trkpt lat="43.06577" lon="0.48471">
        <ele>454.6</ele>
        <time>2020-06-30T09:19:37Z</time>
      </trkpt>
      <trkpt lat="43.06574" lon="0.48467">
        <ele>454.8</ele>
        <time>2020-06-30T09:19:38Z</time>
      </trkpt>
      <trkpt lat="43.06573" lon="0.48464">
        <ele>454.8</ele>
        <time>2020-06-30T09:19:39Z</time>
      </trkpt>
      <trkpt lat="43.06571" lon="0.48462">
        <ele>455</ele>
        <time>2020-06-30T09:19:40Z</time>
      </trkpt>
      <trkpt lat="43.0657" lon="0.4846">
        <ele>455.2</ele>
        <time>2020-06-30T09:19:41Z</time>
      </trkpt>
      <trkpt lat="43.06569" lon="0.48457">
        <ele>455.2</ele>
        <time>2020-06-30T09:19:42Z</time>
      </trkpt>
      <trkpt lat="43.06568" lon="0.48454">
        <ele>455.4</ele>
        <time>2020-06-30T09:19:43Z</time>
      </trkpt>
      <trkpt lat="43.06566" lon="0.48451">
        <ele>455.6</ele>
        <time>2020-06-30T09:19:44Z</time>
      </trkpt>
      <trkpt lat="43.06564" lon="0.48449">
        <ele>455.8</ele>
        <time>2020-06-30T09:19:45Z</time>
      </trkpt>
      <trkpt lat="43.06562" lon="0.48446">
        <ele>455.8</ele>
        <time>2020-06-30T09:19:46Z</time>
      </trkpt>
      <trkpt lat="43.0656" lon="0.48445">
        <ele>456</ele>
        <time>2020-06-30T09:19:47Z</time>
      </trkpt>
      <trkpt lat="43.06559" lon="0.48442">
        <ele>456.2</ele>
        <time>2020-06-30T09:19:48Z</time>
      </trkpt>
      <trkpt lat="43.06557" lon="0.48441">
        <ele>456.2</ele>
        <time>2020-06-30T09:19:49Z</time>
      </trkpt>
      <trkpt lat="43.06555" lon="0.48439">
        <ele>456.4</ele>
        <time>2020-06-30T09:19:50Z</time>
      </trkpt>
      <trkpt lat="43.06553" lon="0.48438">
        <ele>456.6</ele>
        <time>2020-06-30T09:19:51Z</time>
      </trkpt>
      <trkpt lat="43.06551" lon="0.48437">
        <ele>456.6</ele>
        <time>2020-06-30T09:19:52Z</time>
      </trkpt>
      <trkpt lat="43.06549" lon="0.48434">
        <ele>456.8</ele>
        <time>2020-06-30T09:19:53Z</time>
      </trkpt>
      <trkpt lat="43.06547" lon="0.48432">
        <ele>457</ele>
        <time>2020-06-30T09:19:54Z</time>
      </trkpt>
      <trkpt lat="43.06545" lon="0.48431">
        <ele>457.2</ele>
        <time>2020-06-30T09:19:55Z</time>
      </trkpt>
      <trkpt lat="43.06543" lon="0.4843">
        <ele>457.2</ele>
        <time>2020-06-30T09:19:56Z</time>
      </trkpt>
      <trkpt lat="43.06542" lon="0.48427">
        <ele>457.4</ele>
        <time>2020-06-30T09:19:57Z</time>
      </trkpt>
      <trkpt lat="43.0654" lon="0.48426">
        <ele>457.4</ele>
        <time>2020-06-30T09:19:58Z</time>
      </trkpt>
      <trkpt lat="43.06537" lon="0.48424">
        <ele>457.6</ele>
        <time>2020-06-30T09:19:59Z</time>
      </trkpt>
      <trkpt lat="43.06535" lon="0.48423">
        <ele>457.6</ele>
        <time>2020-06-30T09:20:00Z</time>
      </trkpt>
      <trkpt lat="43.06533" lon="0.48423">
        <ele>457.8</ele>
        <time>2020-06-30T09:20:01Z</time>
      </trkpt>
      <trkpt lat="43.06531" lon="0.48421">
        <ele>458</ele>
        <time>2020-06-30T09:20:02Z</time>
      </trkpt>
      <trkpt lat="43.06529" lon="0.48419">
        <ele>458</ele>
        <time>2020-06-30T09:20:03Z</time>
      </trkpt>
      <trkpt lat="43.06527" lon="0.48418">
        <ele>458.2</ele>
        <time>2020-06-30T09:20:04Z</time>
      </trkpt>
      <trkpt lat="43.06525" lon="0.48418">
        <ele>458.2</ele>
        <time>2020-06-30T09:20:05Z</time>
      </trkpt>
      <trkpt lat="43.06522" lon="0.48418">
        <ele>458.4</ele>
        <time>2020-06-30T09:20:06Z</time>
      </trkpt>
      <trkpt lat="43.06519" lon="0.48418">
        <ele>458.4</ele>
        <time>2020-06-30T09:20:07Z</time>
      </trkpt>
      <trkpt lat="43.06517" lon="0.48417">
        <ele>458.6</ele>
        <time>2020-06-30T09:20:08Z</time>
      </trkpt>
      <trkpt lat="43.06515" lon="0.48416">
        <ele>458.8</ele>
        <time>2020-06-30T09:20:09Z</time>
      </trkpt>
      <trkpt lat="43.06512" lon="0.48415">
        <ele>458.8</ele>
        <time>2020-06-30T09:20:10Z</time>
      </trkpt>
      <trkpt lat="43.06509" lon="0.48414">
        <ele>459</ele>
        <time>2020-06-30T09:20:11Z</time>
      </trkpt>
      <trkpt lat="43.06507" lon="0.48414">
        <ele>459</ele>
        <time>2020-06-30T09:20:12Z</time>
      </trkpt>
      <trkpt lat="43.06504" lon="0.48414">
        <ele>459.2</ele>
        <time>2020-06-30T09:20:13Z</time>
      </trkpt>
      <trkpt lat="43.06501" lon="0.48414">
        <ele>459.2</ele>
        <time>2020-06-30T09:20:14Z</time>
      </trkpt>
      <trkpt lat="43.06499" lon="0.48413">
        <ele>459.4</ele>
        <time>2020-06-30T09:20:15Z</time>
      </trkpt>
      <trkpt lat="43.06496" lon="0.48414">
        <ele>459.4</ele>
        <time>2020-06-30T09:20:16Z</time>
      </trkpt>
      <trkpt lat="43.06493" lon="0.48413">
        <ele>459.6</ele>
        <time>2020-06-30T09:20:17Z</time>
      </trkpt>
      <trkpt lat="43.06491" lon="0.48412">
        <ele>459.8</ele>
        <time>2020-06-30T09:20:18Z</time>
      </trkpt>
      <trkpt lat="43.06489" lon="0.48412">
        <ele>459.8</ele>
        <time>2020-06-30T09:20:19Z</time>
      </trkpt>
      <trkpt lat="43.06486" lon="0.48412">
        <ele>460</ele>
        <time>2020-06-30T09:20:20Z</time>
      </trkpt>
      <trkpt lat="43.06483" lon="0.48412">
        <ele>460.2</ele>
        <time>2020-06-30T09:20:21Z</time>
      </trkpt>
      <trkpt lat="43.06482" lon="0.48411">
        <ele>460.2</ele>
        <time>2020-06-30T09:20:22Z</time>
      </trkpt>
      <trkpt lat="43.0648" lon="0.48408">
        <ele>460.4</ele>
        <time>2020-06-30T09:20:23Z</time>
      </trkpt>
      <trkpt lat="43.06478" lon="0.48408">
        <ele>460.4</ele>
        <time>2020-06-30T09:20:24Z</time>
      </trkpt>
      <trkpt lat="43.06476" lon="0.48406">
        <ele>460.6</ele>
        <time>2020-06-30T09:20:25Z</time>
      </trkpt>
      <trkpt lat="43.06475" lon="0.48405">
        <ele>460.8</ele>
        <time>2020-06-30T09:20:26Z</time>
      </trkpt>
      <trkpt lat="43.06471" lon="0.48404">
        <ele>460.8</ele>
        <time>2020-06-30T09:20:27Z</time>
      </trkpt>
      <trkpt lat="43.06469" lon="0.48403">
        <ele>461</ele>
        <time>2020-06-30T09:20:28Z</time>
      </trkpt>
      <trkpt lat="43.06467" lon="0.48402">
        <ele>461.2</ele>
        <time>2020-06-30T09:20:29Z</time>
      </trkpt>
      <trkpt lat="43.06464" lon="0.484">
        <ele>461.2</ele>
        <time>2020-06-30T09:20:30Z</time>
      </trkpt>
      <trkpt lat="43.06462" lon="0.48399">
        <ele>461.4</ele>
        <time>2020-06-30T09:20:31Z</time>
      </trkpt>
      <trkpt lat="43.06459" lon="0.48397">
        <ele>461.4</ele>
        <time>2020-06-30T09:20:32Z</time>
      </trkpt>
      <trkpt lat="43.06456" lon="0.48396">
        <ele>461.6</ele>
        <time>2020-06-30T09:20:33Z</time>
      </trkpt>
      <trkpt lat="43.06454" lon="0.48394">
        <ele>461.8</ele>
        <time>2020-06-30T09:20:34Z</time>
      </trkpt>
      <trkpt lat="43.06453" lon="0.48391">
        <ele>462</ele>
        <time>2020-06-30T09:20:35Z</time>
      </trkpt>
      <trkpt lat="43.0645" lon="0.4839">
        <ele>462.2</ele>
        <time>2020-06-30T09:20:36Z</time>
      </trkpt>
      <trkpt lat="43.06449" lon="0.48389">
        <ele>462.2</ele>
        <time>2020-06-30T09:20:37Z</time>
      </trkpt>
      <trkpt lat="43.06447" lon="0.48387">
        <ele>462.4</ele>
        <time>2020-06-30T09:20:38Z</time>
      </trkpt>
      <trkpt lat="43.06446" lon="0.48386">
        <ele>462.6</ele>
        <time>2020-06-30T09:20:39Z</time>
      </trkpt>
      <trkpt lat="43.06445" lon="0.48384">
        <ele>462.8</ele>
        <time>2020-06-30T09:20:40Z</time>
      </trkpt>
      <trkpt lat="43.06443" lon="0.48382">
        <ele>463</ele>
        <time>2020-06-30T09:20:41Z</time>
      </trkpt>
      <trkpt lat="43.06441" lon="0.4838">
        <ele>463</ele>
        <time>2020-06-30T09:20:42Z</time>
      </trkpt>
      <trkpt lat="43.06439" lon="0.48378">
        <ele>463.2</ele>
        <time>2020-06-30T09:20:43Z</time>
      </trkpt>
      <trkpt lat="43.06438" lon="0.48377">
        <ele>463.2</ele>
        <time>2020-06-30T09:20:44Z</time>
      </trkpt>
      <trkpt lat="43.06437" lon="0.48375">
        <ele>463.4</ele>
        <time>2020-06-30T09:20:45Z</time>
      </trkpt>
      <trkpt lat="43.06436" lon="0.48373">
        <ele>463.6</ele>
        <time>2020-06-30T09:20:46Z</time>
      </trkpt>
      <trkpt lat="43.06435" lon="0.48372">
        <ele>463.8</ele>
        <time>2020-06-30T09:20:47Z</time>
      </trkpt>
      <trkpt lat="43.06434" lon="0.48369">
        <ele>463.8</ele>
        <time>2020-06-30T09:20:48Z</time>
      </trkpt>
      <trkpt lat="43.06432" lon="0.48368">
        <ele>464</ele>
        <time>2020-06-30T09:20:49Z</time>
      </trkpt>
      <trkpt lat="43.06431" lon="0.48366">
        <ele>464.2</ele>
        <time>2020-06-30T09:20:50Z</time>
      </trkpt>
      <trkpt lat="43.0643" lon="0.48364">
        <ele>464.2</ele>
        <time>2020-06-30T09:20:51Z</time>
      </trkpt>
      <trkpt lat="43.06429" lon="0.48362">
        <ele>464.4</ele>
        <time>2020-06-30T09:20:52Z</time>
      </trkpt>
      <trkpt lat="43.06428" lon="0.48359">
        <ele>464.4</ele>
        <time>2020-06-30T09:20:53Z</time>
      </trkpt>
      <trkpt lat="43.06426" lon="0.48358">
        <ele>464.6</ele>
        <time>2020-06-30T09:20:54Z</time>
      </trkpt>
      <trkpt lat="43.06424" lon="0.48355">
        <ele>464.6</ele>
        <time>2020-06-30T09:20:55Z</time>
      </trkpt>
      <trkpt lat="43.06422" lon="0.48353">
        <ele>464.6</ele>
        <time>2020-06-30T09:20:56Z</time>
      </trkpt>
      <trkpt lat="43.06421" lon="0.48351">
        <ele>464.8</ele>
        <time>2020-06-30T09:20:57Z</time>
      </trkpt>
      <trkpt lat="43.06421" lon="0.48349">
        <ele>465</ele>
        <time>2020-06-30T09:20:58Z</time>
      </trkpt>
      <trkpt lat="43.0642" lon="0.48347">
        <ele>465</ele>
        <time>2020-06-30T09:20:59Z</time>
      </trkpt>
      <trkpt lat="43.06419" lon="0.48344">
        <ele>465.2</ele>
        <time>2020-06-30T09:21:00Z</time>
      </trkpt>
      <trkpt lat="43.06418" lon="0.48341">
        <ele>465.2</ele>
        <time>2020-06-30T09:21:01Z</time>
      </trkpt>
      <trkpt lat="43.06417" lon="0.48338">
        <ele>465.2</ele>
        <time>2020-06-30T09:21:02Z</time>
      </trkpt>
      <trkpt lat="43.06415" lon="0.48336">
        <ele>465.4</ele>
        <time>2020-06-30T09:21:03Z</time>
      </trkpt>
      <trkpt lat="43.06414" lon="0.48333">
        <ele>465.4</ele>
        <time>2020-06-30T09:21:04Z</time>
      </trkpt>
      <trkpt lat="43.06413" lon="0.4833">
        <ele>465.4</ele>
        <time>2020-06-30T09:21:05Z</time>
      </trkpt>
      <trkpt lat="43.06412" lon="0.48327">
        <ele>465.6</ele>
        <time>2020-06-30T09:21:06Z</time>
      </trkpt>
      <trkpt lat="43.06411" lon="0.48326">
        <ele>465.6</ele>
        <time>2020-06-30T09:21:07Z</time>
      </trkpt>
      <trkpt lat="43.0641" lon="0.48323">
        <ele>465.6</ele>
        <time>2020-06-30T09:21:08Z</time>
      </trkpt>
      <trkpt lat="43.06409" lon="0.4832">
        <ele>465.8</ele>
        <time>2020-06-30T09:21:09Z</time>
      </trkpt>
      <trkpt lat="43.06408" lon="0.48317">
        <ele>465.8</ele>
        <time>2020-06-30T09:21:10Z</time>
      </trkpt>
      <trkpt lat="43.06407" lon="0.48313">
        <ele>466</ele>
        <time>2020-06-30T09:21:11Z</time>
      </trkpt>
      <trkpt lat="43.06406" lon="0.4831">
        <ele>466</ele>
        <time>2020-06-30T09:21:12Z</time>
      </trkpt>
      <trkpt lat="43.06405" lon="0.48307">
        <ele>466.2</ele>
        <time>2020-06-30T09:21:13Z</time>
      </trkpt>
      <trkpt lat="43.06404" lon="0.48304">
        <ele>466.2</ele>
        <time>2020-06-30T09:21:14Z</time>
      </trkpt>
      <trkpt lat="43.06403" lon="0.48301">
        <ele>466.2</ele>
        <time>2020-06-30T09:21:15Z</time>
      </trkpt>
      <trkpt lat="43.06402" lon="0.48299">
        <ele>466.4</ele>
        <time>2020-06-30T09:21:16Z</time>
      </trkpt>
      <trkpt lat="43.06401" lon="0.48297">
        <ele>466.4</ele>
        <time>2020-06-30T09:21:17Z</time>
      </trkpt>
      <trkpt lat="43.06399" lon="0.48293">
        <ele>466.6</ele>
        <time>2020-06-30T09:21:18Z</time>
      </trkpt>
      <trkpt lat="43.06398" lon="0.48291">
        <ele>466.6</ele>
        <time>2020-06-30T09:21:19Z</time>
      </trkpt>
      <trkpt lat="43.06397" lon="0.48289">
        <ele>466.6</ele>
        <time>2020-06-30T09:21:20Z</time>
      </trkpt>
      <trkpt lat="43.06396" lon="0.48287">
        <ele>466.8</ele>
        <time>2020-06-30T09:21:21Z</time>
      </trkpt>
      <trkpt lat="43.06396" lon="0.48285">
        <ele>466.8</ele>
        <time>2020-06-30T09:21:22Z</time>
      </trkpt>
      <trkpt lat="43.06396" lon="0.48283">
        <ele>466.8</ele>
        <time>2020-06-30T09:21:23Z</time>
      </trkpt>
      <trkpt lat="43.06396" lon="0.48281">
        <ele>467</ele>
        <time>2020-06-30T09:21:24Z</time>
      </trkpt>
      <trkpt lat="43.06395" lon="0.48279">
        <ele>467</ele>
        <time>2020-06-30T09:21:25Z</time>
      </trkpt>
      <trkpt lat="43.06393" lon="0.48276">
        <ele>467</ele>
        <time>2020-06-30T09:21:26Z</time>
      </trkpt>
      <trkpt lat="43.06391" lon="0.48274">
        <ele>467</ele>
        <time>2020-06-30T09:21:27Z</time>
      </trkpt>
      <trkpt lat="43.0639" lon="0.48271">
        <ele>467</ele>
        <time>2020-06-30T09:21:28Z</time>
      </trkpt>
      <trkpt lat="43.06389" lon="0.48268">
        <ele>467</ele>
        <time>2020-06-30T09:21:29Z</time>
      </trkpt>
      <trkpt lat="43.06389" lon="0.48264">
        <ele>467</ele>
        <time>2020-06-30T09:21:30Z</time>
      </trkpt>
      <trkpt lat="43.0639" lon="0.48261">
        <ele>467</ele>
        <time>2020-06-30T09:21:31Z</time>
      </trkpt>
      <trkpt lat="43.06389" lon="0.48256">
        <ele>467</ele>
        <time>2020-06-30T09:21:32Z</time>
      </trkpt>
      <trkpt lat="43.06389" lon="0.48254">
        <ele>467</ele>
        <time>2020-06-30T09:21:33Z</time>
      </trkpt>
      <trkpt lat="43.06388" lon="0.48251">
        <ele>467</ele>
        <time>2020-06-30T09:21:34Z</time>
      </trkpt>
      <trkpt lat="43.06389" lon="0.48248">
        <ele>467</ele>
        <time>2020-06-30T09:21:35Z</time>
      </trkpt>
      <trkpt lat="43.06389" lon="0.48247">
        <ele>467</ele>
        <time>2020-06-30T09:21:36Z</time>
      </trkpt>
      <trkpt lat="43.06389" lon="0.48246">
        <ele>467</ele>
        <time>2020-06-30T09:21:37Z</time>
      </trkpt>
      <trkpt lat="43.06389" lon="0.48245">
        <ele>467</ele>
        <time>2020-06-30T09:21:38Z</time>
      </trkpt>
      <trkpt lat="43.06389" lon="0.48246">
        <ele>467</ele>
        <time>2020-06-30T09:21:39Z</time>
      </trkpt>
      <trkpt lat="43.0639" lon="0.48247">
        <ele>467</ele>
        <time>2020-06-30T09:21:40Z</time>
      </trkpt>
      <trkpt lat="43.06392" lon="0.48248">
        <ele>467</ele>
        <time>2020-06-30T09:21:41Z</time>
      </trkpt>
      <trkpt lat="43.06392" lon="0.48248">
        <ele>467</ele>
        <time>2020-06-30T09:21:42Z</time>
      </trkpt>
      <trkpt lat="43.06392" lon="0.48248">
        <ele>467</ele>
        <time>2020-06-30T09:21:43Z</time>
      </trkpt>
      <trkpt lat="43.06392" lon="0.48249">
        <ele>466.8</ele>
        <time>2020-06-30T09:21:44Z</time>
      </trkpt>
      <trkpt lat="43.06392" lon="0.48248">
        <ele>466.8</ele>
        <time>2020-06-30T09:21:45Z</time>
      </trkpt>
      <trkpt lat="43.06392" lon="0.48248">
        <ele>467</ele>
        <time>2020-06-30T09:21:46Z</time>
      </trkpt>
      <trkpt lat="43.06391" lon="0.48245">
        <ele>466.4</ele>
        <time>2020-06-30T09:21:48Z</time>
      </trkpt>
      <trkpt lat="43.06391" lon="0.48245">
        <ele>466.6</ele>
        <time>2020-06-30T09:21:49Z</time>
      </trkpt>
      <trkpt lat="43.06392" lon="0.48242">
        <ele>466.8</ele>
        <time>2020-06-30T09:21:50Z</time>
      </trkpt>
      <trkpt lat="43.06392" lon="0.48241">
        <ele>466.6</ele>
        <time>2020-06-30T09:21:51Z</time>
      </trkpt>
      <trkpt lat="43.06393" lon="0.4824">
        <ele>466.8</ele>
        <time>2020-06-30T09:21:52Z</time>
      </trkpt>
      <trkpt lat="43.06393" lon="0.48236">
        <ele>467</ele>
        <time>2020-06-30T09:21:53Z</time>
      </trkpt>
      <trkpt lat="43.06393" lon="0.48234">
        <ele>467</ele>
        <time>2020-06-30T09:21:54Z</time>
      </trkpt>
      <trkpt lat="43.06393" lon="0.48232">
        <ele>466.6</ele>
        <time>2020-06-30T09:21:55Z</time>
      </trkpt>
      <trkpt lat="43.06394" lon="0.4823">
        <ele>467</ele>
        <time>2020-06-30T09:21:56Z</time>
      </trkpt>
      <trkpt lat="43.06394" lon="0.48228">
        <ele>466.8</ele>
        <time>2020-06-30T09:21:57Z</time>
      </trkpt>
      <trkpt lat="43.06393" lon="0.48223">
        <ele>466.6</ele>
        <time>2020-06-30T09:21:58Z</time>
      </trkpt>
      <trkpt lat="43.06393" lon="0.4822">
        <ele>467</ele>
        <time>2020-06-30T09:21:59Z</time>
      </trkpt>
      <trkpt lat="43.06394" lon="0.48218">
        <ele>467</ele>
        <time>2020-06-30T09:22:00Z</time>
      </trkpt>
      <trkpt lat="43.06394" lon="0.48216">
        <ele>466.8</ele>
        <time>2020-06-30T09:22:01Z</time>
      </trkpt>
      <trkpt lat="43.06395" lon="0.48215">
        <ele>466.8</ele>
        <time>2020-06-30T09:22:02Z</time>
      </trkpt>
      <trkpt lat="43.06396" lon="0.48212">
        <ele>466.6</ele>
        <time>2020-06-30T09:22:03Z</time>
      </trkpt>
      <trkpt lat="43.06396" lon="0.48208">
        <ele>466.8</ele>
        <time>2020-06-30T09:22:04Z</time>
      </trkpt>
      <trkpt lat="43.06396" lon="0.48208">
        <ele>466.4</ele>
        <time>2020-06-30T09:22:05Z</time>
      </trkpt>
      <trkpt lat="43.06395" lon="0.48206">
        <ele>467.2</ele>
        <time>2020-06-30T09:22:06Z</time>
      </trkpt>
      <trkpt lat="43.06395" lon="0.48206">
        <ele>466.8</ele>
        <time>2020-06-30T09:22:07Z</time>
      </trkpt>
      <trkpt lat="43.06396" lon="0.48205">
        <ele>466.2</ele>
        <time>2020-06-30T09:22:08Z</time>
      </trkpt>
      <trkpt lat="43.06396" lon="0.48205">
        <ele>466.4</ele>
        <time>2020-06-30T09:22:09Z</time>
      </trkpt>
      <trkpt lat="43.06396" lon="0.48204">
        <ele>466.6</ele>
        <time>2020-06-30T09:22:10Z</time>
      </trkpt>
      <trkpt lat="43.06397" lon="0.48204">
        <ele>466.2</ele>
        <time>2020-06-30T09:22:11Z</time>
      </trkpt>
      <trkpt lat="43.06398" lon="0.48203">
        <ele>466.4</ele>
        <time>2020-06-30T09:22:12Z</time>
      </trkpt>
      <trkpt lat="43.06398" lon="0.48202">
        <ele>466.4</ele>
        <time>2020-06-30T09:22:13Z</time>
      </trkpt>
      <trkpt lat="43.06398" lon="0.48201">
        <ele>466.6</ele>
        <time>2020-06-30T09:22:14Z</time>
      </trkpt>
      <trkpt lat="43.06399" lon="0.48201">
        <ele>466</ele>
        <time>2020-06-30T09:22:15Z</time>
      </trkpt>
      <trkpt lat="43.06399" lon="0.48199">
        <ele>465.8</ele>
        <time>2020-06-30T09:22:16Z</time>
      </trkpt>
      <trkpt lat="43.064" lon="0.48198">
        <ele>466.2</ele>
        <time>2020-06-30T09:22:17Z</time>
      </trkpt>
      <trkpt lat="43.06401" lon="0.48198">
        <ele>466.4</ele>
        <time>2020-06-30T09:22:18Z</time>
      </trkpt>
      <trkpt lat="43.06402" lon="0.48198">
        <ele>466.6</ele>
        <time>2020-06-30T09:22:19Z</time>
      </trkpt>
      <trkpt lat="43.06402" lon="0.48198">
        <ele>466.2</ele>
        <time>2020-06-30T09:22:20Z</time>
      </trkpt>
      <trkpt lat="43.06402" lon="0.48198">
        <ele>467.6</ele>
        <time>2020-06-30T09:22:21Z</time>
      </trkpt>
      <trkpt lat="43.06401" lon="0.48195">
        <ele>466.6</ele>
        <time>2020-06-30T09:22:22Z</time>
      </trkpt>
      <trkpt lat="43.06401" lon="0.48194">
        <ele>465.8</ele>
        <time>2020-06-30T09:22:23Z</time>
      </trkpt>
      <trkpt lat="43.064" lon="0.48194">
        <ele>465</ele>
        <time>2020-06-30T09:22:24Z</time>
      </trkpt>
      <trkpt lat="43.064" lon="0.48193">
        <ele>465</ele>
        <time>2020-06-30T09:22:25Z</time>
      </trkpt>
      <trkpt lat="43.064" lon="0.48192">
        <ele>466.4</ele>
        <time>2020-06-30T09:22:26Z</time>
      </trkpt>
      <trkpt lat="43.064" lon="0.48192">
        <ele>466.2</ele>
        <time>2020-06-30T09:22:27Z</time>
      </trkpt>
      <trkpt lat="43.06399" lon="0.48199">
        <ele>466.4</ele>
        <time>2020-06-30T09:22:48Z</time>
      </trkpt>
      <trkpt lat="43.06399" lon="0.48199">
        <ele>466.4</ele>
        <time>2020-06-30T09:22:49Z</time>
      </trkpt>
      <trkpt lat="43.06399" lon="0.48196">
        <ele>466.2</ele>
        <time>2020-06-30T09:22:50Z</time>
      </trkpt>
      <trkpt lat="43.06399" lon="0.48196">
        <ele>466.2</ele>
        <time>2020-06-30T09:22:51Z</time>
      </trkpt>
      <trkpt lat="43.06399" lon="0.48193">
        <ele>466.2</ele>
        <time>2020-06-30T09:22:52Z</time>
      </trkpt>
      <trkpt lat="43.064" lon="0.48193">
        <ele>466.2</ele>
        <time>2020-06-30T09:22:53Z</time>
      </trkpt>
      <trkpt lat="43.064" lon="0.48189">
        <ele>466.2</ele>
        <time>2020-06-30T09:22:54Z</time>
      </trkpt>
      <trkpt lat="43.06401" lon="0.48183">
        <ele>466.2</ele>
        <time>2020-06-30T09:22:55Z</time>
      </trkpt>
      <trkpt lat="43.06401" lon="0.48179">
        <ele>466.2</ele>
        <time>2020-06-30T09:22:56Z</time>
      </trkpt>
      <trkpt lat="43.06403" lon="0.48174">
        <ele>466.4</ele>
        <time>2020-06-30T09:22:57Z</time>
      </trkpt>
      <trkpt lat="43.06404" lon="0.48169">
        <ele>466.2</ele>
        <time>2020-06-30T09:22:58Z</time>
      </trkpt>
      <trkpt lat="43.06405" lon="0.48163">
        <ele>466.2</ele>
        <time>2020-06-30T09:22:59Z</time>
      </trkpt>
      <trkpt lat="43.06406" lon="0.4816">
        <ele>466.2</ele>
        <time>2020-06-30T09:23:00Z</time>
      </trkpt>
      <trkpt lat="43.06407" lon="0.48156">
        <ele>466.2</ele>
        <time>2020-06-30T09:23:01Z</time>
      </trkpt>
      <trkpt lat="43.06409" lon="0.48152">
        <ele>466.2</ele>
        <time>2020-06-30T09:23:02Z</time>
      </trkpt>
      <trkpt lat="43.0641" lon="0.48146">
        <ele>466.2</ele>
        <time>2020-06-30T09:23:03Z</time>
      </trkpt>
      <trkpt lat="43.06412" lon="0.4814">
        <ele>466.2</ele>
        <time>2020-06-30T09:23:04Z</time>
      </trkpt>
      <trkpt lat="43.06413" lon="0.48134">
        <ele>466.2</ele>
        <time>2020-06-30T09:23:05Z</time>
      </trkpt>
      <trkpt lat="43.06415" lon="0.48128">
        <ele>466.2</ele>
        <time>2020-06-30T09:23:06Z</time>
      </trkpt>
      <trkpt lat="43.06415" lon="0.48122">
        <ele>466.4</ele>
        <time>2020-06-30T09:23:07Z</time>
      </trkpt>
      <trkpt lat="43.06417" lon="0.48116">
        <ele>466.4</ele>
        <time>2020-06-30T09:23:08Z</time>
      </trkpt>
      <trkpt lat="43.06418" lon="0.48111">
        <ele>466.4</ele>
        <time>2020-06-30T09:23:09Z</time>
      </trkpt>
      <trkpt lat="43.0642" lon="0.48106">
        <ele>466.4</ele>
        <time>2020-06-30T09:23:10Z</time>
      </trkpt>
      <trkpt lat="43.06421" lon="0.48101">
        <ele>466.4</ele>
        <time>2020-06-30T09:23:11Z</time>
      </trkpt>
      <trkpt lat="43.06423" lon="0.48095">
        <ele>466.6</ele>
        <time>2020-06-30T09:23:12Z</time>
      </trkpt>
      <trkpt lat="43.06425" lon="0.48088">
        <ele>466.6</ele>
        <time>2020-06-30T09:23:13Z</time>
      </trkpt>
      <trkpt lat="43.06426" lon="0.48083">
        <ele>466.6</ele>
        <time>2020-06-30T09:23:14Z</time>
      </trkpt>
      <trkpt lat="43.06427" lon="0.48079">
        <ele>466.6</ele>
        <time>2020-06-30T09:23:15Z</time>
      </trkpt>
      <trkpt lat="43.06428" lon="0.48075">
        <ele>466.6</ele>
        <time>2020-06-30T09:23:16Z</time>
      </trkpt>
      <trkpt lat="43.0643" lon="0.48069">
        <ele>466.6</ele>
        <time>2020-06-30T09:23:17Z</time>
      </trkpt>
      <trkpt lat="43.06431" lon="0.48062">
        <ele>466.8</ele>
        <time>2020-06-30T09:23:18Z</time>
      </trkpt>
      <trkpt lat="43.06433" lon="0.48056">
        <ele>466.8</ele>
        <time>2020-06-30T09:23:19Z</time>
      </trkpt>
      <trkpt lat="43.06434" lon="0.48051">
        <ele>466.8</ele>
        <time>2020-06-30T09:23:20Z</time>
      </trkpt>
      <trkpt lat="43.06435" lon="0.48045">
        <ele>467</ele>
        <time>2020-06-30T09:23:21Z</time>
      </trkpt>
      <trkpt lat="43.06436" lon="0.4804">
        <ele>467</ele>
        <time>2020-06-30T09:23:22Z</time>
      </trkpt>
      <trkpt lat="43.06436" lon="0.48035">
        <ele>467.2</ele>
        <time>2020-06-30T09:23:23Z</time>
      </trkpt>
      <trkpt lat="43.06438" lon="0.4803">
        <ele>467.2</ele>
        <time>2020-06-30T09:23:24Z</time>
      </trkpt>
      <trkpt lat="43.06438" lon="0.48025">
        <ele>467.4</ele>
        <time>2020-06-30T09:23:25Z</time>
      </trkpt>
      <trkpt lat="43.0644" lon="0.4802">
        <ele>467.4</ele>
        <time>2020-06-30T09:23:26Z</time>
      </trkpt>
      <trkpt lat="43.06441" lon="0.48016">
        <ele>467.6</ele>
        <time>2020-06-30T09:23:27Z</time>
      </trkpt>
      <trkpt lat="43.06441" lon="0.48011">
        <ele>467.8</ele>
        <time>2020-06-30T09:23:28Z</time>
      </trkpt>
      <trkpt lat="43.06443" lon="0.48006">
        <ele>467.8</ele>
        <time>2020-06-30T09:23:29Z</time>
      </trkpt>
      <trkpt lat="43.06444" lon="0.48001">
        <ele>468</ele>
        <time>2020-06-30T09:23:30Z</time>
      </trkpt>
      <trkpt lat="43.06445" lon="0.47996">
        <ele>468</ele>
        <time>2020-06-30T09:23:31Z</time>
      </trkpt>
      <trkpt lat="43.06446" lon="0.47991">
        <ele>468</ele>
        <time>2020-06-30T09:23:32Z</time>
      </trkpt>
      <trkpt lat="43.06447" lon="0.47987">
        <ele>468.2</ele>
        <time>2020-06-30T09:23:33Z</time>
      </trkpt>
      <trkpt lat="43.06447" lon="0.47981">
        <ele>468.2</ele>
        <time>2020-06-30T09:23:34Z</time>
      </trkpt>
      <trkpt lat="43.06448" lon="0.47976">
        <ele>468.2</ele>
        <time>2020-06-30T09:23:35Z</time>
      </trkpt>
      <trkpt lat="43.0645" lon="0.47971">
        <ele>468.4</ele>
        <time>2020-06-30T09:23:36Z</time>
      </trkpt>
      <trkpt lat="43.06451" lon="0.47966">
        <ele>468.4</ele>
        <time>2020-06-30T09:23:37Z</time>
      </trkpt>
      <trkpt lat="43.06453" lon="0.4796">
        <ele>468.6</ele>
        <time>2020-06-30T09:23:38Z</time>
      </trkpt>
      <trkpt lat="43.06454" lon="0.47955">
        <ele>468.8</ele>
        <time>2020-06-30T09:23:39Z</time>
      </trkpt>
      <trkpt lat="43.06455" lon="0.4795">
        <ele>468.8</ele>
        <time>2020-06-30T09:23:40Z</time>
      </trkpt>
      <trkpt lat="43.06455" lon="0.47945">
        <ele>469</ele>
        <time>2020-06-30T09:23:41Z</time>
      </trkpt>
      <trkpt lat="43.06456" lon="0.47939">
        <ele>469</ele>
        <time>2020-06-30T09:23:42Z</time>
      </trkpt>
      <trkpt lat="43.06458" lon="0.47934">
        <ele>469</ele>
        <time>2020-06-30T09:23:43Z</time>
      </trkpt>
      <trkpt lat="43.06459" lon="0.47929">
        <ele>469.2</ele>
        <time>2020-06-30T09:23:44Z</time>
      </trkpt>
      <trkpt lat="43.0646" lon="0.47924">
        <ele>469.2</ele>
        <time>2020-06-30T09:23:45Z</time>
      </trkpt>
      <trkpt lat="43.06462" lon="0.4792">
        <ele>469.2</ele>
        <time>2020-06-30T09:23:46Z</time>
      </trkpt>
      <trkpt lat="43.06463" lon="0.47916">
        <ele>469.2</ele>
        <time>2020-06-30T09:23:47Z</time>
      </trkpt>
      <trkpt lat="43.06465" lon="0.47911">
        <ele>469.2</ele>
        <time>2020-06-30T09:23:48Z</time>
      </trkpt>
      <trkpt lat="43.06467" lon="0.47905">
        <ele>469.2</ele>
        <time>2020-06-30T09:23:49Z</time>
      </trkpt>
      <trkpt lat="43.06469" lon="0.479">
        <ele>469.4</ele>
        <time>2020-06-30T09:23:50Z</time>
      </trkpt>
      <trkpt lat="43.06472" lon="0.47896">
        <ele>469.4</ele>
        <time>2020-06-30T09:23:51Z</time>
      </trkpt>
      <trkpt lat="43.06474" lon="0.47892">
        <ele>469.4</ele>
        <time>2020-06-30T09:23:52Z</time>
      </trkpt>
      <trkpt lat="43.06477" lon="0.47888">
        <ele>469.4</ele>
        <time>2020-06-30T09:23:53Z</time>
      </trkpt>
      <trkpt lat="43.06478" lon="0.47883">
        <ele>469.4</ele>
        <time>2020-06-30T09:23:54Z</time>
      </trkpt>
      <trkpt lat="43.06481" lon="0.47877">
        <ele>469.4</ele>
        <time>2020-06-30T09:23:55Z</time>
      </trkpt>
      <trkpt lat="43.06486" lon="0.47869">
        <ele>469.4</ele>
        <time>2020-06-30T09:23:56Z</time>
      </trkpt>
      <trkpt lat="43.06486" lon="0.47869">
        <ele>469.4</ele>
        <time>2020-06-30T09:23:57Z</time>
      </trkpt>
      <trkpt lat="43.06488" lon="0.47864">
        <ele>469.4</ele>
        <time>2020-06-30T09:23:58Z</time>
      </trkpt>
      <trkpt lat="43.0649" lon="0.47859">
        <ele>469.6</ele>
        <time>2020-06-30T09:23:59Z</time>
      </trkpt>
      <trkpt lat="43.06493" lon="0.47853">
        <ele>469.6</ele>
        <time>2020-06-30T09:24:00Z</time>
      </trkpt>
      <trkpt lat="43.06495" lon="0.47849">
        <ele>469.6</ele>
        <time>2020-06-30T09:24:01Z</time>
      </trkpt>
      <trkpt lat="43.06497" lon="0.47844">
        <ele>469.6</ele>
        <time>2020-06-30T09:24:02Z</time>
      </trkpt>
      <trkpt lat="43.06499" lon="0.47839">
        <ele>469.6</ele>
        <time>2020-06-30T09:24:03Z</time>
      </trkpt>
      <trkpt lat="43.06502" lon="0.47834">
        <ele>469.6</ele>
        <time>2020-06-30T09:24:04Z</time>
      </trkpt>
      <trkpt lat="43.06504" lon="0.47829">
        <ele>469.6</ele>
        <time>2020-06-30T09:24:05Z</time>
      </trkpt>
      <trkpt lat="43.06506" lon="0.47824">
        <ele>469.6</ele>
        <time>2020-06-30T09:24:06Z</time>
      </trkpt>
      <trkpt lat="43.06508" lon="0.47818">
        <ele>469.8</ele>
        <time>2020-06-30T09:24:07Z</time>
      </trkpt>
      <trkpt lat="43.06511" lon="0.47813">
        <ele>469.8</ele>
        <time>2020-06-30T09:24:08Z</time>
      </trkpt>
      <trkpt lat="43.06514" lon="0.47808">
        <ele>469.8</ele>
        <time>2020-06-30T09:24:09Z</time>
      </trkpt>
      <trkpt lat="43.06516" lon="0.47802">
        <ele>469.8</ele>
        <time>2020-06-30T09:24:10Z</time>
      </trkpt>
      <trkpt lat="43.06519" lon="0.47796">
        <ele>469.8</ele>
        <time>2020-06-30T09:24:11Z</time>
      </trkpt>
      <trkpt lat="43.06522" lon="0.4779">
        <ele>469.8</ele>
        <time>2020-06-30T09:24:12Z</time>
      </trkpt>
      <trkpt lat="43.06525" lon="0.47785">
        <ele>469.8</ele>
        <time>2020-06-30T09:24:13Z</time>
      </trkpt>
      <trkpt lat="43.06528" lon="0.47779">
        <ele>469.8</ele>
        <time>2020-06-30T09:24:14Z</time>
      </trkpt>
      <trkpt lat="43.06531" lon="0.47774">
        <ele>469.8</ele>
        <time>2020-06-30T09:24:15Z</time>
      </trkpt>
      <trkpt lat="43.06533" lon="0.47768">
        <ele>470</ele>
        <time>2020-06-30T09:24:16Z</time>
      </trkpt>
      <trkpt lat="43.06537" lon="0.47763">
        <ele>470</ele>
        <time>2020-06-30T09:24:17Z</time>
      </trkpt>
      <trkpt lat="43.0654" lon="0.47757">
        <ele>470</ele>
        <time>2020-06-30T09:24:18Z</time>
      </trkpt>
      <trkpt lat="43.06544" lon="0.47752">
        <ele>470</ele>
        <time>2020-06-30T09:24:19Z</time>
      </trkpt>
      <trkpt lat="43.06547" lon="0.47747">
        <ele>469.8</ele>
        <time>2020-06-30T09:24:20Z</time>
      </trkpt>
      <trkpt lat="43.0655" lon="0.47741">
        <ele>469.8</ele>
        <time>2020-06-30T09:24:21Z</time>
      </trkpt>
      <trkpt lat="43.06553" lon="0.47735">
        <ele>469.8</ele>
        <time>2020-06-30T09:24:22Z</time>
      </trkpt>
      <trkpt lat="43.06556" lon="0.47729">
        <ele>469.8</ele>
        <time>2020-06-30T09:24:23Z</time>
      </trkpt>
      <trkpt lat="43.06559" lon="0.47723">
        <ele>469.8</ele>
        <time>2020-06-30T09:24:24Z</time>
      </trkpt>
      <trkpt lat="43.06562" lon="0.47717">
        <ele>469.8</ele>
        <time>2020-06-30T09:24:25Z</time>
      </trkpt>
      <trkpt lat="43.06565" lon="0.47711">
        <ele>469.6</ele>
        <time>2020-06-30T09:24:26Z</time>
      </trkpt>
      <trkpt lat="43.06568" lon="0.47705">
        <ele>469.6</ele>
        <time>2020-06-30T09:24:27Z</time>
      </trkpt>
      <trkpt lat="43.06571" lon="0.47699">
        <ele>469.6</ele>
        <time>2020-06-30T09:24:28Z</time>
      </trkpt>
      <trkpt lat="43.06577" lon="0.47686">
        <ele>469.6</ele>
        <time>2020-06-30T09:24:29Z</time>
      </trkpt>
      <trkpt lat="43.06577" lon="0.47686">
        <ele>469.6</ele>
        <time>2020-06-30T09:24:30Z</time>
      </trkpt>
      <trkpt lat="43.0658" lon="0.4768">
        <ele>469.4</ele>
        <time>2020-06-30T09:24:31Z</time>
      </trkpt>
      <trkpt lat="43.06583" lon="0.47674">
        <ele>469.4</ele>
        <time>2020-06-30T09:24:32Z</time>
      </trkpt>
      <trkpt lat="43.06586" lon="0.47667">
        <ele>469.2</ele>
        <time>2020-06-30T09:24:33Z</time>
      </trkpt>
      <trkpt lat="43.06589" lon="0.47661">
        <ele>469.2</ele>
        <time>2020-06-30T09:24:34Z</time>
      </trkpt>
      <trkpt lat="43.06591" lon="0.47656">
        <ele>469.2</ele>
        <time>2020-06-30T09:24:35Z</time>
      </trkpt>
      <trkpt lat="43.06594" lon="0.47649">
        <ele>469.2</ele>
        <time>2020-06-30T09:24:36Z</time>
      </trkpt>
      <trkpt lat="43.06597" lon="0.47643">
        <ele>469.2</ele>
        <time>2020-06-30T09:24:37Z</time>
      </trkpt>
      <trkpt lat="43.066" lon="0.47636">
        <ele>469.2</ele>
        <time>2020-06-30T09:24:38Z</time>
      </trkpt>
      <trkpt lat="43.06603" lon="0.47631">
        <ele>469.2</ele>
        <time>2020-06-30T09:24:39Z</time>
      </trkpt>
      <trkpt lat="43.06606" lon="0.47625">
        <ele>469.2</ele>
        <time>2020-06-30T09:24:40Z</time>
      </trkpt>
      <trkpt lat="43.06609" lon="0.47619">
        <ele>469.2</ele>
        <time>2020-06-30T09:24:41Z</time>
      </trkpt>
      <trkpt lat="43.06612" lon="0.47612">
        <ele>469.2</ele>
        <time>2020-06-30T09:24:42Z</time>
      </trkpt>
      <trkpt lat="43.06615" lon="0.47607">
        <ele>469</ele>
        <time>2020-06-30T09:24:43Z</time>
      </trkpt>
      <trkpt lat="43.06617" lon="0.47601">
        <ele>469.2</ele>
        <time>2020-06-30T09:24:44Z</time>
      </trkpt>
      <trkpt lat="43.0662" lon="0.47596">
        <ele>469</ele>
        <time>2020-06-30T09:24:45Z</time>
      </trkpt>
      <trkpt lat="43.06623" lon="0.47589">
        <ele>469</ele>
        <time>2020-06-30T09:24:46Z</time>
      </trkpt>
      <trkpt lat="43.06626" lon="0.47583">
        <ele>469</ele>
        <time>2020-06-30T09:24:47Z</time>
      </trkpt>
      <trkpt lat="43.06629" lon="0.47576">
        <ele>469</ele>
        <time>2020-06-30T09:24:48Z</time>
      </trkpt>
      <trkpt lat="43.06631" lon="0.4757">
        <ele>468.8</ele>
        <time>2020-06-30T09:24:49Z</time>
      </trkpt>
      <trkpt lat="43.06634" lon="0.47563">
        <ele>468.8</ele>
        <time>2020-06-30T09:24:50Z</time>
      </trkpt>
      <trkpt lat="43.06637" lon="0.47557">
        <ele>468.6</ele>
        <time>2020-06-30T09:24:51Z</time>
      </trkpt>
      <trkpt lat="43.06639" lon="0.4755">
        <ele>468.6</ele>
        <time>2020-06-30T09:24:52Z</time>
      </trkpt>
      <trkpt lat="43.06641" lon="0.47543">
        <ele>468.4</ele>
        <time>2020-06-30T09:24:53Z</time>
      </trkpt>
      <trkpt lat="43.06644" lon="0.47535">
        <ele>468.2</ele>
        <time>2020-06-30T09:24:54Z</time>
      </trkpt>
      <trkpt lat="43.06645" lon="0.47527">
        <ele>468</ele>
        <time>2020-06-30T09:24:55Z</time>
      </trkpt>
      <trkpt lat="43.06647" lon="0.47521">
        <ele>467.8</ele>
        <time>2020-06-30T09:24:56Z</time>
      </trkpt>
      <trkpt lat="43.06649" lon="0.47513">
        <ele>467.4</ele>
        <time>2020-06-30T09:24:57Z</time>
      </trkpt>
      <trkpt lat="43.06649" lon="0.47502">
        <ele>467.2</ele>
        <time>2020-06-30T09:24:58Z</time>
      </trkpt>
      <trkpt lat="43.06649" lon="0.47491">
        <ele>466.8</ele>
        <time>2020-06-30T09:24:59Z</time>
      </trkpt>
      <trkpt lat="43.06647" lon="0.47471">
        <ele>466.6</ele>
        <time>2020-06-30T09:25:00Z</time>
      </trkpt>
      <trkpt lat="43.06647" lon="0.47471">
        <ele>466.4</ele>
        <time>2020-06-30T09:25:01Z</time>
      </trkpt>
      <trkpt lat="43.06645" lon="0.47462">
        <ele>466.2</ele>
        <time>2020-06-30T09:25:02Z</time>
      </trkpt>
      <trkpt lat="43.06643" lon="0.47454">
        <ele>466.2</ele>
        <time>2020-06-30T09:25:03Z</time>
      </trkpt>
      <trkpt lat="43.06641" lon="0.47446">
        <ele>466</ele>
        <time>2020-06-30T09:25:04Z</time>
      </trkpt>
      <trkpt lat="43.06639" lon="0.47436">
        <ele>465.8</ele>
        <time>2020-06-30T09:25:05Z</time>
      </trkpt>
      <trkpt lat="43.06636" lon="0.47426">
        <ele>465.6</ele>
        <time>2020-06-30T09:25:06Z</time>
      </trkpt>
      <trkpt lat="43.06635" lon="0.47417">
        <ele>465.4</ele>
        <time>2020-06-30T09:25:07Z</time>
      </trkpt>
      <trkpt lat="43.06633" lon="0.47407">
        <ele>465.4</ele>
        <time>2020-06-30T09:25:08Z</time>
      </trkpt>
      <trkpt lat="43.06631" lon="0.47397">
        <ele>465.2</ele>
        <time>2020-06-30T09:25:09Z</time>
      </trkpt>
      <trkpt lat="43.06629" lon="0.47388">
        <ele>464.8</ele>
        <time>2020-06-30T09:25:10Z</time>
      </trkpt>
      <trkpt lat="43.06627" lon="0.47378">
        <ele>464.8</ele>
        <time>2020-06-30T09:25:11Z</time>
      </trkpt>
      <trkpt lat="43.06624" lon="0.47368">
        <ele>464.4</ele>
        <time>2020-06-30T09:25:12Z</time>
      </trkpt>
      <trkpt lat="43.06621" lon="0.47359">
        <ele>464.2</ele>
        <time>2020-06-30T09:25:13Z</time>
      </trkpt>
      <trkpt lat="43.06618" lon="0.47351">
        <ele>464.4</ele>
        <time>2020-06-30T09:25:14Z</time>
      </trkpt>
      <trkpt lat="43.06615" lon="0.47341">
        <ele>464.2</ele>
        <time>2020-06-30T09:25:15Z</time>
      </trkpt>
      <trkpt lat="43.06613" lon="0.47331">
        <ele>464.2</ele>
        <time>2020-06-30T09:25:16Z</time>
      </trkpt>
      <trkpt lat="43.06608" lon="0.47314">
        <ele>464</ele>
        <time>2020-06-30T09:25:17Z</time>
      </trkpt>
      <trkpt lat="43.06608" lon="0.47314">
        <ele>464</ele>
        <time>2020-06-30T09:25:18Z</time>
      </trkpt>
      <trkpt lat="43.06606" lon="0.47306">
        <ele>464</ele>
        <time>2020-06-30T09:25:19Z</time>
      </trkpt>
      <trkpt lat="43.06604" lon="0.47297">
        <ele>463.8</ele>
        <time>2020-06-30T09:25:20Z</time>
      </trkpt>
      <trkpt lat="43.06602" lon="0.47288">
        <ele>463.6</ele>
        <time>2020-06-30T09:25:21Z</time>
      </trkpt>
      <trkpt lat="43.06599" lon="0.47279">
        <ele>463.6</ele>
        <time>2020-06-30T09:25:22Z</time>
      </trkpt>
      <trkpt lat="43.06598" lon="0.47271">
        <ele>463.4</ele>
        <time>2020-06-30T09:25:23Z</time>
      </trkpt>
      <trkpt lat="43.06596" lon="0.47262">
        <ele>463.8</ele>
        <time>2020-06-30T09:25:24Z</time>
      </trkpt>
      <trkpt lat="43.06594" lon="0.47255">
        <ele>463.8</ele>
        <time>2020-06-30T09:25:25Z</time>
      </trkpt>
      <trkpt lat="43.06592" lon="0.47245">
        <ele>463.8</ele>
        <time>2020-06-30T09:25:26Z</time>
      </trkpt>
      <trkpt lat="43.06591" lon="0.47237">
        <ele>464</ele>
        <time>2020-06-30T09:25:27Z</time>
      </trkpt>
      <trkpt lat="43.0659" lon="0.4723">
        <ele>464</ele>
        <time>2020-06-30T09:25:28Z</time>
      </trkpt>
      <trkpt lat="43.06588" lon="0.47215">
        <ele>463.8</ele>
        <time>2020-06-30T09:25:29Z</time>
      </trkpt>
      <trkpt lat="43.06588" lon="0.47215">
        <ele>463.8</ele>
        <time>2020-06-30T09:25:30Z</time>
      </trkpt>
      <trkpt lat="43.06586" lon="0.472">
        <ele>463.6</ele>
        <time>2020-06-30T09:25:31Z</time>
      </trkpt>
      <trkpt lat="43.06586" lon="0.472">
        <ele>463.6</ele>
        <time>2020-06-30T09:25:32Z</time>
      </trkpt>
      <trkpt lat="43.06585" lon="0.47191">
        <ele>463.6</ele>
        <time>2020-06-30T09:25:33Z</time>
      </trkpt>
      <trkpt lat="43.06585" lon="0.47184">
        <ele>463.6</ele>
        <time>2020-06-30T09:25:34Z</time>
      </trkpt>
      <trkpt lat="43.06585" lon="0.47176">
        <ele>463.8</ele>
        <time>2020-06-30T09:25:35Z</time>
      </trkpt>
      <trkpt lat="43.06586" lon="0.4717">
        <ele>463.6</ele>
        <time>2020-06-30T09:25:36Z</time>
      </trkpt>
      <trkpt lat="43.06587" lon="0.47163">
        <ele>463.6</ele>
        <time>2020-06-30T09:25:37Z</time>
      </trkpt>
      <trkpt lat="43.06588" lon="0.4715">
        <ele>463.6</ele>
        <time>2020-06-30T09:25:38Z</time>
      </trkpt>
      <trkpt lat="43.06588" lon="0.4715">
        <ele>463.8</ele>
        <time>2020-06-30T09:25:39Z</time>
      </trkpt>
      <trkpt lat="43.06589" lon="0.47135">
        <ele>463.8</ele>
        <time>2020-06-30T09:25:40Z</time>
      </trkpt>
      <trkpt lat="43.06589" lon="0.47135">
        <ele>463.8</ele>
        <time>2020-06-30T09:25:41Z</time>
      </trkpt>
      <trkpt lat="43.06587" lon="0.47119">
        <ele>463.8</ele>
        <time>2020-06-30T09:25:42Z</time>
      </trkpt>
      <trkpt lat="43.06587" lon="0.47113">
        <ele>463.8</ele>
        <time>2020-06-30T09:25:43Z</time>
      </trkpt>
      <trkpt lat="43.06587" lon="0.47113">
        <ele>463.8</ele>
        <time>2020-06-30T09:25:44Z</time>
      </trkpt>
      <trkpt lat="43.06587" lon="0.47106">
        <ele>463.8</ele>
        <time>2020-06-30T09:25:45Z</time>
      </trkpt>
      <trkpt lat="43.06584" lon="0.47099">
        <ele>463.6</ele>
        <time>2020-06-30T09:25:46Z</time>
      </trkpt>
      <trkpt lat="43.06584" lon="0.47091">
        <ele>463.6</ele>
        <time>2020-06-30T09:25:47Z</time>
      </trkpt>
      <trkpt lat="43.06582" lon="0.47085">
        <ele>463.4</ele>
        <time>2020-06-30T09:25:48Z</time>
      </trkpt>
      <trkpt lat="43.06579" lon="0.47078">
        <ele>463.2</ele>
        <time>2020-06-30T09:25:49Z</time>
      </trkpt>
      <trkpt lat="43.06577" lon="0.47071">
        <ele>463</ele>
        <time>2020-06-30T09:25:50Z</time>
      </trkpt>
      <trkpt lat="43.06575" lon="0.47064">
        <ele>462.8</ele>
        <time>2020-06-30T09:25:51Z</time>
      </trkpt>
      <trkpt lat="43.06574" lon="0.47057">
        <ele>462.6</ele>
        <time>2020-06-30T09:25:52Z</time>
      </trkpt>
      <trkpt lat="43.06573" lon="0.47049">
        <ele>462.4</ele>
        <time>2020-06-30T09:25:53Z</time>
      </trkpt>
      <trkpt lat="43.06569" lon="0.47031">
        <ele>462.2</ele>
        <time>2020-06-30T09:25:54Z</time>
      </trkpt>
      <trkpt lat="43.06569" lon="0.47021">
        <ele>462</ele>
        <time>2020-06-30T09:25:55Z</time>
      </trkpt>
      <trkpt lat="43.06569" lon="0.47021">
        <ele>462</ele>
        <time>2020-06-30T09:25:56Z</time>
      </trkpt>
      <trkpt lat="43.06568" lon="0.47012">
        <ele>462</ele>
        <time>2020-06-30T09:25:57Z</time>
      </trkpt>
      <trkpt lat="43.06569" lon="0.47002">
        <ele>462</ele>
        <time>2020-06-30T09:25:58Z</time>
      </trkpt>
      <trkpt lat="43.06569" lon="0.46993">
        <ele>462</ele>
        <time>2020-06-30T09:25:59Z</time>
      </trkpt>
      <trkpt lat="43.06571" lon="0.46977">
        <ele>462.2</ele>
        <time>2020-06-30T09:26:00Z</time>
      </trkpt>
      <trkpt lat="43.06571" lon="0.46977">
        <ele>462.2</ele>
        <time>2020-06-30T09:26:01Z</time>
      </trkpt>
      <trkpt lat="43.06571" lon="0.46967">
        <ele>462.2</ele>
        <time>2020-06-30T09:26:02Z</time>
      </trkpt>
      <trkpt lat="43.06571" lon="0.46959">
        <ele>462.2</ele>
        <time>2020-06-30T09:26:03Z</time>
      </trkpt>
      <trkpt lat="43.06571" lon="0.46949">
        <ele>462.2</ele>
        <time>2020-06-30T09:26:04Z</time>
      </trkpt>
      <trkpt lat="43.06571" lon="0.4694">
        <ele>462.2</ele>
        <time>2020-06-30T09:26:05Z</time>
      </trkpt>
      <trkpt lat="43.06572" lon="0.46922">
        <ele>462.2</ele>
        <time>2020-06-30T09:26:06Z</time>
      </trkpt>
      <trkpt lat="43.06572" lon="0.46922">
        <ele>462.2</ele>
        <time>2020-06-30T09:26:07Z</time>
      </trkpt>
      <trkpt lat="43.06571" lon="0.46914">
        <ele>462.4</ele>
        <time>2020-06-30T09:26:08Z</time>
      </trkpt>
      <trkpt lat="43.06571" lon="0.46906">
        <ele>462.2</ele>
        <time>2020-06-30T09:26:09Z</time>
      </trkpt>
      <trkpt lat="43.06572" lon="0.46898">
        <ele>462.2</ele>
        <time>2020-06-30T09:26:10Z</time>
      </trkpt>
      <trkpt lat="43.06572" lon="0.4689">
        <ele>462</ele>
        <time>2020-06-30T09:26:11Z</time>
      </trkpt>
      <trkpt lat="43.06573" lon="0.46881">
        <ele>462</ele>
        <time>2020-06-30T09:26:12Z</time>
      </trkpt>
      <trkpt lat="43.06573" lon="0.46873">
        <ele>462</ele>
        <time>2020-06-30T09:26:13Z</time>
      </trkpt>
      <trkpt lat="43.06574" lon="0.46866">
        <ele>462</ele>
        <time>2020-06-30T09:26:14Z</time>
      </trkpt>
      <trkpt lat="43.06574" lon="0.46857">
        <ele>461.8</ele>
        <time>2020-06-30T09:26:15Z</time>
      </trkpt>
      <trkpt lat="43.06574" lon="0.4684">
        <ele>461.6</ele>
        <time>2020-06-30T09:26:16Z</time>
      </trkpt>
      <trkpt lat="43.06574" lon="0.46832">
        <ele>461.6</ele>
        <time>2020-06-30T09:26:17Z</time>
      </trkpt>
      <trkpt lat="43.06575" lon="0.46824">
        <ele>461.6</ele>
        <time>2020-06-30T09:26:18Z</time>
      </trkpt>
      <trkpt lat="43.06575" lon="0.46824">
        <ele>461.4</ele>
        <time>2020-06-30T09:26:19Z</time>
      </trkpt>
      <trkpt lat="43.06576" lon="0.46817">
        <ele>461.4</ele>
        <time>2020-06-30T09:26:20Z</time>
      </trkpt>
      <trkpt lat="43.06576" lon="0.46807">
        <ele>461.4</ele>
        <time>2020-06-30T09:26:21Z</time>
      </trkpt>
      <trkpt lat="43.06576" lon="0.46799">
        <ele>461.4</ele>
        <time>2020-06-30T09:26:22Z</time>
      </trkpt>
      <trkpt lat="43.06577" lon="0.46782">
        <ele>461.4</ele>
        <time>2020-06-30T09:26:23Z</time>
      </trkpt>
      <trkpt lat="43.06578" lon="0.46774">
        <ele>461.4</ele>
        <time>2020-06-30T09:26:24Z</time>
      </trkpt>
      <trkpt lat="43.06578" lon="0.46774">
        <ele>461.2</ele>
        <time>2020-06-30T09:26:25Z</time>
      </trkpt>
      <trkpt lat="43.06578" lon="0.46765">
        <ele>461.2</ele>
        <time>2020-06-30T09:26:26Z</time>
      </trkpt>
      <trkpt lat="43.06578" lon="0.46756">
        <ele>461.2</ele>
        <time>2020-06-30T09:26:27Z</time>
      </trkpt>
      <trkpt lat="43.06579" lon="0.46736">
        <ele>461.2</ele>
        <time>2020-06-30T09:26:28Z</time>
      </trkpt>
      <trkpt lat="43.06579" lon="0.46736">
        <ele>461.2</ele>
        <time>2020-06-30T09:26:29Z</time>
      </trkpt>
      <trkpt lat="43.06579" lon="0.4672">
        <ele>461</ele>
        <time>2020-06-30T09:26:30Z</time>
      </trkpt>
      <trkpt lat="43.06579" lon="0.4672">
        <ele>461</ele>
        <time>2020-06-30T09:26:31Z</time>
      </trkpt>
      <trkpt lat="43.06579" lon="0.46712">
        <ele>461</ele>
        <time>2020-06-30T09:26:32Z</time>
      </trkpt>
      <trkpt lat="43.0658" lon="0.46704">
        <ele>461</ele>
        <time>2020-06-30T09:26:33Z</time>
      </trkpt>
      <trkpt lat="43.06582" lon="0.46689">
        <ele>460.8</ele>
        <time>2020-06-30T09:26:34Z</time>
      </trkpt>
      <trkpt lat="43.06582" lon="0.46689">
        <ele>460.8</ele>
        <time>2020-06-30T09:26:35Z</time>
      </trkpt>
      <trkpt lat="43.06584" lon="0.46673">
        <ele>460.6</ele>
        <time>2020-06-30T09:26:36Z</time>
      </trkpt>
      <trkpt lat="43.06584" lon="0.46673">
        <ele>460.6</ele>
        <time>2020-06-30T09:26:37Z</time>
      </trkpt>
      <trkpt lat="43.06584" lon="0.46656">
        <ele>460.4</ele>
        <time>2020-06-30T09:26:38Z</time>
      </trkpt>
      <trkpt lat="43.06584" lon="0.46649">
        <ele>460.2</ele>
        <time>2020-06-30T09:26:39Z</time>
      </trkpt>
      <trkpt lat="43.06584" lon="0.46639">
        <ele>460.2</ele>
        <time>2020-06-30T09:26:40Z</time>
      </trkpt>
      <trkpt lat="43.06584" lon="0.46639">
        <ele>460</ele>
        <time>2020-06-30T09:26:41Z</time>
      </trkpt>
      <trkpt lat="43.06583" lon="0.46631">
        <ele>460</ele>
        <time>2020-06-30T09:26:42Z</time>
      </trkpt>
      <trkpt lat="43.06583" lon="0.46614">
        <ele>459.8</ele>
        <time>2020-06-30T09:26:43Z</time>
      </trkpt>
      <trkpt lat="43.06582" lon="0.46606">
        <ele>459.6</ele>
        <time>2020-06-30T09:26:44Z</time>
      </trkpt>
      <trkpt lat="43.06582" lon="0.46606">
        <ele>459.6</ele>
        <time>2020-06-30T09:26:45Z</time>
      </trkpt>
      <trkpt lat="43.0658" lon="0.46589">
        <ele>459.6</ele>
        <time>2020-06-30T09:26:46Z</time>
      </trkpt>
      <trkpt lat="43.0658" lon="0.46589">
        <ele>459.6</ele>
        <time>2020-06-30T09:26:47Z</time>
      </trkpt>
      <trkpt lat="43.06578" lon="0.46575">
        <ele>459.6</ele>
        <time>2020-06-30T09:26:48Z</time>
      </trkpt>
      <trkpt lat="43.06577" lon="0.46567">
        <ele>459.6</ele>
        <time>2020-06-30T09:26:49Z</time>
      </trkpt>
      <trkpt lat="43.06577" lon="0.46559">
        <ele>459.6</ele>
        <time>2020-06-30T09:26:50Z</time>
      </trkpt>
      <trkpt lat="43.06577" lon="0.46559">
        <ele>459.4</ele>
        <time>2020-06-30T09:26:51Z</time>
      </trkpt>
      <trkpt lat="43.06577" lon="0.46552">
        <ele>459.4</ele>
        <time>2020-06-30T09:26:52Z</time>
      </trkpt>
      <trkpt lat="43.06578" lon="0.46535">
        <ele>459.4</ele>
        <time>2020-06-30T09:26:53Z</time>
      </trkpt>
      <trkpt lat="43.06579" lon="0.46526">
        <ele>459.4</ele>
        <time>2020-06-30T09:26:54Z</time>
      </trkpt>
      <trkpt lat="43.06579" lon="0.46526">
        <ele>459.2</ele>
        <time>2020-06-30T09:26:55Z</time>
      </trkpt>
      <trkpt lat="43.0658" lon="0.4652">
        <ele>459.2</ele>
        <time>2020-06-30T09:26:56Z</time>
      </trkpt>
      <trkpt lat="43.06583" lon="0.46514">
        <ele>459.2</ele>
        <time>2020-06-30T09:26:57Z</time>
      </trkpt>
      <trkpt lat="43.06586" lon="0.46508">
        <ele>459</ele>
        <time>2020-06-30T09:26:58Z</time>
      </trkpt>
      <trkpt lat="43.06587" lon="0.46495">
        <ele>459</ele>
        <time>2020-06-30T09:26:59Z</time>
      </trkpt>
      <trkpt lat="43.06586" lon="0.46489">
        <ele>459</ele>
        <time>2020-06-30T09:27:00Z</time>
      </trkpt>
      <trkpt lat="43.06583" lon="0.46486">
        <ele>459</ele>
        <time>2020-06-30T09:27:01Z</time>
      </trkpt>
      <trkpt lat="43.06579" lon="0.46484">
        <ele>459</ele>
        <time>2020-06-30T09:27:02Z</time>
      </trkpt>
      <trkpt lat="43.06579" lon="0.46484">
        <ele>459.2</ele>
        <time>2020-06-30T09:27:03Z</time>
      </trkpt>
      <trkpt lat="43.06574" lon="0.46484">
        <ele>459.4</ele>
        <time>2020-06-30T09:27:04Z</time>
      </trkpt>
      <trkpt lat="43.06566" lon="0.46486">
        <ele>459.6</ele>
        <time>2020-06-30T09:27:05Z</time>
      </trkpt>
      <trkpt lat="43.06562" lon="0.46485">
        <ele>459.6</ele>
        <time>2020-06-30T09:27:06Z</time>
      </trkpt>
      <trkpt lat="43.06558" lon="0.46486">
        <ele>459.8</ele>
        <time>2020-06-30T09:27:07Z</time>
      </trkpt>
      <trkpt lat="43.06554" lon="0.46487">
        <ele>460</ele>
        <time>2020-06-30T09:27:08Z</time>
      </trkpt>
      <trkpt lat="43.06554" lon="0.46487">
        <ele>460</ele>
        <time>2020-06-30T09:27:09Z</time>
      </trkpt>
      <trkpt lat="43.06545" lon="0.46489">
        <ele>460.2</ele>
        <time>2020-06-30T09:27:10Z</time>
      </trkpt>
      <trkpt lat="43.06541" lon="0.46488">
        <ele>460.2</ele>
        <time>2020-06-30T09:27:11Z</time>
      </trkpt>
      <trkpt lat="43.06537" lon="0.46489">
        <ele>460.4</ele>
        <time>2020-06-30T09:27:12Z</time>
      </trkpt>
      <trkpt lat="43.06533" lon="0.46489">
        <ele>460.6</ele>
        <time>2020-06-30T09:27:13Z</time>
      </trkpt>
      <trkpt lat="43.06529" lon="0.46489">
        <ele>460.6</ele>
        <time>2020-06-30T09:27:14Z</time>
      </trkpt>
      <trkpt lat="43.06529" lon="0.46489">
        <ele>460.8</ele>
        <time>2020-06-30T09:27:15Z</time>
      </trkpt>
      <trkpt lat="43.06522" lon="0.46488">
        <ele>461</ele>
        <time>2020-06-30T09:27:16Z</time>
      </trkpt>
      <trkpt lat="43.0652" lon="0.46485">
        <ele>461.2</ele>
        <time>2020-06-30T09:27:17Z</time>
      </trkpt>
      <trkpt lat="43.06518" lon="0.46483">
        <ele>461.2</ele>
        <time>2020-06-30T09:27:18Z</time>
      </trkpt>
      <trkpt lat="43.06517" lon="0.4648">
        <ele>461.4</ele>
        <time>2020-06-30T09:27:19Z</time>
      </trkpt>
      <trkpt lat="43.06515" lon="0.46478">
        <ele>461.4</ele>
        <time>2020-06-30T09:27:20Z</time>
      </trkpt>
      <trkpt lat="43.06515" lon="0.46478">
        <ele>461.6</ele>
        <time>2020-06-30T09:27:21Z</time>
      </trkpt>
      <trkpt lat="43.06514" lon="0.46475">
        <ele>461.6</ele>
        <time>2020-06-30T09:27:22Z</time>
      </trkpt>
      <trkpt lat="43.06512" lon="0.46467">
        <ele>461.8</ele>
        <time>2020-06-30T09:27:23Z</time>
      </trkpt>
      <trkpt lat="43.06511" lon="0.46464">
        <ele>461.8</ele>
        <time>2020-06-30T09:27:24Z</time>
      </trkpt>
      <trkpt lat="43.0651" lon="0.46461">
        <ele>462</ele>
        <time>2020-06-30T09:27:25Z</time>
      </trkpt>
      <trkpt lat="43.0651" lon="0.46461">
        <ele>462</ele>
        <time>2020-06-30T09:27:26Z</time>
      </trkpt>
      <trkpt lat="43.06509" lon="0.46455">
        <ele>462.2</ele>
        <time>2020-06-30T09:27:27Z</time>
      </trkpt>
      <trkpt lat="43.06508" lon="0.46452">
        <ele>462.2</ele>
        <time>2020-06-30T09:27:28Z</time>
      </trkpt>
      <trkpt lat="43.06507" lon="0.46448">
        <ele>462.4</ele>
        <time>2020-06-30T09:27:29Z</time>
      </trkpt>
      <trkpt lat="43.06506" lon="0.46445">
        <ele>462.4</ele>
        <time>2020-06-30T09:27:30Z</time>
      </trkpt>
      <trkpt lat="43.06505" lon="0.46442">
        <ele>462.6</ele>
        <time>2020-06-30T09:27:31Z</time>
      </trkpt>
      <trkpt lat="43.06505" lon="0.4644">
        <ele>462.8</ele>
        <time>2020-06-30T09:27:32Z</time>
      </trkpt>
      <trkpt lat="43.06505" lon="0.46438">
        <ele>462.8</ele>
        <time>2020-06-30T09:27:33Z</time>
      </trkpt>
      <trkpt lat="43.06504" lon="0.46436">
        <ele>463</ele>
        <time>2020-06-30T09:27:34Z</time>
      </trkpt>
      <trkpt lat="43.06504" lon="0.46433">
        <ele>463</ele>
        <time>2020-06-30T09:27:35Z</time>
      </trkpt>
      <trkpt lat="43.06503" lon="0.46429">
        <ele>463.2</ele>
        <time>2020-06-30T09:27:36Z</time>
      </trkpt>
      <trkpt lat="43.06502" lon="0.46427">
        <ele>463.2</ele>
        <time>2020-06-30T09:27:37Z</time>
      </trkpt>
      <trkpt lat="43.065" lon="0.46423">
        <ele>463.4</ele>
        <time>2020-06-30T09:27:38Z</time>
      </trkpt>
      <trkpt lat="43.06499" lon="0.4642">
        <ele>463.6</ele>
        <time>2020-06-30T09:27:39Z</time>
      </trkpt>
      <trkpt lat="43.06499" lon="0.4642">
        <ele>463.6</ele>
        <time>2020-06-30T09:27:40Z</time>
      </trkpt>
      <trkpt lat="43.06497" lon="0.46412">
        <ele>463.8</ele>
        <time>2020-06-30T09:27:41Z</time>
      </trkpt>
      <trkpt lat="43.06497" lon="0.4641">
        <ele>464</ele>
        <time>2020-06-30T09:27:42Z</time>
      </trkpt>
      <trkpt lat="43.06496" lon="0.46408">
        <ele>464</ele>
        <time>2020-06-30T09:27:43Z</time>
      </trkpt>
      <trkpt lat="43.06495" lon="0.46407">
        <ele>464.2</ele>
        <time>2020-06-30T09:27:44Z</time>
      </trkpt>
      <trkpt lat="43.06497" lon="0.46403">
        <ele>464.4</ele>
        <time>2020-06-30T09:27:45Z</time>
      </trkpt>
      <trkpt lat="43.06497" lon="0.46402">
        <ele>464.4</ele>
        <time>2020-06-30T09:27:46Z</time>
      </trkpt>
      <trkpt lat="43.06496" lon="0.464">
        <ele>464.6</ele>
        <time>2020-06-30T09:27:47Z</time>
      </trkpt>
      <trkpt lat="43.06497" lon="0.46396">
        <ele>464.6</ele>
        <time>2020-06-30T09:27:48Z</time>
      </trkpt>
      <trkpt lat="43.06498" lon="0.46394">
        <ele>464.8</ele>
        <time>2020-06-30T09:27:49Z</time>
      </trkpt>
      <trkpt lat="43.06498" lon="0.46391">
        <ele>465</ele>
        <time>2020-06-30T09:27:50Z</time>
      </trkpt>
      <trkpt lat="43.06496" lon="0.46387">
        <ele>465.2</ele>
        <time>2020-06-30T09:27:51Z</time>
      </trkpt>
      <trkpt lat="43.06497" lon="0.46384">
        <ele>465.2</ele>
        <time>2020-06-30T09:27:52Z</time>
      </trkpt>
      <trkpt lat="43.06498" lon="0.46383">
        <ele>465.4</ele>
        <time>2020-06-30T09:27:53Z</time>
      </trkpt>
      <trkpt lat="43.06498" lon="0.4638">
        <ele>465.4</ele>
        <time>2020-06-30T09:27:54Z</time>
      </trkpt>
      <trkpt lat="43.06498" lon="0.46375">
        <ele>465.6</ele>
        <time>2020-06-30T09:27:55Z</time>
      </trkpt>
      <trkpt lat="43.06498" lon="0.46371">
        <ele>465.8</ele>
        <time>2020-06-30T09:27:56Z</time>
      </trkpt>
      <trkpt lat="43.065" lon="0.46367">
        <ele>465.8</ele>
        <time>2020-06-30T09:27:57Z</time>
      </trkpt>
      <trkpt lat="43.065" lon="0.46365">
        <ele>466</ele>
        <time>2020-06-30T09:27:58Z</time>
      </trkpt>
      <trkpt lat="43.065" lon="0.46363">
        <ele>466.2</ele>
        <time>2020-06-30T09:27:59Z</time>
      </trkpt>
      <trkpt lat="43.06502" lon="0.46359">
        <ele>466.2</ele>
        <time>2020-06-30T09:28:00Z</time>
      </trkpt>
      <trkpt lat="43.06501" lon="0.46358">
        <ele>466.4</ele>
        <time>2020-06-30T09:28:01Z</time>
      </trkpt>
      <trkpt lat="43.06502" lon="0.46357">
        <ele>466.6</ele>
        <time>2020-06-30T09:28:02Z</time>
      </trkpt>
      <trkpt lat="43.06502" lon="0.46355">
        <ele>466.6</ele>
        <time>2020-06-30T09:28:03Z</time>
      </trkpt>
      <trkpt lat="43.06502" lon="0.46353">
        <ele>466.6</ele>
        <time>2020-06-30T09:28:04Z</time>
      </trkpt>
      <trkpt lat="43.06502" lon="0.46351">
        <ele>466.8</ele>
        <time>2020-06-30T09:28:05Z</time>
      </trkpt>
      <trkpt lat="43.06502" lon="0.46348">
        <ele>466.8</ele>
        <time>2020-06-30T09:28:06Z</time>
      </trkpt>
      <trkpt lat="43.06502" lon="0.46345">
        <ele>467</ele>
        <time>2020-06-30T09:28:07Z</time>
      </trkpt>
      <trkpt lat="43.06503" lon="0.46342">
        <ele>467</ele>
        <time>2020-06-30T09:28:08Z</time>
      </trkpt>
      <trkpt lat="43.06504" lon="0.46338">
        <ele>467.2</ele>
        <time>2020-06-30T09:28:09Z</time>
      </trkpt>
      <trkpt lat="43.06505" lon="0.46336">
        <ele>467.2</ele>
        <time>2020-06-30T09:28:10Z</time>
      </trkpt>
      <trkpt lat="43.06506" lon="0.46334">
        <ele>467.2</ele>
        <time>2020-06-30T09:28:11Z</time>
      </trkpt>
      <trkpt lat="43.06507" lon="0.46331">
        <ele>467.4</ele>
        <time>2020-06-30T09:28:12Z</time>
      </trkpt>
      <trkpt lat="43.06509" lon="0.46329">
        <ele>467.4</ele>
        <time>2020-06-30T09:28:13Z</time>
      </trkpt>
      <trkpt lat="43.06511" lon="0.46327">
        <ele>467.4</ele>
        <time>2020-06-30T09:28:14Z</time>
      </trkpt>
      <trkpt lat="43.06513" lon="0.46324">
        <ele>467.6</ele>
        <time>2020-06-30T09:28:15Z</time>
      </trkpt>
      <trkpt lat="43.06513" lon="0.4632">
        <ele>467.6</ele>
        <time>2020-06-30T09:28:16Z</time>
      </trkpt>
      <trkpt lat="43.06513" lon="0.46317">
        <ele>467.8</ele>
        <time>2020-06-30T09:28:17Z</time>
      </trkpt>
      <trkpt lat="43.06514" lon="0.46314">
        <ele>467.8</ele>
        <time>2020-06-30T09:28:18Z</time>
      </trkpt>
      <trkpt lat="43.06515" lon="0.4631">
        <ele>468</ele>
        <time>2020-06-30T09:28:19Z</time>
      </trkpt>
      <trkpt lat="43.06517" lon="0.46308">
        <ele>468</ele>
        <time>2020-06-30T09:28:20Z</time>
      </trkpt>
      <trkpt lat="43.06515" lon="0.46305">
        <ele>468.2</ele>
        <time>2020-06-30T09:28:21Z</time>
      </trkpt>
      <trkpt lat="43.06516" lon="0.46303">
        <ele>468.2</ele>
        <time>2020-06-30T09:28:22Z</time>
      </trkpt>
      <trkpt lat="43.06516" lon="0.46301">
        <ele>468.4</ele>
        <time>2020-06-30T09:28:23Z</time>
      </trkpt>
      <trkpt lat="43.06517" lon="0.46298">
        <ele>468.4</ele>
        <time>2020-06-30T09:28:24Z</time>
      </trkpt>
      <trkpt lat="43.06518" lon="0.46297">
        <ele>468.6</ele>
        <time>2020-06-30T09:28:25Z</time>
      </trkpt>
      <trkpt lat="43.06519" lon="0.46295">
        <ele>468.6</ele>
        <time>2020-06-30T09:28:26Z</time>
      </trkpt>
      <trkpt lat="43.06519" lon="0.4629">
        <ele>468.8</ele>
        <time>2020-06-30T09:28:27Z</time>
      </trkpt>
      <trkpt lat="43.0652" lon="0.46288">
        <ele>468.8</ele>
        <time>2020-06-30T09:28:28Z</time>
      </trkpt>
      <trkpt lat="43.06521" lon="0.46286">
        <ele>469</ele>
        <time>2020-06-30T09:28:29Z</time>
      </trkpt>
      <trkpt lat="43.06523" lon="0.46283">
        <ele>469.2</ele>
        <time>2020-06-30T09:28:30Z</time>
      </trkpt>
      <trkpt lat="43.06524" lon="0.46282">
        <ele>469.2</ele>
        <time>2020-06-30T09:28:31Z</time>
      </trkpt>
      <trkpt lat="43.06524" lon="0.4628">
        <ele>469.4</ele>
        <time>2020-06-30T09:28:32Z</time>
      </trkpt>
      <trkpt lat="43.06526" lon="0.46276">
        <ele>469.4</ele>
        <time>2020-06-30T09:28:33Z</time>
      </trkpt>
      <trkpt lat="43.06528" lon="0.46273">
        <ele>469.6</ele>
        <time>2020-06-30T09:28:34Z</time>
      </trkpt>
      <trkpt lat="43.06529" lon="0.46272">
        <ele>469.6</ele>
        <time>2020-06-30T09:28:35Z</time>
      </trkpt>
      <trkpt lat="43.0653" lon="0.46269">
        <ele>469.8</ele>
        <time>2020-06-30T09:28:36Z</time>
      </trkpt>
      <trkpt lat="43.06531" lon="0.46265">
        <ele>470</ele>
        <time>2020-06-30T09:28:37Z</time>
      </trkpt>
      <trkpt lat="43.06532" lon="0.46262">
        <ele>470</ele>
        <time>2020-06-30T09:28:38Z</time>
      </trkpt>
      <trkpt lat="43.06533" lon="0.4626">
        <ele>470.2</ele>
        <time>2020-06-30T09:28:39Z</time>
      </trkpt>
      <trkpt lat="43.06534" lon="0.46258">
        <ele>470.2</ele>
        <time>2020-06-30T09:28:40Z</time>
      </trkpt>
      <trkpt lat="43.06534" lon="0.46257">
        <ele>470.4</ele>
        <time>2020-06-30T09:28:41Z</time>
      </trkpt>
      <trkpt lat="43.06535" lon="0.46255">
        <ele>470.4</ele>
        <time>2020-06-30T09:28:42Z</time>
      </trkpt>
      <trkpt lat="43.06539" lon="0.46251">
        <ele>470.6</ele>
        <time>2020-06-30T09:28:43Z</time>
      </trkpt>
      <trkpt lat="43.06539" lon="0.46248">
        <ele>470.8</ele>
        <time>2020-06-30T09:28:44Z</time>
      </trkpt>
      <trkpt lat="43.0654" lon="0.46246">
        <ele>470.8</ele>
        <time>2020-06-30T09:28:45Z</time>
      </trkpt>
      <trkpt lat="43.0654" lon="0.46242">
        <ele>470.8</ele>
        <time>2020-06-30T09:28:46Z</time>
      </trkpt>
      <trkpt lat="43.06541" lon="0.4624">
        <ele>471</ele>
        <time>2020-06-30T09:28:47Z</time>
      </trkpt>
      <trkpt lat="43.06541" lon="0.46237">
        <ele>471.2</ele>
        <time>2020-06-30T09:28:48Z</time>
      </trkpt>
      <trkpt lat="43.06541" lon="0.46237">
        <ele>471.2</ele>
        <time>2020-06-30T09:28:49Z</time>
      </trkpt>
      <trkpt lat="43.06546" lon="0.46232">
        <ele>471.2</ele>
        <time>2020-06-30T09:28:50Z</time>
      </trkpt>
      <trkpt lat="43.06547" lon="0.4623">
        <ele>471.4</ele>
        <time>2020-06-30T09:28:51Z</time>
      </trkpt>
      <trkpt lat="43.06548" lon="0.46229">
        <ele>471.4</ele>
        <time>2020-06-30T09:28:52Z</time>
      </trkpt>
      <trkpt lat="43.06549" lon="0.46226">
        <ele>471.6</ele>
        <time>2020-06-30T09:28:53Z</time>
      </trkpt>
      <trkpt lat="43.06551" lon="0.46223">
        <ele>471.8</ele>
        <time>2020-06-30T09:28:54Z</time>
      </trkpt>
      <trkpt lat="43.0655" lon="0.46219">
        <ele>471.8</ele>
        <time>2020-06-30T09:28:55Z</time>
      </trkpt>
      <trkpt lat="43.06551" lon="0.46217">
        <ele>472</ele>
        <time>2020-06-30T09:28:56Z</time>
      </trkpt>
      <trkpt lat="43.06553" lon="0.46215">
        <ele>472</ele>
        <time>2020-06-30T09:28:57Z</time>
      </trkpt>
      <trkpt lat="43.06554" lon="0.46213">
        <ele>472.2</ele>
        <time>2020-06-30T09:28:58Z</time>
      </trkpt>
      <trkpt lat="43.06554" lon="0.46209">
        <ele>472.2</ele>
        <time>2020-06-30T09:28:59Z</time>
      </trkpt>
      <trkpt lat="43.06556" lon="0.46207">
        <ele>472.4</ele>
        <time>2020-06-30T09:29:00Z</time>
      </trkpt>
      <trkpt lat="43.06556" lon="0.46202">
        <ele>472.4</ele>
        <time>2020-06-30T09:29:01Z</time>
      </trkpt>
      <trkpt lat="43.06557" lon="0.462">
        <ele>472.6</ele>
        <time>2020-06-30T09:29:02Z</time>
      </trkpt>
      <trkpt lat="43.06562" lon="0.462">
        <ele>472.8</ele>
        <time>2020-06-30T09:29:03Z</time>
      </trkpt>
      <trkpt lat="43.06563" lon="0.46197">
        <ele>472.8</ele>
        <time>2020-06-30T09:29:04Z</time>
      </trkpt>
      <trkpt lat="43.06564" lon="0.46196">
        <ele>473</ele>
        <time>2020-06-30T09:29:05Z</time>
      </trkpt>
      <trkpt lat="43.06565" lon="0.46193">
        <ele>473.2</ele>
        <time>2020-06-30T09:29:06Z</time>
      </trkpt>
      <trkpt lat="43.06566" lon="0.46191">
        <ele>473.2</ele>
        <time>2020-06-30T09:29:07Z</time>
      </trkpt>
      <trkpt lat="43.06568" lon="0.46187">
        <ele>473.4</ele>
        <time>2020-06-30T09:29:08Z</time>
      </trkpt>
      <trkpt lat="43.06569" lon="0.46182">
        <ele>473.6</ele>
        <time>2020-06-30T09:29:09Z</time>
      </trkpt>
      <trkpt lat="43.06572" lon="0.46179">
        <ele>473.8</ele>
        <time>2020-06-30T09:29:10Z</time>
      </trkpt>
      <trkpt lat="43.06575" lon="0.46176">
        <ele>473.8</ele>
        <time>2020-06-30T09:29:11Z</time>
      </trkpt>
      <trkpt lat="43.06576" lon="0.46174">
        <ele>474</ele>
        <time>2020-06-30T09:29:12Z</time>
      </trkpt>
      <trkpt lat="43.06578" lon="0.46172">
        <ele>474.2</ele>
        <time>2020-06-30T09:29:13Z</time>
      </trkpt>
      <trkpt lat="43.06579" lon="0.46171">
        <ele>474.4</ele>
        <time>2020-06-30T09:29:14Z</time>
      </trkpt>
      <trkpt lat="43.0658" lon="0.4617">
        <ele>474.4</ele>
        <time>2020-06-30T09:29:15Z</time>
      </trkpt>
      <trkpt lat="43.06582" lon="0.46167">
        <ele>474.6</ele>
        <time>2020-06-30T09:29:16Z</time>
      </trkpt>
      <trkpt lat="43.06584" lon="0.46164">
        <ele>474.8</ele>
        <time>2020-06-30T09:29:17Z</time>
      </trkpt>
      <trkpt lat="43.06584" lon="0.46164">
        <ele>474.8</ele>
        <time>2020-06-30T09:29:18Z</time>
      </trkpt>
      <trkpt lat="43.06586" lon="0.4616">
        <ele>475</ele>
        <time>2020-06-30T09:29:19Z</time>
      </trkpt>
      <trkpt lat="43.06587" lon="0.46158">
        <ele>475</ele>
        <time>2020-06-30T09:29:20Z</time>
      </trkpt>
      <trkpt lat="43.06588" lon="0.46156">
        <ele>475.4</ele>
        <time>2020-06-30T09:29:21Z</time>
      </trkpt>
      <trkpt lat="43.06591" lon="0.46152">
        <ele>475.4</ele>
        <time>2020-06-30T09:29:22Z</time>
      </trkpt>
      <trkpt lat="43.0659" lon="0.46149">
        <ele>475.4</ele>
        <time>2020-06-30T09:29:23Z</time>
      </trkpt>
      <trkpt lat="43.06591" lon="0.46146">
        <ele>475.6</ele>
        <time>2020-06-30T09:29:24Z</time>
      </trkpt>
      <trkpt lat="43.06597" lon="0.46144">
        <ele>475.6</ele>
        <time>2020-06-30T09:29:25Z</time>
      </trkpt>
      <trkpt lat="43.06595" lon="0.4614">
        <ele>475.8</ele>
        <time>2020-06-30T09:29:26Z</time>
      </trkpt>
      <trkpt lat="43.06595" lon="0.46138">
        <ele>475.8</ele>
        <time>2020-06-30T09:29:27Z</time>
      </trkpt>
      <trkpt lat="43.06597" lon="0.46136">
        <ele>476</ele>
        <time>2020-06-30T09:29:28Z</time>
      </trkpt>
      <trkpt lat="43.06595" lon="0.46136">
        <ele>476</ele>
        <time>2020-06-30T09:29:29Z</time>
      </trkpt>
      <trkpt lat="43.06595" lon="0.46132">
        <ele>476.2</ele>
        <time>2020-06-30T09:29:30Z</time>
      </trkpt>
      <trkpt lat="43.06595" lon="0.46129">
        <ele>476.2</ele>
        <time>2020-06-30T09:29:31Z</time>
      </trkpt>
      <trkpt lat="43.06595" lon="0.46123">
        <ele>476.4</ele>
        <time>2020-06-30T09:29:32Z</time>
      </trkpt>
      <trkpt lat="43.06595" lon="0.4612">
        <ele>476.4</ele>
        <time>2020-06-30T09:29:33Z</time>
      </trkpt>
      <trkpt lat="43.06596" lon="0.46115">
        <ele>476.6</ele>
        <time>2020-06-30T09:29:34Z</time>
      </trkpt>
      <trkpt lat="43.06593" lon="0.46113">
        <ele>476.6</ele>
        <time>2020-06-30T09:29:35Z</time>
      </trkpt>
      <trkpt lat="43.06596" lon="0.46112">
        <ele>476.6</ele>
        <time>2020-06-30T09:29:36Z</time>
      </trkpt>
      <trkpt lat="43.06598" lon="0.46111">
        <ele>476.8</ele>
        <time>2020-06-30T09:29:37Z</time>
      </trkpt>
      <trkpt lat="43.06598" lon="0.46109">
        <ele>476.8</ele>
        <time>2020-06-30T09:29:38Z</time>
      </trkpt>
      <trkpt lat="43.06598" lon="0.46107">
        <ele>476.8</ele>
        <time>2020-06-30T09:29:39Z</time>
      </trkpt>
      <trkpt lat="43.06597" lon="0.46103">
        <ele>477</ele>
        <time>2020-06-30T09:29:40Z</time>
      </trkpt>
      <trkpt lat="43.06597" lon="0.46102">
        <ele>477</ele>
        <time>2020-06-30T09:29:41Z</time>
      </trkpt>
      <trkpt lat="43.06591" lon="0.46095">
        <ele>477</ele>
        <time>2020-06-30T09:29:42Z</time>
      </trkpt>
      <trkpt lat="43.06595" lon="0.46095">
        <ele>477</ele>
        <time>2020-06-30T09:29:43Z</time>
      </trkpt>
      <trkpt lat="43.06592" lon="0.4609">
        <ele>477</ele>
        <time>2020-06-30T09:29:44Z</time>
      </trkpt>
      <trkpt lat="43.06589" lon="0.46087">
        <ele>477.2</ele>
        <time>2020-06-30T09:29:45Z</time>
      </trkpt>
      <trkpt lat="43.06588" lon="0.46084">
        <ele>477.2</ele>
        <time>2020-06-30T09:29:46Z</time>
      </trkpt>
      <trkpt lat="43.06585" lon="0.46081">
        <ele>477.2</ele>
        <time>2020-06-30T09:29:47Z</time>
      </trkpt>
      <trkpt lat="43.06585" lon="0.46077">
        <ele>477.2</ele>
        <time>2020-06-30T09:29:48Z</time>
      </trkpt>
      <trkpt lat="43.0659" lon="0.46075">
        <ele>477.4</ele>
        <time>2020-06-30T09:29:49Z</time>
      </trkpt>
      <trkpt lat="43.06585" lon="0.46068">
        <ele>477.4</ele>
        <time>2020-06-30T09:29:50Z</time>
      </trkpt>
      <trkpt lat="43.06585" lon="0.46064">
        <ele>477.4</ele>
        <time>2020-06-30T09:29:51Z</time>
      </trkpt>
      <trkpt lat="43.06584" lon="0.46061">
        <ele>477.4</ele>
        <time>2020-06-30T09:29:52Z</time>
      </trkpt>
      <trkpt lat="43.06584" lon="0.46059">
        <ele>477.4</ele>
        <time>2020-06-30T09:29:53Z</time>
      </trkpt>
      <trkpt lat="43.06585" lon="0.46054">
        <ele>477.4</ele>
        <time>2020-06-30T09:29:54Z</time>
      </trkpt>
      <trkpt lat="43.06584" lon="0.46052">
        <ele>477.4</ele>
        <time>2020-06-30T09:29:55Z</time>
      </trkpt>
      <trkpt lat="43.06582" lon="0.46054">
        <ele>477.6</ele>
        <time>2020-06-30T09:29:56Z</time>
      </trkpt>
      <trkpt lat="43.06583" lon="0.46052">
        <ele>477.6</ele>
        <time>2020-06-30T09:29:57Z</time>
      </trkpt>
      <trkpt lat="43.06582" lon="0.46057">
        <ele>477.6</ele>
        <time>2020-06-30T09:29:58Z</time>
      </trkpt>
      <trkpt lat="43.06584" lon="0.46054">
        <ele>477.4</ele>
        <time>2020-06-30T09:29:59Z</time>
      </trkpt>
      <trkpt lat="43.06585" lon="0.46057">
        <ele>477.4</ele>
        <time>2020-06-30T09:30:00Z</time>
      </trkpt>
      <trkpt lat="43.06585" lon="0.46058">
        <ele>477.4</ele>
        <time>2020-06-30T09:30:01Z</time>
      </trkpt>
      <trkpt lat="43.06584" lon="0.46058">
        <ele>477.4</ele>
        <time>2020-06-30T09:30:02Z</time>
      </trkpt>
      <trkpt lat="43.06583" lon="0.46059">
        <ele>477.4</ele>
        <time>2020-06-30T09:30:03Z</time>
      </trkpt>
      <trkpt lat="43.06583" lon="0.46059">
        <ele>477.4</ele>
        <time>2020-06-30T09:30:04Z</time>
      </trkpt>
      <trkpt lat="43.06583" lon="0.46058">
        <ele>477.4</ele>
        <time>2020-06-30T09:30:05Z</time>
      </trkpt>
      <trkpt lat="43.06584" lon="0.46059">
        <ele>477.4</ele>
        <time>2020-06-30T09:30:06Z</time>
      </trkpt>
      <trkpt lat="43.06584" lon="0.46059">
        <ele>477.4</ele>
        <time>2020-06-30T09:30:07Z</time>
      </trkpt>
      <trkpt lat="43.06584" lon="0.46059">
        <ele>477.4</ele>
        <time>2020-06-30T09:30:08Z</time>
      </trkpt>
      <trkpt lat="43.06584" lon="0.46059">
        <ele>477.4</ele>
        <time>2020-06-30T09:30:09Z</time>
      </trkpt>
      <trkpt lat="43.06584" lon="0.46059">
        <ele>477.4</ele>
        <time>2020-06-30T09:30:10Z</time>
      </trkpt>
      <trkpt lat="43.06583" lon="0.46058">
        <ele>477.4</ele>
        <time>2020-06-30T09:30:11Z</time>
      </trkpt>
      <trkpt lat="43.06583" lon="0.46058">
        <ele>477.2</ele>
        <time>2020-06-30T09:30:12Z</time>
      </trkpt>
      <trkpt lat="43.06583" lon="0.46059">
        <ele>477.4</ele>
        <time>2020-06-30T09:30:13Z</time>
      </trkpt>
      <trkpt lat="43.06583" lon="0.46059">
        <ele>477.4</ele>
        <time>2020-06-30T09:30:14Z</time>
      </trkpt>
      <trkpt lat="43.06583" lon="0.46059">
        <ele>477.4</ele>
        <time>2020-06-30T09:30:15Z</time>
      </trkpt>
      <trkpt lat="43.06583" lon="0.46059">
        <ele>477.4</ele>
        <time>2020-06-30T09:30:16Z</time>
      </trkpt>
      <trkpt lat="43.06583" lon="0.46059">
        <ele>477.4</ele>
        <time>2020-06-30T09:30:17Z</time>
      </trkpt>
      <trkpt lat="43.06576" lon="0.46049">
        <ele>477.4</ele>
        <time>2020-06-30T09:30:59Z</time>
      </trkpt>
      <trkpt lat="43.06577" lon="0.46048">
        <ele>477.4</ele>
        <time>2020-06-30T09:31:00Z</time>
      </trkpt>
      <trkpt lat="43.06577" lon="0.46047">
        <ele>477.4</ele>
        <time>2020-06-30T09:31:01Z</time>
      </trkpt>
      <trkpt lat="43.06577" lon="0.46048">
        <ele>477.4</ele>
        <time>2020-06-30T09:31:02Z</time>
      </trkpt>
      <trkpt lat="43.06576" lon="0.46045">
        <ele>477.4</ele>
        <time>2020-06-30T09:31:03Z</time>
      </trkpt>
      <trkpt lat="43.06576" lon="0.46044">
        <ele>477.4</ele>
        <time>2020-06-30T09:31:04Z</time>
      </trkpt>
      <trkpt lat="43.06576" lon="0.46043">
        <ele>477.4</ele>
        <time>2020-06-30T09:31:05Z</time>
      </trkpt>
      <trkpt lat="43.06576" lon="0.46039">
        <ele>477.4</ele>
        <time>2020-06-30T09:31:06Z</time>
      </trkpt>
      <trkpt lat="43.06577" lon="0.46037">
        <ele>477.6</ele>
        <time>2020-06-30T09:31:07Z</time>
      </trkpt>
      <trkpt lat="43.06576" lon="0.46034">
        <ele>477.4</ele>
        <time>2020-06-30T09:31:08Z</time>
      </trkpt>
      <trkpt lat="43.06576" lon="0.46031">
        <ele>477.6</ele>
        <time>2020-06-30T09:31:09Z</time>
      </trkpt>
      <trkpt lat="43.06576" lon="0.46028">
        <ele>477.6</ele>
        <time>2020-06-30T09:31:10Z</time>
      </trkpt>
      <trkpt lat="43.06576" lon="0.46025">
        <ele>477.6</ele>
        <time>2020-06-30T09:31:11Z</time>
      </trkpt>
      <trkpt lat="43.06576" lon="0.46025">
        <ele>477.6</ele>
        <time>2020-06-30T09:31:12Z</time>
      </trkpt>
      <trkpt lat="43.06576" lon="0.46019">
        <ele>477.6</ele>
        <time>2020-06-30T09:31:13Z</time>
      </trkpt>
      <trkpt lat="43.06576" lon="0.46015">
        <ele>477.6</ele>
        <time>2020-06-30T09:31:14Z</time>
      </trkpt>
      <trkpt lat="43.06575" lon="0.46011">
        <ele>477.6</ele>
        <time>2020-06-30T09:31:15Z</time>
      </trkpt>
      <trkpt lat="43.06574" lon="0.46008">
        <ele>477.8</ele>
        <time>2020-06-30T09:31:16Z</time>
      </trkpt>
      <trkpt lat="43.06572" lon="0.46002">
        <ele>477.8</ele>
        <time>2020-06-30T09:31:17Z</time>
      </trkpt>
      <trkpt lat="43.06572" lon="0.45999">
        <ele>477.8</ele>
        <time>2020-06-30T09:31:18Z</time>
      </trkpt>
      <trkpt lat="43.06572" lon="0.45999">
        <ele>477.8</ele>
        <time>2020-06-30T09:31:19Z</time>
      </trkpt>
      <trkpt lat="43.06572" lon="0.45992">
        <ele>477.8</ele>
        <time>2020-06-30T09:31:20Z</time>
      </trkpt>
      <trkpt lat="43.06573" lon="0.45988">
        <ele>477.8</ele>
        <time>2020-06-30T09:31:21Z</time>
      </trkpt>
      <trkpt lat="43.06572" lon="0.45984">
        <ele>478</ele>
        <time>2020-06-30T09:31:22Z</time>
      </trkpt>
      <trkpt lat="43.06572" lon="0.45982">
        <ele>478</ele>
        <time>2020-06-30T09:31:23Z</time>
      </trkpt>
      <trkpt lat="43.06571" lon="0.45977">
        <ele>478</ele>
        <time>2020-06-30T09:31:24Z</time>
      </trkpt>
      <trkpt lat="43.06571" lon="0.45974">
        <ele>478.2</ele>
        <time>2020-06-30T09:31:25Z</time>
      </trkpt>
      <trkpt lat="43.06571" lon="0.45969">
        <ele>478.2</ele>
        <time>2020-06-30T09:31:26Z</time>
      </trkpt>
      <trkpt lat="43.06569" lon="0.45966">
        <ele>478.2</ele>
        <time>2020-06-30T09:31:27Z</time>
      </trkpt>
      <trkpt lat="43.06569" lon="0.45962">
        <ele>478.4</ele>
        <time>2020-06-30T09:31:28Z</time>
      </trkpt>
      <trkpt lat="43.06569" lon="0.45958">
        <ele>478.4</ele>
        <time>2020-06-30T09:31:29Z</time>
      </trkpt>
      <trkpt lat="43.06568" lon="0.45954">
        <ele>478.6</ele>
        <time>2020-06-30T09:31:30Z</time>
      </trkpt>
      <trkpt lat="43.06567" lon="0.45949">
        <ele>478.6</ele>
        <time>2020-06-30T09:31:31Z</time>
      </trkpt>
      <trkpt lat="43.06566" lon="0.45946">
        <ele>478.8</ele>
        <time>2020-06-30T09:31:32Z</time>
      </trkpt>
      <trkpt lat="43.06565" lon="0.45941">
        <ele>478.8</ele>
        <time>2020-06-30T09:31:33Z</time>
      </trkpt>
      <trkpt lat="43.06563" lon="0.45936">
        <ele>479</ele>
        <time>2020-06-30T09:31:34Z</time>
      </trkpt>
      <trkpt lat="43.06561" lon="0.45933">
        <ele>479</ele>
        <time>2020-06-30T09:31:35Z</time>
      </trkpt>
      <trkpt lat="43.0656" lon="0.4593">
        <ele>479</ele>
        <time>2020-06-30T09:31:36Z</time>
      </trkpt>
      <trkpt lat="43.06558" lon="0.45926">
        <ele>479.2</ele>
        <time>2020-06-30T09:31:37Z</time>
      </trkpt>
      <trkpt lat="43.06556" lon="0.45921">
        <ele>479.2</ele>
        <time>2020-06-30T09:31:38Z</time>
      </trkpt>
      <trkpt lat="43.06554" lon="0.45919">
        <ele>479.4</ele>
        <time>2020-06-30T09:31:39Z</time>
      </trkpt>
      <trkpt lat="43.06553" lon="0.45916">
        <ele>479.6</ele>
        <time>2020-06-30T09:31:40Z</time>
      </trkpt>
      <trkpt lat="43.06552" lon="0.45913">
        <ele>479.6</ele>
        <time>2020-06-30T09:31:41Z</time>
      </trkpt>
      <trkpt lat="43.0655" lon="0.45912">
        <ele>479.8</ele>
        <time>2020-06-30T09:31:42Z</time>
      </trkpt>
      <trkpt lat="43.06549" lon="0.45908">
        <ele>479.8</ele>
        <time>2020-06-30T09:31:43Z</time>
      </trkpt>
      <trkpt lat="43.06547" lon="0.45906">
        <ele>480</ele>
        <time>2020-06-30T09:31:44Z</time>
      </trkpt>
      <trkpt lat="43.06546" lon="0.45906">
        <ele>480</ele>
        <time>2020-06-30T09:31:45Z</time>
      </trkpt>
      <trkpt lat="43.06542" lon="0.45904">
        <ele>480</ele>
        <time>2020-06-30T09:31:46Z</time>
      </trkpt>
      <trkpt lat="43.06542" lon="0.45904">
        <ele>480.2</ele>
        <time>2020-06-30T09:31:47Z</time>
      </trkpt>
      <trkpt lat="43.06537" lon="0.45899">
        <ele>480.2</ele>
        <time>2020-06-30T09:31:48Z</time>
      </trkpt>
      <trkpt lat="43.06535" lon="0.45896">
        <ele>480.2</ele>
        <time>2020-06-30T09:31:49Z</time>
      </trkpt>
      <trkpt lat="43.06533" lon="0.45894">
        <ele>480.2</ele>
        <time>2020-06-30T09:31:50Z</time>
      </trkpt>
      <trkpt lat="43.0653" lon="0.45891">
        <ele>480.4</ele>
        <time>2020-06-30T09:31:51Z</time>
      </trkpt>
      <trkpt lat="43.06528" lon="0.45888">
        <ele>480.4</ele>
        <time>2020-06-30T09:31:52Z</time>
      </trkpt>
      <trkpt lat="43.06527" lon="0.45886">
        <ele>480.4</ele>
        <time>2020-06-30T09:31:53Z</time>
      </trkpt>
      <trkpt lat="43.06525" lon="0.45884">
        <ele>480.2</ele>
        <time>2020-06-30T09:31:54Z</time>
      </trkpt>
      <trkpt lat="43.06522" lon="0.45882">
        <ele>480.2</ele>
        <time>2020-06-30T09:31:55Z</time>
      </trkpt>
      <trkpt lat="43.06522" lon="0.45882">
        <ele>480.2</ele>
        <time>2020-06-30T09:31:56Z</time>
      </trkpt>
      <trkpt lat="43.06513" lon="0.45876">
        <ele>480</ele>
        <time>2020-06-30T09:31:57Z</time>
      </trkpt>
      <trkpt lat="43.06509" lon="0.45872">
        <ele>480</ele>
        <time>2020-06-30T09:31:58Z</time>
      </trkpt>
      <trkpt lat="43.06509" lon="0.45872">
        <ele>479.8</ele>
        <time>2020-06-30T09:31:59Z</time>
      </trkpt>
      <trkpt lat="43.06502" lon="0.45867">
        <ele>479.6</ele>
        <time>2020-06-30T09:32:00Z</time>
      </trkpt>
      <trkpt lat="43.06498" lon="0.45864">
        <ele>479.4</ele>
        <time>2020-06-30T09:32:01Z</time>
      </trkpt>
      <trkpt lat="43.06498" lon="0.45864">
        <ele>479.4</ele>
        <time>2020-06-30T09:32:02Z</time>
      </trkpt>
      <trkpt lat="43.06491" lon="0.45855">
        <ele>479.2</ele>
        <time>2020-06-30T09:32:03Z</time>
      </trkpt>
      <trkpt lat="43.06486" lon="0.45851">
        <ele>479</ele>
        <time>2020-06-30T09:32:04Z</time>
      </trkpt>
      <trkpt lat="43.06482" lon="0.45846">
        <ele>478.8</ele>
        <time>2020-06-30T09:32:05Z</time>
      </trkpt>
      <trkpt lat="43.06482" lon="0.45846">
        <ele>478.8</ele>
        <time>2020-06-30T09:32:06Z</time>
      </trkpt>
      <trkpt lat="43.06475" lon="0.45839">
        <ele>478.4</ele>
        <time>2020-06-30T09:32:07Z</time>
      </trkpt>
      <trkpt lat="43.06472" lon="0.45836">
        <ele>478.2</ele>
        <time>2020-06-30T09:32:08Z</time>
      </trkpt>
      <trkpt lat="43.0647" lon="0.45833">
        <ele>478</ele>
        <time>2020-06-30T09:32:09Z</time>
      </trkpt>
      <trkpt lat="43.06469" lon="0.4583">
        <ele>478</ele>
        <time>2020-06-30T09:32:10Z</time>
      </trkpt>
      <trkpt lat="43.06467" lon="0.45827">
        <ele>477.8</ele>
        <time>2020-06-30T09:32:11Z</time>
      </trkpt>
      <trkpt lat="43.06467" lon="0.45824">
        <ele>477.6</ele>
        <time>2020-06-30T09:32:12Z</time>
      </trkpt>
      <trkpt lat="43.06467" lon="0.45823">
        <ele>477.6</ele>
        <time>2020-06-30T09:32:13Z</time>
      </trkpt>
      <trkpt lat="43.06466" lon="0.45819">
        <ele>477.4</ele>
        <time>2020-06-30T09:32:14Z</time>
      </trkpt>
      <trkpt lat="43.06464" lon="0.45816">
        <ele>477.4</ele>
        <time>2020-06-30T09:32:15Z</time>
      </trkpt>
      <trkpt lat="43.06463" lon="0.45815">
        <ele>477.4</ele>
        <time>2020-06-30T09:32:16Z</time>
      </trkpt>
      <trkpt lat="43.06462" lon="0.45812">
        <ele>477.4</ele>
        <time>2020-06-30T09:32:17Z</time>
      </trkpt>
      <trkpt lat="43.06463" lon="0.4581">
        <ele>477.4</ele>
        <time>2020-06-30T09:32:18Z</time>
      </trkpt>
      <trkpt lat="43.06463" lon="0.45807">
        <ele>477.2</ele>
        <time>2020-06-30T09:32:19Z</time>
      </trkpt>
      <trkpt lat="43.06464" lon="0.45804">
        <ele>477</ele>
        <time>2020-06-30T09:32:20Z</time>
      </trkpt>
      <trkpt lat="43.06466" lon="0.458">
        <ele>476.8</ele>
        <time>2020-06-30T09:32:21Z</time>
      </trkpt>
      <trkpt lat="43.06467" lon="0.45796">
        <ele>476.6</ele>
        <time>2020-06-30T09:32:22Z</time>
      </trkpt>
      <trkpt lat="43.06467" lon="0.45793">
        <ele>476.6</ele>
        <time>2020-06-30T09:32:23Z</time>
      </trkpt>
      <trkpt lat="43.06467" lon="0.45793">
        <ele>476.4</ele>
        <time>2020-06-30T09:32:24Z</time>
      </trkpt>
      <trkpt lat="43.06472" lon="0.45788">
        <ele>476.2</ele>
        <time>2020-06-30T09:32:25Z</time>
      </trkpt>
      <trkpt lat="43.06474" lon="0.45785">
        <ele>476</ele>
        <time>2020-06-30T09:32:26Z</time>
      </trkpt>
      <trkpt lat="43.06475" lon="0.45779">
        <ele>475.8</ele>
        <time>2020-06-30T09:32:27Z</time>
      </trkpt>
      <trkpt lat="43.06476" lon="0.4577">
        <ele>475.6</ele>
        <time>2020-06-30T09:32:28Z</time>
      </trkpt>
      <trkpt lat="43.06479" lon="0.45764">
        <ele>475.2</ele>
        <time>2020-06-30T09:32:29Z</time>
      </trkpt>
      <trkpt lat="43.06479" lon="0.45764">
        <ele>475</ele>
        <time>2020-06-30T09:32:30Z</time>
      </trkpt>
      <trkpt lat="43.06485" lon="0.45749">
        <ele>474.8</ele>
        <time>2020-06-30T09:32:31Z</time>
      </trkpt>
      <trkpt lat="43.06488" lon="0.45743">
        <ele>474.4</ele>
        <time>2020-06-30T09:32:32Z</time>
      </trkpt>
      <trkpt lat="43.06491" lon="0.45735">
        <ele>474.2</ele>
        <time>2020-06-30T09:32:33Z</time>
      </trkpt>
      <trkpt lat="43.06492" lon="0.45726">
        <ele>474</ele>
        <time>2020-06-30T09:32:34Z</time>
      </trkpt>
      <trkpt lat="43.06495" lon="0.45717">
        <ele>473.8</ele>
        <time>2020-06-30T09:32:35Z</time>
      </trkpt>
      <trkpt lat="43.06497" lon="0.45708">
        <ele>473.4</ele>
        <time>2020-06-30T09:32:36Z</time>
      </trkpt>
      <trkpt lat="43.06497" lon="0.45708">
        <ele>473.2</ele>
        <time>2020-06-30T09:32:37Z</time>
      </trkpt>
      <trkpt lat="43.06502" lon="0.45688">
        <ele>473</ele>
        <time>2020-06-30T09:32:38Z</time>
      </trkpt>
      <trkpt lat="43.06504" lon="0.45678">
        <ele>472.6</ele>
        <time>2020-06-30T09:32:39Z</time>
      </trkpt>
      <trkpt lat="43.06506" lon="0.45669">
        <ele>472.2</ele>
        <time>2020-06-30T09:32:40Z</time>
      </trkpt>
      <trkpt lat="43.06506" lon="0.45669">
        <ele>472</ele>
        <time>2020-06-30T09:32:41Z</time>
      </trkpt>
      <trkpt lat="43.0651" lon="0.4565">
        <ele>471.8</ele>
        <time>2020-06-30T09:32:42Z</time>
      </trkpt>
      <trkpt lat="43.06513" lon="0.45639">
        <ele>471.2</ele>
        <time>2020-06-30T09:32:43Z</time>
      </trkpt>
      <trkpt lat="43.06513" lon="0.45639">
        <ele>471</ele>
        <time>2020-06-30T09:32:44Z</time>
      </trkpt>
      <trkpt lat="43.06517" lon="0.45618">
        <ele>470.8</ele>
        <time>2020-06-30T09:32:45Z</time>
      </trkpt>
      <trkpt lat="43.06518" lon="0.45609">
        <ele>470.4</ele>
        <time>2020-06-30T09:32:46Z</time>
      </trkpt>
      <trkpt lat="43.06518" lon="0.45609">
        <ele>470.2</ele>
        <time>2020-06-30T09:32:47Z</time>
      </trkpt>
      <trkpt lat="43.06522" lon="0.45588">
        <ele>470.2</ele>
        <time>2020-06-30T09:32:48Z</time>
      </trkpt>
      <trkpt lat="43.06524" lon="0.45578">
        <ele>470</ele>
        <time>2020-06-30T09:32:49Z</time>
      </trkpt>
      <trkpt lat="43.06526" lon="0.45569">
        <ele>469.8</ele>
        <time>2020-06-30T09:32:50Z</time>
      </trkpt>
      <trkpt lat="43.06526" lon="0.45569">
        <ele>469.8</ele>
        <time>2020-06-30T09:32:51Z</time>
      </trkpt>
      <trkpt lat="43.06529" lon="0.4555">
        <ele>469.6</ele>
        <time>2020-06-30T09:32:52Z</time>
      </trkpt>
      <trkpt lat="43.0653" lon="0.45543">
        <ele>469.6</ele>
        <time>2020-06-30T09:32:53Z</time>
      </trkpt>
      <trkpt lat="43.06531" lon="0.45535">
        <ele>469.6</ele>
        <time>2020-06-30T09:32:54Z</time>
      </trkpt>
      <trkpt lat="43.06533" lon="0.45527">
        <ele>469.4</ele>
        <time>2020-06-30T09:32:55Z</time>
      </trkpt>
      <trkpt lat="43.06535" lon="0.45519">
        <ele>469.4</ele>
        <time>2020-06-30T09:32:56Z</time>
      </trkpt>
      <trkpt lat="43.06537" lon="0.45511">
        <ele>469.4</ele>
        <time>2020-06-30T09:32:57Z</time>
      </trkpt>
      <trkpt lat="43.06538" lon="0.45503">
        <ele>469.6</ele>
        <time>2020-06-30T09:32:58Z</time>
      </trkpt>
      <trkpt lat="43.06539" lon="0.45495">
        <ele>469.4</ele>
        <time>2020-06-30T09:32:59Z</time>
      </trkpt>
      <trkpt lat="43.06539" lon="0.45495">
        <ele>469.4</ele>
        <time>2020-06-30T09:33:00Z</time>
      </trkpt>
      <trkpt lat="43.06542" lon="0.45478">
        <ele>469.4</ele>
        <time>2020-06-30T09:33:01Z</time>
      </trkpt>
      <trkpt lat="43.06543" lon="0.4547">
        <ele>469.4</ele>
        <time>2020-06-30T09:33:02Z</time>
      </trkpt>
      <trkpt lat="43.06544" lon="0.45462">
        <ele>469.4</ele>
        <time>2020-06-30T09:33:03Z</time>
      </trkpt>
      <trkpt lat="43.06545" lon="0.45454">
        <ele>469.4</ele>
        <time>2020-06-30T09:33:04Z</time>
      </trkpt>
      <trkpt lat="43.06545" lon="0.45454">
        <ele>469.4</ele>
        <time>2020-06-30T09:33:05Z</time>
      </trkpt>
      <trkpt lat="43.06546" lon="0.45439">
        <ele>469.4</ele>
        <time>2020-06-30T09:33:06Z</time>
      </trkpt>
      <trkpt lat="43.06545" lon="0.4543">
        <ele>469.4</ele>
        <time>2020-06-30T09:33:07Z</time>
      </trkpt>
      <trkpt lat="43.06545" lon="0.45422">
        <ele>469.4</ele>
        <time>2020-06-30T09:33:08Z</time>
      </trkpt>
      <trkpt lat="43.06544" lon="0.45415">
        <ele>469.6</ele>
        <time>2020-06-30T09:33:09Z</time>
      </trkpt>
      <trkpt lat="43.06544" lon="0.45408">
        <ele>469.6</ele>
        <time>2020-06-30T09:33:10Z</time>
      </trkpt>
      <trkpt lat="43.06542" lon="0.45401">
        <ele>469.6</ele>
        <time>2020-06-30T09:33:11Z</time>
      </trkpt>
      <trkpt lat="43.06541" lon="0.45394">
        <ele>469.6</ele>
        <time>2020-06-30T09:33:12Z</time>
      </trkpt>
      <trkpt lat="43.06539" lon="0.45388">
        <ele>469.6</ele>
        <time>2020-06-30T09:33:13Z</time>
      </trkpt>
      <trkpt lat="43.06539" lon="0.45388">
        <ele>469.6</ele>
        <time>2020-06-30T09:33:14Z</time>
      </trkpt>
      <trkpt lat="43.06535" lon="0.45378">
        <ele>469.6</ele>
        <time>2020-06-30T09:33:15Z</time>
      </trkpt>
      <trkpt lat="43.06533" lon="0.45372">
        <ele>469.8</ele>
        <time>2020-06-30T09:33:16Z</time>
      </trkpt>
      <trkpt lat="43.06531" lon="0.45367">
        <ele>469.8</ele>
        <time>2020-06-30T09:33:17Z</time>
      </trkpt>
      <trkpt lat="43.06529" lon="0.45361">
        <ele>469.8</ele>
        <time>2020-06-30T09:33:18Z</time>
      </trkpt>
      <trkpt lat="43.06527" lon="0.45355">
        <ele>470</ele>
        <time>2020-06-30T09:33:19Z</time>
      </trkpt>
      <trkpt lat="43.06525" lon="0.4535">
        <ele>470</ele>
        <time>2020-06-30T09:33:20Z</time>
      </trkpt>
      <trkpt lat="43.06524" lon="0.45345">
        <ele>470</ele>
        <time>2020-06-30T09:33:21Z</time>
      </trkpt>
      <trkpt lat="43.06524" lon="0.45339">
        <ele>470.2</ele>
        <time>2020-06-30T09:33:22Z</time>
      </trkpt>
      <trkpt lat="43.06523" lon="0.45334">
        <ele>470.2</ele>
        <time>2020-06-30T09:33:23Z</time>
      </trkpt>
      <trkpt lat="43.06522" lon="0.45328">
        <ele>470.2</ele>
        <time>2020-06-30T09:33:24Z</time>
      </trkpt>
      <trkpt lat="43.06522" lon="0.45323">
        <ele>470.2</ele>
        <time>2020-06-30T09:33:25Z</time>
      </trkpt>
      <trkpt lat="43.06521" lon="0.45318">
        <ele>470.4</ele>
        <time>2020-06-30T09:33:26Z</time>
      </trkpt>
      <trkpt lat="43.0652" lon="0.45314">
        <ele>470.4</ele>
        <time>2020-06-30T09:33:27Z</time>
      </trkpt>
      <trkpt lat="43.0652" lon="0.45309">
        <ele>470.6</ele>
        <time>2020-06-30T09:33:28Z</time>
      </trkpt>
      <trkpt lat="43.0652" lon="0.45305">
        <ele>470.6</ele>
        <time>2020-06-30T09:33:29Z</time>
      </trkpt>
      <trkpt lat="43.06519" lon="0.453">
        <ele>470.6</ele>
        <time>2020-06-30T09:33:30Z</time>
      </trkpt>
      <trkpt lat="43.06518" lon="0.45295">
        <ele>470.6</ele>
        <time>2020-06-30T09:33:31Z</time>
      </trkpt>
      <trkpt lat="43.06517" lon="0.45289">
        <ele>470.8</ele>
        <time>2020-06-30T09:33:32Z</time>
      </trkpt>
      <trkpt lat="43.06516" lon="0.45283">
        <ele>470.8</ele>
        <time>2020-06-30T09:33:33Z</time>
      </trkpt>
      <trkpt lat="43.06516" lon="0.45283">
        <ele>470.8</ele>
        <time>2020-06-30T09:33:34Z</time>
      </trkpt>
      <trkpt lat="43.06514" lon="0.45272">
        <ele>470.8</ele>
        <time>2020-06-30T09:33:35Z</time>
      </trkpt>
      <trkpt lat="43.06513" lon="0.45265">
        <ele>470.8</ele>
        <time>2020-06-30T09:33:36Z</time>
      </trkpt>
      <trkpt lat="43.06512" lon="0.45259">
        <ele>470.8</ele>
        <time>2020-06-30T09:33:37Z</time>
      </trkpt>
      <trkpt lat="43.06511" lon="0.45253">
        <ele>470.6</ele>
        <time>2020-06-30T09:33:38Z</time>
      </trkpt>
      <trkpt lat="43.0651" lon="0.45246">
        <ele>470.6</ele>
        <time>2020-06-30T09:33:39Z</time>
      </trkpt>
      <trkpt lat="43.06509" lon="0.4524">
        <ele>470.6</ele>
        <time>2020-06-30T09:33:40Z</time>
      </trkpt>
      <trkpt lat="43.06509" lon="0.45233">
        <ele>470.4</ele>
        <time>2020-06-30T09:33:41Z</time>
      </trkpt>
      <trkpt lat="43.06509" lon="0.45233">
        <ele>470.4</ele>
        <time>2020-06-30T09:33:42Z</time>
      </trkpt>
      <trkpt lat="43.06508" lon="0.45221">
        <ele>470.2</ele>
        <time>2020-06-30T09:33:43Z</time>
      </trkpt>
      <trkpt lat="43.06508" lon="0.45215">
        <ele>470</ele>
        <time>2020-06-30T09:33:44Z</time>
      </trkpt>
      <trkpt lat="43.06508" lon="0.45208">
        <ele>469.8</ele>
        <time>2020-06-30T09:33:45Z</time>
      </trkpt>
      <trkpt lat="43.06507" lon="0.45199">
        <ele>469.8</ele>
        <time>2020-06-30T09:33:46Z</time>
      </trkpt>
      <trkpt lat="43.06507" lon="0.45199">
        <ele>469.6</ele>
        <time>2020-06-30T09:33:47Z</time>
      </trkpt>
      <trkpt lat="43.06508" lon="0.45184">
        <ele>469.4</ele>
        <time>2020-06-30T09:33:48Z</time>
      </trkpt>
      <trkpt lat="43.06509" lon="0.45176">
        <ele>469.4</ele>
        <time>2020-06-30T09:33:49Z</time>
      </trkpt>
      <trkpt lat="43.06509" lon="0.45176">
        <ele>469.4</ele>
        <time>2020-06-30T09:33:50Z</time>
      </trkpt>
      <trkpt lat="43.06511" lon="0.45161">
        <ele>469.2</ele>
        <time>2020-06-30T09:33:51Z</time>
      </trkpt>
      <trkpt lat="43.06514" lon="0.45156">
        <ele>469.2</ele>
        <time>2020-06-30T09:33:52Z</time>
      </trkpt>
      <trkpt lat="43.06516" lon="0.4515">
        <ele>469.2</ele>
        <time>2020-06-30T09:33:53Z</time>
      </trkpt>
      <trkpt lat="43.06518" lon="0.45145">
        <ele>469.2</ele>
        <time>2020-06-30T09:33:54Z</time>
      </trkpt>
      <trkpt lat="43.06519" lon="0.45139">
        <ele>469.2</ele>
        <time>2020-06-30T09:33:55Z</time>
      </trkpt>
      <trkpt lat="43.0652" lon="0.45132">
        <ele>469.4</ele>
        <time>2020-06-30T09:33:56Z</time>
      </trkpt>
      <trkpt lat="43.0652" lon="0.45132">
        <ele>469.4</ele>
        <time>2020-06-30T09:33:57Z</time>
      </trkpt>
      <trkpt lat="43.06523" lon="0.4512">
        <ele>469.4</ele>
        <time>2020-06-30T09:33:58Z</time>
      </trkpt>
      <trkpt lat="43.06523" lon="0.45113">
        <ele>469.4</ele>
        <time>2020-06-30T09:33:59Z</time>
      </trkpt>
      <trkpt lat="43.06523" lon="0.45113">
        <ele>469.4</ele>
        <time>2020-06-30T09:34:00Z</time>
      </trkpt>
      <trkpt lat="43.06524" lon="0.451">
        <ele>469.6</ele>
        <time>2020-06-30T09:34:01Z</time>
      </trkpt>
      <trkpt lat="43.06525" lon="0.45094">
        <ele>469.6</ele>
        <time>2020-06-30T09:34:02Z</time>
      </trkpt>
      <trkpt lat="43.06527" lon="0.45088">
        <ele>469.6</ele>
        <time>2020-06-30T09:34:03Z</time>
      </trkpt>
      <trkpt lat="43.06527" lon="0.45088">
        <ele>469.6</ele>
        <time>2020-06-30T09:34:04Z</time>
      </trkpt>
      <trkpt lat="43.06528" lon="0.45075">
        <ele>469.6</ele>
        <time>2020-06-30T09:34:05Z</time>
      </trkpt>
      <trkpt lat="43.0653" lon="0.45067">
        <ele>469.6</ele>
        <time>2020-06-30T09:34:06Z</time>
      </trkpt>
      <trkpt lat="43.0653" lon="0.45067">
        <ele>469.6</ele>
        <time>2020-06-30T09:34:07Z</time>
      </trkpt>
      <trkpt lat="43.06534" lon="0.45058">
        <ele>469.6</ele>
        <time>2020-06-30T09:34:08Z</time>
      </trkpt>
      <trkpt lat="43.06535" lon="0.45053">
        <ele>469.8</ele>
        <time>2020-06-30T09:34:09Z</time>
      </trkpt>
      <trkpt lat="43.06536" lon="0.45048">
        <ele>469.8</ele>
        <time>2020-06-30T09:34:10Z</time>
      </trkpt>
      <trkpt lat="43.06538" lon="0.45042">
        <ele>469.8</ele>
        <time>2020-06-30T09:34:11Z</time>
      </trkpt>
      <trkpt lat="43.06539" lon="0.45037">
        <ele>470</ele>
        <time>2020-06-30T09:34:12Z</time>
      </trkpt>
      <trkpt lat="43.06539" lon="0.45037">
        <ele>470</ele>
        <time>2020-06-30T09:34:13Z</time>
      </trkpt>
      <trkpt lat="43.0654" lon="0.45028">
        <ele>470</ele>
        <time>2020-06-30T09:34:14Z</time>
      </trkpt>
      <trkpt lat="43.06539" lon="0.45021">
        <ele>470</ele>
        <time>2020-06-30T09:34:15Z</time>
      </trkpt>
      <trkpt lat="43.0654" lon="0.45017">
        <ele>470</ele>
        <time>2020-06-30T09:34:16Z</time>
      </trkpt>
      <trkpt lat="43.0654" lon="0.45017">
        <ele>470</ele>
        <time>2020-06-30T09:34:17Z</time>
      </trkpt>
      <trkpt lat="43.06541" lon="0.45006">
        <ele>470</ele>
        <time>2020-06-30T09:34:18Z</time>
      </trkpt>
      <trkpt lat="43.06542" lon="0.45001">
        <ele>470</ele>
        <time>2020-06-30T09:34:19Z</time>
      </trkpt>
      <trkpt lat="43.06542" lon="0.44998">
        <ele>470</ele>
        <time>2020-06-30T09:34:20Z</time>
      </trkpt>
      <trkpt lat="43.06541" lon="0.44995">
        <ele>470</ele>
        <time>2020-06-30T09:34:21Z</time>
      </trkpt>
      <trkpt lat="43.06541" lon="0.4499">
        <ele>470</ele>
        <time>2020-06-30T09:34:22Z</time>
      </trkpt>
      <trkpt lat="43.06542" lon="0.44988">
        <ele>469.8</ele>
        <time>2020-06-30T09:34:23Z</time>
      </trkpt>
      <trkpt lat="43.06547" lon="0.44989">
        <ele>469.8</ele>
        <time>2020-06-30T09:34:24Z</time>
      </trkpt>
      <trkpt lat="43.06547" lon="0.44989">
        <ele>469.8</ele>
        <time>2020-06-30T09:34:25Z</time>
      </trkpt>
      <trkpt lat="43.06547" lon="0.44988">
        <ele>469.8</ele>
        <time>2020-06-30T09:34:26Z</time>
      </trkpt>
      <trkpt lat="43.06544" lon="0.44986">
        <ele>469.8</ele>
        <time>2020-06-30T09:34:27Z</time>
      </trkpt>
      <trkpt lat="43.06539" lon="0.44983">
        <ele>469.8</ele>
        <time>2020-06-30T09:34:28Z</time>
      </trkpt>
      <trkpt lat="43.06542" lon="0.44982">
        <ele>469.8</ele>
        <time>2020-06-30T09:34:29Z</time>
      </trkpt>
      <trkpt lat="43.06542" lon="0.4498">
        <ele>469.8</ele>
        <time>2020-06-30T09:34:30Z</time>
      </trkpt>
      <trkpt lat="43.06541" lon="0.4498">
        <ele>469.8</ele>
        <time>2020-06-30T09:34:31Z</time>
      </trkpt>
      <trkpt lat="43.06541" lon="0.44979">
        <ele>469.8</ele>
        <time>2020-06-30T09:34:32Z</time>
      </trkpt>
      <trkpt lat="43.0655" lon="0.44966">
        <ele>470</ele>
        <time>2020-06-30T09:43:36Z</time>
      </trkpt>
      <trkpt lat="43.06546" lon="0.44962">
        <ele>470</ele>
        <time>2020-06-30T09:43:37Z</time>
      </trkpt>
      <trkpt lat="43.06545" lon="0.44965">
        <ele>470</ele>
        <time>2020-06-30T09:43:38Z</time>
      </trkpt>
      <trkpt lat="43.06546" lon="0.44967">
        <ele>470</ele>
        <time>2020-06-30T09:43:39Z</time>
      </trkpt>
      <trkpt lat="43.06548" lon="0.44976">
        <ele>470</ele>
        <time>2020-06-30T09:43:40Z</time>
      </trkpt>
      <trkpt lat="43.06545" lon="0.44979">
        <ele>470</ele>
        <time>2020-06-30T09:43:41Z</time>
      </trkpt>
      <trkpt lat="43.06545" lon="0.44981">
        <ele>470</ele>
        <time>2020-06-30T09:43:42Z</time>
      </trkpt>
      <trkpt lat="43.06542" lon="0.44978">
        <ele>470</ele>
        <time>2020-06-30T09:43:43Z</time>
      </trkpt>
      <trkpt lat="43.06542" lon="0.44979">
        <ele>470</ele>
        <time>2020-06-30T09:43:44Z</time>
      </trkpt>
      <trkpt lat="43.06541" lon="0.44979">
        <ele>470</ele>
        <time>2020-06-30T09:43:45Z</time>
      </trkpt>
      <trkpt lat="43.06543" lon="0.44981">
        <ele>470</ele>
        <time>2020-06-30T09:43:46Z</time>
      </trkpt>
      <trkpt lat="43.06541" lon="0.4498">
        <ele>470</ele>
        <time>2020-06-30T09:43:47Z</time>
      </trkpt>
      <trkpt lat="43.06543" lon="0.44979">
        <ele>470</ele>
        <time>2020-06-30T09:43:48Z</time>
      </trkpt>
      <trkpt lat="43.06542" lon="0.44978">
        <ele>470</ele>
        <time>2020-06-30T09:43:49Z</time>
      </trkpt>
      <trkpt lat="43.06542" lon="0.44976">
        <ele>470</ele>
        <time>2020-06-30T09:43:50Z</time>
      </trkpt>
      <trkpt lat="43.06542" lon="0.44972">
        <ele>470</ele>
        <time>2020-06-30T09:43:51Z</time>
      </trkpt>
      <trkpt lat="43.06543" lon="0.44971">
        <ele>470</ele>
        <time>2020-06-30T09:43:52Z</time>
      </trkpt>
      <trkpt lat="43.06543" lon="0.44968">
        <ele>470</ele>
        <time>2020-06-30T09:43:53Z</time>
      </trkpt>
      <trkpt lat="43.06538" lon="0.44964">
        <ele>470.2</ele>
        <time>2020-06-30T09:43:54Z</time>
      </trkpt>
      <trkpt lat="43.0654" lon="0.44958">
        <ele>470.2</ele>
        <time>2020-06-30T09:43:55Z</time>
      </trkpt>
      <trkpt lat="43.06539" lon="0.44958">
        <ele>470.2</ele>
        <time>2020-06-30T09:43:56Z</time>
      </trkpt>
      <trkpt lat="43.06538" lon="0.44954">
        <ele>470.2</ele>
        <time>2020-06-30T09:43:57Z</time>
      </trkpt>
      <trkpt lat="43.06536" lon="0.44948">
        <ele>470.2</ele>
        <time>2020-06-30T09:43:59Z</time>
      </trkpt>
      <trkpt lat="43.06536" lon="0.44945">
        <ele>470.2</ele>
        <time>2020-06-30T09:44:00Z</time>
      </trkpt>
      <trkpt lat="43.06535" lon="0.44936">
        <ele>470.2</ele>
        <time>2020-06-30T09:44:01Z</time>
      </trkpt>
      <trkpt lat="43.06534" lon="0.44931">
        <ele>470.2</ele>
        <time>2020-06-30T09:44:02Z</time>
      </trkpt>
      <trkpt lat="43.06536" lon="0.44928">
        <ele>470.2</ele>
        <time>2020-06-30T09:44:03Z</time>
      </trkpt>
      <trkpt lat="43.06535" lon="0.44921">
        <ele>470.2</ele>
        <time>2020-06-30T09:44:04Z</time>
      </trkpt>
      <trkpt lat="43.06533" lon="0.44915">
        <ele>470.2</ele>
        <time>2020-06-30T09:44:05Z</time>
      </trkpt>
      <trkpt lat="43.06534" lon="0.44913">
        <ele>470.2</ele>
        <time>2020-06-30T09:44:06Z</time>
      </trkpt>
      <trkpt lat="43.06531" lon="0.44902">
        <ele>470</ele>
        <time>2020-06-30T09:44:08Z</time>
      </trkpt>
      <trkpt lat="43.06529" lon="0.44898">
        <ele>470</ele>
        <time>2020-06-30T09:44:09Z</time>
      </trkpt>
      <trkpt lat="43.06525" lon="0.4489">
        <ele>470</ele>
        <time>2020-06-30T09:44:10Z</time>
      </trkpt>
      <trkpt lat="43.06524" lon="0.44886">
        <ele>470</ele>
        <time>2020-06-30T09:44:11Z</time>
      </trkpt>
      <trkpt lat="43.06525" lon="0.44884">
        <ele>470</ele>
        <time>2020-06-30T09:44:12Z</time>
      </trkpt>
      <trkpt lat="43.06525" lon="0.4488">
        <ele>469.8</ele>
        <time>2020-06-30T09:44:13Z</time>
      </trkpt>
      <trkpt lat="43.06526" lon="0.44877">
        <ele>469.8</ele>
        <time>2020-06-30T09:44:14Z</time>
      </trkpt>
      <trkpt lat="43.06524" lon="0.44872">
        <ele>469.6</ele>
        <time>2020-06-30T09:44:15Z</time>
      </trkpt>
      <trkpt lat="43.06523" lon="0.44866">
        <ele>469.6</ele>
        <time>2020-06-30T09:44:16Z</time>
      </trkpt>
      <trkpt lat="43.06523" lon="0.44862">
        <ele>469.4</ele>
        <time>2020-06-30T09:44:17Z</time>
      </trkpt>
      <trkpt lat="43.06519" lon="0.44854">
        <ele>469.2</ele>
        <time>2020-06-30T09:44:18Z</time>
      </trkpt>
      <trkpt lat="43.06515" lon="0.4484">
        <ele>468.8</ele>
        <time>2020-06-30T09:44:20Z</time>
      </trkpt>
      <trkpt lat="43.06512" lon="0.44833">
        <ele>468.8</ele>
        <time>2020-06-30T09:44:21Z</time>
      </trkpt>
      <trkpt lat="43.06511" lon="0.44826">
        <ele>468.8</ele>
        <time>2020-06-30T09:44:22Z</time>
      </trkpt>
      <trkpt lat="43.0651" lon="0.4482">
        <ele>468.6</ele>
        <time>2020-06-30T09:44:23Z</time>
      </trkpt>
      <trkpt lat="43.06507" lon="0.44811">
        <ele>468.6</ele>
        <time>2020-06-30T09:44:24Z</time>
      </trkpt>
      <trkpt lat="43.06506" lon="0.44804">
        <ele>468.6</ele>
        <time>2020-06-30T09:44:25Z</time>
      </trkpt>
      <trkpt lat="43.06506" lon="0.44796">
        <ele>468.6</ele>
        <time>2020-06-30T09:44:26Z</time>
      </trkpt>
      <trkpt lat="43.06504" lon="0.44783">
        <ele>468.6</ele>
        <time>2020-06-30T09:44:28Z</time>
      </trkpt>
      <trkpt lat="43.06502" lon="0.44776">
        <ele>468.6</ele>
        <time>2020-06-30T09:44:29Z</time>
      </trkpt>
      <trkpt lat="43.06499" lon="0.44769">
        <ele>468.6</ele>
        <time>2020-06-30T09:44:30Z</time>
      </trkpt>
      <trkpt lat="43.06497" lon="0.4476">
        <ele>468.6</ele>
        <time>2020-06-30T09:44:31Z</time>
      </trkpt>
      <trkpt lat="43.06494" lon="0.4475">
        <ele>468.4</ele>
        <time>2020-06-30T09:44:32Z</time>
      </trkpt>
      <trkpt lat="43.06493" lon="0.44743">
        <ele>468.4</ele>
        <time>2020-06-30T09:44:33Z</time>
      </trkpt>
      <trkpt lat="43.06491" lon="0.44733">
        <ele>468.4</ele>
        <time>2020-06-30T09:44:34Z</time>
      </trkpt>
      <trkpt lat="43.06491" lon="0.44725">
        <ele>468.2</ele>
        <time>2020-06-30T09:44:35Z</time>
      </trkpt>
      <trkpt lat="43.06492" lon="0.44716">
        <ele>468.4</ele>
        <time>2020-06-30T09:44:36Z</time>
      </trkpt>
      <trkpt lat="43.06493" lon="0.44707">
        <ele>468.2</ele>
        <time>2020-06-30T09:44:37Z</time>
      </trkpt>
      <trkpt lat="43.06492" lon="0.44706">
        <ele>468.2</ele>
        <time>2020-06-30T09:44:38Z</time>
      </trkpt>
      <trkpt lat="43.06492" lon="0.44699">
        <ele>468.2</ele>
        <time>2020-06-30T09:44:39Z</time>
      </trkpt>
      <trkpt lat="43.06492" lon="0.4468">
        <ele>468.4</ele>
        <time>2020-06-30T09:44:41Z</time>
      </trkpt>
      <trkpt lat="43.06494" lon="0.44669">
        <ele>468.4</ele>
        <time>2020-06-30T09:44:42Z</time>
      </trkpt>
      <trkpt lat="43.06495" lon="0.44661">
        <ele>468.4</ele>
        <time>2020-06-30T09:44:43Z</time>
      </trkpt>
      <trkpt lat="43.06496" lon="0.44654">
        <ele>468.4</ele>
        <time>2020-06-30T09:44:44Z</time>
      </trkpt>
      <trkpt lat="43.06495" lon="0.44648">
        <ele>468.4</ele>
        <time>2020-06-30T09:44:45Z</time>
      </trkpt>
      <trkpt lat="43.06496" lon="0.44641">
        <ele>468.4</ele>
        <time>2020-06-30T09:44:46Z</time>
      </trkpt>
      <trkpt lat="43.06497" lon="0.44635">
        <ele>468.4</ele>
        <time>2020-06-30T09:44:47Z</time>
      </trkpt>
      <trkpt lat="43.06498" lon="0.44628">
        <ele>468.6</ele>
        <time>2020-06-30T09:44:48Z</time>
      </trkpt>
      <trkpt lat="43.06498" lon="0.44616">
        <ele>468.6</ele>
        <time>2020-06-30T09:44:50Z</time>
      </trkpt>
      <trkpt lat="43.06499" lon="0.44613">
        <ele>468.6</ele>
        <time>2020-06-30T09:44:51Z</time>
      </trkpt>
      <trkpt lat="43.06501" lon="0.44608">
        <ele>468.8</ele>
        <time>2020-06-30T09:44:52Z</time>
      </trkpt>
      <trkpt lat="43.06501" lon="0.44606">
        <ele>468.8</ele>
        <time>2020-06-30T09:44:53Z</time>
      </trkpt>
      <trkpt lat="43.06502" lon="0.44604">
        <ele>468.8</ele>
        <time>2020-06-30T09:44:54Z</time>
      </trkpt>
      <trkpt lat="43.06501" lon="0.44603">
        <ele>468.8</ele>
        <time>2020-06-30T09:44:55Z</time>
      </trkpt>
      <trkpt lat="43.06501" lon="0.44602">
        <ele>468.8</ele>
        <time>2020-06-30T09:44:56Z</time>
      </trkpt>
      <trkpt lat="43.06501" lon="0.44602">
        <ele>468.8</ele>
        <time>2020-06-30T09:44:57Z</time>
      </trkpt>
      <trkpt lat="43.06502" lon="0.44602">
        <ele>468.8</ele>
        <time>2020-06-30T09:44:58Z</time>
      </trkpt>
      <trkpt lat="43.06503" lon="0.44602">
        <ele>468.8</ele>
        <time>2020-06-30T09:44:59Z</time>
      </trkpt>
      <trkpt lat="43.06501" lon="0.44601">
        <ele>468.8</ele>
        <time>2020-06-30T09:45:00Z</time>
      </trkpt>
      <trkpt lat="43.06502" lon="0.44601">
        <ele>468.8</ele>
        <time>2020-06-30T09:45:01Z</time>
      </trkpt>
      <trkpt lat="43.06501" lon="0.44601">
        <ele>468.8</ele>
        <time>2020-06-30T09:45:02Z</time>
      </trkpt>
      <trkpt lat="43.06501" lon="0.44601">
        <ele>468.8</ele>
        <time>2020-06-30T09:45:03Z</time>
      </trkpt>
      <trkpt lat="43.06501" lon="0.446">
        <ele>468.8</ele>
        <time>2020-06-30T09:45:04Z</time>
      </trkpt>
      <trkpt lat="43.06502" lon="0.44601">
        <ele>468.8</ele>
        <time>2020-06-30T09:45:05Z</time>
      </trkpt>
      <trkpt lat="43.06506" lon="0.44592">
        <ele>468</ele>
        <time>2020-06-30T09:59:30Z</time>
      </trkpt>
      <trkpt lat="43.06506" lon="0.44589">
        <ele>468</ele>
        <time>2020-06-30T09:59:31Z</time>
      </trkpt>
      <trkpt lat="43.06506" lon="0.44588">
        <ele>468</ele>
        <time>2020-06-30T09:59:32Z</time>
      </trkpt>
      <trkpt lat="43.06506" lon="0.44587">
        <ele>468</ele>
        <time>2020-06-30T09:59:33Z</time>
      </trkpt>
      <trkpt lat="43.06507" lon="0.44586">
        <ele>468</ele>
        <time>2020-06-30T09:59:34Z</time>
      </trkpt>
      <trkpt lat="43.06506" lon="0.44584">
        <ele>468</ele>
        <time>2020-06-30T09:59:35Z</time>
      </trkpt>
      <trkpt lat="43.06507" lon="0.44582">
        <ele>468</ele>
        <time>2020-06-30T09:59:36Z</time>
      </trkpt>
      <trkpt lat="43.06506" lon="0.4458">
        <ele>468</ele>
        <time>2020-06-30T09:59:37Z</time>
      </trkpt>
      <trkpt lat="43.06506" lon="0.44578">
        <ele>468</ele>
        <time>2020-06-30T09:59:38Z</time>
      </trkpt>
      <trkpt lat="43.06505" lon="0.44576">
        <ele>468</ele>
        <time>2020-06-30T09:59:39Z</time>
      </trkpt>
      <trkpt lat="43.06503" lon="0.44575">
        <ele>468.2</ele>
        <time>2020-06-30T09:59:40Z</time>
      </trkpt>
      <trkpt lat="43.06501" lon="0.44575">
        <ele>468.2</ele>
        <time>2020-06-30T09:59:41Z</time>
      </trkpt>
      <trkpt lat="43.065" lon="0.44577">
        <ele>468</ele>
        <time>2020-06-30T09:59:42Z</time>
      </trkpt>
      <trkpt lat="43.065" lon="0.44579">
        <ele>468</ele>
        <time>2020-06-30T09:59:43Z</time>
      </trkpt>
      <trkpt lat="43.06501" lon="0.44576">
        <ele>468</ele>
        <time>2020-06-30T09:59:44Z</time>
      </trkpt>
      <trkpt lat="43.06502" lon="0.44576">
        <ele>468</ele>
        <time>2020-06-30T09:59:45Z</time>
      </trkpt>
      <trkpt lat="43.06502" lon="0.44576">
        <ele>467.8</ele>
        <time>2020-06-30T09:59:46Z</time>
      </trkpt>
      <trkpt lat="43.06503" lon="0.44575">
        <ele>467.8</ele>
        <time>2020-06-30T09:59:47Z</time>
      </trkpt>
      <trkpt lat="43.06504" lon="0.44575">
        <ele>467.8</ele>
        <time>2020-06-30T09:59:48Z</time>
      </trkpt>
      <trkpt lat="43.06504" lon="0.44575">
        <ele>467.8</ele>
        <time>2020-06-30T09:59:49Z</time>
      </trkpt>
      <trkpt lat="43.06503" lon="0.44574">
        <ele>467.8</ele>
        <time>2020-06-30T09:59:50Z</time>
      </trkpt>
      <trkpt lat="43.06505" lon="0.44575">
        <ele>467.8</ele>
        <time>2020-06-30T09:59:51Z</time>
      </trkpt>
      <trkpt lat="43.06506" lon="0.44573">
        <ele>467.8</ele>
        <time>2020-06-30T09:59:52Z</time>
      </trkpt>
      <trkpt lat="43.06506" lon="0.44574">
        <ele>467.8</ele>
        <time>2020-06-30T09:59:53Z</time>
      </trkpt>
      <trkpt lat="43.06507" lon="0.44575">
        <ele>467.8</ele>
        <time>2020-06-30T09:59:54Z</time>
      </trkpt>
      <trkpt lat="43.06507" lon="0.44574">
        <ele>467.8</ele>
        <time>2020-06-30T09:59:55Z</time>
      </trkpt>
      <trkpt lat="43.06505" lon="0.44576">
        <ele>467.8</ele>
        <time>2020-06-30T09:59:56Z</time>
      </trkpt>
      <trkpt lat="43.06505" lon="0.44578">
        <ele>467.6</ele>
        <time>2020-06-30T09:59:57Z</time>
      </trkpt>
      <trkpt lat="43.06507" lon="0.4458">
        <ele>467.6</ele>
        <time>2020-06-30T09:59:58Z</time>
      </trkpt>
      <trkpt lat="43.06508" lon="0.44578">
        <ele>467.6</ele>
        <time>2020-06-30T09:59:59Z</time>
      </trkpt>
      <trkpt lat="43.0651" lon="0.44578">
        <ele>467.6</ele>
        <time>2020-06-30T10:00:00Z</time>
      </trkpt>
      <trkpt lat="43.06511" lon="0.44579">
        <ele>467.6</ele>
        <time>2020-06-30T10:00:01Z</time>
      </trkpt>
      <trkpt lat="43.0651" lon="0.44575">
        <ele>467.6</ele>
        <time>2020-06-30T10:00:02Z</time>
      </trkpt>
      <trkpt lat="43.06512" lon="0.44577">
        <ele>467.6</ele>
        <time>2020-06-30T10:00:03Z</time>
      </trkpt>
      <trkpt lat="43.0651" lon="0.44575">
        <ele>467.6</ele>
        <time>2020-06-30T10:00:04Z</time>
      </trkpt>
      <trkpt lat="43.0651" lon="0.44576">
        <ele>467.6</ele>
        <time>2020-06-30T10:00:05Z</time>
      </trkpt>
      <trkpt lat="43.0651" lon="0.44576">
        <ele>467.6</ele>
        <time>2020-06-30T10:00:06Z</time>
      </trkpt>
      <trkpt lat="43.06509" lon="0.44576">
        <ele>467.6</ele>
        <time>2020-06-30T10:00:07Z</time>
      </trkpt>
      <trkpt lat="43.0651" lon="0.44576">
        <ele>467.6</ele>
        <time>2020-06-30T10:00:08Z</time>
      </trkpt>
      <trkpt lat="43.0651" lon="0.44576">
        <ele>467.6</ele>
        <time>2020-06-30T10:00:09Z</time>
      </trkpt>
      <trkpt lat="43.0651" lon="0.44576">
        <ele>467.6</ele>
        <time>2020-06-30T10:00:10Z</time>
      </trkpt>
      <trkpt lat="43.0651" lon="0.44577">
        <ele>467.6</ele>
        <time>2020-06-30T10:00:11Z</time>
      </trkpt>
      <trkpt lat="43.0651" lon="0.44577">
        <ele>467.6</ele>
        <time>2020-06-30T10:00:12Z</time>
      </trkpt>
      <trkpt lat="43.06511" lon="0.44577">
        <ele>467.4</ele>
        <time>2020-06-30T10:00:13Z</time>
      </trkpt>
      <trkpt lat="43.06511" lon="0.44577">
        <ele>467.4</ele>
        <time>2020-06-30T10:00:14Z</time>
      </trkpt>
      <trkpt lat="43.06511" lon="0.44577">
        <ele>467.4</ele>
        <time>2020-06-30T10:00:15Z</time>
      </trkpt>
      <trkpt lat="43.06511" lon="0.44576">
        <ele>467.4</ele>
        <time>2020-06-30T10:00:21Z</time>
      </trkpt>
      <trkpt lat="43.06511" lon="0.44576">
        <ele>467.4</ele>
        <time>2020-06-30T10:00:22Z</time>
      </trkpt>
      <trkpt lat="43.06511" lon="0.44576">
        <ele>467.4</ele>
        <time>2020-06-30T10:00:23Z</time>
      </trkpt>
      <trkpt lat="43.06511" lon="0.44576">
        <ele>467.4</ele>
        <time>2020-06-30T10:00:24Z</time>
      </trkpt>
      <trkpt lat="43.06511" lon="0.44576">
        <ele>467.4</ele>
        <time>2020-06-30T10:00:25Z</time>
      </trkpt>
      <trkpt lat="43.06511" lon="0.44576">
        <ele>467.4</ele>
        <time>2020-06-30T10:00:26Z</time>
      </trkpt>
      <trkpt lat="43.06511" lon="0.44576">
        <ele>467.4</ele>
        <time>2020-06-30T10:00:27Z</time>
      </trkpt>
      <trkpt lat="43.06511" lon="0.44577">
        <ele>467.4</ele>
        <time>2020-06-30T10:00:28Z</time>
      </trkpt>
      <trkpt lat="43.06512" lon="0.44577">
        <ele>467.4</ele>
        <time>2020-06-30T10:00:29Z</time>
      </trkpt>
      <trkpt lat="43.06513" lon="0.44578">
        <ele>467.4</ele>
        <time>2020-06-30T10:00:30Z</time>
      </trkpt>
      <trkpt lat="43.06513" lon="0.44578">
        <ele>467.2</ele>
        <time>2020-06-30T10:00:31Z</time>
      </trkpt>
      <trkpt lat="43.06514" lon="0.44579">
        <ele>467.2</ele>
        <time>2020-06-30T10:00:32Z</time>
      </trkpt>
      <trkpt lat="43.06514" lon="0.44579">
        <ele>467.2</ele>
        <time>2020-06-30T10:00:33Z</time>
      </trkpt>
      <trkpt lat="43.06514" lon="0.44579">
        <ele>467.2</ele>
        <time>2020-06-30T10:00:34Z</time>
      </trkpt>
      <trkpt lat="43.06514" lon="0.44579">
        <ele>467.2</ele>
        <time>2020-06-30T10:00:35Z</time>
      </trkpt>
      <trkpt lat="43.06514" lon="0.44579">
        <ele>467.2</ele>
        <time>2020-06-30T10:00:36Z</time>
      </trkpt>
      <trkpt lat="43.06514" lon="0.44579">
        <ele>467.2</ele>
        <time>2020-06-30T10:00:37Z</time>
      </trkpt>
      <trkpt lat="43.06514" lon="0.44579">
        <ele>467.2</ele>
        <time>2020-06-30T10:00:38Z</time>
      </trkpt>
      <trkpt lat="43.06515" lon="0.44579">
        <ele>467.2</ele>
        <time>2020-06-30T10:00:39Z</time>
      </trkpt>
      <trkpt lat="43.06515" lon="0.44579">
        <ele>467.2</ele>
        <time>2020-06-30T10:00:40Z</time>
      </trkpt>
      <trkpt lat="43.06515" lon="0.44579">
        <ele>467.2</ele>
        <time>2020-06-30T10:00:41Z</time>
      </trkpt>
      <trkpt lat="43.06517" lon="0.44581">
        <ele>467.2</ele>
        <time>2020-06-30T10:01:19Z</time>
      </trkpt>
      <trkpt lat="43.06517" lon="0.44581">
        <ele>467.2</ele>
        <time>2020-06-30T10:01:20Z</time>
      </trkpt>
      <trkpt lat="43.06516" lon="0.4458">
        <ele>467.2</ele>
        <time>2020-06-30T10:01:21Z</time>
      </trkpt>
      <trkpt lat="43.06514" lon="0.44578">
        <ele>467.4</ele>
        <time>2020-06-30T10:01:22Z</time>
      </trkpt>
      <trkpt lat="43.06513" lon="0.44577">
        <ele>467.6</ele>
        <time>2020-06-30T10:01:23Z</time>
      </trkpt>
      <trkpt lat="43.06514" lon="0.44575">
        <ele>467.6</ele>
        <time>2020-06-30T10:01:24Z</time>
      </trkpt>
      <trkpt lat="43.06514" lon="0.44572">
        <ele>467.8</ele>
        <time>2020-06-30T10:01:25Z</time>
      </trkpt>
      <trkpt lat="43.06512" lon="0.44571">
        <ele>467.6</ele>
        <time>2020-06-30T10:01:26Z</time>
      </trkpt>
      <trkpt lat="43.06512" lon="0.44572">
        <ele>467.8</ele>
        <time>2020-06-30T10:01:27Z</time>
      </trkpt>
      <trkpt lat="43.06511" lon="0.44571">
        <ele>468</ele>
        <time>2020-06-30T10:01:28Z</time>
      </trkpt>
      <trkpt lat="43.0651" lon="0.4457">
        <ele>468</ele>
        <time>2020-06-30T10:01:29Z</time>
      </trkpt>
      <trkpt lat="43.06509" lon="0.44567">
        <ele>468</ele>
        <time>2020-06-30T10:01:30Z</time>
      </trkpt>
      <trkpt lat="43.06508" lon="0.44566">
        <ele>468.2</ele>
        <time>2020-06-30T10:01:31Z</time>
      </trkpt>
      <trkpt lat="43.06507" lon="0.44566">
        <ele>468.4</ele>
        <time>2020-06-30T10:01:32Z</time>
      </trkpt>
      <trkpt lat="43.06504" lon="0.44563">
        <ele>468.4</ele>
        <time>2020-06-30T10:01:33Z</time>
      </trkpt>
      <trkpt lat="43.06501" lon="0.44561">
        <ele>468.4</ele>
        <time>2020-06-30T10:01:34Z</time>
      </trkpt>
      <trkpt lat="43.065" lon="0.44561">
        <ele>468.6</ele>
        <time>2020-06-30T10:01:35Z</time>
      </trkpt>
      <trkpt lat="43.06496" lon="0.44558">
        <ele>468.6</ele>
        <time>2020-06-30T10:01:36Z</time>
      </trkpt>
      <trkpt lat="43.06493" lon="0.44555">
        <ele>468.8</ele>
        <time>2020-06-30T10:01:37Z</time>
      </trkpt>
      <trkpt lat="43.0649" lon="0.44553">
        <ele>469</ele>
        <time>2020-06-30T10:01:38Z</time>
      </trkpt>
      <trkpt lat="43.06488" lon="0.44549">
        <ele>469</ele>
        <time>2020-06-30T10:01:39Z</time>
      </trkpt>
      <trkpt lat="43.06483" lon="0.44545">
        <ele>469.2</ele>
        <time>2020-06-30T10:01:40Z</time>
      </trkpt>
      <trkpt lat="43.06481" lon="0.44543">
        <ele>469.4</ele>
        <time>2020-06-30T10:01:41Z</time>
      </trkpt>
      <trkpt lat="43.06477" lon="0.4454">
        <ele>469.6</ele>
        <time>2020-06-30T10:01:42Z</time>
      </trkpt>
      <trkpt lat="43.06475" lon="0.44536">
        <ele>469.6</ele>
        <time>2020-06-30T10:01:43Z</time>
      </trkpt>
      <trkpt lat="43.06472" lon="0.44533">
        <ele>469.8</ele>
        <time>2020-06-30T10:01:44Z</time>
      </trkpt>
      <trkpt lat="43.06468" lon="0.44531">
        <ele>470</ele>
        <time>2020-06-30T10:01:45Z</time>
      </trkpt>
      <trkpt lat="43.06466" lon="0.44527">
        <ele>470</ele>
        <time>2020-06-30T10:01:46Z</time>
      </trkpt>
      <trkpt lat="43.06465" lon="0.44525">
        <ele>470.2</ele>
        <time>2020-06-30T10:01:47Z</time>
      </trkpt>
      <trkpt lat="43.06463" lon="0.44523">
        <ele>470.4</ele>
        <time>2020-06-30T10:01:48Z</time>
      </trkpt>
      <trkpt lat="43.06464" lon="0.4452">
        <ele>470.4</ele>
        <time>2020-06-30T10:01:49Z</time>
      </trkpt>
      <trkpt lat="43.06465" lon="0.44519">
        <ele>470.6</ele>
        <time>2020-06-30T10:01:50Z</time>
      </trkpt>
      <trkpt lat="43.06466" lon="0.44518">
        <ele>470.8</ele>
        <time>2020-06-30T10:01:51Z</time>
      </trkpt>
      <trkpt lat="43.06464" lon="0.44518">
        <ele>470.8</ele>
        <time>2020-06-30T10:01:52Z</time>
      </trkpt>
      <trkpt lat="43.06462" lon="0.44517">
        <ele>471</ele>
        <time>2020-06-30T10:01:53Z</time>
      </trkpt>
      <trkpt lat="43.06462" lon="0.44516">
        <ele>471.2</ele>
        <time>2020-06-30T10:01:54Z</time>
      </trkpt>
      <trkpt lat="43.06461" lon="0.44514">
        <ele>471.4</ele>
        <time>2020-06-30T10:01:55Z</time>
      </trkpt>
      <trkpt lat="43.0646" lon="0.44511">
        <ele>471.6</ele>
        <time>2020-06-30T10:01:56Z</time>
      </trkpt>
      <trkpt lat="43.06459" lon="0.44509">
        <ele>471.6</ele>
        <time>2020-06-30T10:01:57Z</time>
      </trkpt>
      <trkpt lat="43.06458" lon="0.44507">
        <ele>471.8</ele>
        <time>2020-06-30T10:01:58Z</time>
      </trkpt>
      <trkpt lat="43.06457" lon="0.44504">
        <ele>472</ele>
        <time>2020-06-30T10:01:59Z</time>
      </trkpt>
      <trkpt lat="43.06457" lon="0.44502">
        <ele>472.2</ele>
        <time>2020-06-30T10:02:00Z</time>
      </trkpt>
      <trkpt lat="43.06457" lon="0.44499">
        <ele>472.2</ele>
        <time>2020-06-30T10:02:01Z</time>
      </trkpt>
      <trkpt lat="43.06456" lon="0.44496">
        <ele>472.4</ele>
        <time>2020-06-30T10:02:02Z</time>
      </trkpt>
      <trkpt lat="43.06456" lon="0.44493">
        <ele>472.4</ele>
        <time>2020-06-30T10:02:03Z</time>
      </trkpt>
      <trkpt lat="43.06456" lon="0.44491">
        <ele>472.6</ele>
        <time>2020-06-30T10:02:04Z</time>
      </trkpt>
      <trkpt lat="43.06457" lon="0.44489">
        <ele>472.8</ele>
        <time>2020-06-30T10:02:05Z</time>
      </trkpt>
      <trkpt lat="43.06457" lon="0.44487">
        <ele>472.8</ele>
        <time>2020-06-30T10:02:06Z</time>
      </trkpt>
      <trkpt lat="43.06457" lon="0.44485">
        <ele>473</ele>
        <time>2020-06-30T10:02:07Z</time>
      </trkpt>
      <trkpt lat="43.06458" lon="0.44483">
        <ele>473.2</ele>
        <time>2020-06-30T10:02:08Z</time>
      </trkpt>
      <trkpt lat="43.06457" lon="0.44481">
        <ele>473.2</ele>
        <time>2020-06-30T10:02:09Z</time>
      </trkpt>
      <trkpt lat="43.06456" lon="0.44478">
        <ele>473.4</ele>
        <time>2020-06-30T10:02:10Z</time>
      </trkpt>
      <trkpt lat="43.06456" lon="0.44475">
        <ele>473.6</ele>
        <time>2020-06-30T10:02:11Z</time>
      </trkpt>
      <trkpt lat="43.06456" lon="0.44473">
        <ele>473.6</ele>
        <time>2020-06-30T10:02:12Z</time>
      </trkpt>
      <trkpt lat="43.06456" lon="0.4447">
        <ele>473.6</ele>
        <time>2020-06-30T10:02:13Z</time>
      </trkpt>
      <trkpt lat="43.06457" lon="0.44468">
        <ele>473.8</ele>
        <time>2020-06-30T10:02:14Z</time>
      </trkpt>
      <trkpt lat="43.06458" lon="0.44466">
        <ele>474</ele>
        <time>2020-06-30T10:02:15Z</time>
      </trkpt>
      <trkpt lat="43.06458" lon="0.44464">
        <ele>474.2</ele>
        <time>2020-06-30T10:02:16Z</time>
      </trkpt>
      <trkpt lat="43.06458" lon="0.44462">
        <ele>474.2</ele>
        <time>2020-06-30T10:02:17Z</time>
      </trkpt>
      <trkpt lat="43.06457" lon="0.44458">
        <ele>474.2</ele>
        <time>2020-06-30T10:02:18Z</time>
      </trkpt>
      <trkpt lat="43.06456" lon="0.44453">
        <ele>474.4</ele>
        <time>2020-06-30T10:02:19Z</time>
      </trkpt>
      <trkpt lat="43.06455" lon="0.4445">
        <ele>474.6</ele>
        <time>2020-06-30T10:02:20Z</time>
      </trkpt>
      <trkpt lat="43.06455" lon="0.44449">
        <ele>474.6</ele>
        <time>2020-06-30T10:02:21Z</time>
      </trkpt>
      <trkpt lat="43.06455" lon="0.44446">
        <ele>474.8</ele>
        <time>2020-06-30T10:02:22Z</time>
      </trkpt>
      <trkpt lat="43.06455" lon="0.44442">
        <ele>474.8</ele>
        <time>2020-06-30T10:02:23Z</time>
      </trkpt>
      <trkpt lat="43.06453" lon="0.44438">
        <ele>475</ele>
        <time>2020-06-30T10:02:24Z</time>
      </trkpt>
      <trkpt lat="43.06454" lon="0.44435">
        <ele>475</ele>
        <time>2020-06-30T10:02:25Z</time>
      </trkpt>
      <trkpt lat="43.06453" lon="0.44433">
        <ele>475.2</ele>
        <time>2020-06-30T10:02:26Z</time>
      </trkpt>
      <trkpt lat="43.06452" lon="0.4443">
        <ele>475.4</ele>
        <time>2020-06-30T10:02:27Z</time>
      </trkpt>
      <trkpt lat="43.06453" lon="0.44428">
        <ele>475.4</ele>
        <time>2020-06-30T10:02:28Z</time>
      </trkpt>
      <trkpt lat="43.06453" lon="0.44426">
        <ele>475.6</ele>
        <time>2020-06-30T10:02:29Z</time>
      </trkpt>
      <trkpt lat="43.06453" lon="0.44424">
        <ele>475.8</ele>
        <time>2020-06-30T10:02:30Z</time>
      </trkpt>
      <trkpt lat="43.06454" lon="0.44422">
        <ele>475.8</ele>
        <time>2020-06-30T10:02:31Z</time>
      </trkpt>
      <trkpt lat="43.06453" lon="0.4442">
        <ele>476</ele>
        <time>2020-06-30T10:02:32Z</time>
      </trkpt>
      <trkpt lat="43.06453" lon="0.44417">
        <ele>476</ele>
        <time>2020-06-30T10:02:33Z</time>
      </trkpt>
      <trkpt lat="43.06453" lon="0.44414">
        <ele>476.2</ele>
        <time>2020-06-30T10:02:34Z</time>
      </trkpt>
      <trkpt lat="43.06453" lon="0.44413">
        <ele>476.2</ele>
        <time>2020-06-30T10:02:35Z</time>
      </trkpt>
      <trkpt lat="43.06454" lon="0.4441">
        <ele>476.4</ele>
        <time>2020-06-30T10:02:36Z</time>
      </trkpt>
      <trkpt lat="43.06453" lon="0.44407">
        <ele>476.4</ele>
        <time>2020-06-30T10:02:37Z</time>
      </trkpt>
      <trkpt lat="43.06453" lon="0.44406">
        <ele>476.6</ele>
        <time>2020-06-30T10:02:38Z</time>
      </trkpt>
      <trkpt lat="43.06454" lon="0.44402">
        <ele>476.6</ele>
        <time>2020-06-30T10:02:39Z</time>
      </trkpt>
      <trkpt lat="43.06453" lon="0.44401">
        <ele>476.8</ele>
        <time>2020-06-30T10:02:40Z</time>
      </trkpt>
      <trkpt lat="43.06452" lon="0.44399">
        <ele>477</ele>
        <time>2020-06-30T10:02:41Z</time>
      </trkpt>
      <trkpt lat="43.06453" lon="0.44395">
        <ele>477</ele>
        <time>2020-06-30T10:02:42Z</time>
      </trkpt>
      <trkpt lat="43.06455" lon="0.44391">
        <ele>477.2</ele>
        <time>2020-06-30T10:02:43Z</time>
      </trkpt>
      <trkpt lat="43.06456" lon="0.44389">
        <ele>477.2</ele>
        <time>2020-06-30T10:02:44Z</time>
      </trkpt>
      <trkpt lat="43.06456" lon="0.44386">
        <ele>477.4</ele>
        <time>2020-06-30T10:02:45Z</time>
      </trkpt>
      <trkpt lat="43.06456" lon="0.44384">
        <ele>477.4</ele>
        <time>2020-06-30T10:02:46Z</time>
      </trkpt>
      <trkpt lat="43.06455" lon="0.44382">
        <ele>477.6</ele>
        <time>2020-06-30T10:02:47Z</time>
      </trkpt>
      <trkpt lat="43.06456" lon="0.4438">
        <ele>477.8</ele>
        <time>2020-06-30T10:02:48Z</time>
      </trkpt>
      <trkpt lat="43.06455" lon="0.44378">
        <ele>477.8</ele>
        <time>2020-06-30T10:02:49Z</time>
      </trkpt>
      <trkpt lat="43.06455" lon="0.44375">
        <ele>478</ele>
        <time>2020-06-30T10:02:50Z</time>
      </trkpt>
      <trkpt lat="43.06454" lon="0.44373">
        <ele>478</ele>
        <time>2020-06-30T10:02:51Z</time>
      </trkpt>
      <trkpt lat="43.06454" lon="0.44371">
        <ele>478.2</ele>
        <time>2020-06-30T10:02:52Z</time>
      </trkpt>
      <trkpt lat="43.06453" lon="0.44369">
        <ele>478.2</ele>
        <time>2020-06-30T10:02:53Z</time>
      </trkpt>
      <trkpt lat="43.06453" lon="0.44367">
        <ele>478.4</ele>
        <time>2020-06-30T10:02:54Z</time>
      </trkpt>
      <trkpt lat="43.06453" lon="0.44364">
        <ele>478.4</ele>
        <time>2020-06-30T10:02:55Z</time>
      </trkpt>
      <trkpt lat="43.06453" lon="0.44362">
        <ele>478.6</ele>
        <time>2020-06-30T10:02:56Z</time>
      </trkpt>
      <trkpt lat="43.06452" lon="0.44361">
        <ele>478.8</ele>
        <time>2020-06-30T10:02:57Z</time>
      </trkpt>
      <trkpt lat="43.06452" lon="0.44359">
        <ele>479</ele>
        <time>2020-06-30T10:02:58Z</time>
      </trkpt>
      <trkpt lat="43.06452" lon="0.44358">
        <ele>479</ele>
        <time>2020-06-30T10:02:59Z</time>
      </trkpt>
      <trkpt lat="43.06451" lon="0.44355">
        <ele>479.2</ele>
        <time>2020-06-30T10:03:00Z</time>
      </trkpt>
      <trkpt lat="43.06452" lon="0.44353">
        <ele>479.4</ele>
        <time>2020-06-30T10:03:01Z</time>
      </trkpt>
      <trkpt lat="43.06452" lon="0.44351">
        <ele>479.4</ele>
        <time>2020-06-30T10:03:02Z</time>
      </trkpt>
      <trkpt lat="43.06452" lon="0.4435">
        <ele>479.6</ele>
        <time>2020-06-30T10:03:03Z</time>
      </trkpt>
      <trkpt lat="43.06451" lon="0.44348">
        <ele>479.6</ele>
        <time>2020-06-30T10:03:04Z</time>
      </trkpt>
      <trkpt lat="43.0645" lon="0.44345">
        <ele>479.8</ele>
        <time>2020-06-30T10:03:05Z</time>
      </trkpt>
      <trkpt lat="43.0645" lon="0.44344">
        <ele>479.8</ele>
        <time>2020-06-30T10:03:06Z</time>
      </trkpt>
      <trkpt lat="43.0645" lon="0.44343">
        <ele>480</ele>
        <time>2020-06-30T10:03:07Z</time>
      </trkpt>
      <trkpt lat="43.06449" lon="0.44341">
        <ele>480.2</ele>
        <time>2020-06-30T10:03:08Z</time>
      </trkpt>
      <trkpt lat="43.06448" lon="0.44338">
        <ele>480.2</ele>
        <time>2020-06-30T10:03:09Z</time>
      </trkpt>
      <trkpt lat="43.06448" lon="0.44336">
        <ele>480.4</ele>
        <time>2020-06-30T10:03:10Z</time>
      </trkpt>
      <trkpt lat="43.06447" lon="0.44334">
        <ele>480.4</ele>
        <time>2020-06-30T10:03:11Z</time>
      </trkpt>
      <trkpt lat="43.06446" lon="0.44333">
        <ele>480.6</ele>
        <time>2020-06-30T10:03:12Z</time>
      </trkpt>
      <trkpt lat="43.06445" lon="0.4433">
        <ele>480.6</ele>
        <time>2020-06-30T10:03:13Z</time>
      </trkpt>
      <trkpt lat="43.06445" lon="0.44327">
        <ele>480.8</ele>
        <time>2020-06-30T10:03:14Z</time>
      </trkpt>
      <trkpt lat="43.06444" lon="0.44324">
        <ele>480.8</ele>
        <time>2020-06-30T10:03:15Z</time>
      </trkpt>
      <trkpt lat="43.06443" lon="0.44322">
        <ele>481</ele>
        <time>2020-06-30T10:03:16Z</time>
      </trkpt>
      <trkpt lat="43.06443" lon="0.4432">
        <ele>481</ele>
        <time>2020-06-30T10:03:17Z</time>
      </trkpt>
      <trkpt lat="43.06442" lon="0.44318">
        <ele>481.2</ele>
        <time>2020-06-30T10:03:18Z</time>
      </trkpt>
      <trkpt lat="43.06441" lon="0.44315">
        <ele>481.2</ele>
        <time>2020-06-30T10:03:19Z</time>
      </trkpt>
      <trkpt lat="43.06442" lon="0.44313">
        <ele>481.4</ele>
        <time>2020-06-30T10:03:20Z</time>
      </trkpt>
      <trkpt lat="43.06441" lon="0.44311">
        <ele>481.6</ele>
        <time>2020-06-30T10:03:21Z</time>
      </trkpt>
      <trkpt lat="43.0644" lon="0.44309">
        <ele>481.6</ele>
        <time>2020-06-30T10:03:22Z</time>
      </trkpt>
      <trkpt lat="43.06439" lon="0.44308">
        <ele>481.8</ele>
        <time>2020-06-30T10:03:23Z</time>
      </trkpt>
      <trkpt lat="43.06439" lon="0.44305">
        <ele>481.8</ele>
        <time>2020-06-30T10:03:24Z</time>
      </trkpt>
      <trkpt lat="43.06439" lon="0.44303">
        <ele>482</ele>
        <time>2020-06-30T10:03:25Z</time>
      </trkpt>
      <trkpt lat="43.06438" lon="0.44302">
        <ele>482</ele>
        <time>2020-06-30T10:03:26Z</time>
      </trkpt>
      <trkpt lat="43.06437" lon="0.443">
        <ele>482.2</ele>
        <time>2020-06-30T10:03:27Z</time>
      </trkpt>
      <trkpt lat="43.06437" lon="0.44299">
        <ele>482.4</ele>
        <time>2020-06-30T10:03:28Z</time>
      </trkpt>
      <trkpt lat="43.06436" lon="0.44296">
        <ele>482.4</ele>
        <time>2020-06-30T10:03:29Z</time>
      </trkpt>
      <trkpt lat="43.06437" lon="0.44294">
        <ele>482.6</ele>
        <time>2020-06-30T10:03:30Z</time>
      </trkpt>
      <trkpt lat="43.06437" lon="0.44292">
        <ele>482.6</ele>
        <time>2020-06-30T10:03:31Z</time>
      </trkpt>
      <trkpt lat="43.06436" lon="0.44289">
        <ele>482.6</ele>
        <time>2020-06-30T10:03:32Z</time>
      </trkpt>
      <trkpt lat="43.06436" lon="0.44286">
        <ele>482.8</ele>
        <time>2020-06-30T10:03:33Z</time>
      </trkpt>
      <trkpt lat="43.06436" lon="0.44284">
        <ele>483</ele>
        <time>2020-06-30T10:03:34Z</time>
      </trkpt>
      <trkpt lat="43.06435" lon="0.44282">
        <ele>483</ele>
        <time>2020-06-30T10:03:35Z</time>
      </trkpt>
      <trkpt lat="43.06435" lon="0.44281">
        <ele>483.2</ele>
        <time>2020-06-30T10:03:36Z</time>
      </trkpt>
      <trkpt lat="43.06435" lon="0.44278">
        <ele>483.2</ele>
        <time>2020-06-30T10:03:37Z</time>
      </trkpt>
      <trkpt lat="43.06435" lon="0.44276">
        <ele>483.6</ele>
        <time>2020-06-30T10:03:38Z</time>
      </trkpt>
      <trkpt lat="43.06436" lon="0.44274">
        <ele>483.6</ele>
        <time>2020-06-30T10:03:39Z</time>
      </trkpt>
      <trkpt lat="43.06435" lon="0.44271">
        <ele>483.6</ele>
        <time>2020-06-30T10:03:40Z</time>
      </trkpt>
      <trkpt lat="43.06434" lon="0.44268">
        <ele>483.8</ele>
        <time>2020-06-30T10:03:41Z</time>
      </trkpt>
      <trkpt lat="43.06434" lon="0.44266">
        <ele>483.8</ele>
        <time>2020-06-30T10:03:42Z</time>
      </trkpt>
      <trkpt lat="43.06434" lon="0.44263">
        <ele>484</ele>
        <time>2020-06-30T10:03:43Z</time>
      </trkpt>
      <trkpt lat="43.06435" lon="0.44261">
        <ele>484</ele>
        <time>2020-06-30T10:03:44Z</time>
      </trkpt>
      <trkpt lat="43.06434" lon="0.44259">
        <ele>484.2</ele>
        <time>2020-06-30T10:03:45Z</time>
      </trkpt>
      <trkpt lat="43.06435" lon="0.44257">
        <ele>484.4</ele>
        <time>2020-06-30T10:03:46Z</time>
      </trkpt>
      <trkpt lat="43.06434" lon="0.44254">
        <ele>484.4</ele>
        <time>2020-06-30T10:03:47Z</time>
      </trkpt>
      <trkpt lat="43.06433" lon="0.44252">
        <ele>484.6</ele>
        <time>2020-06-30T10:03:48Z</time>
      </trkpt>
      <trkpt lat="43.06435" lon="0.44249">
        <ele>484.6</ele>
        <time>2020-06-30T10:03:49Z</time>
      </trkpt>
      <trkpt lat="43.06435" lon="0.44247">
        <ele>484.8</ele>
        <time>2020-06-30T10:03:50Z</time>
      </trkpt>
      <trkpt lat="43.06434" lon="0.44246">
        <ele>485</ele>
        <time>2020-06-30T10:03:51Z</time>
      </trkpt>
      <trkpt lat="43.06435" lon="0.44244">
        <ele>485.2</ele>
        <time>2020-06-30T10:03:52Z</time>
      </trkpt>
      <trkpt lat="43.06435" lon="0.44242">
        <ele>485.2</ele>
        <time>2020-06-30T10:03:53Z</time>
      </trkpt>
      <trkpt lat="43.06436" lon="0.4424">
        <ele>485.2</ele>
        <time>2020-06-30T10:03:54Z</time>
      </trkpt>
      <trkpt lat="43.06436" lon="0.44237">
        <ele>485.4</ele>
        <time>2020-06-30T10:03:55Z</time>
      </trkpt>
      <trkpt lat="43.06435" lon="0.44234">
        <ele>485.6</ele>
        <time>2020-06-30T10:03:56Z</time>
      </trkpt>
      <trkpt lat="43.06435" lon="0.44232">
        <ele>485.8</ele>
        <time>2020-06-30T10:03:57Z</time>
      </trkpt>
      <trkpt lat="43.06435" lon="0.44231">
        <ele>485.8</ele>
        <time>2020-06-30T10:03:58Z</time>
      </trkpt>
      <trkpt lat="43.06435" lon="0.44229">
        <ele>486</ele>
        <time>2020-06-30T10:03:59Z</time>
      </trkpt>
      <trkpt lat="43.06435" lon="0.44228">
        <ele>486</ele>
        <time>2020-06-30T10:04:00Z</time>
      </trkpt>
      <trkpt lat="43.06435" lon="0.44226">
        <ele>486.2</ele>
        <time>2020-06-30T10:04:01Z</time>
      </trkpt>
      <trkpt lat="43.06435" lon="0.44225">
        <ele>486.4</ele>
        <time>2020-06-30T10:04:02Z</time>
      </trkpt>
      <trkpt lat="43.06434" lon="0.44222">
        <ele>486.4</ele>
        <time>2020-06-30T10:04:03Z</time>
      </trkpt>
      <trkpt lat="43.06433" lon="0.4422">
        <ele>486.4</ele>
        <time>2020-06-30T10:04:04Z</time>
      </trkpt>
      <trkpt lat="43.06433" lon="0.44217">
        <ele>486.6</ele>
        <time>2020-06-30T10:04:05Z</time>
      </trkpt>
      <trkpt lat="43.06432" lon="0.44214">
        <ele>486.6</ele>
        <time>2020-06-30T10:04:06Z</time>
      </trkpt>
      <trkpt lat="43.06433" lon="0.44211">
        <ele>486.8</ele>
        <time>2020-06-30T10:04:07Z</time>
      </trkpt>
      <trkpt lat="43.06433" lon="0.44209">
        <ele>486.8</ele>
        <time>2020-06-30T10:04:08Z</time>
      </trkpt>
      <trkpt lat="43.06433" lon="0.44206">
        <ele>487</ele>
        <time>2020-06-30T10:04:09Z</time>
      </trkpt>
      <trkpt lat="43.06433" lon="0.44204">
        <ele>487</ele>
        <time>2020-06-30T10:04:10Z</time>
      </trkpt>
      <trkpt lat="43.06432" lon="0.44201">
        <ele>487.2</ele>
        <time>2020-06-30T10:04:11Z</time>
      </trkpt>
      <trkpt lat="43.06432" lon="0.44198">
        <ele>487.2</ele>
        <time>2020-06-30T10:04:12Z</time>
      </trkpt>
      <trkpt lat="43.06432" lon="0.44197">
        <ele>487.4</ele>
        <time>2020-06-30T10:04:13Z</time>
      </trkpt>
      <trkpt lat="43.06432" lon="0.44194">
        <ele>487.4</ele>
        <time>2020-06-30T10:04:14Z</time>
      </trkpt>
      <trkpt lat="43.06432" lon="0.44192">
        <ele>487.6</ele>
        <time>2020-06-30T10:04:15Z</time>
      </trkpt>
      <trkpt lat="43.06432" lon="0.4419">
        <ele>487.6</ele>
        <time>2020-06-30T10:04:16Z</time>
      </trkpt>
      <trkpt lat="43.06431" lon="0.44188">
        <ele>487.6</ele>
        <time>2020-06-30T10:04:17Z</time>
      </trkpt>
      <trkpt lat="43.06432" lon="0.44185">
        <ele>487.8</ele>
        <time>2020-06-30T10:04:18Z</time>
      </trkpt>
      <trkpt lat="43.06431" lon="0.44182">
        <ele>487.8</ele>
        <time>2020-06-30T10:04:19Z</time>
      </trkpt>
      <trkpt lat="43.06431" lon="0.4418">
        <ele>488</ele>
        <time>2020-06-30T10:04:20Z</time>
      </trkpt>
      <trkpt lat="43.06431" lon="0.44178">
        <ele>488</ele>
        <time>2020-06-30T10:04:21Z</time>
      </trkpt>
      <trkpt lat="43.06431" lon="0.44176">
        <ele>488.2</ele>
        <time>2020-06-30T10:04:22Z</time>
      </trkpt>
      <trkpt lat="43.06431" lon="0.44175">
        <ele>488.2</ele>
        <time>2020-06-30T10:04:23Z</time>
      </trkpt>
      <trkpt lat="43.06431" lon="0.44173">
        <ele>488.2</ele>
        <time>2020-06-30T10:04:24Z</time>
      </trkpt>
      <trkpt lat="43.0643" lon="0.44171">
        <ele>488.4</ele>
        <time>2020-06-30T10:04:25Z</time>
      </trkpt>
      <trkpt lat="43.06428" lon="0.44168">
        <ele>488.6</ele>
        <time>2020-06-30T10:04:26Z</time>
      </trkpt>
      <trkpt lat="43.06427" lon="0.44166">
        <ele>488.6</ele>
        <time>2020-06-30T10:04:27Z</time>
      </trkpt>
      <trkpt lat="43.06426" lon="0.44164">
        <ele>488.6</ele>
        <time>2020-06-30T10:04:28Z</time>
      </trkpt>
      <trkpt lat="43.06425" lon="0.44161">
        <ele>488.8</ele>
        <time>2020-06-30T10:04:29Z</time>
      </trkpt>
      <trkpt lat="43.06424" lon="0.44159">
        <ele>488.8</ele>
        <time>2020-06-30T10:04:30Z</time>
      </trkpt>
      <trkpt lat="43.06423" lon="0.44157">
        <ele>488.8</ele>
        <time>2020-06-30T10:04:31Z</time>
      </trkpt>
      <trkpt lat="43.06422" lon="0.44155">
        <ele>489</ele>
        <time>2020-06-30T10:04:32Z</time>
      </trkpt>
      <trkpt lat="43.06422" lon="0.44154">
        <ele>489</ele>
        <time>2020-06-30T10:04:33Z</time>
      </trkpt>
      <trkpt lat="43.06421" lon="0.44152">
        <ele>489</ele>
        <time>2020-06-30T10:04:34Z</time>
      </trkpt>
      <trkpt lat="43.06421" lon="0.4415">
        <ele>489.2</ele>
        <time>2020-06-30T10:04:35Z</time>
      </trkpt>
      <trkpt lat="43.06421" lon="0.44147">
        <ele>489.2</ele>
        <time>2020-06-30T10:04:36Z</time>
      </trkpt>
      <trkpt lat="43.0642" lon="0.44145">
        <ele>489.2</ele>
        <time>2020-06-30T10:04:37Z</time>
      </trkpt>
      <trkpt lat="43.06421" lon="0.44143">
        <ele>489.2</ele>
        <time>2020-06-30T10:04:38Z</time>
      </trkpt>
      <trkpt lat="43.06421" lon="0.44141">
        <ele>489.2</ele>
        <time>2020-06-30T10:04:39Z</time>
      </trkpt>
      <trkpt lat="43.0642" lon="0.44137">
        <ele>489.4</ele>
        <time>2020-06-30T10:04:40Z</time>
      </trkpt>
      <trkpt lat="43.06419" lon="0.44133">
        <ele>489.4</ele>
        <time>2020-06-30T10:04:41Z</time>
      </trkpt>
      <trkpt lat="43.06418" lon="0.4413">
        <ele>489.4</ele>
        <time>2020-06-30T10:04:42Z</time>
      </trkpt>
      <trkpt lat="43.06417" lon="0.44128">
        <ele>489.6</ele>
        <time>2020-06-30T10:04:43Z</time>
      </trkpt>
      <trkpt lat="43.06415" lon="0.44125">
        <ele>489.6</ele>
        <time>2020-06-30T10:04:44Z</time>
      </trkpt>
      <trkpt lat="43.06414" lon="0.44122">
        <ele>489.8</ele>
        <time>2020-06-30T10:04:45Z</time>
      </trkpt>
      <trkpt lat="43.06414" lon="0.44119">
        <ele>489.8</ele>
        <time>2020-06-30T10:04:46Z</time>
      </trkpt>
      <trkpt lat="43.06415" lon="0.44117">
        <ele>489.8</ele>
        <time>2020-06-30T10:04:47Z</time>
      </trkpt>
      <trkpt lat="43.06414" lon="0.44114">
        <ele>489.8</ele>
        <time>2020-06-30T10:04:48Z</time>
      </trkpt>
      <trkpt lat="43.06414" lon="0.44111">
        <ele>489.8</ele>
        <time>2020-06-30T10:04:49Z</time>
      </trkpt>
      <trkpt lat="43.06414" lon="0.44108">
        <ele>490</ele>
        <time>2020-06-30T10:04:50Z</time>
      </trkpt>
      <trkpt lat="43.06413" lon="0.44106">
        <ele>490</ele>
        <time>2020-06-30T10:04:51Z</time>
      </trkpt>
      <trkpt lat="43.06412" lon="0.44103">
        <ele>490.2</ele>
        <time>2020-06-30T10:04:52Z</time>
      </trkpt>
      <trkpt lat="43.06411" lon="0.44101">
        <ele>490.2</ele>
        <time>2020-06-30T10:04:53Z</time>
      </trkpt>
      <trkpt lat="43.0641" lon="0.44098">
        <ele>490.2</ele>
        <time>2020-06-30T10:04:54Z</time>
      </trkpt>
      <trkpt lat="43.06408" lon="0.44094">
        <ele>490.4</ele>
        <time>2020-06-30T10:04:55Z</time>
      </trkpt>
      <trkpt lat="43.06406" lon="0.44092">
        <ele>490.6</ele>
        <time>2020-06-30T10:04:56Z</time>
      </trkpt>
      <trkpt lat="43.06404" lon="0.44088">
        <ele>490.6</ele>
        <time>2020-06-30T10:04:57Z</time>
      </trkpt>
      <trkpt lat="43.06402" lon="0.44086">
        <ele>490.8</ele>
        <time>2020-06-30T10:04:58Z</time>
      </trkpt>
      <trkpt lat="43.06401" lon="0.44084">
        <ele>490.8</ele>
        <time>2020-06-30T10:04:59Z</time>
      </trkpt>
      <trkpt lat="43.06401" lon="0.44082">
        <ele>491</ele>
        <time>2020-06-30T10:05:00Z</time>
      </trkpt>
      <trkpt lat="43.06399" lon="0.44077">
        <ele>491.2</ele>
        <time>2020-06-30T10:05:01Z</time>
      </trkpt>
      <trkpt lat="43.06399" lon="0.44075">
        <ele>491.2</ele>
        <time>2020-06-30T10:05:02Z</time>
      </trkpt>
      <trkpt lat="43.06398" lon="0.44072">
        <ele>491.4</ele>
        <time>2020-06-30T10:05:03Z</time>
      </trkpt>
      <trkpt lat="43.06396" lon="0.44068">
        <ele>491.4</ele>
        <time>2020-06-30T10:05:04Z</time>
      </trkpt>
      <trkpt lat="43.06396" lon="0.44065">
        <ele>491.6</ele>
        <time>2020-06-30T10:05:05Z</time>
      </trkpt>
      <trkpt lat="43.06394" lon="0.44061">
        <ele>491.6</ele>
        <time>2020-06-30T10:05:06Z</time>
      </trkpt>
      <trkpt lat="43.06394" lon="0.4406">
        <ele>491.8</ele>
        <time>2020-06-30T10:05:07Z</time>
      </trkpt>
      <trkpt lat="43.06393" lon="0.44057">
        <ele>492</ele>
        <time>2020-06-30T10:05:08Z</time>
      </trkpt>
      <trkpt lat="43.06393" lon="0.44055">
        <ele>492</ele>
        <time>2020-06-30T10:05:09Z</time>
      </trkpt>
      <trkpt lat="43.06393" lon="0.44052">
        <ele>492.2</ele>
        <time>2020-06-30T10:05:10Z</time>
      </trkpt>
      <trkpt lat="43.06393" lon="0.44049">
        <ele>492.4</ele>
        <time>2020-06-30T10:05:11Z</time>
      </trkpt>
      <trkpt lat="43.06392" lon="0.44046">
        <ele>492.4</ele>
        <time>2020-06-30T10:05:12Z</time>
      </trkpt>
      <trkpt lat="43.06392" lon="0.44043">
        <ele>492.6</ele>
        <time>2020-06-30T10:05:13Z</time>
      </trkpt>
      <trkpt lat="43.06393" lon="0.4404">
        <ele>492.6</ele>
        <time>2020-06-30T10:05:14Z</time>
      </trkpt>
      <trkpt lat="43.06393" lon="0.44037">
        <ele>492.8</ele>
        <time>2020-06-30T10:05:15Z</time>
      </trkpt>
      <trkpt lat="43.06393" lon="0.44034">
        <ele>492.8</ele>
        <time>2020-06-30T10:05:16Z</time>
      </trkpt>
      <trkpt lat="43.06394" lon="0.44031">
        <ele>493</ele>
        <time>2020-06-30T10:05:17Z</time>
      </trkpt>
      <trkpt lat="43.06394" lon="0.44028">
        <ele>493</ele>
        <time>2020-06-30T10:05:18Z</time>
      </trkpt>
      <trkpt lat="43.06394" lon="0.44026">
        <ele>493.2</ele>
        <time>2020-06-30T10:05:19Z</time>
      </trkpt>
      <trkpt lat="43.06394" lon="0.44023">
        <ele>493.2</ele>
        <time>2020-06-30T10:05:20Z</time>
      </trkpt>
      <trkpt lat="43.06394" lon="0.4402">
        <ele>493.4</ele>
        <time>2020-06-30T10:05:21Z</time>
      </trkpt>
      <trkpt lat="43.06395" lon="0.44018">
        <ele>493.4</ele>
        <time>2020-06-30T10:05:22Z</time>
      </trkpt>
      <trkpt lat="43.06395" lon="0.44015">
        <ele>493.4</ele>
        <time>2020-06-30T10:05:23Z</time>
      </trkpt>
      <trkpt lat="43.06395" lon="0.44012">
        <ele>493.6</ele>
        <time>2020-06-30T10:05:24Z</time>
      </trkpt>
      <trkpt lat="43.06395" lon="0.44009">
        <ele>493.6</ele>
        <time>2020-06-30T10:05:25Z</time>
      </trkpt>
      <trkpt lat="43.06395" lon="0.44005">
        <ele>493.8</ele>
        <time>2020-06-30T10:05:26Z</time>
      </trkpt>
      <trkpt lat="43.06395" lon="0.44001">
        <ele>493.8</ele>
        <time>2020-06-30T10:05:27Z</time>
      </trkpt>
      <trkpt lat="43.06395" lon="0.43998">
        <ele>494</ele>
        <time>2020-06-30T10:05:28Z</time>
      </trkpt>
      <trkpt lat="43.06395" lon="0.43995">
        <ele>494</ele>
        <time>2020-06-30T10:05:29Z</time>
      </trkpt>
      <trkpt lat="43.06395" lon="0.43992">
        <ele>494.2</ele>
        <time>2020-06-30T10:05:30Z</time>
      </trkpt>
      <trkpt lat="43.06395" lon="0.43988">
        <ele>494.2</ele>
        <time>2020-06-30T10:05:31Z</time>
      </trkpt>
      <trkpt lat="43.06393" lon="0.43984">
        <ele>494.4</ele>
        <time>2020-06-30T10:05:32Z</time>
      </trkpt>
      <trkpt lat="43.06393" lon="0.43981">
        <ele>494.4</ele>
        <time>2020-06-30T10:05:33Z</time>
      </trkpt>
      <trkpt lat="43.06393" lon="0.43979">
        <ele>494.4</ele>
        <time>2020-06-30T10:05:34Z</time>
      </trkpt>
      <trkpt lat="43.06392" lon="0.43975">
        <ele>494.4</ele>
        <time>2020-06-30T10:05:35Z</time>
      </trkpt>
      <trkpt lat="43.06393" lon="0.43971">
        <ele>494.6</ele>
        <time>2020-06-30T10:05:36Z</time>
      </trkpt>
      <trkpt lat="43.06393" lon="0.43968">
        <ele>494.6</ele>
        <time>2020-06-30T10:05:37Z</time>
      </trkpt>
      <trkpt lat="43.06393" lon="0.43965">
        <ele>494.6</ele>
        <time>2020-06-30T10:05:38Z</time>
      </trkpt>
      <trkpt lat="43.06392" lon="0.43962">
        <ele>494.8</ele>
        <time>2020-06-30T10:05:39Z</time>
      </trkpt>
      <trkpt lat="43.06394" lon="0.43958">
        <ele>494.8</ele>
        <time>2020-06-30T10:05:40Z</time>
      </trkpt>
      <trkpt lat="43.06394" lon="0.43955">
        <ele>494.8</ele>
        <time>2020-06-30T10:05:41Z</time>
      </trkpt>
      <trkpt lat="43.06394" lon="0.43951">
        <ele>494.8</ele>
        <time>2020-06-30T10:05:42Z</time>
      </trkpt>
      <trkpt lat="43.06394" lon="0.43948">
        <ele>495</ele>
        <time>2020-06-30T10:05:43Z</time>
      </trkpt>
      <trkpt lat="43.06395" lon="0.43944">
        <ele>495</ele>
        <time>2020-06-30T10:05:44Z</time>
      </trkpt>
      <trkpt lat="43.06396" lon="0.4394">
        <ele>495</ele>
        <time>2020-06-30T10:05:45Z</time>
      </trkpt>
      <trkpt lat="43.06395" lon="0.43936">
        <ele>495</ele>
        <time>2020-06-30T10:05:46Z</time>
      </trkpt>
      <trkpt lat="43.06395" lon="0.43933">
        <ele>495.2</ele>
        <time>2020-06-30T10:05:47Z</time>
      </trkpt>
      <trkpt lat="43.06395" lon="0.43929">
        <ele>495.2</ele>
        <time>2020-06-30T10:05:48Z</time>
      </trkpt>
      <trkpt lat="43.06395" lon="0.43925">
        <ele>495.2</ele>
        <time>2020-06-30T10:05:49Z</time>
      </trkpt>
      <trkpt lat="43.06396" lon="0.43921">
        <ele>495.2</ele>
        <time>2020-06-30T10:05:50Z</time>
      </trkpt>
      <trkpt lat="43.06397" lon="0.43918">
        <ele>495.2</ele>
        <time>2020-06-30T10:05:51Z</time>
      </trkpt>
      <trkpt lat="43.06397" lon="0.43913">
        <ele>495.4</ele>
        <time>2020-06-30T10:05:52Z</time>
      </trkpt>
      <trkpt lat="43.06397" lon="0.43907">
        <ele>495.4</ele>
        <time>2020-06-30T10:05:53Z</time>
      </trkpt>
      <trkpt lat="43.06397" lon="0.43902">
        <ele>495.4</ele>
        <time>2020-06-30T10:05:54Z</time>
      </trkpt>
      <trkpt lat="43.06398" lon="0.43898">
        <ele>495.4</ele>
        <time>2020-06-30T10:05:55Z</time>
      </trkpt>
      <trkpt lat="43.06398" lon="0.43894">
        <ele>495.4</ele>
        <time>2020-06-30T10:05:56Z</time>
      </trkpt>
      <trkpt lat="43.06399" lon="0.43891">
        <ele>495.4</ele>
        <time>2020-06-30T10:05:57Z</time>
      </trkpt>
      <trkpt lat="43.064" lon="0.43887">
        <ele>495.4</ele>
        <time>2020-06-30T10:05:58Z</time>
      </trkpt>
      <trkpt lat="43.06401" lon="0.43883">
        <ele>495.4</ele>
        <time>2020-06-30T10:05:59Z</time>
      </trkpt>
      <trkpt lat="43.06402" lon="0.43878">
        <ele>495.4</ele>
        <time>2020-06-30T10:06:00Z</time>
      </trkpt>
      <trkpt lat="43.06402" lon="0.43875">
        <ele>495.4</ele>
        <time>2020-06-30T10:06:01Z</time>
      </trkpt>
      <trkpt lat="43.06402" lon="0.43871">
        <ele>495.4</ele>
        <time>2020-06-30T10:06:02Z</time>
      </trkpt>
      <trkpt lat="43.06402" lon="0.43866">
        <ele>495.6</ele>
        <time>2020-06-30T10:06:03Z</time>
      </trkpt>
      <trkpt lat="43.06403" lon="0.43861">
        <ele>495.6</ele>
        <time>2020-06-30T10:06:04Z</time>
      </trkpt>
      <trkpt lat="43.06404" lon="0.43857">
        <ele>495.6</ele>
        <time>2020-06-30T10:06:05Z</time>
      </trkpt>
      <trkpt lat="43.06406" lon="0.43853">
        <ele>495.6</ele>
        <time>2020-06-30T10:06:06Z</time>
      </trkpt>
      <trkpt lat="43.06405" lon="0.43847">
        <ele>495.6</ele>
        <time>2020-06-30T10:06:07Z</time>
      </trkpt>
      <trkpt lat="43.06406" lon="0.43842">
        <ele>495.8</ele>
        <time>2020-06-30T10:06:08Z</time>
      </trkpt>
      <trkpt lat="43.06408" lon="0.43838">
        <ele>495.8</ele>
        <time>2020-06-30T10:06:09Z</time>
      </trkpt>
      <trkpt lat="43.06409" lon="0.43834">
        <ele>495.8</ele>
        <time>2020-06-30T10:06:10Z</time>
      </trkpt>
      <trkpt lat="43.06411" lon="0.4383">
        <ele>495.8</ele>
        <time>2020-06-30T10:06:11Z</time>
      </trkpt>
      <trkpt lat="43.06412" lon="0.43826">
        <ele>495.8</ele>
        <time>2020-06-30T10:06:12Z</time>
      </trkpt>
      <trkpt lat="43.06414" lon="0.43821">
        <ele>495.8</ele>
        <time>2020-06-30T10:06:13Z</time>
      </trkpt>
      <trkpt lat="43.06415" lon="0.43816">
        <ele>495.8</ele>
        <time>2020-06-30T10:06:14Z</time>
      </trkpt>
      <trkpt lat="43.06417" lon="0.43812">
        <ele>496</ele>
        <time>2020-06-30T10:06:15Z</time>
      </trkpt>
      <trkpt lat="43.06418" lon="0.43808">
        <ele>496</ele>
        <time>2020-06-30T10:06:16Z</time>
      </trkpt>
      <trkpt lat="43.06419" lon="0.43805">
        <ele>496</ele>
        <time>2020-06-30T10:06:17Z</time>
      </trkpt>
      <trkpt lat="43.0642" lon="0.43801">
        <ele>496</ele>
        <time>2020-06-30T10:06:18Z</time>
      </trkpt>
      <trkpt lat="43.06421" lon="0.43797">
        <ele>496</ele>
        <time>2020-06-30T10:06:19Z</time>
      </trkpt>
      <trkpt lat="43.06423" lon="0.43793">
        <ele>496</ele>
        <time>2020-06-30T10:06:20Z</time>
      </trkpt>
      <trkpt lat="43.06423" lon="0.43789">
        <ele>496</ele>
        <time>2020-06-30T10:06:21Z</time>
      </trkpt>
      <trkpt lat="43.06425" lon="0.43785">
        <ele>496</ele>
        <time>2020-06-30T10:06:22Z</time>
      </trkpt>
      <trkpt lat="43.06426" lon="0.43781">
        <ele>496</ele>
        <time>2020-06-30T10:06:23Z</time>
      </trkpt>
      <trkpt lat="43.06427" lon="0.43777">
        <ele>496</ele>
        <time>2020-06-30T10:06:24Z</time>
      </trkpt>
      <trkpt lat="43.06428" lon="0.43773">
        <ele>496</ele>
        <time>2020-06-30T10:06:25Z</time>
      </trkpt>
      <trkpt lat="43.06428" lon="0.43768">
        <ele>496</ele>
        <time>2020-06-30T10:06:26Z</time>
      </trkpt>
      <trkpt lat="43.06429" lon="0.43762">
        <ele>496</ele>
        <time>2020-06-30T10:06:27Z</time>
      </trkpt>
      <trkpt lat="43.06428" lon="0.43757">
        <ele>496.2</ele>
        <time>2020-06-30T10:06:28Z</time>
      </trkpt>
      <trkpt lat="43.06427" lon="0.43752">
        <ele>496.2</ele>
        <time>2020-06-30T10:06:29Z</time>
      </trkpt>
      <trkpt lat="43.06427" lon="0.43749">
        <ele>496.2</ele>
        <time>2020-06-30T10:06:30Z</time>
      </trkpt>
      <trkpt lat="43.06426" lon="0.43744">
        <ele>496.2</ele>
        <time>2020-06-30T10:06:31Z</time>
      </trkpt>
      <trkpt lat="43.06424" lon="0.43739">
        <ele>496.4</ele>
        <time>2020-06-30T10:06:32Z</time>
      </trkpt>
      <trkpt lat="43.06423" lon="0.43734">
        <ele>496.4</ele>
        <time>2020-06-30T10:06:33Z</time>
      </trkpt>
      <trkpt lat="43.06421" lon="0.4373">
        <ele>496.4</ele>
        <time>2020-06-30T10:06:34Z</time>
      </trkpt>
      <trkpt lat="43.06419" lon="0.43727">
        <ele>496.4</ele>
        <time>2020-06-30T10:06:35Z</time>
      </trkpt>
      <trkpt lat="43.06417" lon="0.43724">
        <ele>496.4</ele>
        <time>2020-06-30T10:06:36Z</time>
      </trkpt>
      <trkpt lat="43.06416" lon="0.43721">
        <ele>496.4</ele>
        <time>2020-06-30T10:06:37Z</time>
      </trkpt>
      <trkpt lat="43.06415" lon="0.43719">
        <ele>496.4</ele>
        <time>2020-06-30T10:06:38Z</time>
      </trkpt>
      <trkpt lat="43.06413" lon="0.43715">
        <ele>496.4</ele>
        <time>2020-06-30T10:06:39Z</time>
      </trkpt>
      <trkpt lat="43.06411" lon="0.43711">
        <ele>496.4</ele>
        <time>2020-06-30T10:06:40Z</time>
      </trkpt>
      <trkpt lat="43.0641" lon="0.43709">
        <ele>496.4</ele>
        <time>2020-06-30T10:06:41Z</time>
      </trkpt>
      <trkpt lat="43.06407" lon="0.43706">
        <ele>496.4</ele>
        <time>2020-06-30T10:06:42Z</time>
      </trkpt>
      <trkpt lat="43.06406" lon="0.43703">
        <ele>496.4</ele>
        <time>2020-06-30T10:06:43Z</time>
      </trkpt>
      <trkpt lat="43.06404" lon="0.43702">
        <ele>496.4</ele>
        <time>2020-06-30T10:06:44Z</time>
      </trkpt>
      <trkpt lat="43.06403" lon="0.43701">
        <ele>496.4</ele>
        <time>2020-06-30T10:06:45Z</time>
      </trkpt>
      <trkpt lat="43.06403" lon="0.437">
        <ele>496.4</ele>
        <time>2020-06-30T10:06:46Z</time>
      </trkpt>
      <trkpt lat="43.06403" lon="0.43698">
        <ele>496.4</ele>
        <time>2020-06-30T10:06:47Z</time>
      </trkpt>
      <trkpt lat="43.06402" lon="0.43699">
        <ele>496.4</ele>
        <time>2020-06-30T10:06:48Z</time>
      </trkpt>
      <trkpt lat="43.06402" lon="0.437">
        <ele>496.4</ele>
        <time>2020-06-30T10:06:49Z</time>
      </trkpt>
      <trkpt lat="43.06403" lon="0.43703">
        <ele>496.4</ele>
        <time>2020-06-30T10:06:50Z</time>
      </trkpt>
      <trkpt lat="43.06404" lon="0.43704">
        <ele>496.4</ele>
        <time>2020-06-30T10:06:51Z</time>
      </trkpt>
      <trkpt lat="43.06405" lon="0.43707">
        <ele>496.4</ele>
        <time>2020-06-30T10:06:52Z</time>
      </trkpt>
      <trkpt lat="43.06406" lon="0.4371">
        <ele>496.4</ele>
        <time>2020-06-30T10:06:53Z</time>
      </trkpt>
      <trkpt lat="43.06408" lon="0.43713">
        <ele>496.4</ele>
        <time>2020-06-30T10:06:54Z</time>
      </trkpt>
      <trkpt lat="43.0641" lon="0.43716">
        <ele>496.4</ele>
        <time>2020-06-30T10:06:55Z</time>
      </trkpt>
      <trkpt lat="43.06412" lon="0.43719">
        <ele>496.4</ele>
        <time>2020-06-30T10:06:56Z</time>
      </trkpt>
      <trkpt lat="43.06414" lon="0.43722">
        <ele>496.4</ele>
        <time>2020-06-30T10:06:57Z</time>
      </trkpt>
      <trkpt lat="43.06416" lon="0.43727">
        <ele>496.2</ele>
        <time>2020-06-30T10:06:58Z</time>
      </trkpt>
      <trkpt lat="43.06418" lon="0.4373">
        <ele>496.2</ele>
        <time>2020-06-30T10:06:59Z</time>
      </trkpt>
      <trkpt lat="43.06419" lon="0.43734">
        <ele>496.2</ele>
        <time>2020-06-30T10:07:00Z</time>
      </trkpt>
      <trkpt lat="43.06421" lon="0.43738">
        <ele>496.2</ele>
        <time>2020-06-30T10:07:01Z</time>
      </trkpt>
      <trkpt lat="43.06423" lon="0.43742">
        <ele>496.2</ele>
        <time>2020-06-30T10:07:02Z</time>
      </trkpt>
      <trkpt lat="43.06424" lon="0.43745">
        <ele>496.2</ele>
        <time>2020-06-30T10:07:03Z</time>
      </trkpt>
      <trkpt lat="43.06428" lon="0.43749">
        <ele>496.2</ele>
        <time>2020-06-30T10:07:04Z</time>
      </trkpt>
      <trkpt lat="43.06433" lon="0.43749">
        <ele>496.2</ele>
        <time>2020-06-30T10:07:05Z</time>
      </trkpt>
      <trkpt lat="43.06436" lon="0.43748">
        <ele>496</ele>
        <time>2020-06-30T10:07:06Z</time>
      </trkpt>
      <trkpt lat="43.06437" lon="0.43746">
        <ele>496</ele>
        <time>2020-06-30T10:07:07Z</time>
      </trkpt>
      <trkpt lat="43.06441" lon="0.43742">
        <ele>496</ele>
        <time>2020-06-30T10:07:08Z</time>
      </trkpt>
      <trkpt lat="43.06441" lon="0.43738">
        <ele>496.2</ele>
        <time>2020-06-30T10:07:09Z</time>
      </trkpt>
      <trkpt lat="43.06443" lon="0.43734">
        <ele>496.2</ele>
        <time>2020-06-30T10:07:10Z</time>
      </trkpt>
      <trkpt lat="43.06444" lon="0.4373">
        <ele>496.2</ele>
        <time>2020-06-30T10:07:11Z</time>
      </trkpt>
      <trkpt lat="43.06445" lon="0.43726">
        <ele>496.2</ele>
        <time>2020-06-30T10:07:12Z</time>
      </trkpt>
      <trkpt lat="43.06445" lon="0.43722">
        <ele>496.2</ele>
        <time>2020-06-30T10:07:13Z</time>
      </trkpt>
      <trkpt lat="43.06446" lon="0.43717">
        <ele>496.2</ele>
        <time>2020-06-30T10:07:14Z</time>
      </trkpt>
      <trkpt lat="43.06447" lon="0.43713">
        <ele>496.4</ele>
        <time>2020-06-30T10:07:15Z</time>
      </trkpt>
      <trkpt lat="43.06448" lon="0.43709">
        <ele>496.4</ele>
        <time>2020-06-30T10:07:16Z</time>
      </trkpt>
      <trkpt lat="43.06449" lon="0.43705">
        <ele>496.4</ele>
        <time>2020-06-30T10:07:17Z</time>
      </trkpt>
      <trkpt lat="43.06451" lon="0.437">
        <ele>496.4</ele>
        <time>2020-06-30T10:07:18Z</time>
      </trkpt>
      <trkpt lat="43.06451" lon="0.43696">
        <ele>496.4</ele>
        <time>2020-06-30T10:07:19Z</time>
      </trkpt>
      <trkpt lat="43.06453" lon="0.43691">
        <ele>496.4</ele>
        <time>2020-06-30T10:07:20Z</time>
      </trkpt>
      <trkpt lat="43.06454" lon="0.43686">
        <ele>496.4</ele>
        <time>2020-06-30T10:07:21Z</time>
      </trkpt>
      <trkpt lat="43.06455" lon="0.43681">
        <ele>496.4</ele>
        <time>2020-06-30T10:07:22Z</time>
      </trkpt>
      <trkpt lat="43.06456" lon="0.43677">
        <ele>496.4</ele>
        <time>2020-06-30T10:07:23Z</time>
      </trkpt>
      <trkpt lat="43.06457" lon="0.43672">
        <ele>496.4</ele>
        <time>2020-06-30T10:07:24Z</time>
      </trkpt>
      <trkpt lat="43.06459" lon="0.43667">
        <ele>496.6</ele>
        <time>2020-06-30T10:07:25Z</time>
      </trkpt>
      <trkpt lat="43.06459" lon="0.43662">
        <ele>496.6</ele>
        <time>2020-06-30T10:07:26Z</time>
      </trkpt>
      <trkpt lat="43.0646" lon="0.43657">
        <ele>496.6</ele>
        <time>2020-06-30T10:07:27Z</time>
      </trkpt>
      <trkpt lat="43.06461" lon="0.43652">
        <ele>496.6</ele>
        <time>2020-06-30T10:07:28Z</time>
      </trkpt>
      <trkpt lat="43.06462" lon="0.43647">
        <ele>496.6</ele>
        <time>2020-06-30T10:07:29Z</time>
      </trkpt>
      <trkpt lat="43.06463" lon="0.43643">
        <ele>496.6</ele>
        <time>2020-06-30T10:07:30Z</time>
      </trkpt>
      <trkpt lat="43.06465" lon="0.43638">
        <ele>496.6</ele>
        <time>2020-06-30T10:07:31Z</time>
      </trkpt>
      <trkpt lat="43.06466" lon="0.43633">
        <ele>496.8</ele>
        <time>2020-06-30T10:07:32Z</time>
      </trkpt>
      <trkpt lat="43.06468" lon="0.43629">
        <ele>496.8</ele>
        <time>2020-06-30T10:07:33Z</time>
      </trkpt>
      <trkpt lat="43.06469" lon="0.43625">
        <ele>496.8</ele>
        <time>2020-06-30T10:07:34Z</time>
      </trkpt>
      <trkpt lat="43.0647" lon="0.43621">
        <ele>496.8</ele>
        <time>2020-06-30T10:07:35Z</time>
      </trkpt>
      <trkpt lat="43.06472" lon="0.43616">
        <ele>497</ele>
        <time>2020-06-30T10:07:36Z</time>
      </trkpt>
      <trkpt lat="43.06473" lon="0.43612">
        <ele>497</ele>
        <time>2020-06-30T10:07:37Z</time>
      </trkpt>
      <trkpt lat="43.06474" lon="0.43608">
        <ele>497.2</ele>
        <time>2020-06-30T10:07:38Z</time>
      </trkpt>
      <trkpt lat="43.06475" lon="0.43603">
        <ele>497.2</ele>
        <time>2020-06-30T10:07:39Z</time>
      </trkpt>
      <trkpt lat="43.06476" lon="0.436">
        <ele>497.2</ele>
        <time>2020-06-30T10:07:40Z</time>
      </trkpt>
      <trkpt lat="43.06477" lon="0.43594">
        <ele>497.2</ele>
        <time>2020-06-30T10:07:41Z</time>
      </trkpt>
      <trkpt lat="43.06478" lon="0.4359">
        <ele>497.2</ele>
        <time>2020-06-30T10:07:42Z</time>
      </trkpt>
      <trkpt lat="43.06479" lon="0.43586">
        <ele>497.4</ele>
        <time>2020-06-30T10:07:43Z</time>
      </trkpt>
      <trkpt lat="43.06481" lon="0.43581">
        <ele>497.4</ele>
        <time>2020-06-30T10:07:44Z</time>
      </trkpt>
      <trkpt lat="43.06481" lon="0.43576">
        <ele>497.4</ele>
        <time>2020-06-30T10:07:45Z</time>
      </trkpt>
      <trkpt lat="43.06482" lon="0.43572">
        <ele>497.4</ele>
        <time>2020-06-30T10:07:46Z</time>
      </trkpt>
      <trkpt lat="43.06484" lon="0.43568">
        <ele>497.6</ele>
        <time>2020-06-30T10:07:47Z</time>
      </trkpt>
      <trkpt lat="43.06485" lon="0.43564">
        <ele>497.6</ele>
        <time>2020-06-30T10:07:48Z</time>
      </trkpt>
      <trkpt lat="43.06486" lon="0.43559">
        <ele>497.6</ele>
        <time>2020-06-30T10:07:49Z</time>
      </trkpt>
      <trkpt lat="43.06487" lon="0.43554">
        <ele>497.6</ele>
        <time>2020-06-30T10:07:50Z</time>
      </trkpt>
      <trkpt lat="43.06489" lon="0.4355">
        <ele>497.8</ele>
        <time>2020-06-30T10:07:51Z</time>
      </trkpt>
      <trkpt lat="43.0649" lon="0.43547">
        <ele>497.8</ele>
        <time>2020-06-30T10:07:52Z</time>
      </trkpt>
      <trkpt lat="43.06491" lon="0.43543">
        <ele>497.8</ele>
        <time>2020-06-30T10:07:53Z</time>
      </trkpt>
      <trkpt lat="43.06492" lon="0.43536">
        <ele>497.8</ele>
        <time>2020-06-30T10:07:54Z</time>
      </trkpt>
      <trkpt lat="43.06494" lon="0.43533">
        <ele>497.8</ele>
        <time>2020-06-30T10:07:55Z</time>
      </trkpt>
      <trkpt lat="43.06495" lon="0.43528">
        <ele>497.8</ele>
        <time>2020-06-30T10:07:56Z</time>
      </trkpt>
      <trkpt lat="43.06497" lon="0.43523">
        <ele>498</ele>
        <time>2020-06-30T10:07:57Z</time>
      </trkpt>
      <trkpt lat="43.06498" lon="0.43518">
        <ele>498</ele>
        <time>2020-06-30T10:07:58Z</time>
      </trkpt>
      <trkpt lat="43.06499" lon="0.43513">
        <ele>498</ele>
        <time>2020-06-30T10:07:59Z</time>
      </trkpt>
      <trkpt lat="43.065" lon="0.43509">
        <ele>498</ele>
        <time>2020-06-30T10:08:00Z</time>
      </trkpt>
      <trkpt lat="43.06502" lon="0.43504">
        <ele>498</ele>
        <time>2020-06-30T10:08:01Z</time>
      </trkpt>
      <trkpt lat="43.06503" lon="0.435">
        <ele>498.2</ele>
        <time>2020-06-30T10:08:02Z</time>
      </trkpt>
      <trkpt lat="43.06505" lon="0.43495">
        <ele>498.2</ele>
        <time>2020-06-30T10:08:03Z</time>
      </trkpt>
      <trkpt lat="43.06507" lon="0.4349">
        <ele>498.2</ele>
        <time>2020-06-30T10:08:04Z</time>
      </trkpt>
      <trkpt lat="43.06509" lon="0.43485">
        <ele>498.2</ele>
        <time>2020-06-30T10:08:05Z</time>
      </trkpt>
      <trkpt lat="43.0651" lon="0.4348">
        <ele>498.2</ele>
        <time>2020-06-30T10:08:06Z</time>
      </trkpt>
      <trkpt lat="43.06513" lon="0.43475">
        <ele>498.2</ele>
        <time>2020-06-30T10:08:07Z</time>
      </trkpt>
      <trkpt lat="43.06514" lon="0.4347">
        <ele>498.2</ele>
        <time>2020-06-30T10:08:08Z</time>
      </trkpt>
      <trkpt lat="43.06516" lon="0.43465">
        <ele>498.4</ele>
        <time>2020-06-30T10:08:09Z</time>
      </trkpt>
      <trkpt lat="43.06518" lon="0.43461">
        <ele>498.4</ele>
        <time>2020-06-30T10:08:10Z</time>
      </trkpt>
      <trkpt lat="43.0652" lon="0.43455">
        <ele>498.4</ele>
        <time>2020-06-30T10:08:11Z</time>
      </trkpt>
      <trkpt lat="43.06522" lon="0.43451">
        <ele>498.4</ele>
        <time>2020-06-30T10:08:12Z</time>
      </trkpt>
      <trkpt lat="43.06524" lon="0.43446">
        <ele>498.6</ele>
        <time>2020-06-30T10:08:13Z</time>
      </trkpt>
      <trkpt lat="43.06526" lon="0.43442">
        <ele>498.6</ele>
        <time>2020-06-30T10:08:14Z</time>
      </trkpt>
      <trkpt lat="43.06529" lon="0.43437">
        <ele>498.6</ele>
        <time>2020-06-30T10:08:15Z</time>
      </trkpt>
      <trkpt lat="43.06531" lon="0.43432">
        <ele>498.6</ele>
        <time>2020-06-30T10:08:16Z</time>
      </trkpt>
      <trkpt lat="43.06532" lon="0.43427">
        <ele>498.6</ele>
        <time>2020-06-30T10:08:17Z</time>
      </trkpt>
      <trkpt lat="43.06534" lon="0.43422">
        <ele>498.8</ele>
        <time>2020-06-30T10:08:18Z</time>
      </trkpt>
      <trkpt lat="43.06536" lon="0.43417">
        <ele>498.8</ele>
        <time>2020-06-30T10:08:19Z</time>
      </trkpt>
      <trkpt lat="43.06537" lon="0.43412">
        <ele>498.8</ele>
        <time>2020-06-30T10:08:20Z</time>
      </trkpt>
      <trkpt lat="43.06538" lon="0.43408">
        <ele>498.8</ele>
        <time>2020-06-30T10:08:21Z</time>
      </trkpt>
      <trkpt lat="43.0654" lon="0.43403">
        <ele>498.8</ele>
        <time>2020-06-30T10:08:22Z</time>
      </trkpt>
      <trkpt lat="43.06541" lon="0.43398">
        <ele>498.8</ele>
        <time>2020-06-30T10:08:23Z</time>
      </trkpt>
      <trkpt lat="43.06543" lon="0.43394">
        <ele>498.8</ele>
        <time>2020-06-30T10:08:24Z</time>
      </trkpt>
      <trkpt lat="43.06545" lon="0.4339">
        <ele>499</ele>
        <time>2020-06-30T10:08:25Z</time>
      </trkpt>
      <trkpt lat="43.06547" lon="0.43386">
        <ele>499</ele>
        <time>2020-06-30T10:08:26Z</time>
      </trkpt>
      <trkpt lat="43.06549" lon="0.43381">
        <ele>499</ele>
        <time>2020-06-30T10:08:27Z</time>
      </trkpt>
      <trkpt lat="43.0655" lon="0.43376">
        <ele>499</ele>
        <time>2020-06-30T10:08:28Z</time>
      </trkpt>
      <trkpt lat="43.06551" lon="0.43371">
        <ele>499</ele>
        <time>2020-06-30T10:08:29Z</time>
      </trkpt>
      <trkpt lat="43.06553" lon="0.43367">
        <ele>499</ele>
        <time>2020-06-30T10:08:30Z</time>
      </trkpt>
      <trkpt lat="43.06555" lon="0.43363">
        <ele>499.2</ele>
        <time>2020-06-30T10:08:31Z</time>
      </trkpt>
      <trkpt lat="43.06556" lon="0.43358">
        <ele>499.2</ele>
        <time>2020-06-30T10:08:32Z</time>
      </trkpt>
      <trkpt lat="43.06557" lon="0.43353">
        <ele>499.2</ele>
        <time>2020-06-30T10:08:33Z</time>
      </trkpt>
      <trkpt lat="43.06558" lon="0.43348">
        <ele>499.2</ele>
        <time>2020-06-30T10:08:34Z</time>
      </trkpt>
      <trkpt lat="43.0656" lon="0.43344">
        <ele>499.4</ele>
        <time>2020-06-30T10:08:35Z</time>
      </trkpt>
      <trkpt lat="43.06561" lon="0.43339">
        <ele>499.4</ele>
        <time>2020-06-30T10:08:36Z</time>
      </trkpt>
      <trkpt lat="43.06562" lon="0.43334">
        <ele>499.4</ele>
        <time>2020-06-30T10:08:37Z</time>
      </trkpt>
      <trkpt lat="43.06564" lon="0.4333">
        <ele>499.4</ele>
        <time>2020-06-30T10:08:38Z</time>
      </trkpt>
      <trkpt lat="43.06566" lon="0.43325">
        <ele>499.6</ele>
        <time>2020-06-30T10:08:39Z</time>
      </trkpt>
      <trkpt lat="43.06567" lon="0.4332">
        <ele>499.6</ele>
        <time>2020-06-30T10:08:40Z</time>
      </trkpt>
      <trkpt lat="43.06568" lon="0.43314">
        <ele>499.6</ele>
        <time>2020-06-30T10:08:41Z</time>
      </trkpt>
      <trkpt lat="43.06569" lon="0.4331">
        <ele>499.8</ele>
        <time>2020-06-30T10:08:42Z</time>
      </trkpt>
      <trkpt lat="43.0657" lon="0.43305">
        <ele>499.8</ele>
        <time>2020-06-30T10:08:43Z</time>
      </trkpt>
      <trkpt lat="43.06571" lon="0.43299">
        <ele>499.8</ele>
        <time>2020-06-30T10:08:44Z</time>
      </trkpt>
      <trkpt lat="43.06572" lon="0.43294">
        <ele>499.8</ele>
        <time>2020-06-30T10:08:45Z</time>
      </trkpt>
      <trkpt lat="43.06572" lon="0.43288">
        <ele>500</ele>
        <time>2020-06-30T10:08:46Z</time>
      </trkpt>
      <trkpt lat="43.06573" lon="0.43283">
        <ele>500</ele>
        <time>2020-06-30T10:08:47Z</time>
      </trkpt>
      <trkpt lat="43.06573" lon="0.43277">
        <ele>500</ele>
        <time>2020-06-30T10:08:48Z</time>
      </trkpt>
      <trkpt lat="43.06574" lon="0.43271">
        <ele>500</ele>
        <time>2020-06-30T10:08:49Z</time>
      </trkpt>
      <trkpt lat="43.06574" lon="0.43266">
        <ele>500</ele>
        <time>2020-06-30T10:08:50Z</time>
      </trkpt>
      <trkpt lat="43.06574" lon="0.4326">
        <ele>500</ele>
        <time>2020-06-30T10:08:51Z</time>
      </trkpt>
      <trkpt lat="43.06574" lon="0.43255">
        <ele>500.2</ele>
        <time>2020-06-30T10:08:52Z</time>
      </trkpt>
      <trkpt lat="43.06575" lon="0.4325">
        <ele>500.2</ele>
        <time>2020-06-30T10:08:53Z</time>
      </trkpt>
      <trkpt lat="43.06575" lon="0.43245">
        <ele>500.2</ele>
        <time>2020-06-30T10:08:54Z</time>
      </trkpt>
      <trkpt lat="43.06576" lon="0.4324">
        <ele>500.2</ele>
        <time>2020-06-30T10:08:55Z</time>
      </trkpt>
      <trkpt lat="43.06576" lon="0.43235">
        <ele>500.4</ele>
        <time>2020-06-30T10:08:56Z</time>
      </trkpt>
      <trkpt lat="43.06576" lon="0.4323">
        <ele>500.4</ele>
        <time>2020-06-30T10:08:57Z</time>
      </trkpt>
      <trkpt lat="43.06576" lon="0.43224">
        <ele>500.4</ele>
        <time>2020-06-30T10:08:58Z</time>
      </trkpt>
      <trkpt lat="43.06576" lon="0.43218">
        <ele>500.4</ele>
        <time>2020-06-30T10:08:59Z</time>
      </trkpt>
      <trkpt lat="43.06577" lon="0.43213">
        <ele>500.4</ele>
        <time>2020-06-30T10:09:00Z</time>
      </trkpt>
      <trkpt lat="43.06577" lon="0.43208">
        <ele>500.6</ele>
        <time>2020-06-30T10:09:01Z</time>
      </trkpt>
      <trkpt lat="43.06578" lon="0.43203">
        <ele>500.6</ele>
        <time>2020-06-30T10:09:02Z</time>
      </trkpt>
      <trkpt lat="43.06578" lon="0.43197">
        <ele>500.6</ele>
        <time>2020-06-30T10:09:03Z</time>
      </trkpt>
      <trkpt lat="43.06579" lon="0.43192">
        <ele>500.6</ele>
        <time>2020-06-30T10:09:04Z</time>
      </trkpt>
      <trkpt lat="43.06579" lon="0.43187">
        <ele>500.6</ele>
        <time>2020-06-30T10:09:05Z</time>
      </trkpt>
      <trkpt lat="43.0658" lon="0.43181">
        <ele>500.8</ele>
        <time>2020-06-30T10:09:06Z</time>
      </trkpt>
      <trkpt lat="43.06581" lon="0.43176">
        <ele>500.8</ele>
        <time>2020-06-30T10:09:07Z</time>
      </trkpt>
      <trkpt lat="43.06581" lon="0.43171">
        <ele>500.8</ele>
        <time>2020-06-30T10:09:08Z</time>
      </trkpt>
      <trkpt lat="43.06581" lon="0.43165">
        <ele>500.8</ele>
        <time>2020-06-30T10:09:09Z</time>
      </trkpt>
      <trkpt lat="43.06581" lon="0.4316">
        <ele>500.8</ele>
        <time>2020-06-30T10:09:10Z</time>
      </trkpt>
      <trkpt lat="43.06581" lon="0.43155">
        <ele>501</ele>
        <time>2020-06-30T10:09:11Z</time>
      </trkpt>
      <trkpt lat="43.06582" lon="0.4315">
        <ele>501</ele>
        <time>2020-06-30T10:09:12Z</time>
      </trkpt>
      <trkpt lat="43.06583" lon="0.43145">
        <ele>501</ele>
        <time>2020-06-30T10:09:13Z</time>
      </trkpt>
      <trkpt lat="43.06584" lon="0.43139">
        <ele>501.2</ele>
        <time>2020-06-30T10:09:14Z</time>
      </trkpt>
      <trkpt lat="43.06584" lon="0.43134">
        <ele>501.2</ele>
        <time>2020-06-30T10:09:15Z</time>
      </trkpt>
      <trkpt lat="43.06585" lon="0.43129">
        <ele>501.2</ele>
        <time>2020-06-30T10:09:16Z</time>
      </trkpt>
      <trkpt lat="43.06586" lon="0.43124">
        <ele>501.2</ele>
        <time>2020-06-30T10:09:17Z</time>
      </trkpt>
      <trkpt lat="43.06587" lon="0.43118">
        <ele>501.2</ele>
        <time>2020-06-30T10:09:18Z</time>
      </trkpt>
      <trkpt lat="43.06587" lon="0.43113">
        <ele>501.2</ele>
        <time>2020-06-30T10:09:19Z</time>
      </trkpt>
      <trkpt lat="43.06587" lon="0.43107">
        <ele>501.2</ele>
        <time>2020-06-30T10:09:20Z</time>
      </trkpt>
      <trkpt lat="43.06588" lon="0.43101">
        <ele>501.4</ele>
        <time>2020-06-30T10:09:21Z</time>
      </trkpt>
      <trkpt lat="43.06588" lon="0.43097">
        <ele>501.4</ele>
        <time>2020-06-30T10:09:22Z</time>
      </trkpt>
      <trkpt lat="43.06589" lon="0.43091">
        <ele>501.4</ele>
        <time>2020-06-30T10:09:23Z</time>
      </trkpt>
      <trkpt lat="43.06589" lon="0.43085">
        <ele>501.2</ele>
        <time>2020-06-30T10:09:24Z</time>
      </trkpt>
      <trkpt lat="43.0659" lon="0.4308">
        <ele>501.4</ele>
        <time>2020-06-30T10:09:25Z</time>
      </trkpt>
      <trkpt lat="43.06591" lon="0.43074">
        <ele>501.4</ele>
        <time>2020-06-30T10:09:26Z</time>
      </trkpt>
      <trkpt lat="43.06591" lon="0.43069">
        <ele>501.4</ele>
        <time>2020-06-30T10:09:27Z</time>
      </trkpt>
      <trkpt lat="43.06591" lon="0.43063">
        <ele>501.4</ele>
        <time>2020-06-30T10:09:28Z</time>
      </trkpt>
      <trkpt lat="43.06592" lon="0.43057">
        <ele>501.4</ele>
        <time>2020-06-30T10:09:29Z</time>
      </trkpt>
      <trkpt lat="43.06593" lon="0.43051">
        <ele>501.6</ele>
        <time>2020-06-30T10:09:30Z</time>
      </trkpt>
      <trkpt lat="43.06594" lon="0.43046">
        <ele>501.6</ele>
        <time>2020-06-30T10:09:31Z</time>
      </trkpt>
      <trkpt lat="43.06594" lon="0.4304">
        <ele>501.6</ele>
        <time>2020-06-30T10:09:32Z</time>
      </trkpt>
      <trkpt lat="43.06594" lon="0.43035">
        <ele>501.6</ele>
        <time>2020-06-30T10:09:33Z</time>
      </trkpt>
      <trkpt lat="43.06594" lon="0.43029">
        <ele>501.6</ele>
        <time>2020-06-30T10:09:34Z</time>
      </trkpt>
      <trkpt lat="43.06594" lon="0.43024">
        <ele>501.8</ele>
        <time>2020-06-30T10:09:35Z</time>
      </trkpt>
      <trkpt lat="43.06593" lon="0.43019">
        <ele>501.8</ele>
        <time>2020-06-30T10:09:36Z</time>
      </trkpt>
      <trkpt lat="43.06593" lon="0.43013">
        <ele>502</ele>
        <time>2020-06-30T10:09:37Z</time>
      </trkpt>
      <trkpt lat="43.06594" lon="0.43008">
        <ele>502</ele>
        <time>2020-06-30T10:09:38Z</time>
      </trkpt>
      <trkpt lat="43.06594" lon="0.43003">
        <ele>502</ele>
        <time>2020-06-30T10:09:39Z</time>
      </trkpt>
      <trkpt lat="43.06594" lon="0.42999">
        <ele>502</ele>
        <time>2020-06-30T10:09:40Z</time>
      </trkpt>
      <trkpt lat="43.06595" lon="0.42992">
        <ele>502</ele>
        <time>2020-06-30T10:09:41Z</time>
      </trkpt>
      <trkpt lat="43.06596" lon="0.42987">
        <ele>502</ele>
        <time>2020-06-30T10:09:42Z</time>
      </trkpt>
      <trkpt lat="43.06598" lon="0.42982">
        <ele>502.2</ele>
        <time>2020-06-30T10:09:43Z</time>
      </trkpt>
      <trkpt lat="43.06599" lon="0.42976">
        <ele>502.2</ele>
        <time>2020-06-30T10:09:44Z</time>
      </trkpt>
      <trkpt lat="43.06599" lon="0.42971">
        <ele>502.2</ele>
        <time>2020-06-30T10:09:45Z</time>
      </trkpt>
      <trkpt lat="43.06601" lon="0.42965">
        <ele>502.4</ele>
        <time>2020-06-30T10:09:46Z</time>
      </trkpt>
      <trkpt lat="43.06602" lon="0.42961">
        <ele>502.4</ele>
        <time>2020-06-30T10:09:47Z</time>
      </trkpt>
      <trkpt lat="43.06603" lon="0.42956">
        <ele>502.4</ele>
        <time>2020-06-30T10:09:48Z</time>
      </trkpt>
      <trkpt lat="43.06604" lon="0.42951">
        <ele>502.4</ele>
        <time>2020-06-30T10:09:49Z</time>
      </trkpt>
      <trkpt lat="43.06604" lon="0.42945">
        <ele>502.4</ele>
        <time>2020-06-30T10:09:50Z</time>
      </trkpt>
      <trkpt lat="43.06605" lon="0.4294">
        <ele>502.4</ele>
        <time>2020-06-30T10:09:51Z</time>
      </trkpt>
      <trkpt lat="43.06606" lon="0.42935">
        <ele>502.4</ele>
        <time>2020-06-30T10:09:52Z</time>
      </trkpt>
      <trkpt lat="43.06605" lon="0.42929">
        <ele>502.4</ele>
        <time>2020-06-30T10:09:53Z</time>
      </trkpt>
      <trkpt lat="43.06606" lon="0.42924">
        <ele>502.6</ele>
        <time>2020-06-30T10:09:54Z</time>
      </trkpt>
      <trkpt lat="43.06606" lon="0.42917">
        <ele>502.6</ele>
        <time>2020-06-30T10:09:55Z</time>
      </trkpt>
      <trkpt lat="43.06605" lon="0.42913">
        <ele>502.6</ele>
        <time>2020-06-30T10:09:56Z</time>
      </trkpt>
      <trkpt lat="43.06606" lon="0.42908">
        <ele>502.6</ele>
        <time>2020-06-30T10:09:57Z</time>
      </trkpt>
      <trkpt lat="43.06608" lon="0.42902">
        <ele>502.6</ele>
        <time>2020-06-30T10:09:58Z</time>
      </trkpt>
      <trkpt lat="43.0661" lon="0.42896">
        <ele>502.6</ele>
        <time>2020-06-30T10:09:59Z</time>
      </trkpt>
      <trkpt lat="43.06611" lon="0.42891">
        <ele>502.6</ele>
        <time>2020-06-30T10:10:00Z</time>
      </trkpt>
      <trkpt lat="43.06612" lon="0.42887">
        <ele>502.8</ele>
        <time>2020-06-30T10:10:01Z</time>
      </trkpt>
      <trkpt lat="43.06614" lon="0.42883">
        <ele>502.8</ele>
        <time>2020-06-30T10:10:02Z</time>
      </trkpt>
      <trkpt lat="43.06615" lon="0.42878">
        <ele>502.8</ele>
        <time>2020-06-30T10:10:03Z</time>
      </trkpt>
      <trkpt lat="43.06618" lon="0.42875">
        <ele>502.8</ele>
        <time>2020-06-30T10:10:04Z</time>
      </trkpt>
      <trkpt lat="43.06621" lon="0.42871">
        <ele>503</ele>
        <time>2020-06-30T10:10:05Z</time>
      </trkpt>
      <trkpt lat="43.06624" lon="0.42865">
        <ele>503</ele>
        <time>2020-06-30T10:10:06Z</time>
      </trkpt>
      <trkpt lat="43.06626" lon="0.42861">
        <ele>503</ele>
        <time>2020-06-30T10:10:07Z</time>
      </trkpt>
      <trkpt lat="43.06629" lon="0.42857">
        <ele>503.2</ele>
        <time>2020-06-30T10:10:08Z</time>
      </trkpt>
      <trkpt lat="43.06631" lon="0.42853">
        <ele>503.2</ele>
        <time>2020-06-30T10:10:09Z</time>
      </trkpt>
      <trkpt lat="43.06633" lon="0.42848">
        <ele>503.2</ele>
        <time>2020-06-30T10:10:10Z</time>
      </trkpt>
      <trkpt lat="43.06635" lon="0.42845">
        <ele>503.4</ele>
        <time>2020-06-30T10:10:11Z</time>
      </trkpt>
      <trkpt lat="43.06637" lon="0.42841">
        <ele>503.4</ele>
        <time>2020-06-30T10:10:12Z</time>
      </trkpt>
      <trkpt lat="43.06639" lon="0.42837">
        <ele>503.4</ele>
        <time>2020-06-30T10:10:13Z</time>
      </trkpt>
      <trkpt lat="43.06642" lon="0.42831">
        <ele>503.4</ele>
        <time>2020-06-30T10:10:14Z</time>
      </trkpt>
      <trkpt lat="43.06643" lon="0.42828">
        <ele>503.4</ele>
        <time>2020-06-30T10:10:15Z</time>
      </trkpt>
      <trkpt lat="43.06645" lon="0.42823">
        <ele>503.4</ele>
        <time>2020-06-30T10:10:16Z</time>
      </trkpt>
      <trkpt lat="43.06647" lon="0.4282">
        <ele>503.4</ele>
        <time>2020-06-30T10:10:17Z</time>
      </trkpt>
      <trkpt lat="43.06649" lon="0.42817">
        <ele>503.4</ele>
        <time>2020-06-30T10:10:18Z</time>
      </trkpt>
      <trkpt lat="43.06651" lon="0.42815">
        <ele>503.4</ele>
        <time>2020-06-30T10:10:19Z</time>
      </trkpt>
      <trkpt lat="43.06653" lon="0.42813">
        <ele>503.4</ele>
        <time>2020-06-30T10:10:20Z</time>
      </trkpt>
      <trkpt lat="43.06654" lon="0.42812">
        <ele>503.4</ele>
        <time>2020-06-30T10:10:21Z</time>
      </trkpt>
      <trkpt lat="43.06655" lon="0.42811">
        <ele>503.4</ele>
        <time>2020-06-30T10:10:22Z</time>
      </trkpt>
      <trkpt lat="43.06655" lon="0.4281">
        <ele>503.6</ele>
        <time>2020-06-30T10:10:23Z</time>
      </trkpt>
      <trkpt lat="43.06655" lon="0.4281">
        <ele>503.4</ele>
        <time>2020-06-30T10:10:24Z</time>
      </trkpt>
      <trkpt lat="43.06655" lon="0.4281">
        <ele>503.4</ele>
        <time>2020-06-30T10:10:25Z</time>
      </trkpt>
      <trkpt lat="43.06654" lon="0.4281">
        <ele>503.6</ele>
        <time>2020-06-30T10:10:26Z</time>
      </trkpt>
      <trkpt lat="43.06654" lon="0.42811">
        <ele>503.4</ele>
        <time>2020-06-30T10:10:27Z</time>
      </trkpt>
      <trkpt lat="43.06654" lon="0.4281">
        <ele>503.6</ele>
        <time>2020-06-30T10:10:28Z</time>
      </trkpt>
      <trkpt lat="43.06654" lon="0.4281">
        <ele>503.4</ele>
        <time>2020-06-30T10:10:29Z</time>
      </trkpt>
      <trkpt lat="43.06653" lon="0.42811">
        <ele>503.4</ele>
        <time>2020-06-30T10:10:30Z</time>
      </trkpt>
      <trkpt lat="43.06653" lon="0.42811">
        <ele>503.4</ele>
        <time>2020-06-30T10:10:31Z</time>
      </trkpt>
      <trkpt lat="43.06652" lon="0.42811">
        <ele>503.4</ele>
        <time>2020-06-30T10:10:32Z</time>
      </trkpt>
      <trkpt lat="43.06654" lon="0.42812">
        <ele>503.6</ele>
        <time>2020-06-30T10:10:40Z</time>
      </trkpt>
      <trkpt lat="43.06655" lon="0.42811">
        <ele>503.6</ele>
        <time>2020-06-30T10:10:41Z</time>
      </trkpt>
      <trkpt lat="43.06655" lon="0.42809">
        <ele>503.4</ele>
        <time>2020-06-30T10:10:42Z</time>
      </trkpt>
      <trkpt lat="43.06654" lon="0.42809">
        <ele>503.4</ele>
        <time>2020-06-30T10:10:43Z</time>
      </trkpt>
      <trkpt lat="43.06654" lon="0.42809">
        <ele>503.6</ele>
        <time>2020-06-30T10:10:44Z</time>
      </trkpt>
      <trkpt lat="43.06655" lon="0.42808">
        <ele>503.6</ele>
        <time>2020-06-30T10:10:45Z</time>
      </trkpt>
      <trkpt lat="43.06655" lon="0.42808">
        <ele>503.4</ele>
        <time>2020-06-30T10:10:46Z</time>
      </trkpt>
      <trkpt lat="43.06655" lon="0.42807">
        <ele>503.6</ele>
        <time>2020-06-30T10:10:47Z</time>
      </trkpt>
      <trkpt lat="43.06656" lon="0.42808">
        <ele>503.6</ele>
        <time>2020-06-30T10:10:48Z</time>
      </trkpt>
      <trkpt lat="43.06656" lon="0.42808">
        <ele>503.6</ele>
        <time>2020-06-30T10:10:49Z</time>
      </trkpt>
      <trkpt lat="43.06656" lon="0.42808">
        <ele>503.6</ele>
        <time>2020-06-30T10:10:50Z</time>
      </trkpt>
      <trkpt lat="43.06656" lon="0.42807">
        <ele>503.6</ele>
        <time>2020-06-30T10:10:51Z</time>
      </trkpt>
      <trkpt lat="43.06651" lon="0.42807">
        <ele>503.4</ele>
        <time>2020-06-30T10:11:30Z</time>
      </trkpt>
      <trkpt lat="43.0665" lon="0.42803">
        <ele>503.4</ele>
        <time>2020-06-30T10:11:31Z</time>
      </trkpt>
      <trkpt lat="43.06648" lon="0.428">
        <ele>503.4</ele>
        <time>2020-06-30T10:11:32Z</time>
      </trkpt>
      <trkpt lat="43.06648" lon="0.42797">
        <ele>503.4</ele>
        <time>2020-06-30T10:11:33Z</time>
      </trkpt>
      <trkpt lat="43.06643" lon="0.4279">
        <ele>503.4</ele>
        <time>2020-06-30T10:11:34Z</time>
      </trkpt>
      <trkpt lat="43.06641" lon="0.42786">
        <ele>503.4</ele>
        <time>2020-06-30T10:11:35Z</time>
      </trkpt>
      <trkpt lat="43.06639" lon="0.42781">
        <ele>503.4</ele>
        <time>2020-06-30T10:11:36Z</time>
      </trkpt>
      <trkpt lat="43.06637" lon="0.42778">
        <ele>503.4</ele>
        <time>2020-06-30T10:11:37Z</time>
      </trkpt>
      <trkpt lat="43.06634" lon="0.42772">
        <ele>503.2</ele>
        <time>2020-06-30T10:11:38Z</time>
      </trkpt>
      <trkpt lat="43.06632" lon="0.42769">
        <ele>503.2</ele>
        <time>2020-06-30T10:11:39Z</time>
      </trkpt>
      <trkpt lat="43.06631" lon="0.42766">
        <ele>503.2</ele>
        <time>2020-06-30T10:11:40Z</time>
      </trkpt>
      <trkpt lat="43.06628" lon="0.42761">
        <ele>503.2</ele>
        <time>2020-06-30T10:11:41Z</time>
      </trkpt>
      <trkpt lat="43.06623" lon="0.42757">
        <ele>503.2</ele>
        <time>2020-06-30T10:11:42Z</time>
      </trkpt>
      <trkpt lat="43.0662" lon="0.42751">
        <ele>503.2</ele>
        <time>2020-06-30T10:11:43Z</time>
      </trkpt>
      <trkpt lat="43.06619" lon="0.42747">
        <ele>503.2</ele>
        <time>2020-06-30T10:11:44Z</time>
      </trkpt>
      <trkpt lat="43.06616" lon="0.42745">
        <ele>503.2</ele>
        <time>2020-06-30T10:11:45Z</time>
      </trkpt>
      <trkpt lat="43.06613" lon="0.42742">
        <ele>503</ele>
        <time>2020-06-30T10:11:46Z</time>
      </trkpt>
      <trkpt lat="43.06611" lon="0.42738">
        <ele>503</ele>
        <time>2020-06-30T10:11:47Z</time>
      </trkpt>
      <trkpt lat="43.06608" lon="0.42734">
        <ele>503</ele>
        <time>2020-06-30T10:11:48Z</time>
      </trkpt>
      <trkpt lat="43.06606" lon="0.42729">
        <ele>503</ele>
        <time>2020-06-30T10:11:49Z</time>
      </trkpt>
      <trkpt lat="43.06604" lon="0.42724">
        <ele>503</ele>
        <time>2020-06-30T10:11:50Z</time>
      </trkpt>
      <trkpt lat="43.06604" lon="0.42721">
        <ele>503</ele>
        <time>2020-06-30T10:11:51Z</time>
      </trkpt>
      <trkpt lat="43.06602" lon="0.42718">
        <ele>503</ele>
        <time>2020-06-30T10:11:52Z</time>
      </trkpt>
      <trkpt lat="43.06601" lon="0.42716">
        <ele>503</ele>
        <time>2020-06-30T10:11:53Z</time>
      </trkpt>
      <trkpt lat="43.06599" lon="0.42713">
        <ele>503</ele>
        <time>2020-06-30T10:11:54Z</time>
      </trkpt>
      <trkpt lat="43.06597" lon="0.4271">
        <ele>503.2</ele>
        <time>2020-06-30T10:11:55Z</time>
      </trkpt>
      <trkpt lat="43.06597" lon="0.42707">
        <ele>503.2</ele>
        <time>2020-06-30T10:11:56Z</time>
      </trkpt>
      <trkpt lat="43.06595" lon="0.42703">
        <ele>503.2</ele>
        <time>2020-06-30T10:11:57Z</time>
      </trkpt>
      <trkpt lat="43.06596" lon="0.427">
        <ele>503.2</ele>
        <time>2020-06-30T10:11:58Z</time>
      </trkpt>
      <trkpt lat="43.06596" lon="0.42698">
        <ele>503.2</ele>
        <time>2020-06-30T10:11:59Z</time>
      </trkpt>
      <trkpt lat="43.06594" lon="0.42694">
        <ele>503.2</ele>
        <time>2020-06-30T10:12:00Z</time>
      </trkpt>
      <trkpt lat="43.06595" lon="0.4269">
        <ele>503.2</ele>
        <time>2020-06-30T10:12:01Z</time>
      </trkpt>
      <trkpt lat="43.06595" lon="0.42687">
        <ele>503.2</ele>
        <time>2020-06-30T10:12:02Z</time>
      </trkpt>
      <trkpt lat="43.06596" lon="0.42684">
        <ele>503</ele>
        <time>2020-06-30T10:12:03Z</time>
      </trkpt>
      <trkpt lat="43.06596" lon="0.4268">
        <ele>503</ele>
        <time>2020-06-30T10:12:04Z</time>
      </trkpt>
      <trkpt lat="43.06596" lon="0.42678">
        <ele>503</ele>
        <time>2020-06-30T10:12:05Z</time>
      </trkpt>
      <trkpt lat="43.06596" lon="0.42675">
        <ele>503</ele>
        <time>2020-06-30T10:12:06Z</time>
      </trkpt>
      <trkpt lat="43.06597" lon="0.42674">
        <ele>503</ele>
        <time>2020-06-30T10:12:07Z</time>
      </trkpt>
      <trkpt lat="43.06596" lon="0.42673">
        <ele>503</ele>
        <time>2020-06-30T10:12:08Z</time>
      </trkpt>
      <trkpt lat="43.06597" lon="0.42672">
        <ele>502.8</ele>
        <time>2020-06-30T10:12:09Z</time>
      </trkpt>
      <trkpt lat="43.06597" lon="0.42671">
        <ele>502.8</ele>
        <time>2020-06-30T10:12:10Z</time>
      </trkpt>
      <trkpt lat="43.06596" lon="0.4267">
        <ele>502.8</ele>
        <time>2020-06-30T10:12:11Z</time>
      </trkpt>
      <trkpt lat="43.06596" lon="0.4267">
        <ele>502.8</ele>
        <time>2020-06-30T10:12:12Z</time>
      </trkpt>
      <trkpt lat="43.06596" lon="0.4267">
        <ele>502.8</ele>
        <time>2020-06-30T10:12:13Z</time>
      </trkpt>
      <trkpt lat="43.06596" lon="0.4267">
        <ele>502.8</ele>
        <time>2020-06-30T10:12:14Z</time>
      </trkpt>
      <trkpt lat="43.06596" lon="0.42671">
        <ele>502.8</ele>
        <time>2020-06-30T10:12:15Z</time>
      </trkpt>
      <trkpt lat="43.06597" lon="0.42671">
        <ele>502.8</ele>
        <time>2020-06-30T10:12:16Z</time>
      </trkpt>
      <trkpt lat="43.06597" lon="0.4267">
        <ele>502.8</ele>
        <time>2020-06-30T10:12:17Z</time>
      </trkpt>
      <trkpt lat="43.06598" lon="0.42668">
        <ele>502.8</ele>
        <time>2020-06-30T10:12:18Z</time>
      </trkpt>
      <trkpt lat="43.06599" lon="0.42666">
        <ele>503</ele>
        <time>2020-06-30T10:12:19Z</time>
      </trkpt>
      <trkpt lat="43.06599" lon="0.42667">
        <ele>503</ele>
        <time>2020-06-30T10:12:20Z</time>
      </trkpt>
      <trkpt lat="43.066" lon="0.42667">
        <ele>503</ele>
        <time>2020-06-30T10:12:21Z</time>
      </trkpt>
      <trkpt lat="43.06599" lon="0.42665">
        <ele>503</ele>
        <time>2020-06-30T10:12:22Z</time>
      </trkpt>
      <trkpt lat="43.06599" lon="0.42665">
        <ele>503</ele>
        <time>2020-06-30T10:12:23Z</time>
      </trkpt>
      <trkpt lat="43.06598" lon="0.42665">
        <ele>503</ele>
        <time>2020-06-30T10:12:24Z</time>
      </trkpt>
      <trkpt lat="43.06598" lon="0.42664">
        <ele>503</ele>
        <time>2020-06-30T10:12:25Z</time>
      </trkpt>
      <trkpt lat="43.06599" lon="0.42665">
        <ele>503</ele>
        <time>2020-06-30T10:12:26Z</time>
      </trkpt>
      <trkpt lat="43.066" lon="0.42663">
        <ele>502.8</ele>
        <time>2020-06-30T10:12:27Z</time>
      </trkpt>
      <trkpt lat="43.06601" lon="0.42663">
        <ele>503</ele>
        <time>2020-06-30T10:12:28Z</time>
      </trkpt>
      <trkpt lat="43.06601" lon="0.42661">
        <ele>502.8</ele>
        <time>2020-06-30T10:12:29Z</time>
      </trkpt>
      <trkpt lat="43.06601" lon="0.42659">
        <ele>503</ele>
        <time>2020-06-30T10:12:30Z</time>
      </trkpt>
      <trkpt lat="43.06601" lon="0.42658">
        <ele>503</ele>
        <time>2020-06-30T10:12:31Z</time>
      </trkpt>
      <trkpt lat="43.06601" lon="0.42658">
        <ele>503</ele>
        <time>2020-06-30T10:12:32Z</time>
      </trkpt>
      <trkpt lat="43.06601" lon="0.42657">
        <ele>503</ele>
        <time>2020-06-30T10:12:33Z</time>
      </trkpt>
      <trkpt lat="43.066" lon="0.42655">
        <ele>503</ele>
        <time>2020-06-30T10:12:34Z</time>
      </trkpt>
      <trkpt lat="43.066" lon="0.42653">
        <ele>503</ele>
        <time>2020-06-30T10:12:35Z</time>
      </trkpt>
      <trkpt lat="43.066" lon="0.42651">
        <ele>503</ele>
        <time>2020-06-30T10:12:36Z</time>
      </trkpt>
      <trkpt lat="43.06601" lon="0.42651">
        <ele>503</ele>
        <time>2020-06-30T10:12:37Z</time>
      </trkpt>
      <trkpt lat="43.06601" lon="0.42652">
        <ele>503</ele>
        <time>2020-06-30T10:12:38Z</time>
      </trkpt>
      <trkpt lat="43.06602" lon="0.42652">
        <ele>502.8</ele>
        <time>2020-06-30T10:12:39Z</time>
      </trkpt>
      <trkpt lat="43.06602" lon="0.42651">
        <ele>503</ele>
        <time>2020-06-30T10:12:40Z</time>
      </trkpt>
      <trkpt lat="43.06602" lon="0.42649">
        <ele>503</ele>
        <time>2020-06-30T10:12:41Z</time>
      </trkpt>
      <trkpt lat="43.06601" lon="0.42647">
        <ele>503</ele>
        <time>2020-06-30T10:12:42Z</time>
      </trkpt>
      <trkpt lat="43.06602" lon="0.42647">
        <ele>502.8</ele>
        <time>2020-06-30T10:12:43Z</time>
      </trkpt>
      <trkpt lat="43.06602" lon="0.42645">
        <ele>502.8</ele>
        <time>2020-06-30T10:12:44Z</time>
      </trkpt>
      <trkpt lat="43.06603" lon="0.42642">
        <ele>502.8</ele>
        <time>2020-06-30T10:12:45Z</time>
      </trkpt>
      <trkpt lat="43.06603" lon="0.42642">
        <ele>502.8</ele>
        <time>2020-06-30T10:12:46Z</time>
      </trkpt>
      <trkpt lat="43.06603" lon="0.42641">
        <ele>502.8</ele>
        <time>2020-06-30T10:12:47Z</time>
      </trkpt>
      <trkpt lat="43.06603" lon="0.42641">
        <ele>502.8</ele>
        <time>2020-06-30T10:12:48Z</time>
      </trkpt>
      <trkpt lat="43.06604" lon="0.4264">
        <ele>502.8</ele>
        <time>2020-06-30T10:12:49Z</time>
      </trkpt>
      <trkpt lat="43.06604" lon="0.42639">
        <ele>502.8</ele>
        <time>2020-06-30T10:12:50Z</time>
      </trkpt>
      <trkpt lat="43.06604" lon="0.42639">
        <ele>502.8</ele>
        <time>2020-06-30T10:12:51Z</time>
      </trkpt>
      <trkpt lat="43.06605" lon="0.42638">
        <ele>502.8</ele>
        <time>2020-06-30T10:12:52Z</time>
      </trkpt>
      <trkpt lat="43.06603" lon="0.42638">
        <ele>502.8</ele>
        <time>2020-06-30T10:12:53Z</time>
      </trkpt>
      <trkpt lat="43.06604" lon="0.42637">
        <ele>502.8</ele>
        <time>2020-06-30T10:12:54Z</time>
      </trkpt>
      <trkpt lat="43.06605" lon="0.42636">
        <ele>502.8</ele>
        <time>2020-06-30T10:12:55Z</time>
      </trkpt>
      <trkpt lat="43.06604" lon="0.42634">
        <ele>502.8</ele>
        <time>2020-06-30T10:12:56Z</time>
      </trkpt>
      <trkpt lat="43.06604" lon="0.42633">
        <ele>502.8</ele>
        <time>2020-06-30T10:12:57Z</time>
      </trkpt>
      <trkpt lat="43.06604" lon="0.42632">
        <ele>502.8</ele>
        <time>2020-06-30T10:12:58Z</time>
      </trkpt>
      <trkpt lat="43.06605" lon="0.4263">
        <ele>502.8</ele>
        <time>2020-06-30T10:12:59Z</time>
      </trkpt>
      <trkpt lat="43.06605" lon="0.42628">
        <ele>502.8</ele>
        <time>2020-06-30T10:13:00Z</time>
      </trkpt>
      <trkpt lat="43.06605" lon="0.42626">
        <ele>502.8</ele>
        <time>2020-06-30T10:13:01Z</time>
      </trkpt>
      <trkpt lat="43.06605" lon="0.42625">
        <ele>502.8</ele>
        <time>2020-06-30T10:13:02Z</time>
      </trkpt>
      <trkpt lat="43.06604" lon="0.42624">
        <ele>502.8</ele>
        <time>2020-06-30T10:13:03Z</time>
      </trkpt>
      <trkpt lat="43.06604" lon="0.42623">
        <ele>502.8</ele>
        <time>2020-06-30T10:13:04Z</time>
      </trkpt>
      <trkpt lat="43.06604" lon="0.42624">
        <ele>502.8</ele>
        <time>2020-06-30T10:13:05Z</time>
      </trkpt>
      <trkpt lat="43.06604" lon="0.42623">
        <ele>502.8</ele>
        <time>2020-06-30T10:13:06Z</time>
      </trkpt>
      <trkpt lat="43.06604" lon="0.42621">
        <ele>502.8</ele>
        <time>2020-06-30T10:13:07Z</time>
      </trkpt>
      <trkpt lat="43.06605" lon="0.4262">
        <ele>502.8</ele>
        <time>2020-06-30T10:13:08Z</time>
      </trkpt>
      <trkpt lat="43.06605" lon="0.4262">
        <ele>502.8</ele>
        <time>2020-06-30T10:13:09Z</time>
      </trkpt>
      <trkpt lat="43.06605" lon="0.42619">
        <ele>502.8</ele>
        <time>2020-06-30T10:13:10Z</time>
      </trkpt>
      <trkpt lat="43.06604" lon="0.42618">
        <ele>502.8</ele>
        <time>2020-06-30T10:13:11Z</time>
      </trkpt>
      <trkpt lat="43.06604" lon="0.42616">
        <ele>502.6</ele>
        <time>2020-06-30T10:13:12Z</time>
      </trkpt>
      <trkpt lat="43.06605" lon="0.42615">
        <ele>502.6</ele>
        <time>2020-06-30T10:13:13Z</time>
      </trkpt>
      <trkpt lat="43.06605" lon="0.42612">
        <ele>502.6</ele>
        <time>2020-06-30T10:13:14Z</time>
      </trkpt>
      <trkpt lat="43.06605" lon="0.42611">
        <ele>502.6</ele>
        <time>2020-06-30T10:13:15Z</time>
      </trkpt>
      <trkpt lat="43.06605" lon="0.4261">
        <ele>502.6</ele>
        <time>2020-06-30T10:13:16Z</time>
      </trkpt>
      <trkpt lat="43.06604" lon="0.42608">
        <ele>502.6</ele>
        <time>2020-06-30T10:13:17Z</time>
      </trkpt>
      <trkpt lat="43.06604" lon="0.42606">
        <ele>502.6</ele>
        <time>2020-06-30T10:13:18Z</time>
      </trkpt>
      <trkpt lat="43.06604" lon="0.42606">
        <ele>502.6</ele>
        <time>2020-06-30T10:13:19Z</time>
      </trkpt>
      <trkpt lat="43.06605" lon="0.42606">
        <ele>502.6</ele>
        <time>2020-06-30T10:13:20Z</time>
      </trkpt>
      <trkpt lat="43.06605" lon="0.42606">
        <ele>502.6</ele>
        <time>2020-06-30T10:13:21Z</time>
      </trkpt>
      <trkpt lat="43.06605" lon="0.42606">
        <ele>502.6</ele>
        <time>2020-06-30T10:13:22Z</time>
      </trkpt>
      <trkpt lat="43.06605" lon="0.42607">
        <ele>502.6</ele>
        <time>2020-06-30T10:13:23Z</time>
      </trkpt>
      <trkpt lat="43.06606" lon="0.42604">
        <ele>502.6</ele>
        <time>2020-06-30T10:13:24Z</time>
      </trkpt>
      <trkpt lat="43.06605" lon="0.42601">
        <ele>502.6</ele>
        <time>2020-06-30T10:13:25Z</time>
      </trkpt>
      <trkpt lat="43.06606" lon="0.426">
        <ele>502.6</ele>
        <time>2020-06-30T10:13:26Z</time>
      </trkpt>
      <trkpt lat="43.06606" lon="0.42598">
        <ele>502.6</ele>
        <time>2020-06-30T10:13:27Z</time>
      </trkpt>
      <trkpt lat="43.06607" lon="0.42595">
        <ele>502.6</ele>
        <time>2020-06-30T10:13:28Z</time>
      </trkpt>
      <trkpt lat="43.06606" lon="0.42593">
        <ele>502.6</ele>
        <time>2020-06-30T10:13:29Z</time>
      </trkpt>
      <trkpt lat="43.06605" lon="0.42589">
        <ele>502.6</ele>
        <time>2020-06-30T10:13:30Z</time>
      </trkpt>
      <trkpt lat="43.06606" lon="0.42588">
        <ele>502.6</ele>
        <time>2020-06-30T10:13:31Z</time>
      </trkpt>
      <trkpt lat="43.06606" lon="0.42586">
        <ele>502.8</ele>
        <time>2020-06-30T10:13:32Z</time>
      </trkpt>
      <trkpt lat="43.06607" lon="0.42582">
        <ele>502.8</ele>
        <time>2020-06-30T10:13:33Z</time>
      </trkpt>
      <trkpt lat="43.06607" lon="0.4258">
        <ele>502.8</ele>
        <time>2020-06-30T10:13:34Z</time>
      </trkpt>
      <trkpt lat="43.06609" lon="0.42577">
        <ele>502.8</ele>
        <time>2020-06-30T10:13:35Z</time>
      </trkpt>
      <trkpt lat="43.06609" lon="0.42572">
        <ele>502.8</ele>
        <time>2020-06-30T10:13:36Z</time>
      </trkpt>
      <trkpt lat="43.06609" lon="0.42568">
        <ele>502.8</ele>
        <time>2020-06-30T10:13:37Z</time>
      </trkpt>
      <trkpt lat="43.06609" lon="0.42565">
        <ele>503</ele>
        <time>2020-06-30T10:13:38Z</time>
      </trkpt>
      <trkpt lat="43.0661" lon="0.42561">
        <ele>503</ele>
        <time>2020-06-30T10:13:39Z</time>
      </trkpt>
      <trkpt lat="43.06609" lon="0.42558">
        <ele>503</ele>
        <time>2020-06-30T10:13:40Z</time>
      </trkpt>
      <trkpt lat="43.06609" lon="0.42555">
        <ele>503</ele>
        <time>2020-06-30T10:13:41Z</time>
      </trkpt>
      <trkpt lat="43.0661" lon="0.42552">
        <ele>503</ele>
        <time>2020-06-30T10:13:42Z</time>
      </trkpt>
      <trkpt lat="43.06609" lon="0.42548">
        <ele>503</ele>
        <time>2020-06-30T10:13:43Z</time>
      </trkpt>
      <trkpt lat="43.06609" lon="0.42544">
        <ele>503</ele>
        <time>2020-06-30T10:13:44Z</time>
      </trkpt>
      <trkpt lat="43.06609" lon="0.4254">
        <ele>503.2</ele>
        <time>2020-06-30T10:13:45Z</time>
      </trkpt>
      <trkpt lat="43.06609" lon="0.42537">
        <ele>503.2</ele>
        <time>2020-06-30T10:13:46Z</time>
      </trkpt>
      <trkpt lat="43.06608" lon="0.42533">
        <ele>503.2</ele>
        <time>2020-06-30T10:13:47Z</time>
      </trkpt>
      <trkpt lat="43.06609" lon="0.42531">
        <ele>503.2</ele>
        <time>2020-06-30T10:13:48Z</time>
      </trkpt>
      <trkpt lat="43.06609" lon="0.42527">
        <ele>503.2</ele>
        <time>2020-06-30T10:13:49Z</time>
      </trkpt>
      <trkpt lat="43.06608" lon="0.42525">
        <ele>503.2</ele>
        <time>2020-06-30T10:13:50Z</time>
      </trkpt>
      <trkpt lat="43.06608" lon="0.42521">
        <ele>503.2</ele>
        <time>2020-06-30T10:13:51Z</time>
      </trkpt>
      <trkpt lat="43.06609" lon="0.42519">
        <ele>503.4</ele>
        <time>2020-06-30T10:13:52Z</time>
      </trkpt>
      <trkpt lat="43.06609" lon="0.42516">
        <ele>503.4</ele>
        <time>2020-06-30T10:13:53Z</time>
      </trkpt>
      <trkpt lat="43.0661" lon="0.42514">
        <ele>503.4</ele>
        <time>2020-06-30T10:13:54Z</time>
      </trkpt>
      <trkpt lat="43.06609" lon="0.42511">
        <ele>503.4</ele>
        <time>2020-06-30T10:13:55Z</time>
      </trkpt>
      <trkpt lat="43.06609" lon="0.42509">
        <ele>503.4</ele>
        <time>2020-06-30T10:13:56Z</time>
      </trkpt>
      <trkpt lat="43.06608" lon="0.42506">
        <ele>503.6</ele>
        <time>2020-06-30T10:13:57Z</time>
      </trkpt>
      <trkpt lat="43.06608" lon="0.42505">
        <ele>503.6</ele>
        <time>2020-06-30T10:13:58Z</time>
      </trkpt>
      <trkpt lat="43.06608" lon="0.42502">
        <ele>503.6</ele>
        <time>2020-06-30T10:13:59Z</time>
      </trkpt>
      <trkpt lat="43.06608" lon="0.425">
        <ele>503.6</ele>
        <time>2020-06-30T10:14:00Z</time>
      </trkpt>
      <trkpt lat="43.06607" lon="0.42497">
        <ele>503.6</ele>
        <time>2020-06-30T10:14:01Z</time>
      </trkpt>
      <trkpt lat="43.06606" lon="0.42495">
        <ele>503.8</ele>
        <time>2020-06-30T10:14:02Z</time>
      </trkpt>
      <trkpt lat="43.06606" lon="0.42492">
        <ele>503.8</ele>
        <time>2020-06-30T10:14:03Z</time>
      </trkpt>
      <trkpt lat="43.06605" lon="0.42489">
        <ele>503.8</ele>
        <time>2020-06-30T10:14:04Z</time>
      </trkpt>
      <trkpt lat="43.06605" lon="0.42486">
        <ele>503.8</ele>
        <time>2020-06-30T10:14:05Z</time>
      </trkpt>
      <trkpt lat="43.06605" lon="0.42483">
        <ele>504</ele>
        <time>2020-06-30T10:14:06Z</time>
      </trkpt>
      <trkpt lat="43.06604" lon="0.4248">
        <ele>503.8</ele>
        <time>2020-06-30T10:14:07Z</time>
      </trkpt>
      <trkpt lat="43.06605" lon="0.42477">
        <ele>503.8</ele>
        <time>2020-06-30T10:14:08Z</time>
      </trkpt>
      <trkpt lat="43.06604" lon="0.42475">
        <ele>504</ele>
        <time>2020-06-30T10:14:09Z</time>
      </trkpt>
      <trkpt lat="43.06604" lon="0.4247">
        <ele>504</ele>
        <time>2020-06-30T10:14:10Z</time>
      </trkpt>
      <trkpt lat="43.06603" lon="0.42468">
        <ele>504</ele>
        <time>2020-06-30T10:14:11Z</time>
      </trkpt>
      <trkpt lat="43.06603" lon="0.42466">
        <ele>504</ele>
        <time>2020-06-30T10:14:12Z</time>
      </trkpt>
      <trkpt lat="43.06603" lon="0.42462">
        <ele>504</ele>
        <time>2020-06-30T10:14:13Z</time>
      </trkpt>
      <trkpt lat="43.06603" lon="0.4246">
        <ele>504</ele>
        <time>2020-06-30T10:14:14Z</time>
      </trkpt>
      <trkpt lat="43.06602" lon="0.42457">
        <ele>504.2</ele>
        <time>2020-06-30T10:14:15Z</time>
      </trkpt>
      <trkpt lat="43.06601" lon="0.42455">
        <ele>504.2</ele>
        <time>2020-06-30T10:14:16Z</time>
      </trkpt>
      <trkpt lat="43.06601" lon="0.42452">
        <ele>504.2</ele>
        <time>2020-06-30T10:14:17Z</time>
      </trkpt>
      <trkpt lat="43.06601" lon="0.4245">
        <ele>504.2</ele>
        <time>2020-06-30T10:14:18Z</time>
      </trkpt>
      <trkpt lat="43.06601" lon="0.42447">
        <ele>504.2</ele>
        <time>2020-06-30T10:14:19Z</time>
      </trkpt>
      <trkpt lat="43.06601" lon="0.42445">
        <ele>504.4</ele>
        <time>2020-06-30T10:14:20Z</time>
      </trkpt>
      <trkpt lat="43.06599" lon="0.42443">
        <ele>504.4</ele>
        <time>2020-06-30T10:14:21Z</time>
      </trkpt>
      <trkpt lat="43.06598" lon="0.4244">
        <ele>504.4</ele>
        <time>2020-06-30T10:14:22Z</time>
      </trkpt>
      <trkpt lat="43.06597" lon="0.42439">
        <ele>504.4</ele>
        <time>2020-06-30T10:14:23Z</time>
      </trkpt>
      <trkpt lat="43.06596" lon="0.42437">
        <ele>504.4</ele>
        <time>2020-06-30T10:14:24Z</time>
      </trkpt>
      <trkpt lat="43.06595" lon="0.42435">
        <ele>504.4</ele>
        <time>2020-06-30T10:14:25Z</time>
      </trkpt>
      <trkpt lat="43.06593" lon="0.42432">
        <ele>504.6</ele>
        <time>2020-06-30T10:14:26Z</time>
      </trkpt>
      <trkpt lat="43.06593" lon="0.4243">
        <ele>504.6</ele>
        <time>2020-06-30T10:14:27Z</time>
      </trkpt>
      <trkpt lat="43.06593" lon="0.42426">
        <ele>504.6</ele>
        <time>2020-06-30T10:14:28Z</time>
      </trkpt>
      <trkpt lat="43.06591" lon="0.42424">
        <ele>504.6</ele>
        <time>2020-06-30T10:14:29Z</time>
      </trkpt>
      <trkpt lat="43.06591" lon="0.42422">
        <ele>504.8</ele>
        <time>2020-06-30T10:14:30Z</time>
      </trkpt>
      <trkpt lat="43.06591" lon="0.42419">
        <ele>504.8</ele>
        <time>2020-06-30T10:14:31Z</time>
      </trkpt>
      <trkpt lat="43.0659" lon="0.42416">
        <ele>504.8</ele>
        <time>2020-06-30T10:14:32Z</time>
      </trkpt>
      <trkpt lat="43.06589" lon="0.42413">
        <ele>504.8</ele>
        <time>2020-06-30T10:14:33Z</time>
      </trkpt>
      <trkpt lat="43.06591" lon="0.42412">
        <ele>505</ele>
        <time>2020-06-30T10:14:34Z</time>
      </trkpt>
      <trkpt lat="43.06589" lon="0.42408">
        <ele>505</ele>
        <time>2020-06-30T10:14:35Z</time>
      </trkpt>
      <trkpt lat="43.06591" lon="0.42408">
        <ele>505</ele>
        <time>2020-06-30T10:14:36Z</time>
      </trkpt>
      <trkpt lat="43.06592" lon="0.42408">
        <ele>505.2</ele>
        <time>2020-06-30T10:14:37Z</time>
      </trkpt>
      <trkpt lat="43.06592" lon="0.42405">
        <ele>505.2</ele>
        <time>2020-06-30T10:14:38Z</time>
      </trkpt>
      <trkpt lat="43.06591" lon="0.42404">
        <ele>505.2</ele>
        <time>2020-06-30T10:14:39Z</time>
      </trkpt>
      <trkpt lat="43.06591" lon="0.42401">
        <ele>505.4</ele>
        <time>2020-06-30T10:14:40Z</time>
      </trkpt>
      <trkpt lat="43.0659" lon="0.424">
        <ele>505.4</ele>
        <time>2020-06-30T10:14:41Z</time>
      </trkpt>
      <trkpt lat="43.06591" lon="0.42398">
        <ele>505.6</ele>
        <time>2020-06-30T10:14:42Z</time>
      </trkpt>
      <trkpt lat="43.06589" lon="0.42396">
        <ele>505.6</ele>
        <time>2020-06-30T10:14:43Z</time>
      </trkpt>
      <trkpt lat="43.06586" lon="0.42392">
        <ele>505.8</ele>
        <time>2020-06-30T10:14:44Z</time>
      </trkpt>
      <trkpt lat="43.06586" lon="0.4239">
        <ele>505.8</ele>
        <time>2020-06-30T10:14:45Z</time>
      </trkpt>
      <trkpt lat="43.06586" lon="0.42388">
        <ele>506</ele>
        <time>2020-06-30T10:14:46Z</time>
      </trkpt>
      <trkpt lat="43.06585" lon="0.42387">
        <ele>506.2</ele>
        <time>2020-06-30T10:14:47Z</time>
      </trkpt>
      <trkpt lat="43.06585" lon="0.42385">
        <ele>506.2</ele>
        <time>2020-06-30T10:14:48Z</time>
      </trkpt>
      <trkpt lat="43.06586" lon="0.42385">
        <ele>506.2</ele>
        <time>2020-06-30T10:14:49Z</time>
      </trkpt>
      <trkpt lat="43.06587" lon="0.42384">
        <ele>506.2</ele>
        <time>2020-06-30T10:14:50Z</time>
      </trkpt>
      <trkpt lat="43.06588" lon="0.42384">
        <ele>506.2</ele>
        <time>2020-06-30T10:14:51Z</time>
      </trkpt>
      <trkpt lat="43.06589" lon="0.42385">
        <ele>506.2</ele>
        <time>2020-06-30T10:14:52Z</time>
      </trkpt>
      <trkpt lat="43.0659" lon="0.42385">
        <ele>506.2</ele>
        <time>2020-06-30T10:14:53Z</time>
      </trkpt>
      <trkpt lat="43.06589" lon="0.42385">
        <ele>506.2</ele>
        <time>2020-06-30T10:14:54Z</time>
      </trkpt>
      <trkpt lat="43.06589" lon="0.42384">
        <ele>506.2</ele>
        <time>2020-06-30T10:14:55Z</time>
      </trkpt>
      <trkpt lat="43.06589" lon="0.42383">
        <ele>506.2</ele>
        <time>2020-06-30T10:14:56Z</time>
      </trkpt>
      <trkpt lat="43.06589" lon="0.42383">
        <ele>506.2</ele>
        <time>2020-06-30T10:14:57Z</time>
      </trkpt>
      <trkpt lat="43.06588" lon="0.42383">
        <ele>506.4</ele>
        <time>2020-06-30T10:14:58Z</time>
      </trkpt>
      <trkpt lat="43.06589" lon="0.42383">
        <ele>506.4</ele>
        <time>2020-06-30T10:14:59Z</time>
      </trkpt>
      <trkpt lat="43.0659" lon="0.42383">
        <ele>506.4</ele>
        <time>2020-06-30T10:15:00Z</time>
      </trkpt>
      <trkpt lat="43.06591" lon="0.42385">
        <ele>506.4</ele>
        <time>2020-06-30T10:15:01Z</time>
      </trkpt>
      <trkpt lat="43.06592" lon="0.42385">
        <ele>506.4</ele>
        <time>2020-06-30T10:15:02Z</time>
      </trkpt>
      <trkpt lat="43.06594" lon="0.42386">
        <ele>506.4</ele>
        <time>2020-06-30T10:15:03Z</time>
      </trkpt>
      <trkpt lat="43.06595" lon="0.42385">
        <ele>506.2</ele>
        <time>2020-06-30T10:15:04Z</time>
      </trkpt>
      <trkpt lat="43.06595" lon="0.42385">
        <ele>506.4</ele>
        <time>2020-06-30T10:15:05Z</time>
      </trkpt>
      <trkpt lat="43.06594" lon="0.42384">
        <ele>506.4</ele>
        <time>2020-06-30T10:15:06Z</time>
      </trkpt>
      <trkpt lat="43.06594" lon="0.42383">
        <ele>506.4</ele>
        <time>2020-06-30T10:15:07Z</time>
      </trkpt>
      <trkpt lat="43.06594" lon="0.42382">
        <ele>506.4</ele>
        <time>2020-06-30T10:15:08Z</time>
      </trkpt>
      <trkpt lat="43.06595" lon="0.4238">
        <ele>506.4</ele>
        <time>2020-06-30T10:15:09Z</time>
      </trkpt>
      <trkpt lat="43.06595" lon="0.42379">
        <ele>506.4</ele>
        <time>2020-06-30T10:15:10Z</time>
      </trkpt>
      <trkpt lat="43.06594" lon="0.42377">
        <ele>506.4</ele>
        <time>2020-06-30T10:15:11Z</time>
      </trkpt>
      <trkpt lat="43.06595" lon="0.42377">
        <ele>506.4</ele>
        <time>2020-06-30T10:15:12Z</time>
      </trkpt>
      <trkpt lat="43.06595" lon="0.42374">
        <ele>506.4</ele>
        <time>2020-06-30T10:15:13Z</time>
      </trkpt>
      <trkpt lat="43.06596" lon="0.42374">
        <ele>506.4</ele>
        <time>2020-06-30T10:15:14Z</time>
      </trkpt>
      <trkpt lat="43.06596" lon="0.42373">
        <ele>506.4</ele>
        <time>2020-06-30T10:15:15Z</time>
      </trkpt>
      <trkpt lat="43.06596" lon="0.42371">
        <ele>506.4</ele>
        <time>2020-06-30T10:15:16Z</time>
      </trkpt>
      <trkpt lat="43.06598" lon="0.4237">
        <ele>506.4</ele>
        <time>2020-06-30T10:15:17Z</time>
      </trkpt>
      <trkpt lat="43.06598" lon="0.42368">
        <ele>506.4</ele>
        <time>2020-06-30T10:15:18Z</time>
      </trkpt>
      <trkpt lat="43.066" lon="0.42367">
        <ele>506.4</ele>
        <time>2020-06-30T10:15:19Z</time>
      </trkpt>
      <trkpt lat="43.06601" lon="0.42367">
        <ele>506.6</ele>
        <time>2020-06-30T10:15:20Z</time>
      </trkpt>
      <trkpt lat="43.06602" lon="0.42367">
        <ele>506.6</ele>
        <time>2020-06-30T10:15:21Z</time>
      </trkpt>
      <trkpt lat="43.06602" lon="0.42366">
        <ele>506.6</ele>
        <time>2020-06-30T10:15:22Z</time>
      </trkpt>
      <trkpt lat="43.06603" lon="0.42365">
        <ele>506.4</ele>
        <time>2020-06-30T10:15:23Z</time>
      </trkpt>
      <trkpt lat="43.06602" lon="0.42362">
        <ele>506.6</ele>
        <time>2020-06-30T10:15:24Z</time>
      </trkpt>
      <trkpt lat="43.06601" lon="0.42359">
        <ele>506.4</ele>
        <time>2020-06-30T10:15:25Z</time>
      </trkpt>
      <trkpt lat="43.06602" lon="0.42358">
        <ele>506.4</ele>
        <time>2020-06-30T10:15:26Z</time>
      </trkpt>
      <trkpt lat="43.06602" lon="0.42357">
        <ele>506.6</ele>
        <time>2020-06-30T10:15:27Z</time>
      </trkpt>
      <trkpt lat="43.06602" lon="0.42356">
        <ele>506.6</ele>
        <time>2020-06-30T10:15:28Z</time>
      </trkpt>
      <trkpt lat="43.06602" lon="0.42354">
        <ele>506.6</ele>
        <time>2020-06-30T10:15:29Z</time>
      </trkpt>
      <trkpt lat="43.06603" lon="0.42353">
        <ele>506.6</ele>
        <time>2020-06-30T10:15:30Z</time>
      </trkpt>
      <trkpt lat="43.06603" lon="0.42353">
        <ele>506.6</ele>
        <time>2020-06-30T10:15:31Z</time>
      </trkpt>
      <trkpt lat="43.06603" lon="0.42349">
        <ele>506.6</ele>
        <time>2020-06-30T10:15:32Z</time>
      </trkpt>
      <trkpt lat="43.06603" lon="0.42347">
        <ele>506.6</ele>
        <time>2020-06-30T10:15:33Z</time>
      </trkpt>
      <trkpt lat="43.06604" lon="0.42346">
        <ele>506.6</ele>
        <time>2020-06-30T10:15:34Z</time>
      </trkpt>
      <trkpt lat="43.06604" lon="0.42345">
        <ele>506.6</ele>
        <time>2020-06-30T10:15:35Z</time>
      </trkpt>
      <trkpt lat="43.06604" lon="0.42345">
        <ele>506.6</ele>
        <time>2020-06-30T10:15:36Z</time>
      </trkpt>
      <trkpt lat="43.06604" lon="0.42343">
        <ele>506.6</ele>
        <time>2020-06-30T10:15:37Z</time>
      </trkpt>
      <trkpt lat="43.06605" lon="0.42342">
        <ele>506.6</ele>
        <time>2020-06-30T10:15:38Z</time>
      </trkpt>
      <trkpt lat="43.06605" lon="0.42338">
        <ele>506.6</ele>
        <time>2020-06-30T10:15:39Z</time>
      </trkpt>
      <trkpt lat="43.06606" lon="0.4234">
        <ele>506.6</ele>
        <time>2020-06-30T10:15:40Z</time>
      </trkpt>
      <trkpt lat="43.06606" lon="0.42337">
        <ele>506.6</ele>
        <time>2020-06-30T10:15:41Z</time>
      </trkpt>
      <trkpt lat="43.06607" lon="0.42336">
        <ele>506.6</ele>
        <time>2020-06-30T10:15:42Z</time>
      </trkpt>
      <trkpt lat="43.06608" lon="0.42335">
        <ele>506.6</ele>
        <time>2020-06-30T10:15:43Z</time>
      </trkpt>
      <trkpt lat="43.06608" lon="0.42333">
        <ele>506.6</ele>
        <time>2020-06-30T10:15:44Z</time>
      </trkpt>
      <trkpt lat="43.06608" lon="0.4233">
        <ele>506.6</ele>
        <time>2020-06-30T10:15:45Z</time>
      </trkpt>
      <trkpt lat="43.06608" lon="0.42328">
        <ele>506.6</ele>
        <time>2020-06-30T10:15:46Z</time>
      </trkpt>
      <trkpt lat="43.06608" lon="0.42326">
        <ele>506.8</ele>
        <time>2020-06-30T10:15:47Z</time>
      </trkpt>
      <trkpt lat="43.06608" lon="0.42326">
        <ele>506.6</ele>
        <time>2020-06-30T10:15:48Z</time>
      </trkpt>
      <trkpt lat="43.06608" lon="0.42325">
        <ele>506.6</ele>
        <time>2020-06-30T10:15:49Z</time>
      </trkpt>
      <trkpt lat="43.06608" lon="0.42323">
        <ele>506.6</ele>
        <time>2020-06-30T10:15:50Z</time>
      </trkpt>
      <trkpt lat="43.0661" lon="0.42322">
        <ele>506.6</ele>
        <time>2020-06-30T10:15:51Z</time>
      </trkpt>
      <trkpt lat="43.0661" lon="0.42318">
        <ele>506.6</ele>
        <time>2020-06-30T10:15:52Z</time>
      </trkpt>
      <trkpt lat="43.06609" lon="0.42316">
        <ele>506.6</ele>
        <time>2020-06-30T10:15:53Z</time>
      </trkpt>
      <trkpt lat="43.06609" lon="0.42314">
        <ele>506.6</ele>
        <time>2020-06-30T10:15:54Z</time>
      </trkpt>
      <trkpt lat="43.06609" lon="0.42313">
        <ele>506.6</ele>
        <time>2020-06-30T10:15:55Z</time>
      </trkpt>
      <trkpt lat="43.0661" lon="0.42312">
        <ele>506.4</ele>
        <time>2020-06-30T10:15:56Z</time>
      </trkpt>
      <trkpt lat="43.0661" lon="0.42309">
        <ele>506.6</ele>
        <time>2020-06-30T10:15:57Z</time>
      </trkpt>
      <trkpt lat="43.0661" lon="0.42309">
        <ele>506.6</ele>
        <time>2020-06-30T10:15:58Z</time>
      </trkpt>
      <trkpt lat="43.0661" lon="0.42308">
        <ele>506.6</ele>
        <time>2020-06-30T10:15:59Z</time>
      </trkpt>
      <trkpt lat="43.06609" lon="0.42307">
        <ele>506.6</ele>
        <time>2020-06-30T10:16:00Z</time>
      </trkpt>
      <trkpt lat="43.06611" lon="0.42306">
        <ele>506.6</ele>
        <time>2020-06-30T10:16:01Z</time>
      </trkpt>
      <trkpt lat="43.06611" lon="0.42304">
        <ele>506.8</ele>
        <time>2020-06-30T10:16:02Z</time>
      </trkpt>
      <trkpt lat="43.06612" lon="0.42303">
        <ele>506.6</ele>
        <time>2020-06-30T10:16:03Z</time>
      </trkpt>
      <trkpt lat="43.06612" lon="0.42301">
        <ele>506.6</ele>
        <time>2020-06-30T10:16:04Z</time>
      </trkpt>
      <trkpt lat="43.06612" lon="0.42299">
        <ele>506.6</ele>
        <time>2020-06-30T10:16:05Z</time>
      </trkpt>
      <trkpt lat="43.06612" lon="0.42298">
        <ele>506.4</ele>
        <time>2020-06-30T10:16:06Z</time>
      </trkpt>
      <trkpt lat="43.06612" lon="0.42296">
        <ele>506.6</ele>
        <time>2020-06-30T10:16:07Z</time>
      </trkpt>
      <trkpt lat="43.06613" lon="0.42296">
        <ele>506.6</ele>
        <time>2020-06-30T10:16:08Z</time>
      </trkpt>
      <trkpt lat="43.06612" lon="0.42293">
        <ele>506.6</ele>
        <time>2020-06-30T10:16:09Z</time>
      </trkpt>
      <trkpt lat="43.06612" lon="0.42293">
        <ele>506.6</ele>
        <time>2020-06-30T10:16:10Z</time>
      </trkpt>
      <trkpt lat="43.06612" lon="0.42294">
        <ele>506.6</ele>
        <time>2020-06-30T10:16:11Z</time>
      </trkpt>
      <trkpt lat="43.06612" lon="0.42292">
        <ele>506.6</ele>
        <time>2020-06-30T10:16:12Z</time>
      </trkpt>
      <trkpt lat="43.06612" lon="0.42293">
        <ele>506.6</ele>
        <time>2020-06-30T10:16:13Z</time>
      </trkpt>
      <trkpt lat="43.06612" lon="0.42293">
        <ele>506.4</ele>
        <time>2020-06-30T10:16:14Z</time>
      </trkpt>
      <trkpt lat="43.06613" lon="0.42292">
        <ele>506.6</ele>
        <time>2020-06-30T10:16:15Z</time>
      </trkpt>
      <trkpt lat="43.06613" lon="0.42293">
        <ele>506.6</ele>
        <time>2020-06-30T10:16:16Z</time>
      </trkpt>
      <trkpt lat="43.06612" lon="0.42293">
        <ele>506.6</ele>
        <time>2020-06-30T10:16:17Z</time>
      </trkpt>
      <trkpt lat="43.06613" lon="0.42294">
        <ele>506.6</ele>
        <time>2020-06-30T10:16:18Z</time>
      </trkpt>
      <trkpt lat="43.06613" lon="0.42294">
        <ele>506.6</ele>
        <time>2020-06-30T10:16:19Z</time>
      </trkpt>
      <trkpt lat="43.06612" lon="0.42294">
        <ele>506.6</ele>
        <time>2020-06-30T10:16:20Z</time>
      </trkpt>
      <trkpt lat="43.06613" lon="0.42295">
        <ele>506.6</ele>
        <time>2020-06-30T10:16:21Z</time>
      </trkpt>
      <trkpt lat="43.06614" lon="0.42294">
        <ele>506.6</ele>
        <time>2020-06-30T10:16:22Z</time>
      </trkpt>
      <trkpt lat="43.06614" lon="0.42295">
        <ele>506.6</ele>
        <time>2020-06-30T10:16:23Z</time>
      </trkpt>
      <trkpt lat="43.06613" lon="0.42296">
        <ele>506.6</ele>
        <time>2020-06-30T10:16:24Z</time>
      </trkpt>
      <trkpt lat="43.06614" lon="0.42295">
        <ele>506.6</ele>
        <time>2020-06-30T10:16:27Z</time>
      </trkpt>
      <trkpt lat="43.06614" lon="0.42294">
        <ele>506.6</ele>
        <time>2020-06-30T10:16:28Z</time>
      </trkpt>
      <trkpt lat="43.06615" lon="0.42291">
        <ele>506.6</ele>
        <time>2020-06-30T10:16:29Z</time>
      </trkpt>
      <trkpt lat="43.06614" lon="0.4229">
        <ele>506.6</ele>
        <time>2020-06-30T10:16:30Z</time>
      </trkpt>
      <trkpt lat="43.06616" lon="0.42287">
        <ele>506.6</ele>
        <time>2020-06-30T10:16:31Z</time>
      </trkpt>
      <trkpt lat="43.06616" lon="0.42285">
        <ele>506.6</ele>
        <time>2020-06-30T10:16:32Z</time>
      </trkpt>
      <trkpt lat="43.06617" lon="0.42282">
        <ele>506.6</ele>
        <time>2020-06-30T10:16:33Z</time>
      </trkpt>
      <trkpt lat="43.06618" lon="0.42281">
        <ele>506.6</ele>
        <time>2020-06-30T10:16:34Z</time>
      </trkpt>
      <trkpt lat="43.06618" lon="0.4228">
        <ele>506.8</ele>
        <time>2020-06-30T10:16:35Z</time>
      </trkpt>
      <trkpt lat="43.0662" lon="0.42276">
        <ele>506.8</ele>
        <time>2020-06-30T10:16:36Z</time>
      </trkpt>
      <trkpt lat="43.0662" lon="0.42274">
        <ele>506.8</ele>
        <time>2020-06-30T10:16:37Z</time>
      </trkpt>
      <trkpt lat="43.06621" lon="0.42273">
        <ele>506.8</ele>
        <time>2020-06-30T10:16:38Z</time>
      </trkpt>
      <trkpt lat="43.06621" lon="0.42269">
        <ele>506.8</ele>
        <time>2020-06-30T10:16:39Z</time>
      </trkpt>
      <trkpt lat="43.06622" lon="0.42266">
        <ele>506.8</ele>
        <time>2020-06-30T10:16:40Z</time>
      </trkpt>
      <trkpt lat="43.06622" lon="0.42263">
        <ele>506.8</ele>
        <time>2020-06-30T10:16:41Z</time>
      </trkpt>
      <trkpt lat="43.06623" lon="0.42259">
        <ele>506.8</ele>
        <time>2020-06-30T10:16:42Z</time>
      </trkpt>
      <trkpt lat="43.06624" lon="0.42255">
        <ele>507</ele>
        <time>2020-06-30T10:16:43Z</time>
      </trkpt>
      <trkpt lat="43.06624" lon="0.42251">
        <ele>506.8</ele>
        <time>2020-06-30T10:16:44Z</time>
      </trkpt>
      <trkpt lat="43.06625" lon="0.42248">
        <ele>507</ele>
        <time>2020-06-30T10:16:45Z</time>
      </trkpt>
      <trkpt lat="43.06625" lon="0.42246">
        <ele>507</ele>
        <time>2020-06-30T10:16:46Z</time>
      </trkpt>
      <trkpt lat="43.06626" lon="0.42244">
        <ele>507</ele>
        <time>2020-06-30T10:16:47Z</time>
      </trkpt>
      <trkpt lat="43.06627" lon="0.42242">
        <ele>507</ele>
        <time>2020-06-30T10:16:48Z</time>
      </trkpt>
      <trkpt lat="43.06627" lon="0.4224">
        <ele>507</ele>
        <time>2020-06-30T10:16:49Z</time>
      </trkpt>
      <trkpt lat="43.06627" lon="0.42237">
        <ele>507</ele>
        <time>2020-06-30T10:16:50Z</time>
      </trkpt>
      <trkpt lat="43.06628" lon="0.42232">
        <ele>507.2</ele>
        <time>2020-06-30T10:16:51Z</time>
      </trkpt>
      <trkpt lat="43.06628" lon="0.42228">
        <ele>507.2</ele>
        <time>2020-06-30T10:16:52Z</time>
      </trkpt>
      <trkpt lat="43.06629" lon="0.42225">
        <ele>507.2</ele>
        <time>2020-06-30T10:16:53Z</time>
      </trkpt>
      <trkpt lat="43.06629" lon="0.42223">
        <ele>507.2</ele>
        <time>2020-06-30T10:16:54Z</time>
      </trkpt>
      <trkpt lat="43.06629" lon="0.42218">
        <ele>507.2</ele>
        <time>2020-06-30T10:16:55Z</time>
      </trkpt>
      <trkpt lat="43.0663" lon="0.42215">
        <ele>507.2</ele>
        <time>2020-06-30T10:16:56Z</time>
      </trkpt>
      <trkpt lat="43.06631" lon="0.42213">
        <ele>507.2</ele>
        <time>2020-06-30T10:16:57Z</time>
      </trkpt>
      <trkpt lat="43.06631" lon="0.4221">
        <ele>507.2</ele>
        <time>2020-06-30T10:16:58Z</time>
      </trkpt>
      <trkpt lat="43.06631" lon="0.42207">
        <ele>507.4</ele>
        <time>2020-06-30T10:16:59Z</time>
      </trkpt>
      <trkpt lat="43.06632" lon="0.42205">
        <ele>507.4</ele>
        <time>2020-06-30T10:17:00Z</time>
      </trkpt>
      <trkpt lat="43.06633" lon="0.42201">
        <ele>507.4</ele>
        <time>2020-06-30T10:17:01Z</time>
      </trkpt>
      <trkpt lat="43.06633" lon="0.42198">
        <ele>507.4</ele>
        <time>2020-06-30T10:17:02Z</time>
      </trkpt>
      <trkpt lat="43.06634" lon="0.42195">
        <ele>507.6</ele>
        <time>2020-06-30T10:17:03Z</time>
      </trkpt>
      <trkpt lat="43.06635" lon="0.4219">
        <ele>507.6</ele>
        <time>2020-06-30T10:17:04Z</time>
      </trkpt>
      <trkpt lat="43.06635" lon="0.42188">
        <ele>507.6</ele>
        <time>2020-06-30T10:17:05Z</time>
      </trkpt>
      <trkpt lat="43.06636" lon="0.42187">
        <ele>507.6</ele>
        <time>2020-06-30T10:17:06Z</time>
      </trkpt>
      <trkpt lat="43.06637" lon="0.42183">
        <ele>507.6</ele>
        <time>2020-06-30T10:17:07Z</time>
      </trkpt>
      <trkpt lat="43.06638" lon="0.42182">
        <ele>507.6</ele>
        <time>2020-06-30T10:17:08Z</time>
      </trkpt>
      <trkpt lat="43.06639" lon="0.4218">
        <ele>507.6</ele>
        <time>2020-06-30T10:17:09Z</time>
      </trkpt>
      <trkpt lat="43.06639" lon="0.42176">
        <ele>507.6</ele>
        <time>2020-06-30T10:17:10Z</time>
      </trkpt>
      <trkpt lat="43.0664" lon="0.42173">
        <ele>507.8</ele>
        <time>2020-06-30T10:17:11Z</time>
      </trkpt>
      <trkpt lat="43.06641" lon="0.4217">
        <ele>507.8</ele>
        <time>2020-06-30T10:17:12Z</time>
      </trkpt>
      <trkpt lat="43.06642" lon="0.42166">
        <ele>507.8</ele>
        <time>2020-06-30T10:17:13Z</time>
      </trkpt>
      <trkpt lat="43.06642" lon="0.42164">
        <ele>507.8</ele>
        <time>2020-06-30T10:17:14Z</time>
      </trkpt>
      <trkpt lat="43.06642" lon="0.42161">
        <ele>508</ele>
        <time>2020-06-30T10:17:15Z</time>
      </trkpt>
      <trkpt lat="43.06643" lon="0.42158">
        <ele>508</ele>
        <time>2020-06-30T10:17:16Z</time>
      </trkpt>
      <trkpt lat="43.06644" lon="0.42155">
        <ele>508</ele>
        <time>2020-06-30T10:17:17Z</time>
      </trkpt>
      <trkpt lat="43.06644" lon="0.42151">
        <ele>508</ele>
        <time>2020-06-30T10:17:18Z</time>
      </trkpt>
      <trkpt lat="43.06646" lon="0.42149">
        <ele>508</ele>
        <time>2020-06-30T10:17:19Z</time>
      </trkpt>
      <trkpt lat="43.06647" lon="0.42147">
        <ele>508</ele>
        <time>2020-06-30T10:17:20Z</time>
      </trkpt>
      <trkpt lat="43.06648" lon="0.42144">
        <ele>508</ele>
        <time>2020-06-30T10:17:21Z</time>
      </trkpt>
      <trkpt lat="43.06649" lon="0.4214">
        <ele>508.2</ele>
        <time>2020-06-30T10:17:22Z</time>
      </trkpt>
      <trkpt lat="43.06649" lon="0.42137">
        <ele>508</ele>
        <time>2020-06-30T10:17:23Z</time>
      </trkpt>
      <trkpt lat="43.06649" lon="0.42134">
        <ele>508.2</ele>
        <time>2020-06-30T10:17:24Z</time>
      </trkpt>
      <trkpt lat="43.0665" lon="0.4213">
        <ele>508.2</ele>
        <time>2020-06-30T10:17:25Z</time>
      </trkpt>
      <trkpt lat="43.06651" lon="0.42126">
        <ele>508.2</ele>
        <time>2020-06-30T10:17:26Z</time>
      </trkpt>
      <trkpt lat="43.06652" lon="0.42124">
        <ele>508.2</ele>
        <time>2020-06-30T10:17:27Z</time>
      </trkpt>
      <trkpt lat="43.06652" lon="0.4212">
        <ele>508.4</ele>
        <time>2020-06-30T10:17:28Z</time>
      </trkpt>
      <trkpt lat="43.06653" lon="0.42116">
        <ele>508.4</ele>
        <time>2020-06-30T10:17:29Z</time>
      </trkpt>
      <trkpt lat="43.06653" lon="0.42113">
        <ele>508.4</ele>
        <time>2020-06-30T10:17:30Z</time>
      </trkpt>
      <trkpt lat="43.06653" lon="0.42108">
        <ele>508.4</ele>
        <time>2020-06-30T10:17:31Z</time>
      </trkpt>
      <trkpt lat="43.06653" lon="0.42106">
        <ele>508.6</ele>
        <time>2020-06-30T10:17:32Z</time>
      </trkpt>
      <trkpt lat="43.06655" lon="0.42105">
        <ele>508.6</ele>
        <time>2020-06-30T10:17:33Z</time>
      </trkpt>
      <trkpt lat="43.06655" lon="0.42103">
        <ele>508.6</ele>
        <time>2020-06-30T10:17:34Z</time>
      </trkpt>
      <trkpt lat="43.06656" lon="0.421">
        <ele>508.6</ele>
        <time>2020-06-30T10:17:35Z</time>
      </trkpt>
      <trkpt lat="43.06656" lon="0.42098">
        <ele>508.6</ele>
        <time>2020-06-30T10:17:36Z</time>
      </trkpt>
      <trkpt lat="43.06657" lon="0.42094">
        <ele>508.8</ele>
        <time>2020-06-30T10:17:37Z</time>
      </trkpt>
      <trkpt lat="43.06658" lon="0.42091">
        <ele>508.8</ele>
        <time>2020-06-30T10:17:38Z</time>
      </trkpt>
      <trkpt lat="43.06657" lon="0.42087">
        <ele>508.8</ele>
        <time>2020-06-30T10:17:39Z</time>
      </trkpt>
      <trkpt lat="43.06658" lon="0.42084">
        <ele>508.8</ele>
        <time>2020-06-30T10:17:40Z</time>
      </trkpt>
      <trkpt lat="43.06658" lon="0.42082">
        <ele>509</ele>
        <time>2020-06-30T10:17:41Z</time>
      </trkpt>
      <trkpt lat="43.06658" lon="0.42079">
        <ele>509</ele>
        <time>2020-06-30T10:17:42Z</time>
      </trkpt>
      <trkpt lat="43.0666" lon="0.42076">
        <ele>509.2</ele>
        <time>2020-06-30T10:17:43Z</time>
      </trkpt>
      <trkpt lat="43.0666" lon="0.42073">
        <ele>509.2</ele>
        <time>2020-06-30T10:17:44Z</time>
      </trkpt>
      <trkpt lat="43.06661" lon="0.42071">
        <ele>509.2</ele>
        <time>2020-06-30T10:17:45Z</time>
      </trkpt>
      <trkpt lat="43.06662" lon="0.42067">
        <ele>509.2</ele>
        <time>2020-06-30T10:17:46Z</time>
      </trkpt>
      <trkpt lat="43.06664" lon="0.42064">
        <ele>509.2</ele>
        <time>2020-06-30T10:17:47Z</time>
      </trkpt>
      <trkpt lat="43.06664" lon="0.42061">
        <ele>509.4</ele>
        <time>2020-06-30T10:17:48Z</time>
      </trkpt>
      <trkpt lat="43.06665" lon="0.42059">
        <ele>509.4</ele>
        <time>2020-06-30T10:17:49Z</time>
      </trkpt>
      <trkpt lat="43.06665" lon="0.42056">
        <ele>509.4</ele>
        <time>2020-06-30T10:17:50Z</time>
      </trkpt>
      <trkpt lat="43.06665" lon="0.42052">
        <ele>509.6</ele>
        <time>2020-06-30T10:17:51Z</time>
      </trkpt>
      <trkpt lat="43.06665" lon="0.42048">
        <ele>509.6</ele>
        <time>2020-06-30T10:17:52Z</time>
      </trkpt>
      <trkpt lat="43.06664" lon="0.42045">
        <ele>509.6</ele>
        <time>2020-06-30T10:17:53Z</time>
      </trkpt>
      <trkpt lat="43.06665" lon="0.42042">
        <ele>509.8</ele>
        <time>2020-06-30T10:17:54Z</time>
      </trkpt>
      <trkpt lat="43.06665" lon="0.42038">
        <ele>509.8</ele>
        <time>2020-06-30T10:17:55Z</time>
      </trkpt>
      <trkpt lat="43.06666" lon="0.42036">
        <ele>509.8</ele>
        <time>2020-06-30T10:17:56Z</time>
      </trkpt>
      <trkpt lat="43.06667" lon="0.42032">
        <ele>509.8</ele>
        <time>2020-06-30T10:17:57Z</time>
      </trkpt>
      <trkpt lat="43.06667" lon="0.42029">
        <ele>510</ele>
        <time>2020-06-30T10:17:58Z</time>
      </trkpt>
      <trkpt lat="43.06668" lon="0.42026">
        <ele>510</ele>
        <time>2020-06-30T10:17:59Z</time>
      </trkpt>
      <trkpt lat="43.06668" lon="0.42024">
        <ele>510.2</ele>
        <time>2020-06-30T10:18:00Z</time>
      </trkpt>
      <trkpt lat="43.06668" lon="0.42022">
        <ele>510.2</ele>
        <time>2020-06-30T10:18:01Z</time>
      </trkpt>
      <trkpt lat="43.06669" lon="0.42019">
        <ele>510.2</ele>
        <time>2020-06-30T10:18:02Z</time>
      </trkpt>
      <trkpt lat="43.06669" lon="0.42017">
        <ele>510.2</ele>
        <time>2020-06-30T10:18:03Z</time>
      </trkpt>
      <trkpt lat="43.0667" lon="0.42014">
        <ele>510.4</ele>
        <time>2020-06-30T10:18:04Z</time>
      </trkpt>
      <trkpt lat="43.0667" lon="0.42011">
        <ele>510.4</ele>
        <time>2020-06-30T10:18:05Z</time>
      </trkpt>
      <trkpt lat="43.0667" lon="0.42008">
        <ele>510.6</ele>
        <time>2020-06-30T10:18:06Z</time>
      </trkpt>
      <trkpt lat="43.06671" lon="0.42006">
        <ele>510.6</ele>
        <time>2020-06-30T10:18:07Z</time>
      </trkpt>
      <trkpt lat="43.06672" lon="0.42003">
        <ele>510.6</ele>
        <time>2020-06-30T10:18:08Z</time>
      </trkpt>
      <trkpt lat="43.06671" lon="0.42">
        <ele>510.8</ele>
        <time>2020-06-30T10:18:09Z</time>
      </trkpt>
      <trkpt lat="43.06671" lon="0.41998">
        <ele>511</ele>
        <time>2020-06-30T10:18:10Z</time>
      </trkpt>
      <trkpt lat="43.06672" lon="0.41996">
        <ele>511</ele>
        <time>2020-06-30T10:18:11Z</time>
      </trkpt>
      <trkpt lat="43.06671" lon="0.41994">
        <ele>511.2</ele>
        <time>2020-06-30T10:18:12Z</time>
      </trkpt>
      <trkpt lat="43.0667" lon="0.41993">
        <ele>511.2</ele>
        <time>2020-06-30T10:18:13Z</time>
      </trkpt>
      <trkpt lat="43.06671" lon="0.4199">
        <ele>511.2</ele>
        <time>2020-06-30T10:18:14Z</time>
      </trkpt>
      <trkpt lat="43.0667" lon="0.41988">
        <ele>511.2</ele>
        <time>2020-06-30T10:18:15Z</time>
      </trkpt>
      <trkpt lat="43.0667" lon="0.41986">
        <ele>511.4</ele>
        <time>2020-06-30T10:18:16Z</time>
      </trkpt>
      <trkpt lat="43.06671" lon="0.41983">
        <ele>511.4</ele>
        <time>2020-06-30T10:18:17Z</time>
      </trkpt>
      <trkpt lat="43.06671" lon="0.4198">
        <ele>511.6</ele>
        <time>2020-06-30T10:18:18Z</time>
      </trkpt>
      <trkpt lat="43.06671" lon="0.41977">
        <ele>511.8</ele>
        <time>2020-06-30T10:18:19Z</time>
      </trkpt>
      <trkpt lat="43.06673" lon="0.41975">
        <ele>512</ele>
        <time>2020-06-30T10:18:20Z</time>
      </trkpt>
      <trkpt lat="43.06674" lon="0.41973">
        <ele>512</ele>
        <time>2020-06-30T10:18:21Z</time>
      </trkpt>
      <trkpt lat="43.06674" lon="0.41972">
        <ele>512.2</ele>
        <time>2020-06-30T10:18:22Z</time>
      </trkpt>
      <trkpt lat="43.06675" lon="0.4197">
        <ele>512.2</ele>
        <time>2020-06-30T10:18:23Z</time>
      </trkpt>
      <trkpt lat="43.06675" lon="0.41969">
        <ele>512.4</ele>
        <time>2020-06-30T10:18:24Z</time>
      </trkpt>
      <trkpt lat="43.06675" lon="0.41967">
        <ele>512.4</ele>
        <time>2020-06-30T10:18:25Z</time>
      </trkpt>
      <trkpt lat="43.06675" lon="0.41966">
        <ele>512.6</ele>
        <time>2020-06-30T10:18:26Z</time>
      </trkpt>
      <trkpt lat="43.06675" lon="0.41964">
        <ele>512.8</ele>
        <time>2020-06-30T10:18:27Z</time>
      </trkpt>
      <trkpt lat="43.06675" lon="0.41961">
        <ele>512.8</ele>
        <time>2020-06-30T10:18:28Z</time>
      </trkpt>
      <trkpt lat="43.06674" lon="0.41959">
        <ele>513</ele>
        <time>2020-06-30T10:18:29Z</time>
      </trkpt>
      <trkpt lat="43.06674" lon="0.41956">
        <ele>513</ele>
        <time>2020-06-30T10:18:30Z</time>
      </trkpt>
      <trkpt lat="43.06674" lon="0.41954">
        <ele>513.2</ele>
        <time>2020-06-30T10:18:31Z</time>
      </trkpt>
      <trkpt lat="43.06674" lon="0.41951">
        <ele>513.2</ele>
        <time>2020-06-30T10:18:32Z</time>
      </trkpt>
      <trkpt lat="43.06674" lon="0.41949">
        <ele>513.4</ele>
        <time>2020-06-30T10:18:33Z</time>
      </trkpt>
      <trkpt lat="43.06675" lon="0.41948">
        <ele>513.6</ele>
        <time>2020-06-30T10:18:34Z</time>
      </trkpt>
      <trkpt lat="43.06676" lon="0.41946">
        <ele>513.6</ele>
        <time>2020-06-30T10:18:35Z</time>
      </trkpt>
      <trkpt lat="43.06676" lon="0.41943">
        <ele>513.6</ele>
        <time>2020-06-30T10:18:36Z</time>
      </trkpt>
      <trkpt lat="43.06675" lon="0.41941">
        <ele>513.8</ele>
        <time>2020-06-30T10:18:37Z</time>
      </trkpt>
      <trkpt lat="43.06675" lon="0.41938">
        <ele>514</ele>
        <time>2020-06-30T10:18:38Z</time>
      </trkpt>
      <trkpt lat="43.06674" lon="0.41936">
        <ele>514</ele>
        <time>2020-06-30T10:18:39Z</time>
      </trkpt>
      <trkpt lat="43.06673" lon="0.41934">
        <ele>514</ele>
        <time>2020-06-30T10:18:40Z</time>
      </trkpt>
      <trkpt lat="43.06674" lon="0.41931">
        <ele>514.2</ele>
        <time>2020-06-30T10:18:41Z</time>
      </trkpt>
      <trkpt lat="43.06674" lon="0.41928">
        <ele>514.2</ele>
        <time>2020-06-30T10:18:42Z</time>
      </trkpt>
      <trkpt lat="43.06675" lon="0.41926">
        <ele>514.4</ele>
        <time>2020-06-30T10:18:43Z</time>
      </trkpt>
      <trkpt lat="43.06675" lon="0.41925">
        <ele>514.6</ele>
        <time>2020-06-30T10:18:44Z</time>
      </trkpt>
      <trkpt lat="43.06674" lon="0.41924">
        <ele>514.6</ele>
        <time>2020-06-30T10:18:45Z</time>
      </trkpt>
      <trkpt lat="43.06673" lon="0.41922">
        <ele>514.8</ele>
        <time>2020-06-30T10:18:46Z</time>
      </trkpt>
      <trkpt lat="43.06674" lon="0.4192">
        <ele>514.8</ele>
        <time>2020-06-30T10:18:47Z</time>
      </trkpt>
      <trkpt lat="43.06674" lon="0.41917">
        <ele>515</ele>
        <time>2020-06-30T10:18:48Z</time>
      </trkpt>
      <trkpt lat="43.06673" lon="0.41917">
        <ele>515</ele>
        <time>2020-06-30T10:18:49Z</time>
      </trkpt>
      <trkpt lat="43.06674" lon="0.41914">
        <ele>515.2</ele>
        <time>2020-06-30T10:18:50Z</time>
      </trkpt>
      <trkpt lat="43.06674" lon="0.41912">
        <ele>515.4</ele>
        <time>2020-06-30T10:18:51Z</time>
      </trkpt>
      <trkpt lat="43.06675" lon="0.4191">
        <ele>515.4</ele>
        <time>2020-06-30T10:18:52Z</time>
      </trkpt>
      <trkpt lat="43.06675" lon="0.41907">
        <ele>515.6</ele>
        <time>2020-06-30T10:18:53Z</time>
      </trkpt>
      <trkpt lat="43.06676" lon="0.41906">
        <ele>515.8</ele>
        <time>2020-06-30T10:18:54Z</time>
      </trkpt>
      <trkpt lat="43.06677" lon="0.41901">
        <ele>516</ele>
        <time>2020-06-30T10:18:55Z</time>
      </trkpt>
      <trkpt lat="43.06679" lon="0.419">
        <ele>516</ele>
        <time>2020-06-30T10:18:56Z</time>
      </trkpt>
      <trkpt lat="43.0668" lon="0.41898">
        <ele>516.2</ele>
        <time>2020-06-30T10:18:57Z</time>
      </trkpt>
      <trkpt lat="43.06681" lon="0.41897">
        <ele>516.4</ele>
        <time>2020-06-30T10:18:58Z</time>
      </trkpt>
      <trkpt lat="43.06682" lon="0.41896">
        <ele>516.4</ele>
        <time>2020-06-30T10:18:59Z</time>
      </trkpt>
      <trkpt lat="43.06681" lon="0.41895">
        <ele>516.6</ele>
        <time>2020-06-30T10:19:00Z</time>
      </trkpt>
      <trkpt lat="43.06681" lon="0.41893">
        <ele>516.8</ele>
        <time>2020-06-30T10:19:01Z</time>
      </trkpt>
      <trkpt lat="43.06681" lon="0.41892">
        <ele>516.8</ele>
        <time>2020-06-30T10:19:02Z</time>
      </trkpt>
      <trkpt lat="43.0668" lon="0.41891">
        <ele>517</ele>
        <time>2020-06-30T10:19:03Z</time>
      </trkpt>
      <trkpt lat="43.06679" lon="0.41888">
        <ele>517</ele>
        <time>2020-06-30T10:19:04Z</time>
      </trkpt>
      <trkpt lat="43.0668" lon="0.41888">
        <ele>517.2</ele>
        <time>2020-06-30T10:19:05Z</time>
      </trkpt>
      <trkpt lat="43.0668" lon="0.41884">
        <ele>517.4</ele>
        <time>2020-06-30T10:19:06Z</time>
      </trkpt>
      <trkpt lat="43.06679" lon="0.41885">
        <ele>517.6</ele>
        <time>2020-06-30T10:19:07Z</time>
      </trkpt>
      <trkpt lat="43.06678" lon="0.41881">
        <ele>517.6</ele>
        <time>2020-06-30T10:19:08Z</time>
      </trkpt>
      <trkpt lat="43.0668" lon="0.41879">
        <ele>517.8</ele>
        <time>2020-06-30T10:19:09Z</time>
      </trkpt>
      <trkpt lat="43.06681" lon="0.41879">
        <ele>517.8</ele>
        <time>2020-06-30T10:19:10Z</time>
      </trkpt>
      <trkpt lat="43.06683" lon="0.41877">
        <ele>518</ele>
        <time>2020-06-30T10:19:11Z</time>
      </trkpt>
      <trkpt lat="43.06684" lon="0.41877">
        <ele>518</ele>
        <time>2020-06-30T10:19:12Z</time>
      </trkpt>
      <trkpt lat="43.06686" lon="0.41876">
        <ele>518.2</ele>
        <time>2020-06-30T10:19:13Z</time>
      </trkpt>
      <trkpt lat="43.06687" lon="0.41875">
        <ele>518.2</ele>
        <time>2020-06-30T10:19:14Z</time>
      </trkpt>
      <trkpt lat="43.06688" lon="0.41871">
        <ele>518.2</ele>
        <time>2020-06-30T10:19:15Z</time>
      </trkpt>
      <trkpt lat="43.06689" lon="0.41868">
        <ele>518.4</ele>
        <time>2020-06-30T10:19:16Z</time>
      </trkpt>
      <trkpt lat="43.06689" lon="0.41867">
        <ele>518.4</ele>
        <time>2020-06-30T10:19:17Z</time>
      </trkpt>
      <trkpt lat="43.0669" lon="0.41864">
        <ele>518.4</ele>
        <time>2020-06-30T10:19:18Z</time>
      </trkpt>
      <trkpt lat="43.06691" lon="0.41862">
        <ele>518.4</ele>
        <time>2020-06-30T10:19:19Z</time>
      </trkpt>
      <trkpt lat="43.06691" lon="0.41861">
        <ele>518.6</ele>
        <time>2020-06-30T10:19:20Z</time>
      </trkpt>
      <trkpt lat="43.06692" lon="0.41859">
        <ele>518.6</ele>
        <time>2020-06-30T10:19:21Z</time>
      </trkpt>
      <trkpt lat="43.06693" lon="0.41859">
        <ele>518.6</ele>
        <time>2020-06-30T10:19:22Z</time>
      </trkpt>
      <trkpt lat="43.06694" lon="0.41858">
        <ele>518.6</ele>
        <time>2020-06-30T10:19:23Z</time>
      </trkpt>
      <trkpt lat="43.06692" lon="0.41856">
        <ele>518.6</ele>
        <time>2020-06-30T10:19:24Z</time>
      </trkpt>
      <trkpt lat="43.06694" lon="0.41852">
        <ele>518.8</ele>
        <time>2020-06-30T10:19:25Z</time>
      </trkpt>
      <trkpt lat="43.06695" lon="0.41851">
        <ele>518.8</ele>
        <time>2020-06-30T10:19:26Z</time>
      </trkpt>
      <trkpt lat="43.06696" lon="0.4185">
        <ele>518.8</ele>
        <time>2020-06-30T10:19:27Z</time>
      </trkpt>
      <trkpt lat="43.06697" lon="0.41847">
        <ele>518.8</ele>
        <time>2020-06-30T10:19:28Z</time>
      </trkpt>
      <trkpt lat="43.067" lon="0.41843">
        <ele>518.8</ele>
        <time>2020-06-30T10:19:29Z</time>
      </trkpt>
      <trkpt lat="43.06701" lon="0.41841">
        <ele>518.8</ele>
        <time>2020-06-30T10:19:30Z</time>
      </trkpt>
      <trkpt lat="43.06702" lon="0.41837">
        <ele>519</ele>
        <time>2020-06-30T10:19:31Z</time>
      </trkpt>
      <trkpt lat="43.06703" lon="0.41835">
        <ele>519</ele>
        <time>2020-06-30T10:19:32Z</time>
      </trkpt>
      <trkpt lat="43.06703" lon="0.41834">
        <ele>519</ele>
        <time>2020-06-30T10:19:33Z</time>
      </trkpt>
      <trkpt lat="43.06704" lon="0.41832">
        <ele>519</ele>
        <time>2020-06-30T10:19:34Z</time>
      </trkpt>
      <trkpt lat="43.06706" lon="0.4183">
        <ele>519</ele>
        <time>2020-06-30T10:19:35Z</time>
      </trkpt>
      <trkpt lat="43.06705" lon="0.41825">
        <ele>519.2</ele>
        <time>2020-06-30T10:19:36Z</time>
      </trkpt>
      <trkpt lat="43.06707" lon="0.41824">
        <ele>519.2</ele>
        <time>2020-06-30T10:19:37Z</time>
      </trkpt>
      <trkpt lat="43.0671" lon="0.41823">
        <ele>519.4</ele>
        <time>2020-06-30T10:19:38Z</time>
      </trkpt>
      <trkpt lat="43.06711" lon="0.41821">
        <ele>519.4</ele>
        <time>2020-06-30T10:19:39Z</time>
      </trkpt>
      <trkpt lat="43.06712" lon="0.4182">
        <ele>519.4</ele>
        <time>2020-06-30T10:19:40Z</time>
      </trkpt>
      <trkpt lat="43.06713" lon="0.41817">
        <ele>519.4</ele>
        <time>2020-06-30T10:19:41Z</time>
      </trkpt>
      <trkpt lat="43.06714" lon="0.41817">
        <ele>519.6</ele>
        <time>2020-06-30T10:19:42Z</time>
      </trkpt>
      <trkpt lat="43.06715" lon="0.41814">
        <ele>519.4</ele>
        <time>2020-06-30T10:19:43Z</time>
      </trkpt>
      <trkpt lat="43.06717" lon="0.41812">
        <ele>519.4</ele>
        <time>2020-06-30T10:19:44Z</time>
      </trkpt>
      <trkpt lat="43.06717" lon="0.41812">
        <ele>519.4</ele>
        <time>2020-06-30T10:19:45Z</time>
      </trkpt>
      <trkpt lat="43.06716" lon="0.41811">
        <ele>519.4</ele>
        <time>2020-06-30T10:19:46Z</time>
      </trkpt>
      <trkpt lat="43.06718" lon="0.41807">
        <ele>519.6</ele>
        <time>2020-06-30T10:19:47Z</time>
      </trkpt>
      <trkpt lat="43.0672" lon="0.41804">
        <ele>519.6</ele>
        <time>2020-06-30T10:19:48Z</time>
      </trkpt>
      <trkpt lat="43.06722" lon="0.418">
        <ele>519.6</ele>
        <time>2020-06-30T10:19:49Z</time>
      </trkpt>
      <trkpt lat="43.06724" lon="0.41798">
        <ele>519.6</ele>
        <time>2020-06-30T10:19:50Z</time>
      </trkpt>
      <trkpt lat="43.06725" lon="0.41795">
        <ele>519.8</ele>
        <time>2020-06-30T10:19:51Z</time>
      </trkpt>
      <trkpt lat="43.06725" lon="0.41793">
        <ele>519.8</ele>
        <time>2020-06-30T10:19:52Z</time>
      </trkpt>
      <trkpt lat="43.06728" lon="0.4179">
        <ele>519.8</ele>
        <time>2020-06-30T10:19:53Z</time>
      </trkpt>
      <trkpt lat="43.06729" lon="0.4179">
        <ele>519.8</ele>
        <time>2020-06-30T10:19:54Z</time>
      </trkpt>
      <trkpt lat="43.06731" lon="0.4179">
        <ele>519.8</ele>
        <time>2020-06-30T10:19:55Z</time>
      </trkpt>
      <trkpt lat="43.06733" lon="0.4179">
        <ele>520</ele>
        <time>2020-06-30T10:19:56Z</time>
      </trkpt>
      <trkpt lat="43.06736" lon="0.41786">
        <ele>520</ele>
        <time>2020-06-30T10:19:57Z</time>
      </trkpt>
      <trkpt lat="43.06736" lon="0.41784">
        <ele>520</ele>
        <time>2020-06-30T10:19:58Z</time>
      </trkpt>
      <trkpt lat="43.06737" lon="0.41783">
        <ele>520</ele>
        <time>2020-06-30T10:19:59Z</time>
      </trkpt>
      <trkpt lat="43.06738" lon="0.41779">
        <ele>520</ele>
        <time>2020-06-30T10:20:00Z</time>
      </trkpt>
      <trkpt lat="43.06739" lon="0.41777">
        <ele>520</ele>
        <time>2020-06-30T10:20:01Z</time>
      </trkpt>
      <trkpt lat="43.06741" lon="0.41774">
        <ele>520</ele>
        <time>2020-06-30T10:20:02Z</time>
      </trkpt>
      <trkpt lat="43.06742" lon="0.41772">
        <ele>520</ele>
        <time>2020-06-30T10:20:03Z</time>
      </trkpt>
      <trkpt lat="43.06742" lon="0.41771">
        <ele>520</ele>
        <time>2020-06-30T10:20:04Z</time>
      </trkpt>
      <trkpt lat="43.06744" lon="0.41769">
        <ele>520</ele>
        <time>2020-06-30T10:20:05Z</time>
      </trkpt>
      <trkpt lat="43.06746" lon="0.41767">
        <ele>520.2</ele>
        <time>2020-06-30T10:20:06Z</time>
      </trkpt>
      <trkpt lat="43.06746" lon="0.41766">
        <ele>520</ele>
        <time>2020-06-30T10:20:07Z</time>
      </trkpt>
      <trkpt lat="43.06747" lon="0.41763">
        <ele>520.2</ele>
        <time>2020-06-30T10:20:08Z</time>
      </trkpt>
      <trkpt lat="43.06748" lon="0.4176">
        <ele>520</ele>
        <time>2020-06-30T10:20:09Z</time>
      </trkpt>
      <trkpt lat="43.06749" lon="0.41759">
        <ele>520.2</ele>
        <time>2020-06-30T10:20:10Z</time>
      </trkpt>
      <trkpt lat="43.06751" lon="0.41756">
        <ele>520.2</ele>
        <time>2020-06-30T10:20:11Z</time>
      </trkpt>
      <trkpt lat="43.06752" lon="0.41753">
        <ele>520</ele>
        <time>2020-06-30T10:20:12Z</time>
      </trkpt>
      <trkpt lat="43.06753" lon="0.41751">
        <ele>520</ele>
        <time>2020-06-30T10:20:13Z</time>
      </trkpt>
      <trkpt lat="43.06754" lon="0.41748">
        <ele>520</ele>
        <time>2020-06-30T10:20:14Z</time>
      </trkpt>
      <trkpt lat="43.06756" lon="0.41746">
        <ele>519.8</ele>
        <time>2020-06-30T10:20:15Z</time>
      </trkpt>
      <trkpt lat="43.06757" lon="0.41743">
        <ele>519.8</ele>
        <time>2020-06-30T10:20:16Z</time>
      </trkpt>
      <trkpt lat="43.06759" lon="0.41742">
        <ele>520</ele>
        <time>2020-06-30T10:20:17Z</time>
      </trkpt>
      <trkpt lat="43.06759" lon="0.41739">
        <ele>520</ele>
        <time>2020-06-30T10:20:18Z</time>
      </trkpt>
      <trkpt lat="43.0676" lon="0.41737">
        <ele>519.8</ele>
        <time>2020-06-30T10:20:19Z</time>
      </trkpt>
      <trkpt lat="43.06761" lon="0.41733">
        <ele>519.8</ele>
        <time>2020-06-30T10:20:20Z</time>
      </trkpt>
      <trkpt lat="43.06761" lon="0.41729">
        <ele>520</ele>
        <time>2020-06-30T10:20:21Z</time>
      </trkpt>
      <trkpt lat="43.06761" lon="0.41726">
        <ele>520</ele>
        <time>2020-06-30T10:20:22Z</time>
      </trkpt>
      <trkpt lat="43.06761" lon="0.41723">
        <ele>520</ele>
        <time>2020-06-30T10:20:23Z</time>
      </trkpt>
      <trkpt lat="43.06761" lon="0.4172">
        <ele>520</ele>
        <time>2020-06-30T10:20:24Z</time>
      </trkpt>
      <trkpt lat="43.06761" lon="0.41716">
        <ele>520.2</ele>
        <time>2020-06-30T10:20:25Z</time>
      </trkpt>
      <trkpt lat="43.06762" lon="0.41714">
        <ele>520.2</ele>
        <time>2020-06-30T10:20:26Z</time>
      </trkpt>
      <trkpt lat="43.06762" lon="0.41711">
        <ele>520.4</ele>
        <time>2020-06-30T10:20:27Z</time>
      </trkpt>
      <trkpt lat="43.06763" lon="0.41708">
        <ele>520.4</ele>
        <time>2020-06-30T10:20:28Z</time>
      </trkpt>
      <trkpt lat="43.06764" lon="0.41705">
        <ele>520.6</ele>
        <time>2020-06-30T10:20:29Z</time>
      </trkpt>
      <trkpt lat="43.06764" lon="0.41702">
        <ele>520.8</ele>
        <time>2020-06-30T10:20:30Z</time>
      </trkpt>
      <trkpt lat="43.06763" lon="0.417">
        <ele>520.8</ele>
        <time>2020-06-30T10:20:31Z</time>
      </trkpt>
      <trkpt lat="43.06765" lon="0.41698">
        <ele>521</ele>
        <time>2020-06-30T10:20:32Z</time>
      </trkpt>
      <trkpt lat="43.06765" lon="0.41695">
        <ele>521.2</ele>
        <time>2020-06-30T10:20:33Z</time>
      </trkpt>
      <trkpt lat="43.06765" lon="0.41694">
        <ele>521.2</ele>
        <time>2020-06-30T10:20:34Z</time>
      </trkpt>
      <trkpt lat="43.06764" lon="0.41692">
        <ele>521.4</ele>
        <time>2020-06-30T10:20:35Z</time>
      </trkpt>
      <trkpt lat="43.06763" lon="0.41689">
        <ele>521.4</ele>
        <time>2020-06-30T10:20:36Z</time>
      </trkpt>
      <trkpt lat="43.06763" lon="0.41686">
        <ele>521.6</ele>
        <time>2020-06-30T10:20:37Z</time>
      </trkpt>
      <trkpt lat="43.06762" lon="0.41684">
        <ele>521.8</ele>
        <time>2020-06-30T10:20:38Z</time>
      </trkpt>
      <trkpt lat="43.06763" lon="0.41682">
        <ele>521.8</ele>
        <time>2020-06-30T10:20:39Z</time>
      </trkpt>
      <trkpt lat="43.06763" lon="0.41679">
        <ele>522</ele>
        <time>2020-06-30T10:20:40Z</time>
      </trkpt>
      <trkpt lat="43.06764" lon="0.41676">
        <ele>522</ele>
        <time>2020-06-30T10:20:41Z</time>
      </trkpt>
      <trkpt lat="43.06765" lon="0.41674">
        <ele>522.2</ele>
        <time>2020-06-30T10:20:42Z</time>
      </trkpt>
      <trkpt lat="43.06765" lon="0.41671">
        <ele>522.2</ele>
        <time>2020-06-30T10:20:43Z</time>
      </trkpt>
      <trkpt lat="43.06766" lon="0.41669">
        <ele>522.4</ele>
        <time>2020-06-30T10:20:44Z</time>
      </trkpt>
      <trkpt lat="43.06766" lon="0.41666">
        <ele>522.4</ele>
        <time>2020-06-30T10:20:45Z</time>
      </trkpt>
      <trkpt lat="43.06768" lon="0.41664">
        <ele>522.6</ele>
        <time>2020-06-30T10:20:46Z</time>
      </trkpt>
      <trkpt lat="43.06768" lon="0.41661">
        <ele>522.8</ele>
        <time>2020-06-30T10:20:47Z</time>
      </trkpt>
      <trkpt lat="43.06768" lon="0.41658">
        <ele>522.8</ele>
        <time>2020-06-30T10:20:48Z</time>
      </trkpt>
      <trkpt lat="43.06769" lon="0.41656">
        <ele>523</ele>
        <time>2020-06-30T10:20:49Z</time>
      </trkpt>
      <trkpt lat="43.0677" lon="0.41653">
        <ele>523.2</ele>
        <time>2020-06-30T10:20:50Z</time>
      </trkpt>
      <trkpt lat="43.06771" lon="0.41651">
        <ele>523.4</ele>
        <time>2020-06-30T10:20:51Z</time>
      </trkpt>
      <trkpt lat="43.06771" lon="0.41648">
        <ele>523.4</ele>
        <time>2020-06-30T10:20:52Z</time>
      </trkpt>
      <trkpt lat="43.06771" lon="0.41646">
        <ele>523.6</ele>
        <time>2020-06-30T10:20:53Z</time>
      </trkpt>
      <trkpt lat="43.06771" lon="0.41644">
        <ele>523.8</ele>
        <time>2020-06-30T10:20:54Z</time>
      </trkpt>
      <trkpt lat="43.06771" lon="0.41642">
        <ele>524</ele>
        <time>2020-06-30T10:20:55Z</time>
      </trkpt>
      <trkpt lat="43.06771" lon="0.4164">
        <ele>524</ele>
        <time>2020-06-30T10:20:56Z</time>
      </trkpt>
      <trkpt lat="43.06771" lon="0.41638">
        <ele>524.2</ele>
        <time>2020-06-30T10:20:57Z</time>
      </trkpt>
      <trkpt lat="43.0677" lon="0.41636">
        <ele>524.2</ele>
        <time>2020-06-30T10:20:58Z</time>
      </trkpt>
      <trkpt lat="43.0677" lon="0.41634">
        <ele>524.4</ele>
        <time>2020-06-30T10:20:59Z</time>
      </trkpt>
      <trkpt lat="43.0677" lon="0.41632">
        <ele>524.6</ele>
        <time>2020-06-30T10:21:00Z</time>
      </trkpt>
      <trkpt lat="43.0677" lon="0.4163">
        <ele>524.8</ele>
        <time>2020-06-30T10:21:01Z</time>
      </trkpt>
      <trkpt lat="43.0677" lon="0.41627">
        <ele>524.8</ele>
        <time>2020-06-30T10:21:02Z</time>
      </trkpt>
      <trkpt lat="43.0677" lon="0.41625">
        <ele>525</ele>
        <time>2020-06-30T10:21:03Z</time>
      </trkpt>
      <trkpt lat="43.0677" lon="0.41623">
        <ele>525.2</ele>
        <time>2020-06-30T10:21:04Z</time>
      </trkpt>
      <trkpt lat="43.0677" lon="0.41621">
        <ele>525.4</ele>
        <time>2020-06-30T10:21:05Z</time>
      </trkpt>
      <trkpt lat="43.0677" lon="0.41618">
        <ele>525.6</ele>
        <time>2020-06-30T10:21:06Z</time>
      </trkpt>
      <trkpt lat="43.0677" lon="0.41617">
        <ele>525.6</ele>
        <time>2020-06-30T10:21:07Z</time>
      </trkpt>
      <trkpt lat="43.0677" lon="0.41615">
        <ele>525.8</ele>
        <time>2020-06-30T10:21:08Z</time>
      </trkpt>
      <trkpt lat="43.06771" lon="0.41613">
        <ele>526</ele>
        <time>2020-06-30T10:21:09Z</time>
      </trkpt>
      <trkpt lat="43.0677" lon="0.41611">
        <ele>526.2</ele>
        <time>2020-06-30T10:21:10Z</time>
      </trkpt>
      <trkpt lat="43.0677" lon="0.4161">
        <ele>526.4</ele>
        <time>2020-06-30T10:21:11Z</time>
      </trkpt>
      <trkpt lat="43.0677" lon="0.41608">
        <ele>526.4</ele>
        <time>2020-06-30T10:21:12Z</time>
      </trkpt>
      <trkpt lat="43.06771" lon="0.41606">
        <ele>526.6</ele>
        <time>2020-06-30T10:21:13Z</time>
      </trkpt>
      <trkpt lat="43.06771" lon="0.41604">
        <ele>526.8</ele>
        <time>2020-06-30T10:21:14Z</time>
      </trkpt>
      <trkpt lat="43.06771" lon="0.41603">
        <ele>527</ele>
        <time>2020-06-30T10:21:15Z</time>
      </trkpt>
      <trkpt lat="43.0677" lon="0.416">
        <ele>527.2</ele>
        <time>2020-06-30T10:21:16Z</time>
      </trkpt>
      <trkpt lat="43.06771" lon="0.41599">
        <ele>527.4</ele>
        <time>2020-06-30T10:21:17Z</time>
      </trkpt>
      <trkpt lat="43.0677" lon="0.41598">
        <ele>527.4</ele>
        <time>2020-06-30T10:21:18Z</time>
      </trkpt>
      <trkpt lat="43.0677" lon="0.41595">
        <ele>527.6</ele>
        <time>2020-06-30T10:21:19Z</time>
      </trkpt>
      <trkpt lat="43.06769" lon="0.41593">
        <ele>527.8</ele>
        <time>2020-06-30T10:21:20Z</time>
      </trkpt>
      <trkpt lat="43.06769" lon="0.4159">
        <ele>528</ele>
        <time>2020-06-30T10:21:21Z</time>
      </trkpt>
      <trkpt lat="43.06769" lon="0.41589">
        <ele>528.2</ele>
        <time>2020-06-30T10:21:22Z</time>
      </trkpt>
      <trkpt lat="43.06769" lon="0.41587">
        <ele>528.4</ele>
        <time>2020-06-30T10:21:23Z</time>
      </trkpt>
      <trkpt lat="43.06769" lon="0.41586">
        <ele>528.4</ele>
        <time>2020-06-30T10:21:24Z</time>
      </trkpt>
      <trkpt lat="43.06769" lon="0.41583">
        <ele>528.6</ele>
        <time>2020-06-30T10:21:25Z</time>
      </trkpt>
      <trkpt lat="43.06769" lon="0.41582">
        <ele>528.8</ele>
        <time>2020-06-30T10:21:26Z</time>
      </trkpt>
      <trkpt lat="43.06769" lon="0.4158">
        <ele>529</ele>
        <time>2020-06-30T10:21:27Z</time>
      </trkpt>
      <trkpt lat="43.0677" lon="0.41579">
        <ele>529.2</ele>
        <time>2020-06-30T10:21:28Z</time>
      </trkpt>
      <trkpt lat="43.06771" lon="0.41579">
        <ele>529.4</ele>
        <time>2020-06-30T10:21:29Z</time>
      </trkpt>
      <trkpt lat="43.06771" lon="0.41577">
        <ele>529.6</ele>
        <time>2020-06-30T10:21:30Z</time>
      </trkpt>
      <trkpt lat="43.06771" lon="0.41576">
        <ele>529.8</ele>
        <time>2020-06-30T10:21:31Z</time>
      </trkpt>
      <trkpt lat="43.06771" lon="0.41573">
        <ele>529.8</ele>
        <time>2020-06-30T10:21:32Z</time>
      </trkpt>
      <trkpt lat="43.06771" lon="0.41571">
        <ele>530</ele>
        <time>2020-06-30T10:21:33Z</time>
      </trkpt>
      <trkpt lat="43.06771" lon="0.41569">
        <ele>530.2</ele>
        <time>2020-06-30T10:21:34Z</time>
      </trkpt>
      <trkpt lat="43.06771" lon="0.41567">
        <ele>530.4</ele>
        <time>2020-06-30T10:21:35Z</time>
      </trkpt>
      <trkpt lat="43.06771" lon="0.41567">
        <ele>530.6</ele>
        <time>2020-06-30T10:21:36Z</time>
      </trkpt>
      <trkpt lat="43.06772" lon="0.41565">
        <ele>530.8</ele>
        <time>2020-06-30T10:21:37Z</time>
      </trkpt>
      <trkpt lat="43.06771" lon="0.41564">
        <ele>531</ele>
        <time>2020-06-30T10:21:38Z</time>
      </trkpt>
      <trkpt lat="43.06771" lon="0.41561">
        <ele>531.2</ele>
        <time>2020-06-30T10:21:39Z</time>
      </trkpt>
      <trkpt lat="43.06771" lon="0.41559">
        <ele>531.4</ele>
        <time>2020-06-30T10:21:40Z</time>
      </trkpt>
      <trkpt lat="43.06771" lon="0.41558">
        <ele>531.6</ele>
        <time>2020-06-30T10:21:41Z</time>
      </trkpt>
      <trkpt lat="43.06772" lon="0.41556">
        <ele>531.6</ele>
        <time>2020-06-30T10:21:42Z</time>
      </trkpt>
      <trkpt lat="43.06773" lon="0.41555">
        <ele>531.8</ele>
        <time>2020-06-30T10:21:43Z</time>
      </trkpt>
      <trkpt lat="43.06773" lon="0.41553">
        <ele>531.8</ele>
        <time>2020-06-30T10:21:44Z</time>
      </trkpt>
      <trkpt lat="43.06774" lon="0.41553">
        <ele>532</ele>
        <time>2020-06-30T10:21:45Z</time>
      </trkpt>
      <trkpt lat="43.06773" lon="0.41552">
        <ele>532</ele>
        <time>2020-06-30T10:21:46Z</time>
      </trkpt>
      <trkpt lat="43.06774" lon="0.41551">
        <ele>532</ele>
        <time>2020-06-30T10:21:47Z</time>
      </trkpt>
      <trkpt lat="43.06775" lon="0.41551">
        <ele>532</ele>
        <time>2020-06-30T10:21:48Z</time>
      </trkpt>
      <trkpt lat="43.06776" lon="0.4155">
        <ele>532</ele>
        <time>2020-06-30T10:21:49Z</time>
      </trkpt>
      <trkpt lat="43.06777" lon="0.41549">
        <ele>532</ele>
        <time>2020-06-30T10:21:50Z</time>
      </trkpt>
      <trkpt lat="43.06778" lon="0.41547">
        <ele>532</ele>
        <time>2020-06-30T10:21:51Z</time>
      </trkpt>
      <trkpt lat="43.06778" lon="0.41545">
        <ele>532</ele>
        <time>2020-06-30T10:21:52Z</time>
      </trkpt>
      <trkpt lat="43.06779" lon="0.41543">
        <ele>532</ele>
        <time>2020-06-30T10:21:53Z</time>
      </trkpt>
      <trkpt lat="43.0678" lon="0.41541">
        <ele>532</ele>
        <time>2020-06-30T10:21:54Z</time>
      </trkpt>
      <trkpt lat="43.0678" lon="0.41538">
        <ele>531.8</ele>
        <time>2020-06-30T10:21:55Z</time>
      </trkpt>
      <trkpt lat="43.06781" lon="0.41534">
        <ele>531.8</ele>
        <time>2020-06-30T10:21:56Z</time>
      </trkpt>
      <trkpt lat="43.06783" lon="0.41531">
        <ele>531.6</ele>
        <time>2020-06-30T10:21:57Z</time>
      </trkpt>
      <trkpt lat="43.06785" lon="0.41526">
        <ele>531.6</ele>
        <time>2020-06-30T10:21:58Z</time>
      </trkpt>
      <trkpt lat="43.06787" lon="0.41521">
        <ele>531.4</ele>
        <time>2020-06-30T10:21:59Z</time>
      </trkpt>
      <trkpt lat="43.06789" lon="0.41516">
        <ele>531</ele>
        <time>2020-06-30T10:22:00Z</time>
      </trkpt>
      <trkpt lat="43.06791" lon="0.41511">
        <ele>531</ele>
        <time>2020-06-30T10:22:01Z</time>
      </trkpt>
      <trkpt lat="43.06795" lon="0.41507">
        <ele>530.6</ele>
        <time>2020-06-30T10:22:02Z</time>
      </trkpt>
      <trkpt lat="43.06796" lon="0.415">
        <ele>530.4</ele>
        <time>2020-06-30T10:22:03Z</time>
      </trkpt>
      <trkpt lat="43.068" lon="0.41496">
        <ele>530</ele>
        <time>2020-06-30T10:22:04Z</time>
      </trkpt>
      <trkpt lat="43.06804" lon="0.4149">
        <ele>529.6</ele>
        <time>2020-06-30T10:22:05Z</time>
      </trkpt>
      <trkpt lat="43.06806" lon="0.41485">
        <ele>529.2</ele>
        <time>2020-06-30T10:22:06Z</time>
      </trkpt>
      <trkpt lat="43.06812" lon="0.41478">
        <ele>529</ele>
        <time>2020-06-30T10:22:07Z</time>
      </trkpt>
      <trkpt lat="43.06819" lon="0.41473">
        <ele>528.4</ele>
        <time>2020-06-30T10:22:08Z</time>
      </trkpt>
      <trkpt lat="43.06824" lon="0.41466">
        <ele>528</ele>
        <time>2020-06-30T10:22:09Z</time>
      </trkpt>
      <trkpt lat="43.06829" lon="0.41458">
        <ele>527.4</ele>
        <time>2020-06-30T10:22:10Z</time>
      </trkpt>
      <trkpt lat="43.06835" lon="0.41449">
        <ele>527.2</ele>
        <time>2020-06-30T10:22:11Z</time>
      </trkpt>
      <trkpt lat="43.06837" lon="0.41438">
        <ele>526.8</ele>
        <time>2020-06-30T10:22:12Z</time>
      </trkpt>
      <trkpt lat="43.06842" lon="0.4143">
        <ele>526.2</ele>
        <time>2020-06-30T10:22:13Z</time>
      </trkpt>
      <trkpt lat="43.06847" lon="0.41421">
        <ele>525.8</ele>
        <time>2020-06-30T10:22:14Z</time>
      </trkpt>
      <trkpt lat="43.06853" lon="0.41413">
        <ele>525.2</ele>
        <time>2020-06-30T10:22:15Z</time>
      </trkpt>
      <trkpt lat="43.06859" lon="0.41405">
        <ele>524.6</ele>
        <time>2020-06-30T10:22:16Z</time>
      </trkpt>
      <trkpt lat="43.06863" lon="0.41396">
        <ele>524.2</ele>
        <time>2020-06-30T10:22:17Z</time>
      </trkpt>
      <trkpt lat="43.06867" lon="0.41386">
        <ele>523.8</ele>
        <time>2020-06-30T10:22:18Z</time>
      </trkpt>
      <trkpt lat="43.06869" lon="0.41375">
        <ele>523.8</ele>
        <time>2020-06-30T10:22:19Z</time>
      </trkpt>
      <trkpt lat="43.0687" lon="0.41367">
        <ele>524</ele>
        <time>2020-06-30T10:22:20Z</time>
      </trkpt>
      <trkpt lat="43.06869" lon="0.41359">
        <ele>524.2</ele>
        <time>2020-06-30T10:22:21Z</time>
      </trkpt>
      <trkpt lat="43.06867" lon="0.41354">
        <ele>524.6</ele>
        <time>2020-06-30T10:22:22Z</time>
      </trkpt>
      <trkpt lat="43.06865" lon="0.41349">
        <ele>525</ele>
        <time>2020-06-30T10:22:23Z</time>
      </trkpt>
      <trkpt lat="43.06865" lon="0.41345">
        <ele>525.2</ele>
        <time>2020-06-30T10:22:24Z</time>
      </trkpt>
      <trkpt lat="43.06862" lon="0.4134">
        <ele>525.6</ele>
        <time>2020-06-30T10:22:25Z</time>
      </trkpt>
      <trkpt lat="43.0686" lon="0.41338">
        <ele>525.8</ele>
        <time>2020-06-30T10:22:26Z</time>
      </trkpt>
      <trkpt lat="43.06859" lon="0.41337">
        <ele>526</ele>
        <time>2020-06-30T10:22:27Z</time>
      </trkpt>
      <trkpt lat="43.06857" lon="0.41335">
        <ele>526.2</ele>
        <time>2020-06-30T10:22:28Z</time>
      </trkpt>
      <trkpt lat="43.06856" lon="0.41332">
        <ele>526.6</ele>
        <time>2020-06-30T10:22:29Z</time>
      </trkpt>
      <trkpt lat="43.06857" lon="0.41328">
        <ele>526.8</ele>
        <time>2020-06-30T10:22:30Z</time>
      </trkpt>
      <trkpt lat="43.06855" lon="0.41326">
        <ele>526.8</ele>
        <time>2020-06-30T10:22:31Z</time>
      </trkpt>
      <trkpt lat="43.06854" lon="0.41323">
        <ele>527</ele>
        <time>2020-06-30T10:22:32Z</time>
      </trkpt>
      <trkpt lat="43.06854" lon="0.41322">
        <ele>527.2</ele>
        <time>2020-06-30T10:22:33Z</time>
      </trkpt>
      <trkpt lat="43.06857" lon="0.41322">
        <ele>527.4</ele>
        <time>2020-06-30T10:22:34Z</time>
      </trkpt>
      <trkpt lat="43.06855" lon="0.41318">
        <ele>527.6</ele>
        <time>2020-06-30T10:22:35Z</time>
      </trkpt>
      <trkpt lat="43.06853" lon="0.41315">
        <ele>527.8</ele>
        <time>2020-06-30T10:22:36Z</time>
      </trkpt>
      <trkpt lat="43.06853" lon="0.41311">
        <ele>528</ele>
        <time>2020-06-30T10:22:37Z</time>
      </trkpt>
      <trkpt lat="43.06853" lon="0.4131">
        <ele>528</ele>
        <time>2020-06-30T10:22:38Z</time>
      </trkpt>
      <trkpt lat="43.06852" lon="0.41305">
        <ele>528.2</ele>
        <time>2020-06-30T10:22:39Z</time>
      </trkpt>
      <trkpt lat="43.06853" lon="0.41303">
        <ele>528.4</ele>
        <time>2020-06-30T10:22:40Z</time>
      </trkpt>
      <trkpt lat="43.06853" lon="0.41301">
        <ele>528.6</ele>
        <time>2020-06-30T10:22:41Z</time>
      </trkpt>
      <trkpt lat="43.06854" lon="0.41299">
        <ele>528.6</ele>
        <time>2020-06-30T10:22:42Z</time>
      </trkpt>
      <trkpt lat="43.06855" lon="0.41298">
        <ele>528.8</ele>
        <time>2020-06-30T10:22:43Z</time>
      </trkpt>
      <trkpt lat="43.06855" lon="0.41296">
        <ele>529</ele>
        <time>2020-06-30T10:22:44Z</time>
      </trkpt>
      <trkpt lat="43.06855" lon="0.41293">
        <ele>529</ele>
        <time>2020-06-30T10:22:45Z</time>
      </trkpt>
      <trkpt lat="43.06854" lon="0.41287">
        <ele>529.2</ele>
        <time>2020-06-30T10:22:46Z</time>
      </trkpt>
      <trkpt lat="43.06854" lon="0.41282">
        <ele>529.2</ele>
        <time>2020-06-30T10:22:47Z</time>
      </trkpt>
      <trkpt lat="43.06855" lon="0.4128">
        <ele>529.4</ele>
        <time>2020-06-30T10:22:48Z</time>
      </trkpt>
      <trkpt lat="43.06855" lon="0.41278">
        <ele>529.6</ele>
        <time>2020-06-30T10:22:49Z</time>
      </trkpt>
      <trkpt lat="43.06855" lon="0.41276">
        <ele>529.6</ele>
        <time>2020-06-30T10:22:50Z</time>
      </trkpt>
      <trkpt lat="43.06856" lon="0.41273">
        <ele>529.6</ele>
        <time>2020-06-30T10:22:51Z</time>
      </trkpt>
      <trkpt lat="43.06857" lon="0.4127">
        <ele>529.8</ele>
        <time>2020-06-30T10:22:52Z</time>
      </trkpt>
      <trkpt lat="43.06858" lon="0.41264">
        <ele>530</ele>
        <time>2020-06-30T10:22:53Z</time>
      </trkpt>
      <trkpt lat="43.06858" lon="0.41262">
        <ele>530</ele>
        <time>2020-06-30T10:22:54Z</time>
      </trkpt>
      <trkpt lat="43.0686" lon="0.4126">
        <ele>530.2</ele>
        <time>2020-06-30T10:22:55Z</time>
      </trkpt>
      <trkpt lat="43.06859" lon="0.41257">
        <ele>530.4</ele>
        <time>2020-06-30T10:22:56Z</time>
      </trkpt>
      <trkpt lat="43.06858" lon="0.41253">
        <ele>530.6</ele>
        <time>2020-06-30T10:22:57Z</time>
      </trkpt>
      <trkpt lat="43.06858" lon="0.4125">
        <ele>530.6</ele>
        <time>2020-06-30T10:22:58Z</time>
      </trkpt>
      <trkpt lat="43.06859" lon="0.41247">
        <ele>530.8</ele>
        <time>2020-06-30T10:22:59Z</time>
      </trkpt>
      <trkpt lat="43.06859" lon="0.41244">
        <ele>530.8</ele>
        <time>2020-06-30T10:23:00Z</time>
      </trkpt>
      <trkpt lat="43.0686" lon="0.41242">
        <ele>530.8</ele>
        <time>2020-06-30T10:23:01Z</time>
      </trkpt>
      <trkpt lat="43.06861" lon="0.4124">
        <ele>531</ele>
        <time>2020-06-30T10:23:02Z</time>
      </trkpt>
      <trkpt lat="43.06861" lon="0.41236">
        <ele>531.2</ele>
        <time>2020-06-30T10:23:03Z</time>
      </trkpt>
      <trkpt lat="43.0686" lon="0.41232">
        <ele>531.2</ele>
        <time>2020-06-30T10:23:04Z</time>
      </trkpt>
      <trkpt lat="43.06859" lon="0.41228">
        <ele>531.2</ele>
        <time>2020-06-30T10:23:05Z</time>
      </trkpt>
      <trkpt lat="43.0686" lon="0.41225">
        <ele>531.2</ele>
        <time>2020-06-30T10:23:06Z</time>
      </trkpt>
      <trkpt lat="43.06858" lon="0.41222">
        <ele>531.2</ele>
        <time>2020-06-30T10:23:07Z</time>
      </trkpt>
      <trkpt lat="43.06856" lon="0.41217">
        <ele>531.2</ele>
        <time>2020-06-30T10:23:08Z</time>
      </trkpt>
      <trkpt lat="43.06856" lon="0.41214">
        <ele>531.4</ele>
        <time>2020-06-30T10:23:09Z</time>
      </trkpt>
      <trkpt lat="43.06856" lon="0.41211">
        <ele>531.4</ele>
        <time>2020-06-30T10:23:10Z</time>
      </trkpt>
      <trkpt lat="43.06855" lon="0.41209">
        <ele>531.4</ele>
        <time>2020-06-30T10:23:11Z</time>
      </trkpt>
      <trkpt lat="43.06855" lon="0.41205">
        <ele>531.4</ele>
        <time>2020-06-30T10:23:12Z</time>
      </trkpt>
      <trkpt lat="43.06855" lon="0.41204">
        <ele>531.2</ele>
        <time>2020-06-30T10:23:13Z</time>
      </trkpt>
      <trkpt lat="43.06854" lon="0.41201">
        <ele>531.2</ele>
        <time>2020-06-30T10:23:14Z</time>
      </trkpt>
      <trkpt lat="43.06854" lon="0.41197">
        <ele>531.2</ele>
        <time>2020-06-30T10:23:15Z</time>
      </trkpt>
      <trkpt lat="43.06853" lon="0.41195">
        <ele>531.2</ele>
        <time>2020-06-30T10:23:16Z</time>
      </trkpt>
      <trkpt lat="43.06852" lon="0.41193">
        <ele>531.2</ele>
        <time>2020-06-30T10:23:17Z</time>
      </trkpt>
      <trkpt lat="43.06851" lon="0.4119">
        <ele>531.2</ele>
        <time>2020-06-30T10:23:18Z</time>
      </trkpt>
      <trkpt lat="43.0685" lon="0.41187">
        <ele>531</ele>
        <time>2020-06-30T10:23:19Z</time>
      </trkpt>
      <trkpt lat="43.0685" lon="0.41184">
        <ele>531</ele>
        <time>2020-06-30T10:23:20Z</time>
      </trkpt>
      <trkpt lat="43.06849" lon="0.41181">
        <ele>530.8</ele>
        <time>2020-06-30T10:23:21Z</time>
      </trkpt>
      <trkpt lat="43.06847" lon="0.41178">
        <ele>530.8</ele>
        <time>2020-06-30T10:23:22Z</time>
      </trkpt>
      <trkpt lat="43.06846" lon="0.41174">
        <ele>530.6</ele>
        <time>2020-06-30T10:23:23Z</time>
      </trkpt>
      <trkpt lat="43.06844" lon="0.41171">
        <ele>530.4</ele>
        <time>2020-06-30T10:23:24Z</time>
      </trkpt>
      <trkpt lat="43.06844" lon="0.41166">
        <ele>530.2</ele>
        <time>2020-06-30T10:23:25Z</time>
      </trkpt>
      <trkpt lat="43.06843" lon="0.41161">
        <ele>529.8</ele>
        <time>2020-06-30T10:23:26Z</time>
      </trkpt>
      <trkpt lat="43.06841" lon="0.41154">
        <ele>529.6</ele>
        <time>2020-06-30T10:23:27Z</time>
      </trkpt>
      <trkpt lat="43.06841" lon="0.41147">
        <ele>529.2</ele>
        <time>2020-06-30T10:23:28Z</time>
      </trkpt>
      <trkpt lat="43.06841" lon="0.41139">
        <ele>528.6</ele>
        <time>2020-06-30T10:23:29Z</time>
      </trkpt>
      <trkpt lat="43.06841" lon="0.41132">
        <ele>528.2</ele>
        <time>2020-06-30T10:23:30Z</time>
      </trkpt>
      <trkpt lat="43.06842" lon="0.41122">
        <ele>527.6</ele>
        <time>2020-06-30T10:23:31Z</time>
      </trkpt>
      <trkpt lat="43.06842" lon="0.41111">
        <ele>526.8</ele>
        <time>2020-06-30T10:23:32Z</time>
      </trkpt>
      <trkpt lat="43.06843" lon="0.41101">
        <ele>526.4</ele>
        <time>2020-06-30T10:23:33Z</time>
      </trkpt>
      <trkpt lat="43.06843" lon="0.41089">
        <ele>525.8</ele>
        <time>2020-06-30T10:23:34Z</time>
      </trkpt>
      <trkpt lat="43.06843" lon="0.41078">
        <ele>525.4</ele>
        <time>2020-06-30T10:23:35Z</time>
      </trkpt>
      <trkpt lat="43.06843" lon="0.41066">
        <ele>524.8</ele>
        <time>2020-06-30T10:23:36Z</time>
      </trkpt>
      <trkpt lat="43.06843" lon="0.41054">
        <ele>524.4</ele>
        <time>2020-06-30T10:23:37Z</time>
      </trkpt>
      <trkpt lat="43.06843" lon="0.41042">
        <ele>523.8</ele>
        <time>2020-06-30T10:23:38Z</time>
      </trkpt>
      <trkpt lat="43.06845" lon="0.41031">
        <ele>523.4</ele>
        <time>2020-06-30T10:23:39Z</time>
      </trkpt>
      <trkpt lat="43.06847" lon="0.4102">
        <ele>523</ele>
        <time>2020-06-30T10:23:40Z</time>
      </trkpt>
      <trkpt lat="43.06849" lon="0.41008">
        <ele>523</ele>
        <time>2020-06-30T10:23:41Z</time>
      </trkpt>
      <trkpt lat="43.06851" lon="0.40999">
        <ele>522.8</ele>
        <time>2020-06-30T10:23:42Z</time>
      </trkpt>
      <trkpt lat="43.06853" lon="0.40991">
        <ele>522.6</ele>
        <time>2020-06-30T10:23:43Z</time>
      </trkpt>
      <trkpt lat="43.06854" lon="0.40988">
        <ele>522.4</ele>
        <time>2020-06-30T10:23:44Z</time>
      </trkpt>
      <trkpt lat="43.06854" lon="0.40987">
        <ele>522.4</ele>
        <time>2020-06-30T10:23:45Z</time>
      </trkpt>
      <trkpt lat="43.06854" lon="0.40987">
        <ele>522.4</ele>
        <time>2020-06-30T10:23:46Z</time>
      </trkpt>
      <trkpt lat="43.06854" lon="0.40986">
        <ele>522.4</ele>
        <time>2020-06-30T10:23:47Z</time>
      </trkpt>
      <trkpt lat="43.06854" lon="0.40986">
        <ele>522.4</ele>
        <time>2020-06-30T10:23:48Z</time>
      </trkpt>
      <trkpt lat="43.06854" lon="0.40985">
        <ele>522.4</ele>
        <time>2020-06-30T10:23:49Z</time>
      </trkpt>
      <trkpt lat="43.06855" lon="0.40986">
        <ele>522.4</ele>
        <time>2020-06-30T10:23:50Z</time>
      </trkpt>
      <trkpt lat="43.06855" lon="0.40986">
        <ele>522.4</ele>
        <time>2020-06-30T10:23:51Z</time>
      </trkpt>
      <trkpt lat="43.06855" lon="0.40987">
        <ele>522.4</ele>
        <time>2020-06-30T10:23:52Z</time>
      </trkpt>
      <trkpt lat="43.06856" lon="0.40986">
        <ele>522.4</ele>
        <time>2020-06-30T10:23:53Z</time>
      </trkpt>
      <trkpt lat="43.06857" lon="0.40986">
        <ele>522.4</ele>
        <time>2020-06-30T10:23:54Z</time>
      </trkpt>
      <trkpt lat="43.06858" lon="0.40987">
        <ele>522.4</ele>
        <time>2020-06-30T10:23:55Z</time>
      </trkpt>
      <trkpt lat="43.06857" lon="0.40988">
        <ele>522.4</ele>
        <time>2020-06-30T10:23:56Z</time>
      </trkpt>
      <trkpt lat="43.06858" lon="0.4099">
        <ele>522.4</ele>
        <time>2020-06-30T10:23:57Z</time>
      </trkpt>
      <trkpt lat="43.06857" lon="0.40992">
        <ele>522.4</ele>
        <time>2020-06-30T10:23:58Z</time>
      </trkpt>
      <trkpt lat="43.06856" lon="0.40996">
        <ele>522.4</ele>
        <time>2020-06-30T10:23:59Z</time>
      </trkpt>
      <trkpt lat="43.06856" lon="0.40998">
        <ele>522.4</ele>
        <time>2020-06-30T10:24:00Z</time>
      </trkpt>
      <trkpt lat="43.06855" lon="0.41001">
        <ele>522.4</ele>
        <time>2020-06-30T10:24:01Z</time>
      </trkpt>
      <trkpt lat="43.06853" lon="0.41005">
        <ele>522.4</ele>
        <time>2020-06-30T10:24:02Z</time>
      </trkpt>
      <trkpt lat="43.06852" lon="0.41007">
        <ele>522.4</ele>
        <time>2020-06-30T10:24:03Z</time>
      </trkpt>
      <trkpt lat="43.0685" lon="0.41011">
        <ele>522.4</ele>
        <time>2020-06-30T10:24:04Z</time>
      </trkpt>
      <trkpt lat="43.06848" lon="0.41013">
        <ele>522.6</ele>
        <time>2020-06-30T10:24:05Z</time>
      </trkpt>
      <trkpt lat="43.06847" lon="0.41014">
        <ele>522.6</ele>
        <time>2020-06-30T10:24:06Z</time>
      </trkpt>
      <trkpt lat="43.06846" lon="0.41014">
        <ele>522.6</ele>
        <time>2020-06-30T10:24:07Z</time>
      </trkpt>
      <trkpt lat="43.06845" lon="0.41015">
        <ele>522.6</ele>
        <time>2020-06-30T10:24:08Z</time>
      </trkpt>
      <trkpt lat="43.06845" lon="0.41015">
        <ele>522.6</ele>
        <time>2020-06-30T10:24:09Z</time>
      </trkpt>
      <trkpt lat="43.06845" lon="0.41015">
        <ele>522.6</ele>
        <time>2020-06-30T10:24:10Z</time>
      </trkpt>
      <trkpt lat="43.06845" lon="0.41015">
        <ele>522.6</ele>
        <time>2020-06-30T10:24:11Z</time>
      </trkpt>
      <trkpt lat="43.06845" lon="0.41014">
        <ele>522.6</ele>
        <time>2020-06-30T10:24:12Z</time>
      </trkpt>
      <trkpt lat="43.06845" lon="0.41014">
        <ele>522.6</ele>
        <time>2020-06-30T10:24:13Z</time>
      </trkpt>
      <trkpt lat="43.06844" lon="0.41015">
        <ele>522.6</ele>
        <time>2020-06-30T10:24:14Z</time>
      </trkpt>
      <trkpt lat="43.06844" lon="0.41016">
        <ele>522.6</ele>
        <time>2020-06-30T10:24:15Z</time>
      </trkpt>
      <trkpt lat="43.06844" lon="0.41016">
        <ele>522.6</ele>
        <time>2020-06-30T10:24:16Z</time>
      </trkpt>
      <trkpt lat="43.06844" lon="0.41016">
        <ele>522.6</ele>
        <time>2020-06-30T10:24:17Z</time>
      </trkpt>
      <trkpt lat="43.06847" lon="0.41016">
        <ele>522.6</ele>
        <time>2020-06-30T10:24:22Z</time>
      </trkpt>
      <trkpt lat="43.06846" lon="0.41015">
        <ele>522.6</ele>
        <time>2020-06-30T10:24:23Z</time>
      </trkpt>
      <trkpt lat="43.06847" lon="0.41014">
        <ele>522.6</ele>
        <time>2020-06-30T10:24:24Z</time>
      </trkpt>
      <trkpt lat="43.06848" lon="0.41012">
        <ele>522.6</ele>
        <time>2020-06-30T10:24:25Z</time>
      </trkpt>
      <trkpt lat="43.06848" lon="0.4101">
        <ele>522.6</ele>
        <time>2020-06-30T10:24:26Z</time>
      </trkpt>
      <trkpt lat="43.0685" lon="0.41008">
        <ele>522.6</ele>
        <time>2020-06-30T10:24:27Z</time>
      </trkpt>
      <trkpt lat="43.06851" lon="0.41006">
        <ele>522.4</ele>
        <time>2020-06-30T10:24:28Z</time>
      </trkpt>
      <trkpt lat="43.06852" lon="0.41004">
        <ele>522.4</ele>
        <time>2020-06-30T10:24:29Z</time>
      </trkpt>
      <trkpt lat="43.06854" lon="0.41001">
        <ele>522.4</ele>
        <time>2020-06-30T10:24:30Z</time>
      </trkpt>
      <trkpt lat="43.06856" lon="0.40998">
        <ele>522.4</ele>
        <time>2020-06-30T10:24:31Z</time>
      </trkpt>
      <trkpt lat="43.06857" lon="0.40995">
        <ele>522.4</ele>
        <time>2020-06-30T10:24:32Z</time>
      </trkpt>
      <trkpt lat="43.06859" lon="0.40992">
        <ele>522.6</ele>
        <time>2020-06-30T10:24:33Z</time>
      </trkpt>
      <trkpt lat="43.0686" lon="0.40988">
        <ele>522.6</ele>
        <time>2020-06-30T10:24:34Z</time>
      </trkpt>
      <trkpt lat="43.06862" lon="0.40984">
        <ele>522.6</ele>
        <time>2020-06-30T10:24:35Z</time>
      </trkpt>
      <trkpt lat="43.06864" lon="0.40978">
        <ele>522.8</ele>
        <time>2020-06-30T10:24:36Z</time>
      </trkpt>
      <trkpt lat="43.06866" lon="0.40974">
        <ele>523</ele>
        <time>2020-06-30T10:24:37Z</time>
      </trkpt>
      <trkpt lat="43.06868" lon="0.40968">
        <ele>523.2</ele>
        <time>2020-06-30T10:24:38Z</time>
      </trkpt>
      <trkpt lat="43.06869" lon="0.40964">
        <ele>523.2</ele>
        <time>2020-06-30T10:24:39Z</time>
      </trkpt>
      <trkpt lat="43.06871" lon="0.4096">
        <ele>523.6</ele>
        <time>2020-06-30T10:24:40Z</time>
      </trkpt>
      <trkpt lat="43.06872" lon="0.40956">
        <ele>523.8</ele>
        <time>2020-06-30T10:24:41Z</time>
      </trkpt>
      <trkpt lat="43.06874" lon="0.40953">
        <ele>524</ele>
        <time>2020-06-30T10:24:42Z</time>
      </trkpt>
      <trkpt lat="43.06877" lon="0.4095">
        <ele>524</ele>
        <time>2020-06-30T10:24:43Z</time>
      </trkpt>
      <trkpt lat="43.06878" lon="0.40946">
        <ele>524.2</ele>
        <time>2020-06-30T10:24:44Z</time>
      </trkpt>
      <trkpt lat="43.06879" lon="0.40942">
        <ele>524.6</ele>
        <time>2020-06-30T10:24:45Z</time>
      </trkpt>
      <trkpt lat="43.06881" lon="0.40939">
        <ele>524.6</ele>
        <time>2020-06-30T10:24:46Z</time>
      </trkpt>
      <trkpt lat="43.06882" lon="0.40935">
        <ele>524.8</ele>
        <time>2020-06-30T10:24:47Z</time>
      </trkpt>
      <trkpt lat="43.06883" lon="0.40932">
        <ele>524.8</ele>
        <time>2020-06-30T10:24:48Z</time>
      </trkpt>
      <trkpt lat="43.06884" lon="0.40929">
        <ele>525</ele>
        <time>2020-06-30T10:24:49Z</time>
      </trkpt>
      <trkpt lat="43.06886" lon="0.40925">
        <ele>525.2</ele>
        <time>2020-06-30T10:24:50Z</time>
      </trkpt>
      <trkpt lat="43.06887" lon="0.40924">
        <ele>525.2</ele>
        <time>2020-06-30T10:24:51Z</time>
      </trkpt>
      <trkpt lat="43.06888" lon="0.40921">
        <ele>525.4</ele>
        <time>2020-06-30T10:24:52Z</time>
      </trkpt>
      <trkpt lat="43.06889" lon="0.40918">
        <ele>525.6</ele>
        <time>2020-06-30T10:24:53Z</time>
      </trkpt>
      <trkpt lat="43.06891" lon="0.40915">
        <ele>525.6</ele>
        <time>2020-06-30T10:24:54Z</time>
      </trkpt>
      <trkpt lat="43.06892" lon="0.4091">
        <ele>525.8</ele>
        <time>2020-06-30T10:24:55Z</time>
      </trkpt>
      <trkpt lat="43.06893" lon="0.40907">
        <ele>526</ele>
        <time>2020-06-30T10:24:56Z</time>
      </trkpt>
      <trkpt lat="43.06894" lon="0.40904">
        <ele>526.2</ele>
        <time>2020-06-30T10:24:57Z</time>
      </trkpt>
      <trkpt lat="43.06896" lon="0.409">
        <ele>526.2</ele>
        <time>2020-06-30T10:24:58Z</time>
      </trkpt>
      <trkpt lat="43.06898" lon="0.40896">
        <ele>526.4</ele>
        <time>2020-06-30T10:24:59Z</time>
      </trkpt>
      <trkpt lat="43.069" lon="0.40893">
        <ele>526.4</ele>
        <time>2020-06-30T10:25:00Z</time>
      </trkpt>
      <trkpt lat="43.06901" lon="0.40889">
        <ele>526.4</ele>
        <time>2020-06-30T10:25:01Z</time>
      </trkpt>
      <trkpt lat="43.06903" lon="0.40884">
        <ele>526.6</ele>
        <time>2020-06-30T10:25:02Z</time>
      </trkpt>
      <trkpt lat="43.06904" lon="0.40878">
        <ele>526.6</ele>
        <time>2020-06-30T10:25:03Z</time>
      </trkpt>
      <trkpt lat="43.06905" lon="0.40874">
        <ele>526.8</ele>
        <time>2020-06-30T10:25:04Z</time>
      </trkpt>
      <trkpt lat="43.06906" lon="0.40869">
        <ele>526.8</ele>
        <time>2020-06-30T10:25:05Z</time>
      </trkpt>
      <trkpt lat="43.06906" lon="0.40863">
        <ele>526.8</ele>
        <time>2020-06-30T10:25:06Z</time>
      </trkpt>
      <trkpt lat="43.06907" lon="0.40858">
        <ele>527</ele>
        <time>2020-06-30T10:25:07Z</time>
      </trkpt>
      <trkpt lat="43.06908" lon="0.40854">
        <ele>527</ele>
        <time>2020-06-30T10:25:08Z</time>
      </trkpt>
      <trkpt lat="43.0691" lon="0.40849">
        <ele>527.2</ele>
        <time>2020-06-30T10:25:09Z</time>
      </trkpt>
      <trkpt lat="43.06912" lon="0.40845">
        <ele>527.2</ele>
        <time>2020-06-30T10:25:10Z</time>
      </trkpt>
      <trkpt lat="43.06913" lon="0.40841">
        <ele>527.2</ele>
        <time>2020-06-30T10:25:11Z</time>
      </trkpt>
      <trkpt lat="43.06914" lon="0.40836">
        <ele>527.2</ele>
        <time>2020-06-30T10:25:12Z</time>
      </trkpt>
      <trkpt lat="43.06915" lon="0.40831">
        <ele>527.4</ele>
        <time>2020-06-30T10:25:13Z</time>
      </trkpt>
      <trkpt lat="43.06916" lon="0.40825">
        <ele>527.4</ele>
        <time>2020-06-30T10:25:14Z</time>
      </trkpt>
      <trkpt lat="43.06918" lon="0.40821">
        <ele>527.4</ele>
        <time>2020-06-30T10:25:15Z</time>
      </trkpt>
      <trkpt lat="43.06919" lon="0.40816">
        <ele>527.6</ele>
        <time>2020-06-30T10:25:16Z</time>
      </trkpt>
      <trkpt lat="43.0692" lon="0.40812">
        <ele>527.6</ele>
        <time>2020-06-30T10:25:17Z</time>
      </trkpt>
      <trkpt lat="43.06922" lon="0.40807">
        <ele>527.8</ele>
        <time>2020-06-30T10:25:18Z</time>
      </trkpt>
      <trkpt lat="43.06923" lon="0.40803">
        <ele>527.8</ele>
        <time>2020-06-30T10:25:19Z</time>
      </trkpt>
      <trkpt lat="43.06923" lon="0.40799">
        <ele>528</ele>
        <time>2020-06-30T10:25:20Z</time>
      </trkpt>
      <trkpt lat="43.06924" lon="0.40795">
        <ele>528</ele>
        <time>2020-06-30T10:25:21Z</time>
      </trkpt>
      <trkpt lat="43.06925" lon="0.40791">
        <ele>528</ele>
        <time>2020-06-30T10:25:22Z</time>
      </trkpt>
      <trkpt lat="43.06926" lon="0.40788">
        <ele>528.2</ele>
        <time>2020-06-30T10:25:23Z</time>
      </trkpt>
      <trkpt lat="43.06927" lon="0.40785">
        <ele>528.2</ele>
        <time>2020-06-30T10:25:24Z</time>
      </trkpt>
      <trkpt lat="43.06928" lon="0.40781">
        <ele>528.4</ele>
        <time>2020-06-30T10:25:25Z</time>
      </trkpt>
      <trkpt lat="43.06929" lon="0.40778">
        <ele>528.4</ele>
        <time>2020-06-30T10:25:26Z</time>
      </trkpt>
      <trkpt lat="43.06929" lon="0.40775">
        <ele>528.4</ele>
        <time>2020-06-30T10:25:27Z</time>
      </trkpt>
      <trkpt lat="43.0693" lon="0.40772">
        <ele>528.2</ele>
        <time>2020-06-30T10:25:28Z</time>
      </trkpt>
      <trkpt lat="43.0693" lon="0.4077">
        <ele>528.4</ele>
        <time>2020-06-30T10:25:29Z</time>
      </trkpt>
      <trkpt lat="43.06931" lon="0.40768">
        <ele>528.4</ele>
        <time>2020-06-30T10:25:30Z</time>
      </trkpt>
      <trkpt lat="43.06932" lon="0.40765">
        <ele>528.4</ele>
        <time>2020-06-30T10:25:31Z</time>
      </trkpt>
      <trkpt lat="43.06932" lon="0.40763">
        <ele>528.2</ele>
        <time>2020-06-30T10:25:32Z</time>
      </trkpt>
      <trkpt lat="43.06934" lon="0.4076">
        <ele>528</ele>
        <time>2020-06-30T10:25:33Z</time>
      </trkpt>
      <trkpt lat="43.06936" lon="0.40757">
        <ele>528</ele>
        <time>2020-06-30T10:25:34Z</time>
      </trkpt>
      <trkpt lat="43.06936" lon="0.40754">
        <ele>527.8</ele>
        <time>2020-06-30T10:25:35Z</time>
      </trkpt>
      <trkpt lat="43.06937" lon="0.4075">
        <ele>527.8</ele>
        <time>2020-06-30T10:25:36Z</time>
      </trkpt>
      <trkpt lat="43.06938" lon="0.40747">
        <ele>527.8</ele>
        <time>2020-06-30T10:25:37Z</time>
      </trkpt>
      <trkpt lat="43.06938" lon="0.40744">
        <ele>527.8</ele>
        <time>2020-06-30T10:25:38Z</time>
      </trkpt>
      <trkpt lat="43.06939" lon="0.40741">
        <ele>527.6</ele>
        <time>2020-06-30T10:25:39Z</time>
      </trkpt>
      <trkpt lat="43.0694" lon="0.40738">
        <ele>527.6</ele>
        <time>2020-06-30T10:25:40Z</time>
      </trkpt>
      <trkpt lat="43.06941" lon="0.40734">
        <ele>527.4</ele>
        <time>2020-06-30T10:25:41Z</time>
      </trkpt>
      <trkpt lat="43.06942" lon="0.40731">
        <ele>527.4</ele>
        <time>2020-06-30T10:25:42Z</time>
      </trkpt>
      <trkpt lat="43.06942" lon="0.40725">
        <ele>527.2</ele>
        <time>2020-06-30T10:25:43Z</time>
      </trkpt>
      <trkpt lat="43.06941" lon="0.40717">
        <ele>527.2</ele>
        <time>2020-06-30T10:25:44Z</time>
      </trkpt>
      <trkpt lat="43.06943" lon="0.40712">
        <ele>527.2</ele>
        <time>2020-06-30T10:25:45Z</time>
      </trkpt>
      <trkpt lat="43.06945" lon="0.40707">
        <ele>527.2</ele>
        <time>2020-06-30T10:25:46Z</time>
      </trkpt>
      <trkpt lat="43.06946" lon="0.407">
        <ele>527</ele>
        <time>2020-06-30T10:25:47Z</time>
      </trkpt>
      <trkpt lat="43.06948" lon="0.40695">
        <ele>527</ele>
        <time>2020-06-30T10:25:48Z</time>
      </trkpt>
      <trkpt lat="43.06949" lon="0.40689">
        <ele>527</ele>
        <time>2020-06-30T10:25:49Z</time>
      </trkpt>
      <trkpt lat="43.06949" lon="0.40682">
        <ele>527.2</ele>
        <time>2020-06-30T10:25:50Z</time>
      </trkpt>
      <trkpt lat="43.06951" lon="0.40676">
        <ele>527.4</ele>
        <time>2020-06-30T10:25:51Z</time>
      </trkpt>
      <trkpt lat="43.06951" lon="0.4067">
        <ele>527.4</ele>
        <time>2020-06-30T10:25:52Z</time>
      </trkpt>
      <trkpt lat="43.06952" lon="0.40666">
        <ele>527.6</ele>
        <time>2020-06-30T10:25:53Z</time>
      </trkpt>
      <trkpt lat="43.06953" lon="0.4066">
        <ele>527.8</ele>
        <time>2020-06-30T10:25:54Z</time>
      </trkpt>
      <trkpt lat="43.06954" lon="0.40654">
        <ele>527.8</ele>
        <time>2020-06-30T10:25:55Z</time>
      </trkpt>
      <trkpt lat="43.06955" lon="0.40649">
        <ele>528</ele>
        <time>2020-06-30T10:25:56Z</time>
      </trkpt>
      <trkpt lat="43.06952" lon="0.40645">
        <ele>528.2</ele>
        <time>2020-06-30T10:25:57Z</time>
      </trkpt>
      <trkpt lat="43.06953" lon="0.40642">
        <ele>528.2</ele>
        <time>2020-06-30T10:25:58Z</time>
      </trkpt>
      <trkpt lat="43.06953" lon="0.40639">
        <ele>528.2</ele>
        <time>2020-06-30T10:25:59Z</time>
      </trkpt>
      <trkpt lat="43.06954" lon="0.40635">
        <ele>528.4</ele>
        <time>2020-06-30T10:26:00Z</time>
      </trkpt>
      <trkpt lat="43.06954" lon="0.40632">
        <ele>528.4</ele>
        <time>2020-06-30T10:26:01Z</time>
      </trkpt>
      <trkpt lat="43.06953" lon="0.40629">
        <ele>528.6</ele>
        <time>2020-06-30T10:26:02Z</time>
      </trkpt>
      <trkpt lat="43.06955" lon="0.40624">
        <ele>528.6</ele>
        <time>2020-06-30T10:26:03Z</time>
      </trkpt>
      <trkpt lat="43.06954" lon="0.40619">
        <ele>528.8</ele>
        <time>2020-06-30T10:26:04Z</time>
      </trkpt>
      <trkpt lat="43.06954" lon="0.40615">
        <ele>528.8</ele>
        <time>2020-06-30T10:26:05Z</time>
      </trkpt>
      <trkpt lat="43.06955" lon="0.40612">
        <ele>528.8</ele>
        <time>2020-06-30T10:26:06Z</time>
      </trkpt>
      <trkpt lat="43.06956" lon="0.40608">
        <ele>529</ele>
        <time>2020-06-30T10:26:07Z</time>
      </trkpt>
      <trkpt lat="43.06955" lon="0.40604">
        <ele>529</ele>
        <time>2020-06-30T10:26:08Z</time>
      </trkpt>
      <trkpt lat="43.06953" lon="0.40601">
        <ele>529</ele>
        <time>2020-06-30T10:26:09Z</time>
      </trkpt>
      <trkpt lat="43.06951" lon="0.40597">
        <ele>529</ele>
        <time>2020-06-30T10:26:10Z</time>
      </trkpt>
      <trkpt lat="43.06951" lon="0.40592">
        <ele>529</ele>
        <time>2020-06-30T10:26:11Z</time>
      </trkpt>
      <trkpt lat="43.06951" lon="0.40588">
        <ele>529</ele>
        <time>2020-06-30T10:26:12Z</time>
      </trkpt>
      <trkpt lat="43.0695" lon="0.40582">
        <ele>529</ele>
        <time>2020-06-30T10:26:13Z</time>
      </trkpt>
      <trkpt lat="43.06949" lon="0.40577">
        <ele>528.8</ele>
        <time>2020-06-30T10:26:14Z</time>
      </trkpt>
      <trkpt lat="43.0695" lon="0.40572">
        <ele>528.8</ele>
        <time>2020-06-30T10:26:15Z</time>
      </trkpt>
      <trkpt lat="43.06948" lon="0.40566">
        <ele>528.6</ele>
        <time>2020-06-30T10:26:16Z</time>
      </trkpt>
      <trkpt lat="43.06949" lon="0.4056">
        <ele>528.6</ele>
        <time>2020-06-30T10:26:17Z</time>
      </trkpt>
      <trkpt lat="43.0695" lon="0.40554">
        <ele>528.4</ele>
        <time>2020-06-30T10:26:18Z</time>
      </trkpt>
      <trkpt lat="43.06949" lon="0.40549">
        <ele>528.2</ele>
        <time>2020-06-30T10:26:19Z</time>
      </trkpt>
      <trkpt lat="43.06948" lon="0.40542">
        <ele>528</ele>
        <time>2020-06-30T10:26:20Z</time>
      </trkpt>
      <trkpt lat="43.06947" lon="0.40536">
        <ele>527.8</ele>
        <time>2020-06-30T10:26:21Z</time>
      </trkpt>
      <trkpt lat="43.06947" lon="0.40529">
        <ele>527.6</ele>
        <time>2020-06-30T10:26:22Z</time>
      </trkpt>
      <trkpt lat="43.06947" lon="0.4052">
        <ele>527.4</ele>
        <time>2020-06-30T10:26:23Z</time>
      </trkpt>
      <trkpt lat="43.06947" lon="0.40513">
        <ele>527</ele>
        <time>2020-06-30T10:26:24Z</time>
      </trkpt>
      <trkpt lat="43.06947" lon="0.40505">
        <ele>526.8</ele>
        <time>2020-06-30T10:26:25Z</time>
      </trkpt>
      <trkpt lat="43.06947" lon="0.40497">
        <ele>526.4</ele>
        <time>2020-06-30T10:26:26Z</time>
      </trkpt>
      <trkpt lat="43.06947" lon="0.40488">
        <ele>526.2</ele>
        <time>2020-06-30T10:26:27Z</time>
      </trkpt>
      <trkpt lat="43.06948" lon="0.40481">
        <ele>526</ele>
        <time>2020-06-30T10:26:28Z</time>
      </trkpt>
      <trkpt lat="43.06947" lon="0.40473">
        <ele>525.8</ele>
        <time>2020-06-30T10:26:29Z</time>
      </trkpt>
      <trkpt lat="43.06947" lon="0.40464">
        <ele>525.6</ele>
        <time>2020-06-30T10:26:30Z</time>
      </trkpt>
      <trkpt lat="43.06947" lon="0.40454">
        <ele>525.4</ele>
        <time>2020-06-30T10:26:31Z</time>
      </trkpt>
      <trkpt lat="43.06948" lon="0.40445">
        <ele>525</ele>
        <time>2020-06-30T10:26:32Z</time>
      </trkpt>
      <trkpt lat="43.06949" lon="0.40435">
        <ele>524.6</ele>
        <time>2020-06-30T10:26:33Z</time>
      </trkpt>
      <trkpt lat="43.06949" lon="0.40426">
        <ele>524.4</ele>
        <time>2020-06-30T10:26:34Z</time>
      </trkpt>
      <trkpt lat="43.0695" lon="0.40416">
        <ele>524</ele>
        <time>2020-06-30T10:26:35Z</time>
      </trkpt>
      <trkpt lat="43.06952" lon="0.40405">
        <ele>523.6</ele>
        <time>2020-06-30T10:26:36Z</time>
      </trkpt>
      <trkpt lat="43.06953" lon="0.40395">
        <ele>523.4</ele>
        <time>2020-06-30T10:26:37Z</time>
      </trkpt>
      <trkpt lat="43.06952" lon="0.40385">
        <ele>523.4</ele>
        <time>2020-06-30T10:26:38Z</time>
      </trkpt>
      <trkpt lat="43.06953" lon="0.40375">
        <ele>523.4</ele>
        <time>2020-06-30T10:26:39Z</time>
      </trkpt>
      <trkpt lat="43.06954" lon="0.40365">
        <ele>523.6</ele>
        <time>2020-06-30T10:26:40Z</time>
      </trkpt>
      <trkpt lat="43.06955" lon="0.40356">
        <ele>523.8</ele>
        <time>2020-06-30T10:26:41Z</time>
      </trkpt>
      <trkpt lat="43.06955" lon="0.40348">
        <ele>523.8</ele>
        <time>2020-06-30T10:26:42Z</time>
      </trkpt>
      <trkpt lat="43.06956" lon="0.40338">
        <ele>524</ele>
        <time>2020-06-30T10:26:43Z</time>
      </trkpt>
      <trkpt lat="43.06957" lon="0.40329">
        <ele>524.2</ele>
        <time>2020-06-30T10:26:44Z</time>
      </trkpt>
      <trkpt lat="43.06958" lon="0.40321">
        <ele>524.4</ele>
        <time>2020-06-30T10:26:45Z</time>
      </trkpt>
      <trkpt lat="43.06959" lon="0.40313">
        <ele>524.4</ele>
        <time>2020-06-30T10:26:46Z</time>
      </trkpt>
      <trkpt lat="43.06959" lon="0.40305">
        <ele>524.6</ele>
        <time>2020-06-30T10:26:47Z</time>
      </trkpt>
      <trkpt lat="43.06961" lon="0.40299">
        <ele>524.4</ele>
        <time>2020-06-30T10:26:48Z</time>
      </trkpt>
      <trkpt lat="43.06963" lon="0.40292">
        <ele>524.4</ele>
        <time>2020-06-30T10:26:49Z</time>
      </trkpt>
      <trkpt lat="43.06964" lon="0.40285">
        <ele>524.2</ele>
        <time>2020-06-30T10:26:50Z</time>
      </trkpt>
      <trkpt lat="43.06965" lon="0.40278">
        <ele>524.2</ele>
        <time>2020-06-30T10:26:51Z</time>
      </trkpt>
      <trkpt lat="43.06967" lon="0.40271">
        <ele>524</ele>
        <time>2020-06-30T10:26:52Z</time>
      </trkpt>
      <trkpt lat="43.06968" lon="0.40256">
        <ele>523.8</ele>
        <time>2020-06-30T10:26:53Z</time>
      </trkpt>
      <trkpt lat="43.06968" lon="0.40256">
        <ele>523.6</ele>
        <time>2020-06-30T10:26:54Z</time>
      </trkpt>
      <trkpt lat="43.06964" lon="0.40248">
        <ele>523.4</ele>
        <time>2020-06-30T10:26:55Z</time>
      </trkpt>
      <trkpt lat="43.06966" lon="0.4024">
        <ele>523.2</ele>
        <time>2020-06-30T10:26:56Z</time>
      </trkpt>
      <trkpt lat="43.06964" lon="0.40233">
        <ele>523.2</ele>
        <time>2020-06-30T10:26:57Z</time>
      </trkpt>
      <trkpt lat="43.06962" lon="0.40226">
        <ele>523</ele>
        <time>2020-06-30T10:26:58Z</time>
      </trkpt>
      <trkpt lat="43.06962" lon="0.40211">
        <ele>522.8</ele>
        <time>2020-06-30T10:26:59Z</time>
      </trkpt>
      <trkpt lat="43.06962" lon="0.40211">
        <ele>522.8</ele>
        <time>2020-06-30T10:27:00Z</time>
      </trkpt>
      <trkpt lat="43.06962" lon="0.40206">
        <ele>522.8</ele>
        <time>2020-06-30T10:27:01Z</time>
      </trkpt>
      <trkpt lat="43.06958" lon="0.40202">
        <ele>522.8</ele>
        <time>2020-06-30T10:27:02Z</time>
      </trkpt>
      <trkpt lat="43.06955" lon="0.40197">
        <ele>523</ele>
        <time>2020-06-30T10:27:03Z</time>
      </trkpt>
      <trkpt lat="43.06954" lon="0.40195">
        <ele>523</ele>
        <time>2020-06-30T10:27:04Z</time>
      </trkpt>
      <trkpt lat="43.06952" lon="0.40192">
        <ele>523</ele>
        <time>2020-06-30T10:27:05Z</time>
      </trkpt>
      <trkpt lat="43.06951" lon="0.40188">
        <ele>523</ele>
        <time>2020-06-30T10:27:06Z</time>
      </trkpt>
      <trkpt lat="43.06949" lon="0.40186">
        <ele>523.2</ele>
        <time>2020-06-30T10:27:07Z</time>
      </trkpt>
      <trkpt lat="43.06948" lon="0.40184">
        <ele>523.2</ele>
        <time>2020-06-30T10:27:08Z</time>
      </trkpt>
      <trkpt lat="43.06945" lon="0.40181">
        <ele>523.2</ele>
        <time>2020-06-30T10:27:09Z</time>
      </trkpt>
      <trkpt lat="43.06944" lon="0.40179">
        <ele>523.4</ele>
        <time>2020-06-30T10:27:10Z</time>
      </trkpt>
      <trkpt lat="43.06945" lon="0.40177">
        <ele>523.4</ele>
        <time>2020-06-30T10:27:11Z</time>
      </trkpt>
      <trkpt lat="43.06944" lon="0.40174">
        <ele>523.4</ele>
        <time>2020-06-30T10:27:12Z</time>
      </trkpt>
      <trkpt lat="43.06946" lon="0.40174">
        <ele>523.6</ele>
        <time>2020-06-30T10:27:13Z</time>
      </trkpt>
      <trkpt lat="43.06945" lon="0.40173">
        <ele>523.8</ele>
        <time>2020-06-30T10:27:14Z</time>
      </trkpt>
      <trkpt lat="43.06946" lon="0.40173">
        <ele>524</ele>
        <time>2020-06-30T10:27:15Z</time>
      </trkpt>
      <trkpt lat="43.06944" lon="0.40168">
        <ele>524</ele>
        <time>2020-06-30T10:27:16Z</time>
      </trkpt>
      <trkpt lat="43.06944" lon="0.40168">
        <ele>524</ele>
        <time>2020-06-30T10:27:17Z</time>
      </trkpt>
      <trkpt lat="43.06942" lon="0.40168">
        <ele>524.2</ele>
        <time>2020-06-30T10:27:18Z</time>
      </trkpt>
      <trkpt lat="43.0694" lon="0.40169">
        <ele>524.4</ele>
        <time>2020-06-30T10:27:19Z</time>
      </trkpt>
      <trkpt lat="43.06937" lon="0.40166">
        <ele>524.6</ele>
        <time>2020-06-30T10:27:20Z</time>
      </trkpt>
      <trkpt lat="43.06935" lon="0.40165">
        <ele>524.8</ele>
        <time>2020-06-30T10:27:21Z</time>
      </trkpt>
      <trkpt lat="43.06932" lon="0.40164">
        <ele>524.8</ele>
        <time>2020-06-30T10:27:22Z</time>
      </trkpt>
      <trkpt lat="43.0693" lon="0.40165">
        <ele>525</ele>
        <time>2020-06-30T10:27:23Z</time>
      </trkpt>
      <trkpt lat="43.06928" lon="0.40165">
        <ele>525.2</ele>
        <time>2020-06-30T10:27:24Z</time>
      </trkpt>
      <trkpt lat="43.06927" lon="0.40166">
        <ele>525.2</ele>
        <time>2020-06-30T10:27:25Z</time>
      </trkpt>
      <trkpt lat="43.06926" lon="0.40167">
        <ele>525.4</ele>
        <time>2020-06-30T10:27:26Z</time>
      </trkpt>
      <trkpt lat="43.06925" lon="0.40165">
        <ele>525.4</ele>
        <time>2020-06-30T10:27:27Z</time>
      </trkpt>
      <trkpt lat="43.06925" lon="0.40166">
        <ele>525.4</ele>
        <time>2020-06-30T10:27:28Z</time>
      </trkpt>
      <trkpt lat="43.06923" lon="0.40166">
        <ele>525.4</ele>
        <time>2020-06-30T10:27:29Z</time>
      </trkpt>
      <trkpt lat="43.06923" lon="0.40167">
        <ele>525.4</ele>
        <time>2020-06-30T10:27:30Z</time>
      </trkpt>
      <trkpt lat="43.06923" lon="0.40167">
        <ele>525.4</ele>
        <time>2020-06-30T10:27:31Z</time>
      </trkpt>
      <trkpt lat="43.06924" lon="0.40168">
        <ele>525.4</ele>
        <time>2020-06-30T10:27:32Z</time>
      </trkpt>
      <trkpt lat="43.06923" lon="0.40168">
        <ele>525.4</ele>
        <time>2020-06-30T10:27:33Z</time>
      </trkpt>
      <trkpt lat="43.06919" lon="0.40171">
        <ele>525.4</ele>
        <time>2020-06-30T10:27:34Z</time>
      </trkpt>
      <trkpt lat="43.06919" lon="0.40171">
        <ele>525.4</ele>
        <time>2020-06-30T10:27:35Z</time>
      </trkpt>
      <trkpt lat="43.06919" lon="0.40173">
        <ele>525.4</ele>
        <time>2020-06-30T10:27:36Z</time>
      </trkpt>
      <trkpt lat="43.06922" lon="0.40176">
        <ele>525.4</ele>
        <time>2020-06-30T10:27:37Z</time>
      </trkpt>
      <trkpt lat="43.06926" lon="0.40177">
        <ele>525.4</ele>
        <time>2020-06-30T10:27:38Z</time>
      </trkpt>
      <trkpt lat="43.06926" lon="0.40173">
        <ele>525.4</ele>
        <time>2020-06-30T10:27:39Z</time>
      </trkpt>
      <trkpt lat="43.06928" lon="0.40166">
        <ele>524.8</ele>
        <time>2020-06-30T10:44:07Z</time>
      </trkpt>
      <trkpt lat="43.06931" lon="0.40167">
        <ele>524.8</ele>
        <time>2020-06-30T10:44:08Z</time>
      </trkpt>
      <trkpt lat="43.06933" lon="0.40166">
        <ele>524.6</ele>
        <time>2020-06-30T10:44:09Z</time>
      </trkpt>
      <trkpt lat="43.06936" lon="0.40167">
        <ele>524.4</ele>
        <time>2020-06-30T10:44:10Z</time>
      </trkpt>
      <trkpt lat="43.06938" lon="0.40168">
        <ele>524.2</ele>
        <time>2020-06-30T10:44:11Z</time>
      </trkpt>
      <trkpt lat="43.06939" lon="0.40168">
        <ele>524.2</ele>
        <time>2020-06-30T10:44:12Z</time>
      </trkpt>
      <trkpt lat="43.06942" lon="0.40169">
        <ele>524</ele>
        <time>2020-06-30T10:44:13Z</time>
      </trkpt>
      <trkpt lat="43.06945" lon="0.40171">
        <ele>523.8</ele>
        <time>2020-06-30T10:44:14Z</time>
      </trkpt>
      <trkpt lat="43.06946" lon="0.40168">
        <ele>523.6</ele>
        <time>2020-06-30T10:44:15Z</time>
      </trkpt>
      <trkpt lat="43.06948" lon="0.40169">
        <ele>523.4</ele>
        <time>2020-06-30T10:44:16Z</time>
      </trkpt>
      <trkpt lat="43.06951" lon="0.40168">
        <ele>523.2</ele>
        <time>2020-06-30T10:44:17Z</time>
      </trkpt>
      <trkpt lat="43.06956" lon="0.4017">
        <ele>523</ele>
        <time>2020-06-30T10:44:18Z</time>
      </trkpt>
      <trkpt lat="43.06958" lon="0.4017">
        <ele>522.8</ele>
        <time>2020-06-30T10:44:19Z</time>
      </trkpt>
      <trkpt lat="43.06958" lon="0.40172">
        <ele>522.8</ele>
        <time>2020-06-30T10:44:20Z</time>
      </trkpt>
      <trkpt lat="43.06962" lon="0.4017">
        <ele>522.6</ele>
        <time>2020-06-30T10:44:21Z</time>
      </trkpt>
      <trkpt lat="43.06962" lon="0.40166">
        <ele>522.6</ele>
        <time>2020-06-30T10:44:22Z</time>
      </trkpt>
      <trkpt lat="43.06963" lon="0.40163">
        <ele>522.6</ele>
        <time>2020-06-30T10:44:23Z</time>
      </trkpt>
      <trkpt lat="43.06962" lon="0.40157">
        <ele>522.6</ele>
        <time>2020-06-30T10:44:24Z</time>
      </trkpt>
      <trkpt lat="43.06963" lon="0.40152">
        <ele>522.8</ele>
        <time>2020-06-30T10:44:25Z</time>
      </trkpt>
      <trkpt lat="43.06965" lon="0.40149">
        <ele>522.8</ele>
        <time>2020-06-30T10:44:26Z</time>
      </trkpt>
      <trkpt lat="43.06966" lon="0.40146">
        <ele>522.8</ele>
        <time>2020-06-30T10:44:27Z</time>
      </trkpt>
      <trkpt lat="43.06967" lon="0.40144">
        <ele>522.8</ele>
        <time>2020-06-30T10:44:28Z</time>
      </trkpt>
      <trkpt lat="43.06969" lon="0.40143">
        <ele>522.8</ele>
        <time>2020-06-30T10:44:29Z</time>
      </trkpt>
      <trkpt lat="43.0697" lon="0.40141">
        <ele>522.8</ele>
        <time>2020-06-30T10:44:30Z</time>
      </trkpt>
      <trkpt lat="43.06971" lon="0.40138">
        <ele>522.8</ele>
        <time>2020-06-30T10:44:31Z</time>
      </trkpt>
      <trkpt lat="43.06972" lon="0.40136">
        <ele>522.8</ele>
        <time>2020-06-30T10:44:32Z</time>
      </trkpt>
      <trkpt lat="43.06973" lon="0.40135">
        <ele>522.8</ele>
        <time>2020-06-30T10:44:33Z</time>
      </trkpt>
      <trkpt lat="43.06972" lon="0.40133">
        <ele>522.8</ele>
        <time>2020-06-30T10:44:34Z</time>
      </trkpt>
      <trkpt lat="43.06972" lon="0.40133">
        <ele>522.8</ele>
        <time>2020-06-30T10:44:35Z</time>
      </trkpt>
      <trkpt lat="43.06971" lon="0.40133">
        <ele>522.8</ele>
        <time>2020-06-30T10:44:36Z</time>
      </trkpt>
      <trkpt lat="43.06972" lon="0.40132">
        <ele>522.8</ele>
        <time>2020-06-30T10:44:37Z</time>
      </trkpt>
      <trkpt lat="43.06971" lon="0.40131">
        <ele>522.8</ele>
        <time>2020-06-30T10:44:38Z</time>
      </trkpt>
      <trkpt lat="43.06972" lon="0.40131">
        <ele>522.8</ele>
        <time>2020-06-30T10:44:39Z</time>
      </trkpt>
      <trkpt lat="43.0697" lon="0.40131">
        <ele>522.8</ele>
        <time>2020-06-30T10:44:40Z</time>
      </trkpt>
      <trkpt lat="43.0697" lon="0.4013">
        <ele>522.8</ele>
        <time>2020-06-30T10:44:41Z</time>
      </trkpt>
      <trkpt lat="43.06969" lon="0.40132">
        <ele>522.8</ele>
        <time>2020-06-30T10:44:42Z</time>
      </trkpt>
      <trkpt lat="43.06969" lon="0.4013">
        <ele>522.8</ele>
        <time>2020-06-30T10:44:43Z</time>
      </trkpt>
      <trkpt lat="43.06969" lon="0.40128">
        <ele>522.8</ele>
        <time>2020-06-30T10:44:44Z</time>
      </trkpt>
      <trkpt lat="43.06965" lon="0.40134">
        <ele>522.8</ele>
        <time>2020-06-30T10:44:51Z</time>
      </trkpt>
      <trkpt lat="43.06966" lon="0.40137">
        <ele>522.8</ele>
        <time>2020-06-30T10:44:52Z</time>
      </trkpt>
      <trkpt lat="43.06967" lon="0.40137">
        <ele>522.8</ele>
        <time>2020-06-30T10:44:53Z</time>
      </trkpt>
      <trkpt lat="43.06968" lon="0.40134">
        <ele>522.8</ele>
        <time>2020-06-30T10:44:54Z</time>
      </trkpt>
      <trkpt lat="43.06968" lon="0.40135">
        <ele>523</ele>
        <time>2020-06-30T10:44:55Z</time>
      </trkpt>
      <trkpt lat="43.0697" lon="0.40134">
        <ele>522.8</ele>
        <time>2020-06-30T10:44:56Z</time>
      </trkpt>
      <trkpt lat="43.0697" lon="0.4013">
        <ele>522.8</ele>
        <time>2020-06-30T10:44:57Z</time>
      </trkpt>
      <trkpt lat="43.06971" lon="0.40132">
        <ele>522.8</ele>
        <time>2020-06-30T10:44:58Z</time>
      </trkpt>
      <trkpt lat="43.06971" lon="0.40132">
        <ele>522.8</ele>
        <time>2020-06-30T10:44:59Z</time>
      </trkpt>
      <trkpt lat="43.06969" lon="0.40129">
        <ele>522.8</ele>
        <time>2020-06-30T10:45:00Z</time>
      </trkpt>
      <trkpt lat="43.06967" lon="0.40127">
        <ele>522.8</ele>
        <time>2020-06-30T10:45:01Z</time>
      </trkpt>
      <trkpt lat="43.06969" lon="0.40129">
        <ele>522.8</ele>
        <time>2020-06-30T10:45:02Z</time>
      </trkpt>
      <trkpt lat="43.06977" lon="0.40137">
        <ele>522.8</ele>
        <time>2020-06-30T10:45:23Z</time>
      </trkpt>
      <trkpt lat="43.06979" lon="0.4014">
        <ele>522.8</ele>
        <time>2020-06-30T10:45:24Z</time>
      </trkpt>
      <trkpt lat="43.06979" lon="0.40141">
        <ele>522.8</ele>
        <time>2020-06-30T10:45:25Z</time>
      </trkpt>
      <trkpt lat="43.06977" lon="0.40143">
        <ele>522.8</ele>
        <time>2020-06-30T10:45:26Z</time>
      </trkpt>
      <trkpt lat="43.06977" lon="0.40146">
        <ele>522.8</ele>
        <time>2020-06-30T10:45:27Z</time>
      </trkpt>
      <trkpt lat="43.06975" lon="0.40148">
        <ele>522.8</ele>
        <time>2020-06-30T10:45:28Z</time>
      </trkpt>
      <trkpt lat="43.06973" lon="0.4015">
        <ele>522.8</ele>
        <time>2020-06-30T10:45:29Z</time>
      </trkpt>
      <trkpt lat="43.06972" lon="0.40153">
        <ele>523</ele>
        <time>2020-06-30T10:45:30Z</time>
      </trkpt>
      <trkpt lat="43.06969" lon="0.40154">
        <ele>522.8</ele>
        <time>2020-06-30T10:45:31Z</time>
      </trkpt>
      <trkpt lat="43.06967" lon="0.40157">
        <ele>522.8</ele>
        <time>2020-06-30T10:45:32Z</time>
      </trkpt>
      <trkpt lat="43.06962" lon="0.40161">
        <ele>523</ele>
        <time>2020-06-30T10:45:33Z</time>
      </trkpt>
      <trkpt lat="43.06961" lon="0.40166">
        <ele>522.8</ele>
        <time>2020-06-30T10:45:34Z</time>
      </trkpt>
      <trkpt lat="43.06959" lon="0.4017">
        <ele>522.8</ele>
        <time>2020-06-30T10:45:35Z</time>
      </trkpt>
      <trkpt lat="43.06956" lon="0.40172">
        <ele>523</ele>
        <time>2020-06-30T10:45:36Z</time>
      </trkpt>
      <trkpt lat="43.06954" lon="0.40173">
        <ele>523.2</ele>
        <time>2020-06-30T10:45:37Z</time>
      </trkpt>
      <trkpt lat="43.06951" lon="0.40172">
        <ele>523.2</ele>
        <time>2020-06-30T10:45:38Z</time>
      </trkpt>
      <trkpt lat="43.0695" lon="0.40172">
        <ele>523.4</ele>
        <time>2020-06-30T10:45:39Z</time>
      </trkpt>
      <trkpt lat="43.06947" lon="0.40171">
        <ele>523.6</ele>
        <time>2020-06-30T10:45:40Z</time>
      </trkpt>
      <trkpt lat="43.06946" lon="0.40169">
        <ele>523.6</ele>
        <time>2020-06-30T10:45:41Z</time>
      </trkpt>
      <trkpt lat="43.06945" lon="0.4017">
        <ele>523.8</ele>
        <time>2020-06-30T10:45:42Z</time>
      </trkpt>
      <trkpt lat="43.06943" lon="0.40169">
        <ele>523.8</ele>
        <time>2020-06-30T10:45:43Z</time>
      </trkpt>
      <trkpt lat="43.06941" lon="0.40168">
        <ele>524</ele>
        <time>2020-06-30T10:45:44Z</time>
      </trkpt>
      <trkpt lat="43.06939" lon="0.40165">
        <ele>524</ele>
        <time>2020-06-30T10:45:45Z</time>
      </trkpt>
      <trkpt lat="43.06938" lon="0.40165">
        <ele>524.2</ele>
        <time>2020-06-30T10:45:46Z</time>
      </trkpt>
      <trkpt lat="43.06936" lon="0.40165">
        <ele>524.4</ele>
        <time>2020-06-30T10:45:47Z</time>
      </trkpt>
      <trkpt lat="43.06935" lon="0.40166">
        <ele>524.4</ele>
        <time>2020-06-30T10:45:48Z</time>
      </trkpt>
      <trkpt lat="43.06934" lon="0.40167">
        <ele>524.4</ele>
        <time>2020-06-30T10:45:49Z</time>
      </trkpt>
      <trkpt lat="43.06931" lon="0.40167">
        <ele>524.6</ele>
        <time>2020-06-30T10:45:50Z</time>
      </trkpt>
      <trkpt lat="43.0693" lon="0.40167">
        <ele>524.8</ele>
        <time>2020-06-30T10:45:51Z</time>
      </trkpt>
      <trkpt lat="43.06928" lon="0.40168">
        <ele>524.8</ele>
        <time>2020-06-30T10:45:52Z</time>
      </trkpt>
      <trkpt lat="43.06927" lon="0.40169">
        <ele>525</ele>
        <time>2020-06-30T10:45:53Z</time>
      </trkpt>
      <trkpt lat="43.06926" lon="0.40168">
        <ele>525</ele>
        <time>2020-06-30T10:45:54Z</time>
      </trkpt>
      <trkpt lat="43.06924" lon="0.40168">
        <ele>525</ele>
        <time>2020-06-30T10:45:55Z</time>
      </trkpt>
      <trkpt lat="43.06924" lon="0.4017">
        <ele>525.2</ele>
        <time>2020-06-30T10:45:56Z</time>
      </trkpt>
      <trkpt lat="43.06923" lon="0.40171">
        <ele>525.2</ele>
        <time>2020-06-30T10:45:57Z</time>
      </trkpt>
      <trkpt lat="43.06923" lon="0.40171">
        <ele>525.2</ele>
        <time>2020-06-30T10:45:58Z</time>
      </trkpt>
      <trkpt lat="43.06922" lon="0.40171">
        <ele>525.2</ele>
        <time>2020-06-30T10:45:59Z</time>
      </trkpt>
      <trkpt lat="43.06922" lon="0.40172">
        <ele>525.2</ele>
        <time>2020-06-30T10:46:00Z</time>
      </trkpt>
      <trkpt lat="43.06921" lon="0.40172">
        <ele>525.2</ele>
        <time>2020-06-30T10:46:01Z</time>
      </trkpt>
      <trkpt lat="43.06922" lon="0.40169">
        <ele>525.2</ele>
        <time>2020-06-30T10:46:02Z</time>
      </trkpt>
      <trkpt lat="43.06921" lon="0.4017">
        <ele>525.2</ele>
        <time>2020-06-30T10:46:03Z</time>
      </trkpt>
      <trkpt lat="43.06921" lon="0.40169">
        <ele>525.2</ele>
        <time>2020-06-30T10:46:04Z</time>
      </trkpt>
      <trkpt lat="43.06922" lon="0.40168">
        <ele>525.2</ele>
        <time>2020-06-30T10:46:05Z</time>
      </trkpt>
      <trkpt lat="43.06922" lon="0.40168">
        <ele>525.2</ele>
        <time>2020-06-30T10:46:06Z</time>
      </trkpt>
      <trkpt lat="43.06921" lon="0.40166">
        <ele>525.2</ele>
        <time>2020-06-30T10:46:07Z</time>
      </trkpt>
      <trkpt lat="43.0692" lon="0.40165">
        <ele>525.2</ele>
        <time>2020-06-30T10:46:08Z</time>
      </trkpt>
      <trkpt lat="43.0692" lon="0.40168">
        <ele>525.2</ele>
        <time>2020-06-30T10:46:09Z</time>
      </trkpt>
      <trkpt lat="43.06923" lon="0.40167">
        <ele>525</ele>
        <time>2020-06-30T11:35:57Z</time>
      </trkpt>
      <trkpt lat="43.06923" lon="0.40168">
        <ele>525</ele>
        <time>2020-06-30T11:35:58Z</time>
      </trkpt>
      <trkpt lat="43.06923" lon="0.40166">
        <ele>525</ele>
        <time>2020-06-30T11:35:59Z</time>
      </trkpt>
      <trkpt lat="43.06923" lon="0.40165">
        <ele>525</ele>
        <time>2020-06-30T11:36:00Z</time>
      </trkpt>
      <trkpt lat="43.06924" lon="0.40163">
        <ele>525</ele>
        <time>2020-06-30T11:36:01Z</time>
      </trkpt>
      <trkpt lat="43.06924" lon="0.40162">
        <ele>525</ele>
        <time>2020-06-30T11:36:02Z</time>
      </trkpt>
      <trkpt lat="43.06925" lon="0.40162">
        <ele>524.8</ele>
        <time>2020-06-30T11:36:03Z</time>
      </trkpt>
      <trkpt lat="43.06928" lon="0.40162">
        <ele>524.8</ele>
        <time>2020-06-30T11:36:04Z</time>
      </trkpt>
      <trkpt lat="43.06928" lon="0.40162">
        <ele>524.8</ele>
        <time>2020-06-30T11:36:05Z</time>
      </trkpt>
      <trkpt lat="43.06932" lon="0.40162">
        <ele>524.6</ele>
        <time>2020-06-30T11:36:06Z</time>
      </trkpt>
      <trkpt lat="43.06934" lon="0.40163">
        <ele>524.6</ele>
        <time>2020-06-30T11:36:07Z</time>
      </trkpt>
      <trkpt lat="43.06937" lon="0.40163">
        <ele>524.4</ele>
        <time>2020-06-30T11:36:08Z</time>
      </trkpt>
      <trkpt lat="43.06939" lon="0.40163">
        <ele>524.4</ele>
        <time>2020-06-30T11:36:09Z</time>
      </trkpt>
      <trkpt lat="43.06941" lon="0.40164">
        <ele>524.2</ele>
        <time>2020-06-30T11:36:10Z</time>
      </trkpt>
      <trkpt lat="43.06942" lon="0.40165">
        <ele>524</ele>
        <time>2020-06-30T11:36:11Z</time>
      </trkpt>
      <trkpt lat="43.06945" lon="0.40166">
        <ele>523.8</ele>
        <time>2020-06-30T11:36:12Z</time>
      </trkpt>
      <trkpt lat="43.06948" lon="0.40166">
        <ele>523.8</ele>
        <time>2020-06-30T11:36:13Z</time>
      </trkpt>
      <trkpt lat="43.06951" lon="0.40167">
        <ele>523.6</ele>
        <time>2020-06-30T11:36:14Z</time>
      </trkpt>
      <trkpt lat="43.06955" lon="0.40168">
        <ele>523.4</ele>
        <time>2020-06-30T11:36:15Z</time>
      </trkpt>
      <trkpt lat="43.06959" lon="0.40168">
        <ele>523.4</ele>
        <time>2020-06-30T11:36:16Z</time>
      </trkpt>
      <trkpt lat="43.06961" lon="0.40168">
        <ele>523.2</ele>
        <time>2020-06-30T11:36:17Z</time>
      </trkpt>
      <trkpt lat="43.06964" lon="0.40167">
        <ele>523.2</ele>
        <time>2020-06-30T11:36:18Z</time>
      </trkpt>
      <trkpt lat="43.06966" lon="0.40165">
        <ele>523</ele>
        <time>2020-06-30T11:36:19Z</time>
      </trkpt>
      <trkpt lat="43.06966" lon="0.40162">
        <ele>523</ele>
        <time>2020-06-30T11:36:20Z</time>
      </trkpt>
      <trkpt lat="43.06967" lon="0.40159">
        <ele>523</ele>
        <time>2020-06-30T11:36:21Z</time>
      </trkpt>
      <trkpt lat="43.06969" lon="0.40156">
        <ele>523</ele>
        <time>2020-06-30T11:36:22Z</time>
      </trkpt>
      <trkpt lat="43.06969" lon="0.40154">
        <ele>523</ele>
        <time>2020-06-30T11:36:23Z</time>
      </trkpt>
      <trkpt lat="43.0697" lon="0.40151">
        <ele>523</ele>
        <time>2020-06-30T11:36:24Z</time>
      </trkpt>
      <trkpt lat="43.06972" lon="0.40149">
        <ele>523</ele>
        <time>2020-06-30T11:36:25Z</time>
      </trkpt>
      <trkpt lat="43.06973" lon="0.40146">
        <ele>523</ele>
        <time>2020-06-30T11:36:26Z</time>
      </trkpt>
      <trkpt lat="43.06974" lon="0.40144">
        <ele>523</ele>
        <time>2020-06-30T11:36:27Z</time>
      </trkpt>
      <trkpt lat="43.06974" lon="0.40141">
        <ele>523</ele>
        <time>2020-06-30T11:36:28Z</time>
      </trkpt>
      <trkpt lat="43.06975" lon="0.40137">
        <ele>523</ele>
        <time>2020-06-30T11:36:29Z</time>
      </trkpt>
      <trkpt lat="43.06976" lon="0.40134">
        <ele>523.2</ele>
        <time>2020-06-30T11:36:30Z</time>
      </trkpt>
      <trkpt lat="43.06978" lon="0.40129">
        <ele>523</ele>
        <time>2020-06-30T11:36:31Z</time>
      </trkpt>
      <trkpt lat="43.06979" lon="0.40128">
        <ele>523</ele>
        <time>2020-06-30T11:36:32Z</time>
      </trkpt>
      <trkpt lat="43.0698" lon="0.40125">
        <ele>523</ele>
        <time>2020-06-30T11:36:33Z</time>
      </trkpt>
      <trkpt lat="43.06981" lon="0.40123">
        <ele>523</ele>
        <time>2020-06-30T11:36:34Z</time>
      </trkpt>
      <trkpt lat="43.06981" lon="0.40121">
        <ele>523</ele>
        <time>2020-06-30T11:36:35Z</time>
      </trkpt>
      <trkpt lat="43.06982" lon="0.4012">
        <ele>523</ele>
        <time>2020-06-30T11:36:36Z</time>
      </trkpt>
      <trkpt lat="43.06983" lon="0.4012">
        <ele>523</ele>
        <time>2020-06-30T11:36:37Z</time>
      </trkpt>
      <trkpt lat="43.06982" lon="0.40119">
        <ele>523</ele>
        <time>2020-06-30T11:36:38Z</time>
      </trkpt>
      <trkpt lat="43.0698" lon="0.40118">
        <ele>523</ele>
        <time>2020-06-30T11:36:39Z</time>
      </trkpt>
      <trkpt lat="43.06982" lon="0.40118">
        <ele>523</ele>
        <time>2020-06-30T11:36:40Z</time>
      </trkpt>
      <trkpt lat="43.06981" lon="0.40114">
        <ele>523</ele>
        <time>2020-06-30T11:36:41Z</time>
      </trkpt>
      <trkpt lat="43.06981" lon="0.40113">
        <ele>523.2</ele>
        <time>2020-06-30T11:36:42Z</time>
      </trkpt>
      <trkpt lat="43.0698" lon="0.40114">
        <ele>523.2</ele>
        <time>2020-06-30T11:36:43Z</time>
      </trkpt>
      <trkpt lat="43.06982" lon="0.40116">
        <ele>523.2</ele>
        <time>2020-06-30T11:36:44Z</time>
      </trkpt>
      <trkpt lat="43.06983" lon="0.40117">
        <ele>523.2</ele>
        <time>2020-06-30T11:36:45Z</time>
      </trkpt>
      <trkpt lat="43.06983" lon="0.40117">
        <ele>523.2</ele>
        <time>2020-06-30T11:36:46Z</time>
      </trkpt>
      <trkpt lat="43.06984" lon="0.40117">
        <ele>523</ele>
        <time>2020-06-30T11:36:47Z</time>
      </trkpt>
      <trkpt lat="43.06984" lon="0.40117">
        <ele>522.8</ele>
        <time>2020-06-30T11:36:48Z</time>
      </trkpt>
      <trkpt lat="43.06984" lon="0.40116">
        <ele>523</ele>
        <time>2020-06-30T11:36:49Z</time>
      </trkpt>
      <trkpt lat="43.06986" lon="0.40116">
        <ele>523.4</ele>
        <time>2020-06-30T11:36:50Z</time>
      </trkpt>
      <trkpt lat="43.06983" lon="0.40112">
        <ele>523.8</ele>
        <time>2020-06-30T11:36:51Z</time>
      </trkpt>
      <trkpt lat="43.0698" lon="0.40111">
        <ele>523.4</ele>
        <time>2020-06-30T11:36:52Z</time>
      </trkpt>
      <trkpt lat="43.06984" lon="0.40112">
        <ele>523.2</ele>
        <time>2020-06-30T11:36:53Z</time>
      </trkpt>
      <trkpt lat="43.06983" lon="0.40114">
        <ele>523.2</ele>
        <time>2020-06-30T11:36:54Z</time>
      </trkpt>
      <trkpt lat="43.06983" lon="0.40113">
        <ele>523.2</ele>
        <time>2020-06-30T11:36:55Z</time>
      </trkpt>
      <trkpt lat="43.06991" lon="0.40114">
        <ele>523.6</ele>
        <time>2020-06-30T11:37:44Z</time>
      </trkpt>
      <trkpt lat="43.06989" lon="0.40114">
        <ele>523.6</ele>
        <time>2020-06-30T11:37:45Z</time>
      </trkpt>
      <trkpt lat="43.0699" lon="0.40115">
        <ele>523.8</ele>
        <time>2020-06-30T11:37:46Z</time>
      </trkpt>
      <trkpt lat="43.06989" lon="0.40115">
        <ele>523.8</ele>
        <time>2020-06-30T11:37:47Z</time>
      </trkpt>
      <trkpt lat="43.06984" lon="0.40113">
        <ele>523.8</ele>
        <time>2020-06-30T11:37:48Z</time>
      </trkpt>
      <trkpt lat="43.06985" lon="0.40115">
        <ele>523.8</ele>
        <time>2020-06-30T11:37:49Z</time>
      </trkpt>
      <trkpt lat="43.06984" lon="0.40114">
        <ele>523.8</ele>
        <time>2020-06-30T11:37:50Z</time>
      </trkpt>
      <trkpt lat="43.06984" lon="0.40115">
        <ele>523.8</ele>
        <time>2020-06-30T11:37:51Z</time>
      </trkpt>
      <trkpt lat="43.06984" lon="0.40114">
        <ele>523.8</ele>
        <time>2020-06-30T11:37:52Z</time>
      </trkpt>
      <trkpt lat="43.06983" lon="0.40114">
        <ele>523.8</ele>
        <time>2020-06-30T11:37:53Z</time>
      </trkpt>
      <trkpt lat="43.0698" lon="0.40114">
        <ele>523.8</ele>
        <time>2020-06-30T11:37:54Z</time>
      </trkpt>
      <trkpt lat="43.06979" lon="0.40113">
        <ele>524</ele>
        <time>2020-06-30T11:38:36Z</time>
      </trkpt>
      <trkpt lat="43.06985" lon="0.40114">
        <ele>524.2</ele>
        <time>2020-06-30T11:38:37Z</time>
      </trkpt>
      <trkpt lat="43.06988" lon="0.40112">
        <ele>524.2</ele>
        <time>2020-06-30T11:38:38Z</time>
      </trkpt>
      <trkpt lat="43.0699" lon="0.40111">
        <ele>524</ele>
        <time>2020-06-30T11:38:39Z</time>
      </trkpt>
      <trkpt lat="43.06992" lon="0.40108">
        <ele>523.8</ele>
        <time>2020-06-30T11:38:40Z</time>
      </trkpt>
      <trkpt lat="43.06992" lon="0.40105">
        <ele>523.6</ele>
        <time>2020-06-30T11:38:41Z</time>
      </trkpt>
      <trkpt lat="43.06994" lon="0.40102">
        <ele>523.4</ele>
        <time>2020-06-30T11:38:42Z</time>
      </trkpt>
      <trkpt lat="43.06999" lon="0.40098">
        <ele>523.4</ele>
        <time>2020-06-30T11:38:43Z</time>
      </trkpt>
      <trkpt lat="43.07002" lon="0.40094">
        <ele>523.2</ele>
        <time>2020-06-30T11:38:44Z</time>
      </trkpt>
      <trkpt lat="43.07006" lon="0.40088">
        <ele>523.2</ele>
        <time>2020-06-30T11:38:45Z</time>
      </trkpt>
      <trkpt lat="43.07009" lon="0.40084">
        <ele>522.8</ele>
        <time>2020-06-30T11:38:46Z</time>
      </trkpt>
      <trkpt lat="43.07014" lon="0.40077">
        <ele>522.4</ele>
        <time>2020-06-30T11:38:47Z</time>
      </trkpt>
      <trkpt lat="43.07019" lon="0.40072">
        <ele>522</ele>
        <time>2020-06-30T11:38:48Z</time>
      </trkpt>
      <trkpt lat="43.07018" lon="0.40063">
        <ele>521.6</ele>
        <time>2020-06-30T11:38:49Z</time>
      </trkpt>
      <trkpt lat="43.0702" lon="0.40059">
        <ele>521</ele>
        <time>2020-06-30T11:38:50Z</time>
      </trkpt>
      <trkpt lat="43.07025" lon="0.40055">
        <ele>520.6</ele>
        <time>2020-06-30T11:38:51Z</time>
      </trkpt>
      <trkpt lat="43.07031" lon="0.40049">
        <ele>520</ele>
        <time>2020-06-30T11:38:52Z</time>
      </trkpt>
      <trkpt lat="43.07039" lon="0.40046">
        <ele>519.6</ele>
        <time>2020-06-30T11:38:53Z</time>
      </trkpt>
      <trkpt lat="43.07046" lon="0.40039">
        <ele>519.2</ele>
        <time>2020-06-30T11:38:54Z</time>
      </trkpt>
      <trkpt lat="43.07049" lon="0.40034">
        <ele>518.6</ele>
        <time>2020-06-30T11:38:55Z</time>
      </trkpt>
      <trkpt lat="43.07056" lon="0.40028">
        <ele>517.8</ele>
        <time>2020-06-30T11:38:56Z</time>
      </trkpt>
      <trkpt lat="43.07063" lon="0.4002">
        <ele>517</ele>
        <time>2020-06-30T11:38:57Z</time>
      </trkpt>
      <trkpt lat="43.07069" lon="0.40011">
        <ele>516.4</ele>
        <time>2020-06-30T11:38:58Z</time>
      </trkpt>
      <trkpt lat="43.07077" lon="0.40002">
        <ele>516</ele>
        <time>2020-06-30T11:38:59Z</time>
      </trkpt>
      <trkpt lat="43.07083" lon="0.39992">
        <ele>515.6</ele>
        <time>2020-06-30T11:39:00Z</time>
      </trkpt>
      <trkpt lat="43.07091" lon="0.39979">
        <ele>515</ele>
        <time>2020-06-30T11:39:01Z</time>
      </trkpt>
      <trkpt lat="43.07097" lon="0.39969">
        <ele>514.2</ele>
        <time>2020-06-30T11:39:02Z</time>
      </trkpt>
      <trkpt lat="43.07103" lon="0.39958">
        <ele>513.4</ele>
        <time>2020-06-30T11:39:03Z</time>
      </trkpt>
      <trkpt lat="43.07106" lon="0.39943">
        <ele>512.8</ele>
        <time>2020-06-30T11:39:04Z</time>
      </trkpt>
      <trkpt lat="43.07109" lon="0.3993">
        <ele>512</ele>
        <time>2020-06-30T11:39:05Z</time>
      </trkpt>
      <trkpt lat="43.07112" lon="0.39916">
        <ele>511</ele>
        <time>2020-06-30T11:39:06Z</time>
      </trkpt>
      <trkpt lat="43.07114" lon="0.39902">
        <ele>510.4</ele>
        <time>2020-06-30T11:39:07Z</time>
      </trkpt>
      <trkpt lat="43.07116" lon="0.39888">
        <ele>509.8</ele>
        <time>2020-06-30T11:39:08Z</time>
      </trkpt>
      <trkpt lat="43.07119" lon="0.39873">
        <ele>509.4</ele>
        <time>2020-06-30T11:39:09Z</time>
      </trkpt>
      <trkpt lat="43.0712" lon="0.3986">
        <ele>509.2</ele>
        <time>2020-06-30T11:39:10Z</time>
      </trkpt>
      <trkpt lat="43.07121" lon="0.39845">
        <ele>508.8</ele>
        <time>2020-06-30T11:39:11Z</time>
      </trkpt>
      <trkpt lat="43.07121" lon="0.39831">
        <ele>508.2</ele>
        <time>2020-06-30T11:39:12Z</time>
      </trkpt>
      <trkpt lat="43.07121" lon="0.39818">
        <ele>507.8</ele>
        <time>2020-06-30T11:39:13Z</time>
      </trkpt>
      <trkpt lat="43.07122" lon="0.39805">
        <ele>507.2</ele>
        <time>2020-06-30T11:39:14Z</time>
      </trkpt>
      <trkpt lat="43.07125" lon="0.39793">
        <ele>506.6</ele>
        <time>2020-06-30T11:39:15Z</time>
      </trkpt>
      <trkpt lat="43.07132" lon="0.39783">
        <ele>506</ele>
        <time>2020-06-30T11:39:16Z</time>
      </trkpt>
      <trkpt lat="43.07142" lon="0.39775">
        <ele>505.8</ele>
        <time>2020-06-30T11:39:17Z</time>
      </trkpt>
      <trkpt lat="43.07151" lon="0.3977">
        <ele>505.6</ele>
        <time>2020-06-30T11:39:18Z</time>
      </trkpt>
      <trkpt lat="43.0716" lon="0.39765">
        <ele>505.2</ele>
        <time>2020-06-30T11:39:19Z</time>
      </trkpt>
      <trkpt lat="43.07168" lon="0.39759">
        <ele>505</ele>
        <time>2020-06-30T11:39:20Z</time>
      </trkpt>
      <trkpt lat="43.07177" lon="0.39754">
        <ele>504.8</ele>
        <time>2020-06-30T11:39:21Z</time>
      </trkpt>
      <trkpt lat="43.07185" lon="0.39749">
        <ele>504.6</ele>
        <time>2020-06-30T11:39:22Z</time>
      </trkpt>
      <trkpt lat="43.07192" lon="0.39746">
        <ele>504.4</ele>
        <time>2020-06-30T11:39:23Z</time>
      </trkpt>
      <trkpt lat="43.07198" lon="0.39741">
        <ele>504.6</ele>
        <time>2020-06-30T11:39:24Z</time>
      </trkpt>
      <trkpt lat="43.07204" lon="0.39737">
        <ele>504.4</ele>
        <time>2020-06-30T11:39:25Z</time>
      </trkpt>
      <trkpt lat="43.07213" lon="0.39732">
        <ele>504.4</ele>
        <time>2020-06-30T11:39:26Z</time>
      </trkpt>
      <trkpt lat="43.07223" lon="0.39726">
        <ele>504.4</ele>
        <time>2020-06-30T11:39:27Z</time>
      </trkpt>
      <trkpt lat="43.0723" lon="0.39721">
        <ele>504.4</ele>
        <time>2020-06-30T11:39:28Z</time>
      </trkpt>
      <trkpt lat="43.07239" lon="0.39713">
        <ele>504.4</ele>
        <time>2020-06-30T11:39:29Z</time>
      </trkpt>
      <trkpt lat="43.07245" lon="0.39707">
        <ele>504.6</ele>
        <time>2020-06-30T11:39:30Z</time>
      </trkpt>
      <trkpt lat="43.07251" lon="0.39701">
        <ele>504.8</ele>
        <time>2020-06-30T11:39:31Z</time>
      </trkpt>
      <trkpt lat="43.07257" lon="0.39694">
        <ele>505</ele>
        <time>2020-06-30T11:39:32Z</time>
      </trkpt>
      <trkpt lat="43.07258" lon="0.39687">
        <ele>505.4</ele>
        <time>2020-06-30T11:39:33Z</time>
      </trkpt>
      <trkpt lat="43.07264" lon="0.39682">
        <ele>505.6</ele>
        <time>2020-06-30T11:39:34Z</time>
      </trkpt>
      <trkpt lat="43.07269" lon="0.39674">
        <ele>505.8</ele>
        <time>2020-06-30T11:39:35Z</time>
      </trkpt>
      <trkpt lat="43.07272" lon="0.39668">
        <ele>505.8</ele>
        <time>2020-06-30T11:39:36Z</time>
      </trkpt>
      <trkpt lat="43.07275" lon="0.39662">
        <ele>505.8</ele>
        <time>2020-06-30T11:39:37Z</time>
      </trkpt>
      <trkpt lat="43.07278" lon="0.39656">
        <ele>505.6</ele>
        <time>2020-06-30T11:39:38Z</time>
      </trkpt>
      <trkpt lat="43.0728" lon="0.3965">
        <ele>505.8</ele>
        <time>2020-06-30T11:39:39Z</time>
      </trkpt>
      <trkpt lat="43.07283" lon="0.39645">
        <ele>505.8</ele>
        <time>2020-06-30T11:39:40Z</time>
      </trkpt>
      <trkpt lat="43.07285" lon="0.39641">
        <ele>505.8</ele>
        <time>2020-06-30T11:39:41Z</time>
      </trkpt>
      <trkpt lat="43.07288" lon="0.39635">
        <ele>505.8</ele>
        <time>2020-06-30T11:39:42Z</time>
      </trkpt>
      <trkpt lat="43.07292" lon="0.39627">
        <ele>505.8</ele>
        <time>2020-06-30T11:39:43Z</time>
      </trkpt>
      <trkpt lat="43.07297" lon="0.39621">
        <ele>505.6</ele>
        <time>2020-06-30T11:39:44Z</time>
      </trkpt>
      <trkpt lat="43.07303" lon="0.39617">
        <ele>505.6</ele>
        <time>2020-06-30T11:39:45Z</time>
      </trkpt>
      <trkpt lat="43.07307" lon="0.39609">
        <ele>505.6</ele>
        <time>2020-06-30T11:39:46Z</time>
      </trkpt>
      <trkpt lat="43.07311" lon="0.39603">
        <ele>505.6</ele>
        <time>2020-06-30T11:39:47Z</time>
      </trkpt>
      <trkpt lat="43.07315" lon="0.39598">
        <ele>505.6</ele>
        <time>2020-06-30T11:39:48Z</time>
      </trkpt>
      <trkpt lat="43.07319" lon="0.39594">
        <ele>505.8</ele>
        <time>2020-06-30T11:39:49Z</time>
      </trkpt>
      <trkpt lat="43.07321" lon="0.3959">
        <ele>506</ele>
        <time>2020-06-30T11:39:50Z</time>
      </trkpt>
      <trkpt lat="43.07326" lon="0.39586">
        <ele>506.2</ele>
        <time>2020-06-30T11:39:51Z</time>
      </trkpt>
      <trkpt lat="43.0733" lon="0.39581">
        <ele>506.4</ele>
        <time>2020-06-30T11:39:52Z</time>
      </trkpt>
      <trkpt lat="43.07332" lon="0.39576">
        <ele>506</ele>
        <time>2020-06-30T11:39:53Z</time>
      </trkpt>
      <trkpt lat="43.07333" lon="0.39572">
        <ele>506</ele>
        <time>2020-06-30T11:39:54Z</time>
      </trkpt>
      <trkpt lat="43.07333" lon="0.39566">
        <ele>507.6</ele>
        <time>2020-06-30T11:39:55Z</time>
      </trkpt>
      <trkpt lat="43.07332" lon="0.39557">
        <ele>507.4</ele>
        <time>2020-06-30T11:39:56Z</time>
      </trkpt>
      <trkpt lat="43.07332" lon="0.39553">
        <ele>507.8</ele>
        <time>2020-06-30T11:39:57Z</time>
      </trkpt>
      <trkpt lat="43.07333" lon="0.39549">
        <ele>508</ele>
        <time>2020-06-30T11:39:58Z</time>
      </trkpt>
      <trkpt lat="43.07334" lon="0.39546">
        <ele>508.2</ele>
        <time>2020-06-30T11:39:59Z</time>
      </trkpt>
      <trkpt lat="43.07335" lon="0.39543">
        <ele>508.4</ele>
        <time>2020-06-30T11:40:00Z</time>
      </trkpt>
      <trkpt lat="43.07336" lon="0.3954">
        <ele>508.6</ele>
        <time>2020-06-30T11:40:01Z</time>
      </trkpt>
      <trkpt lat="43.07336" lon="0.39539">
        <ele>508.8</ele>
        <time>2020-06-30T11:40:02Z</time>
      </trkpt>
      <trkpt lat="43.07338" lon="0.39536">
        <ele>509</ele>
        <time>2020-06-30T11:40:03Z</time>
      </trkpt>
      <trkpt lat="43.07338" lon="0.39532">
        <ele>509.2</ele>
        <time>2020-06-30T11:40:04Z</time>
      </trkpt>
      <trkpt lat="43.07338" lon="0.39529">
        <ele>509.2</ele>
        <time>2020-06-30T11:40:05Z</time>
      </trkpt>
      <trkpt lat="43.07339" lon="0.39527">
        <ele>509.6</ele>
        <time>2020-06-30T11:40:06Z</time>
      </trkpt>
      <trkpt lat="43.0734" lon="0.39525">
        <ele>509.8</ele>
        <time>2020-06-30T11:40:07Z</time>
      </trkpt>
      <trkpt lat="43.0734" lon="0.39522">
        <ele>509.8</ele>
        <time>2020-06-30T11:40:08Z</time>
      </trkpt>
      <trkpt lat="43.07341" lon="0.39519">
        <ele>510</ele>
        <time>2020-06-30T11:40:09Z</time>
      </trkpt>
      <trkpt lat="43.07341" lon="0.39517">
        <ele>510.2</ele>
        <time>2020-06-30T11:40:10Z</time>
      </trkpt>
      <trkpt lat="43.07341" lon="0.39513">
        <ele>510.2</ele>
        <time>2020-06-30T11:40:11Z</time>
      </trkpt>
      <trkpt lat="43.07341" lon="0.3951">
        <ele>510.6</ele>
        <time>2020-06-30T11:40:12Z</time>
      </trkpt>
      <trkpt lat="43.07341" lon="0.39507">
        <ele>510.8</ele>
        <time>2020-06-30T11:40:13Z</time>
      </trkpt>
      <trkpt lat="43.0734" lon="0.39505">
        <ele>510.8</ele>
        <time>2020-06-30T11:40:14Z</time>
      </trkpt>
      <trkpt lat="43.07341" lon="0.39502">
        <ele>511</ele>
        <time>2020-06-30T11:40:15Z</time>
      </trkpt>
      <trkpt lat="43.07341" lon="0.395">
        <ele>511</ele>
        <time>2020-06-30T11:40:16Z</time>
      </trkpt>
      <trkpt lat="43.07341" lon="0.39498">
        <ele>511.2</ele>
        <time>2020-06-30T11:40:17Z</time>
      </trkpt>
      <trkpt lat="43.07342" lon="0.39496">
        <ele>511.4</ele>
        <time>2020-06-30T11:40:18Z</time>
      </trkpt>
      <trkpt lat="43.07343" lon="0.39495">
        <ele>511.6</ele>
        <time>2020-06-30T11:40:19Z</time>
      </trkpt>
      <trkpt lat="43.07343" lon="0.39494">
        <ele>511.8</ele>
        <time>2020-06-30T11:40:20Z</time>
      </trkpt>
      <trkpt lat="43.07344" lon="0.39492">
        <ele>511.8</ele>
        <time>2020-06-30T11:40:21Z</time>
      </trkpt>
      <trkpt lat="43.07344" lon="0.3949">
        <ele>512</ele>
        <time>2020-06-30T11:40:22Z</time>
      </trkpt>
      <trkpt lat="43.07345" lon="0.39488">
        <ele>512</ele>
        <time>2020-06-30T11:40:23Z</time>
      </trkpt>
      <trkpt lat="43.07345" lon="0.39486">
        <ele>512.2</ele>
        <time>2020-06-30T11:40:24Z</time>
      </trkpt>
      <trkpt lat="43.07345" lon="0.39483">
        <ele>512.4</ele>
        <time>2020-06-30T11:40:25Z</time>
      </trkpt>
      <trkpt lat="43.07345" lon="0.3948">
        <ele>512.4</ele>
        <time>2020-06-30T11:40:26Z</time>
      </trkpt>
      <trkpt lat="43.07346" lon="0.39479">
        <ele>512.8</ele>
        <time>2020-06-30T11:40:27Z</time>
      </trkpt>
      <trkpt lat="43.07347" lon="0.39477">
        <ele>512.8</ele>
        <time>2020-06-30T11:40:28Z</time>
      </trkpt>
      <trkpt lat="43.07346" lon="0.39473">
        <ele>513</ele>
        <time>2020-06-30T11:40:29Z</time>
      </trkpt>
      <trkpt lat="43.07348" lon="0.39472">
        <ele>513</ele>
        <time>2020-06-30T11:40:30Z</time>
      </trkpt>
      <trkpt lat="43.07348" lon="0.39471">
        <ele>513.2</ele>
        <time>2020-06-30T11:40:31Z</time>
      </trkpt>
      <trkpt lat="43.07349" lon="0.39469">
        <ele>513.2</ele>
        <time>2020-06-30T11:40:32Z</time>
      </trkpt>
      <trkpt lat="43.07348" lon="0.39468">
        <ele>513.4</ele>
        <time>2020-06-30T11:40:33Z</time>
      </trkpt>
      <trkpt lat="43.07347" lon="0.39465">
        <ele>513.6</ele>
        <time>2020-06-30T11:40:34Z</time>
      </trkpt>
      <trkpt lat="43.07346" lon="0.39464">
        <ele>513.6</ele>
        <time>2020-06-30T11:40:35Z</time>
      </trkpt>
      <trkpt lat="43.07347" lon="0.39462">
        <ele>513.8</ele>
        <time>2020-06-30T11:40:36Z</time>
      </trkpt>
      <trkpt lat="43.07345" lon="0.39457">
        <ele>514</ele>
        <time>2020-06-30T11:40:37Z</time>
      </trkpt>
      <trkpt lat="43.07344" lon="0.39455">
        <ele>514.2</ele>
        <time>2020-06-30T11:40:38Z</time>
      </trkpt>
      <trkpt lat="43.07344" lon="0.39454">
        <ele>514.4</ele>
        <time>2020-06-30T11:40:39Z</time>
      </trkpt>
      <trkpt lat="43.07343" lon="0.39452">
        <ele>514.4</ele>
        <time>2020-06-30T11:40:40Z</time>
      </trkpt>
      <trkpt lat="43.07345" lon="0.3945">
        <ele>514.6</ele>
        <time>2020-06-30T11:40:41Z</time>
      </trkpt>
      <trkpt lat="43.07346" lon="0.39448">
        <ele>514.6</ele>
        <time>2020-06-30T11:40:42Z</time>
      </trkpt>
      <trkpt lat="43.07347" lon="0.39447">
        <ele>515</ele>
        <time>2020-06-30T11:40:43Z</time>
      </trkpt>
      <trkpt lat="43.07347" lon="0.39446">
        <ele>515</ele>
        <time>2020-06-30T11:40:44Z</time>
      </trkpt>
      <trkpt lat="43.07344" lon="0.39442">
        <ele>515.2</ele>
        <time>2020-06-30T11:40:45Z</time>
      </trkpt>
      <trkpt lat="43.07345" lon="0.3944">
        <ele>515.2</ele>
        <time>2020-06-30T11:40:46Z</time>
      </trkpt>
      <trkpt lat="43.07346" lon="0.39438">
        <ele>515.4</ele>
        <time>2020-06-30T11:40:47Z</time>
      </trkpt>
      <trkpt lat="43.07346" lon="0.39435">
        <ele>515.4</ele>
        <time>2020-06-30T11:40:48Z</time>
      </trkpt>
      <trkpt lat="43.07346" lon="0.39432">
        <ele>515.6</ele>
        <time>2020-06-30T11:40:49Z</time>
      </trkpt>
      <trkpt lat="43.07346" lon="0.39431">
        <ele>515.8</ele>
        <time>2020-06-30T11:40:50Z</time>
      </trkpt>
      <trkpt lat="43.07345" lon="0.39428">
        <ele>515.8</ele>
        <time>2020-06-30T11:40:51Z</time>
      </trkpt>
      <trkpt lat="43.07347" lon="0.39427">
        <ele>516</ele>
        <time>2020-06-30T11:40:52Z</time>
      </trkpt>
      <trkpt lat="43.07345" lon="0.39426">
        <ele>516</ele>
        <time>2020-06-30T11:40:53Z</time>
      </trkpt>
      <trkpt lat="43.07346" lon="0.39425">
        <ele>516.2</ele>
        <time>2020-06-30T11:40:54Z</time>
      </trkpt>
      <trkpt lat="43.07345" lon="0.39422">
        <ele>516.4</ele>
        <time>2020-06-30T11:40:55Z</time>
      </trkpt>
      <trkpt lat="43.07344" lon="0.39419">
        <ele>516.4</ele>
        <time>2020-06-30T11:40:56Z</time>
      </trkpt>
      <trkpt lat="43.07343" lon="0.39417">
        <ele>516.6</ele>
        <time>2020-06-30T11:40:57Z</time>
      </trkpt>
      <trkpt lat="43.07342" lon="0.39414">
        <ele>516.8</ele>
        <time>2020-06-30T11:40:58Z</time>
      </trkpt>
      <trkpt lat="43.07343" lon="0.39412">
        <ele>516.8</ele>
        <time>2020-06-30T11:40:59Z</time>
      </trkpt>
      <trkpt lat="43.07342" lon="0.3941">
        <ele>516.8</ele>
        <time>2020-06-30T11:41:00Z</time>
      </trkpt>
      <trkpt lat="43.07342" lon="0.39408">
        <ele>517</ele>
        <time>2020-06-30T11:41:01Z</time>
      </trkpt>
      <trkpt lat="43.07341" lon="0.39406">
        <ele>517.2</ele>
        <time>2020-06-30T11:41:02Z</time>
      </trkpt>
      <trkpt lat="43.07341" lon="0.39404">
        <ele>517.2</ele>
        <time>2020-06-30T11:41:03Z</time>
      </trkpt>
      <trkpt lat="43.07342" lon="0.39403">
        <ele>517.4</ele>
        <time>2020-06-30T11:41:04Z</time>
      </trkpt>
      <trkpt lat="43.07342" lon="0.39401">
        <ele>517.4</ele>
        <time>2020-06-30T11:41:05Z</time>
      </trkpt>
      <trkpt lat="43.07342" lon="0.39399">
        <ele>517.6</ele>
        <time>2020-06-30T11:41:06Z</time>
      </trkpt>
      <trkpt lat="43.07341" lon="0.39395">
        <ele>517.8</ele>
        <time>2020-06-30T11:41:07Z</time>
      </trkpt>
      <trkpt lat="43.0734" lon="0.39392">
        <ele>517.8</ele>
        <time>2020-06-30T11:41:08Z</time>
      </trkpt>
      <trkpt lat="43.07339" lon="0.39389">
        <ele>517.8</ele>
        <time>2020-06-30T11:41:09Z</time>
      </trkpt>
      <trkpt lat="43.07338" lon="0.39387">
        <ele>518</ele>
        <time>2020-06-30T11:41:10Z</time>
      </trkpt>
      <trkpt lat="43.07338" lon="0.39386">
        <ele>518</ele>
        <time>2020-06-30T11:41:11Z</time>
      </trkpt>
      <trkpt lat="43.07338" lon="0.39384">
        <ele>518</ele>
        <time>2020-06-30T11:41:12Z</time>
      </trkpt>
      <trkpt lat="43.07337" lon="0.3938">
        <ele>518</ele>
        <time>2020-06-30T11:41:13Z</time>
      </trkpt>
      <trkpt lat="43.07337" lon="0.39374">
        <ele>518.2</ele>
        <time>2020-06-30T11:41:14Z</time>
      </trkpt>
      <trkpt lat="43.07338" lon="0.39372">
        <ele>518.2</ele>
        <time>2020-06-30T11:41:15Z</time>
      </trkpt>
      <trkpt lat="43.07338" lon="0.3937">
        <ele>517</ele>
        <time>2020-06-30T11:41:16Z</time>
      </trkpt>
      <trkpt lat="43.07339" lon="0.39367">
        <ele>518.6</ele>
        <time>2020-06-30T11:41:17Z</time>
      </trkpt>
      <trkpt lat="43.0734" lon="0.39366">
        <ele>518.8</ele>
        <time>2020-06-30T11:41:18Z</time>
      </trkpt>
      <trkpt lat="43.07341" lon="0.39365">
        <ele>520</ele>
        <time>2020-06-30T11:41:19Z</time>
      </trkpt>
      <trkpt lat="43.07343" lon="0.39364">
        <ele>519</ele>
        <time>2020-06-30T11:41:20Z</time>
      </trkpt>
      <trkpt lat="43.07342" lon="0.39361">
        <ele>519</ele>
        <time>2020-06-30T11:41:21Z</time>
      </trkpt>
      <trkpt lat="43.07342" lon="0.3936">
        <ele>519</ele>
        <time>2020-06-30T11:41:22Z</time>
      </trkpt>
      <trkpt lat="43.07344" lon="0.39356">
        <ele>519.2</ele>
        <time>2020-06-30T11:41:23Z</time>
      </trkpt>
      <trkpt lat="43.07344" lon="0.39354">
        <ele>519.2</ele>
        <time>2020-06-30T11:41:24Z</time>
      </trkpt>
      <trkpt lat="43.07346" lon="0.39352">
        <ele>519.2</ele>
        <time>2020-06-30T11:41:25Z</time>
      </trkpt>
      <trkpt lat="43.07346" lon="0.3935">
        <ele>519.4</ele>
        <time>2020-06-30T11:41:26Z</time>
      </trkpt>
      <trkpt lat="43.07347" lon="0.39349">
        <ele>519.6</ele>
        <time>2020-06-30T11:41:27Z</time>
      </trkpt>
      <trkpt lat="43.07348" lon="0.39347">
        <ele>519.6</ele>
        <time>2020-06-30T11:41:28Z</time>
      </trkpt>
      <trkpt lat="43.07347" lon="0.39343">
        <ele>519.8</ele>
        <time>2020-06-30T11:41:29Z</time>
      </trkpt>
      <trkpt lat="43.07348" lon="0.39341">
        <ele>519.8</ele>
        <time>2020-06-30T11:41:30Z</time>
      </trkpt>
      <trkpt lat="43.07349" lon="0.3934">
        <ele>520</ele>
        <time>2020-06-30T11:41:31Z</time>
      </trkpt>
      <trkpt lat="43.07349" lon="0.39337">
        <ele>520</ele>
        <time>2020-06-30T11:41:32Z</time>
      </trkpt>
      <trkpt lat="43.0735" lon="0.39335">
        <ele>520</ele>
        <time>2020-06-30T11:41:33Z</time>
      </trkpt>
      <trkpt lat="43.07351" lon="0.39333">
        <ele>520</ele>
        <time>2020-06-30T11:41:34Z</time>
      </trkpt>
      <trkpt lat="43.07353" lon="0.39329">
        <ele>520</ele>
        <time>2020-06-30T11:41:35Z</time>
      </trkpt>
      <trkpt lat="43.07354" lon="0.39325">
        <ele>520</ele>
        <time>2020-06-30T11:41:36Z</time>
      </trkpt>
      <trkpt lat="43.07355" lon="0.39323">
        <ele>520</ele>
        <time>2020-06-30T11:41:37Z</time>
      </trkpt>
      <trkpt lat="43.07356" lon="0.39322">
        <ele>520.2</ele>
        <time>2020-06-30T11:41:38Z</time>
      </trkpt>
      <trkpt lat="43.07357" lon="0.3932">
        <ele>520.2</ele>
        <time>2020-06-30T11:41:39Z</time>
      </trkpt>
      <trkpt lat="43.07359" lon="0.39319">
        <ele>520.2</ele>
        <time>2020-06-30T11:41:40Z</time>
      </trkpt>
      <trkpt lat="43.07361" lon="0.39317">
        <ele>520.2</ele>
        <time>2020-06-30T11:41:41Z</time>
      </trkpt>
      <trkpt lat="43.07362" lon="0.39315">
        <ele>520.2</ele>
        <time>2020-06-30T11:41:42Z</time>
      </trkpt>
      <trkpt lat="43.07361" lon="0.39312">
        <ele>520.2</ele>
        <time>2020-06-30T11:41:43Z</time>
      </trkpt>
      <trkpt lat="43.07364" lon="0.39309">
        <ele>520.2</ele>
        <time>2020-06-30T11:41:44Z</time>
      </trkpt>
      <trkpt lat="43.07364" lon="0.39307">
        <ele>520.2</ele>
        <time>2020-06-30T11:41:45Z</time>
      </trkpt>
      <trkpt lat="43.07365" lon="0.39304">
        <ele>520.2</ele>
        <time>2020-06-30T11:41:46Z</time>
      </trkpt>
      <trkpt lat="43.07366" lon="0.39299">
        <ele>520.2</ele>
        <time>2020-06-30T11:41:47Z</time>
      </trkpt>
      <trkpt lat="43.07367" lon="0.39297">
        <ele>520.2</ele>
        <time>2020-06-30T11:41:48Z</time>
      </trkpt>
      <trkpt lat="43.07369" lon="0.39294">
        <ele>520.2</ele>
        <time>2020-06-30T11:41:49Z</time>
      </trkpt>
      <trkpt lat="43.07371" lon="0.3929">
        <ele>520.2</ele>
        <time>2020-06-30T11:41:50Z</time>
      </trkpt>
      <trkpt lat="43.0737" lon="0.39284">
        <ele>520.2</ele>
        <time>2020-06-30T11:41:51Z</time>
      </trkpt>
      <trkpt lat="43.0737" lon="0.3928">
        <ele>520.4</ele>
        <time>2020-06-30T11:41:52Z</time>
      </trkpt>
      <trkpt lat="43.0737" lon="0.39277">
        <ele>520.4</ele>
        <time>2020-06-30T11:41:53Z</time>
      </trkpt>
      <trkpt lat="43.07372" lon="0.39274">
        <ele>520.4</ele>
        <time>2020-06-30T11:41:54Z</time>
      </trkpt>
      <trkpt lat="43.07374" lon="0.3927">
        <ele>520.6</ele>
        <time>2020-06-30T11:41:55Z</time>
      </trkpt>
      <trkpt lat="43.07375" lon="0.39265">
        <ele>520.6</ele>
        <time>2020-06-30T11:41:56Z</time>
      </trkpt>
      <trkpt lat="43.07376" lon="0.39262">
        <ele>520.4</ele>
        <time>2020-06-30T11:41:57Z</time>
      </trkpt>
      <trkpt lat="43.07377" lon="0.39256">
        <ele>520.4</ele>
        <time>2020-06-30T11:41:58Z</time>
      </trkpt>
      <trkpt lat="43.07377" lon="0.39254">
        <ele>520.4</ele>
        <time>2020-06-30T11:41:59Z</time>
      </trkpt>
      <trkpt lat="43.07378" lon="0.3925">
        <ele>520.6</ele>
        <time>2020-06-30T11:42:00Z</time>
      </trkpt>
      <trkpt lat="43.0738" lon="0.39247">
        <ele>520.4</ele>
        <time>2020-06-30T11:42:01Z</time>
      </trkpt>
      <trkpt lat="43.07381" lon="0.39243">
        <ele>520.4</ele>
        <time>2020-06-30T11:42:02Z</time>
      </trkpt>
      <trkpt lat="43.07382" lon="0.39237">
        <ele>520.6</ele>
        <time>2020-06-30T11:42:03Z</time>
      </trkpt>
      <trkpt lat="43.07384" lon="0.39233">
        <ele>520.6</ele>
        <time>2020-06-30T11:42:04Z</time>
      </trkpt>
      <trkpt lat="43.07384" lon="0.39229">
        <ele>520.4</ele>
        <time>2020-06-30T11:42:05Z</time>
      </trkpt>
      <trkpt lat="43.07385" lon="0.39225">
        <ele>520.4</ele>
        <time>2020-06-30T11:42:06Z</time>
      </trkpt>
      <trkpt lat="43.07386" lon="0.39221">
        <ele>520.6</ele>
        <time>2020-06-30T11:42:07Z</time>
      </trkpt>
      <trkpt lat="43.07388" lon="0.39218">
        <ele>520.8</ele>
        <time>2020-06-30T11:42:08Z</time>
      </trkpt>
      <trkpt lat="43.07389" lon="0.39215">
        <ele>520.8</ele>
        <time>2020-06-30T11:42:09Z</time>
      </trkpt>
      <trkpt lat="43.07389" lon="0.3921">
        <ele>520.8</ele>
        <time>2020-06-30T11:42:10Z</time>
      </trkpt>
      <trkpt lat="43.0739" lon="0.39207">
        <ele>520.8</ele>
        <time>2020-06-30T11:42:11Z</time>
      </trkpt>
      <trkpt lat="43.07393" lon="0.39204">
        <ele>520.8</ele>
        <time>2020-06-30T11:42:12Z</time>
      </trkpt>
      <trkpt lat="43.07392" lon="0.39198">
        <ele>520.8</ele>
        <time>2020-06-30T11:42:13Z</time>
      </trkpt>
      <trkpt lat="43.07393" lon="0.39194">
        <ele>520.8</ele>
        <time>2020-06-30T11:42:14Z</time>
      </trkpt>
      <trkpt lat="43.07393" lon="0.39191">
        <ele>521</ele>
        <time>2020-06-30T11:42:15Z</time>
      </trkpt>
      <trkpt lat="43.07393" lon="0.39187">
        <ele>521</ele>
        <time>2020-06-30T11:42:16Z</time>
      </trkpt>
      <trkpt lat="43.07393" lon="0.39183">
        <ele>521</ele>
        <time>2020-06-30T11:42:17Z</time>
      </trkpt>
      <trkpt lat="43.07394" lon="0.39178">
        <ele>521</ele>
        <time>2020-06-30T11:42:18Z</time>
      </trkpt>
      <trkpt lat="43.07394" lon="0.39174">
        <ele>521</ele>
        <time>2020-06-30T11:42:19Z</time>
      </trkpt>
      <trkpt lat="43.07395" lon="0.3917">
        <ele>521</ele>
        <time>2020-06-30T11:42:20Z</time>
      </trkpt>
      <trkpt lat="43.07396" lon="0.39165">
        <ele>521</ele>
        <time>2020-06-30T11:42:21Z</time>
      </trkpt>
      <trkpt lat="43.07395" lon="0.3916">
        <ele>521.2</ele>
        <time>2020-06-30T11:42:22Z</time>
      </trkpt>
      <trkpt lat="43.07395" lon="0.39156">
        <ele>521.2</ele>
        <time>2020-06-30T11:42:23Z</time>
      </trkpt>
      <trkpt lat="43.07394" lon="0.3915">
        <ele>521.2</ele>
        <time>2020-06-30T11:42:24Z</time>
      </trkpt>
      <trkpt lat="43.07395" lon="0.39146">
        <ele>521.4</ele>
        <time>2020-06-30T11:42:25Z</time>
      </trkpt>
      <trkpt lat="43.07395" lon="0.3914">
        <ele>521.4</ele>
        <time>2020-06-30T11:42:26Z</time>
      </trkpt>
      <trkpt lat="43.07394" lon="0.39136">
        <ele>521.2</ele>
        <time>2020-06-30T11:42:27Z</time>
      </trkpt>
      <trkpt lat="43.07394" lon="0.39132">
        <ele>521.4</ele>
        <time>2020-06-30T11:42:28Z</time>
      </trkpt>
      <trkpt lat="43.07395" lon="0.39129">
        <ele>521.4</ele>
        <time>2020-06-30T11:42:29Z</time>
      </trkpt>
      <trkpt lat="43.07396" lon="0.39125">
        <ele>521.4</ele>
        <time>2020-06-30T11:42:30Z</time>
      </trkpt>
      <trkpt lat="43.07396" lon="0.39121">
        <ele>521.4</ele>
        <time>2020-06-30T11:42:31Z</time>
      </trkpt>
      <trkpt lat="43.07397" lon="0.39118">
        <ele>521.4</ele>
        <time>2020-06-30T11:42:32Z</time>
      </trkpt>
      <trkpt lat="43.07396" lon="0.39112">
        <ele>521.4</ele>
        <time>2020-06-30T11:42:33Z</time>
      </trkpt>
      <trkpt lat="43.07396" lon="0.39108">
        <ele>521.6</ele>
        <time>2020-06-30T11:42:34Z</time>
      </trkpt>
      <trkpt lat="43.07396" lon="0.39106">
        <ele>521.6</ele>
        <time>2020-06-30T11:42:35Z</time>
      </trkpt>
      <trkpt lat="43.07397" lon="0.39102">
        <ele>521.6</ele>
        <time>2020-06-30T11:42:36Z</time>
      </trkpt>
      <trkpt lat="43.07396" lon="0.39097">
        <ele>521.6</ele>
        <time>2020-06-30T11:42:37Z</time>
      </trkpt>
      <trkpt lat="43.07396" lon="0.39093">
        <ele>521.6</ele>
        <time>2020-06-30T11:42:38Z</time>
      </trkpt>
      <trkpt lat="43.07395" lon="0.39087">
        <ele>521.8</ele>
        <time>2020-06-30T11:42:39Z</time>
      </trkpt>
      <trkpt lat="43.07395" lon="0.39082">
        <ele>521.8</ele>
        <time>2020-06-30T11:42:40Z</time>
      </trkpt>
      <trkpt lat="43.07396" lon="0.39077">
        <ele>521.8</ele>
        <time>2020-06-30T11:42:41Z</time>
      </trkpt>
      <trkpt lat="43.07396" lon="0.39073">
        <ele>521.8</ele>
        <time>2020-06-30T11:42:42Z</time>
      </trkpt>
      <trkpt lat="43.07396" lon="0.39069">
        <ele>522</ele>
        <time>2020-06-30T11:42:43Z</time>
      </trkpt>
      <trkpt lat="43.07396" lon="0.39064">
        <ele>522</ele>
        <time>2020-06-30T11:42:44Z</time>
      </trkpt>
      <trkpt lat="43.07397" lon="0.3906">
        <ele>522.2</ele>
        <time>2020-06-30T11:42:45Z</time>
      </trkpt>
      <trkpt lat="43.07398" lon="0.39057">
        <ele>522.2</ele>
        <time>2020-06-30T11:42:46Z</time>
      </trkpt>
      <trkpt lat="43.074" lon="0.39053">
        <ele>522.2</ele>
        <time>2020-06-30T11:42:47Z</time>
      </trkpt>
      <trkpt lat="43.07401" lon="0.39049">
        <ele>522.2</ele>
        <time>2020-06-30T11:42:48Z</time>
      </trkpt>
      <trkpt lat="43.074" lon="0.39045">
        <ele>522.4</ele>
        <time>2020-06-30T11:42:49Z</time>
      </trkpt>
      <trkpt lat="43.07399" lon="0.39042">
        <ele>522.4</ele>
        <time>2020-06-30T11:42:50Z</time>
      </trkpt>
      <trkpt lat="43.074" lon="0.39037">
        <ele>522.4</ele>
        <time>2020-06-30T11:42:51Z</time>
      </trkpt>
      <trkpt lat="43.07398" lon="0.39031">
        <ele>522.6</ele>
        <time>2020-06-30T11:42:52Z</time>
      </trkpt>
      <trkpt lat="43.07399" lon="0.39028">
        <ele>522.6</ele>
        <time>2020-06-30T11:42:53Z</time>
      </trkpt>
      <trkpt lat="43.07401" lon="0.39024">
        <ele>522.6</ele>
        <time>2020-06-30T11:42:54Z</time>
      </trkpt>
      <trkpt lat="43.07402" lon="0.3902">
        <ele>522.6</ele>
        <time>2020-06-30T11:42:55Z</time>
      </trkpt>
      <trkpt lat="43.07403" lon="0.39015">
        <ele>522.6</ele>
        <time>2020-06-30T11:42:56Z</time>
      </trkpt>
      <trkpt lat="43.07404" lon="0.39013">
        <ele>522.6</ele>
        <time>2020-06-30T11:42:57Z</time>
      </trkpt>
      <trkpt lat="43.07405" lon="0.39011">
        <ele>522.8</ele>
        <time>2020-06-30T11:42:58Z</time>
      </trkpt>
      <trkpt lat="43.07407" lon="0.39007">
        <ele>522.8</ele>
        <time>2020-06-30T11:42:59Z</time>
      </trkpt>
      <trkpt lat="43.07407" lon="0.39004">
        <ele>522.8</ele>
        <time>2020-06-30T11:43:00Z</time>
      </trkpt>
      <trkpt lat="43.07409" lon="0.39">
        <ele>523</ele>
        <time>2020-06-30T11:43:01Z</time>
      </trkpt>
      <trkpt lat="43.0741" lon="0.38997">
        <ele>523</ele>
        <time>2020-06-30T11:43:02Z</time>
      </trkpt>
      <trkpt lat="43.07413" lon="0.38995">
        <ele>523</ele>
        <time>2020-06-30T11:43:03Z</time>
      </trkpt>
      <trkpt lat="43.07415" lon="0.38992">
        <ele>523</ele>
        <time>2020-06-30T11:43:04Z</time>
      </trkpt>
      <trkpt lat="43.07414" lon="0.38989">
        <ele>523.2</ele>
        <time>2020-06-30T11:43:05Z</time>
      </trkpt>
      <trkpt lat="43.07415" lon="0.38985">
        <ele>523.2</ele>
        <time>2020-06-30T11:43:06Z</time>
      </trkpt>
      <trkpt lat="43.07416" lon="0.38981">
        <ele>523.4</ele>
        <time>2020-06-30T11:43:07Z</time>
      </trkpt>
      <trkpt lat="43.07416" lon="0.38975">
        <ele>523.4</ele>
        <time>2020-06-30T11:43:08Z</time>
      </trkpt>
      <trkpt lat="43.07418" lon="0.3897">
        <ele>523.6</ele>
        <time>2020-06-30T11:43:09Z</time>
      </trkpt>
      <trkpt lat="43.0742" lon="0.38967">
        <ele>523.6</ele>
        <time>2020-06-30T11:43:10Z</time>
      </trkpt>
      <trkpt lat="43.07422" lon="0.38964">
        <ele>523.8</ele>
        <time>2020-06-30T11:43:11Z</time>
      </trkpt>
      <trkpt lat="43.07424" lon="0.38961">
        <ele>523.8</ele>
        <time>2020-06-30T11:43:12Z</time>
      </trkpt>
      <trkpt lat="43.07425" lon="0.38959">
        <ele>523.8</ele>
        <time>2020-06-30T11:43:13Z</time>
      </trkpt>
      <trkpt lat="43.07426" lon="0.38959">
        <ele>524</ele>
        <time>2020-06-30T11:43:14Z</time>
      </trkpt>
      <trkpt lat="43.07428" lon="0.38958">
        <ele>524.2</ele>
        <time>2020-06-30T11:43:15Z</time>
      </trkpt>
      <trkpt lat="43.0743" lon="0.38955">
        <ele>524.2</ele>
        <time>2020-06-30T11:43:16Z</time>
      </trkpt>
      <trkpt lat="43.0743" lon="0.38951">
        <ele>524.4</ele>
        <time>2020-06-30T11:43:17Z</time>
      </trkpt>
      <trkpt lat="43.07432" lon="0.38949">
        <ele>524.6</ele>
        <time>2020-06-30T11:43:18Z</time>
      </trkpt>
      <trkpt lat="43.07433" lon="0.38946">
        <ele>524.6</ele>
        <time>2020-06-30T11:43:19Z</time>
      </trkpt>
      <trkpt lat="43.07435" lon="0.38943">
        <ele>524.8</ele>
        <time>2020-06-30T11:43:20Z</time>
      </trkpt>
      <trkpt lat="43.07436" lon="0.38941">
        <ele>524.8</ele>
        <time>2020-06-30T11:43:21Z</time>
      </trkpt>
      <trkpt lat="43.07435" lon="0.38934">
        <ele>525</ele>
        <time>2020-06-30T11:43:22Z</time>
      </trkpt>
      <trkpt lat="43.07434" lon="0.38934">
        <ele>525</ele>
        <time>2020-06-30T11:43:23Z</time>
      </trkpt>
      <trkpt lat="43.07435" lon="0.38932">
        <ele>525.2</ele>
        <time>2020-06-30T11:43:24Z</time>
      </trkpt>
      <trkpt lat="43.07438" lon="0.38932">
        <ele>525.2</ele>
        <time>2020-06-30T11:43:25Z</time>
      </trkpt>
      <trkpt lat="43.0744" lon="0.38929">
        <ele>525.4</ele>
        <time>2020-06-30T11:43:26Z</time>
      </trkpt>
      <trkpt lat="43.0744" lon="0.38925">
        <ele>525.6</ele>
        <time>2020-06-30T11:43:27Z</time>
      </trkpt>
      <trkpt lat="43.07443" lon="0.38924">
        <ele>525.6</ele>
        <time>2020-06-30T11:43:28Z</time>
      </trkpt>
      <trkpt lat="43.07444" lon="0.38921">
        <ele>525.6</ele>
        <time>2020-06-30T11:43:29Z</time>
      </trkpt>
      <trkpt lat="43.07446" lon="0.3892">
        <ele>525.8</ele>
        <time>2020-06-30T11:43:30Z</time>
      </trkpt>
      <trkpt lat="43.07446" lon="0.38917">
        <ele>526</ele>
        <time>2020-06-30T11:43:31Z</time>
      </trkpt>
      <trkpt lat="43.07447" lon="0.38914">
        <ele>526</ele>
        <time>2020-06-30T11:43:32Z</time>
      </trkpt>
      <trkpt lat="43.07448" lon="0.3891">
        <ele>526.2</ele>
        <time>2020-06-30T11:43:33Z</time>
      </trkpt>
      <trkpt lat="43.0745" lon="0.38907">
        <ele>526.2</ele>
        <time>2020-06-30T11:43:34Z</time>
      </trkpt>
      <trkpt lat="43.07453" lon="0.38905">
        <ele>526.2</ele>
        <time>2020-06-30T11:43:35Z</time>
      </trkpt>
      <trkpt lat="43.07455" lon="0.38903">
        <ele>526.4</ele>
        <time>2020-06-30T11:43:36Z</time>
      </trkpt>
      <trkpt lat="43.07457" lon="0.38902">
        <ele>526.4</ele>
        <time>2020-06-30T11:43:37Z</time>
      </trkpt>
      <trkpt lat="43.07458" lon="0.389">
        <ele>526.6</ele>
        <time>2020-06-30T11:43:38Z</time>
      </trkpt>
      <trkpt lat="43.07458" lon="0.38897">
        <ele>526.6</ele>
        <time>2020-06-30T11:43:39Z</time>
      </trkpt>
      <trkpt lat="43.0746" lon="0.38895">
        <ele>526.6</ele>
        <time>2020-06-30T11:43:40Z</time>
      </trkpt>
      <trkpt lat="43.07461" lon="0.38893">
        <ele>526.8</ele>
        <time>2020-06-30T11:43:41Z</time>
      </trkpt>
      <trkpt lat="43.07463" lon="0.38892">
        <ele>526.8</ele>
        <time>2020-06-30T11:43:42Z</time>
      </trkpt>
      <trkpt lat="43.07466" lon="0.3889">
        <ele>527</ele>
        <time>2020-06-30T11:43:43Z</time>
      </trkpt>
      <trkpt lat="43.07468" lon="0.38887">
        <ele>527</ele>
        <time>2020-06-30T11:43:44Z</time>
      </trkpt>
      <trkpt lat="43.07468" lon="0.38885">
        <ele>527.2</ele>
        <time>2020-06-30T11:43:45Z</time>
      </trkpt>
      <trkpt lat="43.07471" lon="0.38883">
        <ele>527.2</ele>
        <time>2020-06-30T11:43:46Z</time>
      </trkpt>
      <trkpt lat="43.07469" lon="0.38879">
        <ele>527.2</ele>
        <time>2020-06-30T11:43:47Z</time>
      </trkpt>
      <trkpt lat="43.07472" lon="0.38877">
        <ele>527.4</ele>
        <time>2020-06-30T11:43:48Z</time>
      </trkpt>
      <trkpt lat="43.07474" lon="0.38875">
        <ele>527.6</ele>
        <time>2020-06-30T11:43:49Z</time>
      </trkpt>
      <trkpt lat="43.07476" lon="0.38873">
        <ele>527.6</ele>
        <time>2020-06-30T11:43:50Z</time>
      </trkpt>
      <trkpt lat="43.07475" lon="0.3887">
        <ele>527.6</ele>
        <time>2020-06-30T11:43:51Z</time>
      </trkpt>
      <trkpt lat="43.07479" lon="0.38869">
        <ele>527.6</ele>
        <time>2020-06-30T11:43:52Z</time>
      </trkpt>
      <trkpt lat="43.0748" lon="0.38868">
        <ele>527.8</ele>
        <time>2020-06-30T11:43:53Z</time>
      </trkpt>
      <trkpt lat="43.07479" lon="0.38864">
        <ele>527.8</ele>
        <time>2020-06-30T11:43:54Z</time>
      </trkpt>
      <trkpt lat="43.07481" lon="0.38863">
        <ele>528</ele>
        <time>2020-06-30T11:43:55Z</time>
      </trkpt>
      <trkpt lat="43.07485" lon="0.38862">
        <ele>528</ele>
        <time>2020-06-30T11:43:56Z</time>
      </trkpt>
      <trkpt lat="43.07486" lon="0.3886">
        <ele>528.2</ele>
        <time>2020-06-30T11:43:57Z</time>
      </trkpt>
      <trkpt lat="43.07486" lon="0.38857">
        <ele>528.2</ele>
        <time>2020-06-30T11:43:58Z</time>
      </trkpt>
      <trkpt lat="43.07488" lon="0.38855">
        <ele>528.4</ele>
        <time>2020-06-30T11:43:59Z</time>
      </trkpt>
      <trkpt lat="43.07489" lon="0.38853">
        <ele>528.4</ele>
        <time>2020-06-30T11:44:00Z</time>
      </trkpt>
      <trkpt lat="43.07489" lon="0.3885">
        <ele>528.6</ele>
        <time>2020-06-30T11:44:01Z</time>
      </trkpt>
      <trkpt lat="43.07492" lon="0.38849">
        <ele>528.8</ele>
        <time>2020-06-30T11:44:02Z</time>
      </trkpt>
      <trkpt lat="43.07493" lon="0.38847">
        <ele>528.8</ele>
        <time>2020-06-30T11:44:03Z</time>
      </trkpt>
      <trkpt lat="43.07495" lon="0.38844">
        <ele>529</ele>
        <time>2020-06-30T11:44:04Z</time>
      </trkpt>
      <trkpt lat="43.07495" lon="0.38842">
        <ele>529</ele>
        <time>2020-06-30T11:44:05Z</time>
      </trkpt>
      <trkpt lat="43.07497" lon="0.38841">
        <ele>529.2</ele>
        <time>2020-06-30T11:44:06Z</time>
      </trkpt>
      <trkpt lat="43.07499" lon="0.38839">
        <ele>529.2</ele>
        <time>2020-06-30T11:44:07Z</time>
      </trkpt>
      <trkpt lat="43.07501" lon="0.38838">
        <ele>529.4</ele>
        <time>2020-06-30T11:44:08Z</time>
      </trkpt>
      <trkpt lat="43.07503" lon="0.38836">
        <ele>529.8</ele>
        <time>2020-06-30T11:44:09Z</time>
      </trkpt>
      <trkpt lat="43.07505" lon="0.38833">
        <ele>529.8</ele>
        <time>2020-06-30T11:44:10Z</time>
      </trkpt>
      <trkpt lat="43.07507" lon="0.38829">
        <ele>529.8</ele>
        <time>2020-06-30T11:44:11Z</time>
      </trkpt>
      <trkpt lat="43.07509" lon="0.38826">
        <ele>530</ele>
        <time>2020-06-30T11:44:12Z</time>
      </trkpt>
      <trkpt lat="43.0751" lon="0.38824">
        <ele>530.2</ele>
        <time>2020-06-30T11:44:13Z</time>
      </trkpt>
      <trkpt lat="43.07511" lon="0.38822">
        <ele>530.2</ele>
        <time>2020-06-30T11:44:14Z</time>
      </trkpt>
      <trkpt lat="43.07512" lon="0.3882">
        <ele>530.4</ele>
        <time>2020-06-30T11:44:15Z</time>
      </trkpt>
      <trkpt lat="43.07513" lon="0.38818">
        <ele>530.4</ele>
        <time>2020-06-30T11:44:16Z</time>
      </trkpt>
      <trkpt lat="43.07514" lon="0.38817">
        <ele>530.6</ele>
        <time>2020-06-30T11:44:17Z</time>
      </trkpt>
      <trkpt lat="43.07516" lon="0.38815">
        <ele>530.8</ele>
        <time>2020-06-30T11:44:18Z</time>
      </trkpt>
      <trkpt lat="43.07517" lon="0.38814">
        <ele>530.8</ele>
        <time>2020-06-30T11:44:19Z</time>
      </trkpt>
      <trkpt lat="43.07518" lon="0.38813">
        <ele>531</ele>
        <time>2020-06-30T11:44:20Z</time>
      </trkpt>
      <trkpt lat="43.07519" lon="0.38811">
        <ele>531</ele>
        <time>2020-06-30T11:44:21Z</time>
      </trkpt>
      <trkpt lat="43.07519" lon="0.38809">
        <ele>531.2</ele>
        <time>2020-06-30T11:44:22Z</time>
      </trkpt>
      <trkpt lat="43.07519" lon="0.38806">
        <ele>531.2</ele>
        <time>2020-06-30T11:44:23Z</time>
      </trkpt>
      <trkpt lat="43.0752" lon="0.38804">
        <ele>531.4</ele>
        <time>2020-06-30T11:44:24Z</time>
      </trkpt>
      <trkpt lat="43.07519" lon="0.38799">
        <ele>531.6</ele>
        <time>2020-06-30T11:44:25Z</time>
      </trkpt>
      <trkpt lat="43.07521" lon="0.38799">
        <ele>531.6</ele>
        <time>2020-06-30T11:44:26Z</time>
      </trkpt>
      <trkpt lat="43.07521" lon="0.38797">
        <ele>531.8</ele>
        <time>2020-06-30T11:44:27Z</time>
      </trkpt>
      <trkpt lat="43.07524" lon="0.38797">
        <ele>531.8</ele>
        <time>2020-06-30T11:44:28Z</time>
      </trkpt>
      <trkpt lat="43.07526" lon="0.38794">
        <ele>532</ele>
        <time>2020-06-30T11:44:29Z</time>
      </trkpt>
      <trkpt lat="43.07527" lon="0.3879">
        <ele>532.2</ele>
        <time>2020-06-30T11:44:30Z</time>
      </trkpt>
      <trkpt lat="43.07529" lon="0.38789">
        <ele>532.2</ele>
        <time>2020-06-30T11:44:31Z</time>
      </trkpt>
      <trkpt lat="43.07529" lon="0.38786">
        <ele>532.4</ele>
        <time>2020-06-30T11:44:32Z</time>
      </trkpt>
      <trkpt lat="43.0753" lon="0.38785">
        <ele>532.4</ele>
        <time>2020-06-30T11:44:33Z</time>
      </trkpt>
      <trkpt lat="43.0753" lon="0.38785">
        <ele>532.6</ele>
        <time>2020-06-30T11:44:34Z</time>
      </trkpt>
      <trkpt lat="43.0753" lon="0.38783">
        <ele>532.8</ele>
        <time>2020-06-30T11:44:35Z</time>
      </trkpt>
      <trkpt lat="43.07531" lon="0.38781">
        <ele>532.8</ele>
        <time>2020-06-30T11:44:36Z</time>
      </trkpt>
      <trkpt lat="43.07531" lon="0.3878">
        <ele>533</ele>
        <time>2020-06-30T11:44:37Z</time>
      </trkpt>
      <trkpt lat="43.07531" lon="0.38775">
        <ele>533.2</ele>
        <time>2020-06-30T11:44:38Z</time>
      </trkpt>
      <trkpt lat="43.07531" lon="0.38773">
        <ele>533.4</ele>
        <time>2020-06-30T11:44:39Z</time>
      </trkpt>
      <trkpt lat="43.0753" lon="0.3877">
        <ele>533.6</ele>
        <time>2020-06-30T11:44:40Z</time>
      </trkpt>
      <trkpt lat="43.0753" lon="0.38767">
        <ele>533.8</ele>
        <time>2020-06-30T11:44:41Z</time>
      </trkpt>
      <trkpt lat="43.07529" lon="0.38763">
        <ele>534</ele>
        <time>2020-06-30T11:44:42Z</time>
      </trkpt>
      <trkpt lat="43.0753" lon="0.38762">
        <ele>534.2</ele>
        <time>2020-06-30T11:44:43Z</time>
      </trkpt>
      <trkpt lat="43.07532" lon="0.3876">
        <ele>534.4</ele>
        <time>2020-06-30T11:44:44Z</time>
      </trkpt>
      <trkpt lat="43.07532" lon="0.38758">
        <ele>534.6</ele>
        <time>2020-06-30T11:44:45Z</time>
      </trkpt>
      <trkpt lat="43.07532" lon="0.38757">
        <ele>534.6</ele>
        <time>2020-06-30T11:44:46Z</time>
      </trkpt>
      <trkpt lat="43.07533" lon="0.38757">
        <ele>534.8</ele>
        <time>2020-06-30T11:44:47Z</time>
      </trkpt>
      <trkpt lat="43.07534" lon="0.38755">
        <ele>535</ele>
        <time>2020-06-30T11:44:48Z</time>
      </trkpt>
      <trkpt lat="43.07532" lon="0.38752">
        <ele>535.2</ele>
        <time>2020-06-30T11:44:49Z</time>
      </trkpt>
      <trkpt lat="43.0753" lon="0.38749">
        <ele>535.2</ele>
        <time>2020-06-30T11:44:50Z</time>
      </trkpt>
      <trkpt lat="43.07528" lon="0.38746">
        <ele>535.6</ele>
        <time>2020-06-30T11:44:51Z</time>
      </trkpt>
      <trkpt lat="43.07529" lon="0.38744">
        <ele>535.6</ele>
        <time>2020-06-30T11:44:52Z</time>
      </trkpt>
      <trkpt lat="43.07528" lon="0.3874">
        <ele>535.8</ele>
        <time>2020-06-30T11:44:53Z</time>
      </trkpt>
      <trkpt lat="43.07529" lon="0.38739">
        <ele>535.8</ele>
        <time>2020-06-30T11:44:54Z</time>
      </trkpt>
      <trkpt lat="43.07528" lon="0.38736">
        <ele>536</ele>
        <time>2020-06-30T11:44:55Z</time>
      </trkpt>
      <trkpt lat="43.07528" lon="0.38735">
        <ele>536</ele>
        <time>2020-06-30T11:44:56Z</time>
      </trkpt>
      <trkpt lat="43.0753" lon="0.38734">
        <ele>536.2</ele>
        <time>2020-06-30T11:44:57Z</time>
      </trkpt>
      <trkpt lat="43.07531" lon="0.38734">
        <ele>536.2</ele>
        <time>2020-06-30T11:44:58Z</time>
      </trkpt>
      <trkpt lat="43.07532" lon="0.38733">
        <ele>536.2</ele>
        <time>2020-06-30T11:44:59Z</time>
      </trkpt>
      <trkpt lat="43.07532" lon="0.38731">
        <ele>536.4</ele>
        <time>2020-06-30T11:45:00Z</time>
      </trkpt>
      <trkpt lat="43.07533" lon="0.3873">
        <ele>536.6</ele>
        <time>2020-06-30T11:45:01Z</time>
      </trkpt>
      <trkpt lat="43.07531" lon="0.38727">
        <ele>536.8</ele>
        <time>2020-06-30T11:45:02Z</time>
      </trkpt>
      <trkpt lat="43.07529" lon="0.38725">
        <ele>536.8</ele>
        <time>2020-06-30T11:45:03Z</time>
      </trkpt>
      <trkpt lat="43.07528" lon="0.38723">
        <ele>537</ele>
        <time>2020-06-30T11:45:04Z</time>
      </trkpt>
      <trkpt lat="43.07527" lon="0.38722">
        <ele>537.2</ele>
        <time>2020-06-30T11:45:05Z</time>
      </trkpt>
      <trkpt lat="43.07527" lon="0.3872">
        <ele>537.2</ele>
        <time>2020-06-30T11:45:06Z</time>
      </trkpt>
      <trkpt lat="43.07527" lon="0.38718">
        <ele>537.4</ele>
        <time>2020-06-30T11:45:07Z</time>
      </trkpt>
      <trkpt lat="43.07527" lon="0.38715">
        <ele>537.4</ele>
        <time>2020-06-30T11:45:08Z</time>
      </trkpt>
      <trkpt lat="43.07525" lon="0.38711">
        <ele>537.6</ele>
        <time>2020-06-30T11:45:09Z</time>
      </trkpt>
      <trkpt lat="43.07526" lon="0.38713">
        <ele>537.6</ele>
        <time>2020-06-30T11:45:10Z</time>
      </trkpt>
      <trkpt lat="43.07526" lon="0.38713">
        <ele>537.6</ele>
        <time>2020-06-30T11:45:11Z</time>
      </trkpt>
      <trkpt lat="43.07524" lon="0.38709">
        <ele>537.8</ele>
        <time>2020-06-30T11:45:12Z</time>
      </trkpt>
      <trkpt lat="43.07522" lon="0.38706">
        <ele>537.8</ele>
        <time>2020-06-30T11:45:13Z</time>
      </trkpt>
      <trkpt lat="43.07522" lon="0.38704">
        <ele>537.8</ele>
        <time>2020-06-30T11:45:14Z</time>
      </trkpt>
      <trkpt lat="43.0752" lon="0.387">
        <ele>537.8</ele>
        <time>2020-06-30T11:45:15Z</time>
      </trkpt>
      <trkpt lat="43.07521" lon="0.387">
        <ele>538.2</ele>
        <time>2020-06-30T11:45:16Z</time>
      </trkpt>
      <trkpt lat="43.07523" lon="0.387">
        <ele>538.2</ele>
        <time>2020-06-30T11:45:17Z</time>
      </trkpt>
      <trkpt lat="43.07523" lon="0.387">
        <ele>538.4</ele>
        <time>2020-06-30T11:45:18Z</time>
      </trkpt>
      <trkpt lat="43.07525" lon="0.38697">
        <ele>538.6</ele>
        <time>2020-06-30T11:45:19Z</time>
      </trkpt>
      <trkpt lat="43.07526" lon="0.38695">
        <ele>538.8</ele>
        <time>2020-06-30T11:45:20Z</time>
      </trkpt>
      <trkpt lat="43.07528" lon="0.38693">
        <ele>538.8</ele>
        <time>2020-06-30T11:45:21Z</time>
      </trkpt>
      <trkpt lat="43.0753" lon="0.38693">
        <ele>539</ele>
        <time>2020-06-30T11:45:22Z</time>
      </trkpt>
      <trkpt lat="43.0753" lon="0.38691">
        <ele>539.2</ele>
        <time>2020-06-30T11:45:23Z</time>
      </trkpt>
      <trkpt lat="43.0753" lon="0.38687">
        <ele>539.4</ele>
        <time>2020-06-30T11:45:24Z</time>
      </trkpt>
      <trkpt lat="43.0753" lon="0.38687">
        <ele>539.4</ele>
        <time>2020-06-30T11:45:25Z</time>
      </trkpt>
      <trkpt lat="43.07529" lon="0.38683">
        <ele>539.6</ele>
        <time>2020-06-30T11:45:26Z</time>
      </trkpt>
      <trkpt lat="43.07532" lon="0.38684">
        <ele>539.8</ele>
        <time>2020-06-30T11:45:27Z</time>
      </trkpt>
      <trkpt lat="43.07534" lon="0.3868">
        <ele>540</ele>
        <time>2020-06-30T11:45:28Z</time>
      </trkpt>
      <trkpt lat="43.07534" lon="0.3868">
        <ele>540</ele>
        <time>2020-06-30T11:45:29Z</time>
      </trkpt>
      <trkpt lat="43.07533" lon="0.38681">
        <ele>540.2</ele>
        <time>2020-06-30T11:45:30Z</time>
      </trkpt>
      <trkpt lat="43.07534" lon="0.38679">
        <ele>540.4</ele>
        <time>2020-06-30T11:45:31Z</time>
      </trkpt>
      <trkpt lat="43.07534" lon="0.38677">
        <ele>540.6</ele>
        <time>2020-06-30T11:45:32Z</time>
      </trkpt>
      <trkpt lat="43.07536" lon="0.38676">
        <ele>540.8</ele>
        <time>2020-06-30T11:45:33Z</time>
      </trkpt>
      <trkpt lat="43.07538" lon="0.38674">
        <ele>541</ele>
        <time>2020-06-30T11:45:34Z</time>
      </trkpt>
      <trkpt lat="43.07538" lon="0.38673">
        <ele>541</ele>
        <time>2020-06-30T11:45:35Z</time>
      </trkpt>
      <trkpt lat="43.07541" lon="0.38672">
        <ele>541.2</ele>
        <time>2020-06-30T11:45:36Z</time>
      </trkpt>
      <trkpt lat="43.0754" lon="0.38672">
        <ele>541.4</ele>
        <time>2020-06-30T11:45:37Z</time>
      </trkpt>
      <trkpt lat="43.07539" lon="0.3867">
        <ele>541.6</ele>
        <time>2020-06-30T11:45:38Z</time>
      </trkpt>
      <trkpt lat="43.07538" lon="0.38667">
        <ele>541.6</ele>
        <time>2020-06-30T11:45:39Z</time>
      </trkpt>
      <trkpt lat="43.0754" lon="0.38665">
        <ele>542</ele>
        <time>2020-06-30T11:45:40Z</time>
      </trkpt>
      <trkpt lat="43.0754" lon="0.38662">
        <ele>542</ele>
        <time>2020-06-30T11:45:41Z</time>
      </trkpt>
      <trkpt lat="43.07543" lon="0.38663">
        <ele>542.2</ele>
        <time>2020-06-30T11:45:42Z</time>
      </trkpt>
      <trkpt lat="43.07544" lon="0.38661">
        <ele>542.4</ele>
        <time>2020-06-30T11:45:43Z</time>
      </trkpt>
      <trkpt lat="43.07545" lon="0.3866">
        <ele>542.6</ele>
        <time>2020-06-30T11:45:44Z</time>
      </trkpt>
      <trkpt lat="43.07546" lon="0.38658">
        <ele>542.8</ele>
        <time>2020-06-30T11:45:45Z</time>
      </trkpt>
      <trkpt lat="43.07547" lon="0.38657">
        <ele>542.8</ele>
        <time>2020-06-30T11:45:46Z</time>
      </trkpt>
      <trkpt lat="43.07545" lon="0.38656">
        <ele>543</ele>
        <time>2020-06-30T11:45:47Z</time>
      </trkpt>
      <trkpt lat="43.07545" lon="0.38653">
        <ele>543.2</ele>
        <time>2020-06-30T11:45:48Z</time>
      </trkpt>
      <trkpt lat="43.07544" lon="0.38652">
        <ele>543.2</ele>
        <time>2020-06-30T11:45:49Z</time>
      </trkpt>
      <trkpt lat="43.07544" lon="0.38653">
        <ele>543.2</ele>
        <time>2020-06-30T11:45:50Z</time>
      </trkpt>
      <trkpt lat="43.07543" lon="0.38653">
        <ele>543</ele>
        <time>2020-06-30T11:45:51Z</time>
      </trkpt>
      <trkpt lat="43.07543" lon="0.38656">
        <ele>543</ele>
        <time>2020-06-30T11:45:52Z</time>
      </trkpt>
      <trkpt lat="43.07543" lon="0.38656">
        <ele>542.8</ele>
        <time>2020-06-30T11:45:53Z</time>
      </trkpt>
      <trkpt lat="43.07544" lon="0.38659">
        <ele>542.8</ele>
        <time>2020-06-30T11:45:54Z</time>
      </trkpt>
      <trkpt lat="43.07544" lon="0.3866">
        <ele>542.8</ele>
        <time>2020-06-30T11:45:55Z</time>
      </trkpt>
      <trkpt lat="43.07545" lon="0.38661">
        <ele>542.8</ele>
        <time>2020-06-30T11:45:56Z</time>
      </trkpt>
      <trkpt lat="43.07545" lon="0.38659">
        <ele>543</ele>
        <time>2020-06-30T11:45:57Z</time>
      </trkpt>
      <trkpt lat="43.07547" lon="0.38657">
        <ele>543.2</ele>
        <time>2020-06-30T11:45:58Z</time>
      </trkpt>
      <trkpt lat="43.07545" lon="0.38655">
        <ele>543.4</ele>
        <time>2020-06-30T11:45:59Z</time>
      </trkpt>
      <trkpt lat="43.07543" lon="0.38652">
        <ele>543.4</ele>
        <time>2020-06-30T11:46:00Z</time>
      </trkpt>
      <trkpt lat="43.07542" lon="0.3865">
        <ele>543.6</ele>
        <time>2020-06-30T11:46:01Z</time>
      </trkpt>
      <trkpt lat="43.07542" lon="0.38648">
        <ele>543.8</ele>
        <time>2020-06-30T11:46:02Z</time>
      </trkpt>
      <trkpt lat="43.07543" lon="0.38647">
        <ele>544</ele>
        <time>2020-06-30T11:46:03Z</time>
      </trkpt>
      <trkpt lat="43.07543" lon="0.38644">
        <ele>544</ele>
        <time>2020-06-30T11:46:04Z</time>
      </trkpt>
      <trkpt lat="43.07544" lon="0.38643">
        <ele>544.2</ele>
        <time>2020-06-30T11:46:05Z</time>
      </trkpt>
      <trkpt lat="43.07544" lon="0.38641">
        <ele>544.4</ele>
        <time>2020-06-30T11:46:06Z</time>
      </trkpt>
      <trkpt lat="43.07543" lon="0.38638">
        <ele>544.6</ele>
        <time>2020-06-30T11:46:07Z</time>
      </trkpt>
      <trkpt lat="43.07545" lon="0.38638">
        <ele>544.8</ele>
        <time>2020-06-30T11:46:08Z</time>
      </trkpt>
      <trkpt lat="43.07546" lon="0.38637">
        <ele>544.8</ele>
        <time>2020-06-30T11:46:09Z</time>
      </trkpt>
      <trkpt lat="43.07546" lon="0.38636">
        <ele>545</ele>
        <time>2020-06-30T11:46:10Z</time>
      </trkpt>
      <trkpt lat="43.07546" lon="0.38637">
        <ele>545.2</ele>
        <time>2020-06-30T11:46:11Z</time>
      </trkpt>
      <trkpt lat="43.07548" lon="0.38637">
        <ele>545.4</ele>
        <time>2020-06-30T11:46:12Z</time>
      </trkpt>
      <trkpt lat="43.07549" lon="0.38636">
        <ele>545.6</ele>
        <time>2020-06-30T11:46:13Z</time>
      </trkpt>
      <trkpt lat="43.0755" lon="0.38634">
        <ele>545.6</ele>
        <time>2020-06-30T11:46:14Z</time>
      </trkpt>
      <trkpt lat="43.07552" lon="0.38632">
        <ele>545.8</ele>
        <time>2020-06-30T11:46:15Z</time>
      </trkpt>
      <trkpt lat="43.07551" lon="0.3863">
        <ele>546</ele>
        <time>2020-06-30T11:46:16Z</time>
      </trkpt>
      <trkpt lat="43.07552" lon="0.38628">
        <ele>546.2</ele>
        <time>2020-06-30T11:46:17Z</time>
      </trkpt>
      <trkpt lat="43.07552" lon="0.38625">
        <ele>546.4</ele>
        <time>2020-06-30T11:46:18Z</time>
      </trkpt>
      <trkpt lat="43.07553" lon="0.38623">
        <ele>546.4</ele>
        <time>2020-06-30T11:46:19Z</time>
      </trkpt>
      <trkpt lat="43.07555" lon="0.38624">
        <ele>546.6</ele>
        <time>2020-06-30T11:46:20Z</time>
      </trkpt>
      <trkpt lat="43.07559" lon="0.38622">
        <ele>546.8</ele>
        <time>2020-06-30T11:46:21Z</time>
      </trkpt>
      <trkpt lat="43.07558" lon="0.38618">
        <ele>547</ele>
        <time>2020-06-30T11:46:22Z</time>
      </trkpt>
      <trkpt lat="43.07559" lon="0.38616">
        <ele>547.2</ele>
        <time>2020-06-30T11:46:23Z</time>
      </trkpt>
      <trkpt lat="43.07559" lon="0.38614">
        <ele>547.2</ele>
        <time>2020-06-30T11:46:24Z</time>
      </trkpt>
      <trkpt lat="43.07558" lon="0.38613">
        <ele>547.4</ele>
        <time>2020-06-30T11:46:25Z</time>
      </trkpt>
      <trkpt lat="43.07557" lon="0.3861">
        <ele>547.6</ele>
        <time>2020-06-30T11:46:26Z</time>
      </trkpt>
      <trkpt lat="43.07556" lon="0.38609">
        <ele>547.8</ele>
        <time>2020-06-30T11:46:27Z</time>
      </trkpt>
      <trkpt lat="43.07556" lon="0.38609">
        <ele>548</ele>
        <time>2020-06-30T11:46:28Z</time>
      </trkpt>
      <trkpt lat="43.07554" lon="0.38607">
        <ele>548</ele>
        <time>2020-06-30T11:46:29Z</time>
      </trkpt>
      <trkpt lat="43.07555" lon="0.38604">
        <ele>548.2</ele>
        <time>2020-06-30T11:46:30Z</time>
      </trkpt>
      <trkpt lat="43.07557" lon="0.38603">
        <ele>548.4</ele>
        <time>2020-06-30T11:46:31Z</time>
      </trkpt>
      <trkpt lat="43.07556" lon="0.386">
        <ele>548.6</ele>
        <time>2020-06-30T11:46:32Z</time>
      </trkpt>
      <trkpt lat="43.07555" lon="0.38599">
        <ele>548.8</ele>
        <time>2020-06-30T11:46:33Z</time>
      </trkpt>
      <trkpt lat="43.07556" lon="0.38597">
        <ele>549</ele>
        <time>2020-06-30T11:46:34Z</time>
      </trkpt>
      <trkpt lat="43.07555" lon="0.38593">
        <ele>549</ele>
        <time>2020-06-30T11:46:35Z</time>
      </trkpt>
      <trkpt lat="43.07555" lon="0.38592">
        <ele>549.2</ele>
        <time>2020-06-30T11:46:36Z</time>
      </trkpt>
      <trkpt lat="43.07555" lon="0.38591">
        <ele>549.4</ele>
        <time>2020-06-30T11:46:37Z</time>
      </trkpt>
      <trkpt lat="43.07554" lon="0.38589">
        <ele>549.6</ele>
        <time>2020-06-30T11:46:38Z</time>
      </trkpt>
      <trkpt lat="43.07556" lon="0.38589">
        <ele>549.6</ele>
        <time>2020-06-30T11:46:39Z</time>
      </trkpt>
      <trkpt lat="43.07558" lon="0.38586">
        <ele>550</ele>
        <time>2020-06-30T11:46:40Z</time>
      </trkpt>
      <trkpt lat="43.07559" lon="0.38584">
        <ele>550</ele>
        <time>2020-06-30T11:46:41Z</time>
      </trkpt>
      <trkpt lat="43.0756" lon="0.38582">
        <ele>550.2</ele>
        <time>2020-06-30T11:46:42Z</time>
      </trkpt>
      <trkpt lat="43.0756" lon="0.3858">
        <ele>550.2</ele>
        <time>2020-06-30T11:46:43Z</time>
      </trkpt>
      <trkpt lat="43.07563" lon="0.38577">
        <ele>550.4</ele>
        <time>2020-06-30T11:46:44Z</time>
      </trkpt>
      <trkpt lat="43.07563" lon="0.38575">
        <ele>550.6</ele>
        <time>2020-06-30T11:46:45Z</time>
      </trkpt>
      <trkpt lat="43.07563" lon="0.38574">
        <ele>550.6</ele>
        <time>2020-06-30T11:46:46Z</time>
      </trkpt>
      <trkpt lat="43.07564" lon="0.38572">
        <ele>551</ele>
        <time>2020-06-30T11:46:47Z</time>
      </trkpt>
      <trkpt lat="43.07562" lon="0.38571">
        <ele>551</ele>
        <time>2020-06-30T11:46:48Z</time>
      </trkpt>
      <trkpt lat="43.07564" lon="0.38569">
        <ele>551.2</ele>
        <time>2020-06-30T11:46:49Z</time>
      </trkpt>
      <trkpt lat="43.07565" lon="0.38569">
        <ele>551.2</ele>
        <time>2020-06-30T11:46:50Z</time>
      </trkpt>
      <trkpt lat="43.07565" lon="0.38569">
        <ele>551.4</ele>
        <time>2020-06-30T11:46:51Z</time>
      </trkpt>
      <trkpt lat="43.07567" lon="0.38568">
        <ele>551.6</ele>
        <time>2020-06-30T11:46:52Z</time>
      </trkpt>
      <trkpt lat="43.07567" lon="0.38566">
        <ele>551.8</ele>
        <time>2020-06-30T11:46:53Z</time>
      </trkpt>
      <trkpt lat="43.07568" lon="0.38563">
        <ele>552</ele>
        <time>2020-06-30T11:46:54Z</time>
      </trkpt>
      <trkpt lat="43.07567" lon="0.38561">
        <ele>552.2</ele>
        <time>2020-06-30T11:46:55Z</time>
      </trkpt>
      <trkpt lat="43.07567" lon="0.38559">
        <ele>552.2</ele>
        <time>2020-06-30T11:46:56Z</time>
      </trkpt>
      <trkpt lat="43.07566" lon="0.38557">
        <ele>552.4</ele>
        <time>2020-06-30T11:46:57Z</time>
      </trkpt>
      <trkpt lat="43.07566" lon="0.38554">
        <ele>552.6</ele>
        <time>2020-06-30T11:46:58Z</time>
      </trkpt>
      <trkpt lat="43.07567" lon="0.38553">
        <ele>552.8</ele>
        <time>2020-06-30T11:46:59Z</time>
      </trkpt>
      <trkpt lat="43.07569" lon="0.38551">
        <ele>553</ele>
        <time>2020-06-30T11:47:00Z</time>
      </trkpt>
      <trkpt lat="43.07569" lon="0.3855">
        <ele>553</ele>
        <time>2020-06-30T11:47:01Z</time>
      </trkpt>
      <trkpt lat="43.07568" lon="0.38547">
        <ele>553.2</ele>
        <time>2020-06-30T11:47:02Z</time>
      </trkpt>
      <trkpt lat="43.07568" lon="0.38545">
        <ele>553.4</ele>
        <time>2020-06-30T11:47:03Z</time>
      </trkpt>
      <trkpt lat="43.07569" lon="0.38543">
        <ele>553.6</ele>
        <time>2020-06-30T11:47:04Z</time>
      </trkpt>
      <trkpt lat="43.07568" lon="0.38542">
        <ele>553.6</ele>
        <time>2020-06-30T11:47:05Z</time>
      </trkpt>
      <trkpt lat="43.07568" lon="0.38541">
        <ele>553.8</ele>
        <time>2020-06-30T11:47:06Z</time>
      </trkpt>
      <trkpt lat="43.07568" lon="0.38539">
        <ele>554</ele>
        <time>2020-06-30T11:47:07Z</time>
      </trkpt>
      <trkpt lat="43.07568" lon="0.38537">
        <ele>554.2</ele>
        <time>2020-06-30T11:47:08Z</time>
      </trkpt>
      <trkpt lat="43.07569" lon="0.38536">
        <ele>554.2</ele>
        <time>2020-06-30T11:47:09Z</time>
      </trkpt>
      <trkpt lat="43.07569" lon="0.38534">
        <ele>554.4</ele>
        <time>2020-06-30T11:47:10Z</time>
      </trkpt>
      <trkpt lat="43.0757" lon="0.38532">
        <ele>554.6</ele>
        <time>2020-06-30T11:47:11Z</time>
      </trkpt>
      <trkpt lat="43.07569" lon="0.3853">
        <ele>554.8</ele>
        <time>2020-06-30T11:47:12Z</time>
      </trkpt>
      <trkpt lat="43.07569" lon="0.38527">
        <ele>554.8</ele>
        <time>2020-06-30T11:47:13Z</time>
      </trkpt>
      <trkpt lat="43.0757" lon="0.38524">
        <ele>555</ele>
        <time>2020-06-30T11:47:14Z</time>
      </trkpt>
      <trkpt lat="43.07572" lon="0.38521">
        <ele>555.2</ele>
        <time>2020-06-30T11:47:15Z</time>
      </trkpt>
      <trkpt lat="43.0757" lon="0.38517">
        <ele>555.2</ele>
        <time>2020-06-30T11:47:16Z</time>
      </trkpt>
      <trkpt lat="43.07571" lon="0.38515">
        <ele>555.4</ele>
        <time>2020-06-30T11:47:17Z</time>
      </trkpt>
      <trkpt lat="43.0757" lon="0.38512">
        <ele>555.6</ele>
        <time>2020-06-30T11:47:18Z</time>
      </trkpt>
      <trkpt lat="43.07569" lon="0.3851">
        <ele>555.6</ele>
        <time>2020-06-30T11:47:19Z</time>
      </trkpt>
      <trkpt lat="43.07571" lon="0.38507">
        <ele>555.8</ele>
        <time>2020-06-30T11:47:20Z</time>
      </trkpt>
      <trkpt lat="43.07572" lon="0.38505">
        <ele>556</ele>
        <time>2020-06-30T11:47:21Z</time>
      </trkpt>
      <trkpt lat="43.07573" lon="0.38505">
        <ele>556</ele>
        <time>2020-06-30T11:47:22Z</time>
      </trkpt>
      <trkpt lat="43.07574" lon="0.38505">
        <ele>556.2</ele>
        <time>2020-06-30T11:47:23Z</time>
      </trkpt>
      <trkpt lat="43.07574" lon="0.38504">
        <ele>556.2</ele>
        <time>2020-06-30T11:47:24Z</time>
      </trkpt>
      <trkpt lat="43.07574" lon="0.38502">
        <ele>556.4</ele>
        <time>2020-06-30T11:47:25Z</time>
      </trkpt>
      <trkpt lat="43.07575" lon="0.38501">
        <ele>556.4</ele>
        <time>2020-06-30T11:47:26Z</time>
      </trkpt>
      <trkpt lat="43.07574" lon="0.385">
        <ele>556.4</ele>
        <time>2020-06-30T11:47:27Z</time>
      </trkpt>
      <trkpt lat="43.07574" lon="0.38496">
        <ele>556.8</ele>
        <time>2020-06-30T11:47:28Z</time>
      </trkpt>
      <trkpt lat="43.07573" lon="0.38494">
        <ele>556.8</ele>
        <time>2020-06-30T11:47:29Z</time>
      </trkpt>
      <trkpt lat="43.07574" lon="0.38493">
        <ele>557</ele>
        <time>2020-06-30T11:47:30Z</time>
      </trkpt>
      <trkpt lat="43.07574" lon="0.38491">
        <ele>557.2</ele>
        <time>2020-06-30T11:47:31Z</time>
      </trkpt>
      <trkpt lat="43.07573" lon="0.38489">
        <ele>557.2</ele>
        <time>2020-06-30T11:47:32Z</time>
      </trkpt>
      <trkpt lat="43.07573" lon="0.38487">
        <ele>557.4</ele>
        <time>2020-06-30T11:47:33Z</time>
      </trkpt>
      <trkpt lat="43.07573" lon="0.38484">
        <ele>557.4</ele>
        <time>2020-06-30T11:47:34Z</time>
      </trkpt>
      <trkpt lat="43.07573" lon="0.38482">
        <ele>557.6</ele>
        <time>2020-06-30T11:47:35Z</time>
      </trkpt>
      <trkpt lat="43.07574" lon="0.3848">
        <ele>557.8</ele>
        <time>2020-06-30T11:47:36Z</time>
      </trkpt>
      <trkpt lat="43.07574" lon="0.38478">
        <ele>557.8</ele>
        <time>2020-06-30T11:47:37Z</time>
      </trkpt>
      <trkpt lat="43.07574" lon="0.38475">
        <ele>558</ele>
        <time>2020-06-30T11:47:38Z</time>
      </trkpt>
      <trkpt lat="43.07574" lon="0.38471">
        <ele>558.2</ele>
        <time>2020-06-30T11:47:39Z</time>
      </trkpt>
      <trkpt lat="43.07575" lon="0.38469">
        <ele>558.2</ele>
        <time>2020-06-30T11:47:40Z</time>
      </trkpt>
      <trkpt lat="43.07575" lon="0.38465">
        <ele>558.4</ele>
        <time>2020-06-30T11:47:41Z</time>
      </trkpt>
      <trkpt lat="43.07578" lon="0.38465">
        <ele>558.4</ele>
        <time>2020-06-30T11:47:42Z</time>
      </trkpt>
      <trkpt lat="43.07578" lon="0.38463">
        <ele>558.6</ele>
        <time>2020-06-30T11:47:43Z</time>
      </trkpt>
      <trkpt lat="43.07579" lon="0.3846">
        <ele>558.8</ele>
        <time>2020-06-30T11:47:44Z</time>
      </trkpt>
      <trkpt lat="43.07579" lon="0.38457">
        <ele>558.8</ele>
        <time>2020-06-30T11:47:45Z</time>
      </trkpt>
      <trkpt lat="43.07579" lon="0.38455">
        <ele>558.8</ele>
        <time>2020-06-30T11:47:46Z</time>
      </trkpt>
      <trkpt lat="43.0758" lon="0.38453">
        <ele>559.2</ele>
        <time>2020-06-30T11:47:47Z</time>
      </trkpt>
      <trkpt lat="43.0758" lon="0.38451">
        <ele>559.2</ele>
        <time>2020-06-30T11:47:48Z</time>
      </trkpt>
      <trkpt lat="43.0758" lon="0.38448">
        <ele>559.4</ele>
        <time>2020-06-30T11:47:49Z</time>
      </trkpt>
      <trkpt lat="43.0758" lon="0.38445">
        <ele>559.4</ele>
        <time>2020-06-30T11:47:50Z</time>
      </trkpt>
      <trkpt lat="43.07581" lon="0.38443">
        <ele>559.6</ele>
        <time>2020-06-30T11:47:51Z</time>
      </trkpt>
      <trkpt lat="43.07581" lon="0.3844">
        <ele>559.6</ele>
        <time>2020-06-30T11:47:52Z</time>
      </trkpt>
      <trkpt lat="43.07581" lon="0.38437">
        <ele>559.8</ele>
        <time>2020-06-30T11:47:53Z</time>
      </trkpt>
      <trkpt lat="43.07581" lon="0.38435">
        <ele>559.8</ele>
        <time>2020-06-30T11:47:54Z</time>
      </trkpt>
      <trkpt lat="43.07582" lon="0.38432">
        <ele>560</ele>
        <time>2020-06-30T11:47:55Z</time>
      </trkpt>
      <trkpt lat="43.07582" lon="0.38429">
        <ele>560</ele>
        <time>2020-06-30T11:47:56Z</time>
      </trkpt>
      <trkpt lat="43.07583" lon="0.38427">
        <ele>560.2</ele>
        <time>2020-06-30T11:47:57Z</time>
      </trkpt>
      <trkpt lat="43.07583" lon="0.38423">
        <ele>560.4</ele>
        <time>2020-06-30T11:47:58Z</time>
      </trkpt>
      <trkpt lat="43.07583" lon="0.38421">
        <ele>560.6</ele>
        <time>2020-06-30T11:47:59Z</time>
      </trkpt>
      <trkpt lat="43.07583" lon="0.38419">
        <ele>560.6</ele>
        <time>2020-06-30T11:48:00Z</time>
      </trkpt>
      <trkpt lat="43.07583" lon="0.38417">
        <ele>560.6</ele>
        <time>2020-06-30T11:48:01Z</time>
      </trkpt>
      <trkpt lat="43.07583" lon="0.38414">
        <ele>560.8</ele>
        <time>2020-06-30T11:48:02Z</time>
      </trkpt>
      <trkpt lat="43.07583" lon="0.38412">
        <ele>561</ele>
        <time>2020-06-30T11:48:03Z</time>
      </trkpt>
      <trkpt lat="43.07584" lon="0.3841">
        <ele>561</ele>
        <time>2020-06-30T11:48:04Z</time>
      </trkpt>
      <trkpt lat="43.07583" lon="0.38407">
        <ele>561</ele>
        <time>2020-06-30T11:48:05Z</time>
      </trkpt>
      <trkpt lat="43.07583" lon="0.38405">
        <ele>561.2</ele>
        <time>2020-06-30T11:48:06Z</time>
      </trkpt>
      <trkpt lat="43.07583" lon="0.38403">
        <ele>561.2</ele>
        <time>2020-06-30T11:48:07Z</time>
      </trkpt>
      <trkpt lat="43.07584" lon="0.384">
        <ele>561.4</ele>
        <time>2020-06-30T11:48:08Z</time>
      </trkpt>
      <trkpt lat="43.07583" lon="0.38398">
        <ele>561.4</ele>
        <time>2020-06-30T11:48:09Z</time>
      </trkpt>
      <trkpt lat="43.07583" lon="0.38395">
        <ele>561.6</ele>
        <time>2020-06-30T11:48:10Z</time>
      </trkpt>
      <trkpt lat="43.07584" lon="0.38393">
        <ele>561.6</ele>
        <time>2020-06-30T11:48:11Z</time>
      </trkpt>
      <trkpt lat="43.07585" lon="0.38391">
        <ele>561.6</ele>
        <time>2020-06-30T11:48:12Z</time>
      </trkpt>
      <trkpt lat="43.07585" lon="0.38388">
        <ele>561.8</ele>
        <time>2020-06-30T11:48:13Z</time>
      </trkpt>
      <trkpt lat="43.07585" lon="0.38386">
        <ele>561.8</ele>
        <time>2020-06-30T11:48:14Z</time>
      </trkpt>
      <trkpt lat="43.07585" lon="0.38383">
        <ele>562</ele>
        <time>2020-06-30T11:48:15Z</time>
      </trkpt>
      <trkpt lat="43.07586" lon="0.38381">
        <ele>562</ele>
        <time>2020-06-30T11:48:16Z</time>
      </trkpt>
      <trkpt lat="43.07587" lon="0.38378">
        <ele>562</ele>
        <time>2020-06-30T11:48:17Z</time>
      </trkpt>
      <trkpt lat="43.07587" lon="0.38375">
        <ele>562.2</ele>
        <time>2020-06-30T11:48:18Z</time>
      </trkpt>
      <trkpt lat="43.07587" lon="0.38372">
        <ele>562.4</ele>
        <time>2020-06-30T11:48:19Z</time>
      </trkpt>
      <trkpt lat="43.07588" lon="0.3837">
        <ele>562.4</ele>
        <time>2020-06-30T11:48:20Z</time>
      </trkpt>
      <trkpt lat="43.07588" lon="0.38367">
        <ele>562.4</ele>
        <time>2020-06-30T11:48:21Z</time>
      </trkpt>
      <trkpt lat="43.07589" lon="0.38364">
        <ele>562.6</ele>
        <time>2020-06-30T11:48:22Z</time>
      </trkpt>
      <trkpt lat="43.07589" lon="0.38362">
        <ele>562.6</ele>
        <time>2020-06-30T11:48:23Z</time>
      </trkpt>
      <trkpt lat="43.07589" lon="0.38359">
        <ele>562.6</ele>
        <time>2020-06-30T11:48:24Z</time>
      </trkpt>
      <trkpt lat="43.07589" lon="0.38357">
        <ele>562.6</ele>
        <time>2020-06-30T11:48:25Z</time>
      </trkpt>
      <trkpt lat="43.07589" lon="0.38355">
        <ele>562.8</ele>
        <time>2020-06-30T11:48:26Z</time>
      </trkpt>
      <trkpt lat="43.0759" lon="0.38353">
        <ele>562.8</ele>
        <time>2020-06-30T11:48:27Z</time>
      </trkpt>
      <trkpt lat="43.07591" lon="0.3835">
        <ele>563</ele>
        <time>2020-06-30T11:48:28Z</time>
      </trkpt>
      <trkpt lat="43.07591" lon="0.38347">
        <ele>563</ele>
        <time>2020-06-30T11:48:29Z</time>
      </trkpt>
      <trkpt lat="43.07591" lon="0.38345">
        <ele>563</ele>
        <time>2020-06-30T11:48:30Z</time>
      </trkpt>
      <trkpt lat="43.07591" lon="0.38342">
        <ele>563</ele>
        <time>2020-06-30T11:48:31Z</time>
      </trkpt>
      <trkpt lat="43.07592" lon="0.38339">
        <ele>563</ele>
        <time>2020-06-30T11:48:32Z</time>
      </trkpt>
      <trkpt lat="43.07592" lon="0.38337">
        <ele>563.2</ele>
        <time>2020-06-30T11:48:33Z</time>
      </trkpt>
      <trkpt lat="43.07593" lon="0.38335">
        <ele>563.2</ele>
        <time>2020-06-30T11:48:34Z</time>
      </trkpt>
      <trkpt lat="43.07594" lon="0.38332">
        <ele>563.4</ele>
        <time>2020-06-30T11:48:35Z</time>
      </trkpt>
      <trkpt lat="43.07595" lon="0.3833">
        <ele>563.4</ele>
        <time>2020-06-30T11:48:36Z</time>
      </trkpt>
      <trkpt lat="43.07596" lon="0.38326">
        <ele>563.4</ele>
        <time>2020-06-30T11:48:37Z</time>
      </trkpt>
      <trkpt lat="43.07597" lon="0.38324">
        <ele>563.4</ele>
        <time>2020-06-30T11:48:38Z</time>
      </trkpt>
      <trkpt lat="43.07597" lon="0.38322">
        <ele>563.4</ele>
        <time>2020-06-30T11:48:39Z</time>
      </trkpt>
      <trkpt lat="43.07598" lon="0.38321">
        <ele>563.4</ele>
        <time>2020-06-30T11:48:40Z</time>
      </trkpt>
      <trkpt lat="43.07599" lon="0.3832">
        <ele>563.4</ele>
        <time>2020-06-30T11:48:41Z</time>
      </trkpt>
      <trkpt lat="43.07599" lon="0.38319">
        <ele>563.4</ele>
        <time>2020-06-30T11:48:42Z</time>
      </trkpt>
      <trkpt lat="43.07599" lon="0.38318">
        <ele>563.6</ele>
        <time>2020-06-30T11:48:43Z</time>
      </trkpt>
      <trkpt lat="43.07599" lon="0.38317">
        <ele>563.6</ele>
        <time>2020-06-30T11:48:44Z</time>
      </trkpt>
      <trkpt lat="43.076" lon="0.38315">
        <ele>563.6</ele>
        <time>2020-06-30T11:48:45Z</time>
      </trkpt>
      <trkpt lat="43.07599" lon="0.38313">
        <ele>563.6</ele>
        <time>2020-06-30T11:48:46Z</time>
      </trkpt>
      <trkpt lat="43.07599" lon="0.38311">
        <ele>563.6</ele>
        <time>2020-06-30T11:48:47Z</time>
      </trkpt>
      <trkpt lat="43.07599" lon="0.38309">
        <ele>563.6</ele>
        <time>2020-06-30T11:48:48Z</time>
      </trkpt>
      <trkpt lat="43.07599" lon="0.38308">
        <ele>563.6</ele>
        <time>2020-06-30T11:48:49Z</time>
      </trkpt>
      <trkpt lat="43.07599" lon="0.38305">
        <ele>563.8</ele>
        <time>2020-06-30T11:48:50Z</time>
      </trkpt>
      <trkpt lat="43.07599" lon="0.38303">
        <ele>563.8</ele>
        <time>2020-06-30T11:48:51Z</time>
      </trkpt>
      <trkpt lat="43.07599" lon="0.38299">
        <ele>563.8</ele>
        <time>2020-06-30T11:48:52Z</time>
      </trkpt>
      <trkpt lat="43.07599" lon="0.38297">
        <ele>563.8</ele>
        <time>2020-06-30T11:48:53Z</time>
      </trkpt>
      <trkpt lat="43.07599" lon="0.38295">
        <ele>563.8</ele>
        <time>2020-06-30T11:48:54Z</time>
      </trkpt>
      <trkpt lat="43.076" lon="0.38293">
        <ele>563.8</ele>
        <time>2020-06-30T11:48:55Z</time>
      </trkpt>
      <trkpt lat="43.076" lon="0.3829">
        <ele>564</ele>
        <time>2020-06-30T11:48:56Z</time>
      </trkpt>
      <trkpt lat="43.07601" lon="0.38287">
        <ele>564</ele>
        <time>2020-06-30T11:48:57Z</time>
      </trkpt>
      <trkpt lat="43.07602" lon="0.38285">
        <ele>564</ele>
        <time>2020-06-30T11:48:58Z</time>
      </trkpt>
      <trkpt lat="43.07602" lon="0.38283">
        <ele>564</ele>
        <time>2020-06-30T11:48:59Z</time>
      </trkpt>
      <trkpt lat="43.07602" lon="0.38279">
        <ele>564</ele>
        <time>2020-06-30T11:49:00Z</time>
      </trkpt>
      <trkpt lat="43.07603" lon="0.38277">
        <ele>564</ele>
        <time>2020-06-30T11:49:01Z</time>
      </trkpt>
      <trkpt lat="43.07603" lon="0.38275">
        <ele>564</ele>
        <time>2020-06-30T11:49:02Z</time>
      </trkpt>
      <trkpt lat="43.07603" lon="0.38272">
        <ele>564.2</ele>
        <time>2020-06-30T11:49:03Z</time>
      </trkpt>
      <trkpt lat="43.07604" lon="0.3827">
        <ele>564.2</ele>
        <time>2020-06-30T11:49:04Z</time>
      </trkpt>
      <trkpt lat="43.07605" lon="0.38267">
        <ele>562.4</ele>
        <time>2020-06-30T11:49:05Z</time>
      </trkpt>
      <trkpt lat="43.07605" lon="0.38265">
        <ele>562.4</ele>
        <time>2020-06-30T11:49:06Z</time>
      </trkpt>
      <trkpt lat="43.07606" lon="0.38261">
        <ele>562.4</ele>
        <time>2020-06-30T11:49:07Z</time>
      </trkpt>
      <trkpt lat="43.07606" lon="0.38258">
        <ele>564.2</ele>
        <time>2020-06-30T11:49:08Z</time>
      </trkpt>
      <trkpt lat="43.07606" lon="0.38255">
        <ele>564.4</ele>
        <time>2020-06-30T11:49:09Z</time>
      </trkpt>
      <trkpt lat="43.07607" lon="0.38251">
        <ele>564.4</ele>
        <time>2020-06-30T11:49:10Z</time>
      </trkpt>
      <trkpt lat="43.07607" lon="0.38248">
        <ele>564.6</ele>
        <time>2020-06-30T11:49:11Z</time>
      </trkpt>
      <trkpt lat="43.07607" lon="0.38245">
        <ele>564.6</ele>
        <time>2020-06-30T11:49:12Z</time>
      </trkpt>
      <trkpt lat="43.07607" lon="0.38242">
        <ele>564.4</ele>
        <time>2020-06-30T11:49:13Z</time>
      </trkpt>
      <trkpt lat="43.07607" lon="0.38238">
        <ele>564.6</ele>
        <time>2020-06-30T11:49:14Z</time>
      </trkpt>
      <trkpt lat="43.07607" lon="0.38234">
        <ele>564.6</ele>
        <time>2020-06-30T11:49:15Z</time>
      </trkpt>
      <trkpt lat="43.07607" lon="0.38231">
        <ele>564.6</ele>
        <time>2020-06-30T11:49:16Z</time>
      </trkpt>
      <trkpt lat="43.07607" lon="0.38227">
        <ele>564.8</ele>
        <time>2020-06-30T11:49:17Z</time>
      </trkpt>
      <trkpt lat="43.07607" lon="0.38224">
        <ele>564.8</ele>
        <time>2020-06-30T11:49:18Z</time>
      </trkpt>
      <trkpt lat="43.07607" lon="0.3822">
        <ele>564.8</ele>
        <time>2020-06-30T11:49:19Z</time>
      </trkpt>
      <trkpt lat="43.07608" lon="0.38217">
        <ele>564.8</ele>
        <time>2020-06-30T11:49:20Z</time>
      </trkpt>
      <trkpt lat="43.07608" lon="0.38214">
        <ele>564.8</ele>
        <time>2020-06-30T11:49:21Z</time>
      </trkpt>
      <trkpt lat="43.07609" lon="0.38211">
        <ele>565</ele>
        <time>2020-06-30T11:49:22Z</time>
      </trkpt>
      <trkpt lat="43.0761" lon="0.38208">
        <ele>565</ele>
        <time>2020-06-30T11:49:23Z</time>
      </trkpt>
      <trkpt lat="43.07611" lon="0.38206">
        <ele>565</ele>
        <time>2020-06-30T11:49:24Z</time>
      </trkpt>
      <trkpt lat="43.07611" lon="0.38203">
        <ele>565</ele>
        <time>2020-06-30T11:49:25Z</time>
      </trkpt>
      <trkpt lat="43.07612" lon="0.382">
        <ele>565</ele>
        <time>2020-06-30T11:49:26Z</time>
      </trkpt>
      <trkpt lat="43.07613" lon="0.38196">
        <ele>565.2</ele>
        <time>2020-06-30T11:49:27Z</time>
      </trkpt>
      <trkpt lat="43.07613" lon="0.38194">
        <ele>565.2</ele>
        <time>2020-06-30T11:49:28Z</time>
      </trkpt>
      <trkpt lat="43.07615" lon="0.38192">
        <ele>565.2</ele>
        <time>2020-06-30T11:49:29Z</time>
      </trkpt>
      <trkpt lat="43.07615" lon="0.38188">
        <ele>565.4</ele>
        <time>2020-06-30T11:49:30Z</time>
      </trkpt>
      <trkpt lat="43.07616" lon="0.38186">
        <ele>565.4</ele>
        <time>2020-06-30T11:49:31Z</time>
      </trkpt>
      <trkpt lat="43.07617" lon="0.38184">
        <ele>565.4</ele>
        <time>2020-06-30T11:49:32Z</time>
      </trkpt>
      <trkpt lat="43.07618" lon="0.38181">
        <ele>565.6</ele>
        <time>2020-06-30T11:49:33Z</time>
      </trkpt>
      <trkpt lat="43.07618" lon="0.38178">
        <ele>565.6</ele>
        <time>2020-06-30T11:49:34Z</time>
      </trkpt>
      <trkpt lat="43.07618" lon="0.38174">
        <ele>565.6</ele>
        <time>2020-06-30T11:49:35Z</time>
      </trkpt>
      <trkpt lat="43.07619" lon="0.38171">
        <ele>565.6</ele>
        <time>2020-06-30T11:49:36Z</time>
      </trkpt>
      <trkpt lat="43.07619" lon="0.38168">
        <ele>565.6</ele>
        <time>2020-06-30T11:49:37Z</time>
      </trkpt>
      <trkpt lat="43.07619" lon="0.38165">
        <ele>565.6</ele>
        <time>2020-06-30T11:49:38Z</time>
      </trkpt>
      <trkpt lat="43.0762" lon="0.38162">
        <ele>565.6</ele>
        <time>2020-06-30T11:49:39Z</time>
      </trkpt>
      <trkpt lat="43.07621" lon="0.3816">
        <ele>565.6</ele>
        <time>2020-06-30T11:49:40Z</time>
      </trkpt>
      <trkpt lat="43.07621" lon="0.38157">
        <ele>565.6</ele>
        <time>2020-06-30T11:49:41Z</time>
      </trkpt>
      <trkpt lat="43.07622" lon="0.38154">
        <ele>565.8</ele>
        <time>2020-06-30T11:49:42Z</time>
      </trkpt>
      <trkpt lat="43.07623" lon="0.38151">
        <ele>565.8</ele>
        <time>2020-06-30T11:49:43Z</time>
      </trkpt>
      <trkpt lat="43.07623" lon="0.38148">
        <ele>565.8</ele>
        <time>2020-06-30T11:49:44Z</time>
      </trkpt>
      <trkpt lat="43.07623" lon="0.38145">
        <ele>566</ele>
        <time>2020-06-30T11:49:45Z</time>
      </trkpt>
      <trkpt lat="43.07624" lon="0.38142">
        <ele>566</ele>
        <time>2020-06-30T11:49:46Z</time>
      </trkpt>
      <trkpt lat="43.07624" lon="0.38139">
        <ele>566</ele>
        <time>2020-06-30T11:49:47Z</time>
      </trkpt>
      <trkpt lat="43.07625" lon="0.38136">
        <ele>566</ele>
        <time>2020-06-30T11:49:48Z</time>
      </trkpt>
      <trkpt lat="43.07626" lon="0.38134">
        <ele>566.2</ele>
        <time>2020-06-30T11:49:49Z</time>
      </trkpt>
      <trkpt lat="43.07627" lon="0.38131">
        <ele>566.4</ele>
        <time>2020-06-30T11:49:50Z</time>
      </trkpt>
      <trkpt lat="43.07627" lon="0.38127">
        <ele>566.6</ele>
        <time>2020-06-30T11:49:51Z</time>
      </trkpt>
      <trkpt lat="43.07628" lon="0.38123">
        <ele>566.4</ele>
        <time>2020-06-30T11:49:52Z</time>
      </trkpt>
      <trkpt lat="43.07628" lon="0.3812">
        <ele>566.6</ele>
        <time>2020-06-30T11:49:53Z</time>
      </trkpt>
      <trkpt lat="43.07629" lon="0.38116">
        <ele>566.6</ele>
        <time>2020-06-30T11:49:54Z</time>
      </trkpt>
      <trkpt lat="43.0763" lon="0.38112">
        <ele>566.6</ele>
        <time>2020-06-30T11:49:55Z</time>
      </trkpt>
      <trkpt lat="43.0763" lon="0.38107">
        <ele>566.8</ele>
        <time>2020-06-30T11:49:56Z</time>
      </trkpt>
      <trkpt lat="43.07631" lon="0.38103">
        <ele>566.8</ele>
        <time>2020-06-30T11:49:57Z</time>
      </trkpt>
      <trkpt lat="43.07631" lon="0.381">
        <ele>566.8</ele>
        <time>2020-06-30T11:49:58Z</time>
      </trkpt>
      <trkpt lat="43.07632" lon="0.38096">
        <ele>566.8</ele>
        <time>2020-06-30T11:49:59Z</time>
      </trkpt>
      <trkpt lat="43.07632" lon="0.38092">
        <ele>566.8</ele>
        <time>2020-06-30T11:50:00Z</time>
      </trkpt>
      <trkpt lat="43.07633" lon="0.38088">
        <ele>566.8</ele>
        <time>2020-06-30T11:50:01Z</time>
      </trkpt>
      <trkpt lat="43.07634" lon="0.38085">
        <ele>567</ele>
        <time>2020-06-30T11:50:02Z</time>
      </trkpt>
      <trkpt lat="43.07635" lon="0.38081">
        <ele>566.8</ele>
        <time>2020-06-30T11:50:03Z</time>
      </trkpt>
      <trkpt lat="43.07636" lon="0.38078">
        <ele>566.8</ele>
        <time>2020-06-30T11:50:04Z</time>
      </trkpt>
      <trkpt lat="43.07637" lon="0.38074">
        <ele>566.8</ele>
        <time>2020-06-30T11:50:05Z</time>
      </trkpt>
      <trkpt lat="43.07637" lon="0.38069">
        <ele>566.8</ele>
        <time>2020-06-30T11:50:06Z</time>
      </trkpt>
      <trkpt lat="43.07638" lon="0.38065">
        <ele>566.8</ele>
        <time>2020-06-30T11:50:07Z</time>
      </trkpt>
      <trkpt lat="43.07639" lon="0.3806">
        <ele>567</ele>
        <time>2020-06-30T11:50:08Z</time>
      </trkpt>
      <trkpt lat="43.0764" lon="0.38056">
        <ele>567</ele>
        <time>2020-06-30T11:50:09Z</time>
      </trkpt>
      <trkpt lat="43.07641" lon="0.38053">
        <ele>567</ele>
        <time>2020-06-30T11:50:10Z</time>
      </trkpt>
      <trkpt lat="43.07642" lon="0.38049">
        <ele>566.8</ele>
        <time>2020-06-30T11:50:11Z</time>
      </trkpt>
      <trkpt lat="43.07643" lon="0.38044">
        <ele>567</ele>
        <time>2020-06-30T11:50:12Z</time>
      </trkpt>
      <trkpt lat="43.07644" lon="0.3804">
        <ele>567</ele>
        <time>2020-06-30T11:50:13Z</time>
      </trkpt>
      <trkpt lat="43.07645" lon="0.38035">
        <ele>567.2</ele>
        <time>2020-06-30T11:50:14Z</time>
      </trkpt>
      <trkpt lat="43.07646" lon="0.38032">
        <ele>567.2</ele>
        <time>2020-06-30T11:50:15Z</time>
      </trkpt>
      <trkpt lat="43.07648" lon="0.38027">
        <ele>567.2</ele>
        <time>2020-06-30T11:50:16Z</time>
      </trkpt>
      <trkpt lat="43.07649" lon="0.38021">
        <ele>567</ele>
        <time>2020-06-30T11:50:17Z</time>
      </trkpt>
      <trkpt lat="43.0765" lon="0.38017">
        <ele>567.2</ele>
        <time>2020-06-30T11:50:18Z</time>
      </trkpt>
      <trkpt lat="43.07651" lon="0.38013">
        <ele>567.2</ele>
        <time>2020-06-30T11:50:19Z</time>
      </trkpt>
      <trkpt lat="43.07652" lon="0.38008">
        <ele>567</ele>
        <time>2020-06-30T11:50:20Z</time>
      </trkpt>
      <trkpt lat="43.07653" lon="0.38003">
        <ele>567.2</ele>
        <time>2020-06-30T11:50:21Z</time>
      </trkpt>
      <trkpt lat="43.07655" lon="0.37998">
        <ele>567.2</ele>
        <time>2020-06-30T11:50:22Z</time>
      </trkpt>
      <trkpt lat="43.07656" lon="0.37993">
        <ele>567.2</ele>
        <time>2020-06-30T11:50:23Z</time>
      </trkpt>
      <trkpt lat="43.07657" lon="0.37989">
        <ele>566.8</ele>
        <time>2020-06-30T11:50:24Z</time>
      </trkpt>
      <trkpt lat="43.07658" lon="0.37984">
        <ele>567.2</ele>
        <time>2020-06-30T11:50:25Z</time>
      </trkpt>
      <trkpt lat="43.07659" lon="0.3798">
        <ele>567.4</ele>
        <time>2020-06-30T11:50:26Z</time>
      </trkpt>
      <trkpt lat="43.07661" lon="0.37975">
        <ele>567.2</ele>
        <time>2020-06-30T11:50:27Z</time>
      </trkpt>
      <trkpt lat="43.07662" lon="0.37971">
        <ele>567</ele>
        <time>2020-06-30T11:50:28Z</time>
      </trkpt>
      <trkpt lat="43.07663" lon="0.37967">
        <ele>567</ele>
        <time>2020-06-30T11:50:29Z</time>
      </trkpt>
      <trkpt lat="43.07664" lon="0.37962">
        <ele>567</ele>
        <time>2020-06-30T11:50:30Z</time>
      </trkpt>
      <trkpt lat="43.07665" lon="0.37956">
        <ele>567</ele>
        <time>2020-06-30T11:50:31Z</time>
      </trkpt>
      <trkpt lat="43.07666" lon="0.37951">
        <ele>567</ele>
        <time>2020-06-30T11:50:32Z</time>
      </trkpt>
      <trkpt lat="43.07667" lon="0.37947">
        <ele>567</ele>
        <time>2020-06-30T11:50:33Z</time>
      </trkpt>
      <trkpt lat="43.07668" lon="0.37942">
        <ele>567</ele>
        <time>2020-06-30T11:50:34Z</time>
      </trkpt>
      <trkpt lat="43.07669" lon="0.37939">
        <ele>567</ele>
        <time>2020-06-30T11:50:35Z</time>
      </trkpt>
      <trkpt lat="43.0767" lon="0.37935">
        <ele>567</ele>
        <time>2020-06-30T11:50:36Z</time>
      </trkpt>
      <trkpt lat="43.07672" lon="0.3793">
        <ele>567</ele>
        <time>2020-06-30T11:50:37Z</time>
      </trkpt>
      <trkpt lat="43.07673" lon="0.37926">
        <ele>567</ele>
        <time>2020-06-30T11:50:38Z</time>
      </trkpt>
      <trkpt lat="43.07675" lon="0.37922">
        <ele>567.2</ele>
        <time>2020-06-30T11:50:39Z</time>
      </trkpt>
      <trkpt lat="43.07676" lon="0.37919">
        <ele>567.2</ele>
        <time>2020-06-30T11:50:40Z</time>
      </trkpt>
      <trkpt lat="43.07676" lon="0.37917">
        <ele>567.2</ele>
        <time>2020-06-30T11:50:41Z</time>
      </trkpt>
      <trkpt lat="43.07677" lon="0.37915">
        <ele>567.2</ele>
        <time>2020-06-30T11:50:42Z</time>
      </trkpt>
      <trkpt lat="43.07677" lon="0.37913">
        <ele>567.2</ele>
        <time>2020-06-30T11:50:43Z</time>
      </trkpt>
      <trkpt lat="43.07677" lon="0.37911">
        <ele>567.2</ele>
        <time>2020-06-30T11:50:44Z</time>
      </trkpt>
      <trkpt lat="43.07676" lon="0.3791">
        <ele>567.2</ele>
        <time>2020-06-30T11:50:45Z</time>
      </trkpt>
      <trkpt lat="43.07676" lon="0.37908">
        <ele>567.2</ele>
        <time>2020-06-30T11:50:46Z</time>
      </trkpt>
      <trkpt lat="43.07676" lon="0.37906">
        <ele>567.4</ele>
        <time>2020-06-30T11:50:47Z</time>
      </trkpt>
      <trkpt lat="43.07675" lon="0.37905">
        <ele>567.4</ele>
        <time>2020-06-30T11:50:48Z</time>
      </trkpt>
      <trkpt lat="43.07675" lon="0.37903">
        <ele>567.4</ele>
        <time>2020-06-30T11:50:49Z</time>
      </trkpt>
      <trkpt lat="43.07674" lon="0.37901">
        <ele>567.4</ele>
        <time>2020-06-30T11:50:50Z</time>
      </trkpt>
      <trkpt lat="43.07674" lon="0.379">
        <ele>567.2</ele>
        <time>2020-06-30T11:50:51Z</time>
      </trkpt>
      <trkpt lat="43.07673" lon="0.37899">
        <ele>567.4</ele>
        <time>2020-06-30T11:50:52Z</time>
      </trkpt>
      <trkpt lat="43.07673" lon="0.37898">
        <ele>567.4</ele>
        <time>2020-06-30T11:50:53Z</time>
      </trkpt>
      <trkpt lat="43.07673" lon="0.37898">
        <ele>567.4</ele>
        <time>2020-06-30T11:50:54Z</time>
      </trkpt>
      <trkpt lat="43.07672" lon="0.37898">
        <ele>567.4</ele>
        <time>2020-06-30T11:50:55Z</time>
      </trkpt>
      <trkpt lat="43.07672" lon="0.37897">
        <ele>567.4</ele>
        <time>2020-06-30T11:50:56Z</time>
      </trkpt>
      <trkpt lat="43.07672" lon="0.37897">
        <ele>567.4</ele>
        <time>2020-06-30T11:50:57Z</time>
      </trkpt>
      <trkpt lat="43.07672" lon="0.37897">
        <ele>567.4</ele>
        <time>2020-06-30T11:50:58Z</time>
      </trkpt>
      <trkpt lat="43.07672" lon="0.37897">
        <ele>567.4</ele>
        <time>2020-06-30T11:50:59Z</time>
      </trkpt>
      <trkpt lat="43.07672" lon="0.37896">
        <ele>567.2</ele>
        <time>2020-06-30T11:51:00Z</time>
      </trkpt>
      <trkpt lat="43.07671" lon="0.37894">
        <ele>567.2</ele>
        <time>2020-06-30T11:51:01Z</time>
      </trkpt>
      <trkpt lat="43.07671" lon="0.37894">
        <ele>567.4</ele>
        <time>2020-06-30T11:51:02Z</time>
      </trkpt>
      <trkpt lat="43.07672" lon="0.37894">
        <ele>567.4</ele>
        <time>2020-06-30T11:51:03Z</time>
      </trkpt>
      <trkpt lat="43.07671" lon="0.37893">
        <ele>567.4</ele>
        <time>2020-06-30T11:51:04Z</time>
      </trkpt>
      <trkpt lat="43.07672" lon="0.37901">
        <ele>567.6</ele>
        <time>2020-06-30T11:51:20Z</time>
      </trkpt>
      <trkpt lat="43.07672" lon="0.37904">
        <ele>567.6</ele>
        <time>2020-06-30T11:51:21Z</time>
      </trkpt>
      <trkpt lat="43.07673" lon="0.37906">
        <ele>567.6</ele>
        <time>2020-06-30T11:51:22Z</time>
      </trkpt>
      <trkpt lat="43.07673" lon="0.37906">
        <ele>567.6</ele>
        <time>2020-06-30T11:51:23Z</time>
      </trkpt>
      <trkpt lat="43.07673" lon="0.3791">
        <ele>567.4</ele>
        <time>2020-06-30T11:51:24Z</time>
      </trkpt>
      <trkpt lat="43.07675" lon="0.3791">
        <ele>567.4</ele>
        <time>2020-06-30T11:51:25Z</time>
      </trkpt>
      <trkpt lat="43.07676" lon="0.37911">
        <ele>567.4</ele>
        <time>2020-06-30T11:51:26Z</time>
      </trkpt>
      <trkpt lat="43.07678" lon="0.37913">
        <ele>567.4</ele>
        <time>2020-06-30T11:51:27Z</time>
      </trkpt>
      <trkpt lat="43.07681" lon="0.37915">
        <ele>567.4</ele>
        <time>2020-06-30T11:51:28Z</time>
      </trkpt>
      <trkpt lat="43.07682" lon="0.37917">
        <ele>567.4</ele>
        <time>2020-06-30T11:51:29Z</time>
      </trkpt>
      <trkpt lat="43.07685" lon="0.37919">
        <ele>567.4</ele>
        <time>2020-06-30T11:51:30Z</time>
      </trkpt>
      <trkpt lat="43.07688" lon="0.37921">
        <ele>567.4</ele>
        <time>2020-06-30T11:51:31Z</time>
      </trkpt>
      <trkpt lat="43.07691" lon="0.37923">
        <ele>567.4</ele>
        <time>2020-06-30T11:51:32Z</time>
      </trkpt>
      <trkpt lat="43.07694" lon="0.37926">
        <ele>567.4</ele>
        <time>2020-06-30T11:51:33Z</time>
      </trkpt>
      <trkpt lat="43.07697" lon="0.37928">
        <ele>567.2</ele>
        <time>2020-06-30T11:51:34Z</time>
      </trkpt>
      <trkpt lat="43.07702" lon="0.37932">
        <ele>567.6</ele>
        <time>2020-06-30T11:51:35Z</time>
      </trkpt>
      <trkpt lat="43.07706" lon="0.37935">
        <ele>567.4</ele>
        <time>2020-06-30T11:51:36Z</time>
      </trkpt>
      <trkpt lat="43.0771" lon="0.37938">
        <ele>567.2</ele>
        <time>2020-06-30T11:51:37Z</time>
      </trkpt>
      <trkpt lat="43.07714" lon="0.3794">
        <ele>567.4</ele>
        <time>2020-06-30T11:51:38Z</time>
      </trkpt>
      <trkpt lat="43.07719" lon="0.37942">
        <ele>567.2</ele>
        <time>2020-06-30T11:51:39Z</time>
      </trkpt>
      <trkpt lat="43.07724" lon="0.37945">
        <ele>567.2</ele>
        <time>2020-06-30T11:51:40Z</time>
      </trkpt>
      <trkpt lat="43.07728" lon="0.37948">
        <ele>567.2</ele>
        <time>2020-06-30T11:51:41Z</time>
      </trkpt>
      <trkpt lat="43.07733" lon="0.37951">
        <ele>567</ele>
        <time>2020-06-30T11:51:42Z</time>
      </trkpt>
      <trkpt lat="43.07738" lon="0.37954">
        <ele>567</ele>
        <time>2020-06-30T11:51:43Z</time>
      </trkpt>
      <trkpt lat="43.07742" lon="0.37956">
        <ele>566.8</ele>
        <time>2020-06-30T11:51:44Z</time>
      </trkpt>
      <trkpt lat="43.07747" lon="0.3796">
        <ele>566.8</ele>
        <time>2020-06-30T11:51:45Z</time>
      </trkpt>
      <trkpt lat="43.07752" lon="0.37963">
        <ele>566.8</ele>
        <time>2020-06-30T11:51:46Z</time>
      </trkpt>
      <trkpt lat="43.07755" lon="0.37966">
        <ele>566.6</ele>
        <time>2020-06-30T11:51:47Z</time>
      </trkpt>
      <trkpt lat="43.0776" lon="0.37968">
        <ele>566.6</ele>
        <time>2020-06-30T11:51:48Z</time>
      </trkpt>
      <trkpt lat="43.07763" lon="0.37971">
        <ele>566.6</ele>
        <time>2020-06-30T11:51:49Z</time>
      </trkpt>
      <trkpt lat="43.07768" lon="0.37974">
        <ele>566.6</ele>
        <time>2020-06-30T11:51:50Z</time>
      </trkpt>
      <trkpt lat="43.07772" lon="0.37977">
        <ele>566.6</ele>
        <time>2020-06-30T11:51:51Z</time>
      </trkpt>
      <trkpt lat="43.07778" lon="0.37981">
        <ele>566.6</ele>
        <time>2020-06-30T11:51:52Z</time>
      </trkpt>
      <trkpt lat="43.07784" lon="0.37985">
        <ele>566.4</ele>
        <time>2020-06-30T11:51:53Z</time>
      </trkpt>
      <trkpt lat="43.07789" lon="0.37989">
        <ele>566.4</ele>
        <time>2020-06-30T11:51:54Z</time>
      </trkpt>
      <trkpt lat="43.07794" lon="0.37992">
        <ele>566.2</ele>
        <time>2020-06-30T11:51:55Z</time>
      </trkpt>
      <trkpt lat="43.07798" lon="0.37996">
        <ele>566.2</ele>
        <time>2020-06-30T11:51:56Z</time>
      </trkpt>
      <trkpt lat="43.07804" lon="0.38">
        <ele>566.2</ele>
        <time>2020-06-30T11:51:57Z</time>
      </trkpt>
      <trkpt lat="43.07808" lon="0.38003">
        <ele>566.2</ele>
        <time>2020-06-30T11:51:58Z</time>
      </trkpt>
      <trkpt lat="43.07813" lon="0.38006">
        <ele>566.2</ele>
        <time>2020-06-30T11:51:59Z</time>
      </trkpt>
      <trkpt lat="43.07817" lon="0.3801">
        <ele>566.2</ele>
        <time>2020-06-30T11:52:00Z</time>
      </trkpt>
      <trkpt lat="43.07821" lon="0.38012">
        <ele>566.2</ele>
        <time>2020-06-30T11:52:01Z</time>
      </trkpt>
      <trkpt lat="43.07826" lon="0.38016">
        <ele>566.2</ele>
        <time>2020-06-30T11:52:02Z</time>
      </trkpt>
      <trkpt lat="43.07831" lon="0.38019">
        <ele>566</ele>
        <time>2020-06-30T11:52:03Z</time>
      </trkpt>
      <trkpt lat="43.07836" lon="0.38022">
        <ele>566</ele>
        <time>2020-06-30T11:52:04Z</time>
      </trkpt>
      <trkpt lat="43.0784" lon="0.38025">
        <ele>566</ele>
        <time>2020-06-30T11:52:05Z</time>
      </trkpt>
      <trkpt lat="43.07845" lon="0.38028">
        <ele>566</ele>
        <time>2020-06-30T11:52:06Z</time>
      </trkpt>
      <trkpt lat="43.0785" lon="0.38032">
        <ele>565.8</ele>
        <time>2020-06-30T11:52:07Z</time>
      </trkpt>
      <trkpt lat="43.07855" lon="0.38035">
        <ele>565.8</ele>
        <time>2020-06-30T11:52:08Z</time>
      </trkpt>
      <trkpt lat="43.07859" lon="0.38038">
        <ele>565.8</ele>
        <time>2020-06-30T11:52:09Z</time>
      </trkpt>
      <trkpt lat="43.07864" lon="0.38041">
        <ele>565.8</ele>
        <time>2020-06-30T11:52:10Z</time>
      </trkpt>
      <trkpt lat="43.07867" lon="0.38043">
        <ele>565.8</ele>
        <time>2020-06-30T11:52:11Z</time>
      </trkpt>
      <trkpt lat="43.07872" lon="0.38047">
        <ele>565.6</ele>
        <time>2020-06-30T11:52:12Z</time>
      </trkpt>
      <trkpt lat="43.07876" lon="0.3805">
        <ele>565.6</ele>
        <time>2020-06-30T11:52:13Z</time>
      </trkpt>
      <trkpt lat="43.0788" lon="0.38054">
        <ele>565.6</ele>
        <time>2020-06-30T11:52:14Z</time>
      </trkpt>
      <trkpt lat="43.07884" lon="0.38058">
        <ele>565.4</ele>
        <time>2020-06-30T11:52:15Z</time>
      </trkpt>
      <trkpt lat="43.07888" lon="0.38062">
        <ele>565.6</ele>
        <time>2020-06-30T11:52:16Z</time>
      </trkpt>
      <trkpt lat="43.07892" lon="0.38065">
        <ele>565.6</ele>
        <time>2020-06-30T11:52:17Z</time>
      </trkpt>
      <trkpt lat="43.07896" lon="0.3807">
        <ele>565.6</ele>
        <time>2020-06-30T11:52:18Z</time>
      </trkpt>
      <trkpt lat="43.07899" lon="0.38073">
        <ele>565.6</ele>
        <time>2020-06-30T11:52:19Z</time>
      </trkpt>
      <trkpt lat="43.07902" lon="0.38077">
        <ele>565.6</ele>
        <time>2020-06-30T11:52:20Z</time>
      </trkpt>
      <trkpt lat="43.07906" lon="0.38078">
        <ele>565.6</ele>
        <time>2020-06-30T11:52:21Z</time>
      </trkpt>
      <trkpt lat="43.0791" lon="0.38078">
        <ele>565.6</ele>
        <time>2020-06-30T11:52:22Z</time>
      </trkpt>
      <trkpt lat="43.07913" lon="0.38076">
        <ele>565.4</ele>
        <time>2020-06-30T11:52:23Z</time>
      </trkpt>
      <trkpt lat="43.07915" lon="0.38072">
        <ele>565.6</ele>
        <time>2020-06-30T11:52:24Z</time>
      </trkpt>
      <trkpt lat="43.07915" lon="0.38066">
        <ele>565.6</ele>
        <time>2020-06-30T11:52:25Z</time>
      </trkpt>
      <trkpt lat="43.07915" lon="0.38059">
        <ele>565.4</ele>
        <time>2020-06-30T11:52:26Z</time>
      </trkpt>
      <trkpt lat="43.07917" lon="0.38053">
        <ele>565.4</ele>
        <time>2020-06-30T11:52:27Z</time>
      </trkpt>
      <trkpt lat="43.07918" lon="0.38048">
        <ele>565.4</ele>
        <time>2020-06-30T11:52:28Z</time>
      </trkpt>
      <trkpt lat="43.0792" lon="0.38042">
        <ele>565.4</ele>
        <time>2020-06-30T11:52:29Z</time>
      </trkpt>
      <trkpt lat="43.07921" lon="0.38037">
        <ele>565.2</ele>
        <time>2020-06-30T11:52:30Z</time>
      </trkpt>
      <trkpt lat="43.07923" lon="0.38034">
        <ele>565.2</ele>
        <time>2020-06-30T11:52:31Z</time>
      </trkpt>
      <trkpt lat="43.07924" lon="0.38029">
        <ele>565.2</ele>
        <time>2020-06-30T11:52:32Z</time>
      </trkpt>
      <trkpt lat="43.07925" lon="0.38025">
        <ele>565.2</ele>
        <time>2020-06-30T11:52:33Z</time>
      </trkpt>
      <trkpt lat="43.07926" lon="0.38022">
        <ele>565.2</ele>
        <time>2020-06-30T11:52:34Z</time>
      </trkpt>
      <trkpt lat="43.07928" lon="0.38019">
        <ele>565.2</ele>
        <time>2020-06-30T11:52:35Z</time>
      </trkpt>
      <trkpt lat="43.07929" lon="0.38017">
        <ele>565.2</ele>
        <time>2020-06-30T11:52:36Z</time>
      </trkpt>
      <trkpt lat="43.07929" lon="0.38015">
        <ele>565.2</ele>
        <time>2020-06-30T11:52:37Z</time>
      </trkpt>
      <trkpt lat="43.07929" lon="0.38012">
        <ele>565.2</ele>
        <time>2020-06-30T11:52:38Z</time>
      </trkpt>
      <trkpt lat="43.07931" lon="0.38011">
        <ele>565.2</ele>
        <time>2020-06-30T11:52:39Z</time>
      </trkpt>
      <trkpt lat="43.07932" lon="0.38009">
        <ele>565.2</ele>
        <time>2020-06-30T11:52:40Z</time>
      </trkpt>
      <trkpt lat="43.07933" lon="0.38007">
        <ele>565.2</ele>
        <time>2020-06-30T11:52:41Z</time>
      </trkpt>
      <trkpt lat="43.07937" lon="0.38003">
        <ele>565.2</ele>
        <time>2020-06-30T11:52:42Z</time>
      </trkpt>
      <trkpt lat="43.07937" lon="0.38003">
        <ele>565</ele>
        <time>2020-06-30T11:52:43Z</time>
      </trkpt>
      <trkpt lat="43.07938" lon="0.38001">
        <ele>565</ele>
        <time>2020-06-30T11:52:44Z</time>
      </trkpt>
      <trkpt lat="43.07939" lon="0.37999">
        <ele>565</ele>
        <time>2020-06-30T11:52:45Z</time>
      </trkpt>
      <trkpt lat="43.07941" lon="0.37996">
        <ele>565</ele>
        <time>2020-06-30T11:52:46Z</time>
      </trkpt>
      <trkpt lat="43.07943" lon="0.37993">
        <ele>565</ele>
        <time>2020-06-30T11:52:47Z</time>
      </trkpt>
      <trkpt lat="43.07945" lon="0.3799">
        <ele>565</ele>
        <time>2020-06-30T11:52:48Z</time>
      </trkpt>
      <trkpt lat="43.07947" lon="0.37987">
        <ele>565</ele>
        <time>2020-06-30T11:52:49Z</time>
      </trkpt>
      <trkpt lat="43.0795" lon="0.37984">
        <ele>565</ele>
        <time>2020-06-30T11:52:50Z</time>
      </trkpt>
      <trkpt lat="43.07951" lon="0.3798">
        <ele>565</ele>
        <time>2020-06-30T11:52:51Z</time>
      </trkpt>
      <trkpt lat="43.07954" lon="0.37978">
        <ele>565</ele>
        <time>2020-06-30T11:52:52Z</time>
      </trkpt>
      <trkpt lat="43.07956" lon="0.37974">
        <ele>565</ele>
        <time>2020-06-30T11:52:53Z</time>
      </trkpt>
      <trkpt lat="43.07959" lon="0.37971">
        <ele>565.2</ele>
        <time>2020-06-30T11:52:54Z</time>
      </trkpt>
      <trkpt lat="43.07962" lon="0.37968">
        <ele>565.2</ele>
        <time>2020-06-30T11:52:55Z</time>
      </trkpt>
      <trkpt lat="43.07967" lon="0.37961">
        <ele>565.2</ele>
        <time>2020-06-30T11:52:56Z</time>
      </trkpt>
      <trkpt lat="43.07967" lon="0.37961">
        <ele>565.2</ele>
        <time>2020-06-30T11:52:57Z</time>
      </trkpt>
      <trkpt lat="43.07974" lon="0.37953">
        <ele>565.2</ele>
        <time>2020-06-30T11:52:58Z</time>
      </trkpt>
      <trkpt lat="43.07974" lon="0.37953">
        <ele>565.4</ele>
        <time>2020-06-30T11:52:59Z</time>
      </trkpt>
      <trkpt lat="43.07976" lon="0.37949">
        <ele>565.4</ele>
        <time>2020-06-30T11:53:00Z</time>
      </trkpt>
      <trkpt lat="43.07978" lon="0.37943">
        <ele>565.4</ele>
        <time>2020-06-30T11:53:01Z</time>
      </trkpt>
      <trkpt lat="43.07981" lon="0.37939">
        <ele>565.4</ele>
        <time>2020-06-30T11:53:02Z</time>
      </trkpt>
      <trkpt lat="43.07984" lon="0.37936">
        <ele>565.4</ele>
        <time>2020-06-30T11:53:03Z</time>
      </trkpt>
      <trkpt lat="43.07987" lon="0.37931">
        <ele>565.4</ele>
        <time>2020-06-30T11:53:04Z</time>
      </trkpt>
      <trkpt lat="43.07989" lon="0.37925">
        <ele>565.4</ele>
        <time>2020-06-30T11:53:05Z</time>
      </trkpt>
      <trkpt lat="43.07992" lon="0.37922">
        <ele>565.6</ele>
        <time>2020-06-30T11:53:06Z</time>
      </trkpt>
      <trkpt lat="43.07994" lon="0.37919">
        <ele>565.6</ele>
        <time>2020-06-30T11:53:07Z</time>
      </trkpt>
      <trkpt lat="43.07997" lon="0.37913">
        <ele>565.6</ele>
        <time>2020-06-30T11:53:08Z</time>
      </trkpt>
      <trkpt lat="43.08" lon="0.3791">
        <ele>565.6</ele>
        <time>2020-06-30T11:53:09Z</time>
      </trkpt>
      <trkpt lat="43.08007" lon="0.37901">
        <ele>565.8</ele>
        <time>2020-06-30T11:53:10Z</time>
      </trkpt>
      <trkpt lat="43.08007" lon="0.37901">
        <ele>565.8</ele>
        <time>2020-06-30T11:53:11Z</time>
      </trkpt>
      <trkpt lat="43.0801" lon="0.37895">
        <ele>565.6</ele>
        <time>2020-06-30T11:53:12Z</time>
      </trkpt>
      <trkpt lat="43.08013" lon="0.37889">
        <ele>565.8</ele>
        <time>2020-06-30T11:53:13Z</time>
      </trkpt>
      <trkpt lat="43.08016" lon="0.37884">
        <ele>565.8</ele>
        <time>2020-06-30T11:53:14Z</time>
      </trkpt>
      <trkpt lat="43.08019" lon="0.3788">
        <ele>565.8</ele>
        <time>2020-06-30T11:53:15Z</time>
      </trkpt>
      <trkpt lat="43.08022" lon="0.37873">
        <ele>565.8</ele>
        <time>2020-06-30T11:53:16Z</time>
      </trkpt>
      <trkpt lat="43.08025" lon="0.37869">
        <ele>565.8</ele>
        <time>2020-06-30T11:53:17Z</time>
      </trkpt>
      <trkpt lat="43.08028" lon="0.37864">
        <ele>566</ele>
        <time>2020-06-30T11:53:18Z</time>
      </trkpt>
      <trkpt lat="43.08031" lon="0.3786">
        <ele>566</ele>
        <time>2020-06-30T11:53:19Z</time>
      </trkpt>
      <trkpt lat="43.08037" lon="0.37847">
        <ele>566</ele>
        <time>2020-06-30T11:53:20Z</time>
      </trkpt>
      <trkpt lat="43.08037" lon="0.37847">
        <ele>566</ele>
        <time>2020-06-30T11:53:21Z</time>
      </trkpt>
      <trkpt lat="43.0804" lon="0.3784">
        <ele>566</ele>
        <time>2020-06-30T11:53:22Z</time>
      </trkpt>
      <trkpt lat="43.08043" lon="0.37835">
        <ele>566.2</ele>
        <time>2020-06-30T11:53:23Z</time>
      </trkpt>
      <trkpt lat="43.08046" lon="0.3783">
        <ele>566.2</ele>
        <time>2020-06-30T11:53:24Z</time>
      </trkpt>
      <trkpt lat="43.08049" lon="0.37824">
        <ele>566.2</ele>
        <time>2020-06-30T11:53:25Z</time>
      </trkpt>
      <trkpt lat="43.08053" lon="0.3782">
        <ele>566.2</ele>
        <time>2020-06-30T11:53:26Z</time>
      </trkpt>
      <trkpt lat="43.08056" lon="0.37815">
        <ele>566.2</ele>
        <time>2020-06-30T11:53:27Z</time>
      </trkpt>
      <trkpt lat="43.0806" lon="0.37812">
        <ele>566.4</ele>
        <time>2020-06-30T11:53:28Z</time>
      </trkpt>
      <trkpt lat="43.08066" lon="0.37803">
        <ele>566.4</ele>
        <time>2020-06-30T11:53:29Z</time>
      </trkpt>
      <trkpt lat="43.08069" lon="0.37797">
        <ele>566.4</ele>
        <time>2020-06-30T11:53:30Z</time>
      </trkpt>
      <trkpt lat="43.08069" lon="0.37797">
        <ele>566.6</ele>
        <time>2020-06-30T11:53:31Z</time>
      </trkpt>
      <trkpt lat="43.08076" lon="0.37789">
        <ele>566.8</ele>
        <time>2020-06-30T11:53:32Z</time>
      </trkpt>
      <trkpt lat="43.0808" lon="0.37784">
        <ele>566.8</ele>
        <time>2020-06-30T11:53:33Z</time>
      </trkpt>
      <trkpt lat="43.08081" lon="0.3778">
        <ele>567</ele>
        <time>2020-06-30T11:53:34Z</time>
      </trkpt>
      <trkpt lat="43.08084" lon="0.37775">
        <ele>567.2</ele>
        <time>2020-06-30T11:53:35Z</time>
      </trkpt>
      <trkpt lat="43.08088" lon="0.37772">
        <ele>567.4</ele>
        <time>2020-06-30T11:53:36Z</time>
      </trkpt>
      <trkpt lat="43.08088" lon="0.37772">
        <ele>567.6</ele>
        <time>2020-06-30T11:53:37Z</time>
      </trkpt>
      <trkpt lat="43.0809" lon="0.37768">
        <ele>567.6</ele>
        <time>2020-06-30T11:53:38Z</time>
      </trkpt>
      <trkpt lat="43.08093" lon="0.37764">
        <ele>567.8</ele>
        <time>2020-06-30T11:53:39Z</time>
      </trkpt>
      <trkpt lat="43.08097" lon="0.37756">
        <ele>568</ele>
        <time>2020-06-30T11:53:40Z</time>
      </trkpt>
      <trkpt lat="43.08097" lon="0.37756">
        <ele>568</ele>
        <time>2020-06-30T11:53:41Z</time>
      </trkpt>
      <trkpt lat="43.081" lon="0.37746">
        <ele>568.2</ele>
        <time>2020-06-30T11:53:42Z</time>
      </trkpt>
      <trkpt lat="43.08102" lon="0.37742">
        <ele>568.4</ele>
        <time>2020-06-30T11:53:43Z</time>
      </trkpt>
      <trkpt lat="43.08105" lon="0.37738">
        <ele>568.6</ele>
        <time>2020-06-30T11:53:44Z</time>
      </trkpt>
      <trkpt lat="43.08105" lon="0.37738">
        <ele>568.8</ele>
        <time>2020-06-30T11:53:45Z</time>
      </trkpt>
      <trkpt lat="43.08106" lon="0.37736">
        <ele>568.8</ele>
        <time>2020-06-30T11:53:46Z</time>
      </trkpt>
      <trkpt lat="43.08109" lon="0.37732">
        <ele>569</ele>
        <time>2020-06-30T11:53:47Z</time>
      </trkpt>
      <trkpt lat="43.08113" lon="0.37727">
        <ele>569.2</ele>
        <time>2020-06-30T11:53:48Z</time>
      </trkpt>
      <trkpt lat="43.08114" lon="0.37724">
        <ele>569.2</ele>
        <time>2020-06-30T11:53:49Z</time>
      </trkpt>
      <trkpt lat="43.08115" lon="0.3772">
        <ele>569.4</ele>
        <time>2020-06-30T11:53:50Z</time>
      </trkpt>
      <trkpt lat="43.08115" lon="0.3772">
        <ele>569.6</ele>
        <time>2020-06-30T11:53:51Z</time>
      </trkpt>
      <trkpt lat="43.08117" lon="0.37713">
        <ele>569.8</ele>
        <time>2020-06-30T11:53:52Z</time>
      </trkpt>
      <trkpt lat="43.08119" lon="0.37709">
        <ele>569.8</ele>
        <time>2020-06-30T11:53:53Z</time>
      </trkpt>
      <trkpt lat="43.08121" lon="0.37707">
        <ele>570</ele>
        <time>2020-06-30T11:53:54Z</time>
      </trkpt>
      <trkpt lat="43.08122" lon="0.37705">
        <ele>570.2</ele>
        <time>2020-06-30T11:53:55Z</time>
      </trkpt>
      <trkpt lat="43.08122" lon="0.37705">
        <ele>570.2</ele>
        <time>2020-06-30T11:53:56Z</time>
      </trkpt>
      <trkpt lat="43.08123" lon="0.37703">
        <ele>570.4</ele>
        <time>2020-06-30T11:53:57Z</time>
      </trkpt>
      <trkpt lat="43.08126" lon="0.37699">
        <ele>570.6</ele>
        <time>2020-06-30T11:53:58Z</time>
      </trkpt>
      <trkpt lat="43.08128" lon="0.37695">
        <ele>570.6</ele>
        <time>2020-06-30T11:53:59Z</time>
      </trkpt>
      <trkpt lat="43.0813" lon="0.37692">
        <ele>571</ele>
        <time>2020-06-30T11:54:00Z</time>
      </trkpt>
      <trkpt lat="43.0813" lon="0.37692">
        <ele>571</ele>
        <time>2020-06-30T11:54:01Z</time>
      </trkpt>
      <trkpt lat="43.08132" lon="0.3769">
        <ele>571.2</ele>
        <time>2020-06-30T11:54:02Z</time>
      </trkpt>
      <trkpt lat="43.08135" lon="0.37684">
        <ele>571.4</ele>
        <time>2020-06-30T11:54:03Z</time>
      </trkpt>
      <trkpt lat="43.08135" lon="0.37684">
        <ele>571.6</ele>
        <time>2020-06-30T11:54:04Z</time>
      </trkpt>
      <trkpt lat="43.08136" lon="0.3768">
        <ele>571.8</ele>
        <time>2020-06-30T11:54:05Z</time>
      </trkpt>
      <trkpt lat="43.08141" lon="0.37675">
        <ele>571.8</ele>
        <time>2020-06-30T11:54:06Z</time>
      </trkpt>
      <trkpt lat="43.08143" lon="0.37673">
        <ele>572</ele>
        <time>2020-06-30T11:54:07Z</time>
      </trkpt>
      <trkpt lat="43.08143" lon="0.37673">
        <ele>572.2</ele>
        <time>2020-06-30T11:54:08Z</time>
      </trkpt>
      <trkpt lat="43.08145" lon="0.3767">
        <ele>572.4</ele>
        <time>2020-06-30T11:54:09Z</time>
      </trkpt>
      <trkpt lat="43.08146" lon="0.37663">
        <ele>572.4</ele>
        <time>2020-06-30T11:54:10Z</time>
      </trkpt>
      <trkpt lat="43.08147" lon="0.37661">
        <ele>572.6</ele>
        <time>2020-06-30T11:54:11Z</time>
      </trkpt>
      <trkpt lat="43.08149" lon="0.37658">
        <ele>572.8</ele>
        <time>2020-06-30T11:54:12Z</time>
      </trkpt>
      <trkpt lat="43.08149" lon="0.37658">
        <ele>573</ele>
        <time>2020-06-30T11:54:13Z</time>
      </trkpt>
      <trkpt lat="43.08153" lon="0.37654">
        <ele>573</ele>
        <time>2020-06-30T11:54:14Z</time>
      </trkpt>
      <trkpt lat="43.08155" lon="0.37653">
        <ele>573.2</ele>
        <time>2020-06-30T11:54:15Z</time>
      </trkpt>
      <trkpt lat="43.08157" lon="0.37651">
        <ele>573.2</ele>
        <time>2020-06-30T11:54:16Z</time>
      </trkpt>
      <trkpt lat="43.08159" lon="0.37649">
        <ele>573.4</ele>
        <time>2020-06-30T11:54:17Z</time>
      </trkpt>
      <trkpt lat="43.0816" lon="0.37646">
        <ele>573.6</ele>
        <time>2020-06-30T11:54:18Z</time>
      </trkpt>
      <trkpt lat="43.08161" lon="0.37643">
        <ele>573.8</ele>
        <time>2020-06-30T11:54:19Z</time>
      </trkpt>
      <trkpt lat="43.08163" lon="0.3764">
        <ele>573.8</ele>
        <time>2020-06-30T11:54:20Z</time>
      </trkpt>
      <trkpt lat="43.08164" lon="0.37638">
        <ele>574</ele>
        <time>2020-06-30T11:54:21Z</time>
      </trkpt>
      <trkpt lat="43.08166" lon="0.37635">
        <ele>574.2</ele>
        <time>2020-06-30T11:54:22Z</time>
      </trkpt>
      <trkpt lat="43.08167" lon="0.37633">
        <ele>574.2</ele>
        <time>2020-06-30T11:54:23Z</time>
      </trkpt>
      <trkpt lat="43.08169" lon="0.37631">
        <ele>574.4</ele>
        <time>2020-06-30T11:54:24Z</time>
      </trkpt>
      <trkpt lat="43.0817" lon="0.37628">
        <ele>574.6</ele>
        <time>2020-06-30T11:54:25Z</time>
      </trkpt>
      <trkpt lat="43.0817" lon="0.37628">
        <ele>574.6</ele>
        <time>2020-06-30T11:54:26Z</time>
      </trkpt>
      <trkpt lat="43.08172" lon="0.37627">
        <ele>574.8</ele>
        <time>2020-06-30T11:54:27Z</time>
      </trkpt>
      <trkpt lat="43.08173" lon="0.37625">
        <ele>575</ele>
        <time>2020-06-30T11:54:28Z</time>
      </trkpt>
      <trkpt lat="43.08176" lon="0.3762">
        <ele>575.2</ele>
        <time>2020-06-30T11:54:29Z</time>
      </trkpt>
      <trkpt lat="43.08177" lon="0.37617">
        <ele>575.2</ele>
        <time>2020-06-30T11:54:30Z</time>
      </trkpt>
      <trkpt lat="43.08178" lon="0.37615">
        <ele>575.4</ele>
        <time>2020-06-30T11:54:31Z</time>
      </trkpt>
      <trkpt lat="43.08179" lon="0.37613">
        <ele>575.4</ele>
        <time>2020-06-30T11:54:32Z</time>
      </trkpt>
      <trkpt lat="43.08179" lon="0.37613">
        <ele>575.6</ele>
        <time>2020-06-30T11:54:33Z</time>
      </trkpt>
      <trkpt lat="43.08181" lon="0.37607">
        <ele>575.6</ele>
        <time>2020-06-30T11:54:34Z</time>
      </trkpt>
      <trkpt lat="43.08183" lon="0.37606">
        <ele>575.8</ele>
        <time>2020-06-30T11:54:35Z</time>
      </trkpt>
      <trkpt lat="43.08185" lon="0.37604">
        <ele>576</ele>
        <time>2020-06-30T11:54:36Z</time>
      </trkpt>
      <trkpt lat="43.08185" lon="0.37601">
        <ele>576.2</ele>
        <time>2020-06-30T11:54:37Z</time>
      </trkpt>
      <trkpt lat="43.08187" lon="0.37598">
        <ele>576.2</ele>
        <time>2020-06-30T11:54:38Z</time>
      </trkpt>
      <trkpt lat="43.08188" lon="0.37597">
        <ele>576.4</ele>
        <time>2020-06-30T11:54:39Z</time>
      </trkpt>
      <trkpt lat="43.08189" lon="0.37595">
        <ele>576.4</ele>
        <time>2020-06-30T11:54:40Z</time>
      </trkpt>
      <trkpt lat="43.08191" lon="0.37594">
        <ele>576.6</ele>
        <time>2020-06-30T11:54:41Z</time>
      </trkpt>
      <trkpt lat="43.08193" lon="0.37592">
        <ele>576.8</ele>
        <time>2020-06-30T11:54:42Z</time>
      </trkpt>
      <trkpt lat="43.08194" lon="0.3759">
        <ele>576.8</ele>
        <time>2020-06-30T11:54:43Z</time>
      </trkpt>
      <trkpt lat="43.08196" lon="0.37587">
        <ele>577</ele>
        <time>2020-06-30T11:54:44Z</time>
      </trkpt>
      <trkpt lat="43.08198" lon="0.37585">
        <ele>577.2</ele>
        <time>2020-06-30T11:54:45Z</time>
      </trkpt>
      <trkpt lat="43.08199" lon="0.37583">
        <ele>577.2</ele>
        <time>2020-06-30T11:54:46Z</time>
      </trkpt>
      <trkpt lat="43.082" lon="0.3758">
        <ele>577.4</ele>
        <time>2020-06-30T11:54:47Z</time>
      </trkpt>
      <trkpt lat="43.082" lon="0.3758">
        <ele>577.4</ele>
        <time>2020-06-30T11:54:48Z</time>
      </trkpt>
      <trkpt lat="43.08203" lon="0.37576">
        <ele>577.8</ele>
        <time>2020-06-30T11:54:49Z</time>
      </trkpt>
      <trkpt lat="43.08204" lon="0.37574">
        <ele>577.8</ele>
        <time>2020-06-30T11:54:50Z</time>
      </trkpt>
      <trkpt lat="43.08206" lon="0.37571">
        <ele>577.8</ele>
        <time>2020-06-30T11:54:51Z</time>
      </trkpt>
      <trkpt lat="43.08206" lon="0.37571">
        <ele>578</ele>
        <time>2020-06-30T11:54:52Z</time>
      </trkpt>
      <trkpt lat="43.08207" lon="0.37569">
        <ele>578.2</ele>
        <time>2020-06-30T11:54:53Z</time>
      </trkpt>
      <trkpt lat="43.08208" lon="0.37565">
        <ele>578.2</ele>
        <time>2020-06-30T11:54:54Z</time>
      </trkpt>
      <trkpt lat="43.0821" lon="0.37564">
        <ele>578.4</ele>
        <time>2020-06-30T11:54:55Z</time>
      </trkpt>
      <trkpt lat="43.08212" lon="0.37561">
        <ele>578.6</ele>
        <time>2020-06-30T11:54:56Z</time>
      </trkpt>
      <trkpt lat="43.08213" lon="0.3756">
        <ele>578.6</ele>
        <time>2020-06-30T11:54:57Z</time>
      </trkpt>
      <trkpt lat="43.08214" lon="0.37558">
        <ele>578.8</ele>
        <time>2020-06-30T11:54:58Z</time>
      </trkpt>
      <trkpt lat="43.08216" lon="0.37556">
        <ele>578.8</ele>
        <time>2020-06-30T11:54:59Z</time>
      </trkpt>
      <trkpt lat="43.08217" lon="0.37553">
        <ele>579</ele>
        <time>2020-06-30T11:55:00Z</time>
      </trkpt>
      <trkpt lat="43.08219" lon="0.37551">
        <ele>579.2</ele>
        <time>2020-06-30T11:55:01Z</time>
      </trkpt>
      <trkpt lat="43.0822" lon="0.3755">
        <ele>579.2</ele>
        <time>2020-06-30T11:55:02Z</time>
      </trkpt>
      <trkpt lat="43.0822" lon="0.37547">
        <ele>579.4</ele>
        <time>2020-06-30T11:55:03Z</time>
      </trkpt>
      <trkpt lat="43.08222" lon="0.37545">
        <ele>579.6</ele>
        <time>2020-06-30T11:55:04Z</time>
      </trkpt>
      <trkpt lat="43.08223" lon="0.37543">
        <ele>579.6</ele>
        <time>2020-06-30T11:55:05Z</time>
      </trkpt>
      <trkpt lat="43.08224" lon="0.37541">
        <ele>579.8</ele>
        <time>2020-06-30T11:55:06Z</time>
      </trkpt>
      <trkpt lat="43.08224" lon="0.37538">
        <ele>580</ele>
        <time>2020-06-30T11:55:07Z</time>
      </trkpt>
      <trkpt lat="43.08225" lon="0.37534">
        <ele>580</ele>
        <time>2020-06-30T11:55:08Z</time>
      </trkpt>
      <trkpt lat="43.08226" lon="0.37531">
        <ele>580.2</ele>
        <time>2020-06-30T11:55:09Z</time>
      </trkpt>
      <trkpt lat="43.08227" lon="0.37527">
        <ele>580.2</ele>
        <time>2020-06-30T11:55:10Z</time>
      </trkpt>
      <trkpt lat="43.08228" lon="0.37525">
        <ele>580.4</ele>
        <time>2020-06-30T11:55:11Z</time>
      </trkpt>
      <trkpt lat="43.08229" lon="0.37523">
        <ele>580.4</ele>
        <time>2020-06-30T11:55:12Z</time>
      </trkpt>
      <trkpt lat="43.08231" lon="0.3752">
        <ele>580.6</ele>
        <time>2020-06-30T11:55:13Z</time>
      </trkpt>
      <trkpt lat="43.08231" lon="0.37516">
        <ele>580.8</ele>
        <time>2020-06-30T11:55:14Z</time>
      </trkpt>
      <trkpt lat="43.08232" lon="0.37513">
        <ele>580.8</ele>
        <time>2020-06-30T11:55:15Z</time>
      </trkpt>
      <trkpt lat="43.08233" lon="0.3751">
        <ele>581</ele>
        <time>2020-06-30T11:55:16Z</time>
      </trkpt>
      <trkpt lat="43.08234" lon="0.37509">
        <ele>581</ele>
        <time>2020-06-30T11:55:17Z</time>
      </trkpt>
      <trkpt lat="43.08235" lon="0.37507">
        <ele>581.2</ele>
        <time>2020-06-30T11:55:18Z</time>
      </trkpt>
      <trkpt lat="43.08236" lon="0.37505">
        <ele>581.2</ele>
        <time>2020-06-30T11:55:19Z</time>
      </trkpt>
      <trkpt lat="43.08236" lon="0.37505">
        <ele>581.4</ele>
        <time>2020-06-30T11:55:20Z</time>
      </trkpt>
      <trkpt lat="43.08237" lon="0.37499">
        <ele>581.4</ele>
        <time>2020-06-30T11:55:21Z</time>
      </trkpt>
      <trkpt lat="43.08237" lon="0.37493">
        <ele>581.6</ele>
        <time>2020-06-30T11:55:22Z</time>
      </trkpt>
      <trkpt lat="43.08238" lon="0.37491">
        <ele>580.6</ele>
        <time>2020-06-30T11:55:23Z</time>
      </trkpt>
      <trkpt lat="43.08238" lon="0.37487">
        <ele>582.4</ele>
        <time>2020-06-30T11:55:24Z</time>
      </trkpt>
      <trkpt lat="43.08238" lon="0.37484">
        <ele>582</ele>
        <time>2020-06-30T11:55:25Z</time>
      </trkpt>
      <trkpt lat="43.08239" lon="0.37481">
        <ele>582</ele>
        <time>2020-06-30T11:55:26Z</time>
      </trkpt>
      <trkpt lat="43.08239" lon="0.37479">
        <ele>582.2</ele>
        <time>2020-06-30T11:55:27Z</time>
      </trkpt>
      <trkpt lat="43.0824" lon="0.37476">
        <ele>582.4</ele>
        <time>2020-06-30T11:55:28Z</time>
      </trkpt>
      <trkpt lat="43.08242" lon="0.37474">
        <ele>582.2</ele>
        <time>2020-06-30T11:55:29Z</time>
      </trkpt>
      <trkpt lat="43.08242" lon="0.37472">
        <ele>582.4</ele>
        <time>2020-06-30T11:55:30Z</time>
      </trkpt>
      <trkpt lat="43.08244" lon="0.3747">
        <ele>582.6</ele>
        <time>2020-06-30T11:55:31Z</time>
      </trkpt>
      <trkpt lat="43.08244" lon="0.37467">
        <ele>582.6</ele>
        <time>2020-06-30T11:55:32Z</time>
      </trkpt>
      <trkpt lat="43.08246" lon="0.37464">
        <ele>582.8</ele>
        <time>2020-06-30T11:55:33Z</time>
      </trkpt>
      <trkpt lat="43.08246" lon="0.37461">
        <ele>583</ele>
        <time>2020-06-30T11:55:34Z</time>
      </trkpt>
      <trkpt lat="43.08247" lon="0.3746">
        <ele>583</ele>
        <time>2020-06-30T11:55:35Z</time>
      </trkpt>
      <trkpt lat="43.08248" lon="0.37457">
        <ele>583.2</ele>
        <time>2020-06-30T11:55:36Z</time>
      </trkpt>
      <trkpt lat="43.08248" lon="0.37454">
        <ele>583.2</ele>
        <time>2020-06-30T11:55:37Z</time>
      </trkpt>
      <trkpt lat="43.08248" lon="0.37454">
        <ele>583.4</ele>
        <time>2020-06-30T11:55:38Z</time>
      </trkpt>
      <trkpt lat="43.0825" lon="0.37449">
        <ele>583.4</ele>
        <time>2020-06-30T11:55:39Z</time>
      </trkpt>
      <trkpt lat="43.0825" lon="0.37446">
        <ele>583.6</ele>
        <time>2020-06-30T11:55:40Z</time>
      </trkpt>
      <trkpt lat="43.0825" lon="0.37443">
        <ele>583.6</ele>
        <time>2020-06-30T11:55:41Z</time>
      </trkpt>
      <trkpt lat="43.08251" lon="0.3744">
        <ele>583.8</ele>
        <time>2020-06-30T11:55:42Z</time>
      </trkpt>
      <trkpt lat="43.08251" lon="0.37436">
        <ele>583.8</ele>
        <time>2020-06-30T11:55:43Z</time>
      </trkpt>
      <trkpt lat="43.08251" lon="0.37432">
        <ele>583.8</ele>
        <time>2020-06-30T11:55:44Z</time>
      </trkpt>
      <trkpt lat="43.08252" lon="0.3743">
        <ele>584</ele>
        <time>2020-06-30T11:55:45Z</time>
      </trkpt>
      <trkpt lat="43.08252" lon="0.37427">
        <ele>584</ele>
        <time>2020-06-30T11:55:46Z</time>
      </trkpt>
      <trkpt lat="43.08253" lon="0.37424">
        <ele>584</ele>
        <time>2020-06-30T11:55:47Z</time>
      </trkpt>
      <trkpt lat="43.08253" lon="0.37421">
        <ele>584.2</ele>
        <time>2020-06-30T11:55:48Z</time>
      </trkpt>
      <trkpt lat="43.08253" lon="0.37417">
        <ele>584.2</ele>
        <time>2020-06-30T11:55:49Z</time>
      </trkpt>
      <trkpt lat="43.08253" lon="0.37414">
        <ele>584.4</ele>
        <time>2020-06-30T11:55:50Z</time>
      </trkpt>
      <trkpt lat="43.08254" lon="0.37411">
        <ele>584.4</ele>
        <time>2020-06-30T11:55:51Z</time>
      </trkpt>
      <trkpt lat="43.08253" lon="0.37408">
        <ele>584.4</ele>
        <time>2020-06-30T11:55:52Z</time>
      </trkpt>
      <trkpt lat="43.08254" lon="0.37405">
        <ele>584.4</ele>
        <time>2020-06-30T11:55:53Z</time>
      </trkpt>
      <trkpt lat="43.08255" lon="0.37402">
        <ele>584.6</ele>
        <time>2020-06-30T11:55:54Z</time>
      </trkpt>
      <trkpt lat="43.08256" lon="0.37399">
        <ele>584.8</ele>
        <time>2020-06-30T11:55:55Z</time>
      </trkpt>
      <trkpt lat="43.08255" lon="0.37396">
        <ele>584.8</ele>
        <time>2020-06-30T11:55:56Z</time>
      </trkpt>
      <trkpt lat="43.08255" lon="0.37392">
        <ele>585</ele>
        <time>2020-06-30T11:55:57Z</time>
      </trkpt>
      <trkpt lat="43.08256" lon="0.37388">
        <ele>585</ele>
        <time>2020-06-30T11:55:58Z</time>
      </trkpt>
      <trkpt lat="43.08256" lon="0.37386">
        <ele>585</ele>
        <time>2020-06-30T11:55:59Z</time>
      </trkpt>
      <trkpt lat="43.08257" lon="0.37382">
        <ele>585.2</ele>
        <time>2020-06-30T11:56:00Z</time>
      </trkpt>
      <trkpt lat="43.08257" lon="0.37379">
        <ele>585.2</ele>
        <time>2020-06-30T11:56:01Z</time>
      </trkpt>
      <trkpt lat="43.08256" lon="0.37374">
        <ele>585.2</ele>
        <time>2020-06-30T11:56:02Z</time>
      </trkpt>
      <trkpt lat="43.08257" lon="0.37371">
        <ele>585.2</ele>
        <time>2020-06-30T11:56:03Z</time>
      </trkpt>
      <trkpt lat="43.08258" lon="0.37367">
        <ele>585.4</ele>
        <time>2020-06-30T11:56:04Z</time>
      </trkpt>
      <trkpt lat="43.08257" lon="0.37362">
        <ele>585.4</ele>
        <time>2020-06-30T11:56:05Z</time>
      </trkpt>
      <trkpt lat="43.08259" lon="0.3736">
        <ele>585.4</ele>
        <time>2020-06-30T11:56:06Z</time>
      </trkpt>
      <trkpt lat="43.08258" lon="0.37357">
        <ele>585.4</ele>
        <time>2020-06-30T11:56:07Z</time>
      </trkpt>
      <trkpt lat="43.08259" lon="0.37353">
        <ele>585.6</ele>
        <time>2020-06-30T11:56:08Z</time>
      </trkpt>
      <trkpt lat="43.08259" lon="0.3735">
        <ele>585.6</ele>
        <time>2020-06-30T11:56:09Z</time>
      </trkpt>
      <trkpt lat="43.0826" lon="0.37349">
        <ele>585.6</ele>
        <time>2020-06-30T11:56:10Z</time>
      </trkpt>
      <trkpt lat="43.0826" lon="0.37345">
        <ele>585.6</ele>
        <time>2020-06-30T11:56:11Z</time>
      </trkpt>
      <trkpt lat="43.08262" lon="0.37343">
        <ele>585.6</ele>
        <time>2020-06-30T11:56:12Z</time>
      </trkpt>
      <trkpt lat="43.08262" lon="0.37338">
        <ele>585.8</ele>
        <time>2020-06-30T11:56:13Z</time>
      </trkpt>
      <trkpt lat="43.08263" lon="0.37335">
        <ele>585.8</ele>
        <time>2020-06-30T11:56:14Z</time>
      </trkpt>
      <trkpt lat="43.08263" lon="0.37332">
        <ele>586</ele>
        <time>2020-06-30T11:56:15Z</time>
      </trkpt>
      <trkpt lat="43.08261" lon="0.37327">
        <ele>586</ele>
        <time>2020-06-30T11:56:16Z</time>
      </trkpt>
      <trkpt lat="43.08261" lon="0.37324">
        <ele>586</ele>
        <time>2020-06-30T11:56:17Z</time>
      </trkpt>
      <trkpt lat="43.08262" lon="0.37321">
        <ele>586</ele>
        <time>2020-06-30T11:56:18Z</time>
      </trkpt>
      <trkpt lat="43.08262" lon="0.37317">
        <ele>586.2</ele>
        <time>2020-06-30T11:56:19Z</time>
      </trkpt>
      <trkpt lat="43.08262" lon="0.37312">
        <ele>586.2</ele>
        <time>2020-06-30T11:56:20Z</time>
      </trkpt>
      <trkpt lat="43.08263" lon="0.37309">
        <ele>586.4</ele>
        <time>2020-06-30T11:56:21Z</time>
      </trkpt>
      <trkpt lat="43.08263" lon="0.37309">
        <ele>586.4</ele>
        <time>2020-06-30T11:56:22Z</time>
      </trkpt>
      <trkpt lat="43.08264" lon="0.37303">
        <ele>586.4</ele>
        <time>2020-06-30T11:56:23Z</time>
      </trkpt>
      <trkpt lat="43.08264" lon="0.37299">
        <ele>586.4</ele>
        <time>2020-06-30T11:56:24Z</time>
      </trkpt>
      <trkpt lat="43.08264" lon="0.37295">
        <ele>586.4</ele>
        <time>2020-06-30T11:56:25Z</time>
      </trkpt>
      <trkpt lat="43.08264" lon="0.37295">
        <ele>586.4</ele>
        <time>2020-06-30T11:56:26Z</time>
      </trkpt>
      <trkpt lat="43.08265" lon="0.37289">
        <ele>586.6</ele>
        <time>2020-06-30T11:56:27Z</time>
      </trkpt>
      <trkpt lat="43.08266" lon="0.37286">
        <ele>586.6</ele>
        <time>2020-06-30T11:56:28Z</time>
      </trkpt>
      <trkpt lat="43.08268" lon="0.37283">
        <ele>586.8</ele>
        <time>2020-06-30T11:56:29Z</time>
      </trkpt>
      <trkpt lat="43.08269" lon="0.3728">
        <ele>586.8</ele>
        <time>2020-06-30T11:56:30Z</time>
      </trkpt>
      <trkpt lat="43.0827" lon="0.37277">
        <ele>586.8</ele>
        <time>2020-06-30T11:56:31Z</time>
      </trkpt>
      <trkpt lat="43.08271" lon="0.37274">
        <ele>587</ele>
        <time>2020-06-30T11:56:32Z</time>
      </trkpt>
      <trkpt lat="43.08272" lon="0.37272">
        <ele>587.2</ele>
        <time>2020-06-30T11:56:33Z</time>
      </trkpt>
      <trkpt lat="43.08274" lon="0.3727">
        <ele>587.2</ele>
        <time>2020-06-30T11:56:34Z</time>
      </trkpt>
      <trkpt lat="43.08277" lon="0.3727">
        <ele>587.4</ele>
        <time>2020-06-30T11:56:35Z</time>
      </trkpt>
      <trkpt lat="43.08278" lon="0.37268">
        <ele>587.4</ele>
        <time>2020-06-30T11:56:36Z</time>
      </trkpt>
      <trkpt lat="43.0828" lon="0.37267">
        <ele>587.6</ele>
        <time>2020-06-30T11:56:37Z</time>
      </trkpt>
      <trkpt lat="43.08281" lon="0.37266">
        <ele>587.6</ele>
        <time>2020-06-30T11:56:38Z</time>
      </trkpt>
      <trkpt lat="43.08282" lon="0.37265">
        <ele>587.8</ele>
        <time>2020-06-30T11:56:39Z</time>
      </trkpt>
      <trkpt lat="43.08283" lon="0.37265">
        <ele>587.8</ele>
        <time>2020-06-30T11:56:40Z</time>
      </trkpt>
      <trkpt lat="43.08285" lon="0.37264">
        <ele>587.8</ele>
        <time>2020-06-30T11:56:41Z</time>
      </trkpt>
      <trkpt lat="43.08288" lon="0.37264">
        <ele>588</ele>
        <time>2020-06-30T11:56:42Z</time>
      </trkpt>
      <trkpt lat="43.0829" lon="0.37264">
        <ele>587.8</ele>
        <time>2020-06-30T11:56:43Z</time>
      </trkpt>
      <trkpt lat="43.08293" lon="0.37265">
        <ele>588</ele>
        <time>2020-06-30T11:56:44Z</time>
      </trkpt>
      <trkpt lat="43.08296" lon="0.37265">
        <ele>588</ele>
        <time>2020-06-30T11:56:45Z</time>
      </trkpt>
      <trkpt lat="43.08299" lon="0.37264">
        <ele>588</ele>
        <time>2020-06-30T11:56:46Z</time>
      </trkpt>
      <trkpt lat="43.08302" lon="0.37263">
        <ele>588</ele>
        <time>2020-06-30T11:56:47Z</time>
      </trkpt>
      <trkpt lat="43.08305" lon="0.37262">
        <ele>587.8</ele>
        <time>2020-06-30T11:56:48Z</time>
      </trkpt>
      <trkpt lat="43.08308" lon="0.37262">
        <ele>587.8</ele>
        <time>2020-06-30T11:56:49Z</time>
      </trkpt>
      <trkpt lat="43.08311" lon="0.37261">
        <ele>587.8</ele>
        <time>2020-06-30T11:56:50Z</time>
      </trkpt>
      <trkpt lat="43.08314" lon="0.37259">
        <ele>587.6</ele>
        <time>2020-06-30T11:56:51Z</time>
      </trkpt>
      <trkpt lat="43.08316" lon="0.37256">
        <ele>587.6</ele>
        <time>2020-06-30T11:56:52Z</time>
      </trkpt>
      <trkpt lat="43.08318" lon="0.37253">
        <ele>587.6</ele>
        <time>2020-06-30T11:56:53Z</time>
      </trkpt>
      <trkpt lat="43.0832" lon="0.37249">
        <ele>587.6</ele>
        <time>2020-06-30T11:56:54Z</time>
      </trkpt>
      <trkpt lat="43.08321" lon="0.37246">
        <ele>587.6</ele>
        <time>2020-06-30T11:56:55Z</time>
      </trkpt>
      <trkpt lat="43.08322" lon="0.37242">
        <ele>587.8</ele>
        <time>2020-06-30T11:56:56Z</time>
      </trkpt>
      <trkpt lat="43.08321" lon="0.37239">
        <ele>587.8</ele>
        <time>2020-06-30T11:56:57Z</time>
      </trkpt>
      <trkpt lat="43.08321" lon="0.37236">
        <ele>588</ele>
        <time>2020-06-30T11:56:58Z</time>
      </trkpt>
      <trkpt lat="43.0832" lon="0.37232">
        <ele>588</ele>
        <time>2020-06-30T11:56:59Z</time>
      </trkpt>
      <trkpt lat="43.0832" lon="0.37232">
        <ele>588.2</ele>
        <time>2020-06-30T11:57:00Z</time>
      </trkpt>
      <trkpt lat="43.08317" lon="0.37225">
        <ele>588.2</ele>
        <time>2020-06-30T11:57:01Z</time>
      </trkpt>
      <trkpt lat="43.08317" lon="0.37222">
        <ele>588.4</ele>
        <time>2020-06-30T11:57:02Z</time>
      </trkpt>
      <trkpt lat="43.08315" lon="0.37218">
        <ele>588.4</ele>
        <time>2020-06-30T11:57:03Z</time>
      </trkpt>
      <trkpt lat="43.08314" lon="0.37217">
        <ele>588.6</ele>
        <time>2020-06-30T11:57:04Z</time>
      </trkpt>
      <trkpt lat="43.08312" lon="0.37215">
        <ele>588.8</ele>
        <time>2020-06-30T11:57:05Z</time>
      </trkpt>
      <trkpt lat="43.08311" lon="0.37213">
        <ele>588.8</ele>
        <time>2020-06-30T11:57:06Z</time>
      </trkpt>
      <trkpt lat="43.08308" lon="0.3721">
        <ele>589</ele>
        <time>2020-06-30T11:57:07Z</time>
      </trkpt>
      <trkpt lat="43.08306" lon="0.37208">
        <ele>589</ele>
        <time>2020-06-30T11:57:08Z</time>
      </trkpt>
      <trkpt lat="43.08305" lon="0.37206">
        <ele>589</ele>
        <time>2020-06-30T11:57:09Z</time>
      </trkpt>
      <trkpt lat="43.08303" lon="0.37204">
        <ele>589.2</ele>
        <time>2020-06-30T11:57:10Z</time>
      </trkpt>
      <trkpt lat="43.08301" lon="0.37199">
        <ele>589.2</ele>
        <time>2020-06-30T11:57:11Z</time>
      </trkpt>
      <trkpt lat="43.08299" lon="0.37197">
        <ele>589.2</ele>
        <time>2020-06-30T11:57:12Z</time>
      </trkpt>
      <trkpt lat="43.08298" lon="0.37194">
        <ele>589.4</ele>
        <time>2020-06-30T11:57:13Z</time>
      </trkpt>
      <trkpt lat="43.08296" lon="0.37191">
        <ele>589.4</ele>
        <time>2020-06-30T11:57:14Z</time>
      </trkpt>
      <trkpt lat="43.08295" lon="0.37189">
        <ele>589.6</ele>
        <time>2020-06-30T11:57:15Z</time>
      </trkpt>
      <trkpt lat="43.08293" lon="0.37186">
        <ele>589.6</ele>
        <time>2020-06-30T11:57:16Z</time>
      </trkpt>
      <trkpt lat="43.08292" lon="0.37184">
        <ele>589.8</ele>
        <time>2020-06-30T11:57:17Z</time>
      </trkpt>
      <trkpt lat="43.08292" lon="0.37184">
        <ele>589.8</ele>
        <time>2020-06-30T11:57:18Z</time>
      </trkpt>
      <trkpt lat="43.08291" lon="0.37177">
        <ele>590</ele>
        <time>2020-06-30T11:57:19Z</time>
      </trkpt>
      <trkpt lat="43.08289" lon="0.37174">
        <ele>590</ele>
        <time>2020-06-30T11:57:20Z</time>
      </trkpt>
      <trkpt lat="43.08288" lon="0.37172">
        <ele>590.2</ele>
        <time>2020-06-30T11:57:21Z</time>
      </trkpt>
      <trkpt lat="43.08286" lon="0.37169">
        <ele>590.2</ele>
        <time>2020-06-30T11:57:22Z</time>
      </trkpt>
      <trkpt lat="43.08285" lon="0.37167">
        <ele>590.4</ele>
        <time>2020-06-30T11:57:23Z</time>
      </trkpt>
      <trkpt lat="43.08285" lon="0.37163">
        <ele>590.4</ele>
        <time>2020-06-30T11:57:24Z</time>
      </trkpt>
      <trkpt lat="43.08284" lon="0.3716">
        <ele>590.4</ele>
        <time>2020-06-30T11:57:25Z</time>
      </trkpt>
      <trkpt lat="43.08283" lon="0.37158">
        <ele>590.6</ele>
        <time>2020-06-30T11:57:26Z</time>
      </trkpt>
      <trkpt lat="43.08283" lon="0.37154">
        <ele>590.8</ele>
        <time>2020-06-30T11:57:27Z</time>
      </trkpt>
      <trkpt lat="43.08281" lon="0.3715">
        <ele>591</ele>
        <time>2020-06-30T11:57:28Z</time>
      </trkpt>
      <trkpt lat="43.0828" lon="0.37147">
        <ele>591</ele>
        <time>2020-06-30T11:57:29Z</time>
      </trkpt>
      <trkpt lat="43.08278" lon="0.37144">
        <ele>591.2</ele>
        <time>2020-06-30T11:57:30Z</time>
      </trkpt>
      <trkpt lat="43.08277" lon="0.37141">
        <ele>591.2</ele>
        <time>2020-06-30T11:57:31Z</time>
      </trkpt>
      <trkpt lat="43.08276" lon="0.37138">
        <ele>591.4</ele>
        <time>2020-06-30T11:57:32Z</time>
      </trkpt>
      <trkpt lat="43.08275" lon="0.37135">
        <ele>591.6</ele>
        <time>2020-06-30T11:57:33Z</time>
      </trkpt>
      <trkpt lat="43.08274" lon="0.37132">
        <ele>591.8</ele>
        <time>2020-06-30T11:57:34Z</time>
      </trkpt>
      <trkpt lat="43.08273" lon="0.37129">
        <ele>591.8</ele>
        <time>2020-06-30T11:57:35Z</time>
      </trkpt>
      <trkpt lat="43.08273" lon="0.37126">
        <ele>592</ele>
        <time>2020-06-30T11:57:36Z</time>
      </trkpt>
      <trkpt lat="43.08272" lon="0.37123">
        <ele>592</ele>
        <time>2020-06-30T11:57:37Z</time>
      </trkpt>
      <trkpt lat="43.08272" lon="0.37119">
        <ele>592.2</ele>
        <time>2020-06-30T11:57:38Z</time>
      </trkpt>
      <trkpt lat="43.08272" lon="0.37117">
        <ele>592.4</ele>
        <time>2020-06-30T11:57:39Z</time>
      </trkpt>
      <trkpt lat="43.08271" lon="0.37114">
        <ele>592.6</ele>
        <time>2020-06-30T11:57:40Z</time>
      </trkpt>
      <trkpt lat="43.0827" lon="0.37111">
        <ele>592.8</ele>
        <time>2020-06-30T11:57:41Z</time>
      </trkpt>
      <trkpt lat="43.08268" lon="0.37109">
        <ele>593</ele>
        <time>2020-06-30T11:57:42Z</time>
      </trkpt>
      <trkpt lat="43.08268" lon="0.37106">
        <ele>593.2</ele>
        <time>2020-06-30T11:57:43Z</time>
      </trkpt>
      <trkpt lat="43.08267" lon="0.37102">
        <ele>593.2</ele>
        <time>2020-06-30T11:57:44Z</time>
      </trkpt>
      <trkpt lat="43.08267" lon="0.37099">
        <ele>593.4</ele>
        <time>2020-06-30T11:57:45Z</time>
      </trkpt>
      <trkpt lat="43.08266" lon="0.37097">
        <ele>593.6</ele>
        <time>2020-06-30T11:57:46Z</time>
      </trkpt>
      <trkpt lat="43.08267" lon="0.37094">
        <ele>593.8</ele>
        <time>2020-06-30T11:57:47Z</time>
      </trkpt>
      <trkpt lat="43.08266" lon="0.3709">
        <ele>593.8</ele>
        <time>2020-06-30T11:57:48Z</time>
      </trkpt>
      <trkpt lat="43.08266" lon="0.37087">
        <ele>594</ele>
        <time>2020-06-30T11:57:49Z</time>
      </trkpt>
      <trkpt lat="43.08266" lon="0.37084">
        <ele>594.2</ele>
        <time>2020-06-30T11:57:50Z</time>
      </trkpt>
      <trkpt lat="43.08265" lon="0.37081">
        <ele>594.4</ele>
        <time>2020-06-30T11:57:51Z</time>
      </trkpt>
      <trkpt lat="43.08265" lon="0.37079">
        <ele>594.6</ele>
        <time>2020-06-30T11:57:52Z</time>
      </trkpt>
      <trkpt lat="43.08265" lon="0.37076">
        <ele>594.8</ele>
        <time>2020-06-30T11:57:53Z</time>
      </trkpt>
      <trkpt lat="43.08263" lon="0.37072">
        <ele>595</ele>
        <time>2020-06-30T11:57:54Z</time>
      </trkpt>
      <trkpt lat="43.08263" lon="0.3707">
        <ele>595.2</ele>
        <time>2020-06-30T11:57:55Z</time>
      </trkpt>
      <trkpt lat="43.08264" lon="0.37068">
        <ele>595.4</ele>
        <time>2020-06-30T11:57:56Z</time>
      </trkpt>
      <trkpt lat="43.08264" lon="0.37066">
        <ele>595.6</ele>
        <time>2020-06-30T11:57:57Z</time>
      </trkpt>
      <trkpt lat="43.08263" lon="0.37063">
        <ele>595.6</ele>
        <time>2020-06-30T11:57:58Z</time>
      </trkpt>
      <trkpt lat="43.08263" lon="0.37061">
        <ele>595.8</ele>
        <time>2020-06-30T11:57:59Z</time>
      </trkpt>
      <trkpt lat="43.08263" lon="0.37058">
        <ele>596</ele>
        <time>2020-06-30T11:58:00Z</time>
      </trkpt>
      <trkpt lat="43.08262" lon="0.37057">
        <ele>596.2</ele>
        <time>2020-06-30T11:58:01Z</time>
      </trkpt>
      <trkpt lat="43.08263" lon="0.37056">
        <ele>596.4</ele>
        <time>2020-06-30T11:58:02Z</time>
      </trkpt>
      <trkpt lat="43.08263" lon="0.37054">
        <ele>596.6</ele>
        <time>2020-06-30T11:58:03Z</time>
      </trkpt>
      <trkpt lat="43.08262" lon="0.37051">
        <ele>596.8</ele>
        <time>2020-06-30T11:58:04Z</time>
      </trkpt>
      <trkpt lat="43.08262" lon="0.37048">
        <ele>597</ele>
        <time>2020-06-30T11:58:05Z</time>
      </trkpt>
      <trkpt lat="43.08261" lon="0.37045">
        <ele>597</ele>
        <time>2020-06-30T11:58:06Z</time>
      </trkpt>
      <trkpt lat="43.08261" lon="0.37042">
        <ele>597.2</ele>
        <time>2020-06-30T11:58:07Z</time>
      </trkpt>
      <trkpt lat="43.0826" lon="0.37039">
        <ele>597.4</ele>
        <time>2020-06-30T11:58:08Z</time>
      </trkpt>
      <trkpt lat="43.08259" lon="0.37036">
        <ele>597.6</ele>
        <time>2020-06-30T11:58:09Z</time>
      </trkpt>
      <trkpt lat="43.08259" lon="0.37034">
        <ele>597.8</ele>
        <time>2020-06-30T11:58:10Z</time>
      </trkpt>
      <trkpt lat="43.08259" lon="0.37031">
        <ele>597.8</ele>
        <time>2020-06-30T11:58:11Z</time>
      </trkpt>
      <trkpt lat="43.08259" lon="0.37029">
        <ele>598</ele>
        <time>2020-06-30T11:58:12Z</time>
      </trkpt>
      <trkpt lat="43.08258" lon="0.37025">
        <ele>598.2</ele>
        <time>2020-06-30T11:58:13Z</time>
      </trkpt>
      <trkpt lat="43.08258" lon="0.37022">
        <ele>598.2</ele>
        <time>2020-06-30T11:58:14Z</time>
      </trkpt>
      <trkpt lat="43.08257" lon="0.37019">
        <ele>598.4</ele>
        <time>2020-06-30T11:58:15Z</time>
      </trkpt>
      <trkpt lat="43.08257" lon="0.37017">
        <ele>598.6</ele>
        <time>2020-06-30T11:58:16Z</time>
      </trkpt>
      <trkpt lat="43.08257" lon="0.37015">
        <ele>598.8</ele>
        <time>2020-06-30T11:58:17Z</time>
      </trkpt>
      <trkpt lat="43.08256" lon="0.37013">
        <ele>598.8</ele>
        <time>2020-06-30T11:58:18Z</time>
      </trkpt>
      <trkpt lat="43.08256" lon="0.37011">
        <ele>599</ele>
        <time>2020-06-30T11:58:19Z</time>
      </trkpt>
      <trkpt lat="43.08254" lon="0.37008">
        <ele>599.2</ele>
        <time>2020-06-30T11:58:20Z</time>
      </trkpt>
      <trkpt lat="43.08254" lon="0.37006">
        <ele>599.2</ele>
        <time>2020-06-30T11:58:21Z</time>
      </trkpt>
      <trkpt lat="43.08254" lon="0.37003">
        <ele>599.4</ele>
        <time>2020-06-30T11:58:22Z</time>
      </trkpt>
      <trkpt lat="43.08254" lon="0.37001">
        <ele>599.4</ele>
        <time>2020-06-30T11:58:23Z</time>
      </trkpt>
      <trkpt lat="43.08254" lon="0.36998">
        <ele>599.8</ele>
        <time>2020-06-30T11:58:24Z</time>
      </trkpt>
      <trkpt lat="43.08253" lon="0.36995">
        <ele>599.8</ele>
        <time>2020-06-30T11:58:25Z</time>
      </trkpt>
      <trkpt lat="43.08253" lon="0.36993">
        <ele>600</ele>
        <time>2020-06-30T11:58:26Z</time>
      </trkpt>
      <trkpt lat="43.08253" lon="0.36991">
        <ele>600.2</ele>
        <time>2020-06-30T11:58:27Z</time>
      </trkpt>
      <trkpt lat="43.08252" lon="0.36987">
        <ele>600.4</ele>
        <time>2020-06-30T11:58:28Z</time>
      </trkpt>
      <trkpt lat="43.08251" lon="0.36986">
        <ele>600.6</ele>
        <time>2020-06-30T11:58:29Z</time>
      </trkpt>
      <trkpt lat="43.08251" lon="0.36983">
        <ele>600.6</ele>
        <time>2020-06-30T11:58:30Z</time>
      </trkpt>
      <trkpt lat="43.08251" lon="0.36981">
        <ele>600.6</ele>
        <time>2020-06-30T11:58:31Z</time>
      </trkpt>
      <trkpt lat="43.08251" lon="0.36979">
        <ele>600.8</ele>
        <time>2020-06-30T11:58:32Z</time>
      </trkpt>
      <trkpt lat="43.08251" lon="0.36977">
        <ele>601</ele>
        <time>2020-06-30T11:58:33Z</time>
      </trkpt>
      <trkpt lat="43.08251" lon="0.36975">
        <ele>601.2</ele>
        <time>2020-06-30T11:58:34Z</time>
      </trkpt>
      <trkpt lat="43.08251" lon="0.36972">
        <ele>601.4</ele>
        <time>2020-06-30T11:58:35Z</time>
      </trkpt>
      <trkpt lat="43.08249" lon="0.36969">
        <ele>601.4</ele>
        <time>2020-06-30T11:58:36Z</time>
      </trkpt>
      <trkpt lat="43.08249" lon="0.36967">
        <ele>601.6</ele>
        <time>2020-06-30T11:58:37Z</time>
      </trkpt>
      <trkpt lat="43.08249" lon="0.36964">
        <ele>601.8</ele>
        <time>2020-06-30T11:58:38Z</time>
      </trkpt>
      <trkpt lat="43.08248" lon="0.36961">
        <ele>601.8</ele>
        <time>2020-06-30T11:58:39Z</time>
      </trkpt>
      <trkpt lat="43.08248" lon="0.36958">
        <ele>602</ele>
        <time>2020-06-30T11:58:40Z</time>
      </trkpt>
      <trkpt lat="43.08248" lon="0.36956">
        <ele>602.2</ele>
        <time>2020-06-30T11:58:41Z</time>
      </trkpt>
      <trkpt lat="43.08248" lon="0.36952">
        <ele>602.2</ele>
        <time>2020-06-30T11:58:42Z</time>
      </trkpt>
      <trkpt lat="43.08248" lon="0.36949">
        <ele>602.4</ele>
        <time>2020-06-30T11:58:43Z</time>
      </trkpt>
      <trkpt lat="43.08247" lon="0.36946">
        <ele>602.6</ele>
        <time>2020-06-30T11:58:44Z</time>
      </trkpt>
      <trkpt lat="43.08247" lon="0.36942">
        <ele>602.6</ele>
        <time>2020-06-30T11:58:45Z</time>
      </trkpt>
      <trkpt lat="43.08246" lon="0.36939">
        <ele>602.8</ele>
        <time>2020-06-30T11:58:46Z</time>
      </trkpt>
      <trkpt lat="43.08245" lon="0.36936">
        <ele>603</ele>
        <time>2020-06-30T11:58:47Z</time>
      </trkpt>
      <trkpt lat="43.08245" lon="0.36933">
        <ele>603.2</ele>
        <time>2020-06-30T11:58:48Z</time>
      </trkpt>
      <trkpt lat="43.08245" lon="0.3693">
        <ele>603.2</ele>
        <time>2020-06-30T11:58:49Z</time>
      </trkpt>
      <trkpt lat="43.08245" lon="0.36926">
        <ele>603.4</ele>
        <time>2020-06-30T11:58:50Z</time>
      </trkpt>
      <trkpt lat="43.08244" lon="0.36923">
        <ele>603.6</ele>
        <time>2020-06-30T11:58:51Z</time>
      </trkpt>
      <trkpt lat="43.08243" lon="0.36919">
        <ele>603.6</ele>
        <time>2020-06-30T11:58:52Z</time>
      </trkpt>
      <trkpt lat="43.08242" lon="0.36916">
        <ele>603.8</ele>
        <time>2020-06-30T11:58:53Z</time>
      </trkpt>
      <trkpt lat="43.08242" lon="0.36914">
        <ele>604</ele>
        <time>2020-06-30T11:58:54Z</time>
      </trkpt>
      <trkpt lat="43.08241" lon="0.36911">
        <ele>604</ele>
        <time>2020-06-30T11:58:55Z</time>
      </trkpt>
      <trkpt lat="43.08241" lon="0.36907">
        <ele>604.2</ele>
        <time>2020-06-30T11:58:56Z</time>
      </trkpt>
      <trkpt lat="43.0824" lon="0.36904">
        <ele>604.2</ele>
        <time>2020-06-30T11:58:57Z</time>
      </trkpt>
      <trkpt lat="43.08239" lon="0.369">
        <ele>604.4</ele>
        <time>2020-06-30T11:58:58Z</time>
      </trkpt>
      <trkpt lat="43.08238" lon="0.36896">
        <ele>604.6</ele>
        <time>2020-06-30T11:58:59Z</time>
      </trkpt>
      <trkpt lat="43.08237" lon="0.36892">
        <ele>604.6</ele>
        <time>2020-06-30T11:59:00Z</time>
      </trkpt>
      <trkpt lat="43.08238" lon="0.36888">
        <ele>604.8</ele>
        <time>2020-06-30T11:59:01Z</time>
      </trkpt>
      <trkpt lat="43.08238" lon="0.36888">
        <ele>604.8</ele>
        <time>2020-06-30T11:59:02Z</time>
      </trkpt>
      <trkpt lat="43.08237" lon="0.36882">
        <ele>605</ele>
        <time>2020-06-30T11:59:03Z</time>
      </trkpt>
      <trkpt lat="43.08237" lon="0.36879">
        <ele>605.2</ele>
        <time>2020-06-30T11:59:04Z</time>
      </trkpt>
      <trkpt lat="43.08237" lon="0.36876">
        <ele>605.2</ele>
        <time>2020-06-30T11:59:05Z</time>
      </trkpt>
      <trkpt lat="43.08237" lon="0.36873">
        <ele>605.4</ele>
        <time>2020-06-30T11:59:06Z</time>
      </trkpt>
      <trkpt lat="43.08237" lon="0.3687">
        <ele>605.6</ele>
        <time>2020-06-30T11:59:07Z</time>
      </trkpt>
      <trkpt lat="43.08237" lon="0.36867">
        <ele>605.6</ele>
        <time>2020-06-30T11:59:08Z</time>
      </trkpt>
      <trkpt lat="43.08236" lon="0.36863">
        <ele>605.6</ele>
        <time>2020-06-30T11:59:09Z</time>
      </trkpt>
      <trkpt lat="43.08235" lon="0.36859">
        <ele>605.8</ele>
        <time>2020-06-30T11:59:10Z</time>
      </trkpt>
      <trkpt lat="43.08234" lon="0.36855">
        <ele>605.8</ele>
        <time>2020-06-30T11:59:11Z</time>
      </trkpt>
      <trkpt lat="43.08234" lon="0.36853">
        <ele>606</ele>
        <time>2020-06-30T11:59:12Z</time>
      </trkpt>
      <trkpt lat="43.08232" lon="0.3685">
        <ele>606</ele>
        <time>2020-06-30T11:59:13Z</time>
      </trkpt>
      <trkpt lat="43.08232" lon="0.36848">
        <ele>606.2</ele>
        <time>2020-06-30T11:59:14Z</time>
      </trkpt>
      <trkpt lat="43.08231" lon="0.36843">
        <ele>606.2</ele>
        <time>2020-06-30T11:59:15Z</time>
      </trkpt>
      <trkpt lat="43.08229" lon="0.3684">
        <ele>606.4</ele>
        <time>2020-06-30T11:59:16Z</time>
      </trkpt>
      <trkpt lat="43.08229" lon="0.36837">
        <ele>606.4</ele>
        <time>2020-06-30T11:59:17Z</time>
      </trkpt>
      <trkpt lat="43.08229" lon="0.36834">
        <ele>606.4</ele>
        <time>2020-06-30T11:59:18Z</time>
      </trkpt>
      <trkpt lat="43.0823" lon="0.36831">
        <ele>606.6</ele>
        <time>2020-06-30T11:59:19Z</time>
      </trkpt>
      <trkpt lat="43.0823" lon="0.36829">
        <ele>606.6</ele>
        <time>2020-06-30T11:59:20Z</time>
      </trkpt>
      <trkpt lat="43.0823" lon="0.36826">
        <ele>606.8</ele>
        <time>2020-06-30T11:59:21Z</time>
      </trkpt>
      <trkpt lat="43.08228" lon="0.36822">
        <ele>607</ele>
        <time>2020-06-30T11:59:22Z</time>
      </trkpt>
      <trkpt lat="43.08227" lon="0.36819">
        <ele>607</ele>
        <time>2020-06-30T11:59:23Z</time>
      </trkpt>
      <trkpt lat="43.08227" lon="0.36815">
        <ele>607</ele>
        <time>2020-06-30T11:59:24Z</time>
      </trkpt>
      <trkpt lat="43.08228" lon="0.36813">
        <ele>607.2</ele>
        <time>2020-06-30T11:59:25Z</time>
      </trkpt>
      <trkpt lat="43.08228" lon="0.3681">
        <ele>607.2</ele>
        <time>2020-06-30T11:59:26Z</time>
      </trkpt>
      <trkpt lat="43.08227" lon="0.36807">
        <ele>607.4</ele>
        <time>2020-06-30T11:59:27Z</time>
      </trkpt>
      <trkpt lat="43.08227" lon="0.36804">
        <ele>607.4</ele>
        <time>2020-06-30T11:59:28Z</time>
      </trkpt>
      <trkpt lat="43.08227" lon="0.36803">
        <ele>607.6</ele>
        <time>2020-06-30T11:59:29Z</time>
      </trkpt>
      <trkpt lat="43.08227" lon="0.36799">
        <ele>607.6</ele>
        <time>2020-06-30T11:59:30Z</time>
      </trkpt>
      <trkpt lat="43.08227" lon="0.36796">
        <ele>607.6</ele>
        <time>2020-06-30T11:59:31Z</time>
      </trkpt>
      <trkpt lat="43.08225" lon="0.36794">
        <ele>607.8</ele>
        <time>2020-06-30T11:59:32Z</time>
      </trkpt>
      <trkpt lat="43.08225" lon="0.36792">
        <ele>608</ele>
        <time>2020-06-30T11:59:33Z</time>
      </trkpt>
      <trkpt lat="43.08226" lon="0.36788">
        <ele>608</ele>
        <time>2020-06-30T11:59:34Z</time>
      </trkpt>
      <trkpt lat="43.08225" lon="0.36785">
        <ele>608.2</ele>
        <time>2020-06-30T11:59:35Z</time>
      </trkpt>
      <trkpt lat="43.08225" lon="0.36781">
        <ele>608.2</ele>
        <time>2020-06-30T11:59:36Z</time>
      </trkpt>
      <trkpt lat="43.08225" lon="0.36781">
        <ele>608.4</ele>
        <time>2020-06-30T11:59:37Z</time>
      </trkpt>
      <trkpt lat="43.08222" lon="0.36773">
        <ele>608.4</ele>
        <time>2020-06-30T11:59:38Z</time>
      </trkpt>
      <trkpt lat="43.08222" lon="0.36771">
        <ele>608.4</ele>
        <time>2020-06-30T11:59:39Z</time>
      </trkpt>
      <trkpt lat="43.0822" lon="0.36766">
        <ele>608.6</ele>
        <time>2020-06-30T11:59:40Z</time>
      </trkpt>
      <trkpt lat="43.0822" lon="0.36763">
        <ele>608.6</ele>
        <time>2020-06-30T11:59:41Z</time>
      </trkpt>
      <trkpt lat="43.08218" lon="0.36758">
        <ele>608.8</ele>
        <time>2020-06-30T11:59:42Z</time>
      </trkpt>
      <trkpt lat="43.08217" lon="0.36755">
        <ele>608.8</ele>
        <time>2020-06-30T11:59:43Z</time>
      </trkpt>
      <trkpt lat="43.08216" lon="0.36751">
        <ele>609</ele>
        <time>2020-06-30T11:59:44Z</time>
      </trkpt>
      <trkpt lat="43.08216" lon="0.36751">
        <ele>609.2</ele>
        <time>2020-06-30T11:59:45Z</time>
      </trkpt>
      <trkpt lat="43.08214" lon="0.36743">
        <ele>609.2</ele>
        <time>2020-06-30T11:59:46Z</time>
      </trkpt>
      <trkpt lat="43.08214" lon="0.3674">
        <ele>609.2</ele>
        <time>2020-06-30T11:59:47Z</time>
      </trkpt>
      <trkpt lat="43.08214" lon="0.3674">
        <ele>609.4</ele>
        <time>2020-06-30T11:59:48Z</time>
      </trkpt>
      <trkpt lat="43.0821" lon="0.36731">
        <ele>609.4</ele>
        <time>2020-06-30T11:59:49Z</time>
      </trkpt>
      <trkpt lat="43.08209" lon="0.36729">
        <ele>609.6</ele>
        <time>2020-06-30T11:59:50Z</time>
      </trkpt>
      <trkpt lat="43.08208" lon="0.36726">
        <ele>609.6</ele>
        <time>2020-06-30T11:59:51Z</time>
      </trkpt>
      <trkpt lat="43.08207" lon="0.36724">
        <ele>609.8</ele>
        <time>2020-06-30T11:59:52Z</time>
      </trkpt>
      <trkpt lat="43.08207" lon="0.36722">
        <ele>610</ele>
        <time>2020-06-30T11:59:53Z</time>
      </trkpt>
      <trkpt lat="43.08205" lon="0.36719">
        <ele>610</ele>
        <time>2020-06-30T11:59:54Z</time>
      </trkpt>
      <trkpt lat="43.08203" lon="0.36715">
        <ele>610</ele>
        <time>2020-06-30T11:59:55Z</time>
      </trkpt>
      <trkpt lat="43.08202" lon="0.36713">
        <ele>610.2</ele>
        <time>2020-06-30T11:59:56Z</time>
      </trkpt>
      <trkpt lat="43.08199" lon="0.36708">
        <ele>610.2</ele>
        <time>2020-06-30T11:59:57Z</time>
      </trkpt>
      <trkpt lat="43.08196" lon="0.36701">
        <ele>610.4</ele>
        <time>2020-06-30T11:59:58Z</time>
      </trkpt>
      <trkpt lat="43.08195" lon="0.36698">
        <ele>610.6</ele>
        <time>2020-06-30T11:59:59Z</time>
      </trkpt>
      <trkpt lat="43.08194" lon="0.36695">
        <ele>610.6</ele>
        <time>2020-06-30T12:00:00Z</time>
      </trkpt>
      <trkpt lat="43.08194" lon="0.36693">
        <ele>610.8</ele>
        <time>2020-06-30T12:00:01Z</time>
      </trkpt>
      <trkpt lat="43.08193" lon="0.3669">
        <ele>610.8</ele>
        <time>2020-06-30T12:00:02Z</time>
      </trkpt>
      <trkpt lat="43.08192" lon="0.36687">
        <ele>610.8</ele>
        <time>2020-06-30T12:00:03Z</time>
      </trkpt>
      <trkpt lat="43.08189" lon="0.36682">
        <ele>611</ele>
        <time>2020-06-30T12:00:04Z</time>
      </trkpt>
      <trkpt lat="43.08187" lon="0.36679">
        <ele>611</ele>
        <time>2020-06-30T12:00:05Z</time>
      </trkpt>
      <trkpt lat="43.08185" lon="0.36676">
        <ele>611.2</ele>
        <time>2020-06-30T12:00:06Z</time>
      </trkpt>
      <trkpt lat="43.08183" lon="0.36672">
        <ele>611.2</ele>
        <time>2020-06-30T12:00:07Z</time>
      </trkpt>
      <trkpt lat="43.08181" lon="0.36669">
        <ele>611.4</ele>
        <time>2020-06-30T12:00:08Z</time>
      </trkpt>
      <trkpt lat="43.08179" lon="0.36665">
        <ele>611.4</ele>
        <time>2020-06-30T12:00:09Z</time>
      </trkpt>
      <trkpt lat="43.08177" lon="0.36662">
        <ele>611.6</ele>
        <time>2020-06-30T12:00:10Z</time>
      </trkpt>
      <trkpt lat="43.08175" lon="0.3666">
        <ele>611.8</ele>
        <time>2020-06-30T12:00:11Z</time>
      </trkpt>
      <trkpt lat="43.08175" lon="0.3666">
        <ele>611.8</ele>
        <time>2020-06-30T12:00:12Z</time>
      </trkpt>
      <trkpt lat="43.08171" lon="0.36653">
        <ele>612</ele>
        <time>2020-06-30T12:00:13Z</time>
      </trkpt>
      <trkpt lat="43.08169" lon="0.3665">
        <ele>612</ele>
        <time>2020-06-30T12:00:14Z</time>
      </trkpt>
      <trkpt lat="43.08167" lon="0.36647">
        <ele>612.2</ele>
        <time>2020-06-30T12:00:15Z</time>
      </trkpt>
      <trkpt lat="43.08165" lon="0.36644">
        <ele>612.4</ele>
        <time>2020-06-30T12:00:16Z</time>
      </trkpt>
      <trkpt lat="43.08163" lon="0.36641">
        <ele>612.6</ele>
        <time>2020-06-30T12:00:17Z</time>
      </trkpt>
      <trkpt lat="43.08161" lon="0.36638">
        <ele>612.6</ele>
        <time>2020-06-30T12:00:18Z</time>
      </trkpt>
      <trkpt lat="43.08159" lon="0.36635">
        <ele>612.6</ele>
        <time>2020-06-30T12:00:19Z</time>
      </trkpt>
      <trkpt lat="43.08157" lon="0.36632">
        <ele>612.8</ele>
        <time>2020-06-30T12:00:20Z</time>
      </trkpt>
      <trkpt lat="43.08155" lon="0.36628">
        <ele>613</ele>
        <time>2020-06-30T12:00:21Z</time>
      </trkpt>
      <trkpt lat="43.08153" lon="0.36625">
        <ele>613</ele>
        <time>2020-06-30T12:00:22Z</time>
      </trkpt>
      <trkpt lat="43.08151" lon="0.36622">
        <ele>613.2</ele>
        <time>2020-06-30T12:00:23Z</time>
      </trkpt>
      <trkpt lat="43.08149" lon="0.36619">
        <ele>613.2</ele>
        <time>2020-06-30T12:00:24Z</time>
      </trkpt>
      <trkpt lat="43.08147" lon="0.36616">
        <ele>613.4</ele>
        <time>2020-06-30T12:00:25Z</time>
      </trkpt>
      <trkpt lat="43.08145" lon="0.36613">
        <ele>613.4</ele>
        <time>2020-06-30T12:00:26Z</time>
      </trkpt>
      <trkpt lat="43.08143" lon="0.3661">
        <ele>613.6</ele>
        <time>2020-06-30T12:00:27Z</time>
      </trkpt>
      <trkpt lat="43.08141" lon="0.36607">
        <ele>613.6</ele>
        <time>2020-06-30T12:00:28Z</time>
      </trkpt>
      <trkpt lat="43.08139" lon="0.36604">
        <ele>613.8</ele>
        <time>2020-06-30T12:00:29Z</time>
      </trkpt>
      <trkpt lat="43.08137" lon="0.36601">
        <ele>613.8</ele>
        <time>2020-06-30T12:00:30Z</time>
      </trkpt>
      <trkpt lat="43.08136" lon="0.36598">
        <ele>614</ele>
        <time>2020-06-30T12:00:31Z</time>
      </trkpt>
      <trkpt lat="43.08134" lon="0.36595">
        <ele>614.2</ele>
        <time>2020-06-30T12:00:32Z</time>
      </trkpt>
      <trkpt lat="43.08132" lon="0.36592">
        <ele>614.2</ele>
        <time>2020-06-30T12:00:33Z</time>
      </trkpt>
      <trkpt lat="43.0813" lon="0.36589">
        <ele>614.2</ele>
        <time>2020-06-30T12:00:34Z</time>
      </trkpt>
      <trkpt lat="43.08128" lon="0.36586">
        <ele>614.2</ele>
        <time>2020-06-30T12:00:35Z</time>
      </trkpt>
      <trkpt lat="43.08126" lon="0.36583">
        <ele>614.2</ele>
        <time>2020-06-30T12:00:36Z</time>
      </trkpt>
      <trkpt lat="43.08124" lon="0.3658">
        <ele>614.4</ele>
        <time>2020-06-30T12:00:37Z</time>
      </trkpt>
      <trkpt lat="43.08122" lon="0.36577">
        <ele>614.4</ele>
        <time>2020-06-30T12:00:38Z</time>
      </trkpt>
      <trkpt lat="43.0812" lon="0.36574">
        <ele>614.8</ele>
        <time>2020-06-30T12:00:39Z</time>
      </trkpt>
      <trkpt lat="43.08118" lon="0.36571">
        <ele>614.8</ele>
        <time>2020-06-30T12:00:40Z</time>
      </trkpt>
      <trkpt lat="43.08117" lon="0.36568">
        <ele>614.8</ele>
        <time>2020-06-30T12:00:41Z</time>
      </trkpt>
      <trkpt lat="43.08114" lon="0.36565">
        <ele>615</ele>
        <time>2020-06-30T12:00:42Z</time>
      </trkpt>
      <trkpt lat="43.08112" lon="0.36562">
        <ele>615.2</ele>
        <time>2020-06-30T12:00:43Z</time>
      </trkpt>
      <trkpt lat="43.0811" lon="0.36559">
        <ele>615.4</ele>
        <time>2020-06-30T12:00:44Z</time>
      </trkpt>
      <trkpt lat="43.08107" lon="0.36555">
        <ele>615.4</ele>
        <time>2020-06-30T12:00:45Z</time>
      </trkpt>
      <trkpt lat="43.08106" lon="0.36552">
        <ele>615.4</ele>
        <time>2020-06-30T12:00:46Z</time>
      </trkpt>
      <trkpt lat="43.08106" lon="0.36552">
        <ele>615.6</ele>
        <time>2020-06-30T12:00:47Z</time>
      </trkpt>
      <trkpt lat="43.08102" lon="0.36546">
        <ele>615.8</ele>
        <time>2020-06-30T12:00:48Z</time>
      </trkpt>
      <trkpt lat="43.081" lon="0.36543">
        <ele>615.8</ele>
        <time>2020-06-30T12:00:49Z</time>
      </trkpt>
      <trkpt lat="43.08099" lon="0.36539">
        <ele>616</ele>
        <time>2020-06-30T12:00:50Z</time>
      </trkpt>
      <trkpt lat="43.08098" lon="0.36535">
        <ele>616.2</ele>
        <time>2020-06-30T12:00:51Z</time>
      </trkpt>
      <trkpt lat="43.08097" lon="0.36532">
        <ele>616.2</ele>
        <time>2020-06-30T12:00:52Z</time>
      </trkpt>
      <trkpt lat="43.08095" lon="0.3653">
        <ele>616.4</ele>
        <time>2020-06-30T12:00:53Z</time>
      </trkpt>
      <trkpt lat="43.08093" lon="0.36527">
        <ele>616.4</ele>
        <time>2020-06-30T12:00:54Z</time>
      </trkpt>
      <trkpt lat="43.08093" lon="0.36527">
        <ele>616.6</ele>
        <time>2020-06-30T12:00:55Z</time>
      </trkpt>
      <trkpt lat="43.08088" lon="0.36522">
        <ele>616.8</ele>
        <time>2020-06-30T12:00:56Z</time>
      </trkpt>
      <trkpt lat="43.08087" lon="0.36517">
        <ele>617</ele>
        <time>2020-06-30T12:00:57Z</time>
      </trkpt>
      <trkpt lat="43.08085" lon="0.36514">
        <ele>617</ele>
        <time>2020-06-30T12:00:58Z</time>
      </trkpt>
      <trkpt lat="43.08083" lon="0.3651">
        <ele>617.2</ele>
        <time>2020-06-30T12:00:59Z</time>
      </trkpt>
      <trkpt lat="43.0808" lon="0.36506">
        <ele>617.4</ele>
        <time>2020-06-30T12:01:00Z</time>
      </trkpt>
      <trkpt lat="43.08078" lon="0.36501">
        <ele>617.6</ele>
        <time>2020-06-30T12:01:01Z</time>
      </trkpt>
      <trkpt lat="43.08076" lon="0.36499">
        <ele>617.6</ele>
        <time>2020-06-30T12:01:02Z</time>
      </trkpt>
      <trkpt lat="43.08072" lon="0.36492">
        <ele>617.6</ele>
        <time>2020-06-30T12:01:03Z</time>
      </trkpt>
      <trkpt lat="43.0807" lon="0.36489">
        <ele>617.8</ele>
        <time>2020-06-30T12:01:04Z</time>
      </trkpt>
      <trkpt lat="43.0807" lon="0.36489">
        <ele>618</ele>
        <time>2020-06-30T12:01:05Z</time>
      </trkpt>
      <trkpt lat="43.08069" lon="0.36481">
        <ele>618</ele>
        <time>2020-06-30T12:01:06Z</time>
      </trkpt>
      <trkpt lat="43.08065" lon="0.36478">
        <ele>618.2</ele>
        <time>2020-06-30T12:01:07Z</time>
      </trkpt>
      <trkpt lat="43.08062" lon="0.36475">
        <ele>618.4</ele>
        <time>2020-06-30T12:01:08Z</time>
      </trkpt>
      <trkpt lat="43.08062" lon="0.36475">
        <ele>618.4</ele>
        <time>2020-06-30T12:01:09Z</time>
      </trkpt>
      <trkpt lat="43.08062" lon="0.36467">
        <ele>618.6</ele>
        <time>2020-06-30T12:01:10Z</time>
      </trkpt>
      <trkpt lat="43.08061" lon="0.36464">
        <ele>618.8</ele>
        <time>2020-06-30T12:01:11Z</time>
      </trkpt>
      <trkpt lat="43.08061" lon="0.36461">
        <ele>618.8</ele>
        <time>2020-06-30T12:01:12Z</time>
      </trkpt>
      <trkpt lat="43.08058" lon="0.36455">
        <ele>619</ele>
        <time>2020-06-30T12:01:13Z</time>
      </trkpt>
      <trkpt lat="43.08058" lon="0.36455">
        <ele>619.2</ele>
        <time>2020-06-30T12:01:14Z</time>
      </trkpt>
      <trkpt lat="43.08055" lon="0.36445">
        <ele>619.2</ele>
        <time>2020-06-30T12:01:15Z</time>
      </trkpt>
      <trkpt lat="43.08055" lon="0.36441">
        <ele>619.4</ele>
        <time>2020-06-30T12:01:16Z</time>
      </trkpt>
      <trkpt lat="43.08054" lon="0.36438">
        <ele>619.6</ele>
        <time>2020-06-30T12:01:17Z</time>
      </trkpt>
      <trkpt lat="43.08053" lon="0.36437">
        <ele>619.8</ele>
        <time>2020-06-30T12:01:18Z</time>
      </trkpt>
      <trkpt lat="43.08051" lon="0.36432">
        <ele>620</ele>
        <time>2020-06-30T12:01:19Z</time>
      </trkpt>
      <trkpt lat="43.08053" lon="0.3643">
        <ele>620.2</ele>
        <time>2020-06-30T12:01:20Z</time>
      </trkpt>
      <trkpt lat="43.08049" lon="0.36423">
        <ele>620.2</ele>
        <time>2020-06-30T12:01:21Z</time>
      </trkpt>
      <trkpt lat="43.08048" lon="0.36418">
        <ele>620.4</ele>
        <time>2020-06-30T12:01:22Z</time>
      </trkpt>
      <trkpt lat="43.08048" lon="0.36418">
        <ele>620.6</ele>
        <time>2020-06-30T12:01:23Z</time>
      </trkpt>
      <trkpt lat="43.08047" lon="0.3641">
        <ele>620.8</ele>
        <time>2020-06-30T12:01:24Z</time>
      </trkpt>
      <trkpt lat="43.08046" lon="0.36406">
        <ele>621</ele>
        <time>2020-06-30T12:01:25Z</time>
      </trkpt>
      <trkpt lat="43.08046" lon="0.36406">
        <ele>621</ele>
        <time>2020-06-30T12:01:26Z</time>
      </trkpt>
      <trkpt lat="43.08046" lon="0.36396">
        <ele>621.4</ele>
        <time>2020-06-30T12:01:27Z</time>
      </trkpt>
      <trkpt lat="43.08046" lon="0.36392">
        <ele>621.6</ele>
        <time>2020-06-30T12:01:28Z</time>
      </trkpt>
      <trkpt lat="43.08045" lon="0.36389">
        <ele>621.8</ele>
        <time>2020-06-30T12:01:29Z</time>
      </trkpt>
      <trkpt lat="43.08045" lon="0.36389">
        <ele>622</ele>
        <time>2020-06-30T12:01:30Z</time>
      </trkpt>
      <trkpt lat="43.08044" lon="0.36379">
        <ele>622</ele>
        <time>2020-06-30T12:01:31Z</time>
      </trkpt>
      <trkpt lat="43.08043" lon="0.36375">
        <ele>622.2</ele>
        <time>2020-06-30T12:01:32Z</time>
      </trkpt>
      <trkpt lat="43.08043" lon="0.36371">
        <ele>622.6</ele>
        <time>2020-06-30T12:01:33Z</time>
      </trkpt>
      <trkpt lat="43.08043" lon="0.36366">
        <ele>622.8</ele>
        <time>2020-06-30T12:01:34Z</time>
      </trkpt>
      <trkpt lat="43.08043" lon="0.36366">
        <ele>622.8</ele>
        <time>2020-06-30T12:01:35Z</time>
      </trkpt>
      <trkpt lat="43.08044" lon="0.3636">
        <ele>623</ele>
        <time>2020-06-30T12:01:36Z</time>
      </trkpt>
      <trkpt lat="43.08043" lon="0.36356">
        <ele>623.2</ele>
        <time>2020-06-30T12:01:37Z</time>
      </trkpt>
      <trkpt lat="43.08043" lon="0.36352">
        <ele>623.4</ele>
        <time>2020-06-30T12:01:38Z</time>
      </trkpt>
      <trkpt lat="43.08043" lon="0.36352">
        <ele>623.4</ele>
        <time>2020-06-30T12:01:39Z</time>
      </trkpt>
      <trkpt lat="43.08043" lon="0.36344">
        <ele>623.4</ele>
        <time>2020-06-30T12:01:40Z</time>
      </trkpt>
      <trkpt lat="43.08043" lon="0.36341">
        <ele>623.6</ele>
        <time>2020-06-30T12:01:41Z</time>
      </trkpt>
      <trkpt lat="43.08043" lon="0.36337">
        <ele>623.8</ele>
        <time>2020-06-30T12:01:42Z</time>
      </trkpt>
      <trkpt lat="43.08044" lon="0.36333">
        <ele>623.8</ele>
        <time>2020-06-30T12:01:43Z</time>
      </trkpt>
      <trkpt lat="43.08047" lon="0.36328">
        <ele>623.8</ele>
        <time>2020-06-30T12:01:44Z</time>
      </trkpt>
      <trkpt lat="43.08048" lon="0.36324">
        <ele>624</ele>
        <time>2020-06-30T12:01:45Z</time>
      </trkpt>
      <trkpt lat="43.08049" lon="0.36322">
        <ele>624.2</ele>
        <time>2020-06-30T12:01:46Z</time>
      </trkpt>
      <trkpt lat="43.08052" lon="0.3632">
        <ele>624.2</ele>
        <time>2020-06-30T12:01:47Z</time>
      </trkpt>
      <trkpt lat="43.08055" lon="0.3632">
        <ele>624.4</ele>
        <time>2020-06-30T12:01:48Z</time>
      </trkpt>
      <trkpt lat="43.08058" lon="0.36318">
        <ele>624.4</ele>
        <time>2020-06-30T12:01:49Z</time>
      </trkpt>
      <trkpt lat="43.0806" lon="0.36316">
        <ele>624.6</ele>
        <time>2020-06-30T12:01:50Z</time>
      </trkpt>
      <trkpt lat="43.08062" lon="0.36312">
        <ele>624.6</ele>
        <time>2020-06-30T12:01:51Z</time>
      </trkpt>
      <trkpt lat="43.08062" lon="0.36308">
        <ele>624.8</ele>
        <time>2020-06-30T12:01:52Z</time>
      </trkpt>
      <trkpt lat="43.08065" lon="0.36304">
        <ele>624.8</ele>
        <time>2020-06-30T12:01:53Z</time>
      </trkpt>
      <trkpt lat="43.08065" lon="0.36304">
        <ele>624.8</ele>
        <time>2020-06-30T12:01:54Z</time>
      </trkpt>
      <trkpt lat="43.08068" lon="0.36296">
        <ele>624.8</ele>
        <time>2020-06-30T12:01:55Z</time>
      </trkpt>
      <trkpt lat="43.08069" lon="0.36289">
        <ele>625</ele>
        <time>2020-06-30T12:01:56Z</time>
      </trkpt>
      <trkpt lat="43.08068" lon="0.36284">
        <ele>625</ele>
        <time>2020-06-30T12:01:57Z</time>
      </trkpt>
      <trkpt lat="43.08067" lon="0.36279">
        <ele>625</ele>
        <time>2020-06-30T12:01:58Z</time>
      </trkpt>
      <trkpt lat="43.08066" lon="0.36275">
        <ele>625</ele>
        <time>2020-06-30T12:01:59Z</time>
      </trkpt>
      <trkpt lat="43.08065" lon="0.36272">
        <ele>625</ele>
        <time>2020-06-30T12:02:00Z</time>
      </trkpt>
      <trkpt lat="43.08064" lon="0.36269">
        <ele>625</ele>
        <time>2020-06-30T12:02:01Z</time>
      </trkpt>
      <trkpt lat="43.08063" lon="0.36268">
        <ele>625.2</ele>
        <time>2020-06-30T12:02:02Z</time>
      </trkpt>
      <trkpt lat="43.08061" lon="0.36265">
        <ele>625</ele>
        <time>2020-06-30T12:02:03Z</time>
      </trkpt>
      <trkpt lat="43.08057" lon="0.36262">
        <ele>625.2</ele>
        <time>2020-06-30T12:02:04Z</time>
      </trkpt>
      <trkpt lat="43.08054" lon="0.3626">
        <ele>625.2</ele>
        <time>2020-06-30T12:02:05Z</time>
      </trkpt>
      <trkpt lat="43.08051" lon="0.36258">
        <ele>625.4</ele>
        <time>2020-06-30T12:02:06Z</time>
      </trkpt>
      <trkpt lat="43.08047" lon="0.36256">
        <ele>625.4</ele>
        <time>2020-06-30T12:02:07Z</time>
      </trkpt>
      <trkpt lat="43.08044" lon="0.36254">
        <ele>625.4</ele>
        <time>2020-06-30T12:02:08Z</time>
      </trkpt>
      <trkpt lat="43.0804" lon="0.36251">
        <ele>625.4</ele>
        <time>2020-06-30T12:02:09Z</time>
      </trkpt>
      <trkpt lat="43.08037" lon="0.36248">
        <ele>625.4</ele>
        <time>2020-06-30T12:02:10Z</time>
      </trkpt>
      <trkpt lat="43.08037" lon="0.36248">
        <ele>625.4</ele>
        <time>2020-06-30T12:02:11Z</time>
      </trkpt>
      <trkpt lat="43.08033" lon="0.36238">
        <ele>625.4</ele>
        <time>2020-06-30T12:02:12Z</time>
      </trkpt>
      <trkpt lat="43.0803" lon="0.36234">
        <ele>625.6</ele>
        <time>2020-06-30T12:02:13Z</time>
      </trkpt>
      <trkpt lat="43.08028" lon="0.3623">
        <ele>625.8</ele>
        <time>2020-06-30T12:02:14Z</time>
      </trkpt>
      <trkpt lat="43.08027" lon="0.36226">
        <ele>626</ele>
        <time>2020-06-30T12:02:15Z</time>
      </trkpt>
      <trkpt lat="43.08024" lon="0.36222">
        <ele>626.2</ele>
        <time>2020-06-30T12:02:16Z</time>
      </trkpt>
      <trkpt lat="43.08021" lon="0.36218">
        <ele>626.2</ele>
        <time>2020-06-30T12:02:17Z</time>
      </trkpt>
      <trkpt lat="43.08022" lon="0.36215">
        <ele>626.6</ele>
        <time>2020-06-30T12:02:18Z</time>
      </trkpt>
      <trkpt lat="43.08022" lon="0.36211">
        <ele>626.6</ele>
        <time>2020-06-30T12:02:19Z</time>
      </trkpt>
      <trkpt lat="43.0802" lon="0.36208">
        <ele>626.8</ele>
        <time>2020-06-30T12:02:20Z</time>
      </trkpt>
      <trkpt lat="43.0802" lon="0.36208">
        <ele>627</ele>
        <time>2020-06-30T12:02:21Z</time>
      </trkpt>
      <trkpt lat="43.08021" lon="0.36201">
        <ele>627.2</ele>
        <time>2020-06-30T12:02:22Z</time>
      </trkpt>
      <trkpt lat="43.08022" lon="0.36199">
        <ele>627.4</ele>
        <time>2020-06-30T12:02:23Z</time>
      </trkpt>
      <trkpt lat="43.08022" lon="0.36199">
        <ele>627.4</ele>
        <time>2020-06-30T12:02:24Z</time>
      </trkpt>
      <trkpt lat="43.08021" lon="0.36193">
        <ele>627.4</ele>
        <time>2020-06-30T12:02:25Z</time>
      </trkpt>
      <trkpt lat="43.08021" lon="0.36189">
        <ele>627.4</ele>
        <time>2020-06-30T12:02:26Z</time>
      </trkpt>
      <trkpt lat="43.0802" lon="0.36185">
        <ele>627.6</ele>
        <time>2020-06-30T12:02:27Z</time>
      </trkpt>
      <trkpt lat="43.0802" lon="0.36185">
        <ele>627.6</ele>
        <time>2020-06-30T12:02:28Z</time>
      </trkpt>
      <trkpt lat="43.0802" lon="0.36177">
        <ele>627.8</ele>
        <time>2020-06-30T12:02:29Z</time>
      </trkpt>
      <trkpt lat="43.08019" lon="0.36173">
        <ele>627.8</ele>
        <time>2020-06-30T12:02:30Z</time>
      </trkpt>
      <trkpt lat="43.0802" lon="0.36169">
        <ele>628</ele>
        <time>2020-06-30T12:02:31Z</time>
      </trkpt>
      <trkpt lat="43.08021" lon="0.36165">
        <ele>628.2</ele>
        <time>2020-06-30T12:02:32Z</time>
      </trkpt>
      <trkpt lat="43.0802" lon="0.36162">
        <ele>628.4</ele>
        <time>2020-06-30T12:02:33Z</time>
      </trkpt>
      <trkpt lat="43.0802" lon="0.36162">
        <ele>628.4</ele>
        <time>2020-06-30T12:02:34Z</time>
      </trkpt>
      <trkpt lat="43.08021" lon="0.36156">
        <ele>628.6</ele>
        <time>2020-06-30T12:02:35Z</time>
      </trkpt>
      <trkpt lat="43.0802" lon="0.36152">
        <ele>628.8</ele>
        <time>2020-06-30T12:02:36Z</time>
      </trkpt>
      <trkpt lat="43.0802" lon="0.36152">
        <ele>629</ele>
        <time>2020-06-30T12:02:37Z</time>
      </trkpt>
      <trkpt lat="43.08019" lon="0.36143">
        <ele>629.2</ele>
        <time>2020-06-30T12:02:38Z</time>
      </trkpt>
      <trkpt lat="43.0802" lon="0.36139">
        <ele>629.4</ele>
        <time>2020-06-30T12:02:39Z</time>
      </trkpt>
      <trkpt lat="43.08021" lon="0.36137">
        <ele>629.4</ele>
        <time>2020-06-30T12:02:40Z</time>
      </trkpt>
      <trkpt lat="43.08021" lon="0.36137">
        <ele>629.4</ele>
        <time>2020-06-30T12:02:41Z</time>
      </trkpt>
      <trkpt lat="43.08025" lon="0.36133">
        <ele>629.6</ele>
        <time>2020-06-30T12:02:42Z</time>
      </trkpt>
      <trkpt lat="43.08027" lon="0.36129">
        <ele>629.8</ele>
        <time>2020-06-30T12:02:43Z</time>
      </trkpt>
      <trkpt lat="43.08028" lon="0.36125">
        <ele>629.8</ele>
        <time>2020-06-30T12:02:44Z</time>
      </trkpt>
      <trkpt lat="43.08028" lon="0.36123">
        <ele>630</ele>
        <time>2020-06-30T12:02:45Z</time>
      </trkpt>
      <trkpt lat="43.0803" lon="0.3612">
        <ele>630.2</ele>
        <time>2020-06-30T12:02:46Z</time>
      </trkpt>
      <trkpt lat="43.0803" lon="0.36117">
        <ele>630.4</ele>
        <time>2020-06-30T12:02:47Z</time>
      </trkpt>
      <trkpt lat="43.08031" lon="0.36115">
        <ele>630.6</ele>
        <time>2020-06-30T12:02:48Z</time>
      </trkpt>
      <trkpt lat="43.08031" lon="0.36113">
        <ele>630.6</ele>
        <time>2020-06-30T12:02:49Z</time>
      </trkpt>
      <trkpt lat="43.08033" lon="0.3611">
        <ele>631</ele>
        <time>2020-06-30T12:02:50Z</time>
      </trkpt>
      <trkpt lat="43.08034" lon="0.36106">
        <ele>631</ele>
        <time>2020-06-30T12:02:51Z</time>
      </trkpt>
      <trkpt lat="43.08035" lon="0.36103">
        <ele>631.2</ele>
        <time>2020-06-30T12:02:52Z</time>
      </trkpt>
      <trkpt lat="43.08036" lon="0.361">
        <ele>631.4</ele>
        <time>2020-06-30T12:02:53Z</time>
      </trkpt>
      <trkpt lat="43.08038" lon="0.36099">
        <ele>631.6</ele>
        <time>2020-06-30T12:02:54Z</time>
      </trkpt>
      <trkpt lat="43.0804" lon="0.36097">
        <ele>631.8</ele>
        <time>2020-06-30T12:02:55Z</time>
      </trkpt>
      <trkpt lat="43.08044" lon="0.36096">
        <ele>632</ele>
        <time>2020-06-30T12:02:56Z</time>
      </trkpt>
      <trkpt lat="43.08046" lon="0.36093">
        <ele>632.2</ele>
        <time>2020-06-30T12:02:57Z</time>
      </trkpt>
      <trkpt lat="43.08046" lon="0.36087">
        <ele>632.4</ele>
        <time>2020-06-30T12:02:58Z</time>
      </trkpt>
      <trkpt lat="43.08046" lon="0.36087">
        <ele>632.6</ele>
        <time>2020-06-30T12:02:59Z</time>
      </trkpt>
      <trkpt lat="43.0805" lon="0.36081">
        <ele>633</ele>
        <time>2020-06-30T12:03:00Z</time>
      </trkpt>
      <trkpt lat="43.08052" lon="0.36081">
        <ele>633</ele>
        <time>2020-06-30T12:03:01Z</time>
      </trkpt>
      <trkpt lat="43.08052" lon="0.36078">
        <ele>633</ele>
        <time>2020-06-30T12:03:02Z</time>
      </trkpt>
      <trkpt lat="43.08054" lon="0.36077">
        <ele>633.2</ele>
        <time>2020-06-30T12:03:03Z</time>
      </trkpt>
      <trkpt lat="43.08055" lon="0.36074">
        <ele>633.4</ele>
        <time>2020-06-30T12:03:04Z</time>
      </trkpt>
      <trkpt lat="43.08058" lon="0.3607">
        <ele>633.6</ele>
        <time>2020-06-30T12:03:05Z</time>
      </trkpt>
      <trkpt lat="43.0806" lon="0.36068">
        <ele>633.8</ele>
        <time>2020-06-30T12:03:06Z</time>
      </trkpt>
      <trkpt lat="43.08061" lon="0.36064">
        <ele>633.8</ele>
        <time>2020-06-30T12:03:07Z</time>
      </trkpt>
      <trkpt lat="43.08063" lon="0.36062">
        <ele>634</ele>
        <time>2020-06-30T12:03:08Z</time>
      </trkpt>
      <trkpt lat="43.08065" lon="0.3606">
        <ele>634.2</ele>
        <time>2020-06-30T12:03:09Z</time>
      </trkpt>
      <trkpt lat="43.08065" lon="0.36057">
        <ele>634.2</ele>
        <time>2020-06-30T12:03:10Z</time>
      </trkpt>
      <trkpt lat="43.08066" lon="0.36054">
        <ele>634.2</ele>
        <time>2020-06-30T12:03:11Z</time>
      </trkpt>
      <trkpt lat="43.08068" lon="0.36051">
        <ele>634.2</ele>
        <time>2020-06-30T12:03:12Z</time>
      </trkpt>
      <trkpt lat="43.08069" lon="0.36047">
        <ele>634.4</ele>
        <time>2020-06-30T12:03:13Z</time>
      </trkpt>
      <trkpt lat="43.0807" lon="0.36044">
        <ele>634.4</ele>
        <time>2020-06-30T12:03:14Z</time>
      </trkpt>
      <trkpt lat="43.0807" lon="0.3604">
        <ele>634.4</ele>
        <time>2020-06-30T12:03:15Z</time>
      </trkpt>
      <trkpt lat="43.08072" lon="0.36036">
        <ele>634.6</ele>
        <time>2020-06-30T12:03:16Z</time>
      </trkpt>
      <trkpt lat="43.08074" lon="0.36033">
        <ele>634.6</ele>
        <time>2020-06-30T12:03:17Z</time>
      </trkpt>
      <trkpt lat="43.08075" lon="0.36031">
        <ele>634.6</ele>
        <time>2020-06-30T12:03:18Z</time>
      </trkpt>
      <trkpt lat="43.08076" lon="0.36028">
        <ele>634.6</ele>
        <time>2020-06-30T12:03:19Z</time>
      </trkpt>
      <trkpt lat="43.08079" lon="0.36026">
        <ele>634.8</ele>
        <time>2020-06-30T12:03:20Z</time>
      </trkpt>
      <trkpt lat="43.08079" lon="0.36022">
        <ele>634.8</ele>
        <time>2020-06-30T12:03:21Z</time>
      </trkpt>
      <trkpt lat="43.0808" lon="0.36018">
        <ele>634.8</ele>
        <time>2020-06-30T12:03:22Z</time>
      </trkpt>
      <trkpt lat="43.08081" lon="0.36015">
        <ele>635</ele>
        <time>2020-06-30T12:03:23Z</time>
      </trkpt>
      <trkpt lat="43.08082" lon="0.36011">
        <ele>635</ele>
        <time>2020-06-30T12:03:24Z</time>
      </trkpt>
      <trkpt lat="43.08082" lon="0.36011">
        <ele>635</ele>
        <time>2020-06-30T12:03:25Z</time>
      </trkpt>
      <trkpt lat="43.08082" lon="0.36">
        <ele>635</ele>
        <time>2020-06-30T12:03:26Z</time>
      </trkpt>
      <trkpt lat="43.08082" lon="0.35995">
        <ele>635.2</ele>
        <time>2020-06-30T12:03:27Z</time>
      </trkpt>
      <trkpt lat="43.08082" lon="0.35995">
        <ele>635.2</ele>
        <time>2020-06-30T12:03:28Z</time>
      </trkpt>
      <trkpt lat="43.08082" lon="0.35984">
        <ele>635.2</ele>
        <time>2020-06-30T12:03:29Z</time>
      </trkpt>
      <trkpt lat="43.08082" lon="0.3598">
        <ele>635.4</ele>
        <time>2020-06-30T12:03:30Z</time>
      </trkpt>
      <trkpt lat="43.08082" lon="0.35976">
        <ele>635.4</ele>
        <time>2020-06-30T12:03:31Z</time>
      </trkpt>
      <trkpt lat="43.08082" lon="0.35973">
        <ele>635.4</ele>
        <time>2020-06-30T12:03:32Z</time>
      </trkpt>
      <trkpt lat="43.08082" lon="0.3597">
        <ele>635.6</ele>
        <time>2020-06-30T12:03:33Z</time>
      </trkpt>
      <trkpt lat="43.08081" lon="0.35967">
        <ele>635.6</ele>
        <time>2020-06-30T12:03:34Z</time>
      </trkpt>
      <trkpt lat="43.08081" lon="0.35962">
        <ele>635.6</ele>
        <time>2020-06-30T12:03:35Z</time>
      </trkpt>
      <trkpt lat="43.0808" lon="0.35959">
        <ele>635.6</ele>
        <time>2020-06-30T12:03:36Z</time>
      </trkpt>
      <trkpt lat="43.0808" lon="0.35955">
        <ele>635.8</ele>
        <time>2020-06-30T12:03:37Z</time>
      </trkpt>
      <trkpt lat="43.08078" lon="0.3595">
        <ele>635.8</ele>
        <time>2020-06-30T12:03:38Z</time>
      </trkpt>
      <trkpt lat="43.08078" lon="0.35947">
        <ele>635.8</ele>
        <time>2020-06-30T12:03:39Z</time>
      </trkpt>
      <trkpt lat="43.08077" lon="0.35944">
        <ele>635.8</ele>
        <time>2020-06-30T12:03:40Z</time>
      </trkpt>
      <trkpt lat="43.08075" lon="0.35941">
        <ele>636.4</ele>
        <time>2020-06-30T12:03:41Z</time>
      </trkpt>
      <trkpt lat="43.08075" lon="0.35937">
        <ele>636.4</ele>
        <time>2020-06-30T12:03:42Z</time>
      </trkpt>
      <trkpt lat="43.08074" lon="0.35934">
        <ele>636</ele>
        <time>2020-06-30T12:03:43Z</time>
      </trkpt>
      <trkpt lat="43.08072" lon="0.3593">
        <ele>636.2</ele>
        <time>2020-06-30T12:03:44Z</time>
      </trkpt>
      <trkpt lat="43.0807" lon="0.35926">
        <ele>636.4</ele>
        <time>2020-06-30T12:03:45Z</time>
      </trkpt>
      <trkpt lat="43.08069" lon="0.35923">
        <ele>636.6</ele>
        <time>2020-06-30T12:03:46Z</time>
      </trkpt>
      <trkpt lat="43.08069" lon="0.35923">
        <ele>636.6</ele>
        <time>2020-06-30T12:03:47Z</time>
      </trkpt>
      <trkpt lat="43.08067" lon="0.35916">
        <ele>636.6</ele>
        <time>2020-06-30T12:03:48Z</time>
      </trkpt>
      <trkpt lat="43.08064" lon="0.35912">
        <ele>636.8</ele>
        <time>2020-06-30T12:03:49Z</time>
      </trkpt>
      <trkpt lat="43.08062" lon="0.35908">
        <ele>636.8</ele>
        <time>2020-06-30T12:03:50Z</time>
      </trkpt>
      <trkpt lat="43.0806" lon="0.35903">
        <ele>636.8</ele>
        <time>2020-06-30T12:03:51Z</time>
      </trkpt>
      <trkpt lat="43.0806" lon="0.35903">
        <ele>636.8</ele>
        <time>2020-06-30T12:03:52Z</time>
      </trkpt>
      <trkpt lat="43.08058" lon="0.35897">
        <ele>636.8</ele>
        <time>2020-06-30T12:03:53Z</time>
      </trkpt>
      <trkpt lat="43.08057" lon="0.35893">
        <ele>637</ele>
        <time>2020-06-30T12:03:54Z</time>
      </trkpt>
      <trkpt lat="43.08055" lon="0.3589">
        <ele>637</ele>
        <time>2020-06-30T12:03:55Z</time>
      </trkpt>
      <trkpt lat="43.08052" lon="0.35886">
        <ele>637</ele>
        <time>2020-06-30T12:03:56Z</time>
      </trkpt>
      <trkpt lat="43.08052" lon="0.35886">
        <ele>637.2</ele>
        <time>2020-06-30T12:03:57Z</time>
      </trkpt>
      <trkpt lat="43.08048" lon="0.3588">
        <ele>637.2</ele>
        <time>2020-06-30T12:03:58Z</time>
      </trkpt>
      <trkpt lat="43.08047" lon="0.35878">
        <ele>637.2</ele>
        <time>2020-06-30T12:03:59Z</time>
      </trkpt>
      <trkpt lat="43.08047" lon="0.35875">
        <ele>637.4</ele>
        <time>2020-06-30T12:04:00Z</time>
      </trkpt>
      <trkpt lat="43.08045" lon="0.35871">
        <ele>637.4</ele>
        <time>2020-06-30T12:04:01Z</time>
      </trkpt>
      <trkpt lat="43.08043" lon="0.35867">
        <ele>637.4</ele>
        <time>2020-06-30T12:04:02Z</time>
      </trkpt>
      <trkpt lat="43.08042" lon="0.35864">
        <ele>637.4</ele>
        <time>2020-06-30T12:04:03Z</time>
      </trkpt>
      <trkpt lat="43.08039" lon="0.3586">
        <ele>637.4</ele>
        <time>2020-06-30T12:04:04Z</time>
      </trkpt>
      <trkpt lat="43.08038" lon="0.35856">
        <ele>637.4</ele>
        <time>2020-06-30T12:04:05Z</time>
      </trkpt>
      <trkpt lat="43.08036" lon="0.35852">
        <ele>637.4</ele>
        <time>2020-06-30T12:04:06Z</time>
      </trkpt>
      <trkpt lat="43.08034" lon="0.35848">
        <ele>637.6</ele>
        <time>2020-06-30T12:04:07Z</time>
      </trkpt>
      <trkpt lat="43.08033" lon="0.35844">
        <ele>637.6</ele>
        <time>2020-06-30T12:04:08Z</time>
      </trkpt>
      <trkpt lat="43.08032" lon="0.35841">
        <ele>637.6</ele>
        <time>2020-06-30T12:04:09Z</time>
      </trkpt>
      <trkpt lat="43.08031" lon="0.35837">
        <ele>637.8</ele>
        <time>2020-06-30T12:04:10Z</time>
      </trkpt>
      <trkpt lat="43.0803" lon="0.35834">
        <ele>637.8</ele>
        <time>2020-06-30T12:04:11Z</time>
      </trkpt>
      <trkpt lat="43.08029" lon="0.3583">
        <ele>637.8</ele>
        <time>2020-06-30T12:04:12Z</time>
      </trkpt>
      <trkpt lat="43.08028" lon="0.35827">
        <ele>637.8</ele>
        <time>2020-06-30T12:04:13Z</time>
      </trkpt>
      <trkpt lat="43.08027" lon="0.35823">
        <ele>638</ele>
        <time>2020-06-30T12:04:14Z</time>
      </trkpt>
      <trkpt lat="43.08026" lon="0.3582">
        <ele>638</ele>
        <time>2020-06-30T12:04:15Z</time>
      </trkpt>
      <trkpt lat="43.08026" lon="0.35816">
        <ele>638.2</ele>
        <time>2020-06-30T12:04:16Z</time>
      </trkpt>
      <trkpt lat="43.08025" lon="0.35812">
        <ele>638.2</ele>
        <time>2020-06-30T12:04:17Z</time>
      </trkpt>
      <trkpt lat="43.08024" lon="0.35808">
        <ele>638.2</ele>
        <time>2020-06-30T12:04:18Z</time>
      </trkpt>
      <trkpt lat="43.08024" lon="0.35808">
        <ele>638.4</ele>
        <time>2020-06-30T12:04:19Z</time>
      </trkpt>
      <trkpt lat="43.08022" lon="0.35802">
        <ele>638.4</ele>
        <time>2020-06-30T12:04:20Z</time>
      </trkpt>
      <trkpt lat="43.08022" lon="0.35799">
        <ele>638.6</ele>
        <time>2020-06-30T12:04:21Z</time>
      </trkpt>
      <trkpt lat="43.08022" lon="0.35799">
        <ele>638.6</ele>
        <time>2020-06-30T12:04:22Z</time>
      </trkpt>
      <trkpt lat="43.08022" lon="0.35792">
        <ele>638.8</ele>
        <time>2020-06-30T12:04:23Z</time>
      </trkpt>
      <trkpt lat="43.08021" lon="0.35788">
        <ele>638.8</ele>
        <time>2020-06-30T12:04:24Z</time>
      </trkpt>
      <trkpt lat="43.08021" lon="0.35788">
        <ele>638.8</ele>
        <time>2020-06-30T12:04:25Z</time>
      </trkpt>
      <trkpt lat="43.08022" lon="0.35782">
        <ele>638.8</ele>
        <time>2020-06-30T12:04:26Z</time>
      </trkpt>
      <trkpt lat="43.08022" lon="0.35778">
        <ele>639</ele>
        <time>2020-06-30T12:04:27Z</time>
      </trkpt>
      <trkpt lat="43.08022" lon="0.35774">
        <ele>639.2</ele>
        <time>2020-06-30T12:04:28Z</time>
      </trkpt>
      <trkpt lat="43.08022" lon="0.3577">
        <ele>639.2</ele>
        <time>2020-06-30T12:04:29Z</time>
      </trkpt>
      <trkpt lat="43.08022" lon="0.35766">
        <ele>639.4</ele>
        <time>2020-06-30T12:04:30Z</time>
      </trkpt>
      <trkpt lat="43.08023" lon="0.35762">
        <ele>639.4</ele>
        <time>2020-06-30T12:04:31Z</time>
      </trkpt>
      <trkpt lat="43.08023" lon="0.35759">
        <ele>639.4</ele>
        <time>2020-06-30T12:04:32Z</time>
      </trkpt>
      <trkpt lat="43.08023" lon="0.35755">
        <ele>639.6</ele>
        <time>2020-06-30T12:04:33Z</time>
      </trkpt>
      <trkpt lat="43.08022" lon="0.35751">
        <ele>639.6</ele>
        <time>2020-06-30T12:04:34Z</time>
      </trkpt>
      <trkpt lat="43.08022" lon="0.35747">
        <ele>639.6</ele>
        <time>2020-06-30T12:04:35Z</time>
      </trkpt>
      <trkpt lat="43.08022" lon="0.35743">
        <ele>639.8</ele>
        <time>2020-06-30T12:04:36Z</time>
      </trkpt>
      <trkpt lat="43.08022" lon="0.3574">
        <ele>639.8</ele>
        <time>2020-06-30T12:04:37Z</time>
      </trkpt>
      <trkpt lat="43.08022" lon="0.35736">
        <ele>640</ele>
        <time>2020-06-30T12:04:38Z</time>
      </trkpt>
      <trkpt lat="43.08022" lon="0.35733">
        <ele>640</ele>
        <time>2020-06-30T12:04:39Z</time>
      </trkpt>
      <trkpt lat="43.08023" lon="0.35731">
        <ele>640.2</ele>
        <time>2020-06-30T12:04:40Z</time>
      </trkpt>
      <trkpt lat="43.08024" lon="0.35729">
        <ele>640.2</ele>
        <time>2020-06-30T12:04:41Z</time>
      </trkpt>
      <trkpt lat="43.08025" lon="0.35727">
        <ele>640.2</ele>
        <time>2020-06-30T12:04:42Z</time>
      </trkpt>
      <trkpt lat="43.08025" lon="0.35724">
        <ele>640.2</ele>
        <time>2020-06-30T12:04:43Z</time>
      </trkpt>
      <trkpt lat="43.08025" lon="0.35722">
        <ele>640.4</ele>
        <time>2020-06-30T12:04:44Z</time>
      </trkpt>
      <trkpt lat="43.08025" lon="0.3572">
        <ele>640.4</ele>
        <time>2020-06-30T12:04:45Z</time>
      </trkpt>
      <trkpt lat="43.08025" lon="0.35719">
        <ele>640.4</ele>
        <time>2020-06-30T12:04:46Z</time>
      </trkpt>
      <trkpt lat="43.08025" lon="0.35717">
        <ele>640.4</ele>
        <time>2020-06-30T12:04:47Z</time>
      </trkpt>
      <trkpt lat="43.08025" lon="0.35716">
        <ele>640.4</ele>
        <time>2020-06-30T12:04:48Z</time>
      </trkpt>
      <trkpt lat="43.08025" lon="0.35714">
        <ele>640.4</ele>
        <time>2020-06-30T12:04:49Z</time>
      </trkpt>
      <trkpt lat="43.08026" lon="0.35714">
        <ele>640.4</ele>
        <time>2020-06-30T12:04:50Z</time>
      </trkpt>
      <trkpt lat="43.08028" lon="0.35712">
        <ele>640.4</ele>
        <time>2020-06-30T12:04:51Z</time>
      </trkpt>
      <trkpt lat="43.08028" lon="0.3571">
        <ele>640.4</ele>
        <time>2020-06-30T12:04:52Z</time>
      </trkpt>
      <trkpt lat="43.08029" lon="0.35708">
        <ele>640.4</ele>
        <time>2020-06-30T12:04:53Z</time>
      </trkpt>
      <trkpt lat="43.08029" lon="0.35706">
        <ele>640.4</ele>
        <time>2020-06-30T12:04:54Z</time>
      </trkpt>
      <trkpt lat="43.08028" lon="0.35705">
        <ele>640.4</ele>
        <time>2020-06-30T12:04:55Z</time>
      </trkpt>
      <trkpt lat="43.08028" lon="0.35704">
        <ele>640.6</ele>
        <time>2020-06-30T12:04:56Z</time>
      </trkpt>
      <trkpt lat="43.08027" lon="0.35704">
        <ele>640.6</ele>
        <time>2020-06-30T12:04:57Z</time>
      </trkpt>
      <trkpt lat="43.08026" lon="0.35704">
        <ele>640.6</ele>
        <time>2020-06-30T12:04:58Z</time>
      </trkpt>
      <trkpt lat="43.08026" lon="0.35704">
        <ele>640.6</ele>
        <time>2020-06-30T12:04:59Z</time>
      </trkpt>
      <trkpt lat="43.08026" lon="0.35703">
        <ele>640.8</ele>
        <time>2020-06-30T12:05:00Z</time>
      </trkpt>
      <trkpt lat="43.08025" lon="0.35703">
        <ele>640.6</ele>
        <time>2020-06-30T12:05:01Z</time>
      </trkpt>
      <trkpt lat="43.08026" lon="0.35703">
        <ele>640.6</ele>
        <time>2020-06-30T12:05:02Z</time>
      </trkpt>
      <trkpt lat="43.08025" lon="0.35703">
        <ele>640.6</ele>
        <time>2020-06-30T12:05:03Z</time>
      </trkpt>
      <trkpt lat="43.08026" lon="0.35703">
        <ele>640.6</ele>
        <time>2020-06-30T12:05:04Z</time>
      </trkpt>
      <trkpt lat="43.08026" lon="0.35704">
        <ele>640.6</ele>
        <time>2020-06-30T12:05:05Z</time>
      </trkpt>
      <trkpt lat="43.08026" lon="0.35703">
        <ele>640.6</ele>
        <time>2020-06-30T12:05:06Z</time>
      </trkpt>
      <trkpt lat="43.08026" lon="0.35703">
        <ele>640.6</ele>
        <time>2020-06-30T12:05:07Z</time>
      </trkpt>
      <trkpt lat="43.08026" lon="0.35703">
        <ele>640.6</ele>
        <time>2020-06-30T12:05:08Z</time>
      </trkpt>
      <trkpt lat="43.08026" lon="0.35704">
        <ele>640.6</ele>
        <time>2020-06-30T12:05:09Z</time>
      </trkpt>
      <trkpt lat="43.08025" lon="0.357">
        <ele>640.8</ele>
        <time>2020-06-30T12:05:29Z</time>
      </trkpt>
      <trkpt lat="43.08024" lon="0.35699">
        <ele>640.8</ele>
        <time>2020-06-30T12:05:30Z</time>
      </trkpt>
      <trkpt lat="43.08023" lon="0.35696">
        <ele>640.8</ele>
        <time>2020-06-30T12:05:31Z</time>
      </trkpt>
      <trkpt lat="43.08023" lon="0.35693">
        <ele>640.8</ele>
        <time>2020-06-30T12:05:32Z</time>
      </trkpt>
      <trkpt lat="43.08023" lon="0.35689">
        <ele>640.8</ele>
        <time>2020-06-30T12:05:33Z</time>
      </trkpt>
      <trkpt lat="43.08023" lon="0.35686">
        <ele>641</ele>
        <time>2020-06-30T12:05:34Z</time>
      </trkpt>
      <trkpt lat="43.08023" lon="0.35682">
        <ele>641</ele>
        <time>2020-06-30T12:05:35Z</time>
      </trkpt>
      <trkpt lat="43.08023" lon="0.35682">
        <ele>641.2</ele>
        <time>2020-06-30T12:05:36Z</time>
      </trkpt>
      <trkpt lat="43.08022" lon="0.35675">
        <ele>641.2</ele>
        <time>2020-06-30T12:05:37Z</time>
      </trkpt>
      <trkpt lat="43.08022" lon="0.3567">
        <ele>641.4</ele>
        <time>2020-06-30T12:05:38Z</time>
      </trkpt>
      <trkpt lat="43.08023" lon="0.35666">
        <ele>641.4</ele>
        <time>2020-06-30T12:05:39Z</time>
      </trkpt>
      <trkpt lat="43.08023" lon="0.35666">
        <ele>641.6</ele>
        <time>2020-06-30T12:05:40Z</time>
      </trkpt>
      <trkpt lat="43.08023" lon="0.35659">
        <ele>641.6</ele>
        <time>2020-06-30T12:05:41Z</time>
      </trkpt>
      <trkpt lat="43.08024" lon="0.35655">
        <ele>641.8</ele>
        <time>2020-06-30T12:05:42Z</time>
      </trkpt>
      <trkpt lat="43.08023" lon="0.3565">
        <ele>642</ele>
        <time>2020-06-30T12:05:43Z</time>
      </trkpt>
      <trkpt lat="43.08023" lon="0.35645">
        <ele>642</ele>
        <time>2020-06-30T12:05:44Z</time>
      </trkpt>
      <trkpt lat="43.08024" lon="0.35642">
        <ele>642</ele>
        <time>2020-06-30T12:05:45Z</time>
      </trkpt>
      <trkpt lat="43.08024" lon="0.35639">
        <ele>642.2</ele>
        <time>2020-06-30T12:05:46Z</time>
      </trkpt>
      <trkpt lat="43.08024" lon="0.35634">
        <ele>642.2</ele>
        <time>2020-06-30T12:05:47Z</time>
      </trkpt>
      <trkpt lat="43.08024" lon="0.3563">
        <ele>642.2</ele>
        <time>2020-06-30T12:05:48Z</time>
      </trkpt>
      <trkpt lat="43.08024" lon="0.35625">
        <ele>642.4</ele>
        <time>2020-06-30T12:05:49Z</time>
      </trkpt>
      <trkpt lat="43.08024" lon="0.35621">
        <ele>642.6</ele>
        <time>2020-06-30T12:05:50Z</time>
      </trkpt>
      <trkpt lat="43.08024" lon="0.35616">
        <ele>642.6</ele>
        <time>2020-06-30T12:05:51Z</time>
      </trkpt>
      <trkpt lat="43.08023" lon="0.35611">
        <ele>642.6</ele>
        <time>2020-06-30T12:05:52Z</time>
      </trkpt>
      <trkpt lat="43.08023" lon="0.35607">
        <ele>642.8</ele>
        <time>2020-06-30T12:05:53Z</time>
      </trkpt>
      <trkpt lat="43.08023" lon="0.35602">
        <ele>642.8</ele>
        <time>2020-06-30T12:05:54Z</time>
      </trkpt>
      <trkpt lat="43.08023" lon="0.35598">
        <ele>642.8</ele>
        <time>2020-06-30T12:05:55Z</time>
      </trkpt>
      <trkpt lat="43.08022" lon="0.35593">
        <ele>643</ele>
        <time>2020-06-30T12:05:56Z</time>
      </trkpt>
      <trkpt lat="43.08023" lon="0.35589">
        <ele>643</ele>
        <time>2020-06-30T12:05:57Z</time>
      </trkpt>
      <trkpt lat="43.08023" lon="0.35584">
        <ele>643.2</ele>
        <time>2020-06-30T12:05:58Z</time>
      </trkpt>
      <trkpt lat="43.08023" lon="0.35579">
        <ele>643.2</ele>
        <time>2020-06-30T12:05:59Z</time>
      </trkpt>
      <trkpt lat="43.08023" lon="0.35575">
        <ele>643.4</ele>
        <time>2020-06-30T12:06:00Z</time>
      </trkpt>
      <trkpt lat="43.08023" lon="0.35575">
        <ele>643.4</ele>
        <time>2020-06-30T12:06:01Z</time>
      </trkpt>
      <trkpt lat="43.08023" lon="0.35566">
        <ele>643.6</ele>
        <time>2020-06-30T12:06:02Z</time>
      </trkpt>
      <trkpt lat="43.08023" lon="0.35563">
        <ele>643.6</ele>
        <time>2020-06-30T12:06:03Z</time>
      </trkpt>
      <trkpt lat="43.08023" lon="0.35557">
        <ele>643.6</ele>
        <time>2020-06-30T12:06:04Z</time>
      </trkpt>
      <trkpt lat="43.08023" lon="0.35557">
        <ele>643.8</ele>
        <time>2020-06-30T12:06:05Z</time>
      </trkpt>
      <trkpt lat="43.08023" lon="0.35549">
        <ele>643.8</ele>
        <time>2020-06-30T12:06:06Z</time>
      </trkpt>
      <trkpt lat="43.08024" lon="0.35545">
        <ele>643.8</ele>
        <time>2020-06-30T12:06:07Z</time>
      </trkpt>
      <trkpt lat="43.08024" lon="0.35542">
        <ele>644</ele>
        <time>2020-06-30T12:06:08Z</time>
      </trkpt>
      <trkpt lat="43.08024" lon="0.35538">
        <ele>644</ele>
        <time>2020-06-30T12:06:09Z</time>
      </trkpt>
      <trkpt lat="43.08025" lon="0.35534">
        <ele>644</ele>
        <time>2020-06-30T12:06:10Z</time>
      </trkpt>
      <trkpt lat="43.08026" lon="0.3553">
        <ele>644.2</ele>
        <time>2020-06-30T12:06:11Z</time>
      </trkpt>
      <trkpt lat="43.08025" lon="0.35525">
        <ele>644.2</ele>
        <time>2020-06-30T12:06:12Z</time>
      </trkpt>
      <trkpt lat="43.08026" lon="0.3552">
        <ele>644.4</ele>
        <time>2020-06-30T12:06:13Z</time>
      </trkpt>
      <trkpt lat="43.08026" lon="0.35516">
        <ele>644.4</ele>
        <time>2020-06-30T12:06:14Z</time>
      </trkpt>
      <trkpt lat="43.08027" lon="0.35512">
        <ele>644.4</ele>
        <time>2020-06-30T12:06:15Z</time>
      </trkpt>
      <trkpt lat="43.08027" lon="0.35507">
        <ele>644.4</ele>
        <time>2020-06-30T12:06:16Z</time>
      </trkpt>
      <trkpt lat="43.08027" lon="0.35503">
        <ele>644.4</ele>
        <time>2020-06-30T12:06:17Z</time>
      </trkpt>
      <trkpt lat="43.08027" lon="0.35499">
        <ele>644.4</ele>
        <time>2020-06-30T12:06:18Z</time>
      </trkpt>
      <trkpt lat="43.08027" lon="0.35494">
        <ele>644.6</ele>
        <time>2020-06-30T12:06:19Z</time>
      </trkpt>
      <trkpt lat="43.08028" lon="0.3549">
        <ele>644.6</ele>
        <time>2020-06-30T12:06:20Z</time>
      </trkpt>
      <trkpt lat="43.08028" lon="0.3549">
        <ele>644.6</ele>
        <time>2020-06-30T12:06:21Z</time>
      </trkpt>
      <trkpt lat="43.0803" lon="0.35479">
        <ele>644.6</ele>
        <time>2020-06-30T12:06:22Z</time>
      </trkpt>
      <trkpt lat="43.0803" lon="0.35474">
        <ele>644.6</ele>
        <time>2020-06-30T12:06:23Z</time>
      </trkpt>
      <trkpt lat="43.08031" lon="0.35469">
        <ele>644.8</ele>
        <time>2020-06-30T12:06:24Z</time>
      </trkpt>
      <trkpt lat="43.08032" lon="0.35465">
        <ele>644.6</ele>
        <time>2020-06-30T12:06:25Z</time>
      </trkpt>
      <trkpt lat="43.08033" lon="0.3546">
        <ele>644.8</ele>
        <time>2020-06-30T12:06:26Z</time>
      </trkpt>
      <trkpt lat="43.08033" lon="0.35455">
        <ele>644.8</ele>
        <time>2020-06-30T12:06:27Z</time>
      </trkpt>
      <trkpt lat="43.08033" lon="0.35455">
        <ele>644.8</ele>
        <time>2020-06-30T12:06:28Z</time>
      </trkpt>
      <trkpt lat="43.08035" lon="0.35446">
        <ele>644.8</ele>
        <time>2020-06-30T12:06:29Z</time>
      </trkpt>
      <trkpt lat="43.08036" lon="0.35442">
        <ele>644.8</ele>
        <time>2020-06-30T12:06:30Z</time>
      </trkpt>
      <trkpt lat="43.08037" lon="0.35437">
        <ele>645</ele>
        <time>2020-06-30T12:06:31Z</time>
      </trkpt>
      <trkpt lat="43.08039" lon="0.35432">
        <ele>644.8</ele>
        <time>2020-06-30T12:06:32Z</time>
      </trkpt>
      <trkpt lat="43.0804" lon="0.35427">
        <ele>645</ele>
        <time>2020-06-30T12:06:33Z</time>
      </trkpt>
      <trkpt lat="43.08041" lon="0.35422">
        <ele>645</ele>
        <time>2020-06-30T12:06:34Z</time>
      </trkpt>
      <trkpt lat="43.08042" lon="0.35416">
        <ele>645.2</ele>
        <time>2020-06-30T12:06:35Z</time>
      </trkpt>
      <trkpt lat="43.08043" lon="0.35412">
        <ele>645.2</ele>
        <time>2020-06-30T12:06:36Z</time>
      </trkpt>
      <trkpt lat="43.08045" lon="0.35406">
        <ele>645.2</ele>
        <time>2020-06-30T12:06:37Z</time>
      </trkpt>
      <trkpt lat="43.08046" lon="0.35401">
        <ele>645.2</ele>
        <time>2020-06-30T12:06:38Z</time>
      </trkpt>
      <trkpt lat="43.08047" lon="0.35395">
        <ele>645.2</ele>
        <time>2020-06-30T12:06:39Z</time>
      </trkpt>
      <trkpt lat="43.08049" lon="0.3539">
        <ele>645.2</ele>
        <time>2020-06-30T12:06:40Z</time>
      </trkpt>
      <trkpt lat="43.0805" lon="0.35385">
        <ele>645.2</ele>
        <time>2020-06-30T12:06:41Z</time>
      </trkpt>
      <trkpt lat="43.08051" lon="0.35381">
        <ele>645.2</ele>
        <time>2020-06-30T12:06:42Z</time>
      </trkpt>
      <trkpt lat="43.08054" lon="0.35376">
        <ele>645.2</ele>
        <time>2020-06-30T12:06:43Z</time>
      </trkpt>
      <trkpt lat="43.08055" lon="0.35372">
        <ele>645.4</ele>
        <time>2020-06-30T12:06:44Z</time>
      </trkpt>
      <trkpt lat="43.08057" lon="0.35367">
        <ele>645.2</ele>
        <time>2020-06-30T12:06:45Z</time>
      </trkpt>
      <trkpt lat="43.08057" lon="0.35367">
        <ele>645.2</ele>
        <time>2020-06-30T12:06:46Z</time>
      </trkpt>
      <trkpt lat="43.08061" lon="0.35357">
        <ele>645.2</ele>
        <time>2020-06-30T12:06:47Z</time>
      </trkpt>
      <trkpt lat="43.08063" lon="0.35352">
        <ele>645.2</ele>
        <time>2020-06-30T12:06:48Z</time>
      </trkpt>
      <trkpt lat="43.08065" lon="0.35348">
        <ele>645</ele>
        <time>2020-06-30T12:06:49Z</time>
      </trkpt>
      <trkpt lat="43.08067" lon="0.35343">
        <ele>645.2</ele>
        <time>2020-06-30T12:06:50Z</time>
      </trkpt>
      <trkpt lat="43.08068" lon="0.35338">
        <ele>645.2</ele>
        <time>2020-06-30T12:06:51Z</time>
      </trkpt>
      <trkpt lat="43.08071" lon="0.35332">
        <ele>645</ele>
        <time>2020-06-30T12:06:52Z</time>
      </trkpt>
      <trkpt lat="43.08073" lon="0.35326">
        <ele>644.8</ele>
        <time>2020-06-30T12:06:53Z</time>
      </trkpt>
      <trkpt lat="43.08075" lon="0.3532">
        <ele>644.8</ele>
        <time>2020-06-30T12:06:54Z</time>
      </trkpt>
      <trkpt lat="43.08079" lon="0.35314">
        <ele>644.8</ele>
        <time>2020-06-30T12:06:55Z</time>
      </trkpt>
      <trkpt lat="43.08081" lon="0.35308">
        <ele>644.6</ele>
        <time>2020-06-30T12:06:56Z</time>
      </trkpt>
      <trkpt lat="43.08084" lon="0.35302">
        <ele>644.6</ele>
        <time>2020-06-30T12:06:57Z</time>
      </trkpt>
      <trkpt lat="43.08087" lon="0.35295">
        <ele>644.4</ele>
        <time>2020-06-30T12:06:58Z</time>
      </trkpt>
      <trkpt lat="43.0809" lon="0.35288">
        <ele>644.4</ele>
        <time>2020-06-30T12:06:59Z</time>
      </trkpt>
      <trkpt lat="43.08092" lon="0.35282">
        <ele>644.2</ele>
        <time>2020-06-30T12:07:00Z</time>
      </trkpt>
      <trkpt lat="43.08095" lon="0.35276">
        <ele>644.2</ele>
        <time>2020-06-30T12:07:01Z</time>
      </trkpt>
      <trkpt lat="43.08099" lon="0.35269">
        <ele>644.2</ele>
        <time>2020-06-30T12:07:02Z</time>
      </trkpt>
      <trkpt lat="43.08102" lon="0.35262">
        <ele>644</ele>
        <time>2020-06-30T12:07:03Z</time>
      </trkpt>
      <trkpt lat="43.08105" lon="0.35255">
        <ele>644</ele>
        <time>2020-06-30T12:07:04Z</time>
      </trkpt>
      <trkpt lat="43.08109" lon="0.35247">
        <ele>644</ele>
        <time>2020-06-30T12:07:05Z</time>
      </trkpt>
      <trkpt lat="43.08112" lon="0.35239">
        <ele>643.8</ele>
        <time>2020-06-30T12:07:06Z</time>
      </trkpt>
      <trkpt lat="43.08115" lon="0.35232">
        <ele>643.6</ele>
        <time>2020-06-30T12:07:07Z</time>
      </trkpt>
      <trkpt lat="43.08118" lon="0.35225">
        <ele>643.4</ele>
        <time>2020-06-30T12:07:08Z</time>
      </trkpt>
      <trkpt lat="43.08121" lon="0.35218">
        <ele>643.2</ele>
        <time>2020-06-30T12:07:09Z</time>
      </trkpt>
      <trkpt lat="43.08124" lon="0.35209">
        <ele>643.2</ele>
        <time>2020-06-30T12:07:10Z</time>
      </trkpt>
      <trkpt lat="43.08124" lon="0.35209">
        <ele>643.2</ele>
        <time>2020-06-30T12:07:11Z</time>
      </trkpt>
      <trkpt lat="43.08132" lon="0.35195">
        <ele>643</ele>
        <time>2020-06-30T12:07:12Z</time>
      </trkpt>
      <trkpt lat="43.08135" lon="0.35188">
        <ele>642.8</ele>
        <time>2020-06-30T12:07:13Z</time>
      </trkpt>
      <trkpt lat="43.08138" lon="0.3518">
        <ele>642.6</ele>
        <time>2020-06-30T12:07:14Z</time>
      </trkpt>
      <trkpt lat="43.08138" lon="0.3518">
        <ele>642.4</ele>
        <time>2020-06-30T12:07:15Z</time>
      </trkpt>
      <trkpt lat="43.08144" lon="0.35165">
        <ele>642.4</ele>
        <time>2020-06-30T12:07:16Z</time>
      </trkpt>
      <trkpt lat="43.08147" lon="0.35157">
        <ele>642.2</ele>
        <time>2020-06-30T12:07:17Z</time>
      </trkpt>
      <trkpt lat="43.08151" lon="0.3515">
        <ele>642</ele>
        <time>2020-06-30T12:07:18Z</time>
      </trkpt>
      <trkpt lat="43.08153" lon="0.35142">
        <ele>642</ele>
        <time>2020-06-30T12:07:19Z</time>
      </trkpt>
      <trkpt lat="43.08156" lon="0.35133">
        <ele>641.8</ele>
        <time>2020-06-30T12:07:20Z</time>
      </trkpt>
      <trkpt lat="43.08161" lon="0.35125">
        <ele>641.6</ele>
        <time>2020-06-30T12:07:21Z</time>
      </trkpt>
      <trkpt lat="43.08165" lon="0.35118">
        <ele>641.4</ele>
        <time>2020-06-30T12:07:22Z</time>
      </trkpt>
      <trkpt lat="43.08168" lon="0.35109">
        <ele>641.2</ele>
        <time>2020-06-30T12:07:23Z</time>
      </trkpt>
      <trkpt lat="43.08172" lon="0.35101">
        <ele>641</ele>
        <time>2020-06-30T12:07:24Z</time>
      </trkpt>
      <trkpt lat="43.08176" lon="0.35094">
        <ele>641</ele>
        <time>2020-06-30T12:07:25Z</time>
      </trkpt>
      <trkpt lat="43.08181" lon="0.35086">
        <ele>640.8</ele>
        <time>2020-06-30T12:07:26Z</time>
      </trkpt>
      <trkpt lat="43.08185" lon="0.35078">
        <ele>640.8</ele>
        <time>2020-06-30T12:07:27Z</time>
      </trkpt>
      <trkpt lat="43.08189" lon="0.35069">
        <ele>640.6</ele>
        <time>2020-06-30T12:07:28Z</time>
      </trkpt>
      <trkpt lat="43.08193" lon="0.35061">
        <ele>640.6</ele>
        <time>2020-06-30T12:07:29Z</time>
      </trkpt>
      <trkpt lat="43.08198" lon="0.35053">
        <ele>640.4</ele>
        <time>2020-06-30T12:07:30Z</time>
      </trkpt>
      <trkpt lat="43.08202" lon="0.35045">
        <ele>640.2</ele>
        <time>2020-06-30T12:07:31Z</time>
      </trkpt>
      <trkpt lat="43.08202" lon="0.35045">
        <ele>640.2</ele>
        <time>2020-06-30T12:07:32Z</time>
      </trkpt>
      <trkpt lat="43.08209" lon="0.35028">
        <ele>640</ele>
        <time>2020-06-30T12:07:33Z</time>
      </trkpt>
      <trkpt lat="43.08214" lon="0.35021">
        <ele>639.8</ele>
        <time>2020-06-30T12:07:34Z</time>
      </trkpt>
      <trkpt lat="43.08217" lon="0.35013">
        <ele>639.6</ele>
        <time>2020-06-30T12:07:35Z</time>
      </trkpt>
      <trkpt lat="43.08221" lon="0.35005">
        <ele>639.6</ele>
        <time>2020-06-30T12:07:36Z</time>
      </trkpt>
      <trkpt lat="43.08225" lon="0.34997">
        <ele>639.2</ele>
        <time>2020-06-30T12:07:37Z</time>
      </trkpt>
      <trkpt lat="43.08227" lon="0.34988">
        <ele>639.4</ele>
        <time>2020-06-30T12:07:38Z</time>
      </trkpt>
      <trkpt lat="43.08231" lon="0.3498">
        <ele>639.2</ele>
        <time>2020-06-30T12:07:39Z</time>
      </trkpt>
      <trkpt lat="43.08235" lon="0.34972">
        <ele>639.2</ele>
        <time>2020-06-30T12:07:40Z</time>
      </trkpt>
      <trkpt lat="43.08239" lon="0.34964">
        <ele>639</ele>
        <time>2020-06-30T12:07:41Z</time>
      </trkpt>
      <trkpt lat="43.08242" lon="0.34956">
        <ele>638.6</ele>
        <time>2020-06-30T12:07:42Z</time>
      </trkpt>
      <trkpt lat="43.08245" lon="0.34947">
        <ele>639.2</ele>
        <time>2020-06-30T12:07:43Z</time>
      </trkpt>
      <trkpt lat="43.08249" lon="0.34939">
        <ele>638.4</ele>
        <time>2020-06-30T12:07:44Z</time>
      </trkpt>
      <trkpt lat="43.08252" lon="0.34929">
        <ele>638.4</ele>
        <time>2020-06-30T12:07:45Z</time>
      </trkpt>
      <trkpt lat="43.08256" lon="0.34921">
        <ele>638.4</ele>
        <time>2020-06-30T12:07:46Z</time>
      </trkpt>
      <trkpt lat="43.08259" lon="0.34911">
        <ele>638.6</ele>
        <time>2020-06-30T12:07:47Z</time>
      </trkpt>
      <trkpt lat="43.08263" lon="0.34902">
        <ele>638.4</ele>
        <time>2020-06-30T12:07:48Z</time>
      </trkpt>
      <trkpt lat="43.08267" lon="0.34893">
        <ele>638.4</ele>
        <time>2020-06-30T12:07:49Z</time>
      </trkpt>
      <trkpt lat="43.08271" lon="0.34884">
        <ele>638.4</ele>
        <time>2020-06-30T12:07:50Z</time>
      </trkpt>
      <trkpt lat="43.08275" lon="0.34875">
        <ele>638.4</ele>
        <time>2020-06-30T12:07:51Z</time>
      </trkpt>
      <trkpt lat="43.08278" lon="0.34867">
        <ele>638.4</ele>
        <time>2020-06-30T12:07:52Z</time>
      </trkpt>
      <trkpt lat="43.08282" lon="0.3486">
        <ele>638.4</ele>
        <time>2020-06-30T12:07:53Z</time>
      </trkpt>
      <trkpt lat="43.08285" lon="0.34853">
        <ele>638.4</ele>
        <time>2020-06-30T12:07:54Z</time>
      </trkpt>
      <trkpt lat="43.0829" lon="0.34845">
        <ele>638.4</ele>
        <time>2020-06-30T12:07:55Z</time>
      </trkpt>
      <trkpt lat="43.08293" lon="0.34838">
        <ele>638.2</ele>
        <time>2020-06-30T12:07:56Z</time>
      </trkpt>
      <trkpt lat="43.08296" lon="0.34829">
        <ele>638</ele>
        <time>2020-06-30T12:07:57Z</time>
      </trkpt>
      <trkpt lat="43.083" lon="0.34822">
        <ele>638.2</ele>
        <time>2020-06-30T12:07:58Z</time>
      </trkpt>
      <trkpt lat="43.08304" lon="0.34815">
        <ele>638.2</ele>
        <time>2020-06-30T12:07:59Z</time>
      </trkpt>
      <trkpt lat="43.08307" lon="0.34807">
        <ele>638.2</ele>
        <time>2020-06-30T12:08:00Z</time>
      </trkpt>
      <trkpt lat="43.08311" lon="0.348">
        <ele>638</ele>
        <time>2020-06-30T12:08:01Z</time>
      </trkpt>
      <trkpt lat="43.08315" lon="0.34793">
        <ele>638.2</ele>
        <time>2020-06-30T12:08:02Z</time>
      </trkpt>
      <trkpt lat="43.08319" lon="0.34786">
        <ele>638</ele>
        <time>2020-06-30T12:08:03Z</time>
      </trkpt>
      <trkpt lat="43.08323" lon="0.34778">
        <ele>638</ele>
        <time>2020-06-30T12:08:04Z</time>
      </trkpt>
      <trkpt lat="43.08326" lon="0.3477">
        <ele>638</ele>
        <time>2020-06-30T12:08:05Z</time>
      </trkpt>
      <trkpt lat="43.08331" lon="0.34763">
        <ele>638</ele>
        <time>2020-06-30T12:08:06Z</time>
      </trkpt>
      <trkpt lat="43.08334" lon="0.34756">
        <ele>638</ele>
        <time>2020-06-30T12:08:07Z</time>
      </trkpt>
      <trkpt lat="43.08337" lon="0.34749">
        <ele>638</ele>
        <time>2020-06-30T12:08:08Z</time>
      </trkpt>
      <trkpt lat="43.0834" lon="0.34742">
        <ele>638</ele>
        <time>2020-06-30T12:08:09Z</time>
      </trkpt>
      <trkpt lat="43.08344" lon="0.34733">
        <ele>638</ele>
        <time>2020-06-30T12:08:10Z</time>
      </trkpt>
      <trkpt lat="43.08348" lon="0.34726">
        <ele>638</ele>
        <time>2020-06-30T12:08:11Z</time>
      </trkpt>
      <trkpt lat="43.08351" lon="0.34718">
        <ele>638</ele>
        <time>2020-06-30T12:08:12Z</time>
      </trkpt>
      <trkpt lat="43.08354" lon="0.3471">
        <ele>638</ele>
        <time>2020-06-30T12:08:13Z</time>
      </trkpt>
      <trkpt lat="43.08356" lon="0.34703">
        <ele>638</ele>
        <time>2020-06-30T12:08:14Z</time>
      </trkpt>
      <trkpt lat="43.08359" lon="0.34695">
        <ele>638.2</ele>
        <time>2020-06-30T12:08:15Z</time>
      </trkpt>
      <trkpt lat="43.08363" lon="0.34689">
        <ele>638</ele>
        <time>2020-06-30T12:08:16Z</time>
      </trkpt>
      <trkpt lat="43.08366" lon="0.34681">
        <ele>637.6</ele>
        <time>2020-06-30T12:08:17Z</time>
      </trkpt>
      <trkpt lat="43.08369" lon="0.34674">
        <ele>637.4</ele>
        <time>2020-06-30T12:08:18Z</time>
      </trkpt>
      <trkpt lat="43.08372" lon="0.34666">
        <ele>637.2</ele>
        <time>2020-06-30T12:08:19Z</time>
      </trkpt>
      <trkpt lat="43.08376" lon="0.34658">
        <ele>637.2</ele>
        <time>2020-06-30T12:08:20Z</time>
      </trkpt>
      <trkpt lat="43.08379" lon="0.3465">
        <ele>637</ele>
        <time>2020-06-30T12:08:21Z</time>
      </trkpt>
      <trkpt lat="43.08383" lon="0.34641">
        <ele>636.8</ele>
        <time>2020-06-30T12:08:22Z</time>
      </trkpt>
      <trkpt lat="43.08387" lon="0.34633">
        <ele>636.8</ele>
        <time>2020-06-30T12:08:23Z</time>
      </trkpt>
      <trkpt lat="43.0839" lon="0.34625">
        <ele>636.6</ele>
        <time>2020-06-30T12:08:24Z</time>
      </trkpt>
      <trkpt lat="43.08394" lon="0.34616">
        <ele>636.2</ele>
        <time>2020-06-30T12:08:25Z</time>
      </trkpt>
      <trkpt lat="43.08398" lon="0.34608">
        <ele>636</ele>
        <time>2020-06-30T12:08:26Z</time>
      </trkpt>
      <trkpt lat="43.08401" lon="0.34598">
        <ele>636</ele>
        <time>2020-06-30T12:08:27Z</time>
      </trkpt>
      <trkpt lat="43.08405" lon="0.34588">
        <ele>635.8</ele>
        <time>2020-06-30T12:08:28Z</time>
      </trkpt>
      <trkpt lat="43.08409" lon="0.3458">
        <ele>635.8</ele>
        <time>2020-06-30T12:08:29Z</time>
      </trkpt>
      <trkpt lat="43.08413" lon="0.34571">
        <ele>635.6</ele>
        <time>2020-06-30T12:08:30Z</time>
      </trkpt>
      <trkpt lat="43.08417" lon="0.34562">
        <ele>635.6</ele>
        <time>2020-06-30T12:08:31Z</time>
      </trkpt>
      <trkpt lat="43.08421" lon="0.34553">
        <ele>635.2</ele>
        <time>2020-06-30T12:08:32Z</time>
      </trkpt>
      <trkpt lat="43.08426" lon="0.34544">
        <ele>635.4</ele>
        <time>2020-06-30T12:08:33Z</time>
      </trkpt>
      <trkpt lat="43.08429" lon="0.34535">
        <ele>635.2</ele>
        <time>2020-06-30T12:08:34Z</time>
      </trkpt>
      <trkpt lat="43.08433" lon="0.34525">
        <ele>635.2</ele>
        <time>2020-06-30T12:08:35Z</time>
      </trkpt>
      <trkpt lat="43.08436" lon="0.34516">
        <ele>635</ele>
        <time>2020-06-30T12:08:36Z</time>
      </trkpt>
      <trkpt lat="43.0844" lon="0.34506">
        <ele>634.8</ele>
        <time>2020-06-30T12:08:37Z</time>
      </trkpt>
      <trkpt lat="43.08444" lon="0.34498">
        <ele>634.8</ele>
        <time>2020-06-30T12:08:38Z</time>
      </trkpt>
      <trkpt lat="43.08448" lon="0.3449">
        <ele>634.6</ele>
        <time>2020-06-30T12:08:39Z</time>
      </trkpt>
      <trkpt lat="43.08451" lon="0.34481">
        <ele>634.6</ele>
        <time>2020-06-30T12:08:40Z</time>
      </trkpt>
      <trkpt lat="43.08454" lon="0.34472">
        <ele>634.4</ele>
        <time>2020-06-30T12:08:41Z</time>
      </trkpt>
      <trkpt lat="43.08458" lon="0.34464">
        <ele>634.6</ele>
        <time>2020-06-30T12:08:42Z</time>
      </trkpt>
      <trkpt lat="43.08462" lon="0.34456">
        <ele>634.4</ele>
        <time>2020-06-30T12:08:43Z</time>
      </trkpt>
      <trkpt lat="43.08465" lon="0.34449">
        <ele>634.2</ele>
        <time>2020-06-30T12:08:44Z</time>
      </trkpt>
      <trkpt lat="43.08469" lon="0.3444">
        <ele>634.2</ele>
        <time>2020-06-30T12:08:45Z</time>
      </trkpt>
      <trkpt lat="43.08472" lon="0.34432">
        <ele>634.2</ele>
        <time>2020-06-30T12:08:46Z</time>
      </trkpt>
      <trkpt lat="43.08476" lon="0.34424">
        <ele>634.2</ele>
        <time>2020-06-30T12:08:47Z</time>
      </trkpt>
      <trkpt lat="43.0848" lon="0.34416">
        <ele>634</ele>
        <time>2020-06-30T12:08:48Z</time>
      </trkpt>
      <trkpt lat="43.08485" lon="0.34408">
        <ele>634</ele>
        <time>2020-06-30T12:08:49Z</time>
      </trkpt>
      <trkpt lat="43.08488" lon="0.34399">
        <ele>633.8</ele>
        <time>2020-06-30T12:08:50Z</time>
      </trkpt>
      <trkpt lat="43.08492" lon="0.34391">
        <ele>633.8</ele>
        <time>2020-06-30T12:08:51Z</time>
      </trkpt>
      <trkpt lat="43.08496" lon="0.34383">
        <ele>633.8</ele>
        <time>2020-06-30T12:08:52Z</time>
      </trkpt>
      <trkpt lat="43.08499" lon="0.34376">
        <ele>633.6</ele>
        <time>2020-06-30T12:08:53Z</time>
      </trkpt>
      <trkpt lat="43.08504" lon="0.34368">
        <ele>633.6</ele>
        <time>2020-06-30T12:08:54Z</time>
      </trkpt>
      <trkpt lat="43.08507" lon="0.34359">
        <ele>633.4</ele>
        <time>2020-06-30T12:08:55Z</time>
      </trkpt>
      <trkpt lat="43.08511" lon="0.34351">
        <ele>633.4</ele>
        <time>2020-06-30T12:08:56Z</time>
      </trkpt>
      <trkpt lat="43.08514" lon="0.34342">
        <ele>633.2</ele>
        <time>2020-06-30T12:08:57Z</time>
      </trkpt>
      <trkpt lat="43.08519" lon="0.34334">
        <ele>633.4</ele>
        <time>2020-06-30T12:08:58Z</time>
      </trkpt>
      <trkpt lat="43.08523" lon="0.34326">
        <ele>633.2</ele>
        <time>2020-06-30T12:08:59Z</time>
      </trkpt>
      <trkpt lat="43.08526" lon="0.34318">
        <ele>633.2</ele>
        <time>2020-06-30T12:09:00Z</time>
      </trkpt>
      <trkpt lat="43.0853" lon="0.3431">
        <ele>633.2</ele>
        <time>2020-06-30T12:09:01Z</time>
      </trkpt>
      <trkpt lat="43.08534" lon="0.34301">
        <ele>633</ele>
        <time>2020-06-30T12:09:02Z</time>
      </trkpt>
      <trkpt lat="43.08538" lon="0.34292">
        <ele>633</ele>
        <time>2020-06-30T12:09:03Z</time>
      </trkpt>
      <trkpt lat="43.08542" lon="0.34284">
        <ele>632.8</ele>
        <time>2020-06-30T12:09:04Z</time>
      </trkpt>
      <trkpt lat="43.08546" lon="0.34275">
        <ele>632.8</ele>
        <time>2020-06-30T12:09:05Z</time>
      </trkpt>
      <trkpt lat="43.0855" lon="0.34266">
        <ele>632.6</ele>
        <time>2020-06-30T12:09:06Z</time>
      </trkpt>
      <trkpt lat="43.08554" lon="0.34258">
        <ele>632.6</ele>
        <time>2020-06-30T12:09:07Z</time>
      </trkpt>
      <trkpt lat="43.08558" lon="0.34249">
        <ele>632.4</ele>
        <time>2020-06-30T12:09:08Z</time>
      </trkpt>
      <trkpt lat="43.08562" lon="0.3424">
        <ele>632.4</ele>
        <time>2020-06-30T12:09:09Z</time>
      </trkpt>
      <trkpt lat="43.08566" lon="0.34231">
        <ele>632.2</ele>
        <time>2020-06-30T12:09:10Z</time>
      </trkpt>
      <trkpt lat="43.08569" lon="0.34222">
        <ele>632.2</ele>
        <time>2020-06-30T12:09:11Z</time>
      </trkpt>
      <trkpt lat="43.08573" lon="0.34214">
        <ele>632.2</ele>
        <time>2020-06-30T12:09:12Z</time>
      </trkpt>
      <trkpt lat="43.08577" lon="0.34205">
        <ele>632.2</ele>
        <time>2020-06-30T12:09:13Z</time>
      </trkpt>
      <trkpt lat="43.08581" lon="0.34196">
        <ele>632</ele>
        <time>2020-06-30T12:09:14Z</time>
      </trkpt>
      <trkpt lat="43.08584" lon="0.34188">
        <ele>631.8</ele>
        <time>2020-06-30T12:09:15Z</time>
      </trkpt>
      <trkpt lat="43.08589" lon="0.3418">
        <ele>632</ele>
        <time>2020-06-30T12:09:16Z</time>
      </trkpt>
      <trkpt lat="43.08593" lon="0.34172">
        <ele>632</ele>
        <time>2020-06-30T12:09:17Z</time>
      </trkpt>
      <trkpt lat="43.08596" lon="0.34164">
        <ele>631.8</ele>
        <time>2020-06-30T12:09:18Z</time>
      </trkpt>
      <trkpt lat="43.086" lon="0.34156">
        <ele>631.8</ele>
        <time>2020-06-30T12:09:19Z</time>
      </trkpt>
      <trkpt lat="43.08603" lon="0.34146">
        <ele>631.6</ele>
        <time>2020-06-30T12:09:20Z</time>
      </trkpt>
      <trkpt lat="43.08606" lon="0.34137">
        <ele>631.6</ele>
        <time>2020-06-30T12:09:21Z</time>
      </trkpt>
      <trkpt lat="43.08609" lon="0.34129">
        <ele>631.6</ele>
        <time>2020-06-30T12:09:22Z</time>
      </trkpt>
      <trkpt lat="43.08613" lon="0.3412">
        <ele>631.4</ele>
        <time>2020-06-30T12:09:23Z</time>
      </trkpt>
      <trkpt lat="43.08618" lon="0.34112">
        <ele>631.2</ele>
        <time>2020-06-30T12:09:24Z</time>
      </trkpt>
      <trkpt lat="43.08622" lon="0.34103">
        <ele>631.2</ele>
        <time>2020-06-30T12:09:25Z</time>
      </trkpt>
      <trkpt lat="43.08626" lon="0.34095">
        <ele>631</ele>
        <time>2020-06-30T12:09:26Z</time>
      </trkpt>
      <trkpt lat="43.0863" lon="0.34087">
        <ele>631</ele>
        <time>2020-06-30T12:09:27Z</time>
      </trkpt>
      <trkpt lat="43.08634" lon="0.34078">
        <ele>631</ele>
        <time>2020-06-30T12:09:28Z</time>
      </trkpt>
      <trkpt lat="43.08637" lon="0.3407">
        <ele>630.8</ele>
        <time>2020-06-30T12:09:29Z</time>
      </trkpt>
      <trkpt lat="43.08641" lon="0.34061">
        <ele>630.8</ele>
        <time>2020-06-30T12:09:30Z</time>
      </trkpt>
      <trkpt lat="43.08645" lon="0.34053">
        <ele>630.6</ele>
        <time>2020-06-30T12:09:31Z</time>
      </trkpt>
      <trkpt lat="43.08649" lon="0.34045">
        <ele>630.6</ele>
        <time>2020-06-30T12:09:32Z</time>
      </trkpt>
      <trkpt lat="43.08653" lon="0.34037">
        <ele>630.6</ele>
        <time>2020-06-30T12:09:33Z</time>
      </trkpt>
      <trkpt lat="43.08657" lon="0.34031">
        <ele>630.6</ele>
        <time>2020-06-30T12:09:34Z</time>
      </trkpt>
      <trkpt lat="43.08661" lon="0.34022">
        <ele>630.4</ele>
        <time>2020-06-30T12:09:35Z</time>
      </trkpt>
      <trkpt lat="43.08664" lon="0.34014">
        <ele>630.2</ele>
        <time>2020-06-30T12:09:36Z</time>
      </trkpt>
      <trkpt lat="43.08668" lon="0.34007">
        <ele>630.2</ele>
        <time>2020-06-30T12:09:37Z</time>
      </trkpt>
      <trkpt lat="43.08671" lon="0.33999">
        <ele>630</ele>
        <time>2020-06-30T12:09:38Z</time>
      </trkpt>
      <trkpt lat="43.08674" lon="0.33989">
        <ele>630</ele>
        <time>2020-06-30T12:09:39Z</time>
      </trkpt>
      <trkpt lat="43.08677" lon="0.33982">
        <ele>630</ele>
        <time>2020-06-30T12:09:40Z</time>
      </trkpt>
      <trkpt lat="43.08682" lon="0.33973">
        <ele>629.8</ele>
        <time>2020-06-30T12:09:41Z</time>
      </trkpt>
      <trkpt lat="43.08685" lon="0.33965">
        <ele>629.8</ele>
        <time>2020-06-30T12:09:42Z</time>
      </trkpt>
      <trkpt lat="43.08688" lon="0.33957">
        <ele>629.6</ele>
        <time>2020-06-30T12:09:43Z</time>
      </trkpt>
      <trkpt lat="43.08691" lon="0.33949">
        <ele>629.6</ele>
        <time>2020-06-30T12:09:44Z</time>
      </trkpt>
      <trkpt lat="43.08695" lon="0.33941">
        <ele>629.6</ele>
        <time>2020-06-30T12:09:45Z</time>
      </trkpt>
      <trkpt lat="43.08698" lon="0.33934">
        <ele>629.4</ele>
        <time>2020-06-30T12:09:46Z</time>
      </trkpt>
      <trkpt lat="43.08703" lon="0.33926">
        <ele>629.2</ele>
        <time>2020-06-30T12:09:47Z</time>
      </trkpt>
      <trkpt lat="43.08706" lon="0.33918">
        <ele>629.2</ele>
        <time>2020-06-30T12:09:48Z</time>
      </trkpt>
      <trkpt lat="43.08709" lon="0.33911">
        <ele>629.4</ele>
        <time>2020-06-30T12:09:49Z</time>
      </trkpt>
      <trkpt lat="43.08713" lon="0.33903">
        <ele>629.2</ele>
        <time>2020-06-30T12:09:50Z</time>
      </trkpt>
      <trkpt lat="43.08717" lon="0.33895">
        <ele>629.2</ele>
        <time>2020-06-30T12:09:51Z</time>
      </trkpt>
      <trkpt lat="43.08721" lon="0.33887">
        <ele>629.2</ele>
        <time>2020-06-30T12:09:52Z</time>
      </trkpt>
      <trkpt lat="43.08724" lon="0.33879">
        <ele>629</ele>
        <time>2020-06-30T12:09:53Z</time>
      </trkpt>
      <trkpt lat="43.08728" lon="0.33871">
        <ele>628.6</ele>
        <time>2020-06-30T12:09:54Z</time>
      </trkpt>
      <trkpt lat="43.08733" lon="0.33863">
        <ele>628.6</ele>
        <time>2020-06-30T12:09:55Z</time>
      </trkpt>
      <trkpt lat="43.08737" lon="0.33855">
        <ele>628.6</ele>
        <time>2020-06-30T12:09:56Z</time>
      </trkpt>
      <trkpt lat="43.08741" lon="0.33848">
        <ele>628.2</ele>
        <time>2020-06-30T12:09:57Z</time>
      </trkpt>
      <trkpt lat="43.08745" lon="0.33841">
        <ele>628.2</ele>
        <time>2020-06-30T12:09:58Z</time>
      </trkpt>
      <trkpt lat="43.0875" lon="0.33834">
        <ele>628.2</ele>
        <time>2020-06-30T12:09:59Z</time>
      </trkpt>
      <trkpt lat="43.08754" lon="0.33825">
        <ele>628</ele>
        <time>2020-06-30T12:10:00Z</time>
      </trkpt>
      <trkpt lat="43.08759" lon="0.33818">
        <ele>627.8</ele>
        <time>2020-06-30T12:10:01Z</time>
      </trkpt>
      <trkpt lat="43.08763" lon="0.33811">
        <ele>627.8</ele>
        <time>2020-06-30T12:10:02Z</time>
      </trkpt>
      <trkpt lat="43.08767" lon="0.33803">
        <ele>627.6</ele>
        <time>2020-06-30T12:10:03Z</time>
      </trkpt>
      <trkpt lat="43.08771" lon="0.33797">
        <ele>627.4</ele>
        <time>2020-06-30T12:10:04Z</time>
      </trkpt>
      <trkpt lat="43.08775" lon="0.33792">
        <ele>627.2</ele>
        <time>2020-06-30T12:10:05Z</time>
      </trkpt>
      <trkpt lat="43.08778" lon="0.33786">
        <ele>627.2</ele>
        <time>2020-06-30T12:10:06Z</time>
      </trkpt>
      <trkpt lat="43.0878" lon="0.33779">
        <ele>627.4</ele>
        <time>2020-06-30T12:10:07Z</time>
      </trkpt>
      <trkpt lat="43.0878" lon="0.33772">
        <ele>627.4</ele>
        <time>2020-06-30T12:10:08Z</time>
      </trkpt>
      <trkpt lat="43.08778" lon="0.33766">
        <ele>627.4</ele>
        <time>2020-06-30T12:10:09Z</time>
      </trkpt>
      <trkpt lat="43.08777" lon="0.3376">
        <ele>627.4</ele>
        <time>2020-06-30T12:10:10Z</time>
      </trkpt>
      <trkpt lat="43.08775" lon="0.33754">
        <ele>627.4</ele>
        <time>2020-06-30T12:10:11Z</time>
      </trkpt>
      <trkpt lat="43.08774" lon="0.33749">
        <ele>627.4</ele>
        <time>2020-06-30T12:10:12Z</time>
      </trkpt>
      <trkpt lat="43.08772" lon="0.33743">
        <ele>627.4</ele>
        <time>2020-06-30T12:10:13Z</time>
      </trkpt>
      <trkpt lat="43.08771" lon="0.33736">
        <ele>627.4</ele>
        <time>2020-06-30T12:10:14Z</time>
      </trkpt>
      <trkpt lat="43.0877" lon="0.3373">
        <ele>627.6</ele>
        <time>2020-06-30T12:10:15Z</time>
      </trkpt>
      <trkpt lat="43.08769" lon="0.33723">
        <ele>627.8</ele>
        <time>2020-06-30T12:10:16Z</time>
      </trkpt>
      <trkpt lat="43.08767" lon="0.33716">
        <ele>627.8</ele>
        <time>2020-06-30T12:10:17Z</time>
      </trkpt>
      <trkpt lat="43.08766" lon="0.33709">
        <ele>627.8</ele>
        <time>2020-06-30T12:10:18Z</time>
      </trkpt>
      <trkpt lat="43.08766" lon="0.33704">
        <ele>628</ele>
        <time>2020-06-30T12:10:19Z</time>
      </trkpt>
      <trkpt lat="43.08765" lon="0.33699">
        <ele>628.2</ele>
        <time>2020-06-30T12:10:20Z</time>
      </trkpt>
      <trkpt lat="43.08764" lon="0.33694">
        <ele>628.4</ele>
        <time>2020-06-30T12:10:21Z</time>
      </trkpt>
      <trkpt lat="43.08763" lon="0.33689">
        <ele>628.4</ele>
        <time>2020-06-30T12:10:22Z</time>
      </trkpt>
      <trkpt lat="43.08761" lon="0.33684">
        <ele>628.6</ele>
        <time>2020-06-30T12:10:23Z</time>
      </trkpt>
      <trkpt lat="43.08761" lon="0.3368">
        <ele>628.6</ele>
        <time>2020-06-30T12:10:24Z</time>
      </trkpt>
      <trkpt lat="43.0876" lon="0.33675">
        <ele>628.8</ele>
        <time>2020-06-30T12:10:25Z</time>
      </trkpt>
      <trkpt lat="43.0876" lon="0.3367">
        <ele>628.8</ele>
        <time>2020-06-30T12:10:26Z</time>
      </trkpt>
      <trkpt lat="43.08759" lon="0.33666">
        <ele>629</ele>
        <time>2020-06-30T12:10:27Z</time>
      </trkpt>
      <trkpt lat="43.08758" lon="0.33662">
        <ele>629</ele>
        <time>2020-06-30T12:10:28Z</time>
      </trkpt>
      <trkpt lat="43.08757" lon="0.33657">
        <ele>629</ele>
        <time>2020-06-30T12:10:29Z</time>
      </trkpt>
      <trkpt lat="43.08756" lon="0.33653">
        <ele>629</ele>
        <time>2020-06-30T12:10:30Z</time>
      </trkpt>
      <trkpt lat="43.08755" lon="0.33648">
        <ele>629</ele>
        <time>2020-06-30T12:10:31Z</time>
      </trkpt>
      <trkpt lat="43.08755" lon="0.33644">
        <ele>629</ele>
        <time>2020-06-30T12:10:32Z</time>
      </trkpt>
      <trkpt lat="43.08754" lon="0.3364">
        <ele>629</ele>
        <time>2020-06-30T12:10:33Z</time>
      </trkpt>
      <trkpt lat="43.08754" lon="0.33635">
        <ele>629</ele>
        <time>2020-06-30T12:10:34Z</time>
      </trkpt>
      <trkpt lat="43.08753" lon="0.3363">
        <ele>628.8</ele>
        <time>2020-06-30T12:10:35Z</time>
      </trkpt>
      <trkpt lat="43.08754" lon="0.33626">
        <ele>628.6</ele>
        <time>2020-06-30T12:10:36Z</time>
      </trkpt>
      <trkpt lat="43.08753" lon="0.3362">
        <ele>628.6</ele>
        <time>2020-06-30T12:10:37Z</time>
      </trkpt>
      <trkpt lat="43.08752" lon="0.33614">
        <ele>628.4</ele>
        <time>2020-06-30T12:10:38Z</time>
      </trkpt>
      <trkpt lat="43.08752" lon="0.33609">
        <ele>628.2</ele>
        <time>2020-06-30T12:10:39Z</time>
      </trkpt>
      <trkpt lat="43.08752" lon="0.33602">
        <ele>628.2</ele>
        <time>2020-06-30T12:10:40Z</time>
      </trkpt>
      <trkpt lat="43.08752" lon="0.33596">
        <ele>628</ele>
        <time>2020-06-30T12:10:41Z</time>
      </trkpt>
      <trkpt lat="43.08752" lon="0.3359">
        <ele>627.2</ele>
        <time>2020-06-30T12:10:42Z</time>
      </trkpt>
      <trkpt lat="43.08752" lon="0.33583">
        <ele>628.2</ele>
        <time>2020-06-30T12:10:43Z</time>
      </trkpt>
      <trkpt lat="43.08754" lon="0.33576">
        <ele>627.4</ele>
        <time>2020-06-30T12:10:44Z</time>
      </trkpt>
      <trkpt lat="43.08754" lon="0.33569">
        <ele>627.2</ele>
        <time>2020-06-30T12:10:45Z</time>
      </trkpt>
      <trkpt lat="43.08755" lon="0.33563">
        <ele>627.2</ele>
        <time>2020-06-30T12:10:46Z</time>
      </trkpt>
      <trkpt lat="43.08755" lon="0.33556">
        <ele>626.8</ele>
        <time>2020-06-30T12:10:47Z</time>
      </trkpt>
      <trkpt lat="43.08755" lon="0.33547">
        <ele>626.4</ele>
        <time>2020-06-30T12:10:48Z</time>
      </trkpt>
      <trkpt lat="43.08754" lon="0.33538">
        <ele>626.4</ele>
        <time>2020-06-30T12:10:49Z</time>
      </trkpt>
      <trkpt lat="43.08754" lon="0.33531">
        <ele>626</ele>
        <time>2020-06-30T12:10:50Z</time>
      </trkpt>
      <trkpt lat="43.08754" lon="0.33523">
        <ele>626</ele>
        <time>2020-06-30T12:10:51Z</time>
      </trkpt>
      <trkpt lat="43.08755" lon="0.33515">
        <ele>626</ele>
        <time>2020-06-30T12:10:52Z</time>
      </trkpt>
      <trkpt lat="43.08757" lon="0.33509">
        <ele>626.8</ele>
        <time>2020-06-30T12:10:53Z</time>
      </trkpt>
      <trkpt lat="43.08756" lon="0.33499">
        <ele>625.4</ele>
        <time>2020-06-30T12:10:54Z</time>
      </trkpt>
      <trkpt lat="43.08758" lon="0.33492">
        <ele>625</ele>
        <time>2020-06-30T12:10:55Z</time>
      </trkpt>
      <trkpt lat="43.08758" lon="0.33484">
        <ele>624.8</ele>
        <time>2020-06-30T12:10:56Z</time>
      </trkpt>
      <trkpt lat="43.08758" lon="0.33474">
        <ele>624.4</ele>
        <time>2020-06-30T12:10:57Z</time>
      </trkpt>
      <trkpt lat="43.08758" lon="0.33465">
        <ele>624.2</ele>
        <time>2020-06-30T12:10:58Z</time>
      </trkpt>
      <trkpt lat="43.08758" lon="0.33456">
        <ele>624</ele>
        <time>2020-06-30T12:10:59Z</time>
      </trkpt>
      <trkpt lat="43.08758" lon="0.33448">
        <ele>623.6</ele>
        <time>2020-06-30T12:11:00Z</time>
      </trkpt>
      <trkpt lat="43.08757" lon="0.33438">
        <ele>623.2</ele>
        <time>2020-06-30T12:11:01Z</time>
      </trkpt>
      <trkpt lat="43.08758" lon="0.33428">
        <ele>623.2</ele>
        <time>2020-06-30T12:11:02Z</time>
      </trkpt>
      <trkpt lat="43.08759" lon="0.33419">
        <ele>623</ele>
        <time>2020-06-30T12:11:03Z</time>
      </trkpt>
      <trkpt lat="43.08758" lon="0.33409">
        <ele>622.6</ele>
        <time>2020-06-30T12:11:04Z</time>
      </trkpt>
      <trkpt lat="43.08758" lon="0.33398">
        <ele>622</ele>
        <time>2020-06-30T12:11:05Z</time>
      </trkpt>
      <trkpt lat="43.08759" lon="0.33388">
        <ele>622</ele>
        <time>2020-06-30T12:11:06Z</time>
      </trkpt>
      <trkpt lat="43.08758" lon="0.33377">
        <ele>621.8</ele>
        <time>2020-06-30T12:11:07Z</time>
      </trkpt>
      <trkpt lat="43.08758" lon="0.33366">
        <ele>621.4</ele>
        <time>2020-06-30T12:11:08Z</time>
      </trkpt>
      <trkpt lat="43.08759" lon="0.33355">
        <ele>621</ele>
        <time>2020-06-30T12:11:09Z</time>
      </trkpt>
      <trkpt lat="43.08759" lon="0.33345">
        <ele>620.8</ele>
        <time>2020-06-30T12:11:10Z</time>
      </trkpt>
      <trkpt lat="43.0876" lon="0.33334">
        <ele>620.4</ele>
        <time>2020-06-30T12:11:11Z</time>
      </trkpt>
      <trkpt lat="43.0876" lon="0.33323">
        <ele>620.2</ele>
        <time>2020-06-30T12:11:12Z</time>
      </trkpt>
      <trkpt lat="43.0876" lon="0.33313">
        <ele>619.8</ele>
        <time>2020-06-30T12:11:13Z</time>
      </trkpt>
      <trkpt lat="43.0876" lon="0.33302">
        <ele>619.6</ele>
        <time>2020-06-30T12:11:14Z</time>
      </trkpt>
      <trkpt lat="43.0876" lon="0.33291">
        <ele>619.4</ele>
        <time>2020-06-30T12:11:15Z</time>
      </trkpt>
      <trkpt lat="43.08761" lon="0.3328">
        <ele>619.2</ele>
        <time>2020-06-30T12:11:16Z</time>
      </trkpt>
      <trkpt lat="43.08761" lon="0.3327">
        <ele>618.8</ele>
        <time>2020-06-30T12:11:17Z</time>
      </trkpt>
      <trkpt lat="43.08761" lon="0.33258">
        <ele>618.8</ele>
        <time>2020-06-30T12:11:18Z</time>
      </trkpt>
      <trkpt lat="43.08761" lon="0.33247">
        <ele>618.2</ele>
        <time>2020-06-30T12:11:19Z</time>
      </trkpt>
      <trkpt lat="43.08762" lon="0.33237">
        <ele>618</ele>
        <time>2020-06-30T12:11:20Z</time>
      </trkpt>
      <trkpt lat="43.08762" lon="0.33226">
        <ele>617.8</ele>
        <time>2020-06-30T12:11:21Z</time>
      </trkpt>
      <trkpt lat="43.08762" lon="0.33215">
        <ele>617.6</ele>
        <time>2020-06-30T12:11:22Z</time>
      </trkpt>
      <trkpt lat="43.08762" lon="0.33205">
        <ele>617.6</ele>
        <time>2020-06-30T12:11:23Z</time>
      </trkpt>
      <trkpt lat="43.08763" lon="0.33195">
        <ele>617.4</ele>
        <time>2020-06-30T12:11:24Z</time>
      </trkpt>
      <trkpt lat="43.08763" lon="0.33184">
        <ele>617</ele>
        <time>2020-06-30T12:11:25Z</time>
      </trkpt>
      <trkpt lat="43.08763" lon="0.33174">
        <ele>617.4</ele>
        <time>2020-06-30T12:11:26Z</time>
      </trkpt>
      <trkpt lat="43.08763" lon="0.33164">
        <ele>617</ele>
        <time>2020-06-30T12:11:27Z</time>
      </trkpt>
      <trkpt lat="43.08764" lon="0.33154">
        <ele>617.2</ele>
        <time>2020-06-30T12:11:28Z</time>
      </trkpt>
      <trkpt lat="43.08764" lon="0.33144">
        <ele>617</ele>
        <time>2020-06-30T12:11:29Z</time>
      </trkpt>
      <trkpt lat="43.08764" lon="0.33134">
        <ele>617</ele>
        <time>2020-06-30T12:11:30Z</time>
      </trkpt>
      <trkpt lat="43.08765" lon="0.33124">
        <ele>617</ele>
        <time>2020-06-30T12:11:31Z</time>
      </trkpt>
      <trkpt lat="43.08766" lon="0.33116">
        <ele>617</ele>
        <time>2020-06-30T12:11:32Z</time>
      </trkpt>
      <trkpt lat="43.08766" lon="0.33107">
        <ele>616.8</ele>
        <time>2020-06-30T12:11:33Z</time>
      </trkpt>
      <trkpt lat="43.08766" lon="0.33098">
        <ele>616.8</ele>
        <time>2020-06-30T12:11:34Z</time>
      </trkpt>
      <trkpt lat="43.08767" lon="0.33091">
        <ele>617</ele>
        <time>2020-06-30T12:11:35Z</time>
      </trkpt>
      <trkpt lat="43.08768" lon="0.33083">
        <ele>616.8</ele>
        <time>2020-06-30T12:11:36Z</time>
      </trkpt>
      <trkpt lat="43.08769" lon="0.33075">
        <ele>616.8</ele>
        <time>2020-06-30T12:11:37Z</time>
      </trkpt>
      <trkpt lat="43.08769" lon="0.33067">
        <ele>616.8</ele>
        <time>2020-06-30T12:11:38Z</time>
      </trkpt>
      <trkpt lat="43.08769" lon="0.3306">
        <ele>616.8</ele>
        <time>2020-06-30T12:11:39Z</time>
      </trkpt>
      <trkpt lat="43.0877" lon="0.33054">
        <ele>617</ele>
        <time>2020-06-30T12:11:40Z</time>
      </trkpt>
      <trkpt lat="43.08771" lon="0.33047">
        <ele>617</ele>
        <time>2020-06-30T12:11:41Z</time>
      </trkpt>
      <trkpt lat="43.08772" lon="0.3304">
        <ele>616.8</ele>
        <time>2020-06-30T12:11:42Z</time>
      </trkpt>
      <trkpt lat="43.08773" lon="0.33033">
        <ele>617</ele>
        <time>2020-06-30T12:11:43Z</time>
      </trkpt>
      <trkpt lat="43.08773" lon="0.33026">
        <ele>617</ele>
        <time>2020-06-30T12:11:44Z</time>
      </trkpt>
      <trkpt lat="43.08773" lon="0.33019">
        <ele>616.6</ele>
        <time>2020-06-30T12:11:45Z</time>
      </trkpt>
      <trkpt lat="43.08774" lon="0.33011">
        <ele>616.6</ele>
        <time>2020-06-30T12:11:46Z</time>
      </trkpt>
      <trkpt lat="43.08774" lon="0.33004">
        <ele>616.6</ele>
        <time>2020-06-30T12:11:47Z</time>
      </trkpt>
      <trkpt lat="43.08774" lon="0.32996">
        <ele>616.4</ele>
        <time>2020-06-30T12:11:48Z</time>
      </trkpt>
      <trkpt lat="43.08775" lon="0.32989">
        <ele>616.2</ele>
        <time>2020-06-30T12:11:49Z</time>
      </trkpt>
      <trkpt lat="43.08776" lon="0.32982">
        <ele>616.4</ele>
        <time>2020-06-30T12:11:50Z</time>
      </trkpt>
      <trkpt lat="43.08777" lon="0.32975">
        <ele>616.2</ele>
        <time>2020-06-30T12:11:51Z</time>
      </trkpt>
      <trkpt lat="43.08777" lon="0.32968">
        <ele>616.2</ele>
        <time>2020-06-30T12:11:52Z</time>
      </trkpt>
      <trkpt lat="43.08778" lon="0.32962">
        <ele>616</ele>
        <time>2020-06-30T12:11:53Z</time>
      </trkpt>
      <trkpt lat="43.08778" lon="0.32956">
        <ele>616</ele>
        <time>2020-06-30T12:11:54Z</time>
      </trkpt>
      <trkpt lat="43.08779" lon="0.32949">
        <ele>615.8</ele>
        <time>2020-06-30T12:11:55Z</time>
      </trkpt>
      <trkpt lat="43.0878" lon="0.32942">
        <ele>615.8</ele>
        <time>2020-06-30T12:11:56Z</time>
      </trkpt>
      <trkpt lat="43.0878" lon="0.32934">
        <ele>615.6</ele>
        <time>2020-06-30T12:11:57Z</time>
      </trkpt>
      <trkpt lat="43.08781" lon="0.32927">
        <ele>615.4</ele>
        <time>2020-06-30T12:11:58Z</time>
      </trkpt>
      <trkpt lat="43.08782" lon="0.32919">
        <ele>615.4</ele>
        <time>2020-06-30T12:11:59Z</time>
      </trkpt>
      <trkpt lat="43.08783" lon="0.32912">
        <ele>615.2</ele>
        <time>2020-06-30T12:12:00Z</time>
      </trkpt>
      <trkpt lat="43.08783" lon="0.32905">
        <ele>615</ele>
        <time>2020-06-30T12:12:01Z</time>
      </trkpt>
      <trkpt lat="43.08783" lon="0.32897">
        <ele>614.8</ele>
        <time>2020-06-30T12:12:02Z</time>
      </trkpt>
      <trkpt lat="43.08785" lon="0.32889">
        <ele>614.6</ele>
        <time>2020-06-30T12:12:03Z</time>
      </trkpt>
      <trkpt lat="43.08786" lon="0.3288">
        <ele>614.4</ele>
        <time>2020-06-30T12:12:04Z</time>
      </trkpt>
      <trkpt lat="43.08786" lon="0.32873">
        <ele>614.4</ele>
        <time>2020-06-30T12:12:05Z</time>
      </trkpt>
      <trkpt lat="43.08787" lon="0.32864">
        <ele>614.2</ele>
        <time>2020-06-30T12:12:06Z</time>
      </trkpt>
      <trkpt lat="43.08787" lon="0.32855">
        <ele>614</ele>
        <time>2020-06-30T12:12:07Z</time>
      </trkpt>
      <trkpt lat="43.08787" lon="0.32848">
        <ele>613.8</ele>
        <time>2020-06-30T12:12:08Z</time>
      </trkpt>
      <trkpt lat="43.08788" lon="0.32839">
        <ele>613.8</ele>
        <time>2020-06-30T12:12:09Z</time>
      </trkpt>
      <trkpt lat="43.08787" lon="0.3283">
        <ele>613.6</ele>
        <time>2020-06-30T12:12:10Z</time>
      </trkpt>
      <trkpt lat="43.08789" lon="0.32823">
        <ele>613.6</ele>
        <time>2020-06-30T12:12:11Z</time>
      </trkpt>
      <trkpt lat="43.08789" lon="0.32816">
        <ele>613.6</ele>
        <time>2020-06-30T12:12:12Z</time>
      </trkpt>
      <trkpt lat="43.0879" lon="0.32808">
        <ele>613.6</ele>
        <time>2020-06-30T12:12:13Z</time>
      </trkpt>
      <trkpt lat="43.08789" lon="0.32801">
        <ele>613.2</ele>
        <time>2020-06-30T12:12:14Z</time>
      </trkpt>
      <trkpt lat="43.08789" lon="0.32793">
        <ele>613.2</ele>
        <time>2020-06-30T12:12:15Z</time>
      </trkpt>
      <trkpt lat="43.08788" lon="0.32785">
        <ele>612.8</ele>
        <time>2020-06-30T12:12:16Z</time>
      </trkpt>
      <trkpt lat="43.08788" lon="0.32778">
        <ele>613</ele>
        <time>2020-06-30T12:12:17Z</time>
      </trkpt>
      <trkpt lat="43.08788" lon="0.3277">
        <ele>613</ele>
        <time>2020-06-30T12:12:18Z</time>
      </trkpt>
      <trkpt lat="43.08788" lon="0.32763">
        <ele>612.8</ele>
        <time>2020-06-30T12:12:19Z</time>
      </trkpt>
      <trkpt lat="43.08788" lon="0.32755">
        <ele>612.6</ele>
        <time>2020-06-30T12:12:20Z</time>
      </trkpt>
      <trkpt lat="43.08787" lon="0.32748">
        <ele>612.6</ele>
        <time>2020-06-30T12:12:21Z</time>
      </trkpt>
      <trkpt lat="43.08787" lon="0.3274">
        <ele>612.6</ele>
        <time>2020-06-30T12:12:22Z</time>
      </trkpt>
      <trkpt lat="43.08786" lon="0.32733">
        <ele>612.4</ele>
        <time>2020-06-30T12:12:23Z</time>
      </trkpt>
      <trkpt lat="43.08786" lon="0.32726">
        <ele>612.2</ele>
        <time>2020-06-30T12:12:24Z</time>
      </trkpt>
      <trkpt lat="43.08785" lon="0.32719">
        <ele>612.4</ele>
        <time>2020-06-30T12:12:25Z</time>
      </trkpt>
      <trkpt lat="43.08785" lon="0.32712">
        <ele>612</ele>
        <time>2020-06-30T12:12:26Z</time>
      </trkpt>
      <trkpt lat="43.08784" lon="0.32705">
        <ele>612.2</ele>
        <time>2020-06-30T12:12:27Z</time>
      </trkpt>
      <trkpt lat="43.08784" lon="0.32697">
        <ele>612</ele>
        <time>2020-06-30T12:12:28Z</time>
      </trkpt>
      <trkpt lat="43.08784" lon="0.3269">
        <ele>611.8</ele>
        <time>2020-06-30T12:12:29Z</time>
      </trkpt>
      <trkpt lat="43.08783" lon="0.32683">
        <ele>612</ele>
        <time>2020-06-30T12:12:30Z</time>
      </trkpt>
      <trkpt lat="43.08782" lon="0.32676">
        <ele>612</ele>
        <time>2020-06-30T12:12:31Z</time>
      </trkpt>
      <trkpt lat="43.08782" lon="0.3267">
        <ele>612</ele>
        <time>2020-06-30T12:12:32Z</time>
      </trkpt>
      <trkpt lat="43.08782" lon="0.32663">
        <ele>611.8</ele>
        <time>2020-06-30T12:12:33Z</time>
      </trkpt>
      <trkpt lat="43.08782" lon="0.32658">
        <ele>611.8</ele>
        <time>2020-06-30T12:12:34Z</time>
      </trkpt>
      <trkpt lat="43.08782" lon="0.32652">
        <ele>611.8</ele>
        <time>2020-06-30T12:12:35Z</time>
      </trkpt>
      <trkpt lat="43.08782" lon="0.32646">
        <ele>611.8</ele>
        <time>2020-06-30T12:12:36Z</time>
      </trkpt>
      <trkpt lat="43.08782" lon="0.32642">
        <ele>611.8</ele>
        <time>2020-06-30T12:12:37Z</time>
      </trkpt>
      <trkpt lat="43.08782" lon="0.32637">
        <ele>611.6</ele>
        <time>2020-06-30T12:12:38Z</time>
      </trkpt>
      <trkpt lat="43.08783" lon="0.32634">
        <ele>611.6</ele>
        <time>2020-06-30T12:12:39Z</time>
      </trkpt>
      <trkpt lat="43.08783" lon="0.3263">
        <ele>611.6</ele>
        <time>2020-06-30T12:12:40Z</time>
      </trkpt>
      <trkpt lat="43.08783" lon="0.32627">
        <ele>611.4</ele>
        <time>2020-06-30T12:12:41Z</time>
      </trkpt>
      <trkpt lat="43.08783" lon="0.32626">
        <ele>611.2</ele>
        <time>2020-06-30T12:12:42Z</time>
      </trkpt>
      <trkpt lat="43.08783" lon="0.32625">
        <ele>611.4</ele>
        <time>2020-06-30T12:12:43Z</time>
      </trkpt>
      <trkpt lat="43.08783" lon="0.32624">
        <ele>611.4</ele>
        <time>2020-06-30T12:12:44Z</time>
      </trkpt>
      <trkpt lat="43.08782" lon="0.32625">
        <ele>611.2</ele>
        <time>2020-06-30T12:12:45Z</time>
      </trkpt>
      <trkpt lat="43.08782" lon="0.32625">
        <ele>611.4</ele>
        <time>2020-06-30T12:12:46Z</time>
      </trkpt>
      <trkpt lat="43.08782" lon="0.32625">
        <ele>611.4</ele>
        <time>2020-06-30T12:12:47Z</time>
      </trkpt>
      <trkpt lat="43.08782" lon="0.32624">
        <ele>611.4</ele>
        <time>2020-06-30T12:12:48Z</time>
      </trkpt>
      <trkpt lat="43.08782" lon="0.32624">
        <ele>611.4</ele>
        <time>2020-06-30T12:12:49Z</time>
      </trkpt>
      <trkpt lat="43.08781" lon="0.32624">
        <ele>611.6</ele>
        <time>2020-06-30T12:12:50Z</time>
      </trkpt>
      <trkpt lat="43.08781" lon="0.32624">
        <ele>611.4</ele>
        <time>2020-06-30T12:12:51Z</time>
      </trkpt>
      <trkpt lat="43.08781" lon="0.32624">
        <ele>611.4</ele>
        <time>2020-06-30T12:12:52Z</time>
      </trkpt>
      <trkpt lat="43.08782" lon="0.32625">
        <ele>611.6</ele>
        <time>2020-06-30T12:12:53Z</time>
      </trkpt>
      <trkpt lat="43.08782" lon="0.32625">
        <ele>611.8</ele>
        <time>2020-06-30T12:12:54Z</time>
      </trkpt>
      <trkpt lat="43.08782" lon="0.32625">
        <ele>611.4</ele>
        <time>2020-06-30T12:12:55Z</time>
      </trkpt>
      <trkpt lat="43.08782" lon="0.32625">
        <ele>611.4</ele>
        <time>2020-06-30T12:12:56Z</time>
      </trkpt>
      <trkpt lat="43.08783" lon="0.32625">
        <ele>611.2</ele>
        <time>2020-06-30T12:12:57Z</time>
      </trkpt>
      <trkpt lat="43.08783" lon="0.32626">
        <ele>611.4</ele>
        <time>2020-06-30T12:13:00Z</time>
      </trkpt>
      <trkpt lat="43.08783" lon="0.32626">
        <ele>611.6</ele>
        <time>2020-06-30T12:13:01Z</time>
      </trkpt>
      <trkpt lat="43.08782" lon="0.32625">
        <ele>611.6</ele>
        <time>2020-06-30T12:13:02Z</time>
      </trkpt>
      <trkpt lat="43.08782" lon="0.32625">
        <ele>611.6</ele>
        <time>2020-06-30T12:13:03Z</time>
      </trkpt>
      <trkpt lat="43.08782" lon="0.32625">
        <ele>611.4</ele>
        <time>2020-06-30T12:13:04Z</time>
      </trkpt>
      <trkpt lat="43.08782" lon="0.32625">
        <ele>611.6</ele>
        <time>2020-06-30T12:13:05Z</time>
      </trkpt>
      <trkpt lat="43.08782" lon="0.32625">
        <ele>611.6</ele>
        <time>2020-06-30T12:13:06Z</time>
      </trkpt>
      <trkpt lat="43.08782" lon="0.32625">
        <ele>611.6</ele>
        <time>2020-06-30T12:13:07Z</time>
      </trkpt>
      <trkpt lat="43.08782" lon="0.32626">
        <ele>611.6</ele>
        <time>2020-06-30T12:13:08Z</time>
      </trkpt>
      <trkpt lat="43.08782" lon="0.32625">
        <ele>611.6</ele>
        <time>2020-06-30T12:13:09Z</time>
      </trkpt>
      <trkpt lat="43.08782" lon="0.32625">
        <ele>611.6</ele>
        <time>2020-06-30T12:13:10Z</time>
      </trkpt>
      <trkpt lat="43.08782" lon="0.32626">
        <ele>611.6</ele>
        <time>2020-06-30T12:13:11Z</time>
      </trkpt>
      <trkpt lat="43.0878" lon="0.32617">
        <ele>611.4</ele>
        <time>2020-06-30T12:14:11Z</time>
      </trkpt>
      <trkpt lat="43.08781" lon="0.32617">
        <ele>611.4</ele>
        <time>2020-06-30T12:14:12Z</time>
      </trkpt>
      <trkpt lat="43.08781" lon="0.32614">
        <ele>611.4</ele>
        <time>2020-06-30T12:14:13Z</time>
      </trkpt>
      <trkpt lat="43.08782" lon="0.32612">
        <ele>611.4</ele>
        <time>2020-06-30T12:14:14Z</time>
      </trkpt>
      <trkpt lat="43.08781" lon="0.32608">
        <ele>611.4</ele>
        <time>2020-06-30T12:14:15Z</time>
      </trkpt>
      <trkpt lat="43.08784" lon="0.32607">
        <ele>611.4</ele>
        <time>2020-06-30T12:14:16Z</time>
      </trkpt>
      <trkpt lat="43.08784" lon="0.32604">
        <ele>611.4</ele>
        <time>2020-06-30T12:14:17Z</time>
      </trkpt>
      <trkpt lat="43.08785" lon="0.326">
        <ele>611.2</ele>
        <time>2020-06-30T12:14:18Z</time>
      </trkpt>
      <trkpt lat="43.08785" lon="0.32597">
        <ele>611.2</ele>
        <time>2020-06-30T12:14:19Z</time>
      </trkpt>
      <trkpt lat="43.08786" lon="0.32592">
        <ele>611.2</ele>
        <time>2020-06-30T12:14:20Z</time>
      </trkpt>
      <trkpt lat="43.08788" lon="0.32588">
        <ele>611.2</ele>
        <time>2020-06-30T12:14:21Z</time>
      </trkpt>
      <trkpt lat="43.08789" lon="0.32583">
        <ele>611</ele>
        <time>2020-06-30T12:14:22Z</time>
      </trkpt>
      <trkpt lat="43.0879" lon="0.32579">
        <ele>611</ele>
        <time>2020-06-30T12:14:23Z</time>
      </trkpt>
      <trkpt lat="43.08792" lon="0.32575">
        <ele>610.8</ele>
        <time>2020-06-30T12:14:24Z</time>
      </trkpt>
      <trkpt lat="43.08794" lon="0.3257">
        <ele>610.8</ele>
        <time>2020-06-30T12:14:25Z</time>
      </trkpt>
      <trkpt lat="43.08795" lon="0.32565">
        <ele>610.6</ele>
        <time>2020-06-30T12:14:26Z</time>
      </trkpt>
      <trkpt lat="43.08796" lon="0.3256">
        <ele>610.6</ele>
        <time>2020-06-30T12:14:27Z</time>
      </trkpt>
      <trkpt lat="43.08798" lon="0.32556">
        <ele>610.4</ele>
        <time>2020-06-30T12:14:28Z</time>
      </trkpt>
      <trkpt lat="43.08799" lon="0.32551">
        <ele>610.2</ele>
        <time>2020-06-30T12:14:29Z</time>
      </trkpt>
      <trkpt lat="43.088" lon="0.32544">
        <ele>610</ele>
        <time>2020-06-30T12:14:30Z</time>
      </trkpt>
      <trkpt lat="43.08802" lon="0.32537">
        <ele>609.8</ele>
        <time>2020-06-30T12:14:31Z</time>
      </trkpt>
      <trkpt lat="43.08803" lon="0.3253">
        <ele>609.8</ele>
        <time>2020-06-30T12:14:32Z</time>
      </trkpt>
      <trkpt lat="43.08804" lon="0.32522">
        <ele>609.6</ele>
        <time>2020-06-30T12:14:33Z</time>
      </trkpt>
      <trkpt lat="43.08806" lon="0.32515">
        <ele>609.4</ele>
        <time>2020-06-30T12:14:34Z</time>
      </trkpt>
      <trkpt lat="43.08808" lon="0.32508">
        <ele>609.2</ele>
        <time>2020-06-30T12:14:35Z</time>
      </trkpt>
      <trkpt lat="43.0881" lon="0.32501">
        <ele>609</ele>
        <time>2020-06-30T12:14:36Z</time>
      </trkpt>
      <trkpt lat="43.08812" lon="0.32493">
        <ele>608.8</ele>
        <time>2020-06-30T12:14:37Z</time>
      </trkpt>
      <trkpt lat="43.08813" lon="0.32486">
        <ele>608.6</ele>
        <time>2020-06-30T12:14:38Z</time>
      </trkpt>
      <trkpt lat="43.08814" lon="0.32479">
        <ele>608.6</ele>
        <time>2020-06-30T12:14:39Z</time>
      </trkpt>
      <trkpt lat="43.08815" lon="0.32474">
        <ele>608.2</ele>
        <time>2020-06-30T12:14:40Z</time>
      </trkpt>
      <trkpt lat="43.08816" lon="0.32469">
        <ele>608</ele>
        <time>2020-06-30T12:14:41Z</time>
      </trkpt>
      <trkpt lat="43.08817" lon="0.32464">
        <ele>607.8</ele>
        <time>2020-06-30T12:14:42Z</time>
      </trkpt>
      <trkpt lat="43.08818" lon="0.32459">
        <ele>607.6</ele>
        <time>2020-06-30T12:14:43Z</time>
      </trkpt>
      <trkpt lat="43.08819" lon="0.32454">
        <ele>607.4</ele>
        <time>2020-06-30T12:14:44Z</time>
      </trkpt>
      <trkpt lat="43.08819" lon="0.32449">
        <ele>607.2</ele>
        <time>2020-06-30T12:14:45Z</time>
      </trkpt>
      <trkpt lat="43.0882" lon="0.32445">
        <ele>607</ele>
        <time>2020-06-30T12:14:46Z</time>
      </trkpt>
      <trkpt lat="43.08821" lon="0.32443">
        <ele>606.8</ele>
        <time>2020-06-30T12:14:47Z</time>
      </trkpt>
      <trkpt lat="43.08821" lon="0.32441">
        <ele>606.6</ele>
        <time>2020-06-30T12:14:48Z</time>
      </trkpt>
      <trkpt lat="43.08821" lon="0.3244">
        <ele>606.6</ele>
        <time>2020-06-30T12:14:49Z</time>
      </trkpt>
      <trkpt lat="43.08819" lon="0.32439">
        <ele>606.6</ele>
        <time>2020-06-30T12:14:50Z</time>
      </trkpt>
      <trkpt lat="43.0882" lon="0.32439">
        <ele>606.4</ele>
        <time>2020-06-30T12:14:51Z</time>
      </trkpt>
      <trkpt lat="43.0882" lon="0.3244">
        <ele>606.4</ele>
        <time>2020-06-30T12:14:52Z</time>
      </trkpt>
      <trkpt lat="43.0882" lon="0.3244">
        <ele>606.4</ele>
        <time>2020-06-30T12:14:53Z</time>
      </trkpt>
      <trkpt lat="43.0882" lon="0.3244">
        <ele>606.4</ele>
        <time>2020-06-30T12:14:54Z</time>
      </trkpt>
      <trkpt lat="43.08821" lon="0.32441">
        <ele>606.4</ele>
        <time>2020-06-30T12:14:55Z</time>
      </trkpt>
      <trkpt lat="43.08821" lon="0.32442">
        <ele>606.4</ele>
        <time>2020-06-30T12:14:56Z</time>
      </trkpt>
      <trkpt lat="43.0882" lon="0.32441">
        <ele>606.4</ele>
        <time>2020-06-30T12:14:57Z</time>
      </trkpt>
      <trkpt lat="43.08819" lon="0.32441">
        <ele>606.4</ele>
        <time>2020-06-30T12:14:58Z</time>
      </trkpt>
      <trkpt lat="43.08818" lon="0.32441">
        <ele>606.4</ele>
        <time>2020-06-30T12:14:59Z</time>
      </trkpt>
      <trkpt lat="43.08818" lon="0.32441">
        <ele>606.4</ele>
        <time>2020-06-30T12:15:00Z</time>
      </trkpt>
      <trkpt lat="43.08818" lon="0.32441">
        <ele>606.4</ele>
        <time>2020-06-30T12:15:01Z</time>
      </trkpt>
      <trkpt lat="43.08818" lon="0.3244">
        <ele>606.4</ele>
        <time>2020-06-30T12:15:02Z</time>
      </trkpt>
      <trkpt lat="43.08818" lon="0.3244">
        <ele>606.4</ele>
        <time>2020-06-30T12:15:03Z</time>
      </trkpt>
      <trkpt lat="43.08818" lon="0.3244">
        <ele>606.4</ele>
        <time>2020-06-30T12:15:04Z</time>
      </trkpt>
      <trkpt lat="43.08817" lon="0.3244">
        <ele>606.4</ele>
        <time>2020-06-30T12:15:05Z</time>
      </trkpt>
      <trkpt lat="43.08817" lon="0.3244">
        <ele>606.4</ele>
        <time>2020-06-30T12:15:06Z</time>
      </trkpt>
      <trkpt lat="43.08818" lon="0.3244">
        <ele>606.4</ele>
        <time>2020-06-30T12:15:07Z</time>
      </trkpt>
      <trkpt lat="43.08817" lon="0.32439">
        <ele>606.2</ele>
        <time>2020-06-30T12:15:08Z</time>
      </trkpt>
      <trkpt lat="43.08817" lon="0.32439">
        <ele>606.2</ele>
        <time>2020-06-30T12:15:09Z</time>
      </trkpt>
      <trkpt lat="43.08817" lon="0.32439">
        <ele>606.2</ele>
        <time>2020-06-30T12:15:10Z</time>
      </trkpt>
      <trkpt lat="43.0882" lon="0.3244">
        <ele>606.6</ele>
        <time>2020-06-30T12:16:47Z</time>
      </trkpt>
      <trkpt lat="43.0882" lon="0.3244">
        <ele>606.6</ele>
        <time>2020-06-30T12:16:48Z</time>
      </trkpt>
      <trkpt lat="43.08821" lon="0.3244">
        <ele>606.4</ele>
        <time>2020-06-30T12:16:49Z</time>
      </trkpt>
      <trkpt lat="43.08821" lon="0.32441">
        <ele>606.4</ele>
        <time>2020-06-30T12:16:50Z</time>
      </trkpt>
      <trkpt lat="43.08821" lon="0.32439">
        <ele>606.4</ele>
        <time>2020-06-30T12:16:51Z</time>
      </trkpt>
      <trkpt lat="43.08822" lon="0.32438">
        <ele>606.4</ele>
        <time>2020-06-30T12:16:52Z</time>
      </trkpt>
      <trkpt lat="43.08823" lon="0.32435">
        <ele>606.2</ele>
        <time>2020-06-30T12:16:53Z</time>
      </trkpt>
      <trkpt lat="43.08824" lon="0.32431">
        <ele>606.2</ele>
        <time>2020-06-30T12:16:54Z</time>
      </trkpt>
      <trkpt lat="43.08825" lon="0.32427">
        <ele>605.8</ele>
        <time>2020-06-30T12:16:55Z</time>
      </trkpt>
      <trkpt lat="43.08825" lon="0.32423">
        <ele>605.6</ele>
        <time>2020-06-30T12:16:56Z</time>
      </trkpt>
      <trkpt lat="43.08827" lon="0.32418">
        <ele>605.4</ele>
        <time>2020-06-30T12:16:57Z</time>
      </trkpt>
      <trkpt lat="43.08828" lon="0.32411">
        <ele>605.2</ele>
        <time>2020-06-30T12:16:58Z</time>
      </trkpt>
      <trkpt lat="43.08829" lon="0.32406">
        <ele>605</ele>
        <time>2020-06-30T12:16:59Z</time>
      </trkpt>
      <trkpt lat="43.0883" lon="0.32398">
        <ele>604.6</ele>
        <time>2020-06-30T12:17:00Z</time>
      </trkpt>
      <trkpt lat="43.08831" lon="0.3239">
        <ele>604.2</ele>
        <time>2020-06-30T12:17:01Z</time>
      </trkpt>
      <trkpt lat="43.08831" lon="0.3238">
        <ele>603.8</ele>
        <time>2020-06-30T12:17:02Z</time>
      </trkpt>
      <trkpt lat="43.08831" lon="0.32371">
        <ele>603.4</ele>
        <time>2020-06-30T12:17:03Z</time>
      </trkpt>
      <trkpt lat="43.08831" lon="0.32362">
        <ele>603</ele>
        <time>2020-06-30T12:17:04Z</time>
      </trkpt>
      <trkpt lat="43.08831" lon="0.32353">
        <ele>602.6</ele>
        <time>2020-06-30T12:17:05Z</time>
      </trkpt>
      <trkpt lat="43.08831" lon="0.32343">
        <ele>602.4</ele>
        <time>2020-06-30T12:17:06Z</time>
      </trkpt>
      <trkpt lat="43.08831" lon="0.32334">
        <ele>602</ele>
        <time>2020-06-30T12:17:07Z</time>
      </trkpt>
      <trkpt lat="43.0883" lon="0.32322">
        <ele>601.6</ele>
        <time>2020-06-30T12:17:08Z</time>
      </trkpt>
      <trkpt lat="43.08829" lon="0.32311">
        <ele>601.2</ele>
        <time>2020-06-30T12:17:09Z</time>
      </trkpt>
      <trkpt lat="43.08829" lon="0.323">
        <ele>600.6</ele>
        <time>2020-06-30T12:17:10Z</time>
      </trkpt>
      <trkpt lat="43.08828" lon="0.3229">
        <ele>600.2</ele>
        <time>2020-06-30T12:17:11Z</time>
      </trkpt>
      <trkpt lat="43.08827" lon="0.32279">
        <ele>599.8</ele>
        <time>2020-06-30T12:17:12Z</time>
      </trkpt>
      <trkpt lat="43.08827" lon="0.32267">
        <ele>599.2</ele>
        <time>2020-06-30T12:17:13Z</time>
      </trkpt>
      <trkpt lat="43.08826" lon="0.32254">
        <ele>598.8</ele>
        <time>2020-06-30T12:17:14Z</time>
      </trkpt>
      <trkpt lat="43.08826" lon="0.32243">
        <ele>598.2</ele>
        <time>2020-06-30T12:17:15Z</time>
      </trkpt>
      <trkpt lat="43.08827" lon="0.3223">
        <ele>597.6</ele>
        <time>2020-06-30T12:17:16Z</time>
      </trkpt>
      <trkpt lat="43.08827" lon="0.32218">
        <ele>596.8</ele>
        <time>2020-06-30T12:17:17Z</time>
      </trkpt>
      <trkpt lat="43.08827" lon="0.32206">
        <ele>596.2</ele>
        <time>2020-06-30T12:17:18Z</time>
      </trkpt>
      <trkpt lat="43.08826" lon="0.32193">
        <ele>597.4</ele>
        <time>2020-06-30T12:17:19Z</time>
      </trkpt>
      <trkpt lat="43.08826" lon="0.32181">
        <ele>597</ele>
        <time>2020-06-30T12:17:20Z</time>
      </trkpt>
      <trkpt lat="43.08825" lon="0.32168">
        <ele>595.8</ele>
        <time>2020-06-30T12:17:21Z</time>
      </trkpt>
      <trkpt lat="43.08825" lon="0.32155">
        <ele>595.4</ele>
        <time>2020-06-30T12:17:22Z</time>
      </trkpt>
      <trkpt lat="43.08825" lon="0.32143">
        <ele>594.6</ele>
        <time>2020-06-30T12:17:23Z</time>
      </trkpt>
      <trkpt lat="43.08824" lon="0.32129">
        <ele>594.2</ele>
        <time>2020-06-30T12:17:24Z</time>
      </trkpt>
      <trkpt lat="43.08824" lon="0.32117">
        <ele>594</ele>
        <time>2020-06-30T12:17:25Z</time>
      </trkpt>
      <trkpt lat="43.08824" lon="0.32105">
        <ele>593.8</ele>
        <time>2020-06-30T12:17:26Z</time>
      </trkpt>
      <trkpt lat="43.08823" lon="0.32092">
        <ele>593.4</ele>
        <time>2020-06-30T12:17:27Z</time>
      </trkpt>
      <trkpt lat="43.08823" lon="0.32079">
        <ele>592.8</ele>
        <time>2020-06-30T12:17:28Z</time>
      </trkpt>
      <trkpt lat="43.08823" lon="0.32067">
        <ele>592.4</ele>
        <time>2020-06-30T12:17:29Z</time>
      </trkpt>
      <trkpt lat="43.08822" lon="0.32055">
        <ele>592</ele>
        <time>2020-06-30T12:17:30Z</time>
      </trkpt>
      <trkpt lat="43.08821" lon="0.32044">
        <ele>591.8</ele>
        <time>2020-06-30T12:17:31Z</time>
      </trkpt>
      <trkpt lat="43.08821" lon="0.32034">
        <ele>591.6</ele>
        <time>2020-06-30T12:17:32Z</time>
      </trkpt>
      <trkpt lat="43.08822" lon="0.32025">
        <ele>591.4</ele>
        <time>2020-06-30T12:17:33Z</time>
      </trkpt>
      <trkpt lat="43.08823" lon="0.32018">
        <ele>591</ele>
        <time>2020-06-30T12:17:34Z</time>
      </trkpt>
      <trkpt lat="43.08822" lon="0.32011">
        <ele>590.8</ele>
        <time>2020-06-30T12:17:35Z</time>
      </trkpt>
      <trkpt lat="43.08823" lon="0.32003">
        <ele>590.6</ele>
        <time>2020-06-30T12:17:36Z</time>
      </trkpt>
      <trkpt lat="43.08823" lon="0.31999">
        <ele>590.2</ele>
        <time>2020-06-30T12:17:37Z</time>
      </trkpt>
      <trkpt lat="43.08822" lon="0.31993">
        <ele>589.8</ele>
        <time>2020-06-30T12:17:38Z</time>
      </trkpt>
      <trkpt lat="43.08822" lon="0.31989">
        <ele>589.8</ele>
        <time>2020-06-30T12:17:39Z</time>
      </trkpt>
      <trkpt lat="43.08823" lon="0.31986">
        <ele>589.6</ele>
        <time>2020-06-30T12:17:40Z</time>
      </trkpt>
      <trkpt lat="43.08823" lon="0.31984">
        <ele>589.4</ele>
        <time>2020-06-30T12:17:41Z</time>
      </trkpt>
      <trkpt lat="43.08823" lon="0.31985">
        <ele>589.4</ele>
        <time>2020-06-30T12:17:42Z</time>
      </trkpt>
      <trkpt lat="43.08823" lon="0.31985">
        <ele>589.4</ele>
        <time>2020-06-30T12:17:43Z</time>
      </trkpt>
      <trkpt lat="43.08822" lon="0.31984">
        <ele>589.4</ele>
        <time>2020-06-30T12:17:44Z</time>
      </trkpt>
      <trkpt lat="43.08822" lon="0.31985">
        <ele>589.4</ele>
        <time>2020-06-30T12:17:45Z</time>
      </trkpt>
      <trkpt lat="43.08822" lon="0.31985">
        <ele>589.4</ele>
        <time>2020-06-30T12:17:46Z</time>
      </trkpt>
      <trkpt lat="43.08821" lon="0.31985">
        <ele>589.4</ele>
        <time>2020-06-30T12:17:47Z</time>
      </trkpt>
      <trkpt lat="43.08822" lon="0.31986">
        <ele>589.4</ele>
        <time>2020-06-30T12:17:48Z</time>
      </trkpt>
      <trkpt lat="43.08822" lon="0.31987">
        <ele>589.4</ele>
        <time>2020-06-30T12:17:49Z</time>
      </trkpt>
      <trkpt lat="43.08822" lon="0.31986">
        <ele>589.4</ele>
        <time>2020-06-30T12:17:50Z</time>
      </trkpt>
      <trkpt lat="43.08823" lon="0.31986">
        <ele>589.4</ele>
        <time>2020-06-30T12:17:51Z</time>
      </trkpt>
      <trkpt lat="43.08819" lon="0.31985">
        <ele>589.4</ele>
        <time>2020-06-30T12:18:22Z</time>
      </trkpt>
      <trkpt lat="43.0882" lon="0.31982">
        <ele>589.4</ele>
        <time>2020-06-30T12:18:23Z</time>
      </trkpt>
      <trkpt lat="43.0882" lon="0.31981">
        <ele>589.2</ele>
        <time>2020-06-30T12:18:24Z</time>
      </trkpt>
      <trkpt lat="43.08819" lon="0.31976">
        <ele>589.2</ele>
        <time>2020-06-30T12:18:25Z</time>
      </trkpt>
      <trkpt lat="43.0882" lon="0.31974">
        <ele>589.2</ele>
        <time>2020-06-30T12:18:26Z</time>
      </trkpt>
      <trkpt lat="43.0882" lon="0.31971">
        <ele>589.2</ele>
        <time>2020-06-30T12:18:27Z</time>
      </trkpt>
      <trkpt lat="43.08821" lon="0.31969">
        <ele>589</ele>
        <time>2020-06-30T12:18:28Z</time>
      </trkpt>
      <trkpt lat="43.08821" lon="0.31966">
        <ele>589</ele>
        <time>2020-06-30T12:18:29Z</time>
      </trkpt>
      <trkpt lat="43.0882" lon="0.31961">
        <ele>589</ele>
        <time>2020-06-30T12:18:30Z</time>
      </trkpt>
      <trkpt lat="43.08822" lon="0.31957">
        <ele>588.8</ele>
        <time>2020-06-30T12:18:31Z</time>
      </trkpt>
      <trkpt lat="43.08822" lon="0.31952">
        <ele>588.8</ele>
        <time>2020-06-30T12:18:32Z</time>
      </trkpt>
      <trkpt lat="43.08822" lon="0.31946">
        <ele>588.6</ele>
        <time>2020-06-30T12:18:33Z</time>
      </trkpt>
      <trkpt lat="43.08822" lon="0.31939">
        <ele>588.6</ele>
        <time>2020-06-30T12:18:34Z</time>
      </trkpt>
      <trkpt lat="43.08822" lon="0.31934">
        <ele>588.4</ele>
        <time>2020-06-30T12:18:35Z</time>
      </trkpt>
      <trkpt lat="43.08822" lon="0.31929">
        <ele>588.2</ele>
        <time>2020-06-30T12:18:36Z</time>
      </trkpt>
      <trkpt lat="43.08823" lon="0.31923">
        <ele>588</ele>
        <time>2020-06-30T12:18:37Z</time>
      </trkpt>
      <trkpt lat="43.08822" lon="0.31918">
        <ele>587.8</ele>
        <time>2020-06-30T12:18:38Z</time>
      </trkpt>
      <trkpt lat="43.08823" lon="0.31913">
        <ele>587.6</ele>
        <time>2020-06-30T12:18:39Z</time>
      </trkpt>
      <trkpt lat="43.08823" lon="0.31907">
        <ele>587.4</ele>
        <time>2020-06-30T12:18:40Z</time>
      </trkpt>
      <trkpt lat="43.08824" lon="0.31902">
        <ele>587.2</ele>
        <time>2020-06-30T12:18:41Z</time>
      </trkpt>
      <trkpt lat="43.08825" lon="0.31897">
        <ele>586.8</ele>
        <time>2020-06-30T12:18:42Z</time>
      </trkpt>
      <trkpt lat="43.08825" lon="0.31891">
        <ele>586.4</ele>
        <time>2020-06-30T12:18:43Z</time>
      </trkpt>
      <trkpt lat="43.08825" lon="0.31884">
        <ele>586</ele>
        <time>2020-06-30T12:18:44Z</time>
      </trkpt>
      <trkpt lat="43.08825" lon="0.31875">
        <ele>585.6</ele>
        <time>2020-06-30T12:18:45Z</time>
      </trkpt>
      <trkpt lat="43.08824" lon="0.31867">
        <ele>585.2</ele>
        <time>2020-06-30T12:18:46Z</time>
      </trkpt>
      <trkpt lat="43.08824" lon="0.31857">
        <ele>584.8</ele>
        <time>2020-06-30T12:18:47Z</time>
      </trkpt>
      <trkpt lat="43.08823" lon="0.31847">
        <ele>584.2</ele>
        <time>2020-06-30T12:18:48Z</time>
      </trkpt>
      <trkpt lat="43.08823" lon="0.31838">
        <ele>583.8</ele>
        <time>2020-06-30T12:18:49Z</time>
      </trkpt>
      <trkpt lat="43.08823" lon="0.31828">
        <ele>583.2</ele>
        <time>2020-06-30T12:18:50Z</time>
      </trkpt>
      <trkpt lat="43.08822" lon="0.31819">
        <ele>582.6</ele>
        <time>2020-06-30T12:18:51Z</time>
      </trkpt>
      <trkpt lat="43.08822" lon="0.31807">
        <ele>582</ele>
        <time>2020-06-30T12:18:52Z</time>
      </trkpt>
      <trkpt lat="43.08823" lon="0.31797">
        <ele>581.4</ele>
        <time>2020-06-30T12:18:53Z</time>
      </trkpt>
      <trkpt lat="43.08825" lon="0.31786">
        <ele>580.8</ele>
        <time>2020-06-30T12:18:54Z</time>
      </trkpt>
      <trkpt lat="43.08827" lon="0.31775">
        <ele>579.8</ele>
        <time>2020-06-30T12:18:55Z</time>
      </trkpt>
      <trkpt lat="43.08829" lon="0.31764">
        <ele>579.4</ele>
        <time>2020-06-30T12:18:56Z</time>
      </trkpt>
      <trkpt lat="43.08834" lon="0.31755">
        <ele>578.6</ele>
        <time>2020-06-30T12:18:57Z</time>
      </trkpt>
      <trkpt lat="43.08837" lon="0.31744">
        <ele>577.8</ele>
        <time>2020-06-30T12:18:58Z</time>
      </trkpt>
      <trkpt lat="43.08839" lon="0.31733">
        <ele>577.2</ele>
        <time>2020-06-30T12:18:59Z</time>
      </trkpt>
      <trkpt lat="43.08844" lon="0.31722">
        <ele>576.6</ele>
        <time>2020-06-30T12:19:00Z</time>
      </trkpt>
      <trkpt lat="43.08847" lon="0.31711">
        <ele>575.6</ele>
        <time>2020-06-30T12:19:01Z</time>
      </trkpt>
      <trkpt lat="43.08848" lon="0.31698">
        <ele>574.6</ele>
        <time>2020-06-30T12:19:02Z</time>
      </trkpt>
      <trkpt lat="43.08848" lon="0.31686">
        <ele>574.2</ele>
        <time>2020-06-30T12:19:03Z</time>
      </trkpt>
      <trkpt lat="43.08846" lon="0.31676">
        <ele>573.4</ele>
        <time>2020-06-30T12:19:04Z</time>
      </trkpt>
      <trkpt lat="43.08845" lon="0.31662">
        <ele>572.6</ele>
        <time>2020-06-30T12:19:05Z</time>
      </trkpt>
      <trkpt lat="43.08843" lon="0.31649">
        <ele>572.2</ele>
        <time>2020-06-30T12:19:06Z</time>
      </trkpt>
      <trkpt lat="43.08842" lon="0.31637">
        <ele>571.6</ele>
        <time>2020-06-30T12:19:07Z</time>
      </trkpt>
      <trkpt lat="43.08841" lon="0.31624">
        <ele>570.8</ele>
        <time>2020-06-30T12:19:08Z</time>
      </trkpt>
      <trkpt lat="43.08838" lon="0.31611">
        <ele>570.2</ele>
        <time>2020-06-30T12:19:09Z</time>
      </trkpt>
      <trkpt lat="43.08835" lon="0.31598">
        <ele>569.6</ele>
        <time>2020-06-30T12:19:10Z</time>
      </trkpt>
      <trkpt lat="43.08834" lon="0.31587">
        <ele>569.2</ele>
        <time>2020-06-30T12:19:11Z</time>
      </trkpt>
      <trkpt lat="43.08834" lon="0.31576">
        <ele>568.4</ele>
        <time>2020-06-30T12:19:12Z</time>
      </trkpt>
      <trkpt lat="43.08834" lon="0.31564">
        <ele>567.8</ele>
        <time>2020-06-30T12:19:13Z</time>
      </trkpt>
      <trkpt lat="43.08833" lon="0.31554">
        <ele>567.4</ele>
        <time>2020-06-30T12:19:14Z</time>
      </trkpt>
      <trkpt lat="43.08833" lon="0.31541">
        <ele>567</ele>
        <time>2020-06-30T12:19:15Z</time>
      </trkpt>
      <trkpt lat="43.08832" lon="0.31528">
        <ele>566.4</ele>
        <time>2020-06-30T12:19:16Z</time>
      </trkpt>
      <trkpt lat="43.08832" lon="0.31517">
        <ele>565.8</ele>
        <time>2020-06-30T12:19:17Z</time>
      </trkpt>
      <trkpt lat="43.08832" lon="0.31505">
        <ele>565.6</ele>
        <time>2020-06-30T12:19:18Z</time>
      </trkpt>
      <trkpt lat="43.08832" lon="0.31493">
        <ele>565</ele>
        <time>2020-06-30T12:19:19Z</time>
      </trkpt>
      <trkpt lat="43.08834" lon="0.31482">
        <ele>564.6</ele>
        <time>2020-06-30T12:19:20Z</time>
      </trkpt>
      <trkpt lat="43.08835" lon="0.31468">
        <ele>564</ele>
        <time>2020-06-30T12:19:21Z</time>
      </trkpt>
      <trkpt lat="43.08837" lon="0.31455">
        <ele>563.6</ele>
        <time>2020-06-30T12:19:22Z</time>
      </trkpt>
      <trkpt lat="43.08837" lon="0.31443">
        <ele>563.2</ele>
        <time>2020-06-30T12:19:23Z</time>
      </trkpt>
      <trkpt lat="43.08838" lon="0.31431">
        <ele>562.6</ele>
        <time>2020-06-30T12:19:24Z</time>
      </trkpt>
      <trkpt lat="43.0884" lon="0.31418">
        <ele>562</ele>
        <time>2020-06-30T12:19:25Z</time>
      </trkpt>
      <trkpt lat="43.08842" lon="0.31405">
        <ele>561.4</ele>
        <time>2020-06-30T12:19:26Z</time>
      </trkpt>
      <trkpt lat="43.08841" lon="0.31391">
        <ele>561</ele>
        <time>2020-06-30T12:19:27Z</time>
      </trkpt>
      <trkpt lat="43.08841" lon="0.31378">
        <ele>560.6</ele>
        <time>2020-06-30T12:19:28Z</time>
      </trkpt>
      <trkpt lat="43.08839" lon="0.31363">
        <ele>560.4</ele>
        <time>2020-06-30T12:19:29Z</time>
      </trkpt>
      <trkpt lat="43.08836" lon="0.3135">
        <ele>560.2</ele>
        <time>2020-06-30T12:19:30Z</time>
      </trkpt>
      <trkpt lat="43.08834" lon="0.31336">
        <ele>560.2</ele>
        <time>2020-06-30T12:19:31Z</time>
      </trkpt>
      <trkpt lat="43.08833" lon="0.31324">
        <ele>560.2</ele>
        <time>2020-06-30T12:19:32Z</time>
      </trkpt>
      <trkpt lat="43.08832" lon="0.31314">
        <ele>560.2</ele>
        <time>2020-06-30T12:19:33Z</time>
      </trkpt>
      <trkpt lat="43.0883" lon="0.31303">
        <ele>560.2</ele>
        <time>2020-06-30T12:19:34Z</time>
      </trkpt>
      <trkpt lat="43.08828" lon="0.31292">
        <ele>560.2</ele>
        <time>2020-06-30T12:19:35Z</time>
      </trkpt>
      <trkpt lat="43.08826" lon="0.31283">
        <ele>560.2</ele>
        <time>2020-06-30T12:19:36Z</time>
      </trkpt>
      <trkpt lat="43.08825" lon="0.31271">
        <ele>560</ele>
        <time>2020-06-30T12:19:37Z</time>
      </trkpt>
      <trkpt lat="43.08823" lon="0.31262">
        <ele>560</ele>
        <time>2020-06-30T12:19:38Z</time>
      </trkpt>
      <trkpt lat="43.08822" lon="0.31253">
        <ele>560</ele>
        <time>2020-06-30T12:19:39Z</time>
      </trkpt>
      <trkpt lat="43.0882" lon="0.31244">
        <ele>560</ele>
        <time>2020-06-30T12:19:40Z</time>
      </trkpt>
      <trkpt lat="43.08819" lon="0.31236">
        <ele>560</ele>
        <time>2020-06-30T12:19:41Z</time>
      </trkpt>
      <trkpt lat="43.08817" lon="0.31227">
        <ele>559.8</ele>
        <time>2020-06-30T12:19:42Z</time>
      </trkpt>
      <trkpt lat="43.08815" lon="0.31219">
        <ele>559.6</ele>
        <time>2020-06-30T12:19:43Z</time>
      </trkpt>
      <trkpt lat="43.08813" lon="0.3121">
        <ele>559.8</ele>
        <time>2020-06-30T12:19:44Z</time>
      </trkpt>
      <trkpt lat="43.0881" lon="0.31204">
        <ele>559.8</ele>
        <time>2020-06-30T12:19:45Z</time>
      </trkpt>
      <trkpt lat="43.08807" lon="0.31196">
        <ele>559.8</ele>
        <time>2020-06-30T12:19:46Z</time>
      </trkpt>
      <trkpt lat="43.08804" lon="0.31189">
        <ele>559.8</ele>
        <time>2020-06-30T12:19:47Z</time>
      </trkpt>
      <trkpt lat="43.08801" lon="0.31181">
        <ele>559.8</ele>
        <time>2020-06-30T12:19:48Z</time>
      </trkpt>
      <trkpt lat="43.08799" lon="0.31176">
        <ele>559.8</ele>
        <time>2020-06-30T12:19:49Z</time>
      </trkpt>
      <trkpt lat="43.08797" lon="0.31169">
        <ele>559.8</ele>
        <time>2020-06-30T12:19:50Z</time>
      </trkpt>
      <trkpt lat="43.08796" lon="0.31164">
        <ele>559.8</ele>
        <time>2020-06-30T12:19:51Z</time>
      </trkpt>
      <trkpt lat="43.08793" lon="0.31157">
        <ele>559.8</ele>
        <time>2020-06-30T12:19:52Z</time>
      </trkpt>
      <trkpt lat="43.08792" lon="0.31152">
        <ele>559.8</ele>
        <time>2020-06-30T12:19:53Z</time>
      </trkpt>
      <trkpt lat="43.08789" lon="0.31146">
        <ele>560</ele>
        <time>2020-06-30T12:19:54Z</time>
      </trkpt>
      <trkpt lat="43.08787" lon="0.3114">
        <ele>560.2</ele>
        <time>2020-06-30T12:19:55Z</time>
      </trkpt>
      <trkpt lat="43.08785" lon="0.31135">
        <ele>560.2</ele>
        <time>2020-06-30T12:19:56Z</time>
      </trkpt>
      <trkpt lat="43.08783" lon="0.31129">
        <ele>560.4</ele>
        <time>2020-06-30T12:19:57Z</time>
      </trkpt>
      <trkpt lat="43.0878" lon="0.31124">
        <ele>560.4</ele>
        <time>2020-06-30T12:19:58Z</time>
      </trkpt>
      <trkpt lat="43.08779" lon="0.31119">
        <ele>560.6</ele>
        <time>2020-06-30T12:19:59Z</time>
      </trkpt>
      <trkpt lat="43.08777" lon="0.31113">
        <ele>560.8</ele>
        <time>2020-06-30T12:20:00Z</time>
      </trkpt>
      <trkpt lat="43.08775" lon="0.31109">
        <ele>560.8</ele>
        <time>2020-06-30T12:20:01Z</time>
      </trkpt>
      <trkpt lat="43.08774" lon="0.31106">
        <ele>561</ele>
        <time>2020-06-30T12:20:02Z</time>
      </trkpt>
      <trkpt lat="43.08772" lon="0.31102">
        <ele>561.2</ele>
        <time>2020-06-30T12:20:03Z</time>
      </trkpt>
      <trkpt lat="43.08771" lon="0.31098">
        <ele>561.4</ele>
        <time>2020-06-30T12:20:04Z</time>
      </trkpt>
      <trkpt lat="43.08768" lon="0.31092">
        <ele>561.4</ele>
        <time>2020-06-30T12:20:05Z</time>
      </trkpt>
      <trkpt lat="43.08768" lon="0.31088">
        <ele>561.4</ele>
        <time>2020-06-30T12:20:06Z</time>
      </trkpt>
      <trkpt lat="43.08767" lon="0.31084">
        <ele>561.4</ele>
        <time>2020-06-30T12:20:07Z</time>
      </trkpt>
      <trkpt lat="43.08766" lon="0.31082">
        <ele>561.6</ele>
        <time>2020-06-30T12:20:08Z</time>
      </trkpt>
      <trkpt lat="43.08765" lon="0.31078">
        <ele>561.6</ele>
        <time>2020-06-30T12:20:09Z</time>
      </trkpt>
      <trkpt lat="43.08764" lon="0.31074">
        <ele>561.6</ele>
        <time>2020-06-30T12:20:10Z</time>
      </trkpt>
      <trkpt lat="43.08763" lon="0.31069">
        <ele>561.6</ele>
        <time>2020-06-30T12:20:11Z</time>
      </trkpt>
      <trkpt lat="43.08759" lon="0.31065">
        <ele>561.6</ele>
        <time>2020-06-30T12:20:12Z</time>
      </trkpt>
      <trkpt lat="43.08758" lon="0.31061">
        <ele>561.6</ele>
        <time>2020-06-30T12:20:13Z</time>
      </trkpt>
      <trkpt lat="43.08757" lon="0.31059">
        <ele>561.6</ele>
        <time>2020-06-30T12:20:14Z</time>
      </trkpt>
      <trkpt lat="43.08757" lon="0.31055">
        <ele>561.6</ele>
        <time>2020-06-30T12:20:15Z</time>
      </trkpt>
      <trkpt lat="43.08755" lon="0.31051">
        <ele>561.6</ele>
        <time>2020-06-30T12:20:16Z</time>
      </trkpt>
      <trkpt lat="43.08753" lon="0.31048">
        <ele>561.6</ele>
        <time>2020-06-30T12:20:17Z</time>
      </trkpt>
      <trkpt lat="43.08751" lon="0.31043">
        <ele>561.6</ele>
        <time>2020-06-30T12:20:18Z</time>
      </trkpt>
      <trkpt lat="43.08749" lon="0.31039">
        <ele>561.6</ele>
        <time>2020-06-30T12:20:19Z</time>
      </trkpt>
      <trkpt lat="43.08747" lon="0.31036">
        <ele>561.8</ele>
        <time>2020-06-30T12:20:20Z</time>
      </trkpt>
      <trkpt lat="43.08745" lon="0.31033">
        <ele>561.8</ele>
        <time>2020-06-30T12:20:21Z</time>
      </trkpt>
      <trkpt lat="43.08743" lon="0.3103">
        <ele>561.8</ele>
        <time>2020-06-30T12:20:22Z</time>
      </trkpt>
      <trkpt lat="43.08741" lon="0.31027">
        <ele>561.8</ele>
        <time>2020-06-30T12:20:23Z</time>
      </trkpt>
      <trkpt lat="43.08739" lon="0.31024">
        <ele>561.6</ele>
        <time>2020-06-30T12:20:24Z</time>
      </trkpt>
      <trkpt lat="43.08737" lon="0.31021">
        <ele>561.6</ele>
        <time>2020-06-30T12:20:25Z</time>
      </trkpt>
      <trkpt lat="43.08734" lon="0.31019">
        <ele>561.4</ele>
        <time>2020-06-30T12:20:26Z</time>
      </trkpt>
      <trkpt lat="43.0873" lon="0.31015">
        <ele>561.4</ele>
        <time>2020-06-30T12:20:27Z</time>
      </trkpt>
      <trkpt lat="43.08727" lon="0.31012">
        <ele>561.4</ele>
        <time>2020-06-30T12:20:28Z</time>
      </trkpt>
      <trkpt lat="43.08725" lon="0.31008">
        <ele>561.2</ele>
        <time>2020-06-30T12:20:29Z</time>
      </trkpt>
      <trkpt lat="43.08722" lon="0.31005">
        <ele>561.2</ele>
        <time>2020-06-30T12:20:30Z</time>
      </trkpt>
      <trkpt lat="43.08719" lon="0.31002">
        <ele>561</ele>
        <time>2020-06-30T12:20:31Z</time>
      </trkpt>
      <trkpt lat="43.08717" lon="0.31001">
        <ele>561</ele>
        <time>2020-06-30T12:20:32Z</time>
      </trkpt>
      <trkpt lat="43.08715" lon="0.30999">
        <ele>560.8</ele>
        <time>2020-06-30T12:20:33Z</time>
      </trkpt>
      <trkpt lat="43.08712" lon="0.30997">
        <ele>560.8</ele>
        <time>2020-06-30T12:20:34Z</time>
      </trkpt>
      <trkpt lat="43.08711" lon="0.30997">
        <ele>560.8</ele>
        <time>2020-06-30T12:20:35Z</time>
      </trkpt>
      <trkpt lat="43.08712" lon="0.30997">
        <ele>560.6</ele>
        <time>2020-06-30T12:20:36Z</time>
      </trkpt>
      <trkpt lat="43.08714" lon="0.30998">
        <ele>560.6</ele>
        <time>2020-06-30T12:20:37Z</time>
      </trkpt>
      <trkpt lat="43.08714" lon="0.30998">
        <ele>560.6</ele>
        <time>2020-06-30T12:20:38Z</time>
      </trkpt>
      <trkpt lat="43.08713" lon="0.30997">
        <ele>560.6</ele>
        <time>2020-06-30T12:20:39Z</time>
      </trkpt>
      <trkpt lat="43.08713" lon="0.30997">
        <ele>560.6</ele>
        <time>2020-06-30T12:20:40Z</time>
      </trkpt>
      <trkpt lat="43.08713" lon="0.30997">
        <ele>560.6</ele>
        <time>2020-06-30T12:20:41Z</time>
      </trkpt>
      <trkpt lat="43.08713" lon="0.30997">
        <ele>560.6</ele>
        <time>2020-06-30T12:20:42Z</time>
      </trkpt>
      <trkpt lat="43.0871" lon="0.30996">
        <ele>560.6</ele>
        <time>2020-06-30T12:21:05Z</time>
      </trkpt>
      <trkpt lat="43.0871" lon="0.30995">
        <ele>560.6</ele>
        <time>2020-06-30T12:21:07Z</time>
      </trkpt>
      <trkpt lat="43.08708" lon="0.30994">
        <ele>560.8</ele>
        <time>2020-06-30T12:21:08Z</time>
      </trkpt>
      <trkpt lat="43.08708" lon="0.30993">
        <ele>560.6</ele>
        <time>2020-06-30T12:21:09Z</time>
      </trkpt>
      <trkpt lat="43.08707" lon="0.30991">
        <ele>560.6</ele>
        <time>2020-06-30T12:21:10Z</time>
      </trkpt>
      <trkpt lat="43.08707" lon="0.3099">
        <ele>560.6</ele>
        <time>2020-06-30T12:21:11Z</time>
      </trkpt>
      <trkpt lat="43.08706" lon="0.30989">
        <ele>560.6</ele>
        <time>2020-06-30T12:21:12Z</time>
      </trkpt>
      <trkpt lat="43.08705" lon="0.30988">
        <ele>560.6</ele>
        <time>2020-06-30T12:21:13Z</time>
      </trkpt>
      <trkpt lat="43.08703" lon="0.30986">
        <ele>560.6</ele>
        <time>2020-06-30T12:21:14Z</time>
      </trkpt>
      <trkpt lat="43.08702" lon="0.30984">
        <ele>560.6</ele>
        <time>2020-06-30T12:21:15Z</time>
      </trkpt>
      <trkpt lat="43.08701" lon="0.30983">
        <ele>560.4</ele>
        <time>2020-06-30T12:21:16Z</time>
      </trkpt>
      <trkpt lat="43.087" lon="0.30981">
        <ele>560.4</ele>
        <time>2020-06-30T12:21:17Z</time>
      </trkpt>
      <trkpt lat="43.08699" lon="0.30981">
        <ele>560.4</ele>
        <time>2020-06-30T12:21:18Z</time>
      </trkpt>
      <trkpt lat="43.08697" lon="0.30979">
        <ele>560.4</ele>
        <time>2020-06-30T12:21:19Z</time>
      </trkpt>
      <trkpt lat="43.08695" lon="0.30976">
        <ele>560.4</ele>
        <time>2020-06-30T12:21:20Z</time>
      </trkpt>
      <trkpt lat="43.08694" lon="0.30974">
        <ele>560.4</ele>
        <time>2020-06-30T12:21:21Z</time>
      </trkpt>
      <trkpt lat="43.08692" lon="0.30971">
        <ele>560.4</ele>
        <time>2020-06-30T12:21:22Z</time>
      </trkpt>
      <trkpt lat="43.08691" lon="0.30968">
        <ele>560.2</ele>
        <time>2020-06-30T12:21:23Z</time>
      </trkpt>
      <trkpt lat="43.08689" lon="0.30966">
        <ele>560</ele>
        <time>2020-06-30T12:21:24Z</time>
      </trkpt>
      <trkpt lat="43.08687" lon="0.30963">
        <ele>560</ele>
        <time>2020-06-30T12:21:25Z</time>
      </trkpt>
      <trkpt lat="43.08685" lon="0.3096">
        <ele>560</ele>
        <time>2020-06-30T12:21:26Z</time>
      </trkpt>
      <trkpt lat="43.08682" lon="0.30957">
        <ele>559.8</ele>
        <time>2020-06-30T12:21:27Z</time>
      </trkpt>
      <trkpt lat="43.08679" lon="0.30954">
        <ele>559.8</ele>
        <time>2020-06-30T12:21:28Z</time>
      </trkpt>
      <trkpt lat="43.08677" lon="0.30952">
        <ele>559.8</ele>
        <time>2020-06-30T12:21:29Z</time>
      </trkpt>
      <trkpt lat="43.08673" lon="0.30949">
        <ele>559.6</ele>
        <time>2020-06-30T12:21:30Z</time>
      </trkpt>
      <trkpt lat="43.0867" lon="0.30945">
        <ele>559.6</ele>
        <time>2020-06-30T12:21:31Z</time>
      </trkpt>
      <trkpt lat="43.08666" lon="0.30942">
        <ele>559.4</ele>
        <time>2020-06-30T12:21:32Z</time>
      </trkpt>
      <trkpt lat="43.08664" lon="0.3094">
        <ele>559.4</ele>
        <time>2020-06-30T12:21:33Z</time>
      </trkpt>
      <trkpt lat="43.0866" lon="0.30937">
        <ele>559.2</ele>
        <time>2020-06-30T12:21:34Z</time>
      </trkpt>
      <trkpt lat="43.08657" lon="0.30934">
        <ele>559.2</ele>
        <time>2020-06-30T12:21:35Z</time>
      </trkpt>
      <trkpt lat="43.08653" lon="0.30931">
        <ele>559</ele>
        <time>2020-06-30T12:21:36Z</time>
      </trkpt>
      <trkpt lat="43.0865" lon="0.30929">
        <ele>559</ele>
        <time>2020-06-30T12:21:37Z</time>
      </trkpt>
      <trkpt lat="43.08647" lon="0.30926">
        <ele>559</ele>
        <time>2020-06-30T12:21:38Z</time>
      </trkpt>
      <trkpt lat="43.08643" lon="0.30923">
        <ele>559</ele>
        <time>2020-06-30T12:21:39Z</time>
      </trkpt>
      <trkpt lat="43.0864" lon="0.3092">
        <ele>558.8</ele>
        <time>2020-06-30T12:21:40Z</time>
      </trkpt>
      <trkpt lat="43.08637" lon="0.30918">
        <ele>558.8</ele>
        <time>2020-06-30T12:21:41Z</time>
      </trkpt>
      <trkpt lat="43.08634" lon="0.30915">
        <ele>558.8</ele>
        <time>2020-06-30T12:21:42Z</time>
      </trkpt>
      <trkpt lat="43.08631" lon="0.30912">
        <ele>558.8</ele>
        <time>2020-06-30T12:21:43Z</time>
      </trkpt>
      <trkpt lat="43.08626" lon="0.30909">
        <ele>558.6</ele>
        <time>2020-06-30T12:21:44Z</time>
      </trkpt>
      <trkpt lat="43.08624" lon="0.30906">
        <ele>558.6</ele>
        <time>2020-06-30T12:21:45Z</time>
      </trkpt>
      <trkpt lat="43.0862" lon="0.30902">
        <ele>558.6</ele>
        <time>2020-06-30T12:21:46Z</time>
      </trkpt>
      <trkpt lat="43.08617" lon="0.309">
        <ele>558.6</ele>
        <time>2020-06-30T12:21:47Z</time>
      </trkpt>
      <trkpt lat="43.08612" lon="0.30895">
        <ele>558.4</ele>
        <time>2020-06-30T12:21:48Z</time>
      </trkpt>
      <trkpt lat="43.08609" lon="0.3089">
        <ele>558.2</ele>
        <time>2020-06-30T12:21:49Z</time>
      </trkpt>
      <trkpt lat="43.08606" lon="0.30887">
        <ele>558</ele>
        <time>2020-06-30T12:21:50Z</time>
      </trkpt>
      <trkpt lat="43.08603" lon="0.30881">
        <ele>557.8</ele>
        <time>2020-06-30T12:21:51Z</time>
      </trkpt>
      <trkpt lat="43.08599" lon="0.30876">
        <ele>557.8</ele>
        <time>2020-06-30T12:21:52Z</time>
      </trkpt>
      <trkpt lat="43.08596" lon="0.3087">
        <ele>557.6</ele>
        <time>2020-06-30T12:21:53Z</time>
      </trkpt>
      <trkpt lat="43.08593" lon="0.30865">
        <ele>557.6</ele>
        <time>2020-06-30T12:21:54Z</time>
      </trkpt>
      <trkpt lat="43.0859" lon="0.30858">
        <ele>557.6</ele>
        <time>2020-06-30T12:21:55Z</time>
      </trkpt>
      <trkpt lat="43.08587" lon="0.30853">
        <ele>557.4</ele>
        <time>2020-06-30T12:21:56Z</time>
      </trkpt>
      <trkpt lat="43.08584" lon="0.30847">
        <ele>557.4</ele>
        <time>2020-06-30T12:21:57Z</time>
      </trkpt>
      <trkpt lat="43.08583" lon="0.30841">
        <ele>557.4</ele>
        <time>2020-06-30T12:21:58Z</time>
      </trkpt>
      <trkpt lat="43.08582" lon="0.30835">
        <ele>557.2</ele>
        <time>2020-06-30T12:21:59Z</time>
      </trkpt>
      <trkpt lat="43.08583" lon="0.30831">
        <ele>557</ele>
        <time>2020-06-30T12:22:00Z</time>
      </trkpt>
      <trkpt lat="43.08582" lon="0.30825">
        <ele>557</ele>
        <time>2020-06-30T12:22:01Z</time>
      </trkpt>
      <trkpt lat="43.08583" lon="0.30821">
        <ele>557</ele>
        <time>2020-06-30T12:22:02Z</time>
      </trkpt>
      <trkpt lat="43.08584" lon="0.30815">
        <ele>557</ele>
        <time>2020-06-30T12:22:03Z</time>
      </trkpt>
      <trkpt lat="43.08585" lon="0.3081">
        <ele>556.8</ele>
        <time>2020-06-30T12:22:04Z</time>
      </trkpt>
      <trkpt lat="43.08587" lon="0.30806">
        <ele>556.8</ele>
        <time>2020-06-30T12:22:05Z</time>
      </trkpt>
      <trkpt lat="43.0859" lon="0.30801">
        <ele>556.6</ele>
        <time>2020-06-30T12:22:06Z</time>
      </trkpt>
      <trkpt lat="43.08591" lon="0.30797">
        <ele>556.6</ele>
        <time>2020-06-30T12:22:07Z</time>
      </trkpt>
      <trkpt lat="43.08592" lon="0.30793">
        <ele>556.4</ele>
        <time>2020-06-30T12:22:08Z</time>
      </trkpt>
      <trkpt lat="43.08593" lon="0.30788">
        <ele>556.4</ele>
        <time>2020-06-30T12:22:09Z</time>
      </trkpt>
      <trkpt lat="43.08594" lon="0.30784">
        <ele>556.2</ele>
        <time>2020-06-30T12:22:10Z</time>
      </trkpt>
      <trkpt lat="43.08596" lon="0.30778">
        <ele>556</ele>
        <time>2020-06-30T12:22:11Z</time>
      </trkpt>
      <trkpt lat="43.08596" lon="0.30773">
        <ele>555.8</ele>
        <time>2020-06-30T12:22:12Z</time>
      </trkpt>
      <trkpt lat="43.08598" lon="0.30767">
        <ele>555.6</ele>
        <time>2020-06-30T12:22:13Z</time>
      </trkpt>
      <trkpt lat="43.08599" lon="0.30761">
        <ele>555.2</ele>
        <time>2020-06-30T12:22:14Z</time>
      </trkpt>
      <trkpt lat="43.08602" lon="0.30753">
        <ele>555</ele>
        <time>2020-06-30T12:22:15Z</time>
      </trkpt>
      <trkpt lat="43.08605" lon="0.30746">
        <ele>554.6</ele>
        <time>2020-06-30T12:22:16Z</time>
      </trkpt>
      <trkpt lat="43.08609" lon="0.30739">
        <ele>554.2</ele>
        <time>2020-06-30T12:22:17Z</time>
      </trkpt>
      <trkpt lat="43.08613" lon="0.30733">
        <ele>554</ele>
        <time>2020-06-30T12:22:18Z</time>
      </trkpt>
      <trkpt lat="43.08616" lon="0.30725">
        <ele>553.4</ele>
        <time>2020-06-30T12:22:19Z</time>
      </trkpt>
      <trkpt lat="43.08621" lon="0.30717">
        <ele>553.2</ele>
        <time>2020-06-30T12:22:20Z</time>
      </trkpt>
      <trkpt lat="43.08626" lon="0.30709">
        <ele>553</ele>
        <time>2020-06-30T12:22:21Z</time>
      </trkpt>
      <trkpt lat="43.0863" lon="0.30703">
        <ele>552.8</ele>
        <time>2020-06-30T12:22:22Z</time>
      </trkpt>
      <trkpt lat="43.08634" lon="0.30699">
        <ele>552.8</ele>
        <time>2020-06-30T12:22:23Z</time>
      </trkpt>
      <trkpt lat="43.08639" lon="0.30696">
        <ele>552.6</ele>
        <time>2020-06-30T12:22:24Z</time>
      </trkpt>
      <trkpt lat="43.08644" lon="0.30695">
        <ele>552.4</ele>
        <time>2020-06-30T12:22:25Z</time>
      </trkpt>
      <trkpt lat="43.08649" lon="0.30694">
        <ele>552.2</ele>
        <time>2020-06-30T12:22:26Z</time>
      </trkpt>
      <trkpt lat="43.08654" lon="0.30695">
        <ele>551.8</ele>
        <time>2020-06-30T12:22:27Z</time>
      </trkpt>
      <trkpt lat="43.08659" lon="0.30697">
        <ele>551.6</ele>
        <time>2020-06-30T12:22:28Z</time>
      </trkpt>
      <trkpt lat="43.08663" lon="0.30697">
        <ele>551.4</ele>
        <time>2020-06-30T12:22:29Z</time>
      </trkpt>
      <trkpt lat="43.08667" lon="0.30698">
        <ele>551</ele>
        <time>2020-06-30T12:22:30Z</time>
      </trkpt>
      <trkpt lat="43.0867" lon="0.30698">
        <ele>550.8</ele>
        <time>2020-06-30T12:22:31Z</time>
      </trkpt>
      <trkpt lat="43.08674" lon="0.30698">
        <ele>550.6</ele>
        <time>2020-06-30T12:22:32Z</time>
      </trkpt>
      <trkpt lat="43.08676" lon="0.30699">
        <ele>550.4</ele>
        <time>2020-06-30T12:22:33Z</time>
      </trkpt>
      <trkpt lat="43.08679" lon="0.30699">
        <ele>550.2</ele>
        <time>2020-06-30T12:22:34Z</time>
      </trkpt>
      <trkpt lat="43.08681" lon="0.30701">
        <ele>550</ele>
        <time>2020-06-30T12:22:35Z</time>
      </trkpt>
      <trkpt lat="43.08683" lon="0.30703">
        <ele>550</ele>
        <time>2020-06-30T12:22:37Z</time>
      </trkpt>
      <trkpt lat="43.08685" lon="0.30704">
        <ele>549.8</ele>
        <time>2020-06-30T12:22:38Z</time>
      </trkpt>
      <trkpt lat="43.08684" lon="0.30704">
        <ele>550</ele>
        <time>2020-06-30T12:22:39Z</time>
      </trkpt>
      <trkpt lat="43.08684" lon="0.30703">
        <ele>549.8</ele>
        <time>2020-06-30T12:22:40Z</time>
      </trkpt>
      <trkpt lat="43.08685" lon="0.30703">
        <ele>549.8</ele>
        <time>2020-06-30T12:22:41Z</time>
      </trkpt>
      <trkpt lat="43.08685" lon="0.30704">
        <ele>549.8</ele>
        <time>2020-06-30T12:22:42Z</time>
      </trkpt>
      <trkpt lat="43.08685" lon="0.30704">
        <ele>549.8</ele>
        <time>2020-06-30T12:22:43Z</time>
      </trkpt>
      <trkpt lat="43.08685" lon="0.30704">
        <ele>549.8</ele>
        <time>2020-06-30T12:22:44Z</time>
      </trkpt>
      <trkpt lat="43.08685" lon="0.30703">
        <ele>549.8</ele>
        <time>2020-06-30T12:22:45Z</time>
      </trkpt>
      <trkpt lat="43.08686" lon="0.30704">
        <ele>549.8</ele>
        <time>2020-06-30T12:22:46Z</time>
      </trkpt>
      <trkpt lat="43.08686" lon="0.30703">
        <ele>549.8</ele>
        <time>2020-06-30T12:22:47Z</time>
      </trkpt>
      <trkpt lat="43.08686" lon="0.30704">
        <ele>549.8</ele>
        <time>2020-06-30T12:22:49Z</time>
      </trkpt>
      <trkpt lat="43.08687" lon="0.30703">
        <ele>549.6</ele>
        <time>2020-06-30T12:24:26Z</time>
      </trkpt>
      <trkpt lat="43.08687" lon="0.30703">
        <ele>549.6</ele>
        <time>2020-06-30T12:24:27Z</time>
      </trkpt>
      <trkpt lat="43.08689" lon="0.30702">
        <ele>549.4</ele>
        <time>2020-06-30T12:24:28Z</time>
      </trkpt>
      <trkpt lat="43.08689" lon="0.30701">
        <ele>549.4</ele>
        <time>2020-06-30T12:24:29Z</time>
      </trkpt>
      <trkpt lat="43.08691" lon="0.30696">
        <ele>549.2</ele>
        <time>2020-06-30T12:24:31Z</time>
      </trkpt>
      <trkpt lat="43.08693" lon="0.30695">
        <ele>549</ele>
        <time>2020-06-30T12:24:32Z</time>
      </trkpt>
      <trkpt lat="43.08695" lon="0.30693">
        <ele>549</ele>
        <time>2020-06-30T12:24:33Z</time>
      </trkpt>
      <trkpt lat="43.08695" lon="0.30692">
        <ele>548.8</ele>
        <time>2020-06-30T12:24:34Z</time>
      </trkpt>
      <trkpt lat="43.08696" lon="0.30691">
        <ele>548.8</ele>
        <time>2020-06-30T12:24:35Z</time>
      </trkpt>
      <trkpt lat="43.08696" lon="0.30691">
        <ele>548.8</ele>
        <time>2020-06-30T12:24:36Z</time>
      </trkpt>
      <trkpt lat="43.08696" lon="0.3069">
        <ele>548.8</ele>
        <time>2020-06-30T12:24:37Z</time>
      </trkpt>
      <trkpt lat="43.08696" lon="0.3069">
        <ele>548.8</ele>
        <time>2020-06-30T12:24:38Z</time>
      </trkpt>
      <trkpt lat="43.08696" lon="0.3069">
        <ele>548.8</ele>
        <time>2020-06-30T12:24:39Z</time>
      </trkpt>
      <trkpt lat="43.08696" lon="0.3069">
        <ele>548.8</ele>
        <time>2020-06-30T12:24:41Z</time>
      </trkpt>
      <trkpt lat="43.08696" lon="0.30691">
        <ele>548.8</ele>
        <time>2020-06-30T12:24:42Z</time>
      </trkpt>
      <trkpt lat="43.08696" lon="0.30691">
        <ele>548.8</ele>
        <time>2020-06-30T12:24:43Z</time>
      </trkpt>
      <trkpt lat="43.08696" lon="0.30691">
        <ele>548.8</ele>
        <time>2020-06-30T12:24:44Z</time>
      </trkpt>
      <trkpt lat="43.08696" lon="0.30691">
        <ele>548.8</ele>
        <time>2020-06-30T12:24:45Z</time>
      </trkpt>
      <trkpt lat="43.08699" lon="0.30694">
        <ele>548.8</ele>
        <time>2020-06-30T12:25:05Z</time>
      </trkpt>
      <trkpt lat="43.087" lon="0.30693">
        <ele>548.6</ele>
        <time>2020-06-30T12:25:06Z</time>
      </trkpt>
      <trkpt lat="43.08703" lon="0.30693">
        <ele>548.4</ele>
        <time>2020-06-30T12:25:07Z</time>
      </trkpt>
      <trkpt lat="43.08707" lon="0.30692">
        <ele>548.4</ele>
        <time>2020-06-30T12:25:08Z</time>
      </trkpt>
      <trkpt lat="43.0871" lon="0.30688">
        <ele>548</ele>
        <time>2020-06-30T12:25:09Z</time>
      </trkpt>
      <trkpt lat="43.08713" lon="0.30686">
        <ele>547.6</ele>
        <time>2020-06-30T12:25:10Z</time>
      </trkpt>
      <trkpt lat="43.08716" lon="0.30683">
        <ele>547.4</ele>
        <time>2020-06-30T12:25:11Z</time>
      </trkpt>
      <trkpt lat="43.08718" lon="0.30677">
        <ele>547.2</ele>
        <time>2020-06-30T12:25:12Z</time>
      </trkpt>
      <trkpt lat="43.0872" lon="0.30671">
        <ele>546.8</ele>
        <time>2020-06-30T12:25:13Z</time>
      </trkpt>
      <trkpt lat="43.08721" lon="0.30663">
        <ele>546.4</ele>
        <time>2020-06-30T12:25:14Z</time>
      </trkpt>
      <trkpt lat="43.08721" lon="0.30653">
        <ele>545.8</ele>
        <time>2020-06-30T12:25:15Z</time>
      </trkpt>
      <trkpt lat="43.0872" lon="0.30643">
        <ele>545.4</ele>
        <time>2020-06-30T12:25:16Z</time>
      </trkpt>
      <trkpt lat="43.0872" lon="0.30634">
        <ele>545</ele>
        <time>2020-06-30T12:25:17Z</time>
      </trkpt>
      <trkpt lat="43.0872" lon="0.30625">
        <ele>544.6</ele>
        <time>2020-06-30T12:25:18Z</time>
      </trkpt>
      <trkpt lat="43.08719" lon="0.30615">
        <ele>544.2</ele>
        <time>2020-06-30T12:25:19Z</time>
      </trkpt>
      <trkpt lat="43.08718" lon="0.30605">
        <ele>543.6</ele>
        <time>2020-06-30T12:25:20Z</time>
      </trkpt>
      <trkpt lat="43.08716" lon="0.30594">
        <ele>543.2</ele>
        <time>2020-06-30T12:25:21Z</time>
      </trkpt>
      <trkpt lat="43.08714" lon="0.30584">
        <ele>542.2</ele>
        <time>2020-06-30T12:25:22Z</time>
      </trkpt>
      <trkpt lat="43.0871" lon="0.30574">
        <ele>541.6</ele>
        <time>2020-06-30T12:25:23Z</time>
      </trkpt>
      <trkpt lat="43.08704" lon="0.30566">
        <ele>541.2</ele>
        <time>2020-06-30T12:25:24Z</time>
      </trkpt>
      <trkpt lat="43.08697" lon="0.3056">
        <ele>540.4</ele>
        <time>2020-06-30T12:25:25Z</time>
      </trkpt>
      <trkpt lat="43.08689" lon="0.30554">
        <ele>539.8</ele>
        <time>2020-06-30T12:25:26Z</time>
      </trkpt>
      <trkpt lat="43.08681" lon="0.30548">
        <ele>539.2</ele>
        <time>2020-06-30T12:25:27Z</time>
      </trkpt>
      <trkpt lat="43.08665" lon="0.30538">
        <ele>538.4</ele>
        <time>2020-06-30T12:25:29Z</time>
      </trkpt>
      <trkpt lat="43.08657" lon="0.30534">
        <ele>537.6</ele>
        <time>2020-06-30T12:25:30Z</time>
      </trkpt>
      <trkpt lat="43.08648" lon="0.3053">
        <ele>537</ele>
        <time>2020-06-30T12:25:31Z</time>
      </trkpt>
      <trkpt lat="43.08638" lon="0.30525">
        <ele>536.2</ele>
        <time>2020-06-30T12:25:32Z</time>
      </trkpt>
      <trkpt lat="43.08627" lon="0.30519">
        <ele>535.2</ele>
        <time>2020-06-30T12:25:33Z</time>
      </trkpt>
      <trkpt lat="43.08618" lon="0.30513">
        <ele>534.4</ele>
        <time>2020-06-30T12:25:34Z</time>
      </trkpt>
      <trkpt lat="43.08608" lon="0.30508">
        <ele>533.6</ele>
        <time>2020-06-30T12:25:35Z</time>
      </trkpt>
      <trkpt lat="43.08586" lon="0.305">
        <ele>532.4</ele>
        <time>2020-06-30T12:25:37Z</time>
      </trkpt>
      <trkpt lat="43.08575" lon="0.30498">
        <ele>531.6</ele>
        <time>2020-06-30T12:25:38Z</time>
      </trkpt>
      <trkpt lat="43.08565" lon="0.30499">
        <ele>531</ele>
        <time>2020-06-30T12:25:39Z</time>
      </trkpt>
      <trkpt lat="43.08557" lon="0.30502">
        <ele>530.2</ele>
        <time>2020-06-30T12:25:40Z</time>
      </trkpt>
      <trkpt lat="43.08549" lon="0.30508">
        <ele>529.8</ele>
        <time>2020-06-30T12:25:41Z</time>
      </trkpt>
      <trkpt lat="43.08543" lon="0.30516">
        <ele>529.2</ele>
        <time>2020-06-30T12:25:42Z</time>
      </trkpt>
      <trkpt lat="43.08539" lon="0.30527">
        <ele>528.4</ele>
        <time>2020-06-30T12:25:43Z</time>
      </trkpt>
      <trkpt lat="43.08526" lon="0.30548">
        <ele>526.6</ele>
        <time>2020-06-30T12:25:45Z</time>
      </trkpt>
      <trkpt lat="43.08518" lon="0.30554">
        <ele>525.8</ele>
        <time>2020-06-30T12:25:46Z</time>
      </trkpt>
      <trkpt lat="43.08508" lon="0.30557">
        <ele>525</ele>
        <time>2020-06-30T12:25:47Z</time>
      </trkpt>
      <trkpt lat="43.08498" lon="0.30559">
        <ele>524.2</ele>
        <time>2020-06-30T12:25:48Z</time>
      </trkpt>
      <trkpt lat="43.08479" lon="0.30555">
        <ele>522.6</ele>
        <time>2020-06-30T12:25:50Z</time>
      </trkpt>
      <trkpt lat="43.08468" lon="0.30553">
        <ele>522</ele>
        <time>2020-06-30T12:25:51Z</time>
      </trkpt>
      <trkpt lat="43.08457" lon="0.30549">
        <ele>521</ele>
        <time>2020-06-30T12:25:52Z</time>
      </trkpt>
      <trkpt lat="43.08446" lon="0.30545">
        <ele>520.2</ele>
        <time>2020-06-30T12:25:53Z</time>
      </trkpt>
      <trkpt lat="43.08426" lon="0.30536">
        <ele>518.6</ele>
        <time>2020-06-30T12:25:55Z</time>
      </trkpt>
      <trkpt lat="43.08415" lon="0.3053">
        <ele>517.8</ele>
        <time>2020-06-30T12:25:56Z</time>
      </trkpt>
      <trkpt lat="43.08394" lon="0.3052">
        <ele>516.2</ele>
        <time>2020-06-30T12:25:58Z</time>
      </trkpt>
      <trkpt lat="43.08383" lon="0.30513">
        <ele>515</ele>
        <time>2020-06-30T12:25:59Z</time>
      </trkpt>
      <trkpt lat="43.08361" lon="0.30502">
        <ele>513.6</ele>
        <time>2020-06-30T12:26:01Z</time>
      </trkpt>
      <trkpt lat="43.08349" lon="0.30495">
        <ele>512.8</ele>
        <time>2020-06-30T12:26:02Z</time>
      </trkpt>
      <trkpt lat="43.08336" lon="0.30488">
        <ele>512</ele>
        <time>2020-06-30T12:26:03Z</time>
      </trkpt>
      <trkpt lat="43.08323" lon="0.30482">
        <ele>511.2</ele>
        <time>2020-06-30T12:26:04Z</time>
      </trkpt>
      <trkpt lat="43.08312" lon="0.30477">
        <ele>510.2</ele>
        <time>2020-06-30T12:26:05Z</time>
      </trkpt>
      <trkpt lat="43.08301" lon="0.30473">
        <ele>509.4</ele>
        <time>2020-06-30T12:26:06Z</time>
      </trkpt>
      <trkpt lat="43.08289" lon="0.30469">
        <ele>508.4</ele>
        <time>2020-06-30T12:26:07Z</time>
      </trkpt>
      <trkpt lat="43.08265" lon="0.30467">
        <ele>506.8</ele>
        <time>2020-06-30T12:26:09Z</time>
      </trkpt>
      <trkpt lat="43.08254" lon="0.3047">
        <ele>505.8</ele>
        <time>2020-06-30T12:26:10Z</time>
      </trkpt>
      <trkpt lat="43.08243" lon="0.30474">
        <ele>504.6</ele>
        <time>2020-06-30T12:26:11Z</time>
      </trkpt>
      <trkpt lat="43.08233" lon="0.3048">
        <ele>503.6</ele>
        <time>2020-06-30T12:26:12Z</time>
      </trkpt>
      <trkpt lat="43.08224" lon="0.30487">
        <ele>503.2</ele>
        <time>2020-06-30T12:26:13Z</time>
      </trkpt>
      <trkpt lat="43.08217" lon="0.30494">
        <ele>502.6</ele>
        <time>2020-06-30T12:26:14Z</time>
      </trkpt>
      <trkpt lat="43.08211" lon="0.30503">
        <ele>502</ele>
        <time>2020-06-30T12:26:15Z</time>
      </trkpt>
      <trkpt lat="43.08205" lon="0.30512">
        <ele>501.4</ele>
        <time>2020-06-30T12:26:16Z</time>
      </trkpt>
      <trkpt lat="43.08199" lon="0.30521">
        <ele>500.8</ele>
        <time>2020-06-30T12:26:17Z</time>
      </trkpt>
      <trkpt lat="43.08194" lon="0.30528">
        <ele>500</ele>
        <time>2020-06-30T12:26:18Z</time>
      </trkpt>
      <trkpt lat="43.08188" lon="0.30535">
        <ele>499.4</ele>
        <time>2020-06-30T12:26:19Z</time>
      </trkpt>
      <trkpt lat="43.08182" lon="0.30539">
        <ele>499</ele>
        <time>2020-06-30T12:26:20Z</time>
      </trkpt>
      <trkpt lat="43.08175" lon="0.30539">
        <ele>498.6</ele>
        <time>2020-06-30T12:26:21Z</time>
      </trkpt>
      <trkpt lat="43.08167" lon="0.30533">
        <ele>498</ele>
        <time>2020-06-30T12:26:23Z</time>
      </trkpt>
      <trkpt lat="43.08165" lon="0.30528">
        <ele>497.8</ele>
        <time>2020-06-30T12:26:24Z</time>
      </trkpt>
      <trkpt lat="43.08164" lon="0.30524">
        <ele>497.6</ele>
        <time>2020-06-30T12:26:25Z</time>
      </trkpt>
      <trkpt lat="43.08164" lon="0.30522">
        <ele>497.6</ele>
        <time>2020-06-30T12:26:26Z</time>
      </trkpt>
      <trkpt lat="43.08165" lon="0.30518">
        <ele>497.4</ele>
        <time>2020-06-30T12:26:27Z</time>
      </trkpt>
      <trkpt lat="43.08164" lon="0.30515">
        <ele>497.4</ele>
        <time>2020-06-30T12:26:28Z</time>
      </trkpt>
      <trkpt lat="43.08165" lon="0.30512">
        <ele>497.4</ele>
        <time>2020-06-30T12:26:29Z</time>
      </trkpt>
      <trkpt lat="43.08166" lon="0.30509">
        <ele>497.2</ele>
        <time>2020-06-30T12:26:30Z</time>
      </trkpt>
      <trkpt lat="43.08167" lon="0.30505">
        <ele>497.2</ele>
        <time>2020-06-30T12:26:31Z</time>
      </trkpt>
      <trkpt lat="43.08168" lon="0.30503">
        <ele>497</ele>
        <time>2020-06-30T12:26:32Z</time>
      </trkpt>
      <trkpt lat="43.0817" lon="0.30501">
        <ele>497</ele>
        <time>2020-06-30T12:26:33Z</time>
      </trkpt>
      <trkpt lat="43.08171" lon="0.30499">
        <ele>496.8</ele>
        <time>2020-06-30T12:26:34Z</time>
      </trkpt>
      <trkpt lat="43.08174" lon="0.30492">
        <ele>496.6</ele>
        <time>2020-06-30T12:26:36Z</time>
      </trkpt>
      <trkpt lat="43.08176" lon="0.30489">
        <ele>496.4</ele>
        <time>2020-06-30T12:26:37Z</time>
      </trkpt>
      <trkpt lat="43.08178" lon="0.30485">
        <ele>496.2</ele>
        <time>2020-06-30T12:26:38Z</time>
      </trkpt>
      <trkpt lat="43.08181" lon="0.30482">
        <ele>496</ele>
        <time>2020-06-30T12:26:39Z</time>
      </trkpt>
      <trkpt lat="43.08181" lon="0.30479">
        <ele>495.8</ele>
        <time>2020-06-30T12:26:40Z</time>
      </trkpt>
      <trkpt lat="43.08182" lon="0.30475">
        <ele>495.6</ele>
        <time>2020-06-30T12:26:41Z</time>
      </trkpt>
      <trkpt lat="43.08185" lon="0.30472">
        <ele>495.4</ele>
        <time>2020-06-30T12:26:42Z</time>
      </trkpt>
      <trkpt lat="43.08187" lon="0.30466">
        <ele>495.2</ele>
        <time>2020-06-30T12:26:43Z</time>
      </trkpt>
      <trkpt lat="43.08192" lon="0.30458">
        <ele>494.8</ele>
        <time>2020-06-30T12:26:45Z</time>
      </trkpt>
      <trkpt lat="43.08195" lon="0.30453">
        <ele>494.6</ele>
        <time>2020-06-30T12:26:46Z</time>
      </trkpt>
      <trkpt lat="43.08199" lon="0.30448">
        <ele>494.4</ele>
        <time>2020-06-30T12:26:47Z</time>
      </trkpt>
      <trkpt lat="43.08202" lon="0.30442">
        <ele>494</ele>
        <time>2020-06-30T12:26:48Z</time>
      </trkpt>
      <trkpt lat="43.08205" lon="0.30436">
        <ele>493.6</ele>
        <time>2020-06-30T12:26:49Z</time>
      </trkpt>
      <trkpt lat="43.08209" lon="0.30429">
        <ele>493.2</ele>
        <time>2020-06-30T12:26:50Z</time>
      </trkpt>
      <trkpt lat="43.08213" lon="0.30421">
        <ele>492.8</ele>
        <time>2020-06-30T12:26:51Z</time>
      </trkpt>
      <trkpt lat="43.08223" lon="0.30405">
        <ele>492</ele>
        <time>2020-06-30T12:26:53Z</time>
      </trkpt>
      <trkpt lat="43.08229" lon="0.30396">
        <ele>491.4</ele>
        <time>2020-06-30T12:26:54Z</time>
      </trkpt>
      <trkpt lat="43.08234" lon="0.30387">
        <ele>490.8</ele>
        <time>2020-06-30T12:26:55Z</time>
      </trkpt>
      <trkpt lat="43.0824" lon="0.3038">
        <ele>490.2</ele>
        <time>2020-06-30T12:26:56Z</time>
      </trkpt>
      <trkpt lat="43.08252" lon="0.30369">
        <ele>489.2</ele>
        <time>2020-06-30T12:26:58Z</time>
      </trkpt>
      <trkpt lat="43.0826" lon="0.30366">
        <ele>488.6</ele>
        <time>2020-06-30T12:26:59Z</time>
      </trkpt>
      <trkpt lat="43.08266" lon="0.30363">
        <ele>488.2</ele>
        <time>2020-06-30T12:27:00Z</time>
      </trkpt>
      <trkpt lat="43.08272" lon="0.30361">
        <ele>487.4</ele>
        <time>2020-06-30T12:27:01Z</time>
      </trkpt>
      <trkpt lat="43.0829" lon="0.30355">
        <ele>486</ele>
        <time>2020-06-30T12:27:03Z</time>
      </trkpt>
      <trkpt lat="43.08297" lon="0.30353">
        <ele>485.2</ele>
        <time>2020-06-30T12:27:04Z</time>
      </trkpt>
      <trkpt lat="43.08304" lon="0.3035">
        <ele>484.2</ele>
        <time>2020-06-30T12:27:05Z</time>
      </trkpt>
      <trkpt lat="43.08318" lon="0.30348">
        <ele>483.2</ele>
        <time>2020-06-30T12:27:07Z</time>
      </trkpt>
      <trkpt lat="43.08326" lon="0.30351">
        <ele>482.2</ele>
        <time>2020-06-30T12:27:08Z</time>
      </trkpt>
      <trkpt lat="43.08333" lon="0.30353">
        <ele>481.8</ele>
        <time>2020-06-30T12:27:09Z</time>
      </trkpt>
      <trkpt lat="43.08348" lon="0.30357">
        <ele>480.8</ele>
        <time>2020-06-30T12:27:11Z</time>
      </trkpt>
      <trkpt lat="43.08356" lon="0.30356">
        <ele>480.2</ele>
        <time>2020-06-30T12:27:12Z</time>
      </trkpt>
      <trkpt lat="43.08363" lon="0.30352">
        <ele>480</ele>
        <time>2020-06-30T12:27:13Z</time>
      </trkpt>
      <trkpt lat="43.08366" lon="0.30336">
        <ele>479.6</ele>
        <time>2020-06-30T12:27:15Z</time>
      </trkpt>
      <trkpt lat="43.08364" lon="0.30329">
        <ele>479.4</ele>
        <time>2020-06-30T12:27:16Z</time>
      </trkpt>
      <trkpt lat="43.08363" lon="0.30322">
        <ele>479</ele>
        <time>2020-06-30T12:27:17Z</time>
      </trkpt>
      <trkpt lat="43.08358" lon="0.30313">
        <ele>478.6</ele>
        <time>2020-06-30T12:27:18Z</time>
      </trkpt>
      <trkpt lat="43.08354" lon="0.30306">
        <ele>478.2</ele>
        <time>2020-06-30T12:27:19Z</time>
      </trkpt>
      <trkpt lat="43.08351" lon="0.30298">
        <ele>478</ele>
        <time>2020-06-30T12:27:20Z</time>
      </trkpt>
      <trkpt lat="43.08346" lon="0.3029">
        <ele>477.4</ele>
        <time>2020-06-30T12:27:21Z</time>
      </trkpt>
      <trkpt lat="43.08343" lon="0.3028">
        <ele>476.8</ele>
        <time>2020-06-30T12:27:22Z</time>
      </trkpt>
      <trkpt lat="43.08337" lon="0.30272">
        <ele>476.2</ele>
        <time>2020-06-30T12:27:23Z</time>
      </trkpt>
      <trkpt lat="43.0833" lon="0.30265">
        <ele>475.8</ele>
        <time>2020-06-30T12:27:24Z</time>
      </trkpt>
      <trkpt lat="43.08324" lon="0.30257">
        <ele>475.2</ele>
        <time>2020-06-30T12:27:25Z</time>
      </trkpt>
      <trkpt lat="43.08316" lon="0.30249">
        <ele>474.6</ele>
        <time>2020-06-30T12:27:26Z</time>
      </trkpt>
      <trkpt lat="43.08308" lon="0.30243">
        <ele>473.8</ele>
        <time>2020-06-30T12:27:27Z</time>
      </trkpt>
      <trkpt lat="43.08292" lon="0.3023">
        <ele>472.6</ele>
        <time>2020-06-30T12:27:29Z</time>
      </trkpt>
      <trkpt lat="43.08283" lon="0.30224">
        <ele>471.8</ele>
        <time>2020-06-30T12:27:30Z</time>
      </trkpt>
      <trkpt lat="43.08275" lon="0.30218">
        <ele>471.2</ele>
        <time>2020-06-30T12:27:31Z</time>
      </trkpt>
      <trkpt lat="43.08265" lon="0.30216">
        <ele>470.6</ele>
        <time>2020-06-30T12:27:32Z</time>
      </trkpt>
      <trkpt lat="43.08255" lon="0.30213">
        <ele>469.8</ele>
        <time>2020-06-30T12:27:33Z</time>
      </trkpt>
      <trkpt lat="43.08247" lon="0.30208">
        <ele>468.8</ele>
        <time>2020-06-30T12:27:34Z</time>
      </trkpt>
      <trkpt lat="43.08236" lon="0.30206">
        <ele>468.2</ele>
        <time>2020-06-30T12:27:35Z</time>
      </trkpt>
      <trkpt lat="43.08224" lon="0.30205">
        <ele>467.6</ele>
        <time>2020-06-30T12:27:36Z</time>
      </trkpt>
      <trkpt lat="43.08213" lon="0.30203">
        <ele>467</ele>
        <time>2020-06-30T12:27:37Z</time>
      </trkpt>
      <trkpt lat="43.08193" lon="0.302">
        <ele>465.6</ele>
        <time>2020-06-30T12:27:39Z</time>
      </trkpt>
      <trkpt lat="43.08181" lon="0.302">
        <ele>464.6</ele>
        <time>2020-06-30T12:27:40Z</time>
      </trkpt>
      <trkpt lat="43.08159" lon="0.30204">
        <ele>463</ele>
        <time>2020-06-30T12:27:42Z</time>
      </trkpt>
      <trkpt lat="43.08148" lon="0.30206">
        <ele>462</ele>
        <time>2020-06-30T12:27:43Z</time>
      </trkpt>
      <trkpt lat="43.08138" lon="0.3021">
        <ele>461.2</ele>
        <time>2020-06-30T12:27:44Z</time>
      </trkpt>
      <trkpt lat="43.08126" lon="0.30215">
        <ele>460.4</ele>
        <time>2020-06-30T12:27:45Z</time>
      </trkpt>
      <trkpt lat="43.08106" lon="0.30216">
        <ele>459.2</ele>
        <time>2020-06-30T12:27:47Z</time>
      </trkpt>
      <trkpt lat="43.08095" lon="0.30219">
        <ele>458.4</ele>
        <time>2020-06-30T12:27:48Z</time>
      </trkpt>
      <trkpt lat="43.08086" lon="0.3022">
        <ele>457.6</ele>
        <time>2020-06-30T12:27:49Z</time>
      </trkpt>
      <trkpt lat="43.08077" lon="0.30225">
        <ele>456.8</ele>
        <time>2020-06-30T12:27:50Z</time>
      </trkpt>
      <trkpt lat="43.08058" lon="0.30233">
        <ele>455.8</ele>
        <time>2020-06-30T12:27:52Z</time>
      </trkpt>
      <trkpt lat="43.08048" lon="0.30238">
        <ele>454.8</ele>
        <time>2020-06-30T12:27:53Z</time>
      </trkpt>
      <trkpt lat="43.08036" lon="0.30243">
        <ele>454.2</ele>
        <time>2020-06-30T12:27:54Z</time>
      </trkpt>
      <trkpt lat="43.08025" lon="0.30246">
        <ele>453.4</ele>
        <time>2020-06-30T12:27:55Z</time>
      </trkpt>
      <trkpt lat="43.08014" lon="0.30253">
        <ele>452.8</ele>
        <time>2020-06-30T12:27:56Z</time>
      </trkpt>
      <trkpt lat="43.08006" lon="0.30263">
        <ele>452.2</ele>
        <time>2020-06-30T12:27:57Z</time>
      </trkpt>
      <trkpt lat="43.07996" lon="0.30271">
        <ele>451.2</ele>
        <time>2020-06-30T12:27:58Z</time>
      </trkpt>
      <trkpt lat="43.07987" lon="0.30281">
        <ele>450.4</ele>
        <time>2020-06-30T12:27:59Z</time>
      </trkpt>
      <trkpt lat="43.0798" lon="0.30292">
        <ele>450</ele>
        <time>2020-06-30T12:28:00Z</time>
      </trkpt>
      <trkpt lat="43.07973" lon="0.30302">
        <ele>449.2</ele>
        <time>2020-06-30T12:28:01Z</time>
      </trkpt>
      <trkpt lat="43.07966" lon="0.30308">
        <ele>448.6</ele>
        <time>2020-06-30T12:28:02Z</time>
      </trkpt>
      <trkpt lat="43.07951" lon="0.30316">
        <ele>447.2</ele>
        <time>2020-06-30T12:28:04Z</time>
      </trkpt>
      <trkpt lat="43.07945" lon="0.30313">
        <ele>446.6</ele>
        <time>2020-06-30T12:28:05Z</time>
      </trkpt>
      <trkpt lat="43.07938" lon="0.303">
        <ele>445.8</ele>
        <time>2020-06-30T12:28:07Z</time>
      </trkpt>
      <trkpt lat="43.07934" lon="0.30294">
        <ele>445.4</ele>
        <time>2020-06-30T12:28:08Z</time>
      </trkpt>
      <trkpt lat="43.07929" lon="0.30288">
        <ele>444.8</ele>
        <time>2020-06-30T12:28:09Z</time>
      </trkpt>
      <trkpt lat="43.07918" lon="0.30272">
        <ele>443.6</ele>
        <time>2020-06-30T12:28:11Z</time>
      </trkpt>
      <trkpt lat="43.07911" lon="0.30265">
        <ele>442.6</ele>
        <time>2020-06-30T12:28:12Z</time>
      </trkpt>
      <trkpt lat="43.07907" lon="0.30258">
        <ele>442.2</ele>
        <time>2020-06-30T12:28:13Z</time>
      </trkpt>
      <trkpt lat="43.07898" lon="0.30239">
        <ele>440.8</ele>
        <time>2020-06-30T12:28:15Z</time>
      </trkpt>
      <trkpt lat="43.07894" lon="0.30234">
        <ele>440</ele>
        <time>2020-06-30T12:28:16Z</time>
      </trkpt>
      <trkpt lat="43.07891" lon="0.30229">
        <ele>439.4</ele>
        <time>2020-06-30T12:28:17Z</time>
      </trkpt>
      <trkpt lat="43.07891" lon="0.30226">
        <ele>439.2</ele>
        <time>2020-06-30T12:28:18Z</time>
      </trkpt>
      <trkpt lat="43.0789" lon="0.30224">
        <ele>439</ele>
        <time>2020-06-30T12:28:19Z</time>
      </trkpt>
      <trkpt lat="43.07889" lon="0.30223">
        <ele>439</ele>
        <time>2020-06-30T12:28:20Z</time>
      </trkpt>
      <trkpt lat="43.07888" lon="0.30222">
        <ele>439</ele>
        <time>2020-06-30T12:28:22Z</time>
      </trkpt>
      <trkpt lat="43.07887" lon="0.30224">
        <ele>439</ele>
        <time>2020-06-30T12:28:23Z</time>
      </trkpt>
      <trkpt lat="43.07886" lon="0.30225">
        <ele>439</ele>
        <time>2020-06-30T12:28:24Z</time>
      </trkpt>
      <trkpt lat="43.07886" lon="0.30226">
        <ele>439</ele>
        <time>2020-06-30T12:28:25Z</time>
      </trkpt>
      <trkpt lat="43.07886" lon="0.3023">
        <ele>439</ele>
        <time>2020-06-30T12:28:27Z</time>
      </trkpt>
      <trkpt lat="43.07886" lon="0.30228">
        <ele>439</ele>
        <time>2020-06-30T12:28:28Z</time>
      </trkpt>
      <trkpt lat="43.07886" lon="0.30228">
        <ele>439.2</ele>
        <time>2020-06-30T12:28:29Z</time>
      </trkpt>
      <trkpt lat="43.07873" lon="0.30216">
        <ele>439</ele>
        <time>2020-06-30T12:29:14Z</time>
      </trkpt>
      <trkpt lat="43.0787" lon="0.30217">
        <ele>439</ele>
        <time>2020-06-30T12:29:15Z</time>
      </trkpt>
      <trkpt lat="43.07866" lon="0.30216">
        <ele>438.8</ele>
        <time>2020-06-30T12:29:16Z</time>
      </trkpt>
      <trkpt lat="43.07863" lon="0.30214">
        <ele>438.6</ele>
        <time>2020-06-30T12:29:17Z</time>
      </trkpt>
      <trkpt lat="43.0786" lon="0.30213">
        <ele>438.4</ele>
        <time>2020-06-30T12:29:18Z</time>
      </trkpt>
      <trkpt lat="43.07857" lon="0.30208">
        <ele>438.2</ele>
        <time>2020-06-30T12:29:19Z</time>
      </trkpt>
      <trkpt lat="43.07853" lon="0.30206">
        <ele>437.8</ele>
        <time>2020-06-30T12:29:20Z</time>
      </trkpt>
      <trkpt lat="43.07849" lon="0.302">
        <ele>437.4</ele>
        <time>2020-06-30T12:29:21Z</time>
      </trkpt>
      <trkpt lat="43.07845" lon="0.30198">
        <ele>437.2</ele>
        <time>2020-06-30T12:29:22Z</time>
      </trkpt>
      <trkpt lat="43.07839" lon="0.30194">
        <ele>436.8</ele>
        <time>2020-06-30T12:29:23Z</time>
      </trkpt>
      <trkpt lat="43.07836" lon="0.30191">
        <ele>436.4</ele>
        <time>2020-06-30T12:29:24Z</time>
      </trkpt>
      <trkpt lat="43.0783" lon="0.30188">
        <ele>436</ele>
        <time>2020-06-30T12:29:25Z</time>
      </trkpt>
      <trkpt lat="43.0782" lon="0.30181">
        <ele>435.2</ele>
        <time>2020-06-30T12:29:27Z</time>
      </trkpt>
      <trkpt lat="43.07813" lon="0.30178">
        <ele>434.6</ele>
        <time>2020-06-30T12:29:28Z</time>
      </trkpt>
      <trkpt lat="43.07807" lon="0.30175">
        <ele>434.2</ele>
        <time>2020-06-30T12:29:29Z</time>
      </trkpt>
      <trkpt lat="43.07801" lon="0.3017">
        <ele>433.6</ele>
        <time>2020-06-30T12:29:30Z</time>
      </trkpt>
      <trkpt lat="43.07797" lon="0.30168">
        <ele>433.2</ele>
        <time>2020-06-30T12:29:31Z</time>
      </trkpt>
      <trkpt lat="43.07791" lon="0.30164">
        <ele>432.8</ele>
        <time>2020-06-30T12:29:32Z</time>
      </trkpt>
      <trkpt lat="43.07775" lon="0.30157">
        <ele>431.8</ele>
        <time>2020-06-30T12:29:34Z</time>
      </trkpt>
      <trkpt lat="43.07766" lon="0.30151">
        <ele>431.2</ele>
        <time>2020-06-30T12:29:35Z</time>
      </trkpt>
      <trkpt lat="43.07752" lon="0.30134">
        <ele>430.4</ele>
        <time>2020-06-30T12:29:37Z</time>
      </trkpt>
      <trkpt lat="43.07743" lon="0.30129">
        <ele>429.6</ele>
        <time>2020-06-30T12:29:38Z</time>
      </trkpt>
      <trkpt lat="43.07732" lon="0.30128">
        <ele>429</ele>
        <time>2020-06-30T12:29:39Z</time>
      </trkpt>
      <trkpt lat="43.07712" lon="0.30123">
        <ele>427.8</ele>
        <time>2020-06-30T12:29:41Z</time>
      </trkpt>
      <trkpt lat="43.07701" lon="0.3012">
        <ele>427</ele>
        <time>2020-06-30T12:29:42Z</time>
      </trkpt>
      <trkpt lat="43.07689" lon="0.30121">
        <ele>426.4</ele>
        <time>2020-06-30T12:29:43Z</time>
      </trkpt>
      <trkpt lat="43.07677" lon="0.30121">
        <ele>425.6</ele>
        <time>2020-06-30T12:29:44Z</time>
      </trkpt>
      <trkpt lat="43.07655" lon="0.30125">
        <ele>424.6</ele>
        <time>2020-06-30T12:29:46Z</time>
      </trkpt>
      <trkpt lat="43.07645" lon="0.30128">
        <ele>424</ele>
        <time>2020-06-30T12:29:47Z</time>
      </trkpt>
      <trkpt lat="43.07623" lon="0.30133">
        <ele>422.6</ele>
        <time>2020-06-30T12:29:49Z</time>
      </trkpt>
      <trkpt lat="43.07611" lon="0.30136">
        <ele>421.8</ele>
        <time>2020-06-30T12:29:50Z</time>
      </trkpt>
      <trkpt lat="43.076" lon="0.30139">
        <ele>420.8</ele>
        <time>2020-06-30T12:29:51Z</time>
      </trkpt>
      <trkpt lat="43.07588" lon="0.30139">
        <ele>420.2</ele>
        <time>2020-06-30T12:29:52Z</time>
      </trkpt>
      <trkpt lat="43.07576" lon="0.3014">
        <ele>419.4</ele>
        <time>2020-06-30T12:29:53Z</time>
      </trkpt>
      <trkpt lat="43.07554" lon="0.30142">
        <ele>417.8</ele>
        <time>2020-06-30T12:29:55Z</time>
      </trkpt>
      <trkpt lat="43.07541" lon="0.30142">
        <ele>417</ele>
        <time>2020-06-30T12:29:56Z</time>
      </trkpt>
      <trkpt lat="43.0753" lon="0.30144">
        <ele>416.2</ele>
        <time>2020-06-30T12:29:57Z</time>
      </trkpt>
      <trkpt lat="43.07506" lon="0.30145">
        <ele>414.8</ele>
        <time>2020-06-30T12:29:59Z</time>
      </trkpt>
      <trkpt lat="43.07496" lon="0.30146">
        <ele>414</ele>
        <time>2020-06-30T12:30:00Z</time>
      </trkpt>
      <trkpt lat="43.07486" lon="0.30147">
        <ele>413.4</ele>
        <time>2020-06-30T12:30:01Z</time>
      </trkpt>
      <trkpt lat="43.07477" lon="0.30152">
        <ele>412.6</ele>
        <time>2020-06-30T12:30:02Z</time>
      </trkpt>
      <trkpt lat="43.07468" lon="0.30155">
        <ele>411.8</ele>
        <time>2020-06-30T12:30:03Z</time>
      </trkpt>
      <trkpt lat="43.07458" lon="0.30159">
        <ele>411</ele>
        <time>2020-06-30T12:30:04Z</time>
      </trkpt>
      <trkpt lat="43.07449" lon="0.30159">
        <ele>410.4</ele>
        <time>2020-06-30T12:30:05Z</time>
      </trkpt>
      <trkpt lat="43.07443" lon="0.30154">
        <ele>409.4</ele>
        <time>2020-06-30T12:30:06Z</time>
      </trkpt>
      <trkpt lat="43.07438" lon="0.30146">
        <ele>408.8</ele>
        <time>2020-06-30T12:30:07Z</time>
      </trkpt>
      <trkpt lat="43.07432" lon="0.30133">
        <ele>408</ele>
        <time>2020-06-30T12:30:09Z</time>
      </trkpt>
      <trkpt lat="43.07431" lon="0.30126">
        <ele>407.2</ele>
        <time>2020-06-30T12:30:10Z</time>
      </trkpt>
      <trkpt lat="43.07432" lon="0.30117">
        <ele>406.8</ele>
        <time>2020-06-30T12:30:11Z</time>
      </trkpt>
      <trkpt lat="43.07433" lon="0.30108">
        <ele>406.2</ele>
        <time>2020-06-30T12:30:12Z</time>
      </trkpt>
      <trkpt lat="43.0744" lon="0.30089">
        <ele>405.2</ele>
        <time>2020-06-30T12:30:14Z</time>
      </trkpt>
      <trkpt lat="43.07445" lon="0.3008">
        <ele>404.4</ele>
        <time>2020-06-30T12:30:15Z</time>
      </trkpt>
      <trkpt lat="43.07449" lon="0.3007">
        <ele>403.8</ele>
        <time>2020-06-30T12:30:16Z</time>
      </trkpt>
      <trkpt lat="43.07452" lon="0.3006">
        <ele>403.2</ele>
        <time>2020-06-30T12:30:17Z</time>
      </trkpt>
      <trkpt lat="43.07456" lon="0.30049">
        <ele>402.4</ele>
        <time>2020-06-30T12:30:18Z</time>
      </trkpt>
      <trkpt lat="43.07459" lon="0.30038">
        <ele>401.8</ele>
        <time>2020-06-30T12:30:19Z</time>
      </trkpt>
      <trkpt lat="43.07461" lon="0.30026">
        <ele>401.2</ele>
        <time>2020-06-30T12:30:20Z</time>
      </trkpt>
      <trkpt lat="43.07465" lon="0.30004">
        <ele>400</ele>
        <time>2020-06-30T12:30:22Z</time>
      </trkpt>
      <trkpt lat="43.07466" lon="0.29993">
        <ele>399</ele>
        <time>2020-06-30T12:30:23Z</time>
      </trkpt>
      <trkpt lat="43.07472" lon="0.29967">
        <ele>397.8</ele>
        <time>2020-06-30T12:30:25Z</time>
      </trkpt>
      <trkpt lat="43.07477" lon="0.29955">
        <ele>396.8</ele>
        <time>2020-06-30T12:30:26Z</time>
      </trkpt>
      <trkpt lat="43.07483" lon="0.29943">
        <ele>396.2</ele>
        <time>2020-06-30T12:30:27Z</time>
      </trkpt>
      <trkpt lat="43.07489" lon="0.29932">
        <ele>395.6</ele>
        <time>2020-06-30T12:30:28Z</time>
      </trkpt>
      <trkpt lat="43.07496" lon="0.29922">
        <ele>395</ele>
        <time>2020-06-30T12:30:29Z</time>
      </trkpt>
      <trkpt lat="43.07503" lon="0.29912">
        <ele>394.4</ele>
        <time>2020-06-30T12:30:30Z</time>
      </trkpt>
      <trkpt lat="43.07516" lon="0.2989">
        <ele>393.2</ele>
        <time>2020-06-30T12:30:32Z</time>
      </trkpt>
      <trkpt lat="43.07522" lon="0.29883">
        <ele>392.8</ele>
        <time>2020-06-30T12:30:33Z</time>
      </trkpt>
      <trkpt lat="43.07529" lon="0.29877">
        <ele>392.4</ele>
        <time>2020-06-30T12:30:34Z</time>
      </trkpt>
      <trkpt lat="43.07535" lon="0.29872">
        <ele>392</ele>
        <time>2020-06-30T12:30:35Z</time>
      </trkpt>
      <trkpt lat="43.07538" lon="0.29866">
        <ele>391.4</ele>
        <time>2020-06-30T12:30:36Z</time>
      </trkpt>
      <trkpt lat="43.0754" lon="0.29861">
        <ele>391</ele>
        <time>2020-06-30T12:30:37Z</time>
      </trkpt>
      <trkpt lat="43.0754" lon="0.29855">
        <ele>390.4</ele>
        <time>2020-06-30T12:30:38Z</time>
      </trkpt>
      <trkpt lat="43.0754" lon="0.2985">
        <ele>390</ele>
        <time>2020-06-30T12:30:39Z</time>
      </trkpt>
      <trkpt lat="43.07541" lon="0.29846">
        <ele>389.6</ele>
        <time>2020-06-30T12:30:40Z</time>
      </trkpt>
      <trkpt lat="43.07541" lon="0.29843">
        <ele>389.4</ele>
        <time>2020-06-30T12:30:42Z</time>
      </trkpt>
      <trkpt lat="43.07541" lon="0.29842">
        <ele>389.4</ele>
        <time>2020-06-30T12:30:43Z</time>
      </trkpt>
      <trkpt lat="43.07541" lon="0.29841">
        <ele>389.4</ele>
        <time>2020-06-30T12:30:44Z</time>
      </trkpt>
      <trkpt lat="43.07541" lon="0.2984">
        <ele>389.4</ele>
        <time>2020-06-30T12:30:45Z</time>
      </trkpt>
      <trkpt lat="43.07541" lon="0.2984">
        <ele>389.4</ele>
        <time>2020-06-30T12:30:46Z</time>
      </trkpt>
      <trkpt lat="43.07542" lon="0.29838">
        <ele>389.2</ele>
        <time>2020-06-30T12:30:47Z</time>
      </trkpt>
      <trkpt lat="43.07541" lon="0.2983">
        <ele>388.8</ele>
        <time>2020-06-30T12:30:49Z</time>
      </trkpt>
      <trkpt lat="43.07541" lon="0.29825">
        <ele>388.6</ele>
        <time>2020-06-30T12:30:50Z</time>
      </trkpt>
      <trkpt lat="43.07539" lon="0.29817">
        <ele>388.4</ele>
        <time>2020-06-30T12:30:51Z</time>
      </trkpt>
      <trkpt lat="43.07538" lon="0.2981">
        <ele>388</ele>
        <time>2020-06-30T12:30:52Z</time>
      </trkpt>
      <trkpt lat="43.07535" lon="0.29802">
        <ele>388</ele>
        <time>2020-06-30T12:30:53Z</time>
      </trkpt>
      <trkpt lat="43.07528" lon="0.29781">
        <ele>386.8</ele>
        <time>2020-06-30T12:30:55Z</time>
      </trkpt>
      <trkpt lat="43.07523" lon="0.2977">
        <ele>386.4</ele>
        <time>2020-06-30T12:30:56Z</time>
      </trkpt>
      <trkpt lat="43.0752" lon="0.29761">
        <ele>386</ele>
        <time>2020-06-30T12:30:57Z</time>
      </trkpt>
      <trkpt lat="43.07511" lon="0.29744">
        <ele>384.8</ele>
        <time>2020-06-30T12:30:59Z</time>
      </trkpt>
      <trkpt lat="43.07506" lon="0.29736">
        <ele>384.4</ele>
        <time>2020-06-30T12:31:00Z</time>
      </trkpt>
      <trkpt lat="43.07503" lon="0.29729">
        <ele>383.8</ele>
        <time>2020-06-30T12:31:01Z</time>
      </trkpt>
      <trkpt lat="43.07499" lon="0.29718">
        <ele>383.2</ele>
        <time>2020-06-30T12:31:02Z</time>
      </trkpt>
      <trkpt lat="43.07494" lon="0.29707">
        <ele>382.4</ele>
        <time>2020-06-30T12:31:03Z</time>
      </trkpt>
      <trkpt lat="43.07489" lon="0.29697">
        <ele>381.8</ele>
        <time>2020-06-30T12:31:04Z</time>
      </trkpt>
      <trkpt lat="43.07486" lon="0.29687">
        <ele>381.2</ele>
        <time>2020-06-30T12:31:05Z</time>
      </trkpt>
      <trkpt lat="43.07479" lon="0.2968">
        <ele>380.6</ele>
        <time>2020-06-30T12:31:06Z</time>
      </trkpt>
      <trkpt lat="43.0747" lon="0.29671">
        <ele>379.8</ele>
        <time>2020-06-30T12:31:07Z</time>
      </trkpt>
      <trkpt lat="43.07463" lon="0.29663">
        <ele>379.2</ele>
        <time>2020-06-30T12:31:08Z</time>
      </trkpt>
      <trkpt lat="43.07453" lon="0.29658">
        <ele>378.8</ele>
        <time>2020-06-30T12:31:09Z</time>
      </trkpt>
      <trkpt lat="43.07447" lon="0.29648">
        <ele>378.2</ele>
        <time>2020-06-30T12:31:10Z</time>
      </trkpt>
      <trkpt lat="43.07443" lon="0.29639">
        <ele>377.6</ele>
        <time>2020-06-30T12:31:11Z</time>
      </trkpt>
      <trkpt lat="43.07439" lon="0.29633">
        <ele>377.2</ele>
        <time>2020-06-30T12:31:12Z</time>
      </trkpt>
      <trkpt lat="43.07438" lon="0.29624">
        <ele>376.8</ele>
        <time>2020-06-30T12:31:13Z</time>
      </trkpt>
      <trkpt lat="43.07438" lon="0.29613">
        <ele>376.2</ele>
        <time>2020-06-30T12:31:14Z</time>
      </trkpt>
      <trkpt lat="43.0744" lon="0.29596">
        <ele>375.2</ele>
        <time>2020-06-30T12:31:16Z</time>
      </trkpt>
      <trkpt lat="43.07441" lon="0.29587">
        <ele>374.6</ele>
        <time>2020-06-30T12:31:17Z</time>
      </trkpt>
      <trkpt lat="43.07442" lon="0.29579">
        <ele>374.2</ele>
        <time>2020-06-30T12:31:18Z</time>
      </trkpt>
      <trkpt lat="43.07445" lon="0.29556">
        <ele>373.2</ele>
        <time>2020-06-30T12:31:20Z</time>
      </trkpt>
      <trkpt lat="43.07444" lon="0.29544">
        <ele>372.6</ele>
        <time>2020-06-30T12:31:21Z</time>
      </trkpt>
      <trkpt lat="43.07445" lon="0.29533">
        <ele>372</ele>
        <time>2020-06-30T12:31:22Z</time>
      </trkpt>
      <trkpt lat="43.07445" lon="0.29521">
        <ele>371.4</ele>
        <time>2020-06-30T12:31:23Z</time>
      </trkpt>
      <trkpt lat="43.07443" lon="0.29496">
        <ele>370.4</ele>
        <time>2020-06-30T12:31:25Z</time>
      </trkpt>
      <trkpt lat="43.07443" lon="0.29486">
        <ele>369.8</ele>
        <time>2020-06-30T12:31:26Z</time>
      </trkpt>
      <trkpt lat="43.0744" lon="0.29474">
        <ele>369.2</ele>
        <time>2020-06-30T12:31:27Z</time>
      </trkpt>
      <trkpt lat="43.07437" lon="0.29464">
        <ele>368.6</ele>
        <time>2020-06-30T12:31:28Z</time>
      </trkpt>
      <trkpt lat="43.07433" lon="0.29455">
        <ele>368.4</ele>
        <time>2020-06-30T12:31:29Z</time>
      </trkpt>
      <trkpt lat="43.07426" lon="0.29437">
        <ele>367.6</ele>
        <time>2020-06-30T12:31:31Z</time>
      </trkpt>
      <trkpt lat="43.07421" lon="0.29428">
        <ele>367</ele>
        <time>2020-06-30T12:31:32Z</time>
      </trkpt>
      <trkpt lat="43.07418" lon="0.29421">
        <ele>366.4</ele>
        <time>2020-06-30T12:31:33Z</time>
      </trkpt>
      <trkpt lat="43.07415" lon="0.29406">
        <ele>365.4</ele>
        <time>2020-06-30T12:31:35Z</time>
      </trkpt>
      <trkpt lat="43.07415" lon="0.29398">
        <ele>364.8</ele>
        <time>2020-06-30T12:31:36Z</time>
      </trkpt>
      <trkpt lat="43.07417" lon="0.29393">
        <ele>364.6</ele>
        <time>2020-06-30T12:31:37Z</time>
      </trkpt>
      <trkpt lat="43.07423" lon="0.29389">
        <ele>364.6</ele>
        <time>2020-06-30T12:31:39Z</time>
      </trkpt>
      <trkpt lat="43.07427" lon="0.29389">
        <ele>364.4</ele>
        <time>2020-06-30T12:31:40Z</time>
      </trkpt>
      <trkpt lat="43.07431" lon="0.29388">
        <ele>364.4</ele>
        <time>2020-06-30T12:31:41Z</time>
      </trkpt>
      <trkpt lat="43.07436" lon="0.29388">
        <ele>364.4</ele>
        <time>2020-06-30T12:31:42Z</time>
      </trkpt>
      <trkpt lat="43.0744" lon="0.29387">
        <ele>364.2</ele>
        <time>2020-06-30T12:31:43Z</time>
      </trkpt>
      <trkpt lat="43.07445" lon="0.29387">
        <ele>364.2</ele>
        <time>2020-06-30T12:31:44Z</time>
      </trkpt>
      <trkpt lat="43.07448" lon="0.29385">
        <ele>364.2</ele>
        <time>2020-06-30T12:31:45Z</time>
      </trkpt>
      <trkpt lat="43.07452" lon="0.29384">
        <ele>364.2</ele>
        <time>2020-06-30T12:31:46Z</time>
      </trkpt>
      <trkpt lat="43.07457" lon="0.29382">
        <ele>364.2</ele>
        <time>2020-06-30T12:31:47Z</time>
      </trkpt>
      <trkpt lat="43.07462" lon="0.29382">
        <ele>364.2</ele>
        <time>2020-06-30T12:31:48Z</time>
      </trkpt>
      <trkpt lat="43.07466" lon="0.2938">
        <ele>364</ele>
        <time>2020-06-30T12:31:49Z</time>
      </trkpt>
      <trkpt lat="43.07471" lon="0.29379">
        <ele>364</ele>
        <time>2020-06-30T12:31:50Z</time>
      </trkpt>
      <trkpt lat="43.0748" lon="0.29377">
        <ele>364</ele>
        <time>2020-06-30T12:31:52Z</time>
      </trkpt>
      <trkpt lat="43.07485" lon="0.29376">
        <ele>363.8</ele>
        <time>2020-06-30T12:31:53Z</time>
      </trkpt>
      <trkpt lat="43.07489" lon="0.29375">
        <ele>363.8</ele>
        <time>2020-06-30T12:31:54Z</time>
      </trkpt>
      <trkpt lat="43.07494" lon="0.29371">
        <ele>363.8</ele>
        <time>2020-06-30T12:31:55Z</time>
      </trkpt>
      <trkpt lat="43.07499" lon="0.29367">
        <ele>363.8</ele>
        <time>2020-06-30T12:31:56Z</time>
      </trkpt>
      <trkpt lat="43.07503" lon="0.29366">
        <ele>363.8</ele>
        <time>2020-06-30T12:31:57Z</time>
      </trkpt>
      <trkpt lat="43.07507" lon="0.29364">
        <ele>363.8</ele>
        <time>2020-06-30T12:31:58Z</time>
      </trkpt>
      <trkpt lat="43.07516" lon="0.29357">
        <ele>363.8</ele>
        <time>2020-06-30T12:32:00Z</time>
      </trkpt>
      <trkpt lat="43.0752" lon="0.29355">
        <ele>363.8</ele>
        <time>2020-06-30T12:32:01Z</time>
      </trkpt>
      <trkpt lat="43.07524" lon="0.29355">
        <ele>363.8</ele>
        <time>2020-06-30T12:32:02Z</time>
      </trkpt>
      <trkpt lat="43.07534" lon="0.29352">
        <ele>363.8</ele>
        <time>2020-06-30T12:32:04Z</time>
      </trkpt>
      <trkpt lat="43.0754" lon="0.2935">
        <ele>364</ele>
        <time>2020-06-30T12:32:05Z</time>
      </trkpt>
      <trkpt lat="43.07545" lon="0.29346">
        <ele>363.8</ele>
        <time>2020-06-30T12:32:06Z</time>
      </trkpt>
      <trkpt lat="43.07551" lon="0.29343">
        <ele>363.8</ele>
        <time>2020-06-30T12:32:07Z</time>
      </trkpt>
      <trkpt lat="43.07553" lon="0.29339">
        <ele>363.8</ele>
        <time>2020-06-30T12:32:08Z</time>
      </trkpt>
      <trkpt lat="43.07557" lon="0.29336">
        <ele>363.6</ele>
        <time>2020-06-30T12:32:09Z</time>
      </trkpt>
      <trkpt lat="43.07561" lon="0.29332">
        <ele>363.6</ele>
        <time>2020-06-30T12:32:10Z</time>
      </trkpt>
      <trkpt lat="43.07566" lon="0.29329">
        <ele>363.6</ele>
        <time>2020-06-30T12:32:11Z</time>
      </trkpt>
      <trkpt lat="43.07572" lon="0.29325">
        <ele>363.6</ele>
        <time>2020-06-30T12:32:12Z</time>
      </trkpt>
      <trkpt lat="43.07575" lon="0.29318">
        <ele>363.6</ele>
        <time>2020-06-30T12:32:13Z</time>
      </trkpt>
      <trkpt lat="43.07581" lon="0.29306">
        <ele>363.8</ele>
        <time>2020-06-30T12:32:15Z</time>
      </trkpt>
      <trkpt lat="43.07585" lon="0.29304">
        <ele>363.8</ele>
        <time>2020-06-30T12:32:16Z</time>
      </trkpt>
      <trkpt lat="43.0759" lon="0.29302">
        <ele>363.8</ele>
        <time>2020-06-30T12:32:17Z</time>
      </trkpt>
      <trkpt lat="43.07593" lon="0.29297">
        <ele>363.8</ele>
        <time>2020-06-30T12:32:18Z</time>
      </trkpt>
      <trkpt lat="43.07595" lon="0.29289">
        <ele>363.6</ele>
        <time>2020-06-30T12:32:19Z</time>
      </trkpt>
      <trkpt lat="43.07599" lon="0.29286">
        <ele>363.6</ele>
        <time>2020-06-30T12:32:20Z</time>
      </trkpt>
      <trkpt lat="43.07601" lon="0.29281">
        <ele>363.6</ele>
        <time>2020-06-30T12:32:21Z</time>
      </trkpt>
      <trkpt lat="43.07604" lon="0.29279">
        <ele>363.8</ele>
        <time>2020-06-30T12:32:22Z</time>
      </trkpt>
      <trkpt lat="43.07608" lon="0.29276">
        <ele>363.8</ele>
        <time>2020-06-30T12:32:23Z</time>
      </trkpt>
      <trkpt lat="43.07611" lon="0.29273">
        <ele>363.6</ele>
        <time>2020-06-30T12:32:24Z</time>
      </trkpt>
      <trkpt lat="43.07613" lon="0.29267">
        <ele>363.6</ele>
        <time>2020-06-30T12:32:25Z</time>
      </trkpt>
      <trkpt lat="43.07617" lon="0.29262">
        <ele>363.6</ele>
        <time>2020-06-30T12:32:26Z</time>
      </trkpt>
      <trkpt lat="43.0762" lon="0.2926">
        <ele>363.6</ele>
        <time>2020-06-30T12:32:27Z</time>
      </trkpt>
      <trkpt lat="43.07623" lon="0.29258">
        <ele>363.8</ele>
        <time>2020-06-30T12:32:28Z</time>
      </trkpt>
      <trkpt lat="43.07627" lon="0.29256">
        <ele>363.8</ele>
        <time>2020-06-30T12:32:29Z</time>
      </trkpt>
      <trkpt lat="43.0763" lon="0.29252">
        <ele>363.8</ele>
        <time>2020-06-30T12:32:30Z</time>
      </trkpt>
      <trkpt lat="43.07633" lon="0.2925">
        <ele>363.8</ele>
        <time>2020-06-30T12:32:31Z</time>
      </trkpt>
      <trkpt lat="43.07641" lon="0.29241">
        <ele>364</ele>
        <time>2020-06-30T12:32:33Z</time>
      </trkpt>
      <trkpt lat="43.07648" lon="0.29239">
        <ele>364</ele>
        <time>2020-06-30T12:32:34Z</time>
      </trkpt>
      <trkpt lat="43.07651" lon="0.29235">
        <ele>364</ele>
        <time>2020-06-30T12:32:35Z</time>
      </trkpt>
      <trkpt lat="43.07656" lon="0.29224">
        <ele>364.2</ele>
        <time>2020-06-30T12:32:37Z</time>
      </trkpt>
      <trkpt lat="43.07659" lon="0.2922">
        <ele>364.2</ele>
        <time>2020-06-30T12:32:38Z</time>
      </trkpt>
      <trkpt lat="43.07661" lon="0.29216">
        <ele>364.2</ele>
        <time>2020-06-30T12:32:39Z</time>
      </trkpt>
      <trkpt lat="43.07663" lon="0.29211">
        <ele>364.2</ele>
        <time>2020-06-30T12:32:40Z</time>
      </trkpt>
      <trkpt lat="43.07664" lon="0.29207">
        <ele>364.4</ele>
        <time>2020-06-30T12:32:41Z</time>
      </trkpt>
      <trkpt lat="43.07666" lon="0.29202">
        <ele>364.4</ele>
        <time>2020-06-30T12:32:42Z</time>
      </trkpt>
      <trkpt lat="43.07667" lon="0.29197">
        <ele>364.4</ele>
        <time>2020-06-30T12:32:43Z</time>
      </trkpt>
      <trkpt lat="43.07669" lon="0.29192">
        <ele>364.6</ele>
        <time>2020-06-30T12:32:44Z</time>
      </trkpt>
      <trkpt lat="43.07671" lon="0.29188">
        <ele>364.6</ele>
        <time>2020-06-30T12:32:45Z</time>
      </trkpt>
      <trkpt lat="43.07672" lon="0.29184">
        <ele>364.6</ele>
        <time>2020-06-30T12:32:46Z</time>
      </trkpt>
      <trkpt lat="43.07674" lon="0.29179">
        <ele>364.8</ele>
        <time>2020-06-30T12:32:47Z</time>
      </trkpt>
      <trkpt lat="43.07676" lon="0.29175">
        <ele>365</ele>
        <time>2020-06-30T12:32:48Z</time>
      </trkpt>
      <trkpt lat="43.07678" lon="0.29171">
        <ele>365</ele>
        <time>2020-06-30T12:32:49Z</time>
      </trkpt>
      <trkpt lat="43.0768" lon="0.29167">
        <ele>365</ele>
        <time>2020-06-30T12:32:50Z</time>
      </trkpt>
      <trkpt lat="43.07682" lon="0.29163">
        <ele>365.2</ele>
        <time>2020-06-30T12:32:51Z</time>
      </trkpt>
      <trkpt lat="43.07684" lon="0.29158">
        <ele>365.2</ele>
        <time>2020-06-30T12:32:52Z</time>
      </trkpt>
      <trkpt lat="43.07687" lon="0.29149">
        <ele>365.2</ele>
        <time>2020-06-30T12:32:54Z</time>
      </trkpt>
      <trkpt lat="43.07688" lon="0.29145">
        <ele>365.2</ele>
        <time>2020-06-30T12:32:55Z</time>
      </trkpt>
      <trkpt lat="43.07688" lon="0.2914">
        <ele>365.2</ele>
        <time>2020-06-30T12:32:56Z</time>
      </trkpt>
      <trkpt lat="43.07689" lon="0.29135">
        <ele>365.4</ele>
        <time>2020-06-30T12:32:57Z</time>
      </trkpt>
      <trkpt lat="43.0769" lon="0.29125">
        <ele>365.4</ele>
        <time>2020-06-30T12:32:59Z</time>
      </trkpt>
      <trkpt lat="43.07691" lon="0.2912">
        <ele>365.6</ele>
        <time>2020-06-30T12:33:00Z</time>
      </trkpt>
      <trkpt lat="43.07691" lon="0.29116">
        <ele>365.6</ele>
        <time>2020-06-30T12:33:01Z</time>
      </trkpt>
      <trkpt lat="43.0769" lon="0.29111">
        <ele>365.6</ele>
        <time>2020-06-30T12:33:02Z</time>
      </trkpt>
      <trkpt lat="43.07691" lon="0.29103">
        <ele>365.8</ele>
        <time>2020-06-30T12:33:04Z</time>
      </trkpt>
      <trkpt lat="43.07691" lon="0.291">
        <ele>365.8</ele>
        <time>2020-06-30T12:33:05Z</time>
      </trkpt>
      <trkpt lat="43.07692" lon="0.29097">
        <ele>366</ele>
        <time>2020-06-30T12:33:06Z</time>
      </trkpt>
      <trkpt lat="43.07691" lon="0.29094">
        <ele>366</ele>
        <time>2020-06-30T12:33:07Z</time>
      </trkpt>
      <trkpt lat="43.07692" lon="0.2909">
        <ele>366</ele>
        <time>2020-06-30T12:33:08Z</time>
      </trkpt>
      <trkpt lat="43.07692" lon="0.29086">
        <ele>366</ele>
        <time>2020-06-30T12:33:09Z</time>
      </trkpt>
      <trkpt lat="43.0769" lon="0.29082">
        <ele>366.2</ele>
        <time>2020-06-30T12:33:10Z</time>
      </trkpt>
      <trkpt lat="43.0769" lon="0.29079">
        <ele>366.2</ele>
        <time>2020-06-30T12:33:11Z</time>
      </trkpt>
      <trkpt lat="43.07689" lon="0.29075">
        <ele>366.2</ele>
        <time>2020-06-30T12:33:12Z</time>
      </trkpt>
      <trkpt lat="43.07689" lon="0.29071">
        <ele>366.2</ele>
        <time>2020-06-30T12:33:13Z</time>
      </trkpt>
      <trkpt lat="43.07688" lon="0.29067">
        <ele>366.2</ele>
        <time>2020-06-30T12:33:14Z</time>
      </trkpt>
      <trkpt lat="43.07686" lon="0.2906">
        <ele>366.4</ele>
        <time>2020-06-30T12:33:16Z</time>
      </trkpt>
      <trkpt lat="43.07685" lon="0.29056">
        <ele>366.4</ele>
        <time>2020-06-30T12:33:17Z</time>
      </trkpt>
      <trkpt lat="43.07683" lon="0.29052">
        <ele>366.4</ele>
        <time>2020-06-30T12:33:18Z</time>
      </trkpt>
      <trkpt lat="43.07681" lon="0.29047">
        <ele>366.4</ele>
        <time>2020-06-30T12:33:19Z</time>
      </trkpt>
      <trkpt lat="43.0768" lon="0.29043">
        <ele>366.4</ele>
        <time>2020-06-30T12:33:20Z</time>
      </trkpt>
      <trkpt lat="43.07677" lon="0.29032">
        <ele>366.6</ele>
        <time>2020-06-30T12:33:22Z</time>
      </trkpt>
      <trkpt lat="43.07675" lon="0.29026">
        <ele>366.6</ele>
        <time>2020-06-30T12:33:23Z</time>
      </trkpt>
      <trkpt lat="43.07674" lon="0.2902">
        <ele>366.6</ele>
        <time>2020-06-30T12:33:24Z</time>
      </trkpt>
      <trkpt lat="43.07674" lon="0.29014">
        <ele>366.6</ele>
        <time>2020-06-30T12:33:25Z</time>
      </trkpt>
      <trkpt lat="43.07672" lon="0.29008">
        <ele>366.6</ele>
        <time>2020-06-30T12:33:26Z</time>
      </trkpt>
      <trkpt lat="43.07673" lon="0.29001">
        <ele>366.8</ele>
        <time>2020-06-30T12:33:27Z</time>
      </trkpt>
      <trkpt lat="43.07671" lon="0.28998">
        <ele>366.8</ele>
        <time>2020-06-30T12:33:28Z</time>
      </trkpt>
      <trkpt lat="43.07671" lon="0.28993">
        <ele>366.8</ele>
        <time>2020-06-30T12:33:29Z</time>
      </trkpt>
      <trkpt lat="43.07672" lon="0.2899">
        <ele>366.8</ele>
        <time>2020-06-30T12:33:30Z</time>
      </trkpt>
      <trkpt lat="43.07672" lon="0.28987">
        <ele>366.8</ele>
        <time>2020-06-30T12:33:31Z</time>
      </trkpt>
      <trkpt lat="43.07674" lon="0.28984">
        <ele>366.8</ele>
        <time>2020-06-30T12:33:32Z</time>
      </trkpt>
      <trkpt lat="43.07675" lon="0.28981">
        <ele>366.6</ele>
        <time>2020-06-30T12:33:33Z</time>
      </trkpt>
      <trkpt lat="43.07677" lon="0.28979">
        <ele>366.6</ele>
        <time>2020-06-30T12:33:34Z</time>
      </trkpt>
      <trkpt lat="43.07681" lon="0.28978">
        <ele>366.6</ele>
        <time>2020-06-30T12:33:35Z</time>
      </trkpt>
      <trkpt lat="43.07684" lon="0.28976">
        <ele>366.6</ele>
        <time>2020-06-30T12:33:36Z</time>
      </trkpt>
      <trkpt lat="43.07687" lon="0.28976">
        <ele>366.4</ele>
        <time>2020-06-30T12:33:37Z</time>
      </trkpt>
      <trkpt lat="43.07691" lon="0.28976">
        <ele>366.4</ele>
        <time>2020-06-30T12:33:38Z</time>
      </trkpt>
      <trkpt lat="43.07694" lon="0.28975">
        <ele>366.4</ele>
        <time>2020-06-30T12:33:39Z</time>
      </trkpt>
      <trkpt lat="43.07698" lon="0.28975">
        <ele>366.4</ele>
        <time>2020-06-30T12:33:40Z</time>
      </trkpt>
      <trkpt lat="43.07706" lon="0.28978">
        <ele>366.2</ele>
        <time>2020-06-30T12:33:42Z</time>
      </trkpt>
      <trkpt lat="43.07709" lon="0.2898">
        <ele>366.2</ele>
        <time>2020-06-30T12:33:43Z</time>
      </trkpt>
      <trkpt lat="43.07714" lon="0.28981">
        <ele>366.2</ele>
        <time>2020-06-30T12:33:44Z</time>
      </trkpt>
      <trkpt lat="43.07721" lon="0.28984">
        <ele>366</ele>
        <time>2020-06-30T12:33:46Z</time>
      </trkpt>
      <trkpt lat="43.07726" lon="0.28986">
        <ele>366</ele>
        <time>2020-06-30T12:33:47Z</time>
      </trkpt>
      <trkpt lat="43.07731" lon="0.2899">
        <ele>365.8</ele>
        <time>2020-06-30T12:33:48Z</time>
      </trkpt>
      <trkpt lat="43.07735" lon="0.28992">
        <ele>365.8</ele>
        <time>2020-06-30T12:33:49Z</time>
      </trkpt>
      <trkpt lat="43.0774" lon="0.28996">
        <ele>365.6</ele>
        <time>2020-06-30T12:33:50Z</time>
      </trkpt>
      <trkpt lat="43.07744" lon="0.28997">
        <ele>365.6</ele>
        <time>2020-06-30T12:33:51Z</time>
      </trkpt>
      <trkpt lat="43.07748" lon="0.29001">
        <ele>365.4</ele>
        <time>2020-06-30T12:33:52Z</time>
      </trkpt>
      <trkpt lat="43.07753" lon="0.29004">
        <ele>365.2</ele>
        <time>2020-06-30T12:33:53Z</time>
      </trkpt>
      <trkpt lat="43.07757" lon="0.29007">
        <ele>365.2</ele>
        <time>2020-06-30T12:33:54Z</time>
      </trkpt>
      <trkpt lat="43.07767" lon="0.29008">
        <ele>365</ele>
        <time>2020-06-30T12:33:56Z</time>
      </trkpt>
      <trkpt lat="43.07772" lon="0.29009">
        <ele>364.8</ele>
        <time>2020-06-30T12:33:57Z</time>
      </trkpt>
      <trkpt lat="43.07778" lon="0.29009">
        <ele>364.8</ele>
        <time>2020-06-30T12:33:58Z</time>
      </trkpt>
      <trkpt lat="43.07783" lon="0.29009">
        <ele>364.6</ele>
        <time>2020-06-30T12:33:59Z</time>
      </trkpt>
      <trkpt lat="43.07787" lon="0.29011">
        <ele>364.4</ele>
        <time>2020-06-30T12:34:00Z</time>
      </trkpt>
      <trkpt lat="43.07799" lon="0.29013">
        <ele>364.4</ele>
        <time>2020-06-30T12:34:02Z</time>
      </trkpt>
      <trkpt lat="43.07804" lon="0.29014">
        <ele>364.2</ele>
        <time>2020-06-30T12:34:03Z</time>
      </trkpt>
      <trkpt lat="43.07808" lon="0.29014">
        <ele>364</ele>
        <time>2020-06-30T12:34:04Z</time>
      </trkpt>
      <trkpt lat="43.07819" lon="0.29016">
        <ele>363.8</ele>
        <time>2020-06-30T12:34:06Z</time>
      </trkpt>
      <trkpt lat="43.07823" lon="0.29014">
        <ele>363.6</ele>
        <time>2020-06-30T12:34:07Z</time>
      </trkpt>
      <trkpt lat="43.07829" lon="0.29013">
        <ele>363.4</ele>
        <time>2020-06-30T12:34:08Z</time>
      </trkpt>
      <trkpt lat="43.07835" lon="0.29011">
        <ele>363</ele>
        <time>2020-06-30T12:34:09Z</time>
      </trkpt>
      <trkpt lat="43.07842" lon="0.29012">
        <ele>362.8</ele>
        <time>2020-06-30T12:34:10Z</time>
      </trkpt>
      <trkpt lat="43.07848" lon="0.2901">
        <ele>362.6</ele>
        <time>2020-06-30T12:34:11Z</time>
      </trkpt>
      <trkpt lat="43.07852" lon="0.29009">
        <ele>362.2</ele>
        <time>2020-06-30T12:34:12Z</time>
      </trkpt>
      <trkpt lat="43.07858" lon="0.29007">
        <ele>362</ele>
        <time>2020-06-30T12:34:13Z</time>
      </trkpt>
      <trkpt lat="43.07864" lon="0.29005">
        <ele>362</ele>
        <time>2020-06-30T12:34:14Z</time>
      </trkpt>
      <trkpt lat="43.07868" lon="0.29004">
        <ele>361.8</ele>
        <time>2020-06-30T12:34:15Z</time>
      </trkpt>
      <trkpt lat="43.07875" lon="0.29001">
        <ele>361.6</ele>
        <time>2020-06-30T12:34:16Z</time>
      </trkpt>
      <trkpt lat="43.07883" lon="0.29">
        <ele>361.4</ele>
        <time>2020-06-30T12:34:17Z</time>
      </trkpt>
      <trkpt lat="43.07891" lon="0.28995">
        <ele>361.2</ele>
        <time>2020-06-30T12:34:18Z</time>
      </trkpt>
      <trkpt lat="43.07898" lon="0.28994">
        <ele>361</ele>
        <time>2020-06-30T12:34:19Z</time>
      </trkpt>
      <trkpt lat="43.07906" lon="0.28994">
        <ele>360.6</ele>
        <time>2020-06-30T12:34:20Z</time>
      </trkpt>
      <trkpt lat="43.07911" lon="0.28994">
        <ele>360.4</ele>
        <time>2020-06-30T12:34:21Z</time>
      </trkpt>
      <trkpt lat="43.07924" lon="0.28998">
        <ele>360.4</ele>
        <time>2020-06-30T12:34:23Z</time>
      </trkpt>
      <trkpt lat="43.07931" lon="0.28998">
        <ele>360.2</ele>
        <time>2020-06-30T12:34:24Z</time>
      </trkpt>
      <trkpt lat="43.07935" lon="0.28998">
        <ele>360</ele>
        <time>2020-06-30T12:34:25Z</time>
      </trkpt>
      <trkpt lat="43.07942" lon="0.28997">
        <ele>360</ele>
        <time>2020-06-30T12:34:26Z</time>
      </trkpt>
      <trkpt lat="43.07948" lon="0.28996">
        <ele>359.8</ele>
        <time>2020-06-30T12:34:27Z</time>
      </trkpt>
      <trkpt lat="43.07954" lon="0.28996">
        <ele>359.4</ele>
        <time>2020-06-30T12:34:28Z</time>
      </trkpt>
      <trkpt lat="43.07959" lon="0.28993">
        <ele>359.2</ele>
        <time>2020-06-30T12:34:29Z</time>
      </trkpt>
      <trkpt lat="43.07966" lon="0.28989">
        <ele>359.2</ele>
        <time>2020-06-30T12:34:30Z</time>
      </trkpt>
      <trkpt lat="43.07972" lon="0.28985">
        <ele>359</ele>
        <time>2020-06-30T12:34:31Z</time>
      </trkpt>
      <trkpt lat="43.07985" lon="0.28979">
        <ele>358.8</ele>
        <time>2020-06-30T12:34:33Z</time>
      </trkpt>
      <trkpt lat="43.07989" lon="0.28972">
        <ele>358.4</ele>
        <time>2020-06-30T12:34:34Z</time>
      </trkpt>
      <trkpt lat="43.07995" lon="0.28967">
        <ele>358.2</ele>
        <time>2020-06-30T12:34:35Z</time>
      </trkpt>
      <trkpt lat="43.08002" lon="0.28964">
        <ele>358</ele>
        <time>2020-06-30T12:34:36Z</time>
      </trkpt>
      <trkpt lat="43.08009" lon="0.28959">
        <ele>357.8</ele>
        <time>2020-06-30T12:34:37Z</time>
      </trkpt>
      <trkpt lat="43.08023" lon="0.28951">
        <ele>357.2</ele>
        <time>2020-06-30T12:34:39Z</time>
      </trkpt>
      <trkpt lat="43.08033" lon="0.28947">
        <ele>356.8</ele>
        <time>2020-06-30T12:34:40Z</time>
      </trkpt>
      <trkpt lat="43.08039" lon="0.28943">
        <ele>356.6</ele>
        <time>2020-06-30T12:34:41Z</time>
      </trkpt>
      <trkpt lat="43.08046" lon="0.2894">
        <ele>356.4</ele>
        <time>2020-06-30T12:34:42Z</time>
      </trkpt>
      <trkpt lat="43.08063" lon="0.28932">
        <ele>356</ele>
        <time>2020-06-30T12:34:44Z</time>
      </trkpt>
      <trkpt lat="43.08072" lon="0.2893">
        <ele>355.8</ele>
        <time>2020-06-30T12:34:45Z</time>
      </trkpt>
      <trkpt lat="43.08082" lon="0.2893">
        <ele>355.6</ele>
        <time>2020-06-30T12:34:46Z</time>
      </trkpt>
      <trkpt lat="43.08088" lon="0.28927">
        <ele>355.4</ele>
        <time>2020-06-30T12:34:47Z</time>
      </trkpt>
      <trkpt lat="43.08095" lon="0.28924">
        <ele>355.2</ele>
        <time>2020-06-30T12:34:48Z</time>
      </trkpt>
      <trkpt lat="43.08103" lon="0.28922">
        <ele>355.2</ele>
        <time>2020-06-30T12:34:49Z</time>
      </trkpt>
      <trkpt lat="43.08119" lon="0.28917">
        <ele>354.8</ele>
        <time>2020-06-30T12:34:51Z</time>
      </trkpt>
      <trkpt lat="43.08125" lon="0.28912">
        <ele>354.6</ele>
        <time>2020-06-30T12:34:52Z</time>
      </trkpt>
      <trkpt lat="43.08132" lon="0.28914">
        <ele>354.6</ele>
        <time>2020-06-30T12:34:53Z</time>
      </trkpt>
      <trkpt lat="43.08139" lon="0.28909">
        <ele>354.4</ele>
        <time>2020-06-30T12:34:54Z</time>
      </trkpt>
      <trkpt lat="43.08143" lon="0.28902">
        <ele>354.2</ele>
        <time>2020-06-30T12:34:55Z</time>
      </trkpt>
      <trkpt lat="43.0815" lon="0.28897">
        <ele>354</ele>
        <time>2020-06-30T12:34:56Z</time>
      </trkpt>
      <trkpt lat="43.08156" lon="0.28892">
        <ele>353.8</ele>
        <time>2020-06-30T12:34:57Z</time>
      </trkpt>
      <trkpt lat="43.08162" lon="0.28889">
        <ele>353.8</ele>
        <time>2020-06-30T12:34:58Z</time>
      </trkpt>
      <trkpt lat="43.08169" lon="0.28886">
        <ele>353.6</ele>
        <time>2020-06-30T12:34:59Z</time>
      </trkpt>
      <trkpt lat="43.08183" lon="0.28874">
        <ele>353.6</ele>
        <time>2020-06-30T12:35:01Z</time>
      </trkpt>
      <trkpt lat="43.08189" lon="0.2887">
        <ele>353.6</ele>
        <time>2020-06-30T12:35:02Z</time>
      </trkpt>
      <trkpt lat="43.08195" lon="0.28865">
        <ele>353.4</ele>
        <time>2020-06-30T12:35:03Z</time>
      </trkpt>
      <trkpt lat="43.08202" lon="0.28863">
        <ele>353.4</ele>
        <time>2020-06-30T12:35:04Z</time>
      </trkpt>
      <trkpt lat="43.08209" lon="0.28857">
        <ele>353.2</ele>
        <time>2020-06-30T12:35:05Z</time>
      </trkpt>
      <trkpt lat="43.08215" lon="0.28854">
        <ele>353</ele>
        <time>2020-06-30T12:35:06Z</time>
      </trkpt>
      <trkpt lat="43.08228" lon="0.28844">
        <ele>352.8</ele>
        <time>2020-06-30T12:35:08Z</time>
      </trkpt>
      <trkpt lat="43.08232" lon="0.28839">
        <ele>352.8</ele>
        <time>2020-06-30T12:35:09Z</time>
      </trkpt>
      <trkpt lat="43.08239" lon="0.28835">
        <ele>352.6</ele>
        <time>2020-06-30T12:35:10Z</time>
      </trkpt>
      <trkpt lat="43.08245" lon="0.28828">
        <ele>352.6</ele>
        <time>2020-06-30T12:35:11Z</time>
      </trkpt>
      <trkpt lat="43.08257" lon="0.28817">
        <ele>352.4</ele>
        <time>2020-06-30T12:35:13Z</time>
      </trkpt>
      <trkpt lat="43.08262" lon="0.2881">
        <ele>352.2</ele>
        <time>2020-06-30T12:35:14Z</time>
      </trkpt>
      <trkpt lat="43.08268" lon="0.28804">
        <ele>352</ele>
        <time>2020-06-30T12:35:15Z</time>
      </trkpt>
      <trkpt lat="43.08272" lon="0.28798">
        <ele>352</ele>
        <time>2020-06-30T12:35:16Z</time>
      </trkpt>
      <trkpt lat="43.08278" lon="0.28793">
        <ele>351.8</ele>
        <time>2020-06-30T12:35:17Z</time>
      </trkpt>
      <trkpt lat="43.08284" lon="0.28787">
        <ele>351.6</ele>
        <time>2020-06-30T12:35:18Z</time>
      </trkpt>
      <trkpt lat="43.08289" lon="0.28782">
        <ele>351.6</ele>
        <time>2020-06-30T12:35:19Z</time>
      </trkpt>
      <trkpt lat="43.08295" lon="0.28777">
        <ele>351.6</ele>
        <time>2020-06-30T12:35:20Z</time>
      </trkpt>
      <trkpt lat="43.08298" lon="0.28766">
        <ele>351.6</ele>
        <time>2020-06-30T12:35:21Z</time>
      </trkpt>
      <trkpt lat="43.08302" lon="0.28758">
        <ele>351.4</ele>
        <time>2020-06-30T12:35:22Z</time>
      </trkpt>
      <trkpt lat="43.08306" lon="0.28749">
        <ele>351.4</ele>
        <time>2020-06-30T12:35:23Z</time>
      </trkpt>
      <trkpt lat="43.08311" lon="0.28745">
        <ele>351.4</ele>
        <time>2020-06-30T12:35:24Z</time>
      </trkpt>
      <trkpt lat="43.0832" lon="0.28732">
        <ele>351.2</ele>
        <time>2020-06-30T12:35:26Z</time>
      </trkpt>
      <trkpt lat="43.08324" lon="0.28725">
        <ele>351.2</ele>
        <time>2020-06-30T12:35:27Z</time>
      </trkpt>
      <trkpt lat="43.08328" lon="0.28718">
        <ele>351</ele>
        <time>2020-06-30T12:35:28Z</time>
      </trkpt>
      <trkpt lat="43.0833" lon="0.28711">
        <ele>351.2</ele>
        <time>2020-06-30T12:35:29Z</time>
      </trkpt>
      <trkpt lat="43.08335" lon="0.28706">
        <ele>351</ele>
        <time>2020-06-30T12:35:30Z</time>
      </trkpt>
      <trkpt lat="43.08339" lon="0.287">
        <ele>351</ele>
        <time>2020-06-30T12:35:31Z</time>
      </trkpt>
      <trkpt lat="43.08342" lon="0.28694">
        <ele>351.2</ele>
        <time>2020-06-30T12:35:32Z</time>
      </trkpt>
      <trkpt lat="43.08345" lon="0.28686">
        <ele>351.2</ele>
        <time>2020-06-30T12:35:33Z</time>
      </trkpt>
      <trkpt lat="43.08349" lon="0.28681">
        <ele>351.2</ele>
        <time>2020-06-30T12:35:34Z</time>
      </trkpt>
      <trkpt lat="43.08353" lon="0.28664">
        <ele>351.4</ele>
        <time>2020-06-30T12:35:36Z</time>
      </trkpt>
      <trkpt lat="43.08356" lon="0.28659">
        <ele>351.4</ele>
        <time>2020-06-30T12:35:37Z</time>
      </trkpt>
      <trkpt lat="43.08359" lon="0.28652">
        <ele>351.6</ele>
        <time>2020-06-30T12:35:38Z</time>
      </trkpt>
      <trkpt lat="43.08362" lon="0.28646">
        <ele>351.6</ele>
        <time>2020-06-30T12:35:39Z</time>
      </trkpt>
      <trkpt lat="43.08366" lon="0.28639">
        <ele>351.4</ele>
        <time>2020-06-30T12:35:40Z</time>
      </trkpt>
      <trkpt lat="43.08368" lon="0.28632">
        <ele>351.2</ele>
        <time>2020-06-30T12:35:41Z</time>
      </trkpt>
      <trkpt lat="43.08371" lon="0.28625">
        <ele>351</ele>
        <time>2020-06-30T12:35:42Z</time>
      </trkpt>
      <trkpt lat="43.08377" lon="0.28614">
        <ele>350.8</ele>
        <time>2020-06-30T12:35:44Z</time>
      </trkpt>
      <trkpt lat="43.08381" lon="0.28608">
        <ele>350.6</ele>
        <time>2020-06-30T12:35:45Z</time>
      </trkpt>
      <trkpt lat="43.08383" lon="0.28602">
        <ele>350.4</ele>
        <time>2020-06-30T12:35:46Z</time>
      </trkpt>
      <trkpt lat="43.08386" lon="0.28594">
        <ele>350.2</ele>
        <time>2020-06-30T12:35:47Z</time>
      </trkpt>
      <trkpt lat="43.08388" lon="0.28586">
        <ele>350.2</ele>
        <time>2020-06-30T12:35:48Z</time>
      </trkpt>
      <trkpt lat="43.08391" lon="0.2858">
        <ele>350</ele>
        <time>2020-06-30T12:35:49Z</time>
      </trkpt>
      <trkpt lat="43.08394" lon="0.28572">
        <ele>350</ele>
        <time>2020-06-30T12:35:50Z</time>
      </trkpt>
      <trkpt lat="43.08398" lon="0.28567">
        <ele>349.8</ele>
        <time>2020-06-30T12:35:51Z</time>
      </trkpt>
      <trkpt lat="43.08401" lon="0.28559">
        <ele>349.6</ele>
        <time>2020-06-30T12:35:52Z</time>
      </trkpt>
      <trkpt lat="43.08403" lon="0.28552">
        <ele>349.6</ele>
        <time>2020-06-30T12:35:53Z</time>
      </trkpt>
      <trkpt lat="43.08404" lon="0.28544">
        <ele>349.4</ele>
        <time>2020-06-30T12:35:54Z</time>
      </trkpt>
      <trkpt lat="43.08406" lon="0.28536">
        <ele>349.4</ele>
        <time>2020-06-30T12:35:55Z</time>
      </trkpt>
      <trkpt lat="43.08409" lon="0.28529">
        <ele>349.2</ele>
        <time>2020-06-30T12:35:56Z</time>
      </trkpt>
      <trkpt lat="43.08412" lon="0.28524">
        <ele>349.2</ele>
        <time>2020-06-30T12:35:57Z</time>
      </trkpt>
      <trkpt lat="43.08414" lon="0.28517">
        <ele>349.2</ele>
        <time>2020-06-30T12:35:58Z</time>
      </trkpt>
      <trkpt lat="43.08418" lon="0.28511">
        <ele>349</ele>
        <time>2020-06-30T12:35:59Z</time>
      </trkpt>
      <trkpt lat="43.0842" lon="0.28507">
        <ele>349</ele>
        <time>2020-06-30T12:36:00Z</time>
      </trkpt>
      <trkpt lat="43.08421" lon="0.28497">
        <ele>348.8</ele>
        <time>2020-06-30T12:36:01Z</time>
      </trkpt>
      <trkpt lat="43.08426" lon="0.28484">
        <ele>348.8</ele>
        <time>2020-06-30T12:36:03Z</time>
      </trkpt>
      <trkpt lat="43.08431" lon="0.28479">
        <ele>348.6</ele>
        <time>2020-06-30T12:36:04Z</time>
      </trkpt>
      <trkpt lat="43.08435" lon="0.28466">
        <ele>348.6</ele>
        <time>2020-06-30T12:36:06Z</time>
      </trkpt>
      <trkpt lat="43.08437" lon="0.2846">
        <ele>348.6</ele>
        <time>2020-06-30T12:36:07Z</time>
      </trkpt>
      <trkpt lat="43.0844" lon="0.28454">
        <ele>348.6</ele>
        <time>2020-06-30T12:36:08Z</time>
      </trkpt>
      <trkpt lat="43.08443" lon="0.28449">
        <ele>348.6</ele>
        <time>2020-06-30T12:36:09Z</time>
      </trkpt>
      <trkpt lat="43.08444" lon="0.28444">
        <ele>348.6</ele>
        <time>2020-06-30T12:36:10Z</time>
      </trkpt>
      <trkpt lat="43.08447" lon="0.28437">
        <ele>348.4</ele>
        <time>2020-06-30T12:36:11Z</time>
      </trkpt>
      <trkpt lat="43.08451" lon="0.28429">
        <ele>348.4</ele>
        <time>2020-06-30T12:36:12Z</time>
      </trkpt>
      <trkpt lat="43.08455" lon="0.28422">
        <ele>348.2</ele>
        <time>2020-06-30T12:36:13Z</time>
      </trkpt>
      <trkpt lat="43.08461" lon="0.28408">
        <ele>348</ele>
        <time>2020-06-30T12:36:15Z</time>
      </trkpt>
      <trkpt lat="43.08466" lon="0.28402">
        <ele>348</ele>
        <time>2020-06-30T12:36:16Z</time>
      </trkpt>
      <trkpt lat="43.08469" lon="0.28396">
        <ele>347.8</ele>
        <time>2020-06-30T12:36:17Z</time>
      </trkpt>
      <trkpt lat="43.08475" lon="0.28392">
        <ele>347.6</ele>
        <time>2020-06-30T12:36:18Z</time>
      </trkpt>
      <trkpt lat="43.08478" lon="0.28382">
        <ele>347.6</ele>
        <time>2020-06-30T12:36:19Z</time>
      </trkpt>
      <trkpt lat="43.0848" lon="0.28373">
        <ele>347.4</ele>
        <time>2020-06-30T12:36:20Z</time>
      </trkpt>
      <trkpt lat="43.08483" lon="0.28367">
        <ele>347.2</ele>
        <time>2020-06-30T12:36:21Z</time>
      </trkpt>
      <trkpt lat="43.08487" lon="0.2836">
        <ele>347.2</ele>
        <time>2020-06-30T12:36:22Z</time>
      </trkpt>
      <trkpt lat="43.08495" lon="0.28346">
        <ele>347</ele>
        <time>2020-06-30T12:36:24Z</time>
      </trkpt>
      <trkpt lat="43.08498" lon="0.28337">
        <ele>346.8</ele>
        <time>2020-06-30T12:36:25Z</time>
      </trkpt>
      <trkpt lat="43.08503" lon="0.28331">
        <ele>346.8</ele>
        <time>2020-06-30T12:36:26Z</time>
      </trkpt>
      <trkpt lat="43.08506" lon="0.28324">
        <ele>346.6</ele>
        <time>2020-06-30T12:36:27Z</time>
      </trkpt>
      <trkpt lat="43.08512" lon="0.2832">
        <ele>346.4</ele>
        <time>2020-06-30T12:36:28Z</time>
      </trkpt>
      <trkpt lat="43.08518" lon="0.28314">
        <ele>346.4</ele>
        <time>2020-06-30T12:36:29Z</time>
      </trkpt>
      <trkpt lat="43.08523" lon="0.28308">
        <ele>346.2</ele>
        <time>2020-06-30T12:36:30Z</time>
      </trkpt>
      <trkpt lat="43.08526" lon="0.28303">
        <ele>346</ele>
        <time>2020-06-30T12:36:31Z</time>
      </trkpt>
      <trkpt lat="43.08528" lon="0.28294">
        <ele>346</ele>
        <time>2020-06-30T12:36:32Z</time>
      </trkpt>
      <trkpt lat="43.08532" lon="0.28281">
        <ele>345.8</ele>
        <time>2020-06-30T12:36:34Z</time>
      </trkpt>
      <trkpt lat="43.08535" lon="0.28275">
        <ele>345.8</ele>
        <time>2020-06-30T12:36:35Z</time>
      </trkpt>
      <trkpt lat="43.08536" lon="0.28271">
        <ele>345.8</ele>
        <time>2020-06-30T12:36:36Z</time>
      </trkpt>
      <trkpt lat="43.08536" lon="0.28266">
        <ele>345.8</ele>
        <time>2020-06-30T12:36:37Z</time>
      </trkpt>
      <trkpt lat="43.08536" lon="0.28264">
        <ele>345.8</ele>
        <time>2020-06-30T12:36:38Z</time>
      </trkpt>
      <trkpt lat="43.08533" lon="0.28257">
        <ele>345.6</ele>
        <time>2020-06-30T12:36:40Z</time>
      </trkpt>
      <trkpt lat="43.08531" lon="0.28255">
        <ele>345.4</ele>
        <time>2020-06-30T12:36:41Z</time>
      </trkpt>
      <trkpt lat="43.08528" lon="0.28254">
        <ele>345.4</ele>
        <time>2020-06-30T12:36:42Z</time>
      </trkpt>
      <trkpt lat="43.08526" lon="0.28252">
        <ele>345.4</ele>
        <time>2020-06-30T12:36:43Z</time>
      </trkpt>
      <trkpt lat="43.08523" lon="0.2825">
        <ele>345.4</ele>
        <time>2020-06-30T12:36:44Z</time>
      </trkpt>
      <trkpt lat="43.08521" lon="0.28248">
        <ele>345.4</ele>
        <time>2020-06-30T12:36:45Z</time>
      </trkpt>
      <trkpt lat="43.08519" lon="0.28246">
        <ele>345.4</ele>
        <time>2020-06-30T12:36:46Z</time>
      </trkpt>
      <trkpt lat="43.08514" lon="0.28242">
        <ele>345.2</ele>
        <time>2020-06-30T12:36:48Z</time>
      </trkpt>
      <trkpt lat="43.08512" lon="0.2824">
        <ele>345.2</ele>
        <time>2020-06-30T12:36:49Z</time>
      </trkpt>
      <trkpt lat="43.0851" lon="0.28239">
        <ele>345.2</ele>
        <time>2020-06-30T12:36:50Z</time>
      </trkpt>
      <trkpt lat="43.08508" lon="0.28237">
        <ele>345</ele>
        <time>2020-06-30T12:36:51Z</time>
      </trkpt>
      <trkpt lat="43.08506" lon="0.28235">
        <ele>345</ele>
        <time>2020-06-30T12:36:52Z</time>
      </trkpt>
      <trkpt lat="43.08506" lon="0.28233">
        <ele>345</ele>
        <time>2020-06-30T12:36:53Z</time>
      </trkpt>
      <trkpt lat="43.08506" lon="0.28232">
        <ele>344.8</ele>
        <time>2020-06-30T12:36:54Z</time>
      </trkpt>
      <trkpt lat="43.08507" lon="0.28229">
        <ele>344.6</ele>
        <time>2020-06-30T12:36:55Z</time>
      </trkpt>
      <trkpt lat="43.08508" lon="0.28227">
        <ele>344.4</ele>
        <time>2020-06-30T12:36:56Z</time>
      </trkpt>
      <trkpt lat="43.08509" lon="0.28224">
        <ele>344</ele>
        <time>2020-06-30T12:36:57Z</time>
      </trkpt>
      <trkpt lat="43.08511" lon="0.2822">
        <ele>343.8</ele>
        <time>2020-06-30T12:36:58Z</time>
      </trkpt>
      <trkpt lat="43.08516" lon="0.28213">
        <ele>343.4</ele>
        <time>2020-06-30T12:37:00Z</time>
      </trkpt>
      <trkpt lat="43.08518" lon="0.2821">
        <ele>343.4</ele>
        <time>2020-06-30T12:37:01Z</time>
      </trkpt>
      <trkpt lat="43.08521" lon="0.28206">
        <ele>343.2</ele>
        <time>2020-06-30T12:37:02Z</time>
      </trkpt>
      <trkpt lat="43.08524" lon="0.28203">
        <ele>343.2</ele>
        <time>2020-06-30T12:37:03Z</time>
      </trkpt>
      <trkpt lat="43.08526" lon="0.282">
        <ele>343.4</ele>
        <time>2020-06-30T12:37:04Z</time>
      </trkpt>
      <trkpt lat="43.08528" lon="0.28197">
        <ele>343.4</ele>
        <time>2020-06-30T12:37:05Z</time>
      </trkpt>
      <trkpt lat="43.0853" lon="0.28193">
        <ele>343.4</ele>
        <time>2020-06-30T12:37:06Z</time>
      </trkpt>
      <trkpt lat="43.08532" lon="0.2819">
        <ele>343.2</ele>
        <time>2020-06-30T12:37:07Z</time>
      </trkpt>
      <trkpt lat="43.08535" lon="0.28186">
        <ele>343.2</ele>
        <time>2020-06-30T12:37:08Z</time>
      </trkpt>
      <trkpt lat="43.08538" lon="0.28183">
        <ele>343.2</ele>
        <time>2020-06-30T12:37:09Z</time>
      </trkpt>
      <trkpt lat="43.0854" lon="0.28179">
        <ele>343</ele>
        <time>2020-06-30T12:37:10Z</time>
      </trkpt>
      <trkpt lat="43.08541" lon="0.28175">
        <ele>343</ele>
        <time>2020-06-30T12:37:11Z</time>
      </trkpt>
      <trkpt lat="43.08543" lon="0.28171">
        <ele>343</ele>
        <time>2020-06-30T12:37:12Z</time>
      </trkpt>
      <trkpt lat="43.08546" lon="0.28167">
        <ele>343</ele>
        <time>2020-06-30T12:37:13Z</time>
      </trkpt>
      <trkpt lat="43.08547" lon="0.28163">
        <ele>343</ele>
        <time>2020-06-30T12:37:14Z</time>
      </trkpt>
      <trkpt lat="43.08549" lon="0.28159">
        <ele>343</ele>
        <time>2020-06-30T12:37:15Z</time>
      </trkpt>
      <trkpt lat="43.0855" lon="0.28155">
        <ele>342.8</ele>
        <time>2020-06-30T12:37:16Z</time>
      </trkpt>
      <trkpt lat="43.0855" lon="0.28151">
        <ele>342.8</ele>
        <time>2020-06-30T12:37:17Z</time>
      </trkpt>
      <trkpt lat="43.08551" lon="0.28147">
        <ele>342.8</ele>
        <time>2020-06-30T12:37:18Z</time>
      </trkpt>
      <trkpt lat="43.08553" lon="0.28144">
        <ele>342.8</ele>
        <time>2020-06-30T12:37:19Z</time>
      </trkpt>
      <trkpt lat="43.08555" lon="0.2814">
        <ele>342.8</ele>
        <time>2020-06-30T12:37:20Z</time>
      </trkpt>
      <trkpt lat="43.08556" lon="0.28136">
        <ele>342.6</ele>
        <time>2020-06-30T12:37:21Z</time>
      </trkpt>
      <trkpt lat="43.08559" lon="0.28132">
        <ele>342.6</ele>
        <time>2020-06-30T12:37:22Z</time>
      </trkpt>
      <trkpt lat="43.08561" lon="0.2813">
        <ele>342.6</ele>
        <time>2020-06-30T12:37:23Z</time>
      </trkpt>
      <trkpt lat="43.08561" lon="0.28126">
        <ele>342.6</ele>
        <time>2020-06-30T12:37:24Z</time>
      </trkpt>
      <trkpt lat="43.08564" lon="0.28122">
        <ele>342.6</ele>
        <time>2020-06-30T12:37:25Z</time>
      </trkpt>
      <trkpt lat="43.08566" lon="0.28119">
        <ele>342.6</ele>
        <time>2020-06-30T12:37:26Z</time>
      </trkpt>
      <trkpt lat="43.08567" lon="0.28117">
        <ele>342.6</ele>
        <time>2020-06-30T12:37:27Z</time>
      </trkpt>
      <trkpt lat="43.08569" lon="0.28114">
        <ele>342.8</ele>
        <time>2020-06-30T12:37:28Z</time>
      </trkpt>
      <trkpt lat="43.0857" lon="0.28113">
        <ele>342.6</ele>
        <time>2020-06-30T12:37:29Z</time>
      </trkpt>
      <trkpt lat="43.08572" lon="0.28111">
        <ele>342.6</ele>
        <time>2020-06-30T12:37:30Z</time>
      </trkpt>
      <trkpt lat="43.08574" lon="0.28108">
        <ele>342.6</ele>
        <time>2020-06-30T12:37:31Z</time>
      </trkpt>
      <trkpt lat="43.08576" lon="0.28106">
        <ele>342.6</ele>
        <time>2020-06-30T12:37:32Z</time>
      </trkpt>
      <trkpt lat="43.08578" lon="0.28102">
        <ele>342.6</ele>
        <time>2020-06-30T12:37:33Z</time>
      </trkpt>
      <trkpt lat="43.08579" lon="0.28098">
        <ele>342.6</ele>
        <time>2020-06-30T12:37:34Z</time>
      </trkpt>
      <trkpt lat="43.08581" lon="0.28094">
        <ele>342.6</ele>
        <time>2020-06-30T12:37:35Z</time>
      </trkpt>
      <trkpt lat="43.08582" lon="0.28091">
        <ele>342.6</ele>
        <time>2020-06-30T12:37:36Z</time>
      </trkpt>
      <trkpt lat="43.08583" lon="0.28087">
        <ele>342.6</ele>
        <time>2020-06-30T12:37:37Z</time>
      </trkpt>
      <trkpt lat="43.08584" lon="0.28084">
        <ele>342.6</ele>
        <time>2020-06-30T12:37:38Z</time>
      </trkpt>
      <trkpt lat="43.08585" lon="0.28081">
        <ele>342.6</ele>
        <time>2020-06-30T12:37:39Z</time>
      </trkpt>
      <trkpt lat="43.08586" lon="0.28079">
        <ele>342.6</ele>
        <time>2020-06-30T12:37:40Z</time>
      </trkpt>
      <trkpt lat="43.08587" lon="0.28076">
        <ele>342.8</ele>
        <time>2020-06-30T12:37:41Z</time>
      </trkpt>
      <trkpt lat="43.08589" lon="0.28075">
        <ele>342.6</ele>
        <time>2020-06-30T12:37:42Z</time>
      </trkpt>
      <trkpt lat="43.0859" lon="0.28073">
        <ele>342.8</ele>
        <time>2020-06-30T12:37:43Z</time>
      </trkpt>
      <trkpt lat="43.08592" lon="0.28071">
        <ele>342.6</ele>
        <time>2020-06-30T12:37:44Z</time>
      </trkpt>
      <trkpt lat="43.08593" lon="0.28067">
        <ele>342.6</ele>
        <time>2020-06-30T12:37:45Z</time>
      </trkpt>
      <trkpt lat="43.08593" lon="0.28065">
        <ele>342.6</ele>
        <time>2020-06-30T12:37:46Z</time>
      </trkpt>
      <trkpt lat="43.08595" lon="0.28063">
        <ele>342.6</ele>
        <time>2020-06-30T12:37:47Z</time>
      </trkpt>
      <trkpt lat="43.08596" lon="0.28061">
        <ele>342.6</ele>
        <time>2020-06-30T12:37:48Z</time>
      </trkpt>
      <trkpt lat="43.08597" lon="0.28059">
        <ele>342.4</ele>
        <time>2020-06-30T12:37:49Z</time>
      </trkpt>
      <trkpt lat="43.086" lon="0.28055">
        <ele>342.4</ele>
        <time>2020-06-30T12:37:50Z</time>
      </trkpt>
      <trkpt lat="43.086" lon="0.28051">
        <ele>342.4</ele>
        <time>2020-06-30T12:37:51Z</time>
      </trkpt>
      <trkpt lat="43.086" lon="0.28047">
        <ele>342.6</ele>
        <time>2020-06-30T12:37:52Z</time>
      </trkpt>
      <trkpt lat="43.086" lon="0.28044">
        <ele>342.6</ele>
        <time>2020-06-30T12:37:53Z</time>
      </trkpt>
      <trkpt lat="43.08599" lon="0.28043">
        <ele>342.6</ele>
        <time>2020-06-30T12:37:54Z</time>
      </trkpt>
      <trkpt lat="43.08599" lon="0.28043">
        <ele>342.6</ele>
        <time>2020-06-30T12:37:55Z</time>
      </trkpt>
      <trkpt lat="43.08598" lon="0.28041">
        <ele>342.6</ele>
        <time>2020-06-30T12:37:56Z</time>
      </trkpt>
      <trkpt lat="43.08599" lon="0.28041">
        <ele>342.4</ele>
        <time>2020-06-30T12:37:57Z</time>
      </trkpt>
      <trkpt lat="43.08599" lon="0.2804">
        <ele>342.4</ele>
        <time>2020-06-30T12:37:58Z</time>
      </trkpt>
      <trkpt lat="43.08598" lon="0.28039">
        <ele>342.4</ele>
        <time>2020-06-30T12:37:59Z</time>
      </trkpt>
      <trkpt lat="43.08598" lon="0.28039">
        <ele>342.4</ele>
        <time>2020-06-30T12:38:00Z</time>
      </trkpt>
      <trkpt lat="43.08598" lon="0.28038">
        <ele>342.6</ele>
        <time>2020-06-30T12:38:01Z</time>
      </trkpt>
      <trkpt lat="43.08597" lon="0.28038">
        <ele>342.6</ele>
        <time>2020-06-30T12:38:02Z</time>
      </trkpt>
      <trkpt lat="43.08598" lon="0.28038">
        <ele>342.6</ele>
        <time>2020-06-30T12:38:03Z</time>
      </trkpt>
      <trkpt lat="43.08597" lon="0.28038">
        <ele>342.6</ele>
        <time>2020-06-30T12:38:04Z</time>
      </trkpt>
      <trkpt lat="43.08597" lon="0.28038">
        <ele>342.6</ele>
        <time>2020-06-30T12:38:05Z</time>
      </trkpt>
      <trkpt lat="43.08596" lon="0.28038">
        <ele>342.6</ele>
        <time>2020-06-30T12:38:06Z</time>
      </trkpt>
      <trkpt lat="43.08595" lon="0.28039">
        <ele>342.6</ele>
        <time>2020-06-30T12:38:07Z</time>
      </trkpt>
      <trkpt lat="43.08594" lon="0.2804">
        <ele>342.6</ele>
        <time>2020-06-30T12:38:08Z</time>
      </trkpt>
      <trkpt lat="43.08594" lon="0.28041">
        <ele>342.6</ele>
        <time>2020-06-30T12:38:09Z</time>
      </trkpt>
      <trkpt lat="43.08592" lon="0.28043">
        <ele>342.6</ele>
        <time>2020-06-30T12:38:10Z</time>
      </trkpt>
      <trkpt lat="43.08591" lon="0.28044">
        <ele>342.6</ele>
        <time>2020-06-30T12:38:11Z</time>
      </trkpt>
      <trkpt lat="43.0859" lon="0.28045">
        <ele>342.6</ele>
        <time>2020-06-30T12:38:12Z</time>
      </trkpt>
      <trkpt lat="43.08589" lon="0.28047">
        <ele>342.6</ele>
        <time>2020-06-30T12:38:13Z</time>
      </trkpt>
      <trkpt lat="43.08587" lon="0.28049">
        <ele>342.6</ele>
        <time>2020-06-30T12:38:14Z</time>
      </trkpt>
      <trkpt lat="43.08586" lon="0.2805">
        <ele>342.6</ele>
        <time>2020-06-30T12:38:15Z</time>
      </trkpt>
      <trkpt lat="43.08584" lon="0.28052">
        <ele>342.6</ele>
        <time>2020-06-30T12:38:16Z</time>
      </trkpt>
      <trkpt lat="43.08584" lon="0.28053">
        <ele>342.6</ele>
        <time>2020-06-30T12:38:17Z</time>
      </trkpt>
      <trkpt lat="43.08583" lon="0.28054">
        <ele>342.6</ele>
        <time>2020-06-30T12:38:18Z</time>
      </trkpt>
      <trkpt lat="43.08582" lon="0.28055">
        <ele>342.6</ele>
        <time>2020-06-30T12:38:19Z</time>
      </trkpt>
      <trkpt lat="43.08582" lon="0.28054">
        <ele>342.6</ele>
        <time>2020-06-30T12:38:20Z</time>
      </trkpt>
      <trkpt lat="43.08582" lon="0.28054">
        <ele>342.6</ele>
        <time>2020-06-30T12:38:21Z</time>
      </trkpt>
      <trkpt lat="43.08582" lon="0.28055">
        <ele>342.6</ele>
        <time>2020-06-30T12:38:22Z</time>
      </trkpt>
      <trkpt lat="43.08583" lon="0.28055">
        <ele>342.6</ele>
        <time>2020-06-30T12:38:23Z</time>
      </trkpt>
      <trkpt lat="43.08582" lon="0.28054">
        <ele>342.6</ele>
        <time>2020-06-30T12:38:24Z</time>
      </trkpt>
      <trkpt lat="43.08582" lon="0.28053">
        <ele>342.6</ele>
        <time>2020-06-30T12:38:25Z</time>
      </trkpt>
      <trkpt lat="43.08581" lon="0.28052">
        <ele>342.6</ele>
        <time>2020-06-30T12:38:26Z</time>
      </trkpt>
      <trkpt lat="43.0858" lon="0.28053">
        <ele>342.8</ele>
        <time>2020-06-30T12:38:27Z</time>
      </trkpt>
      <trkpt lat="43.0858" lon="0.28053">
        <ele>342.6</ele>
        <time>2020-06-30T12:38:28Z</time>
      </trkpt>
      <trkpt lat="43.0858" lon="0.28053">
        <ele>342.8</ele>
        <time>2020-06-30T12:38:29Z</time>
      </trkpt>
      <trkpt lat="43.0858" lon="0.28053">
        <ele>342.6</ele>
        <time>2020-06-30T12:38:30Z</time>
      </trkpt>
      <trkpt lat="43.0858" lon="0.28051">
        <ele>342.6</ele>
        <time>2020-06-30T12:38:31Z</time>
      </trkpt>
      <trkpt lat="43.0858" lon="0.2805">
        <ele>342.6</ele>
        <time>2020-06-30T12:38:32Z</time>
      </trkpt>
      <trkpt lat="43.08577" lon="0.28058">
        <ele>343</ele>
        <time>2020-06-30T13:15:01Z</time>
      </trkpt>
      <trkpt lat="43.08579" lon="0.28058">
        <ele>343</ele>
        <time>2020-06-30T13:15:02Z</time>
      </trkpt>
      <trkpt lat="43.08578" lon="0.28058">
        <ele>343.2</ele>
        <time>2020-06-30T13:15:03Z</time>
      </trkpt>
      <trkpt lat="43.08579" lon="0.28057">
        <ele>343.2</ele>
        <time>2020-06-30T13:15:04Z</time>
      </trkpt>
      <trkpt lat="43.08577" lon="0.28057">
        <ele>343.2</ele>
        <time>2020-06-30T13:15:05Z</time>
      </trkpt>
      <trkpt lat="43.08577" lon="0.28057">
        <ele>343.2</ele>
        <time>2020-06-30T13:15:06Z</time>
      </trkpt>
      <trkpt lat="43.08578" lon="0.28056">
        <ele>343.2</ele>
        <time>2020-06-30T13:15:07Z</time>
      </trkpt>
      <trkpt lat="43.08578" lon="0.28056">
        <ele>343.2</ele>
        <time>2020-06-30T13:15:08Z</time>
      </trkpt>
      <trkpt lat="43.08579" lon="0.28056">
        <ele>343.2</ele>
        <time>2020-06-30T13:15:09Z</time>
      </trkpt>
      <trkpt lat="43.08581" lon="0.28056">
        <ele>343.2</ele>
        <time>2020-06-30T13:15:10Z</time>
      </trkpt>
      <trkpt lat="43.08581" lon="0.28056">
        <ele>343.2</ele>
        <time>2020-06-30T13:15:11Z</time>
      </trkpt>
      <trkpt lat="43.08582" lon="0.28056">
        <ele>343.2</ele>
        <time>2020-06-30T13:15:12Z</time>
      </trkpt>
      <trkpt lat="43.0858" lon="0.28057">
        <ele>343.2</ele>
        <time>2020-06-30T13:15:13Z</time>
      </trkpt>
      <trkpt lat="43.08581" lon="0.28057">
        <ele>343.2</ele>
        <time>2020-06-30T13:15:14Z</time>
      </trkpt>
      <trkpt lat="43.08582" lon="0.28057">
        <ele>343.2</ele>
        <time>2020-06-30T13:15:15Z</time>
      </trkpt>
      <trkpt lat="43.08581" lon="0.28057">
        <ele>343.2</ele>
        <time>2020-06-30T13:15:16Z</time>
      </trkpt>
      <trkpt lat="43.08583" lon="0.28054">
        <ele>343.2</ele>
        <time>2020-06-30T13:15:17Z</time>
      </trkpt>
      <trkpt lat="43.08582" lon="0.28054">
        <ele>343.2</ele>
        <time>2020-06-30T13:15:18Z</time>
      </trkpt>
      <trkpt lat="43.08581" lon="0.28053">
        <ele>343.2</ele>
        <time>2020-06-30T13:15:19Z</time>
      </trkpt>
      <trkpt lat="43.08581" lon="0.28052">
        <ele>343.2</ele>
        <time>2020-06-30T13:15:20Z</time>
      </trkpt>
      <trkpt lat="43.08584" lon="0.28053">
        <ele>343.2</ele>
        <time>2020-06-30T13:15:21Z</time>
      </trkpt>
      <trkpt lat="43.08584" lon="0.28053">
        <ele>343.2</ele>
        <time>2020-06-30T13:15:22Z</time>
      </trkpt>
      <trkpt lat="43.08584" lon="0.28052">
        <ele>343.2</ele>
        <time>2020-06-30T13:15:23Z</time>
      </trkpt>
      <trkpt lat="43.08586" lon="0.2805">
        <ele>343.2</ele>
        <time>2020-06-30T13:15:24Z</time>
      </trkpt>
      <trkpt lat="43.08587" lon="0.28047">
        <ele>343.2</ele>
        <time>2020-06-30T13:15:25Z</time>
      </trkpt>
      <trkpt lat="43.08588" lon="0.28046">
        <ele>343</ele>
        <time>2020-06-30T13:15:26Z</time>
      </trkpt>
      <trkpt lat="43.0859" lon="0.28044">
        <ele>343</ele>
        <time>2020-06-30T13:15:27Z</time>
      </trkpt>
      <trkpt lat="43.08593" lon="0.28044">
        <ele>343</ele>
        <time>2020-06-30T13:15:28Z</time>
      </trkpt>
      <trkpt lat="43.08595" lon="0.28042">
        <ele>343</ele>
        <time>2020-06-30T13:15:29Z</time>
      </trkpt>
      <trkpt lat="43.08597" lon="0.28041">
        <ele>343</ele>
        <time>2020-06-30T13:15:30Z</time>
      </trkpt>
      <trkpt lat="43.08599" lon="0.28042">
        <ele>343</ele>
        <time>2020-06-30T13:15:31Z</time>
      </trkpt>
      <trkpt lat="43.08599" lon="0.28043">
        <ele>343</ele>
        <time>2020-06-30T13:15:32Z</time>
      </trkpt>
      <trkpt lat="43.08598" lon="0.28045">
        <ele>343</ele>
        <time>2020-06-30T13:15:33Z</time>
      </trkpt>
      <trkpt lat="43.08598" lon="0.28047">
        <ele>343</ele>
        <time>2020-06-30T13:15:34Z</time>
      </trkpt>
      <trkpt lat="43.08598" lon="0.2805">
        <ele>343</ele>
        <time>2020-06-30T13:15:35Z</time>
      </trkpt>
      <trkpt lat="43.08598" lon="0.28052">
        <ele>343</ele>
        <time>2020-06-30T13:15:36Z</time>
      </trkpt>
      <trkpt lat="43.08598" lon="0.28055">
        <ele>343</ele>
        <time>2020-06-30T13:15:37Z</time>
      </trkpt>
      <trkpt lat="43.08597" lon="0.28057">
        <ele>343</ele>
        <time>2020-06-30T13:15:38Z</time>
      </trkpt>
      <trkpt lat="43.08595" lon="0.2806">
        <ele>343.2</ele>
        <time>2020-06-30T13:15:39Z</time>
      </trkpt>
      <trkpt lat="43.08595" lon="0.2806">
        <ele>343.2</ele>
        <time>2020-06-30T13:15:40Z</time>
      </trkpt>
      <trkpt lat="43.0859" lon="0.28069">
        <ele>343.2</ele>
        <time>2020-06-30T13:15:42Z</time>
      </trkpt>
      <trkpt lat="43.08588" lon="0.2807">
        <ele>343.2</ele>
        <time>2020-06-30T13:15:43Z</time>
      </trkpt>
      <trkpt lat="43.08587" lon="0.28071">
        <ele>343.2</ele>
        <time>2020-06-30T13:15:44Z</time>
      </trkpt>
      <trkpt lat="43.08583" lon="0.28074">
        <ele>343.2</ele>
        <time>2020-06-30T13:15:46Z</time>
      </trkpt>
      <trkpt lat="43.08582" lon="0.28079">
        <ele>343.2</ele>
        <time>2020-06-30T13:15:47Z</time>
      </trkpt>
      <trkpt lat="43.08579" lon="0.28085">
        <ele>343.2</ele>
        <time>2020-06-30T13:15:48Z</time>
      </trkpt>
      <trkpt lat="43.08577" lon="0.28089">
        <ele>343.2</ele>
        <time>2020-06-30T13:15:49Z</time>
      </trkpt>
      <trkpt lat="43.08576" lon="0.28093">
        <ele>343.2</ele>
        <time>2020-06-30T13:15:50Z</time>
      </trkpt>
      <trkpt lat="43.08574" lon="0.28095">
        <ele>343.2</ele>
        <time>2020-06-30T13:15:51Z</time>
      </trkpt>
      <trkpt lat="43.08573" lon="0.28098">
        <ele>343.2</ele>
        <time>2020-06-30T13:15:52Z</time>
      </trkpt>
      <trkpt lat="43.08568" lon="0.28106">
        <ele>343.2</ele>
        <time>2020-06-30T13:15:53Z</time>
      </trkpt>
      <trkpt lat="43.08568" lon="0.28107">
        <ele>343.2</ele>
        <time>2020-06-30T13:15:54Z</time>
      </trkpt>
      <trkpt lat="43.0857" lon="0.28112">
        <ele>343.2</ele>
        <time>2020-06-30T13:15:55Z</time>
      </trkpt>
      <trkpt lat="43.08571" lon="0.28115">
        <ele>343.2</ele>
        <time>2020-06-30T13:15:56Z</time>
      </trkpt>
      <trkpt lat="43.0857" lon="0.28117">
        <ele>343.2</ele>
        <time>2020-06-30T13:15:57Z</time>
      </trkpt>
      <trkpt lat="43.0857" lon="0.28119">
        <ele>343.2</ele>
        <time>2020-06-30T13:15:58Z</time>
      </trkpt>
      <trkpt lat="43.08568" lon="0.28123">
        <ele>343.2</ele>
        <time>2020-06-30T13:15:59Z</time>
      </trkpt>
      <trkpt lat="43.08566" lon="0.28127">
        <ele>343.2</ele>
        <time>2020-06-30T13:16:00Z</time>
      </trkpt>
      <trkpt lat="43.08563" lon="0.28134">
        <ele>343.2</ele>
        <time>2020-06-30T13:16:01Z</time>
      </trkpt>
      <trkpt lat="43.08562" lon="0.28137">
        <ele>343.2</ele>
        <time>2020-06-30T13:16:02Z</time>
      </trkpt>
      <trkpt lat="43.0856" lon="0.28139">
        <ele>343.2</ele>
        <time>2020-06-30T13:16:03Z</time>
      </trkpt>
      <trkpt lat="43.08559" lon="0.28143">
        <ele>343.2</ele>
        <time>2020-06-30T13:16:04Z</time>
      </trkpt>
      <trkpt lat="43.08557" lon="0.28146">
        <ele>343.2</ele>
        <time>2020-06-30T13:16:05Z</time>
      </trkpt>
      <trkpt lat="43.08556" lon="0.2815">
        <ele>343.2</ele>
        <time>2020-06-30T13:16:06Z</time>
      </trkpt>
      <trkpt lat="43.08554" lon="0.28153">
        <ele>343.2</ele>
        <time>2020-06-30T13:16:07Z</time>
      </trkpt>
      <trkpt lat="43.08552" lon="0.28157">
        <ele>343.2</ele>
        <time>2020-06-30T13:16:08Z</time>
      </trkpt>
      <trkpt lat="43.08549" lon="0.2816">
        <ele>343.2</ele>
        <time>2020-06-30T13:16:09Z</time>
      </trkpt>
      <trkpt lat="43.08548" lon="0.28163">
        <ele>343.2</ele>
        <time>2020-06-30T13:16:10Z</time>
      </trkpt>
      <trkpt lat="43.08546" lon="0.28167">
        <ele>343.2</ele>
        <time>2020-06-30T13:16:11Z</time>
      </trkpt>
      <trkpt lat="43.08545" lon="0.28171">
        <ele>343.4</ele>
        <time>2020-06-30T13:16:12Z</time>
      </trkpt>
      <trkpt lat="43.08542" lon="0.28173">
        <ele>343.4</ele>
        <time>2020-06-30T13:16:13Z</time>
      </trkpt>
      <trkpt lat="43.0854" lon="0.28177">
        <ele>343.6</ele>
        <time>2020-06-30T13:16:14Z</time>
      </trkpt>
      <trkpt lat="43.08539" lon="0.2818">
        <ele>343.6</ele>
        <time>2020-06-30T13:16:15Z</time>
      </trkpt>
      <trkpt lat="43.08537" lon="0.28184">
        <ele>343.6</ele>
        <time>2020-06-30T13:16:16Z</time>
      </trkpt>
      <trkpt lat="43.08535" lon="0.28188">
        <ele>343.6</ele>
        <time>2020-06-30T13:16:17Z</time>
      </trkpt>
      <trkpt lat="43.08533" lon="0.28192">
        <ele>343.6</ele>
        <time>2020-06-30T13:16:18Z</time>
      </trkpt>
      <trkpt lat="43.08532" lon="0.28195">
        <ele>343.6</ele>
        <time>2020-06-30T13:16:19Z</time>
      </trkpt>
      <trkpt lat="43.08531" lon="0.28198">
        <ele>343.6</ele>
        <time>2020-06-30T13:16:20Z</time>
      </trkpt>
      <trkpt lat="43.0853" lon="0.28202">
        <ele>343.6</ele>
        <time>2020-06-30T13:16:21Z</time>
      </trkpt>
      <trkpt lat="43.08527" lon="0.28206">
        <ele>343.8</ele>
        <time>2020-06-30T13:16:22Z</time>
      </trkpt>
      <trkpt lat="43.08524" lon="0.28209">
        <ele>343.8</ele>
        <time>2020-06-30T13:16:23Z</time>
      </trkpt>
      <trkpt lat="43.08522" lon="0.28214">
        <ele>344</ele>
        <time>2020-06-30T13:16:24Z</time>
      </trkpt>
      <trkpt lat="43.0852" lon="0.28217">
        <ele>344.2</ele>
        <time>2020-06-30T13:16:25Z</time>
      </trkpt>
      <trkpt lat="43.08519" lon="0.28221">
        <ele>344.4</ele>
        <time>2020-06-30T13:16:26Z</time>
      </trkpt>
      <trkpt lat="43.08516" lon="0.28225">
        <ele>344.6</ele>
        <time>2020-06-30T13:16:27Z</time>
      </trkpt>
      <trkpt lat="43.08514" lon="0.28227">
        <ele>344.8</ele>
        <time>2020-06-30T13:16:28Z</time>
      </trkpt>
      <trkpt lat="43.08512" lon="0.2823">
        <ele>345</ele>
        <time>2020-06-30T13:16:29Z</time>
      </trkpt>
      <trkpt lat="43.08511" lon="0.28231">
        <ele>345</ele>
        <time>2020-06-30T13:16:30Z</time>
      </trkpt>
      <trkpt lat="43.0851" lon="0.28235">
        <ele>345.2</ele>
        <time>2020-06-30T13:16:31Z</time>
      </trkpt>
      <trkpt lat="43.08511" lon="0.28237">
        <ele>345.2</ele>
        <time>2020-06-30T13:16:32Z</time>
      </trkpt>
      <trkpt lat="43.08512" lon="0.28239">
        <ele>345.4</ele>
        <time>2020-06-30T13:16:33Z</time>
      </trkpt>
      <trkpt lat="43.08512" lon="0.28239">
        <ele>345.4</ele>
        <time>2020-06-30T13:16:34Z</time>
      </trkpt>
      <trkpt lat="43.08513" lon="0.28242">
        <ele>345.4</ele>
        <time>2020-06-30T13:16:35Z</time>
      </trkpt>
      <trkpt lat="43.08516" lon="0.2824">
        <ele>345.4</ele>
        <time>2020-06-30T13:16:36Z</time>
      </trkpt>
      <trkpt lat="43.08518" lon="0.28241">
        <ele>345.6</ele>
        <time>2020-06-30T13:16:37Z</time>
      </trkpt>
      <trkpt lat="43.08519" lon="0.28244">
        <ele>345.6</ele>
        <time>2020-06-30T13:16:38Z</time>
      </trkpt>
      <trkpt lat="43.0852" lon="0.28247">
        <ele>345.6</ele>
        <time>2020-06-30T13:16:39Z</time>
      </trkpt>
      <trkpt lat="43.08521" lon="0.28247">
        <ele>345.8</ele>
        <time>2020-06-30T13:16:40Z</time>
      </trkpt>
      <trkpt lat="43.08523" lon="0.2825">
        <ele>345.8</ele>
        <time>2020-06-30T13:16:41Z</time>
      </trkpt>
      <trkpt lat="43.08525" lon="0.28251">
        <ele>345.6</ele>
        <time>2020-06-30T13:16:42Z</time>
      </trkpt>
      <trkpt lat="43.08526" lon="0.28253">
        <ele>345.8</ele>
        <time>2020-06-30T13:16:43Z</time>
      </trkpt>
      <trkpt lat="43.08528" lon="0.28255">
        <ele>345.8</ele>
        <time>2020-06-30T13:16:44Z</time>
      </trkpt>
      <trkpt lat="43.08531" lon="0.28257">
        <ele>345.8</ele>
        <time>2020-06-30T13:16:45Z</time>
      </trkpt>
      <trkpt lat="43.08532" lon="0.28257">
        <ele>345.8</ele>
        <time>2020-06-30T13:16:46Z</time>
      </trkpt>
      <trkpt lat="43.08533" lon="0.28258">
        <ele>345.8</ele>
        <time>2020-06-30T13:16:47Z</time>
      </trkpt>
      <trkpt lat="43.08535" lon="0.28257">
        <ele>346</ele>
        <time>2020-06-30T13:16:48Z</time>
      </trkpt>
      <trkpt lat="43.08537" lon="0.28256">
        <ele>346</ele>
        <time>2020-06-30T13:16:49Z</time>
      </trkpt>
      <trkpt lat="43.0854" lon="0.28254">
        <ele>346</ele>
        <time>2020-06-30T13:16:50Z</time>
      </trkpt>
      <trkpt lat="43.08543" lon="0.28252">
        <ele>346.2</ele>
        <time>2020-06-30T13:16:51Z</time>
      </trkpt>
      <trkpt lat="43.08544" lon="0.2825">
        <ele>346.2</ele>
        <time>2020-06-30T13:16:52Z</time>
      </trkpt>
      <trkpt lat="43.08546" lon="0.28248">
        <ele>346.2</ele>
        <time>2020-06-30T13:16:53Z</time>
      </trkpt>
      <trkpt lat="43.08548" lon="0.28246">
        <ele>346.2</ele>
        <time>2020-06-30T13:16:54Z</time>
      </trkpt>
      <trkpt lat="43.0855" lon="0.28243">
        <ele>346.2</ele>
        <time>2020-06-30T13:16:55Z</time>
      </trkpt>
      <trkpt lat="43.08552" lon="0.2824">
        <ele>346</ele>
        <time>2020-06-30T13:16:56Z</time>
      </trkpt>
      <trkpt lat="43.08555" lon="0.28237">
        <ele>346</ele>
        <time>2020-06-30T13:16:57Z</time>
      </trkpt>
      <trkpt lat="43.08558" lon="0.28233">
        <ele>346</ele>
        <time>2020-06-30T13:16:58Z</time>
      </trkpt>
      <trkpt lat="43.0856" lon="0.28229">
        <ele>346</ele>
        <time>2020-06-30T13:16:59Z</time>
      </trkpt>
      <trkpt lat="43.08562" lon="0.28226">
        <ele>345.8</ele>
        <time>2020-06-30T13:17:00Z</time>
      </trkpt>
      <trkpt lat="43.08564" lon="0.28223">
        <ele>345.8</ele>
        <time>2020-06-30T13:17:01Z</time>
      </trkpt>
      <trkpt lat="43.08567" lon="0.28219">
        <ele>345.8</ele>
        <time>2020-06-30T13:17:02Z</time>
      </trkpt>
      <trkpt lat="43.0857" lon="0.28216">
        <ele>345.8</ele>
        <time>2020-06-30T13:17:03Z</time>
      </trkpt>
      <trkpt lat="43.08571" lon="0.28212">
        <ele>345.8</ele>
        <time>2020-06-30T13:17:04Z</time>
      </trkpt>
      <trkpt lat="43.08573" lon="0.28209">
        <ele>345.8</ele>
        <time>2020-06-30T13:17:05Z</time>
      </trkpt>
      <trkpt lat="43.08575" lon="0.28207">
        <ele>345.8</ele>
        <time>2020-06-30T13:17:06Z</time>
      </trkpt>
      <trkpt lat="43.08577" lon="0.28203">
        <ele>345.8</ele>
        <time>2020-06-30T13:17:07Z</time>
      </trkpt>
      <trkpt lat="43.08577" lon="0.282">
        <ele>345.8</ele>
        <time>2020-06-30T13:17:08Z</time>
      </trkpt>
      <trkpt lat="43.08579" lon="0.28198">
        <ele>345.8</ele>
        <time>2020-06-30T13:17:09Z</time>
      </trkpt>
      <trkpt lat="43.0858" lon="0.28195">
        <ele>345.8</ele>
        <time>2020-06-30T13:17:10Z</time>
      </trkpt>
      <trkpt lat="43.08582" lon="0.28191">
        <ele>346</ele>
        <time>2020-06-30T13:17:11Z</time>
      </trkpt>
      <trkpt lat="43.08583" lon="0.28189">
        <ele>346</ele>
        <time>2020-06-30T13:17:12Z</time>
      </trkpt>
      <trkpt lat="43.08584" lon="0.28185">
        <ele>346</ele>
        <time>2020-06-30T13:17:13Z</time>
      </trkpt>
      <trkpt lat="43.08586" lon="0.28182">
        <ele>346</ele>
        <time>2020-06-30T13:17:14Z</time>
      </trkpt>
      <trkpt lat="43.08587" lon="0.28178">
        <ele>346.2</ele>
        <time>2020-06-30T13:17:15Z</time>
      </trkpt>
      <trkpt lat="43.08587" lon="0.28175">
        <ele>346.2</ele>
        <time>2020-06-30T13:17:16Z</time>
      </trkpt>
      <trkpt lat="43.08587" lon="0.2817">
        <ele>346.4</ele>
        <time>2020-06-30T13:17:17Z</time>
      </trkpt>
      <trkpt lat="43.08588" lon="0.28167">
        <ele>346.6</ele>
        <time>2020-06-30T13:17:18Z</time>
      </trkpt>
      <trkpt lat="43.08589" lon="0.28164">
        <ele>346.6</ele>
        <time>2020-06-30T13:17:19Z</time>
      </trkpt>
      <trkpt lat="43.08591" lon="0.28161">
        <ele>346.6</ele>
        <time>2020-06-30T13:17:20Z</time>
      </trkpt>
      <trkpt lat="43.08592" lon="0.28158">
        <ele>346.6</ele>
        <time>2020-06-30T13:17:21Z</time>
      </trkpt>
      <trkpt lat="43.08593" lon="0.28155">
        <ele>346.6</ele>
        <time>2020-06-30T13:17:22Z</time>
      </trkpt>
      <trkpt lat="43.08595" lon="0.28153">
        <ele>346.8</ele>
        <time>2020-06-30T13:17:23Z</time>
      </trkpt>
      <trkpt lat="43.08596" lon="0.2815">
        <ele>346.8</ele>
        <time>2020-06-30T13:17:24Z</time>
      </trkpt>
      <trkpt lat="43.086" lon="0.28147">
        <ele>346.8</ele>
        <time>2020-06-30T13:17:25Z</time>
      </trkpt>
      <trkpt lat="43.08601" lon="0.28145">
        <ele>346.8</ele>
        <time>2020-06-30T13:17:26Z</time>
      </trkpt>
      <trkpt lat="43.08601" lon="0.2814">
        <ele>346.8</ele>
        <time>2020-06-30T13:17:27Z</time>
      </trkpt>
      <trkpt lat="43.08602" lon="0.28136">
        <ele>346.8</ele>
        <time>2020-06-30T13:17:28Z</time>
      </trkpt>
      <trkpt lat="43.08604" lon="0.28132">
        <ele>347</ele>
        <time>2020-06-30T13:17:29Z</time>
      </trkpt>
      <trkpt lat="43.08606" lon="0.28129">
        <ele>347</ele>
        <time>2020-06-30T13:17:30Z</time>
      </trkpt>
      <trkpt lat="43.08609" lon="0.28126">
        <ele>347</ele>
        <time>2020-06-30T13:17:31Z</time>
      </trkpt>
      <trkpt lat="43.0861" lon="0.28122">
        <ele>347</ele>
        <time>2020-06-30T13:17:32Z</time>
      </trkpt>
      <trkpt lat="43.08612" lon="0.28118">
        <ele>347</ele>
        <time>2020-06-30T13:17:33Z</time>
      </trkpt>
      <trkpt lat="43.08615" lon="0.28116">
        <ele>347</ele>
        <time>2020-06-30T13:17:34Z</time>
      </trkpt>
      <trkpt lat="43.08617" lon="0.28113">
        <ele>346.8</ele>
        <time>2020-06-30T13:17:35Z</time>
      </trkpt>
      <trkpt lat="43.0862" lon="0.28109">
        <ele>346.8</ele>
        <time>2020-06-30T13:17:36Z</time>
      </trkpt>
      <trkpt lat="43.08622" lon="0.28105">
        <ele>346.8</ele>
        <time>2020-06-30T13:17:37Z</time>
      </trkpt>
      <trkpt lat="43.08626" lon="0.28101">
        <ele>346.6</ele>
        <time>2020-06-30T13:17:38Z</time>
      </trkpt>
      <trkpt lat="43.0863" lon="0.28097">
        <ele>346.6</ele>
        <time>2020-06-30T13:17:39Z</time>
      </trkpt>
      <trkpt lat="43.08635" lon="0.28094">
        <ele>346.6</ele>
        <time>2020-06-30T13:17:40Z</time>
      </trkpt>
      <trkpt lat="43.08638" lon="0.2809">
        <ele>346.6</ele>
        <time>2020-06-30T13:17:41Z</time>
      </trkpt>
      <trkpt lat="43.08641" lon="0.28087">
        <ele>346.4</ele>
        <time>2020-06-30T13:17:42Z</time>
      </trkpt>
      <trkpt lat="43.08646" lon="0.28085">
        <ele>346.4</ele>
        <time>2020-06-30T13:17:43Z</time>
      </trkpt>
      <trkpt lat="43.0865" lon="0.28082">
        <ele>346.4</ele>
        <time>2020-06-30T13:17:44Z</time>
      </trkpt>
      <trkpt lat="43.08653" lon="0.28079">
        <ele>346.2</ele>
        <time>2020-06-30T13:17:45Z</time>
      </trkpt>
      <trkpt lat="43.08655" lon="0.28076">
        <ele>346.2</ele>
        <time>2020-06-30T13:17:46Z</time>
      </trkpt>
      <trkpt lat="43.08659" lon="0.28073">
        <ele>346.2</ele>
        <time>2020-06-30T13:17:47Z</time>
      </trkpt>
      <trkpt lat="43.08664" lon="0.28069">
        <ele>346</ele>
        <time>2020-06-30T13:17:48Z</time>
      </trkpt>
      <trkpt lat="43.08669" lon="0.28066">
        <ele>346</ele>
        <time>2020-06-30T13:17:49Z</time>
      </trkpt>
      <trkpt lat="43.08673" lon="0.28063">
        <ele>346</ele>
        <time>2020-06-30T13:17:50Z</time>
      </trkpt>
      <trkpt lat="43.08678" lon="0.28061">
        <ele>346</ele>
        <time>2020-06-30T13:17:51Z</time>
      </trkpt>
      <trkpt lat="43.08682" lon="0.28059">
        <ele>346</ele>
        <time>2020-06-30T13:17:52Z</time>
      </trkpt>
      <trkpt lat="43.08687" lon="0.28057">
        <ele>345.8</ele>
        <time>2020-06-30T13:17:53Z</time>
      </trkpt>
      <trkpt lat="43.0869" lon="0.28054">
        <ele>345.8</ele>
        <time>2020-06-30T13:17:54Z</time>
      </trkpt>
      <trkpt lat="43.08694" lon="0.28051">
        <ele>345.8</ele>
        <time>2020-06-30T13:17:55Z</time>
      </trkpt>
      <trkpt lat="43.08699" lon="0.28048">
        <ele>345.8</ele>
        <time>2020-06-30T13:17:56Z</time>
      </trkpt>
      <trkpt lat="43.08703" lon="0.28044">
        <ele>345.8</ele>
        <time>2020-06-30T13:17:57Z</time>
      </trkpt>
      <trkpt lat="43.08708" lon="0.2804">
        <ele>345.6</ele>
        <time>2020-06-30T13:17:58Z</time>
      </trkpt>
      <trkpt lat="43.08714" lon="0.28037">
        <ele>345.6</ele>
        <time>2020-06-30T13:17:59Z</time>
      </trkpt>
      <trkpt lat="43.08718" lon="0.28033">
        <ele>345.6</ele>
        <time>2020-06-30T13:18:00Z</time>
      </trkpt>
      <trkpt lat="43.08722" lon="0.28029">
        <ele>345.6</ele>
        <time>2020-06-30T13:18:01Z</time>
      </trkpt>
      <trkpt lat="43.08727" lon="0.28026">
        <ele>345.6</ele>
        <time>2020-06-30T13:18:02Z</time>
      </trkpt>
      <trkpt lat="43.0873" lon="0.28024">
        <ele>345.4</ele>
        <time>2020-06-30T13:18:03Z</time>
      </trkpt>
      <trkpt lat="43.08735" lon="0.28021">
        <ele>345.4</ele>
        <time>2020-06-30T13:18:04Z</time>
      </trkpt>
      <trkpt lat="43.08741" lon="0.28018">
        <ele>345.4</ele>
        <time>2020-06-30T13:18:05Z</time>
      </trkpt>
      <trkpt lat="43.08744" lon="0.28015">
        <ele>345.2</ele>
        <time>2020-06-30T13:18:06Z</time>
      </trkpt>
      <trkpt lat="43.08749" lon="0.28012">
        <ele>345.2</ele>
        <time>2020-06-30T13:18:07Z</time>
      </trkpt>
      <trkpt lat="43.08754" lon="0.28009">
        <ele>345.2</ele>
        <time>2020-06-30T13:18:08Z</time>
      </trkpt>
      <trkpt lat="43.08759" lon="0.28006">
        <ele>345.2</ele>
        <time>2020-06-30T13:18:09Z</time>
      </trkpt>
      <trkpt lat="43.08764" lon="0.28004">
        <ele>345.2</ele>
        <time>2020-06-30T13:18:10Z</time>
      </trkpt>
      <trkpt lat="43.08769" lon="0.28002">
        <ele>345.2</ele>
        <time>2020-06-30T13:18:11Z</time>
      </trkpt>
      <trkpt lat="43.08775" lon="0.28">
        <ele>345.2</ele>
        <time>2020-06-30T13:18:12Z</time>
      </trkpt>
      <trkpt lat="43.0878" lon="0.27999">
        <ele>345.2</ele>
        <time>2020-06-30T13:18:13Z</time>
      </trkpt>
      <trkpt lat="43.08786" lon="0.27996">
        <ele>345.2</ele>
        <time>2020-06-30T13:18:14Z</time>
      </trkpt>
      <trkpt lat="43.08791" lon="0.27994">
        <ele>345.2</ele>
        <time>2020-06-30T13:18:15Z</time>
      </trkpt>
      <trkpt lat="43.08796" lon="0.27993">
        <ele>345</ele>
        <time>2020-06-30T13:18:16Z</time>
      </trkpt>
      <trkpt lat="43.088" lon="0.27991">
        <ele>345</ele>
        <time>2020-06-30T13:18:17Z</time>
      </trkpt>
      <trkpt lat="43.08803" lon="0.2799">
        <ele>345</ele>
        <time>2020-06-30T13:18:18Z</time>
      </trkpt>
      <trkpt lat="43.08808" lon="0.27988">
        <ele>345</ele>
        <time>2020-06-30T13:18:19Z</time>
      </trkpt>
      <trkpt lat="43.08815" lon="0.27986">
        <ele>345</ele>
        <time>2020-06-30T13:18:20Z</time>
      </trkpt>
      <trkpt lat="43.08821" lon="0.27985">
        <ele>344.8</ele>
        <time>2020-06-30T13:18:21Z</time>
      </trkpt>
      <trkpt lat="43.08824" lon="0.27984">
        <ele>345</ele>
        <time>2020-06-30T13:18:22Z</time>
      </trkpt>
      <trkpt lat="43.08829" lon="0.27981">
        <ele>344.8</ele>
        <time>2020-06-30T13:18:23Z</time>
      </trkpt>
      <trkpt lat="43.08835" lon="0.2798">
        <ele>344.8</ele>
        <time>2020-06-30T13:18:24Z</time>
      </trkpt>
      <trkpt lat="43.08841" lon="0.27977">
        <ele>344.8</ele>
        <time>2020-06-30T13:18:25Z</time>
      </trkpt>
      <trkpt lat="43.08847" lon="0.27975">
        <ele>344.8</ele>
        <time>2020-06-30T13:18:26Z</time>
      </trkpt>
      <trkpt lat="43.08853" lon="0.27973">
        <ele>344.8</ele>
        <time>2020-06-30T13:18:27Z</time>
      </trkpt>
      <trkpt lat="43.08858" lon="0.2797">
        <ele>344.8</ele>
        <time>2020-06-30T13:18:28Z</time>
      </trkpt>
      <trkpt lat="43.08864" lon="0.27967">
        <ele>344.8</ele>
        <time>2020-06-30T13:18:29Z</time>
      </trkpt>
      <trkpt lat="43.08869" lon="0.27963">
        <ele>344.8</ele>
        <time>2020-06-30T13:18:30Z</time>
      </trkpt>
      <trkpt lat="43.08873" lon="0.27959">
        <ele>344.8</ele>
        <time>2020-06-30T13:18:31Z</time>
      </trkpt>
      <trkpt lat="43.08878" lon="0.27955">
        <ele>344.8</ele>
        <time>2020-06-30T13:18:32Z</time>
      </trkpt>
      <trkpt lat="43.08883" lon="0.27952">
        <ele>344.8</ele>
        <time>2020-06-30T13:18:33Z</time>
      </trkpt>
      <trkpt lat="43.08887" lon="0.27948">
        <ele>344.8</ele>
        <time>2020-06-30T13:18:34Z</time>
      </trkpt>
      <trkpt lat="43.08891" lon="0.27943">
        <ele>344.8</ele>
        <time>2020-06-30T13:18:35Z</time>
      </trkpt>
      <trkpt lat="43.08895" lon="0.27936">
        <ele>344.8</ele>
        <time>2020-06-30T13:18:36Z</time>
      </trkpt>
      <trkpt lat="43.089" lon="0.27932">
        <ele>344.8</ele>
        <time>2020-06-30T13:18:37Z</time>
      </trkpt>
      <trkpt lat="43.08905" lon="0.27928">
        <ele>345</ele>
        <time>2020-06-30T13:18:38Z</time>
      </trkpt>
      <trkpt lat="43.08911" lon="0.27924">
        <ele>344.8</ele>
        <time>2020-06-30T13:18:39Z</time>
      </trkpt>
      <trkpt lat="43.08916" lon="0.2792">
        <ele>344.8</ele>
        <time>2020-06-30T13:18:40Z</time>
      </trkpt>
      <trkpt lat="43.08921" lon="0.27916">
        <ele>344.8</ele>
        <time>2020-06-30T13:18:41Z</time>
      </trkpt>
      <trkpt lat="43.08926" lon="0.27913">
        <ele>344.8</ele>
        <time>2020-06-30T13:18:42Z</time>
      </trkpt>
      <trkpt lat="43.0893" lon="0.27909">
        <ele>344.8</ele>
        <time>2020-06-30T13:18:43Z</time>
      </trkpt>
      <trkpt lat="43.08934" lon="0.27904">
        <ele>344.8</ele>
        <time>2020-06-30T13:18:44Z</time>
      </trkpt>
      <trkpt lat="43.08938" lon="0.279">
        <ele>344.8</ele>
        <time>2020-06-30T13:18:45Z</time>
      </trkpt>
      <trkpt lat="43.08942" lon="0.27895">
        <ele>344.8</ele>
        <time>2020-06-30T13:18:46Z</time>
      </trkpt>
      <trkpt lat="43.08946" lon="0.27892">
        <ele>344.8</ele>
        <time>2020-06-30T13:18:47Z</time>
      </trkpt>
      <trkpt lat="43.08951" lon="0.27888">
        <ele>344.8</ele>
        <time>2020-06-30T13:18:48Z</time>
      </trkpt>
      <trkpt lat="43.08955" lon="0.27884">
        <ele>344.6</ele>
        <time>2020-06-30T13:18:49Z</time>
      </trkpt>
      <trkpt lat="43.08959" lon="0.27879">
        <ele>344.6</ele>
        <time>2020-06-30T13:18:50Z</time>
      </trkpt>
      <trkpt lat="43.08962" lon="0.27874">
        <ele>344.4</ele>
        <time>2020-06-30T13:18:51Z</time>
      </trkpt>
      <trkpt lat="43.08966" lon="0.2787">
        <ele>344.4</ele>
        <time>2020-06-30T13:18:52Z</time>
      </trkpt>
      <trkpt lat="43.0897" lon="0.27865">
        <ele>344.4</ele>
        <time>2020-06-30T13:18:53Z</time>
      </trkpt>
      <trkpt lat="43.08974" lon="0.2786">
        <ele>344.4</ele>
        <time>2020-06-30T13:18:54Z</time>
      </trkpt>
      <trkpt lat="43.08978" lon="0.27856">
        <ele>344.4</ele>
        <time>2020-06-30T13:18:55Z</time>
      </trkpt>
      <trkpt lat="43.08982" lon="0.2785">
        <ele>344.2</ele>
        <time>2020-06-30T13:18:56Z</time>
      </trkpt>
      <trkpt lat="43.08985" lon="0.27845">
        <ele>344.2</ele>
        <time>2020-06-30T13:18:57Z</time>
      </trkpt>
      <trkpt lat="43.08988" lon="0.27839">
        <ele>344.2</ele>
        <time>2020-06-30T13:18:58Z</time>
      </trkpt>
      <trkpt lat="43.08991" lon="0.27834">
        <ele>344.4</ele>
        <time>2020-06-30T13:18:59Z</time>
      </trkpt>
      <trkpt lat="43.08995" lon="0.27828">
        <ele>344.4</ele>
        <time>2020-06-30T13:19:00Z</time>
      </trkpt>
      <trkpt lat="43.08998" lon="0.27823">
        <ele>344.2</ele>
        <time>2020-06-30T13:19:01Z</time>
      </trkpt>
      <trkpt lat="43.09001" lon="0.27817">
        <ele>344.2</ele>
        <time>2020-06-30T13:19:02Z</time>
      </trkpt>
      <trkpt lat="43.09005" lon="0.27812">
        <ele>344.2</ele>
        <time>2020-06-30T13:19:03Z</time>
      </trkpt>
      <trkpt lat="43.09007" lon="0.27807">
        <ele>344.2</ele>
        <time>2020-06-30T13:19:04Z</time>
      </trkpt>
      <trkpt lat="43.0901" lon="0.278">
        <ele>344</ele>
        <time>2020-06-30T13:19:05Z</time>
      </trkpt>
      <trkpt lat="43.09014" lon="0.27795">
        <ele>343.8</ele>
        <time>2020-06-30T13:19:06Z</time>
      </trkpt>
      <trkpt lat="43.09018" lon="0.2779">
        <ele>344</ele>
        <time>2020-06-30T13:19:07Z</time>
      </trkpt>
      <trkpt lat="43.09022" lon="0.27785">
        <ele>344</ele>
        <time>2020-06-30T13:19:08Z</time>
      </trkpt>
      <trkpt lat="43.09026" lon="0.2778">
        <ele>343.6</ele>
        <time>2020-06-30T13:19:09Z</time>
      </trkpt>
      <trkpt lat="43.09029" lon="0.27774">
        <ele>343.4</ele>
        <time>2020-06-30T13:19:10Z</time>
      </trkpt>
      <trkpt lat="43.09032" lon="0.27768">
        <ele>343.4</ele>
        <time>2020-06-30T13:19:11Z</time>
      </trkpt>
      <trkpt lat="43.09035" lon="0.27761">
        <ele>343.4</ele>
        <time>2020-06-30T13:19:12Z</time>
      </trkpt>
      <trkpt lat="43.09037" lon="0.27753">
        <ele>343.2</ele>
        <time>2020-06-30T13:19:13Z</time>
      </trkpt>
      <trkpt lat="43.0904" lon="0.27747">
        <ele>343.2</ele>
        <time>2020-06-30T13:19:14Z</time>
      </trkpt>
      <trkpt lat="43.09041" lon="0.2774">
        <ele>343.2</ele>
        <time>2020-06-30T13:19:15Z</time>
      </trkpt>
      <trkpt lat="43.09044" lon="0.27733">
        <ele>343.2</ele>
        <time>2020-06-30T13:19:16Z</time>
      </trkpt>
      <trkpt lat="43.09046" lon="0.27726">
        <ele>343.2</ele>
        <time>2020-06-30T13:19:17Z</time>
      </trkpt>
      <trkpt lat="43.09049" lon="0.2772">
        <ele>343</ele>
        <time>2020-06-30T13:19:18Z</time>
      </trkpt>
      <trkpt lat="43.09052" lon="0.27713">
        <ele>343</ele>
        <time>2020-06-30T13:19:19Z</time>
      </trkpt>
      <trkpt lat="43.09054" lon="0.27706">
        <ele>342.8</ele>
        <time>2020-06-30T13:19:20Z</time>
      </trkpt>
      <trkpt lat="43.09057" lon="0.277">
        <ele>342.8</ele>
        <time>2020-06-30T13:19:21Z</time>
      </trkpt>
      <trkpt lat="43.09058" lon="0.27692">
        <ele>342.8</ele>
        <time>2020-06-30T13:19:22Z</time>
      </trkpt>
      <trkpt lat="43.0906" lon="0.27685">
        <ele>342.6</ele>
        <time>2020-06-30T13:19:23Z</time>
      </trkpt>
      <trkpt lat="43.09061" lon="0.27677">
        <ele>342.6</ele>
        <time>2020-06-30T13:19:24Z</time>
      </trkpt>
      <trkpt lat="43.09062" lon="0.2767">
        <ele>342.6</ele>
        <time>2020-06-30T13:19:25Z</time>
      </trkpt>
      <trkpt lat="43.09064" lon="0.27663">
        <ele>342.6</ele>
        <time>2020-06-30T13:19:26Z</time>
      </trkpt>
      <trkpt lat="43.09067" lon="0.27656">
        <ele>342.6</ele>
        <time>2020-06-30T13:19:27Z</time>
      </trkpt>
      <trkpt lat="43.09069" lon="0.2765">
        <ele>342.6</ele>
        <time>2020-06-30T13:19:28Z</time>
      </trkpt>
      <trkpt lat="43.09072" lon="0.27643">
        <ele>342.4</ele>
        <time>2020-06-30T13:19:29Z</time>
      </trkpt>
      <trkpt lat="43.09074" lon="0.27636">
        <ele>342.4</ele>
        <time>2020-06-30T13:19:30Z</time>
      </trkpt>
      <trkpt lat="43.09078" lon="0.27629">
        <ele>342.2</ele>
        <time>2020-06-30T13:19:31Z</time>
      </trkpt>
      <trkpt lat="43.09081" lon="0.27622">
        <ele>342.2</ele>
        <time>2020-06-30T13:19:32Z</time>
      </trkpt>
      <trkpt lat="43.09084" lon="0.27615">
        <ele>342.2</ele>
        <time>2020-06-30T13:19:33Z</time>
      </trkpt>
      <trkpt lat="43.09087" lon="0.27609">
        <ele>342.2</ele>
        <time>2020-06-30T13:19:34Z</time>
      </trkpt>
      <trkpt lat="43.09089" lon="0.27602">
        <ele>342.2</ele>
        <time>2020-06-30T13:19:35Z</time>
      </trkpt>
      <trkpt lat="43.09092" lon="0.27595">
        <ele>342.2</ele>
        <time>2020-06-30T13:19:36Z</time>
      </trkpt>
      <trkpt lat="43.09094" lon="0.27588">
        <ele>342.2</ele>
        <time>2020-06-30T13:19:37Z</time>
      </trkpt>
      <trkpt lat="43.09096" lon="0.27581">
        <ele>342.2</ele>
        <time>2020-06-30T13:19:38Z</time>
      </trkpt>
      <trkpt lat="43.09099" lon="0.27574">
        <ele>342.2</ele>
        <time>2020-06-30T13:19:39Z</time>
      </trkpt>
      <trkpt lat="43.09101" lon="0.27567">
        <ele>342.2</ele>
        <time>2020-06-30T13:19:40Z</time>
      </trkpt>
      <trkpt lat="43.09103" lon="0.27558">
        <ele>341.8</ele>
        <time>2020-06-30T13:19:41Z</time>
      </trkpt>
      <trkpt lat="43.09106" lon="0.2755">
        <ele>341.8</ele>
        <time>2020-06-30T13:19:42Z</time>
      </trkpt>
      <trkpt lat="43.09108" lon="0.27543">
        <ele>341.8</ele>
        <time>2020-06-30T13:19:43Z</time>
      </trkpt>
      <trkpt lat="43.0911" lon="0.27535">
        <ele>341.6</ele>
        <time>2020-06-30T13:19:44Z</time>
      </trkpt>
      <trkpt lat="43.09113" lon="0.27528">
        <ele>341.6</ele>
        <time>2020-06-30T13:19:45Z</time>
      </trkpt>
      <trkpt lat="43.09115" lon="0.27522">
        <ele>341.6</ele>
        <time>2020-06-30T13:19:46Z</time>
      </trkpt>
      <trkpt lat="43.09118" lon="0.27513">
        <ele>341.4</ele>
        <time>2020-06-30T13:19:47Z</time>
      </trkpt>
      <trkpt lat="43.09119" lon="0.27506">
        <ele>341.2</ele>
        <time>2020-06-30T13:19:48Z</time>
      </trkpt>
      <trkpt lat="43.09123" lon="0.275">
        <ele>341</ele>
        <time>2020-06-30T13:19:49Z</time>
      </trkpt>
      <trkpt lat="43.09125" lon="0.27493">
        <ele>341</ele>
        <time>2020-06-30T13:19:50Z</time>
      </trkpt>
      <trkpt lat="43.09128" lon="0.27487">
        <ele>340.8</ele>
        <time>2020-06-30T13:19:51Z</time>
      </trkpt>
      <trkpt lat="43.0913" lon="0.2748">
        <ele>340.8</ele>
        <time>2020-06-30T13:19:52Z</time>
      </trkpt>
      <trkpt lat="43.09132" lon="0.27472">
        <ele>340.6</ele>
        <time>2020-06-30T13:19:53Z</time>
      </trkpt>
      <trkpt lat="43.09133" lon="0.27466">
        <ele>340.4</ele>
        <time>2020-06-30T13:19:54Z</time>
      </trkpt>
      <trkpt lat="43.09136" lon="0.27458">
        <ele>340.4</ele>
        <time>2020-06-30T13:19:55Z</time>
      </trkpt>
      <trkpt lat="43.09137" lon="0.27451">
        <ele>340.4</ele>
        <time>2020-06-30T13:19:56Z</time>
      </trkpt>
      <trkpt lat="43.09142" lon="0.27443">
        <ele>340.4</ele>
        <time>2020-06-30T13:19:57Z</time>
      </trkpt>
      <trkpt lat="43.09144" lon="0.27436">
        <ele>340.2</ele>
        <time>2020-06-30T13:19:58Z</time>
      </trkpt>
      <trkpt lat="43.09145" lon="0.27428">
        <ele>339.8</ele>
        <time>2020-06-30T13:19:59Z</time>
      </trkpt>
      <trkpt lat="43.09148" lon="0.27421">
        <ele>339.6</ele>
        <time>2020-06-30T13:20:00Z</time>
      </trkpt>
      <trkpt lat="43.09151" lon="0.27413">
        <ele>339.6</ele>
        <time>2020-06-30T13:20:01Z</time>
      </trkpt>
      <trkpt lat="43.09153" lon="0.27406">
        <ele>339.6</ele>
        <time>2020-06-30T13:20:02Z</time>
      </trkpt>
      <trkpt lat="43.09156" lon="0.27399">
        <ele>339.6</ele>
        <time>2020-06-30T13:20:03Z</time>
      </trkpt>
      <trkpt lat="43.09158" lon="0.27392">
        <ele>339.6</ele>
        <time>2020-06-30T13:20:04Z</time>
      </trkpt>
      <trkpt lat="43.09161" lon="0.27385">
        <ele>339.4</ele>
        <time>2020-06-30T13:20:05Z</time>
      </trkpt>
      <trkpt lat="43.09163" lon="0.27377">
        <ele>339.2</ele>
        <time>2020-06-30T13:20:06Z</time>
      </trkpt>
      <trkpt lat="43.09166" lon="0.27371">
        <ele>339.2</ele>
        <time>2020-06-30T13:20:07Z</time>
      </trkpt>
      <trkpt lat="43.09169" lon="0.27365">
        <ele>339</ele>
        <time>2020-06-30T13:20:08Z</time>
      </trkpt>
      <trkpt lat="43.09171" lon="0.27358">
        <ele>338.6</ele>
        <time>2020-06-30T13:20:09Z</time>
      </trkpt>
      <trkpt lat="43.09173" lon="0.2735">
        <ele>338.4</ele>
        <time>2020-06-30T13:20:10Z</time>
      </trkpt>
      <trkpt lat="43.09175" lon="0.27344">
        <ele>338.4</ele>
        <time>2020-06-30T13:20:11Z</time>
      </trkpt>
      <trkpt lat="43.09177" lon="0.27336">
        <ele>338.2</ele>
        <time>2020-06-30T13:20:12Z</time>
      </trkpt>
      <trkpt lat="43.0918" lon="0.2733">
        <ele>338</ele>
        <time>2020-06-30T13:20:13Z</time>
      </trkpt>
      <trkpt lat="43.09183" lon="0.27321">
        <ele>338</ele>
        <time>2020-06-30T13:20:14Z</time>
      </trkpt>
      <trkpt lat="43.09185" lon="0.27314">
        <ele>337.8</ele>
        <time>2020-06-30T13:20:15Z</time>
      </trkpt>
      <trkpt lat="43.09186" lon="0.27306">
        <ele>337.8</ele>
        <time>2020-06-30T13:20:16Z</time>
      </trkpt>
      <trkpt lat="43.09188" lon="0.27297">
        <ele>337.6</ele>
        <time>2020-06-30T13:20:17Z</time>
      </trkpt>
      <trkpt lat="43.09189" lon="0.27289">
        <ele>337.4</ele>
        <time>2020-06-30T13:20:18Z</time>
      </trkpt>
      <trkpt lat="43.0919" lon="0.2728">
        <ele>337</ele>
        <time>2020-06-30T13:20:19Z</time>
      </trkpt>
      <trkpt lat="43.09193" lon="0.27274">
        <ele>337</ele>
        <time>2020-06-30T13:20:20Z</time>
      </trkpt>
      <trkpt lat="43.09195" lon="0.27266">
        <ele>336.8</ele>
        <time>2020-06-30T13:20:21Z</time>
      </trkpt>
      <trkpt lat="43.09197" lon="0.27258">
        <ele>336.6</ele>
        <time>2020-06-30T13:20:22Z</time>
      </trkpt>
      <trkpt lat="43.09201" lon="0.27252">
        <ele>336.4</ele>
        <time>2020-06-30T13:20:23Z</time>
      </trkpt>
      <trkpt lat="43.09204" lon="0.27243">
        <ele>336</ele>
        <time>2020-06-30T13:20:24Z</time>
      </trkpt>
      <trkpt lat="43.09207" lon="0.27235">
        <ele>336</ele>
        <time>2020-06-30T13:20:25Z</time>
      </trkpt>
      <trkpt lat="43.09211" lon="0.27228">
        <ele>335.8</ele>
        <time>2020-06-30T13:20:26Z</time>
      </trkpt>
      <trkpt lat="43.09214" lon="0.27221">
        <ele>335.8</ele>
        <time>2020-06-30T13:20:27Z</time>
      </trkpt>
      <trkpt lat="43.09218" lon="0.27214">
        <ele>335.6</ele>
        <time>2020-06-30T13:20:28Z</time>
      </trkpt>
      <trkpt lat="43.0922" lon="0.27207">
        <ele>335.4</ele>
        <time>2020-06-30T13:20:29Z</time>
      </trkpt>
      <trkpt lat="43.09222" lon="0.27196">
        <ele>335.2</ele>
        <time>2020-06-30T13:20:30Z</time>
      </trkpt>
      <trkpt lat="43.09223" lon="0.27186">
        <ele>335</ele>
        <time>2020-06-30T13:20:31Z</time>
      </trkpt>
      <trkpt lat="43.09225" lon="0.27176">
        <ele>335</ele>
        <time>2020-06-30T13:20:32Z</time>
      </trkpt>
      <trkpt lat="43.09227" lon="0.27167">
        <ele>335</ele>
        <time>2020-06-30T13:20:33Z</time>
      </trkpt>
      <trkpt lat="43.09231" lon="0.27157">
        <ele>334.8</ele>
        <time>2020-06-30T13:20:34Z</time>
      </trkpt>
      <trkpt lat="43.09234" lon="0.27149">
        <ele>334.8</ele>
        <time>2020-06-30T13:20:35Z</time>
      </trkpt>
      <trkpt lat="43.09238" lon="0.27141">
        <ele>334.8</ele>
        <time>2020-06-30T13:20:36Z</time>
      </trkpt>
      <trkpt lat="43.09241" lon="0.27133">
        <ele>334.8</ele>
        <time>2020-06-30T13:20:37Z</time>
      </trkpt>
      <trkpt lat="43.09243" lon="0.27124">
        <ele>334.6</ele>
        <time>2020-06-30T13:20:38Z</time>
      </trkpt>
      <trkpt lat="43.09245" lon="0.27115">
        <ele>334.6</ele>
        <time>2020-06-30T13:20:39Z</time>
      </trkpt>
      <trkpt lat="43.0925" lon="0.27107">
        <ele>334.4</ele>
        <time>2020-06-30T13:20:40Z</time>
      </trkpt>
      <trkpt lat="43.09253" lon="0.27099">
        <ele>334.2</ele>
        <time>2020-06-30T13:20:41Z</time>
      </trkpt>
      <trkpt lat="43.09256" lon="0.27091">
        <ele>334.2</ele>
        <time>2020-06-30T13:20:42Z</time>
      </trkpt>
      <trkpt lat="43.09259" lon="0.27082">
        <ele>334.2</ele>
        <time>2020-06-30T13:20:43Z</time>
      </trkpt>
      <trkpt lat="43.09262" lon="0.27073">
        <ele>334</ele>
        <time>2020-06-30T13:20:44Z</time>
      </trkpt>
      <trkpt lat="43.09264" lon="0.27064">
        <ele>334</ele>
        <time>2020-06-30T13:20:45Z</time>
      </trkpt>
      <trkpt lat="43.09267" lon="0.27055">
        <ele>334</ele>
        <time>2020-06-30T13:20:46Z</time>
      </trkpt>
      <trkpt lat="43.09272" lon="0.27046">
        <ele>334</ele>
        <time>2020-06-30T13:20:47Z</time>
      </trkpt>
      <trkpt lat="43.09274" lon="0.27037">
        <ele>334</ele>
        <time>2020-06-30T13:20:48Z</time>
      </trkpt>
      <trkpt lat="43.09277" lon="0.27028">
        <ele>334</ele>
        <time>2020-06-30T13:20:49Z</time>
      </trkpt>
      <trkpt lat="43.09281" lon="0.2702">
        <ele>334</ele>
        <time>2020-06-30T13:20:50Z</time>
      </trkpt>
      <trkpt lat="43.09283" lon="0.27011">
        <ele>334</ele>
        <time>2020-06-30T13:20:51Z</time>
      </trkpt>
      <trkpt lat="43.09286" lon="0.27004">
        <ele>334</ele>
        <time>2020-06-30T13:20:52Z</time>
      </trkpt>
      <trkpt lat="43.09288" lon="0.26996">
        <ele>334</ele>
        <time>2020-06-30T13:20:53Z</time>
      </trkpt>
      <trkpt lat="43.09291" lon="0.26987">
        <ele>334</ele>
        <time>2020-06-30T13:20:54Z</time>
      </trkpt>
      <trkpt lat="43.09292" lon="0.26977">
        <ele>334</ele>
        <time>2020-06-30T13:20:55Z</time>
      </trkpt>
      <trkpt lat="43.09294" lon="0.26967">
        <ele>334</ele>
        <time>2020-06-30T13:20:56Z</time>
      </trkpt>
      <trkpt lat="43.09296" lon="0.26959">
        <ele>334</ele>
        <time>2020-06-30T13:20:57Z</time>
      </trkpt>
      <trkpt lat="43.09297" lon="0.26951">
        <ele>334</ele>
        <time>2020-06-30T13:20:58Z</time>
      </trkpt>
      <trkpt lat="43.093" lon="0.26942">
        <ele>334</ele>
        <time>2020-06-30T13:20:59Z</time>
      </trkpt>
      <trkpt lat="43.09303" lon="0.26937">
        <ele>334</ele>
        <time>2020-06-30T13:21:00Z</time>
      </trkpt>
      <trkpt lat="43.09304" lon="0.26929">
        <ele>334</ele>
        <time>2020-06-30T13:21:01Z</time>
      </trkpt>
      <trkpt lat="43.09306" lon="0.26921">
        <ele>334</ele>
        <time>2020-06-30T13:21:02Z</time>
      </trkpt>
      <trkpt lat="43.0931" lon="0.26914">
        <ele>334</ele>
        <time>2020-06-30T13:21:03Z</time>
      </trkpt>
      <trkpt lat="43.09312" lon="0.26906">
        <ele>334</ele>
        <time>2020-06-30T13:21:04Z</time>
      </trkpt>
      <trkpt lat="43.09315" lon="0.26901">
        <ele>334</ele>
        <time>2020-06-30T13:21:05Z</time>
      </trkpt>
      <trkpt lat="43.09317" lon="0.2689">
        <ele>334</ele>
        <time>2020-06-30T13:21:06Z</time>
      </trkpt>
      <trkpt lat="43.09318" lon="0.26883">
        <ele>334</ele>
        <time>2020-06-30T13:21:07Z</time>
      </trkpt>
      <trkpt lat="43.0932" lon="0.26875">
        <ele>333.8</ele>
        <time>2020-06-30T13:21:08Z</time>
      </trkpt>
      <trkpt lat="43.09323" lon="0.26868">
        <ele>333.8</ele>
        <time>2020-06-30T13:21:09Z</time>
      </trkpt>
      <trkpt lat="43.09324" lon="0.26861">
        <ele>333.8</ele>
        <time>2020-06-30T13:21:10Z</time>
      </trkpt>
      <trkpt lat="43.09325" lon="0.26854">
        <ele>333.8</ele>
        <time>2020-06-30T13:21:11Z</time>
      </trkpt>
      <trkpt lat="43.09328" lon="0.26845">
        <ele>333.8</ele>
        <time>2020-06-30T13:21:12Z</time>
      </trkpt>
      <trkpt lat="43.09329" lon="0.26836">
        <ele>333.8</ele>
        <time>2020-06-30T13:21:13Z</time>
      </trkpt>
      <trkpt lat="43.0933" lon="0.26829">
        <ele>333.6</ele>
        <time>2020-06-30T13:21:14Z</time>
      </trkpt>
      <trkpt lat="43.09333" lon="0.26821">
        <ele>333.8</ele>
        <time>2020-06-30T13:21:15Z</time>
      </trkpt>
      <trkpt lat="43.09334" lon="0.26812">
        <ele>333.8</ele>
        <time>2020-06-30T13:21:16Z</time>
      </trkpt>
      <trkpt lat="43.09336" lon="0.26805">
        <ele>333.6</ele>
        <time>2020-06-30T13:21:17Z</time>
      </trkpt>
      <trkpt lat="43.09338" lon="0.26797">
        <ele>333.6</ele>
        <time>2020-06-30T13:21:18Z</time>
      </trkpt>
      <trkpt lat="43.09339" lon="0.26789">
        <ele>333.6</ele>
        <time>2020-06-30T13:21:19Z</time>
      </trkpt>
      <trkpt lat="43.09341" lon="0.26781">
        <ele>333.6</ele>
        <time>2020-06-30T13:21:20Z</time>
      </trkpt>
      <trkpt lat="43.09343" lon="0.26773">
        <ele>333.4</ele>
        <time>2020-06-30T13:21:21Z</time>
      </trkpt>
      <trkpt lat="43.09343" lon="0.26763">
        <ele>333.4</ele>
        <time>2020-06-30T13:21:22Z</time>
      </trkpt>
      <trkpt lat="43.09346" lon="0.26756">
        <ele>333.4</ele>
        <time>2020-06-30T13:21:23Z</time>
      </trkpt>
      <trkpt lat="43.09349" lon="0.2675">
        <ele>333.4</ele>
        <time>2020-06-30T13:21:24Z</time>
      </trkpt>
      <trkpt lat="43.09352" lon="0.26741">
        <ele>333.2</ele>
        <time>2020-06-30T13:21:25Z</time>
      </trkpt>
      <trkpt lat="43.09352" lon="0.26731">
        <ele>333.2</ele>
        <time>2020-06-30T13:21:26Z</time>
      </trkpt>
      <trkpt lat="43.09353" lon="0.26721">
        <ele>333</ele>
        <time>2020-06-30T13:21:27Z</time>
      </trkpt>
      <trkpt lat="43.09355" lon="0.26712">
        <ele>333</ele>
        <time>2020-06-30T13:21:28Z</time>
      </trkpt>
      <trkpt lat="43.09358" lon="0.26704">
        <ele>332.8</ele>
        <time>2020-06-30T13:21:29Z</time>
      </trkpt>
      <trkpt lat="43.09358" lon="0.26694">
        <ele>332.6</ele>
        <time>2020-06-30T13:21:30Z</time>
      </trkpt>
      <trkpt lat="43.0936" lon="0.26685">
        <ele>332.4</ele>
        <time>2020-06-30T13:21:31Z</time>
      </trkpt>
      <trkpt lat="43.09362" lon="0.26677">
        <ele>332.4</ele>
        <time>2020-06-30T13:21:32Z</time>
      </trkpt>
      <trkpt lat="43.09364" lon="0.26668">
        <ele>332.2</ele>
        <time>2020-06-30T13:21:33Z</time>
      </trkpt>
      <trkpt lat="43.09366" lon="0.2666">
        <ele>332.2</ele>
        <time>2020-06-30T13:21:34Z</time>
      </trkpt>
      <trkpt lat="43.09369" lon="0.26652">
        <ele>332</ele>
        <time>2020-06-30T13:21:35Z</time>
      </trkpt>
      <trkpt lat="43.09371" lon="0.26645">
        <ele>331.8</ele>
        <time>2020-06-30T13:21:36Z</time>
      </trkpt>
      <trkpt lat="43.09373" lon="0.26637">
        <ele>331.8</ele>
        <time>2020-06-30T13:21:37Z</time>
      </trkpt>
      <trkpt lat="43.09376" lon="0.26631">
        <ele>331.6</ele>
        <time>2020-06-30T13:21:38Z</time>
      </trkpt>
      <trkpt lat="43.09377" lon="0.2662">
        <ele>331.6</ele>
        <time>2020-06-30T13:21:39Z</time>
      </trkpt>
      <trkpt lat="43.09379" lon="0.2661">
        <ele>331.4</ele>
        <time>2020-06-30T13:21:40Z</time>
      </trkpt>
      <trkpt lat="43.09381" lon="0.26601">
        <ele>331.4</ele>
        <time>2020-06-30T13:21:41Z</time>
      </trkpt>
      <trkpt lat="43.09384" lon="0.26593">
        <ele>331.2</ele>
        <time>2020-06-30T13:21:42Z</time>
      </trkpt>
      <trkpt lat="43.09386" lon="0.26585">
        <ele>331</ele>
        <time>2020-06-30T13:21:43Z</time>
      </trkpt>
      <trkpt lat="43.09388" lon="0.26577">
        <ele>331</ele>
        <time>2020-06-30T13:21:44Z</time>
      </trkpt>
      <trkpt lat="43.09392" lon="0.26569">
        <ele>330.8</ele>
        <time>2020-06-30T13:21:45Z</time>
      </trkpt>
      <trkpt lat="43.09394" lon="0.26561">
        <ele>330.6</ele>
        <time>2020-06-30T13:21:46Z</time>
      </trkpt>
      <trkpt lat="43.09396" lon="0.26551">
        <ele>330.4</ele>
        <time>2020-06-30T13:21:47Z</time>
      </trkpt>
      <trkpt lat="43.09399" lon="0.26545">
        <ele>330.2</ele>
        <time>2020-06-30T13:21:48Z</time>
      </trkpt>
      <trkpt lat="43.09401" lon="0.26536">
        <ele>330.2</ele>
        <time>2020-06-30T13:21:49Z</time>
      </trkpt>
      <trkpt lat="43.09404" lon="0.26528">
        <ele>330</ele>
        <time>2020-06-30T13:21:50Z</time>
      </trkpt>
      <trkpt lat="43.09407" lon="0.2652">
        <ele>330</ele>
        <time>2020-06-30T13:21:51Z</time>
      </trkpt>
      <trkpt lat="43.09411" lon="0.26513">
        <ele>329.8</ele>
        <time>2020-06-30T13:21:52Z</time>
      </trkpt>
      <trkpt lat="43.09414" lon="0.26506">
        <ele>329.8</ele>
        <time>2020-06-30T13:21:53Z</time>
      </trkpt>
      <trkpt lat="43.09417" lon="0.265">
        <ele>329.6</ele>
        <time>2020-06-30T13:21:54Z</time>
      </trkpt>
      <trkpt lat="43.09419" lon="0.2649">
        <ele>329.6</ele>
        <time>2020-06-30T13:21:55Z</time>
      </trkpt>
      <trkpt lat="43.0942" lon="0.26481">
        <ele>329.6</ele>
        <time>2020-06-30T13:21:56Z</time>
      </trkpt>
      <trkpt lat="43.09421" lon="0.26472">
        <ele>329.6</ele>
        <time>2020-06-30T13:21:57Z</time>
      </trkpt>
      <trkpt lat="43.0942" lon="0.26462">
        <ele>329.6</ele>
        <time>2020-06-30T13:21:58Z</time>
      </trkpt>
      <trkpt lat="43.0942" lon="0.26452">
        <ele>329.4</ele>
        <time>2020-06-30T13:21:59Z</time>
      </trkpt>
      <trkpt lat="43.0942" lon="0.26442">
        <ele>329.4</ele>
        <time>2020-06-30T13:22:00Z</time>
      </trkpt>
      <trkpt lat="43.0942" lon="0.26431">
        <ele>329.4</ele>
        <time>2020-06-30T13:22:01Z</time>
      </trkpt>
      <trkpt lat="43.09418" lon="0.26419">
        <ele>329.4</ele>
        <time>2020-06-30T13:22:02Z</time>
      </trkpt>
      <trkpt lat="43.09417" lon="0.26409">
        <ele>329.6</ele>
        <time>2020-06-30T13:22:03Z</time>
      </trkpt>
      <trkpt lat="43.09417" lon="0.26398">
        <ele>329.4</ele>
        <time>2020-06-30T13:22:04Z</time>
      </trkpt>
      <trkpt lat="43.09417" lon="0.26389">
        <ele>329.4</ele>
        <time>2020-06-30T13:22:05Z</time>
      </trkpt>
      <trkpt lat="43.09417" lon="0.26381">
        <ele>329.4</ele>
        <time>2020-06-30T13:22:06Z</time>
      </trkpt>
      <trkpt lat="43.09417" lon="0.26373">
        <ele>329.4</ele>
        <time>2020-06-30T13:22:07Z</time>
      </trkpt>
      <trkpt lat="43.09416" lon="0.26364">
        <ele>329.4</ele>
        <time>2020-06-30T13:22:08Z</time>
      </trkpt>
      <trkpt lat="43.09415" lon="0.26357">
        <ele>329.4</ele>
        <time>2020-06-30T13:22:09Z</time>
      </trkpt>
      <trkpt lat="43.09414" lon="0.26347">
        <ele>329.6</ele>
        <time>2020-06-30T13:22:10Z</time>
      </trkpt>
      <trkpt lat="43.09414" lon="0.26339">
        <ele>329.4</ele>
        <time>2020-06-30T13:22:11Z</time>
      </trkpt>
      <trkpt lat="43.09414" lon="0.26331">
        <ele>329.4</ele>
        <time>2020-06-30T13:22:12Z</time>
      </trkpt>
      <trkpt lat="43.09413" lon="0.26323">
        <ele>329.4</ele>
        <time>2020-06-30T13:22:13Z</time>
      </trkpt>
      <trkpt lat="43.09412" lon="0.26317">
        <ele>329.4</ele>
        <time>2020-06-30T13:22:14Z</time>
      </trkpt>
      <trkpt lat="43.09412" lon="0.2631">
        <ele>329.6</ele>
        <time>2020-06-30T13:22:15Z</time>
      </trkpt>
      <trkpt lat="43.09411" lon="0.26302">
        <ele>329.6</ele>
        <time>2020-06-30T13:22:16Z</time>
      </trkpt>
      <trkpt lat="43.0941" lon="0.26295">
        <ele>329.8</ele>
        <time>2020-06-30T13:22:17Z</time>
      </trkpt>
      <trkpt lat="43.0941" lon="0.26287">
        <ele>329.8</ele>
        <time>2020-06-30T13:22:18Z</time>
      </trkpt>
      <trkpt lat="43.09409" lon="0.2628">
        <ele>329.8</ele>
        <time>2020-06-30T13:22:19Z</time>
      </trkpt>
      <trkpt lat="43.09409" lon="0.26273">
        <ele>329.8</ele>
        <time>2020-06-30T13:22:20Z</time>
      </trkpt>
      <trkpt lat="43.0941" lon="0.26267">
        <ele>329.8</ele>
        <time>2020-06-30T13:22:21Z</time>
      </trkpt>
      <trkpt lat="43.0941" lon="0.2626">
        <ele>329.8</ele>
        <time>2020-06-30T13:22:22Z</time>
      </trkpt>
      <trkpt lat="43.09409" lon="0.26256">
        <ele>329.8</ele>
        <time>2020-06-30T13:22:23Z</time>
      </trkpt>
      <trkpt lat="43.09408" lon="0.2625">
        <ele>329.8</ele>
        <time>2020-06-30T13:22:24Z</time>
      </trkpt>
      <trkpt lat="43.09407" lon="0.26245">
        <ele>329.8</ele>
        <time>2020-06-30T13:22:25Z</time>
      </trkpt>
      <trkpt lat="43.09407" lon="0.26238">
        <ele>329.8</ele>
        <time>2020-06-30T13:22:26Z</time>
      </trkpt>
      <trkpt lat="43.09407" lon="0.26232">
        <ele>329.8</ele>
        <time>2020-06-30T13:22:27Z</time>
      </trkpt>
      <trkpt lat="43.09406" lon="0.26225">
        <ele>329.8</ele>
        <time>2020-06-30T13:22:28Z</time>
      </trkpt>
      <trkpt lat="43.09406" lon="0.26218">
        <ele>330</ele>
        <time>2020-06-30T13:22:29Z</time>
      </trkpt>
      <trkpt lat="43.09405" lon="0.26211">
        <ele>330</ele>
        <time>2020-06-30T13:22:30Z</time>
      </trkpt>
      <trkpt lat="43.09405" lon="0.26205">
        <ele>330</ele>
        <time>2020-06-30T13:22:31Z</time>
      </trkpt>
      <trkpt lat="43.09405" lon="0.26198">
        <ele>330</ele>
        <time>2020-06-30T13:22:32Z</time>
      </trkpt>
      <trkpt lat="43.09405" lon="0.26191">
        <ele>330</ele>
        <time>2020-06-30T13:22:33Z</time>
      </trkpt>
      <trkpt lat="43.09404" lon="0.26185">
        <ele>330</ele>
        <time>2020-06-30T13:22:34Z</time>
      </trkpt>
      <trkpt lat="43.09404" lon="0.26178">
        <ele>330</ele>
        <time>2020-06-30T13:22:35Z</time>
      </trkpt>
      <trkpt lat="43.09406" lon="0.26172">
        <ele>329.8</ele>
        <time>2020-06-30T13:22:36Z</time>
      </trkpt>
      <trkpt lat="43.09407" lon="0.26165">
        <ele>329.8</ele>
        <time>2020-06-30T13:22:37Z</time>
      </trkpt>
      <trkpt lat="43.0941" lon="0.26159">
        <ele>329.6</ele>
        <time>2020-06-30T13:22:38Z</time>
      </trkpt>
      <trkpt lat="43.09414" lon="0.26155">
        <ele>329.6</ele>
        <time>2020-06-30T13:22:39Z</time>
      </trkpt>
      <trkpt lat="43.09418" lon="0.26151">
        <ele>329.6</ele>
        <time>2020-06-30T13:22:40Z</time>
      </trkpt>
      <trkpt lat="43.09422" lon="0.26148">
        <ele>329.8</ele>
        <time>2020-06-30T13:22:41Z</time>
      </trkpt>
      <trkpt lat="43.09426" lon="0.26144">
        <ele>329.6</ele>
        <time>2020-06-30T13:22:42Z</time>
      </trkpt>
      <trkpt lat="43.0943" lon="0.26141">
        <ele>329.6</ele>
        <time>2020-06-30T13:22:43Z</time>
      </trkpt>
      <trkpt lat="43.09435" lon="0.26138">
        <ele>329.6</ele>
        <time>2020-06-30T13:22:44Z</time>
      </trkpt>
      <trkpt lat="43.09439" lon="0.26135">
        <ele>329.6</ele>
        <time>2020-06-30T13:22:45Z</time>
      </trkpt>
      <trkpt lat="43.09443" lon="0.26133">
        <ele>329.4</ele>
        <time>2020-06-30T13:22:46Z</time>
      </trkpt>
      <trkpt lat="43.09448" lon="0.26131">
        <ele>329.4</ele>
        <time>2020-06-30T13:22:47Z</time>
      </trkpt>
      <trkpt lat="43.09452" lon="0.26129">
        <ele>329.4</ele>
        <time>2020-06-30T13:22:48Z</time>
      </trkpt>
      <trkpt lat="43.09457" lon="0.26126">
        <ele>329.2</ele>
        <time>2020-06-30T13:22:49Z</time>
      </trkpt>
      <trkpt lat="43.09462" lon="0.26124">
        <ele>329.2</ele>
        <time>2020-06-30T13:22:50Z</time>
      </trkpt>
      <trkpt lat="43.09467" lon="0.26121">
        <ele>329.2</ele>
        <time>2020-06-30T13:22:51Z</time>
      </trkpt>
      <trkpt lat="43.09472" lon="0.26119">
        <ele>329.4</ele>
        <time>2020-06-30T13:22:52Z</time>
      </trkpt>
      <trkpt lat="43.09476" lon="0.26116">
        <ele>329.4</ele>
        <time>2020-06-30T13:22:53Z</time>
      </trkpt>
      <trkpt lat="43.09481" lon="0.26112">
        <ele>329.6</ele>
        <time>2020-06-30T13:22:54Z</time>
      </trkpt>
      <trkpt lat="43.09486" lon="0.2611">
        <ele>329.6</ele>
        <time>2020-06-30T13:22:55Z</time>
      </trkpt>
      <trkpt lat="43.09492" lon="0.26108">
        <ele>329.6</ele>
        <time>2020-06-30T13:22:56Z</time>
      </trkpt>
      <trkpt lat="43.09496" lon="0.26106">
        <ele>329.8</ele>
        <time>2020-06-30T13:22:57Z</time>
      </trkpt>
      <trkpt lat="43.09502" lon="0.26105">
        <ele>329.8</ele>
        <time>2020-06-30T13:22:58Z</time>
      </trkpt>
      <trkpt lat="43.09505" lon="0.26104">
        <ele>329.8</ele>
        <time>2020-06-30T13:22:59Z</time>
      </trkpt>
      <trkpt lat="43.09509" lon="0.26104">
        <ele>329.8</ele>
        <time>2020-06-30T13:23:00Z</time>
      </trkpt>
      <trkpt lat="43.09513" lon="0.26105">
        <ele>330</ele>
        <time>2020-06-30T13:23:01Z</time>
      </trkpt>
      <trkpt lat="43.09518" lon="0.26106">
        <ele>330</ele>
        <time>2020-06-30T13:23:02Z</time>
      </trkpt>
      <trkpt lat="43.09523" lon="0.26107">
        <ele>330</ele>
        <time>2020-06-30T13:23:03Z</time>
      </trkpt>
      <trkpt lat="43.09527" lon="0.26109">
        <ele>330.2</ele>
        <time>2020-06-30T13:23:04Z</time>
      </trkpt>
      <trkpt lat="43.09531" lon="0.26111">
        <ele>330.2</ele>
        <time>2020-06-30T13:23:05Z</time>
      </trkpt>
      <trkpt lat="43.09534" lon="0.26113">
        <ele>330.2</ele>
        <time>2020-06-30T13:23:06Z</time>
      </trkpt>
      <trkpt lat="43.09538" lon="0.26115">
        <ele>330.2</ele>
        <time>2020-06-30T13:23:07Z</time>
      </trkpt>
      <trkpt lat="43.09543" lon="0.26117">
        <ele>330.2</ele>
        <time>2020-06-30T13:23:08Z</time>
      </trkpt>
      <trkpt lat="43.09547" lon="0.26119">
        <ele>330</ele>
        <time>2020-06-30T13:23:09Z</time>
      </trkpt>
      <trkpt lat="43.09551" lon="0.26121">
        <ele>329.8</ele>
        <time>2020-06-30T13:23:10Z</time>
      </trkpt>
      <trkpt lat="43.09555" lon="0.26125">
        <ele>329.8</ele>
        <time>2020-06-30T13:23:11Z</time>
      </trkpt>
      <trkpt lat="43.0956" lon="0.26127">
        <ele>329.8</ele>
        <time>2020-06-30T13:23:12Z</time>
      </trkpt>
      <trkpt lat="43.09563" lon="0.26129">
        <ele>329.6</ele>
        <time>2020-06-30T13:23:13Z</time>
      </trkpt>
      <trkpt lat="43.09567" lon="0.26131">
        <ele>329.6</ele>
        <time>2020-06-30T13:23:14Z</time>
      </trkpt>
      <trkpt lat="43.0957" lon="0.26132">
        <ele>329.6</ele>
        <time>2020-06-30T13:23:15Z</time>
      </trkpt>
      <trkpt lat="43.09573" lon="0.26134">
        <ele>329.6</ele>
        <time>2020-06-30T13:23:16Z</time>
      </trkpt>
      <trkpt lat="43.09576" lon="0.26135">
        <ele>329.4</ele>
        <time>2020-06-30T13:23:17Z</time>
      </trkpt>
      <trkpt lat="43.09579" lon="0.26136">
        <ele>329.4</ele>
        <time>2020-06-30T13:23:18Z</time>
      </trkpt>
      <trkpt lat="43.09581" lon="0.26137">
        <ele>329.2</ele>
        <time>2020-06-30T13:23:19Z</time>
      </trkpt>
      <trkpt lat="43.09582" lon="0.26137">
        <ele>329.2</ele>
        <time>2020-06-30T13:23:20Z</time>
      </trkpt>
      <trkpt lat="43.09582" lon="0.26138">
        <ele>329.4</ele>
        <time>2020-06-30T13:23:21Z</time>
      </trkpt>
      <trkpt lat="43.09583" lon="0.26138">
        <ele>329.2</ele>
        <time>2020-06-30T13:23:22Z</time>
      </trkpt>
      <trkpt lat="43.09583" lon="0.26138">
        <ele>329.2</ele>
        <time>2020-06-30T13:23:23Z</time>
      </trkpt>
      <trkpt lat="43.09584" lon="0.26138">
        <ele>329.2</ele>
        <time>2020-06-30T13:23:24Z</time>
      </trkpt>
      <trkpt lat="43.09584" lon="0.26138">
        <ele>329.2</ele>
        <time>2020-06-30T13:23:25Z</time>
      </trkpt>
      <trkpt lat="43.09584" lon="0.26138">
        <ele>329.2</ele>
        <time>2020-06-30T13:23:26Z</time>
      </trkpt>
      <trkpt lat="43.09585" lon="0.26138">
        <ele>329.2</ele>
        <time>2020-06-30T13:23:27Z</time>
      </trkpt>
      <trkpt lat="43.09584" lon="0.26138">
        <ele>329.2</ele>
        <time>2020-06-30T13:23:28Z</time>
      </trkpt>
      <trkpt lat="43.09584" lon="0.26137">
        <ele>329.4</ele>
        <time>2020-06-30T13:23:29Z</time>
      </trkpt>
      <trkpt lat="43.09584" lon="0.26138">
        <ele>329.2</ele>
        <time>2020-06-30T13:23:30Z</time>
      </trkpt>
      <trkpt lat="43.09584" lon="0.26139">
        <ele>329.2</ele>
        <time>2020-06-30T13:23:31Z</time>
      </trkpt>
      <trkpt lat="43.09584" lon="0.26139">
        <ele>329.2</ele>
        <time>2020-06-30T13:23:32Z</time>
      </trkpt>
      <trkpt lat="43.09584" lon="0.26139">
        <ele>329.4</ele>
        <time>2020-06-30T13:23:33Z</time>
      </trkpt>
      <trkpt lat="43.09584" lon="0.26138">
        <ele>329.2</ele>
        <time>2020-06-30T13:23:34Z</time>
      </trkpt>
      <trkpt lat="43.09584" lon="0.26138">
        <ele>329.2</ele>
        <time>2020-06-30T13:23:35Z</time>
      </trkpt>
      <trkpt lat="43.09584" lon="0.26137">
        <ele>329.2</ele>
        <time>2020-06-30T13:23:36Z</time>
      </trkpt>
      <trkpt lat="43.09584" lon="0.26137">
        <ele>329.2</ele>
        <time>2020-06-30T13:23:37Z</time>
      </trkpt>
      <trkpt lat="43.09583" lon="0.26138">
        <ele>329.2</ele>
        <time>2020-06-30T13:23:38Z</time>
      </trkpt>
      <trkpt lat="43.09583" lon="0.26138">
        <ele>329.2</ele>
        <time>2020-06-30T13:23:39Z</time>
      </trkpt>
      <trkpt lat="43.09582" lon="0.26138">
        <ele>329.2</ele>
        <time>2020-06-30T13:23:40Z</time>
      </trkpt>
      <trkpt lat="43.09584" lon="0.2614">
        <ele>328.8</ele>
        <time>2020-06-30T13:24:18Z</time>
      </trkpt>
      <trkpt lat="43.09585" lon="0.2614">
        <ele>328.8</ele>
        <time>2020-06-30T13:24:19Z</time>
      </trkpt>
      <trkpt lat="43.09586" lon="0.26141">
        <ele>328.8</ele>
        <time>2020-06-30T13:24:20Z</time>
      </trkpt>
      <trkpt lat="43.09588" lon="0.26143">
        <ele>328.8</ele>
        <time>2020-06-30T13:24:21Z</time>
      </trkpt>
      <trkpt lat="43.0959" lon="0.26144">
        <ele>328.6</ele>
        <time>2020-06-30T13:24:22Z</time>
      </trkpt>
      <trkpt lat="43.09593" lon="0.26145">
        <ele>328.6</ele>
        <time>2020-06-30T13:24:23Z</time>
      </trkpt>
      <trkpt lat="43.09597" lon="0.26147">
        <ele>328.8</ele>
        <time>2020-06-30T13:24:24Z</time>
      </trkpt>
      <trkpt lat="43.096" lon="0.26148">
        <ele>328.8</ele>
        <time>2020-06-30T13:24:25Z</time>
      </trkpt>
      <trkpt lat="43.09603" lon="0.26151">
        <ele>328.6</ele>
        <time>2020-06-30T13:24:26Z</time>
      </trkpt>
      <trkpt lat="43.09607" lon="0.26152">
        <ele>328.6</ele>
        <time>2020-06-30T13:24:27Z</time>
      </trkpt>
      <trkpt lat="43.09611" lon="0.26154">
        <ele>328.4</ele>
        <time>2020-06-30T13:24:28Z</time>
      </trkpt>
      <trkpt lat="43.09615" lon="0.26157">
        <ele>328.4</ele>
        <time>2020-06-30T13:24:29Z</time>
      </trkpt>
      <trkpt lat="43.0962" lon="0.2616">
        <ele>328.4</ele>
        <time>2020-06-30T13:24:30Z</time>
      </trkpt>
      <trkpt lat="43.09625" lon="0.26163">
        <ele>328.2</ele>
        <time>2020-06-30T13:24:31Z</time>
      </trkpt>
      <trkpt lat="43.09629" lon="0.26165">
        <ele>328.2</ele>
        <time>2020-06-30T13:24:32Z</time>
      </trkpt>
      <trkpt lat="43.09634" lon="0.26168">
        <ele>328.2</ele>
        <time>2020-06-30T13:24:33Z</time>
      </trkpt>
      <trkpt lat="43.09638" lon="0.26171">
        <ele>328</ele>
        <time>2020-06-30T13:24:34Z</time>
      </trkpt>
      <trkpt lat="43.09643" lon="0.26174">
        <ele>328</ele>
        <time>2020-06-30T13:24:35Z</time>
      </trkpt>
      <trkpt lat="43.09647" lon="0.26177">
        <ele>327.8</ele>
        <time>2020-06-30T13:24:36Z</time>
      </trkpt>
      <trkpt lat="43.09653" lon="0.26178">
        <ele>327.8</ele>
        <time>2020-06-30T13:24:37Z</time>
      </trkpt>
      <trkpt lat="43.09658" lon="0.2618">
        <ele>327.6</ele>
        <time>2020-06-30T13:24:38Z</time>
      </trkpt>
      <trkpt lat="43.09663" lon="0.26183">
        <ele>327.6</ele>
        <time>2020-06-30T13:24:39Z</time>
      </trkpt>
      <trkpt lat="43.09668" lon="0.26186">
        <ele>327.4</ele>
        <time>2020-06-30T13:24:40Z</time>
      </trkpt>
      <trkpt lat="43.09673" lon="0.26189">
        <ele>327.4</ele>
        <time>2020-06-30T13:24:41Z</time>
      </trkpt>
      <trkpt lat="43.09678" lon="0.26192">
        <ele>327.4</ele>
        <time>2020-06-30T13:24:42Z</time>
      </trkpt>
      <trkpt lat="43.09683" lon="0.26195">
        <ele>327.2</ele>
        <time>2020-06-30T13:24:43Z</time>
      </trkpt>
      <trkpt lat="43.09688" lon="0.26198">
        <ele>327.2</ele>
        <time>2020-06-30T13:24:44Z</time>
      </trkpt>
      <trkpt lat="43.09693" lon="0.26201">
        <ele>327.2</ele>
        <time>2020-06-30T13:24:45Z</time>
      </trkpt>
      <trkpt lat="43.09698" lon="0.26205">
        <ele>327.2</ele>
        <time>2020-06-30T13:24:46Z</time>
      </trkpt>
      <trkpt lat="43.09702" lon="0.26208">
        <ele>327</ele>
        <time>2020-06-30T13:24:47Z</time>
      </trkpt>
      <trkpt lat="43.09706" lon="0.26213">
        <ele>327.4</ele>
        <time>2020-06-30T13:24:48Z</time>
      </trkpt>
      <trkpt lat="43.0971" lon="0.26217">
        <ele>327.2</ele>
        <time>2020-06-30T13:24:49Z</time>
      </trkpt>
      <trkpt lat="43.09714" lon="0.26221">
        <ele>327</ele>
        <time>2020-06-30T13:24:50Z</time>
      </trkpt>
      <trkpt lat="43.09719" lon="0.26226">
        <ele>327</ele>
        <time>2020-06-30T13:24:51Z</time>
      </trkpt>
      <trkpt lat="43.09722" lon="0.2623">
        <ele>327</ele>
        <time>2020-06-30T13:24:52Z</time>
      </trkpt>
      <trkpt lat="43.09727" lon="0.26234">
        <ele>326.8</ele>
        <time>2020-06-30T13:24:53Z</time>
      </trkpt>
      <trkpt lat="43.09731" lon="0.26239">
        <ele>326.6</ele>
        <time>2020-06-30T13:24:54Z</time>
      </trkpt>
      <trkpt lat="43.09736" lon="0.26244">
        <ele>326.6</ele>
        <time>2020-06-30T13:24:55Z</time>
      </trkpt>
      <trkpt lat="43.0974" lon="0.26249">
        <ele>326.6</ele>
        <time>2020-06-30T13:24:56Z</time>
      </trkpt>
      <trkpt lat="43.09743" lon="0.26255">
        <ele>326.4</ele>
        <time>2020-06-30T13:24:57Z</time>
      </trkpt>
      <trkpt lat="43.09748" lon="0.2626">
        <ele>326.4</ele>
        <time>2020-06-30T13:24:58Z</time>
      </trkpt>
      <trkpt lat="43.09753" lon="0.26265">
        <ele>326.2</ele>
        <time>2020-06-30T13:24:59Z</time>
      </trkpt>
      <trkpt lat="43.09757" lon="0.26269">
        <ele>326</ele>
        <time>2020-06-30T13:25:00Z</time>
      </trkpt>
      <trkpt lat="43.09761" lon="0.26275">
        <ele>326</ele>
        <time>2020-06-30T13:25:01Z</time>
      </trkpt>
      <trkpt lat="43.09764" lon="0.2628">
        <ele>326</ele>
        <time>2020-06-30T13:25:02Z</time>
      </trkpt>
      <trkpt lat="43.09768" lon="0.26285">
        <ele>326</ele>
        <time>2020-06-30T13:25:03Z</time>
      </trkpt>
      <trkpt lat="43.09773" lon="0.26289">
        <ele>326</ele>
        <time>2020-06-30T13:25:04Z</time>
      </trkpt>
      <trkpt lat="43.09776" lon="0.26294">
        <ele>325.8</ele>
        <time>2020-06-30T13:25:05Z</time>
      </trkpt>
      <trkpt lat="43.0978" lon="0.26299">
        <ele>326</ele>
        <time>2020-06-30T13:25:06Z</time>
      </trkpt>
      <trkpt lat="43.09783" lon="0.26304">
        <ele>326</ele>
        <time>2020-06-30T13:25:07Z</time>
      </trkpt>
      <trkpt lat="43.09787" lon="0.26307">
        <ele>325.8</ele>
        <time>2020-06-30T13:25:08Z</time>
      </trkpt>
      <trkpt lat="43.09792" lon="0.2631">
        <ele>325.8</ele>
        <time>2020-06-30T13:25:09Z</time>
      </trkpt>
      <trkpt lat="43.09796" lon="0.26315">
        <ele>325.6</ele>
        <time>2020-06-30T13:25:10Z</time>
      </trkpt>
      <trkpt lat="43.09801" lon="0.26318">
        <ele>325.6</ele>
        <time>2020-06-30T13:25:11Z</time>
      </trkpt>
      <trkpt lat="43.09807" lon="0.26321">
        <ele>325.8</ele>
        <time>2020-06-30T13:25:12Z</time>
      </trkpt>
      <trkpt lat="43.09811" lon="0.26324">
        <ele>325.6</ele>
        <time>2020-06-30T13:25:13Z</time>
      </trkpt>
      <trkpt lat="43.09816" lon="0.26326">
        <ele>325.8</ele>
        <time>2020-06-30T13:25:14Z</time>
      </trkpt>
      <trkpt lat="43.09821" lon="0.26329">
        <ele>325.8</ele>
        <time>2020-06-30T13:25:15Z</time>
      </trkpt>
      <trkpt lat="43.09826" lon="0.26333">
        <ele>325.6</ele>
        <time>2020-06-30T13:25:16Z</time>
      </trkpt>
      <trkpt lat="43.09831" lon="0.26336">
        <ele>325.6</ele>
        <time>2020-06-30T13:25:17Z</time>
      </trkpt>
      <trkpt lat="43.09836" lon="0.26339">
        <ele>325.4</ele>
        <time>2020-06-30T13:25:18Z</time>
      </trkpt>
      <trkpt lat="43.09841" lon="0.26342">
        <ele>325.4</ele>
        <time>2020-06-30T13:25:19Z</time>
      </trkpt>
      <trkpt lat="43.09846" lon="0.26345">
        <ele>325.6</ele>
        <time>2020-06-30T13:25:20Z</time>
      </trkpt>
      <trkpt lat="43.09851" lon="0.26347">
        <ele>325.6</ele>
        <time>2020-06-30T13:25:21Z</time>
      </trkpt>
      <trkpt lat="43.09857" lon="0.26351">
        <ele>325.6</ele>
        <time>2020-06-30T13:25:22Z</time>
      </trkpt>
      <trkpt lat="43.09861" lon="0.26354">
        <ele>325.6</ele>
        <time>2020-06-30T13:25:23Z</time>
      </trkpt>
      <trkpt lat="43.09865" lon="0.26357">
        <ele>325.6</ele>
        <time>2020-06-30T13:25:24Z</time>
      </trkpt>
      <trkpt lat="43.0987" lon="0.2636">
        <ele>325.6</ele>
        <time>2020-06-30T13:25:25Z</time>
      </trkpt>
      <trkpt lat="43.09875" lon="0.26363">
        <ele>325.6</ele>
        <time>2020-06-30T13:25:26Z</time>
      </trkpt>
      <trkpt lat="43.09879" lon="0.26366">
        <ele>325.8</ele>
        <time>2020-06-30T13:25:27Z</time>
      </trkpt>
      <trkpt lat="43.09884" lon="0.26369">
        <ele>325.6</ele>
        <time>2020-06-30T13:25:28Z</time>
      </trkpt>
      <trkpt lat="43.09889" lon="0.26372">
        <ele>325.6</ele>
        <time>2020-06-30T13:25:29Z</time>
      </trkpt>
      <trkpt lat="43.09893" lon="0.26375">
        <ele>325.6</ele>
        <time>2020-06-30T13:25:30Z</time>
      </trkpt>
      <trkpt lat="43.09897" lon="0.26377">
        <ele>325.4</ele>
        <time>2020-06-30T13:25:31Z</time>
      </trkpt>
      <trkpt lat="43.09901" lon="0.2638">
        <ele>325.4</ele>
        <time>2020-06-30T13:25:32Z</time>
      </trkpt>
      <trkpt lat="43.09905" lon="0.26383">
        <ele>325.4</ele>
        <time>2020-06-30T13:25:33Z</time>
      </trkpt>
      <trkpt lat="43.09911" lon="0.26385">
        <ele>325.2</ele>
        <time>2020-06-30T13:25:34Z</time>
      </trkpt>
      <trkpt lat="43.09916" lon="0.26388">
        <ele>325.4</ele>
        <time>2020-06-30T13:25:35Z</time>
      </trkpt>
      <trkpt lat="43.09921" lon="0.2639">
        <ele>325.2</ele>
        <time>2020-06-30T13:25:36Z</time>
      </trkpt>
      <trkpt lat="43.09926" lon="0.26393">
        <ele>325.4</ele>
        <time>2020-06-30T13:25:37Z</time>
      </trkpt>
      <trkpt lat="43.09931" lon="0.26395">
        <ele>325.4</ele>
        <time>2020-06-30T13:25:38Z</time>
      </trkpt>
      <trkpt lat="43.09937" lon="0.26398">
        <ele>325.4</ele>
        <time>2020-06-30T13:25:39Z</time>
      </trkpt>
      <trkpt lat="43.09942" lon="0.26401">
        <ele>325.2</ele>
        <time>2020-06-30T13:25:40Z</time>
      </trkpt>
      <trkpt lat="43.09946" lon="0.26404">
        <ele>325.2</ele>
        <time>2020-06-30T13:25:41Z</time>
      </trkpt>
      <trkpt lat="43.09951" lon="0.26407">
        <ele>325.4</ele>
        <time>2020-06-30T13:25:42Z</time>
      </trkpt>
      <trkpt lat="43.09956" lon="0.2641">
        <ele>325.4</ele>
        <time>2020-06-30T13:25:43Z</time>
      </trkpt>
      <trkpt lat="43.09962" lon="0.26413">
        <ele>325.6</ele>
        <time>2020-06-30T13:25:44Z</time>
      </trkpt>
      <trkpt lat="43.09968" lon="0.26415">
        <ele>325.6</ele>
        <time>2020-06-30T13:25:45Z</time>
      </trkpt>
      <trkpt lat="43.09971" lon="0.26418">
        <ele>325.6</ele>
        <time>2020-06-30T13:25:46Z</time>
      </trkpt>
      <trkpt lat="43.09976" lon="0.26421">
        <ele>325.6</ele>
        <time>2020-06-30T13:25:47Z</time>
      </trkpt>
      <trkpt lat="43.09981" lon="0.26423">
        <ele>325.6</ele>
        <time>2020-06-30T13:25:48Z</time>
      </trkpt>
      <trkpt lat="43.09986" lon="0.26426">
        <ele>325.6</ele>
        <time>2020-06-30T13:25:49Z</time>
      </trkpt>
      <trkpt lat="43.09991" lon="0.26429">
        <ele>325.6</ele>
        <time>2020-06-30T13:25:50Z</time>
      </trkpt>
      <trkpt lat="43.09995" lon="0.26432">
        <ele>325.8</ele>
        <time>2020-06-30T13:25:51Z</time>
      </trkpt>
      <trkpt lat="43.1" lon="0.26435">
        <ele>325.8</ele>
        <time>2020-06-30T13:25:52Z</time>
      </trkpt>
      <trkpt lat="43.10005" lon="0.26437">
        <ele>325.8</ele>
        <time>2020-06-30T13:25:53Z</time>
      </trkpt>
      <trkpt lat="43.1001" lon="0.2644">
        <ele>326</ele>
        <time>2020-06-30T13:25:54Z</time>
      </trkpt>
      <trkpt lat="43.10013" lon="0.26442">
        <ele>326</ele>
        <time>2020-06-30T13:25:55Z</time>
      </trkpt>
      <trkpt lat="43.10017" lon="0.26445">
        <ele>326.2</ele>
        <time>2020-06-30T13:25:56Z</time>
      </trkpt>
      <trkpt lat="43.10022" lon="0.26447">
        <ele>326.4</ele>
        <time>2020-06-30T13:25:57Z</time>
      </trkpt>
      <trkpt lat="43.10026" lon="0.2645">
        <ele>326.4</ele>
        <time>2020-06-30T13:25:58Z</time>
      </trkpt>
      <trkpt lat="43.10031" lon="0.26452">
        <ele>326.2</ele>
        <time>2020-06-30T13:25:59Z</time>
      </trkpt>
      <trkpt lat="43.10035" lon="0.26456">
        <ele>326.2</ele>
        <time>2020-06-30T13:26:00Z</time>
      </trkpt>
      <trkpt lat="43.10039" lon="0.26459">
        <ele>326</ele>
        <time>2020-06-30T13:26:01Z</time>
      </trkpt>
      <trkpt lat="43.10043" lon="0.26464">
        <ele>325.8</ele>
        <time>2020-06-30T13:26:02Z</time>
      </trkpt>
      <trkpt lat="43.10048" lon="0.26469">
        <ele>325.6</ele>
        <time>2020-06-30T13:26:03Z</time>
      </trkpt>
      <trkpt lat="43.10052" lon="0.26476">
        <ele>325.6</ele>
        <time>2020-06-30T13:26:04Z</time>
      </trkpt>
      <trkpt lat="43.10056" lon="0.26481">
        <ele>325.8</ele>
        <time>2020-06-30T13:26:05Z</time>
      </trkpt>
      <trkpt lat="43.1006" lon="0.26487">
        <ele>325.8</ele>
        <time>2020-06-30T13:26:06Z</time>
      </trkpt>
      <trkpt lat="43.10063" lon="0.26494">
        <ele>325.8</ele>
        <time>2020-06-30T13:26:07Z</time>
      </trkpt>
      <trkpt lat="43.10066" lon="0.26501">
        <ele>325.8</ele>
        <time>2020-06-30T13:26:08Z</time>
      </trkpt>
      <trkpt lat="43.10068" lon="0.26508">
        <ele>325.8</ele>
        <time>2020-06-30T13:26:09Z</time>
      </trkpt>
      <trkpt lat="43.10071" lon="0.26516">
        <ele>325.6</ele>
        <time>2020-06-30T13:26:10Z</time>
      </trkpt>
      <trkpt lat="43.10073" lon="0.26523">
        <ele>325.6</ele>
        <time>2020-06-30T13:26:11Z</time>
      </trkpt>
      <trkpt lat="43.10074" lon="0.26531">
        <ele>325.6</ele>
        <time>2020-06-30T13:26:12Z</time>
      </trkpt>
      <trkpt lat="43.10077" lon="0.26538">
        <ele>325.4</ele>
        <time>2020-06-30T13:26:13Z</time>
      </trkpt>
      <trkpt lat="43.10079" lon="0.26546">
        <ele>325.4</ele>
        <time>2020-06-30T13:26:14Z</time>
      </trkpt>
      <trkpt lat="43.10082" lon="0.26554">
        <ele>325.4</ele>
        <time>2020-06-30T13:26:15Z</time>
      </trkpt>
      <trkpt lat="43.10085" lon="0.26561">
        <ele>325.4</ele>
        <time>2020-06-30T13:26:16Z</time>
      </trkpt>
      <trkpt lat="43.10087" lon="0.26569">
        <ele>325.4</ele>
        <time>2020-06-30T13:26:17Z</time>
      </trkpt>
      <trkpt lat="43.10089" lon="0.26577">
        <ele>325.4</ele>
        <time>2020-06-30T13:26:18Z</time>
      </trkpt>
      <trkpt lat="43.10092" lon="0.26585">
        <ele>325.2</ele>
        <time>2020-06-30T13:26:19Z</time>
      </trkpt>
      <trkpt lat="43.10094" lon="0.26594">
        <ele>325.2</ele>
        <time>2020-06-30T13:26:20Z</time>
      </trkpt>
      <trkpt lat="43.10096" lon="0.26602">
        <ele>325.2</ele>
        <time>2020-06-30T13:26:21Z</time>
      </trkpt>
      <trkpt lat="43.10097" lon="0.26611">
        <ele>325</ele>
        <time>2020-06-30T13:26:22Z</time>
      </trkpt>
      <trkpt lat="43.101" lon="0.26619">
        <ele>325</ele>
        <time>2020-06-30T13:26:23Z</time>
      </trkpt>
      <trkpt lat="43.10102" lon="0.26628">
        <ele>325.2</ele>
        <time>2020-06-30T13:26:24Z</time>
      </trkpt>
      <trkpt lat="43.10105" lon="0.26636">
        <ele>325</ele>
        <time>2020-06-30T13:26:25Z</time>
      </trkpt>
      <trkpt lat="43.10108" lon="0.26644">
        <ele>325.2</ele>
        <time>2020-06-30T13:26:26Z</time>
      </trkpt>
      <trkpt lat="43.1011" lon="0.26651">
        <ele>325.2</ele>
        <time>2020-06-30T13:26:27Z</time>
      </trkpt>
      <trkpt lat="43.10112" lon="0.2666">
        <ele>325</ele>
        <time>2020-06-30T13:26:28Z</time>
      </trkpt>
      <trkpt lat="43.10115" lon="0.26667">
        <ele>324.8</ele>
        <time>2020-06-30T13:26:29Z</time>
      </trkpt>
      <trkpt lat="43.10118" lon="0.26675">
        <ele>324.8</ele>
        <time>2020-06-30T13:26:30Z</time>
      </trkpt>
      <trkpt lat="43.10121" lon="0.26682">
        <ele>324.6</ele>
        <time>2020-06-30T13:26:31Z</time>
      </trkpt>
      <trkpt lat="43.10124" lon="0.26689">
        <ele>324.8</ele>
        <time>2020-06-30T13:26:32Z</time>
      </trkpt>
      <trkpt lat="43.10127" lon="0.26697">
        <ele>324.6</ele>
        <time>2020-06-30T13:26:33Z</time>
      </trkpt>
      <trkpt lat="43.10131" lon="0.26705">
        <ele>324.6</ele>
        <time>2020-06-30T13:26:34Z</time>
      </trkpt>
      <trkpt lat="43.10134" lon="0.26712">
        <ele>324.4</ele>
        <time>2020-06-30T13:26:35Z</time>
      </trkpt>
      <trkpt lat="43.10137" lon="0.26721">
        <ele>324.4</ele>
        <time>2020-06-30T13:26:36Z</time>
      </trkpt>
      <trkpt lat="43.1014" lon="0.26729">
        <ele>324.4</ele>
        <time>2020-06-30T13:26:37Z</time>
      </trkpt>
      <trkpt lat="43.10144" lon="0.26736">
        <ele>324.4</ele>
        <time>2020-06-30T13:26:38Z</time>
      </trkpt>
      <trkpt lat="43.10147" lon="0.26744">
        <ele>324.2</ele>
        <time>2020-06-30T13:26:39Z</time>
      </trkpt>
      <trkpt lat="43.10151" lon="0.2675">
        <ele>324.2</ele>
        <time>2020-06-30T13:26:40Z</time>
      </trkpt>
      <trkpt lat="43.10154" lon="0.26757">
        <ele>324.2</ele>
        <time>2020-06-30T13:26:41Z</time>
      </trkpt>
      <trkpt lat="43.10158" lon="0.26765">
        <ele>324.2</ele>
        <time>2020-06-30T13:26:42Z</time>
      </trkpt>
      <trkpt lat="43.10162" lon="0.26772">
        <ele>324</ele>
        <time>2020-06-30T13:26:43Z</time>
      </trkpt>
      <trkpt lat="43.10165" lon="0.26779">
        <ele>324.2</ele>
        <time>2020-06-30T13:26:44Z</time>
      </trkpt>
      <trkpt lat="43.10169" lon="0.26786">
        <ele>324.2</ele>
        <time>2020-06-30T13:26:45Z</time>
      </trkpt>
      <trkpt lat="43.10173" lon="0.26793">
        <ele>324.2</ele>
        <time>2020-06-30T13:26:46Z</time>
      </trkpt>
      <trkpt lat="43.10177" lon="0.26799">
        <ele>324.2</ele>
        <time>2020-06-30T13:26:47Z</time>
      </trkpt>
      <trkpt lat="43.1018" lon="0.26805">
        <ele>324.4</ele>
        <time>2020-06-30T13:26:48Z</time>
      </trkpt>
      <trkpt lat="43.10184" lon="0.26811">
        <ele>324.2</ele>
        <time>2020-06-30T13:26:49Z</time>
      </trkpt>
      <trkpt lat="43.10187" lon="0.26818">
        <ele>324.2</ele>
        <time>2020-06-30T13:26:50Z</time>
      </trkpt>
      <trkpt lat="43.1019" lon="0.26824">
        <ele>324</ele>
        <time>2020-06-30T13:26:51Z</time>
      </trkpt>
      <trkpt lat="43.10194" lon="0.26831">
        <ele>324</ele>
        <time>2020-06-30T13:26:52Z</time>
      </trkpt>
      <trkpt lat="43.10197" lon="0.26837">
        <ele>324</ele>
        <time>2020-06-30T13:26:53Z</time>
      </trkpt>
      <trkpt lat="43.102" lon="0.26844">
        <ele>324</ele>
        <time>2020-06-30T13:26:54Z</time>
      </trkpt>
      <trkpt lat="43.10203" lon="0.2685">
        <ele>324.2</ele>
        <time>2020-06-30T13:26:55Z</time>
      </trkpt>
      <trkpt lat="43.10207" lon="0.26856">
        <ele>324</ele>
        <time>2020-06-30T13:26:56Z</time>
      </trkpt>
      <trkpt lat="43.1021" lon="0.26863">
        <ele>324</ele>
        <time>2020-06-30T13:26:57Z</time>
      </trkpt>
      <trkpt lat="43.10214" lon="0.26869">
        <ele>324</ele>
        <time>2020-06-30T13:26:58Z</time>
      </trkpt>
      <trkpt lat="43.10217" lon="0.26875">
        <ele>324</ele>
        <time>2020-06-30T13:26:59Z</time>
      </trkpt>
      <trkpt lat="43.1022" lon="0.26881">
        <ele>324</ele>
        <time>2020-06-30T13:27:00Z</time>
      </trkpt>
      <trkpt lat="43.10223" lon="0.26887">
        <ele>323.8</ele>
        <time>2020-06-30T13:27:01Z</time>
      </trkpt>
      <trkpt lat="43.10227" lon="0.26893">
        <ele>324</ele>
        <time>2020-06-30T13:27:02Z</time>
      </trkpt>
      <trkpt lat="43.1023" lon="0.26899">
        <ele>324</ele>
        <time>2020-06-30T13:27:03Z</time>
      </trkpt>
      <trkpt lat="43.10234" lon="0.26905">
        <ele>324</ele>
        <time>2020-06-30T13:27:04Z</time>
      </trkpt>
      <trkpt lat="43.10237" lon="0.2691">
        <ele>324</ele>
        <time>2020-06-30T13:27:05Z</time>
      </trkpt>
      <trkpt lat="43.1024" lon="0.26915">
        <ele>324.2</ele>
        <time>2020-06-30T13:27:06Z</time>
      </trkpt>
      <trkpt lat="43.10243" lon="0.26921">
        <ele>324.2</ele>
        <time>2020-06-30T13:27:07Z</time>
      </trkpt>
      <trkpt lat="43.10246" lon="0.26926">
        <ele>324.2</ele>
        <time>2020-06-30T13:27:08Z</time>
      </trkpt>
      <trkpt lat="43.10249" lon="0.26931">
        <ele>324.4</ele>
        <time>2020-06-30T13:27:09Z</time>
      </trkpt>
      <trkpt lat="43.10252" lon="0.26937">
        <ele>324.6</ele>
        <time>2020-06-30T13:27:10Z</time>
      </trkpt>
      <trkpt lat="43.10256" lon="0.26942">
        <ele>324.6</ele>
        <time>2020-06-30T13:27:11Z</time>
      </trkpt>
      <trkpt lat="43.10259" lon="0.26947">
        <ele>324.6</ele>
        <time>2020-06-30T13:27:12Z</time>
      </trkpt>
      <trkpt lat="43.10262" lon="0.26953">
        <ele>324.6</ele>
        <time>2020-06-30T13:27:13Z</time>
      </trkpt>
      <trkpt lat="43.10266" lon="0.26957">
        <ele>324.8</ele>
        <time>2020-06-30T13:27:14Z</time>
      </trkpt>
      <trkpt lat="43.1027" lon="0.26961">
        <ele>325</ele>
        <time>2020-06-30T13:27:15Z</time>
      </trkpt>
      <trkpt lat="43.10272" lon="0.26966">
        <ele>325</ele>
        <time>2020-06-30T13:27:16Z</time>
      </trkpt>
      <trkpt lat="43.10275" lon="0.2697">
        <ele>325</ele>
        <time>2020-06-30T13:27:17Z</time>
      </trkpt>
      <trkpt lat="43.10278" lon="0.26972">
        <ele>325.4</ele>
        <time>2020-06-30T13:27:18Z</time>
      </trkpt>
      <trkpt lat="43.10282" lon="0.26975">
        <ele>325.4</ele>
        <time>2020-06-30T13:27:19Z</time>
      </trkpt>
      <trkpt lat="43.10285" lon="0.26978">
        <ele>325.6</ele>
        <time>2020-06-30T13:27:20Z</time>
      </trkpt>
      <trkpt lat="43.10288" lon="0.26981">
        <ele>325.8</ele>
        <time>2020-06-30T13:27:21Z</time>
      </trkpt>
      <trkpt lat="43.10292" lon="0.26983">
        <ele>326</ele>
        <time>2020-06-30T13:27:22Z</time>
      </trkpt>
      <trkpt lat="43.10295" lon="0.26985">
        <ele>326</ele>
        <time>2020-06-30T13:27:23Z</time>
      </trkpt>
      <trkpt lat="43.10298" lon="0.26986">
        <ele>326.2</ele>
        <time>2020-06-30T13:27:24Z</time>
      </trkpt>
      <trkpt lat="43.10301" lon="0.26987">
        <ele>326.4</ele>
        <time>2020-06-30T13:27:25Z</time>
      </trkpt>
      <trkpt lat="43.10304" lon="0.26987">
        <ele>326.4</ele>
        <time>2020-06-30T13:27:26Z</time>
      </trkpt>
      <trkpt lat="43.10307" lon="0.26987">
        <ele>326.6</ele>
        <time>2020-06-30T13:27:27Z</time>
      </trkpt>
      <trkpt lat="43.10309" lon="0.26987">
        <ele>326.8</ele>
        <time>2020-06-30T13:27:28Z</time>
      </trkpt>
      <trkpt lat="43.10312" lon="0.26985">
        <ele>327</ele>
        <time>2020-06-30T13:27:29Z</time>
      </trkpt>
      <trkpt lat="43.10315" lon="0.26984">
        <ele>327</ele>
        <time>2020-06-30T13:27:30Z</time>
      </trkpt>
      <trkpt lat="43.10318" lon="0.26983">
        <ele>327.2</ele>
        <time>2020-06-30T13:27:31Z</time>
      </trkpt>
      <trkpt lat="43.10321" lon="0.26982">
        <ele>327.2</ele>
        <time>2020-06-30T13:27:32Z</time>
      </trkpt>
      <trkpt lat="43.10323" lon="0.26979">
        <ele>327.4</ele>
        <time>2020-06-30T13:27:33Z</time>
      </trkpt>
      <trkpt lat="43.10325" lon="0.26977">
        <ele>327.6</ele>
        <time>2020-06-30T13:27:34Z</time>
      </trkpt>
      <trkpt lat="43.10327" lon="0.26975">
        <ele>327.6</ele>
        <time>2020-06-30T13:27:35Z</time>
      </trkpt>
      <trkpt lat="43.10327" lon="0.26973">
        <ele>327.8</ele>
        <time>2020-06-30T13:27:36Z</time>
      </trkpt>
      <trkpt lat="43.10328" lon="0.26972">
        <ele>327.8</ele>
        <time>2020-06-30T13:27:37Z</time>
      </trkpt>
      <trkpt lat="43.10329" lon="0.26971">
        <ele>327.4</ele>
        <time>2020-06-30T13:27:38Z</time>
      </trkpt>
      <trkpt lat="43.10329" lon="0.26971">
        <ele>327.8</ele>
        <time>2020-06-30T13:27:39Z</time>
      </trkpt>
      <trkpt lat="43.10329" lon="0.26971">
        <ele>328.2</ele>
        <time>2020-06-30T13:27:40Z</time>
      </trkpt>
      <trkpt lat="43.10328" lon="0.2697">
        <ele>328</ele>
        <time>2020-06-30T13:27:41Z</time>
      </trkpt>
      <trkpt lat="43.10328" lon="0.2697">
        <ele>327.8</ele>
        <time>2020-06-30T13:27:42Z</time>
      </trkpt>
      <trkpt lat="43.10328" lon="0.26969">
        <ele>327.4</ele>
        <time>2020-06-30T13:27:43Z</time>
      </trkpt>
      <trkpt lat="43.10329" lon="0.26969">
        <ele>327.4</ele>
        <time>2020-06-30T13:27:44Z</time>
      </trkpt>
      <trkpt lat="43.10329" lon="0.26969">
        <ele>327.8</ele>
        <time>2020-06-30T13:27:45Z</time>
      </trkpt>
      <trkpt lat="43.10329" lon="0.26969">
        <ele>327.6</ele>
        <time>2020-06-30T13:27:46Z</time>
      </trkpt>
      <trkpt lat="43.10328" lon="0.26968">
        <ele>324.8</ele>
        <time>2020-06-30T13:27:51Z</time>
      </trkpt>
      <trkpt lat="43.10328" lon="0.26969">
        <ele>324.8</ele>
        <time>2020-06-30T13:27:52Z</time>
      </trkpt>
      <trkpt lat="43.10329" lon="0.26968">
        <ele>324.8</ele>
        <time>2020-06-30T13:27:53Z</time>
      </trkpt>
      <trkpt lat="43.10329" lon="0.26968">
        <ele>328.2</ele>
        <time>2020-06-30T13:27:54Z</time>
      </trkpt>
      <trkpt lat="43.10329" lon="0.26967">
        <ele>328.2</ele>
        <time>2020-06-30T13:27:55Z</time>
      </trkpt>
      <trkpt lat="43.1033" lon="0.26967">
        <ele>328.2</ele>
        <time>2020-06-30T13:27:56Z</time>
      </trkpt>
      <trkpt lat="43.10329" lon="0.26968">
        <ele>328.4</ele>
        <time>2020-06-30T13:27:57Z</time>
      </trkpt>
      <trkpt lat="43.10329" lon="0.26967">
        <ele>328</ele>
        <time>2020-06-30T13:27:58Z</time>
      </trkpt>
      <trkpt lat="43.1033" lon="0.26967">
        <ele>327.6</ele>
        <time>2020-06-30T13:27:59Z</time>
      </trkpt>
      <trkpt lat="43.1033" lon="0.26967">
        <ele>328</ele>
        <time>2020-06-30T13:28:00Z</time>
      </trkpt>
      <trkpt lat="43.10331" lon="0.26967">
        <ele>328.6</ele>
        <time>2020-06-30T13:28:01Z</time>
      </trkpt>
      <trkpt lat="43.10331" lon="0.26967">
        <ele>328.4</ele>
        <time>2020-06-30T13:28:02Z</time>
      </trkpt>
      <trkpt lat="43.1033" lon="0.26966">
        <ele>328.4</ele>
        <time>2020-06-30T13:28:03Z</time>
      </trkpt>
      <trkpt lat="43.1033" lon="0.26967">
        <ele>328.2</ele>
        <time>2020-06-30T13:28:04Z</time>
      </trkpt>
      <trkpt lat="43.10334" lon="0.26969">
        <ele>328.4</ele>
        <time>2020-06-30T13:29:26Z</time>
      </trkpt>
      <trkpt lat="43.10335" lon="0.26971">
        <ele>328.4</ele>
        <time>2020-06-30T13:29:27Z</time>
      </trkpt>
      <trkpt lat="43.10335" lon="0.26973">
        <ele>328.4</ele>
        <time>2020-06-30T13:29:28Z</time>
      </trkpt>
      <trkpt lat="43.10334" lon="0.26975">
        <ele>328.4</ele>
        <time>2020-06-30T13:29:29Z</time>
      </trkpt>
      <trkpt lat="43.10332" lon="0.26975">
        <ele>328.4</ele>
        <time>2020-06-30T13:29:30Z</time>
      </trkpt>
      <trkpt lat="43.10329" lon="0.26973">
        <ele>328.4</ele>
        <time>2020-06-30T13:29:31Z</time>
      </trkpt>
      <trkpt lat="43.10328" lon="0.2697">
        <ele>328.4</ele>
        <time>2020-06-30T13:29:32Z</time>
      </trkpt>
      <trkpt lat="43.10328" lon="0.26967">
        <ele>328.4</ele>
        <time>2020-06-30T13:29:33Z</time>
      </trkpt>
      <trkpt lat="43.1033" lon="0.26966">
        <ele>328.6</ele>
        <time>2020-06-30T13:29:34Z</time>
      </trkpt>
      <trkpt lat="43.10331" lon="0.26964">
        <ele>328.8</ele>
        <time>2020-06-30T13:29:35Z</time>
      </trkpt>
      <trkpt lat="43.10333" lon="0.26963">
        <ele>328.8</ele>
        <time>2020-06-30T13:29:36Z</time>
      </trkpt>
      <trkpt lat="43.10334" lon="0.26962">
        <ele>329</ele>
        <time>2020-06-30T13:29:37Z</time>
      </trkpt>
      <trkpt lat="43.10336" lon="0.2696">
        <ele>329.2</ele>
        <time>2020-06-30T13:29:38Z</time>
      </trkpt>
      <trkpt lat="43.10337" lon="0.2696">
        <ele>329.4</ele>
        <time>2020-06-30T13:29:39Z</time>
      </trkpt>
      <trkpt lat="43.10338" lon="0.26958">
        <ele>329.6</ele>
        <time>2020-06-30T13:29:40Z</time>
      </trkpt>
      <trkpt lat="43.10339" lon="0.26957">
        <ele>329.8</ele>
        <time>2020-06-30T13:29:41Z</time>
      </trkpt>
      <trkpt lat="43.1034" lon="0.26956">
        <ele>330</ele>
        <time>2020-06-30T13:29:42Z</time>
      </trkpt>
      <trkpt lat="43.10341" lon="0.26955">
        <ele>330.2</ele>
        <time>2020-06-30T13:29:43Z</time>
      </trkpt>
      <trkpt lat="43.10342" lon="0.26953">
        <ele>330.2</ele>
        <time>2020-06-30T13:29:44Z</time>
      </trkpt>
      <trkpt lat="43.10342" lon="0.26951">
        <ele>330.2</ele>
        <time>2020-06-30T13:29:45Z</time>
      </trkpt>
      <trkpt lat="43.10343" lon="0.2695">
        <ele>330.4</ele>
        <time>2020-06-30T13:29:46Z</time>
      </trkpt>
      <trkpt lat="43.10344" lon="0.2695">
        <ele>330.6</ele>
        <time>2020-06-30T13:29:47Z</time>
      </trkpt>
      <trkpt lat="43.10344" lon="0.26949">
        <ele>330.6</ele>
        <time>2020-06-30T13:29:48Z</time>
      </trkpt>
      <trkpt lat="43.10345" lon="0.26948">
        <ele>330.8</ele>
        <time>2020-06-30T13:29:49Z</time>
      </trkpt>
      <trkpt lat="43.10348" lon="0.26948">
        <ele>331</ele>
        <time>2020-06-30T13:29:50Z</time>
      </trkpt>
      <trkpt lat="43.10347" lon="0.26946">
        <ele>331.2</ele>
        <time>2020-06-30T13:29:51Z</time>
      </trkpt>
      <trkpt lat="43.10348" lon="0.26945">
        <ele>331.2</ele>
        <time>2020-06-30T13:29:52Z</time>
      </trkpt>
      <trkpt lat="43.10349" lon="0.26944">
        <ele>331.4</ele>
        <time>2020-06-30T13:29:53Z</time>
      </trkpt>
      <trkpt lat="43.1035" lon="0.26944">
        <ele>331.4</ele>
        <time>2020-06-30T13:29:54Z</time>
      </trkpt>
      <trkpt lat="43.10351" lon="0.26943">
        <ele>331.6</ele>
        <time>2020-06-30T13:29:55Z</time>
      </trkpt>
      <trkpt lat="43.10352" lon="0.26941">
        <ele>331.8</ele>
        <time>2020-06-30T13:29:56Z</time>
      </trkpt>
      <trkpt lat="43.10353" lon="0.26939">
        <ele>332</ele>
        <time>2020-06-30T13:29:57Z</time>
      </trkpt>
      <trkpt lat="43.10353" lon="0.26938">
        <ele>332</ele>
        <time>2020-06-30T13:29:58Z</time>
      </trkpt>
      <trkpt lat="43.10353" lon="0.26937">
        <ele>332.2</ele>
        <time>2020-06-30T13:29:59Z</time>
      </trkpt>
      <trkpt lat="43.10354" lon="0.26936">
        <ele>332.4</ele>
        <time>2020-06-30T13:30:00Z</time>
      </trkpt>
      <trkpt lat="43.10353" lon="0.26934">
        <ele>332.4</ele>
        <time>2020-06-30T13:30:01Z</time>
      </trkpt>
      <trkpt lat="43.10353" lon="0.26933">
        <ele>332.6</ele>
        <time>2020-06-30T13:30:02Z</time>
      </trkpt>
      <trkpt lat="43.10352" lon="0.26932">
        <ele>332.6</ele>
        <time>2020-06-30T13:30:03Z</time>
      </trkpt>
      <trkpt lat="43.10351" lon="0.2693">
        <ele>332.8</ele>
        <time>2020-06-30T13:30:04Z</time>
      </trkpt>
      <trkpt lat="43.10351" lon="0.26929">
        <ele>332.8</ele>
        <time>2020-06-30T13:30:05Z</time>
      </trkpt>
      <trkpt lat="43.1035" lon="0.26928">
        <ele>333</ele>
        <time>2020-06-30T13:30:06Z</time>
      </trkpt>
      <trkpt lat="43.10348" lon="0.26927">
        <ele>333</ele>
        <time>2020-06-30T13:30:07Z</time>
      </trkpt>
      <trkpt lat="43.10347" lon="0.26926">
        <ele>333.2</ele>
        <time>2020-06-30T13:30:08Z</time>
      </trkpt>
      <trkpt lat="43.10347" lon="0.26925">
        <ele>333.4</ele>
        <time>2020-06-30T13:30:09Z</time>
      </trkpt>
      <trkpt lat="43.10346" lon="0.26924">
        <ele>333.4</ele>
        <time>2020-06-30T13:30:10Z</time>
      </trkpt>
      <trkpt lat="43.10346" lon="0.26923">
        <ele>333.6</ele>
        <time>2020-06-30T13:30:11Z</time>
      </trkpt>
      <trkpt lat="43.10342" lon="0.26915">
        <ele>334.6</ele>
        <time>2020-06-30T13:30:18Z</time>
      </trkpt>
      <trkpt lat="43.10341" lon="0.26914">
        <ele>334.8</ele>
        <time>2020-06-30T13:30:19Z</time>
      </trkpt>
      <trkpt lat="43.1034" lon="0.26912">
        <ele>334.8</ele>
        <time>2020-06-30T13:30:20Z</time>
      </trkpt>
      <trkpt lat="43.10339" lon="0.26911">
        <ele>335</ele>
        <time>2020-06-30T13:30:21Z</time>
      </trkpt>
      <trkpt lat="43.10339" lon="0.2691">
        <ele>335.2</ele>
        <time>2020-06-30T13:30:22Z</time>
      </trkpt>
      <trkpt lat="43.10338" lon="0.26909">
        <ele>335.2</ele>
        <time>2020-06-30T13:30:23Z</time>
      </trkpt>
      <trkpt lat="43.10338" lon="0.26908">
        <ele>335.6</ele>
        <time>2020-06-30T13:30:24Z</time>
      </trkpt>
      <trkpt lat="43.10337" lon="0.26907">
        <ele>335.8</ele>
        <time>2020-06-30T13:30:25Z</time>
      </trkpt>
      <trkpt lat="43.10336" lon="0.26905">
        <ele>336</ele>
        <time>2020-06-30T13:30:26Z</time>
      </trkpt>
      <trkpt lat="43.10336" lon="0.26904">
        <ele>336</ele>
        <time>2020-06-30T13:30:27Z</time>
      </trkpt>
      <trkpt lat="43.10335" lon="0.26903">
        <ele>336.2</ele>
        <time>2020-06-30T13:30:28Z</time>
      </trkpt>
      <trkpt lat="43.10335" lon="0.26901">
        <ele>336.2</ele>
        <time>2020-06-30T13:30:29Z</time>
      </trkpt>
      <trkpt lat="43.10334" lon="0.269">
        <ele>336.4</ele>
        <time>2020-06-30T13:30:30Z</time>
      </trkpt>
      <trkpt lat="43.10334" lon="0.26899">
        <ele>336.4</ele>
        <time>2020-06-30T13:30:31Z</time>
      </trkpt>
      <trkpt lat="43.10333" lon="0.26897">
        <ele>336.6</ele>
        <time>2020-06-30T13:30:32Z</time>
      </trkpt>
      <trkpt lat="43.10333" lon="0.26896">
        <ele>336.8</ele>
        <time>2020-06-30T13:30:33Z</time>
      </trkpt>
      <trkpt lat="43.10332" lon="0.26894">
        <ele>336.8</ele>
        <time>2020-06-30T13:30:34Z</time>
      </trkpt>
      <trkpt lat="43.10332" lon="0.26893">
        <ele>337</ele>
        <time>2020-06-30T13:30:35Z</time>
      </trkpt>
      <trkpt lat="43.10331" lon="0.26892">
        <ele>337</ele>
        <time>2020-06-30T13:30:36Z</time>
      </trkpt>
      <trkpt lat="43.10331" lon="0.2689">
        <ele>337.2</ele>
        <time>2020-06-30T13:30:37Z</time>
      </trkpt>
      <trkpt lat="43.1033" lon="0.26889">
        <ele>337.4</ele>
        <time>2020-06-30T13:30:38Z</time>
      </trkpt>
      <trkpt lat="43.1033" lon="0.26887">
        <ele>337.6</ele>
        <time>2020-06-30T13:30:39Z</time>
      </trkpt>
      <trkpt lat="43.10329" lon="0.26886">
        <ele>337.6</ele>
        <time>2020-06-30T13:30:40Z</time>
      </trkpt>
      <trkpt lat="43.10329" lon="0.26884">
        <ele>337.8</ele>
        <time>2020-06-30T13:30:41Z</time>
      </trkpt>
      <trkpt lat="43.10329" lon="0.26883">
        <ele>338</ele>
        <time>2020-06-30T13:30:42Z</time>
      </trkpt>
      <trkpt lat="43.10329" lon="0.26882">
        <ele>338.2</ele>
        <time>2020-06-30T13:30:43Z</time>
      </trkpt>
      <trkpt lat="43.10328" lon="0.26881">
        <ele>338.4</ele>
        <time>2020-06-30T13:30:44Z</time>
      </trkpt>
      <trkpt lat="43.10328" lon="0.26879">
        <ele>338.4</ele>
        <time>2020-06-30T13:30:45Z</time>
      </trkpt>
      <trkpt lat="43.10328" lon="0.26878">
        <ele>338.6</ele>
        <time>2020-06-30T13:30:46Z</time>
      </trkpt>
      <trkpt lat="43.10328" lon="0.26877">
        <ele>338.6</ele>
        <time>2020-06-30T13:30:47Z</time>
      </trkpt>
      <trkpt lat="43.10327" lon="0.26876">
        <ele>338.8</ele>
        <time>2020-06-30T13:30:48Z</time>
      </trkpt>
      <trkpt lat="43.10327" lon="0.26875">
        <ele>338.8</ele>
        <time>2020-06-30T13:30:49Z</time>
      </trkpt>
      <trkpt lat="43.10327" lon="0.26874">
        <ele>339</ele>
        <time>2020-06-30T13:30:50Z</time>
      </trkpt>
      <trkpt lat="43.10327" lon="0.26873">
        <ele>339</ele>
        <time>2020-06-30T13:30:51Z</time>
      </trkpt>
      <trkpt lat="43.10326" lon="0.26871">
        <ele>339.2</ele>
        <time>2020-06-30T13:30:52Z</time>
      </trkpt>
      <trkpt lat="43.10327" lon="0.2687">
        <ele>339.4</ele>
        <time>2020-06-30T13:30:53Z</time>
      </trkpt>
      <trkpt lat="43.10327" lon="0.26868">
        <ele>339.4</ele>
        <time>2020-06-30T13:30:54Z</time>
      </trkpt>
      <trkpt lat="43.10327" lon="0.26867">
        <ele>339.6</ele>
        <time>2020-06-30T13:30:55Z</time>
      </trkpt>
      <trkpt lat="43.10327" lon="0.26866">
        <ele>339.8</ele>
        <time>2020-06-30T13:30:56Z</time>
      </trkpt>
      <trkpt lat="43.10327" lon="0.26865">
        <ele>340</ele>
        <time>2020-06-30T13:30:57Z</time>
      </trkpt>
      <trkpt lat="43.10326" lon="0.26864">
        <ele>340.2</ele>
        <time>2020-06-30T13:30:58Z</time>
      </trkpt>
      <trkpt lat="43.10325" lon="0.26862">
        <ele>340.2</ele>
        <time>2020-06-30T13:30:59Z</time>
      </trkpt>
      <trkpt lat="43.10324" lon="0.2686">
        <ele>340.4</ele>
        <time>2020-06-30T13:31:00Z</time>
      </trkpt>
      <trkpt lat="43.10324" lon="0.26859">
        <ele>340.6</ele>
        <time>2020-06-30T13:31:01Z</time>
      </trkpt>
      <trkpt lat="43.10323" lon="0.26858">
        <ele>340.6</ele>
        <time>2020-06-30T13:31:02Z</time>
      </trkpt>
      <trkpt lat="43.10322" lon="0.26856">
        <ele>340.8</ele>
        <time>2020-06-30T13:31:03Z</time>
      </trkpt>
      <trkpt lat="43.10321" lon="0.26855">
        <ele>340.8</ele>
        <time>2020-06-30T13:31:04Z</time>
      </trkpt>
      <trkpt lat="43.1032" lon="0.26854">
        <ele>341</ele>
        <time>2020-06-30T13:31:05Z</time>
      </trkpt>
      <trkpt lat="43.1032" lon="0.26852">
        <ele>341</ele>
        <time>2020-06-30T13:31:06Z</time>
      </trkpt>
      <trkpt lat="43.10319" lon="0.2685">
        <ele>341.2</ele>
        <time>2020-06-30T13:31:07Z</time>
      </trkpt>
      <trkpt lat="43.10318" lon="0.26848">
        <ele>341.4</ele>
        <time>2020-06-30T13:31:08Z</time>
      </trkpt>
      <trkpt lat="43.10318" lon="0.26847">
        <ele>341.4</ele>
        <time>2020-06-30T13:31:09Z</time>
      </trkpt>
      <trkpt lat="43.10318" lon="0.26845">
        <ele>341.6</ele>
        <time>2020-06-30T13:31:10Z</time>
      </trkpt>
      <trkpt lat="43.10319" lon="0.26844">
        <ele>341.8</ele>
        <time>2020-06-30T13:31:11Z</time>
      </trkpt>
      <trkpt lat="43.10319" lon="0.26843">
        <ele>341.8</ele>
        <time>2020-06-30T13:31:12Z</time>
      </trkpt>
      <trkpt lat="43.10319" lon="0.26841">
        <ele>342</ele>
        <time>2020-06-30T13:31:13Z</time>
      </trkpt>
      <trkpt lat="43.10318" lon="0.26839">
        <ele>342</ele>
        <time>2020-06-30T13:31:14Z</time>
      </trkpt>
      <trkpt lat="43.10318" lon="0.26838">
        <ele>342.2</ele>
        <time>2020-06-30T13:31:15Z</time>
      </trkpt>
      <trkpt lat="43.10318" lon="0.26836">
        <ele>342.2</ele>
        <time>2020-06-30T13:31:16Z</time>
      </trkpt>
      <trkpt lat="43.10318" lon="0.26836">
        <ele>342.4</ele>
        <time>2020-06-30T13:31:17Z</time>
      </trkpt>
      <trkpt lat="43.10318" lon="0.26834">
        <ele>342.6</ele>
        <time>2020-06-30T13:31:18Z</time>
      </trkpt>
      <trkpt lat="43.10317" lon="0.26833">
        <ele>342.6</ele>
        <time>2020-06-30T13:31:19Z</time>
      </trkpt>
      <trkpt lat="43.10317" lon="0.26832">
        <ele>342.8</ele>
        <time>2020-06-30T13:31:20Z</time>
      </trkpt>
      <trkpt lat="43.10317" lon="0.2683">
        <ele>343</ele>
        <time>2020-06-30T13:31:21Z</time>
      </trkpt>
      <trkpt lat="43.10316" lon="0.26828">
        <ele>343</ele>
        <time>2020-06-30T13:31:22Z</time>
      </trkpt>
      <trkpt lat="43.10316" lon="0.26826">
        <ele>343.2</ele>
        <time>2020-06-30T13:31:23Z</time>
      </trkpt>
      <trkpt lat="43.10316" lon="0.26824">
        <ele>343.2</ele>
        <time>2020-06-30T13:31:24Z</time>
      </trkpt>
      <trkpt lat="43.10315" lon="0.26823">
        <ele>343.4</ele>
        <time>2020-06-30T13:31:25Z</time>
      </trkpt>
      <trkpt lat="43.10314" lon="0.26821">
        <ele>343.6</ele>
        <time>2020-06-30T13:31:26Z</time>
      </trkpt>
      <trkpt lat="43.10313" lon="0.26818">
        <ele>343.8</ele>
        <time>2020-06-30T13:31:27Z</time>
      </trkpt>
      <trkpt lat="43.10312" lon="0.26816">
        <ele>343.8</ele>
        <time>2020-06-30T13:31:28Z</time>
      </trkpt>
      <trkpt lat="43.10312" lon="0.26815">
        <ele>344</ele>
        <time>2020-06-30T13:31:29Z</time>
      </trkpt>
      <trkpt lat="43.10313" lon="0.26814">
        <ele>344</ele>
        <time>2020-06-30T13:31:30Z</time>
      </trkpt>
      <trkpt lat="43.10312" lon="0.26812">
        <ele>344.2</ele>
        <time>2020-06-30T13:31:31Z</time>
      </trkpt>
      <trkpt lat="43.10311" lon="0.26811">
        <ele>344.4</ele>
        <time>2020-06-30T13:31:32Z</time>
      </trkpt>
      <trkpt lat="43.10311" lon="0.2681">
        <ele>344.4</ele>
        <time>2020-06-30T13:31:33Z</time>
      </trkpt>
      <trkpt lat="43.1031" lon="0.26808">
        <ele>344.6</ele>
        <time>2020-06-30T13:31:34Z</time>
      </trkpt>
      <trkpt lat="43.1031" lon="0.26807">
        <ele>344.8</ele>
        <time>2020-06-30T13:31:35Z</time>
      </trkpt>
      <trkpt lat="43.10309" lon="0.26805">
        <ele>345</ele>
        <time>2020-06-30T13:31:36Z</time>
      </trkpt>
      <trkpt lat="43.10309" lon="0.26804">
        <ele>345</ele>
        <time>2020-06-30T13:31:37Z</time>
      </trkpt>
      <trkpt lat="43.10309" lon="0.26802">
        <ele>345.2</ele>
        <time>2020-06-30T13:31:38Z</time>
      </trkpt>
      <trkpt lat="43.10308" lon="0.268">
        <ele>345.4</ele>
        <time>2020-06-30T13:31:39Z</time>
      </trkpt>
      <trkpt lat="43.10309" lon="0.26798">
        <ele>345.4</ele>
        <time>2020-06-30T13:31:40Z</time>
      </trkpt>
      <trkpt lat="43.10308" lon="0.26796">
        <ele>345.6</ele>
        <time>2020-06-30T13:31:41Z</time>
      </trkpt>
      <trkpt lat="43.10306" lon="0.26794">
        <ele>345.8</ele>
        <time>2020-06-30T13:31:42Z</time>
      </trkpt>
      <trkpt lat="43.10305" lon="0.26792">
        <ele>345.8</ele>
        <time>2020-06-30T13:31:43Z</time>
      </trkpt>
      <trkpt lat="43.10305" lon="0.2679">
        <ele>345.8</ele>
        <time>2020-06-30T13:31:44Z</time>
      </trkpt>
      <trkpt lat="43.10304" lon="0.26788">
        <ele>346</ele>
        <time>2020-06-30T13:31:45Z</time>
      </trkpt>
      <trkpt lat="43.10304" lon="0.26786">
        <ele>346.2</ele>
        <time>2020-06-30T13:31:46Z</time>
      </trkpt>
      <trkpt lat="43.10303" lon="0.26785">
        <ele>346.4</ele>
        <time>2020-06-30T13:31:47Z</time>
      </trkpt>
      <trkpt lat="43.10303" lon="0.26784">
        <ele>346.4</ele>
        <time>2020-06-30T13:31:48Z</time>
      </trkpt>
      <trkpt lat="43.10303" lon="0.26782">
        <ele>346.4</ele>
        <time>2020-06-30T13:31:49Z</time>
      </trkpt>
      <trkpt lat="43.10303" lon="0.26779">
        <ele>346.6</ele>
        <time>2020-06-30T13:31:50Z</time>
      </trkpt>
      <trkpt lat="43.10302" lon="0.26778">
        <ele>346.8</ele>
        <time>2020-06-30T13:31:51Z</time>
      </trkpt>
      <trkpt lat="43.10302" lon="0.26776">
        <ele>346.8</ele>
        <time>2020-06-30T13:31:52Z</time>
      </trkpt>
      <trkpt lat="43.10302" lon="0.26774">
        <ele>347</ele>
        <time>2020-06-30T13:31:53Z</time>
      </trkpt>
      <trkpt lat="43.10301" lon="0.26771">
        <ele>347</ele>
        <time>2020-06-30T13:31:54Z</time>
      </trkpt>
      <trkpt lat="43.10301" lon="0.2677">
        <ele>347.2</ele>
        <time>2020-06-30T13:31:55Z</time>
      </trkpt>
      <trkpt lat="43.10301" lon="0.26768">
        <ele>347.4</ele>
        <time>2020-06-30T13:31:56Z</time>
      </trkpt>
      <trkpt lat="43.10299" lon="0.26766">
        <ele>347.4</ele>
        <time>2020-06-30T13:31:57Z</time>
      </trkpt>
      <trkpt lat="43.10298" lon="0.26764">
        <ele>347.6</ele>
        <time>2020-06-30T13:31:58Z</time>
      </trkpt>
      <trkpt lat="43.10298" lon="0.26762">
        <ele>347.8</ele>
        <time>2020-06-30T13:31:59Z</time>
      </trkpt>
      <trkpt lat="43.10298" lon="0.2676">
        <ele>347.8</ele>
        <time>2020-06-30T13:32:00Z</time>
      </trkpt>
      <trkpt lat="43.10297" lon="0.26759">
        <ele>348</ele>
        <time>2020-06-30T13:32:01Z</time>
      </trkpt>
      <trkpt lat="43.10297" lon="0.26758">
        <ele>348</ele>
        <time>2020-06-30T13:32:02Z</time>
      </trkpt>
      <trkpt lat="43.10298" lon="0.26756">
        <ele>348.2</ele>
        <time>2020-06-30T13:32:03Z</time>
      </trkpt>
      <trkpt lat="43.10298" lon="0.26755">
        <ele>348.2</ele>
        <time>2020-06-30T13:32:04Z</time>
      </trkpt>
      <trkpt lat="43.10298" lon="0.26752">
        <ele>348.6</ele>
        <time>2020-06-30T13:32:05Z</time>
      </trkpt>
      <trkpt lat="43.10298" lon="0.2675">
        <ele>348.6</ele>
        <time>2020-06-30T13:32:06Z</time>
      </trkpt>
      <trkpt lat="43.10297" lon="0.2675">
        <ele>348.8</ele>
        <time>2020-06-30T13:32:07Z</time>
      </trkpt>
      <trkpt lat="43.10298" lon="0.26748">
        <ele>348.8</ele>
        <time>2020-06-30T13:32:08Z</time>
      </trkpt>
      <trkpt lat="43.10297" lon="0.26746">
        <ele>349</ele>
        <time>2020-06-30T13:32:09Z</time>
      </trkpt>
      <trkpt lat="43.10297" lon="0.26745">
        <ele>349.2</ele>
        <time>2020-06-30T13:32:10Z</time>
      </trkpt>
      <trkpt lat="43.10297" lon="0.26742">
        <ele>349.2</ele>
        <time>2020-06-30T13:32:11Z</time>
      </trkpt>
      <trkpt lat="43.10296" lon="0.26741">
        <ele>349.4</ele>
        <time>2020-06-30T13:32:12Z</time>
      </trkpt>
      <trkpt lat="43.10295" lon="0.2674">
        <ele>349.4</ele>
        <time>2020-06-30T13:32:13Z</time>
      </trkpt>
      <trkpt lat="43.10295" lon="0.26738">
        <ele>349.6</ele>
        <time>2020-06-30T13:32:14Z</time>
      </trkpt>
      <trkpt lat="43.10295" lon="0.26737">
        <ele>349.8</ele>
        <time>2020-06-30T13:32:15Z</time>
      </trkpt>
      <trkpt lat="43.10295" lon="0.26735">
        <ele>350</ele>
        <time>2020-06-30T13:32:16Z</time>
      </trkpt>
      <trkpt lat="43.10293" lon="0.26731">
        <ele>350</ele>
        <time>2020-06-30T13:32:17Z</time>
      </trkpt>
      <trkpt lat="43.10292" lon="0.2673">
        <ele>350.2</ele>
        <time>2020-06-30T13:32:18Z</time>
      </trkpt>
      <trkpt lat="43.10292" lon="0.26729">
        <ele>350.4</ele>
        <time>2020-06-30T13:32:19Z</time>
      </trkpt>
      <trkpt lat="43.10292" lon="0.26727">
        <ele>350.4</ele>
        <time>2020-06-30T13:32:20Z</time>
      </trkpt>
      <trkpt lat="43.10291" lon="0.26725">
        <ele>350.6</ele>
        <time>2020-06-30T13:32:21Z</time>
      </trkpt>
      <trkpt lat="43.10291" lon="0.26724">
        <ele>350.8</ele>
        <time>2020-06-30T13:32:22Z</time>
      </trkpt>
      <trkpt lat="43.1029" lon="0.26723">
        <ele>350.8</ele>
        <time>2020-06-30T13:32:23Z</time>
      </trkpt>
      <trkpt lat="43.10289" lon="0.26721">
        <ele>351</ele>
        <time>2020-06-30T13:32:24Z</time>
      </trkpt>
      <trkpt lat="43.10288" lon="0.26719">
        <ele>351.2</ele>
        <time>2020-06-30T13:32:25Z</time>
      </trkpt>
      <trkpt lat="43.10286" lon="0.26718">
        <ele>351.2</ele>
        <time>2020-06-30T13:32:26Z</time>
      </trkpt>
      <trkpt lat="43.10285" lon="0.26716">
        <ele>351.4</ele>
        <time>2020-06-30T13:32:27Z</time>
      </trkpt>
      <trkpt lat="43.10285" lon="0.26715">
        <ele>351.4</ele>
        <time>2020-06-30T13:32:28Z</time>
      </trkpt>
      <trkpt lat="43.10283" lon="0.26714">
        <ele>351.6</ele>
        <time>2020-06-30T13:32:29Z</time>
      </trkpt>
      <trkpt lat="43.10283" lon="0.26711">
        <ele>351.6</ele>
        <time>2020-06-30T13:32:30Z</time>
      </trkpt>
      <trkpt lat="43.10283" lon="0.26709">
        <ele>351.8</ele>
        <time>2020-06-30T13:32:31Z</time>
      </trkpt>
      <trkpt lat="43.10282" lon="0.26708">
        <ele>351.8</ele>
        <time>2020-06-30T13:32:32Z</time>
      </trkpt>
      <trkpt lat="43.1028" lon="0.26707">
        <ele>352</ele>
        <time>2020-06-30T13:32:33Z</time>
      </trkpt>
      <trkpt lat="43.10281" lon="0.26706">
        <ele>352.2</ele>
        <time>2020-06-30T13:32:34Z</time>
      </trkpt>
      <trkpt lat="43.1028" lon="0.26704">
        <ele>352.2</ele>
        <time>2020-06-30T13:32:35Z</time>
      </trkpt>
      <trkpt lat="43.1028" lon="0.26703">
        <ele>352.4</ele>
        <time>2020-06-30T13:32:36Z</time>
      </trkpt>
      <trkpt lat="43.10279" lon="0.267">
        <ele>352.4</ele>
        <time>2020-06-30T13:32:37Z</time>
      </trkpt>
      <trkpt lat="43.10279" lon="0.26698">
        <ele>352.6</ele>
        <time>2020-06-30T13:32:38Z</time>
      </trkpt>
      <trkpt lat="43.10279" lon="0.26697">
        <ele>352.8</ele>
        <time>2020-06-30T13:32:39Z</time>
      </trkpt>
      <trkpt lat="43.10279" lon="0.26694">
        <ele>353</ele>
        <time>2020-06-30T13:32:40Z</time>
      </trkpt>
      <trkpt lat="43.10279" lon="0.26693">
        <ele>353</ele>
        <time>2020-06-30T13:32:41Z</time>
      </trkpt>
      <trkpt lat="43.10279" lon="0.26691">
        <ele>353.2</ele>
        <time>2020-06-30T13:32:42Z</time>
      </trkpt>
      <trkpt lat="43.10278" lon="0.26689">
        <ele>353.2</ele>
        <time>2020-06-30T13:32:43Z</time>
      </trkpt>
      <trkpt lat="43.10277" lon="0.26687">
        <ele>353.4</ele>
        <time>2020-06-30T13:32:44Z</time>
      </trkpt>
      <trkpt lat="43.10277" lon="0.26685">
        <ele>353.4</ele>
        <time>2020-06-30T13:32:45Z</time>
      </trkpt>
      <trkpt lat="43.10276" lon="0.26683">
        <ele>353.6</ele>
        <time>2020-06-30T13:32:46Z</time>
      </trkpt>
      <trkpt lat="43.10276" lon="0.26681">
        <ele>353.8</ele>
        <time>2020-06-30T13:32:47Z</time>
      </trkpt>
      <trkpt lat="43.10275" lon="0.2668">
        <ele>353.8</ele>
        <time>2020-06-30T13:32:48Z</time>
      </trkpt>
      <trkpt lat="43.10275" lon="0.26678">
        <ele>354</ele>
        <time>2020-06-30T13:32:49Z</time>
      </trkpt>
      <trkpt lat="43.10275" lon="0.26676">
        <ele>354</ele>
        <time>2020-06-30T13:32:50Z</time>
      </trkpt>
      <trkpt lat="43.10274" lon="0.26674">
        <ele>354.2</ele>
        <time>2020-06-30T13:32:51Z</time>
      </trkpt>
      <trkpt lat="43.10273" lon="0.26672">
        <ele>354.4</ele>
        <time>2020-06-30T13:32:52Z</time>
      </trkpt>
      <trkpt lat="43.10272" lon="0.2667">
        <ele>354.4</ele>
        <time>2020-06-30T13:32:53Z</time>
      </trkpt>
      <trkpt lat="43.10271" lon="0.26668">
        <ele>354.6</ele>
        <time>2020-06-30T13:32:54Z</time>
      </trkpt>
      <trkpt lat="43.10272" lon="0.26666">
        <ele>354.8</ele>
        <time>2020-06-30T13:32:55Z</time>
      </trkpt>
      <trkpt lat="43.10271" lon="0.26664">
        <ele>355</ele>
        <time>2020-06-30T13:32:56Z</time>
      </trkpt>
      <trkpt lat="43.10272" lon="0.26662">
        <ele>355</ele>
        <time>2020-06-30T13:32:57Z</time>
      </trkpt>
      <trkpt lat="43.1027" lon="0.2666">
        <ele>355.2</ele>
        <time>2020-06-30T13:32:58Z</time>
      </trkpt>
      <trkpt lat="43.10271" lon="0.26658">
        <ele>355.4</ele>
        <time>2020-06-30T13:32:59Z</time>
      </trkpt>
      <trkpt lat="43.1027" lon="0.26656">
        <ele>355.6</ele>
        <time>2020-06-30T13:33:00Z</time>
      </trkpt>
      <trkpt lat="43.1027" lon="0.26654">
        <ele>355.6</ele>
        <time>2020-06-30T13:33:01Z</time>
      </trkpt>
      <trkpt lat="43.10269" lon="0.26652">
        <ele>355.8</ele>
        <time>2020-06-30T13:33:02Z</time>
      </trkpt>
      <trkpt lat="43.10269" lon="0.2665">
        <ele>356</ele>
        <time>2020-06-30T13:33:03Z</time>
      </trkpt>
      <trkpt lat="43.10269" lon="0.26648">
        <ele>356</ele>
        <time>2020-06-30T13:33:04Z</time>
      </trkpt>
      <trkpt lat="43.10269" lon="0.26647">
        <ele>356.2</ele>
        <time>2020-06-30T13:33:05Z</time>
      </trkpt>
      <trkpt lat="43.10268" lon="0.26645">
        <ele>356.2</ele>
        <time>2020-06-30T13:33:06Z</time>
      </trkpt>
      <trkpt lat="43.10267" lon="0.26644">
        <ele>356.4</ele>
        <time>2020-06-30T13:33:07Z</time>
      </trkpt>
      <trkpt lat="43.10267" lon="0.26641">
        <ele>356.6</ele>
        <time>2020-06-30T13:33:08Z</time>
      </trkpt>
      <trkpt lat="43.10267" lon="0.26639">
        <ele>356.8</ele>
        <time>2020-06-30T13:33:09Z</time>
      </trkpt>
      <trkpt lat="43.10267" lon="0.26637">
        <ele>356.8</ele>
        <time>2020-06-30T13:33:10Z</time>
      </trkpt>
      <trkpt lat="43.10267" lon="0.26635">
        <ele>357</ele>
        <time>2020-06-30T13:33:11Z</time>
      </trkpt>
      <trkpt lat="43.10266" lon="0.26633">
        <ele>357.2</ele>
        <time>2020-06-30T13:33:12Z</time>
      </trkpt>
      <trkpt lat="43.10265" lon="0.26631">
        <ele>357.4</ele>
        <time>2020-06-30T13:33:13Z</time>
      </trkpt>
      <trkpt lat="43.10265" lon="0.2663">
        <ele>357.4</ele>
        <time>2020-06-30T13:33:14Z</time>
      </trkpt>
      <trkpt lat="43.10264" lon="0.26628">
        <ele>357.6</ele>
        <time>2020-06-30T13:33:15Z</time>
      </trkpt>
      <trkpt lat="43.10263" lon="0.26626">
        <ele>357.6</ele>
        <time>2020-06-30T13:33:16Z</time>
      </trkpt>
      <trkpt lat="43.10262" lon="0.26624">
        <ele>357.8</ele>
        <time>2020-06-30T13:33:17Z</time>
      </trkpt>
      <trkpt lat="43.10263" lon="0.26622">
        <ele>358</ele>
        <time>2020-06-30T13:33:18Z</time>
      </trkpt>
      <trkpt lat="43.10262" lon="0.26619">
        <ele>358.2</ele>
        <time>2020-06-30T13:33:19Z</time>
      </trkpt>
      <trkpt lat="43.10262" lon="0.26618">
        <ele>358.4</ele>
        <time>2020-06-30T13:33:20Z</time>
      </trkpt>
      <trkpt lat="43.10262" lon="0.26617">
        <ele>358.4</ele>
        <time>2020-06-30T13:33:21Z</time>
      </trkpt>
      <trkpt lat="43.10262" lon="0.26615">
        <ele>358.6</ele>
        <time>2020-06-30T13:33:22Z</time>
      </trkpt>
      <trkpt lat="43.10261" lon="0.26613">
        <ele>358.8</ele>
        <time>2020-06-30T13:33:23Z</time>
      </trkpt>
      <trkpt lat="43.1026" lon="0.26611">
        <ele>359</ele>
        <time>2020-06-30T13:33:24Z</time>
      </trkpt>
      <trkpt lat="43.1026" lon="0.26609">
        <ele>359</ele>
        <time>2020-06-30T13:33:25Z</time>
      </trkpt>
      <trkpt lat="43.10259" lon="0.26608">
        <ele>359.2</ele>
        <time>2020-06-30T13:33:26Z</time>
      </trkpt>
      <trkpt lat="43.10259" lon="0.26607">
        <ele>359.4</ele>
        <time>2020-06-30T13:33:27Z</time>
      </trkpt>
      <trkpt lat="43.10259" lon="0.26606">
        <ele>359.6</ele>
        <time>2020-06-30T13:33:28Z</time>
      </trkpt>
      <trkpt lat="43.10258" lon="0.26604">
        <ele>359.6</ele>
        <time>2020-06-30T13:33:29Z</time>
      </trkpt>
      <trkpt lat="43.10257" lon="0.26602">
        <ele>359.8</ele>
        <time>2020-06-30T13:33:30Z</time>
      </trkpt>
      <trkpt lat="43.10257" lon="0.266">
        <ele>359.8</ele>
        <time>2020-06-30T13:33:31Z</time>
      </trkpt>
      <trkpt lat="43.10257" lon="0.26598">
        <ele>360</ele>
        <time>2020-06-30T13:33:32Z</time>
      </trkpt>
      <trkpt lat="43.10257" lon="0.26597">
        <ele>360.2</ele>
        <time>2020-06-30T13:33:33Z</time>
      </trkpt>
      <trkpt lat="43.10257" lon="0.26595">
        <ele>360.2</ele>
        <time>2020-06-30T13:33:34Z</time>
      </trkpt>
      <trkpt lat="43.10256" lon="0.26593">
        <ele>360.4</ele>
        <time>2020-06-30T13:33:35Z</time>
      </trkpt>
      <trkpt lat="43.10256" lon="0.26591">
        <ele>360.6</ele>
        <time>2020-06-30T13:33:36Z</time>
      </trkpt>
      <trkpt lat="43.10256" lon="0.26589">
        <ele>360.6</ele>
        <time>2020-06-30T13:33:37Z</time>
      </trkpt>
      <trkpt lat="43.10256" lon="0.26587">
        <ele>360.8</ele>
        <time>2020-06-30T13:33:38Z</time>
      </trkpt>
      <trkpt lat="43.10257" lon="0.26585">
        <ele>360.8</ele>
        <time>2020-06-30T13:33:39Z</time>
      </trkpt>
      <trkpt lat="43.10256" lon="0.26583">
        <ele>361</ele>
        <time>2020-06-30T13:33:40Z</time>
      </trkpt>
      <trkpt lat="43.10255" lon="0.26581">
        <ele>361.2</ele>
        <time>2020-06-30T13:33:41Z</time>
      </trkpt>
      <trkpt lat="43.10256" lon="0.26579">
        <ele>361.2</ele>
        <time>2020-06-30T13:33:42Z</time>
      </trkpt>
      <trkpt lat="43.10256" lon="0.26576">
        <ele>361.4</ele>
        <time>2020-06-30T13:33:43Z</time>
      </trkpt>
      <trkpt lat="43.10256" lon="0.26573">
        <ele>361.6</ele>
        <time>2020-06-30T13:33:44Z</time>
      </trkpt>
      <trkpt lat="43.10256" lon="0.26571">
        <ele>361.6</ele>
        <time>2020-06-30T13:33:45Z</time>
      </trkpt>
      <trkpt lat="43.10256" lon="0.26568">
        <ele>361.8</ele>
        <time>2020-06-30T13:33:46Z</time>
      </trkpt>
      <trkpt lat="43.10256" lon="0.26566">
        <ele>362</ele>
        <time>2020-06-30T13:33:47Z</time>
      </trkpt>
      <trkpt lat="43.10256" lon="0.26564">
        <ele>362.2</ele>
        <time>2020-06-30T13:33:48Z</time>
      </trkpt>
      <trkpt lat="43.10255" lon="0.26562">
        <ele>362.4</ele>
        <time>2020-06-30T13:33:49Z</time>
      </trkpt>
      <trkpt lat="43.10256" lon="0.2656">
        <ele>362.6</ele>
        <time>2020-06-30T13:33:50Z</time>
      </trkpt>
      <trkpt lat="43.10256" lon="0.26559">
        <ele>362.6</ele>
        <time>2020-06-30T13:33:51Z</time>
      </trkpt>
      <trkpt lat="43.10256" lon="0.26557">
        <ele>362.8</ele>
        <time>2020-06-30T13:33:52Z</time>
      </trkpt>
      <trkpt lat="43.10255" lon="0.26555">
        <ele>363</ele>
        <time>2020-06-30T13:33:53Z</time>
      </trkpt>
      <trkpt lat="43.10254" lon="0.26553">
        <ele>363.2</ele>
        <time>2020-06-30T13:33:54Z</time>
      </trkpt>
      <trkpt lat="43.10255" lon="0.26551">
        <ele>363.2</ele>
        <time>2020-06-30T13:33:55Z</time>
      </trkpt>
      <trkpt lat="43.10255" lon="0.2655">
        <ele>363.4</ele>
        <time>2020-06-30T13:33:56Z</time>
      </trkpt>
      <trkpt lat="43.10255" lon="0.26548">
        <ele>363.4</ele>
        <time>2020-06-30T13:33:57Z</time>
      </trkpt>
      <trkpt lat="43.10255" lon="0.26546">
        <ele>363.6</ele>
        <time>2020-06-30T13:33:58Z</time>
      </trkpt>
      <trkpt lat="43.10255" lon="0.26544">
        <ele>363.8</ele>
        <time>2020-06-30T13:33:59Z</time>
      </trkpt>
      <trkpt lat="43.10256" lon="0.26542">
        <ele>364</ele>
        <time>2020-06-30T13:34:00Z</time>
      </trkpt>
      <trkpt lat="43.10256" lon="0.2654">
        <ele>364</ele>
        <time>2020-06-30T13:34:01Z</time>
      </trkpt>
      <trkpt lat="43.10256" lon="0.26538">
        <ele>364.2</ele>
        <time>2020-06-30T13:34:02Z</time>
      </trkpt>
      <trkpt lat="43.10255" lon="0.26537">
        <ele>364.4</ele>
        <time>2020-06-30T13:34:03Z</time>
      </trkpt>
      <trkpt lat="43.10255" lon="0.26535">
        <ele>364.4</ele>
        <time>2020-06-30T13:34:04Z</time>
      </trkpt>
      <trkpt lat="43.10255" lon="0.26533">
        <ele>364.6</ele>
        <time>2020-06-30T13:34:05Z</time>
      </trkpt>
      <trkpt lat="43.10255" lon="0.26531">
        <ele>364.6</ele>
        <time>2020-06-30T13:34:06Z</time>
      </trkpt>
      <trkpt lat="43.10255" lon="0.26529">
        <ele>364.8</ele>
        <time>2020-06-30T13:34:07Z</time>
      </trkpt>
      <trkpt lat="43.10255" lon="0.2653">
        <ele>365</ele>
        <time>2020-06-30T13:34:08Z</time>
      </trkpt>
      <trkpt lat="43.10255" lon="0.26528">
        <ele>365</ele>
        <time>2020-06-30T13:34:09Z</time>
      </trkpt>
      <trkpt lat="43.10254" lon="0.26523">
        <ele>365.2</ele>
        <time>2020-06-30T13:34:10Z</time>
      </trkpt>
      <trkpt lat="43.10254" lon="0.26521">
        <ele>365.4</ele>
        <time>2020-06-30T13:34:11Z</time>
      </trkpt>
      <trkpt lat="43.10255" lon="0.2652">
        <ele>365.6</ele>
        <time>2020-06-30T13:34:12Z</time>
      </trkpt>
      <trkpt lat="43.10254" lon="0.26516">
        <ele>365.6</ele>
        <time>2020-06-30T13:34:13Z</time>
      </trkpt>
      <trkpt lat="43.10255" lon="0.26514">
        <ele>365.8</ele>
        <time>2020-06-30T13:34:14Z</time>
      </trkpt>
      <trkpt lat="43.10254" lon="0.26512">
        <ele>365.8</ele>
        <time>2020-06-30T13:34:15Z</time>
      </trkpt>
      <trkpt lat="43.10253" lon="0.2651">
        <ele>366</ele>
        <time>2020-06-30T13:34:16Z</time>
      </trkpt>
      <trkpt lat="43.10254" lon="0.26508">
        <ele>366</ele>
        <time>2020-06-30T13:34:17Z</time>
      </trkpt>
      <trkpt lat="43.10255" lon="0.26505">
        <ele>366</ele>
        <time>2020-06-30T13:34:18Z</time>
      </trkpt>
      <trkpt lat="43.10256" lon="0.26502">
        <ele>366.2</ele>
        <time>2020-06-30T13:34:19Z</time>
      </trkpt>
      <trkpt lat="43.10255" lon="0.265">
        <ele>366.2</ele>
        <time>2020-06-30T13:34:20Z</time>
      </trkpt>
      <trkpt lat="43.10254" lon="0.26498">
        <ele>366.2</ele>
        <time>2020-06-30T13:34:21Z</time>
      </trkpt>
      <trkpt lat="43.10255" lon="0.26496">
        <ele>366.2</ele>
        <time>2020-06-30T13:34:22Z</time>
      </trkpt>
      <trkpt lat="43.10256" lon="0.26494">
        <ele>366.2</ele>
        <time>2020-06-30T13:34:23Z</time>
      </trkpt>
      <trkpt lat="43.10256" lon="0.26493">
        <ele>366.4</ele>
        <time>2020-06-30T13:34:24Z</time>
      </trkpt>
      <trkpt lat="43.10254" lon="0.26491">
        <ele>366.4</ele>
        <time>2020-06-30T13:34:25Z</time>
      </trkpt>
      <trkpt lat="43.10254" lon="0.26488">
        <ele>366.4</ele>
        <time>2020-06-30T13:34:26Z</time>
      </trkpt>
      <trkpt lat="43.10255" lon="0.26487">
        <ele>366.4</ele>
        <time>2020-06-30T13:34:27Z</time>
      </trkpt>
      <trkpt lat="43.10254" lon="0.26485">
        <ele>366.4</ele>
        <time>2020-06-30T13:34:28Z</time>
      </trkpt>
      <trkpt lat="43.10254" lon="0.26485">
        <ele>366.4</ele>
        <time>2020-06-30T13:34:29Z</time>
      </trkpt>
      <trkpt lat="43.10255" lon="0.26485">
        <ele>366.4</ele>
        <time>2020-06-30T13:34:30Z</time>
      </trkpt>
      <trkpt lat="43.10254" lon="0.26483">
        <ele>366.4</ele>
        <time>2020-06-30T13:34:31Z</time>
      </trkpt>
      <trkpt lat="43.10253" lon="0.26481">
        <ele>366.4</ele>
        <time>2020-06-30T13:34:32Z</time>
      </trkpt>
      <trkpt lat="43.10254" lon="0.26479">
        <ele>366.4</ele>
        <time>2020-06-30T13:34:33Z</time>
      </trkpt>
      <trkpt lat="43.10255" lon="0.2648">
        <ele>366.6</ele>
        <time>2020-06-30T13:34:34Z</time>
      </trkpt>
      <trkpt lat="43.10256" lon="0.26481">
        <ele>366.6</ele>
        <time>2020-06-30T13:34:35Z</time>
      </trkpt>
      <trkpt lat="43.10256" lon="0.26484">
        <ele>366.6</ele>
        <time>2020-06-30T13:34:36Z</time>
      </trkpt>
      <trkpt lat="43.10256" lon="0.26485">
        <ele>366.4</ele>
        <time>2020-06-30T13:34:37Z</time>
      </trkpt>
      <trkpt lat="43.10257" lon="0.26487">
        <ele>366.6</ele>
        <time>2020-06-30T13:34:38Z</time>
      </trkpt>
      <trkpt lat="43.10257" lon="0.26488">
        <ele>366.6</ele>
        <time>2020-06-30T13:34:39Z</time>
      </trkpt>
      <trkpt lat="43.10257" lon="0.26489">
        <ele>366.6</ele>
        <time>2020-06-30T13:34:40Z</time>
      </trkpt>
      <trkpt lat="43.10257" lon="0.26489">
        <ele>366.4</ele>
        <time>2020-06-30T13:34:41Z</time>
      </trkpt>
      <trkpt lat="43.10258" lon="0.2649">
        <ele>366.4</ele>
        <time>2020-06-30T13:34:42Z</time>
      </trkpt>
      <trkpt lat="43.10259" lon="0.26491">
        <ele>366.4</ele>
        <time>2020-06-30T13:34:43Z</time>
      </trkpt>
      <trkpt lat="43.10258" lon="0.26491">
        <ele>366.4</ele>
        <time>2020-06-30T13:34:44Z</time>
      </trkpt>
      <trkpt lat="43.10257" lon="0.26491">
        <ele>366.4</ele>
        <time>2020-06-30T13:34:45Z</time>
      </trkpt>
      <trkpt lat="43.10256" lon="0.26491">
        <ele>366.4</ele>
        <time>2020-06-30T13:34:46Z</time>
      </trkpt>
      <trkpt lat="43.10258" lon="0.26492">
        <ele>366.4</ele>
        <time>2020-06-30T13:34:47Z</time>
      </trkpt>
      <trkpt lat="43.10259" lon="0.26491">
        <ele>366.6</ele>
        <time>2020-06-30T13:35:07Z</time>
      </trkpt>
      <trkpt lat="43.10258" lon="0.2649">
        <ele>366.6</ele>
        <time>2020-06-30T13:35:08Z</time>
      </trkpt>
      <trkpt lat="43.10258" lon="0.26488">
        <ele>366.6</ele>
        <time>2020-06-30T13:35:09Z</time>
      </trkpt>
      <trkpt lat="43.10258" lon="0.26486">
        <ele>366.6</ele>
        <time>2020-06-30T13:35:10Z</time>
      </trkpt>
      <trkpt lat="43.10257" lon="0.26483">
        <ele>366.6</ele>
        <time>2020-06-30T13:35:11Z</time>
      </trkpt>
      <trkpt lat="43.10257" lon="0.26479">
        <ele>366.6</ele>
        <time>2020-06-30T13:35:12Z</time>
      </trkpt>
      <trkpt lat="43.10256" lon="0.26475">
        <ele>366.6</ele>
        <time>2020-06-30T13:35:13Z</time>
      </trkpt>
      <trkpt lat="43.10256" lon="0.26471">
        <ele>366.4</ele>
        <time>2020-06-30T13:35:14Z</time>
      </trkpt>
      <trkpt lat="43.10256" lon="0.26466">
        <ele>366.4</ele>
        <time>2020-06-30T13:35:15Z</time>
      </trkpt>
      <trkpt lat="43.10256" lon="0.26462">
        <ele>366.2</ele>
        <time>2020-06-30T13:35:16Z</time>
      </trkpt>
      <trkpt lat="43.10256" lon="0.26456">
        <ele>366</ele>
        <time>2020-06-30T13:35:17Z</time>
      </trkpt>
      <trkpt lat="43.10256" lon="0.2645">
        <ele>365.8</ele>
        <time>2020-06-30T13:35:18Z</time>
      </trkpt>
      <trkpt lat="43.10256" lon="0.26444">
        <ele>365.6</ele>
        <time>2020-06-30T13:35:19Z</time>
      </trkpt>
      <trkpt lat="43.10255" lon="0.26437">
        <ele>365.4</ele>
        <time>2020-06-30T13:35:20Z</time>
      </trkpt>
      <trkpt lat="43.10255" lon="0.26431">
        <ele>365</ele>
        <time>2020-06-30T13:35:21Z</time>
      </trkpt>
      <trkpt lat="43.10255" lon="0.26424">
        <ele>364.8</ele>
        <time>2020-06-30T13:35:22Z</time>
      </trkpt>
      <trkpt lat="43.10255" lon="0.26417">
        <ele>364.4</ele>
        <time>2020-06-30T13:35:23Z</time>
      </trkpt>
      <trkpt lat="43.10256" lon="0.26409">
        <ele>364.2</ele>
        <time>2020-06-30T13:35:24Z</time>
      </trkpt>
      <trkpt lat="43.10257" lon="0.26401">
        <ele>364.2</ele>
        <time>2020-06-30T13:35:25Z</time>
      </trkpt>
      <trkpt lat="43.10258" lon="0.26393">
        <ele>364</ele>
        <time>2020-06-30T13:35:26Z</time>
      </trkpt>
      <trkpt lat="43.10258" lon="0.26385">
        <ele>364</ele>
        <time>2020-06-30T13:35:27Z</time>
      </trkpt>
      <trkpt lat="43.10259" lon="0.26378">
        <ele>364</ele>
        <time>2020-06-30T13:35:28Z</time>
      </trkpt>
      <trkpt lat="43.10261" lon="0.26371">
        <ele>364</ele>
        <time>2020-06-30T13:35:29Z</time>
      </trkpt>
      <trkpt lat="43.10262" lon="0.26364">
        <ele>364</ele>
        <time>2020-06-30T13:35:30Z</time>
      </trkpt>
      <trkpt lat="43.10265" lon="0.26357">
        <ele>363.8</ele>
        <time>2020-06-30T13:35:31Z</time>
      </trkpt>
      <trkpt lat="43.10267" lon="0.26351">
        <ele>364</ele>
        <time>2020-06-30T13:35:32Z</time>
      </trkpt>
      <trkpt lat="43.10269" lon="0.26345">
        <ele>364</ele>
        <time>2020-06-30T13:35:33Z</time>
      </trkpt>
      <trkpt lat="43.10271" lon="0.26341">
        <ele>364.2</ele>
        <time>2020-06-30T13:35:34Z</time>
      </trkpt>
      <trkpt lat="43.10273" lon="0.26335">
        <ele>364.2</ele>
        <time>2020-06-30T13:35:35Z</time>
      </trkpt>
      <trkpt lat="43.10274" lon="0.26329">
        <ele>364.4</ele>
        <time>2020-06-30T13:35:36Z</time>
      </trkpt>
      <trkpt lat="43.10276" lon="0.26325">
        <ele>364.6</ele>
        <time>2020-06-30T13:35:37Z</time>
      </trkpt>
      <trkpt lat="43.10278" lon="0.2632">
        <ele>364.6</ele>
        <time>2020-06-30T13:35:38Z</time>
      </trkpt>
      <trkpt lat="43.10281" lon="0.26315">
        <ele>364.8</ele>
        <time>2020-06-30T13:35:39Z</time>
      </trkpt>
      <trkpt lat="43.10282" lon="0.26309">
        <ele>364.8</ele>
        <time>2020-06-30T13:35:40Z</time>
      </trkpt>
      <trkpt lat="43.10284" lon="0.26304">
        <ele>364.8</ele>
        <time>2020-06-30T13:35:41Z</time>
      </trkpt>
      <trkpt lat="43.10286" lon="0.26298">
        <ele>364.8</ele>
        <time>2020-06-30T13:35:42Z</time>
      </trkpt>
      <trkpt lat="43.10287" lon="0.26293">
        <ele>365</ele>
        <time>2020-06-30T13:35:43Z</time>
      </trkpt>
      <trkpt lat="43.10288" lon="0.26288">
        <ele>365</ele>
        <time>2020-06-30T13:35:44Z</time>
      </trkpt>
      <trkpt lat="43.1029" lon="0.26283">
        <ele>365.2</ele>
        <time>2020-06-30T13:35:45Z</time>
      </trkpt>
      <trkpt lat="43.10292" lon="0.26278">
        <ele>365.2</ele>
        <time>2020-06-30T13:35:46Z</time>
      </trkpt>
      <trkpt lat="43.10294" lon="0.26274">
        <ele>365.2</ele>
        <time>2020-06-30T13:35:47Z</time>
      </trkpt>
      <trkpt lat="43.10295" lon="0.26269">
        <ele>365.2</ele>
        <time>2020-06-30T13:35:48Z</time>
      </trkpt>
      <trkpt lat="43.10296" lon="0.26264">
        <ele>365.2</ele>
        <time>2020-06-30T13:35:49Z</time>
      </trkpt>
      <trkpt lat="43.10297" lon="0.26258">
        <ele>365.2</ele>
        <time>2020-06-30T13:35:50Z</time>
      </trkpt>
      <trkpt lat="43.10299" lon="0.26253">
        <ele>365.4</ele>
        <time>2020-06-30T13:35:51Z</time>
      </trkpt>
      <trkpt lat="43.103" lon="0.26247">
        <ele>365.2</ele>
        <time>2020-06-30T13:35:52Z</time>
      </trkpt>
      <trkpt lat="43.10302" lon="0.26241">
        <ele>365.2</ele>
        <time>2020-06-30T13:35:53Z</time>
      </trkpt>
      <trkpt lat="43.10303" lon="0.26235">
        <ele>365.2</ele>
        <time>2020-06-30T13:35:54Z</time>
      </trkpt>
      <trkpt lat="43.10304" lon="0.26229">
        <ele>365.2</ele>
        <time>2020-06-30T13:35:55Z</time>
      </trkpt>
      <trkpt lat="43.10305" lon="0.26224">
        <ele>365.2</ele>
        <time>2020-06-30T13:35:56Z</time>
      </trkpt>
      <trkpt lat="43.10306" lon="0.26218">
        <ele>365.2</ele>
        <time>2020-06-30T13:35:57Z</time>
      </trkpt>
      <trkpt lat="43.10308" lon="0.26212">
        <ele>365.2</ele>
        <time>2020-06-30T13:35:58Z</time>
      </trkpt>
      <trkpt lat="43.10309" lon="0.26206">
        <ele>365.2</ele>
        <time>2020-06-30T13:35:59Z</time>
      </trkpt>
      <trkpt lat="43.10311" lon="0.26198">
        <ele>365.2</ele>
        <time>2020-06-30T13:36:00Z</time>
      </trkpt>
      <trkpt lat="43.10312" lon="0.26192">
        <ele>365.2</ele>
        <time>2020-06-30T13:36:01Z</time>
      </trkpt>
      <trkpt lat="43.10314" lon="0.26186">
        <ele>365.2</ele>
        <time>2020-06-30T13:36:02Z</time>
      </trkpt>
      <trkpt lat="43.10314" lon="0.2618">
        <ele>365.4</ele>
        <time>2020-06-30T13:36:03Z</time>
      </trkpt>
      <trkpt lat="43.10314" lon="0.26174">
        <ele>365.4</ele>
        <time>2020-06-30T13:36:04Z</time>
      </trkpt>
      <trkpt lat="43.10314" lon="0.26168">
        <ele>365.6</ele>
        <time>2020-06-30T13:36:05Z</time>
      </trkpt>
      <trkpt lat="43.10314" lon="0.26162">
        <ele>365.6</ele>
        <time>2020-06-30T13:36:06Z</time>
      </trkpt>
      <trkpt lat="43.10313" lon="0.26156">
        <ele>365.8</ele>
        <time>2020-06-30T13:36:07Z</time>
      </trkpt>
      <trkpt lat="43.10312" lon="0.26151">
        <ele>366</ele>
        <time>2020-06-30T13:36:08Z</time>
      </trkpt>
      <trkpt lat="43.10311" lon="0.26147">
        <ele>366.4</ele>
        <time>2020-06-30T13:36:09Z</time>
      </trkpt>
      <trkpt lat="43.10309" lon="0.26143">
        <ele>366.6</ele>
        <time>2020-06-30T13:36:10Z</time>
      </trkpt>
      <trkpt lat="43.10308" lon="0.2614">
        <ele>367</ele>
        <time>2020-06-30T13:36:11Z</time>
      </trkpt>
      <trkpt lat="43.10307" lon="0.26138">
        <ele>367.2</ele>
        <time>2020-06-30T13:36:12Z</time>
      </trkpt>
      <trkpt lat="43.10306" lon="0.26136">
        <ele>367.6</ele>
        <time>2020-06-30T13:36:13Z</time>
      </trkpt>
      <trkpt lat="43.10306" lon="0.26133">
        <ele>367.8</ele>
        <time>2020-06-30T13:36:14Z</time>
      </trkpt>
      <trkpt lat="43.10305" lon="0.26132">
        <ele>368</ele>
        <time>2020-06-30T13:36:15Z</time>
      </trkpt>
      <trkpt lat="43.10304" lon="0.2613">
        <ele>368.2</ele>
        <time>2020-06-30T13:36:16Z</time>
      </trkpt>
      <trkpt lat="43.10304" lon="0.26127">
        <ele>368.6</ele>
        <time>2020-06-30T13:36:17Z</time>
      </trkpt>
      <trkpt lat="43.10304" lon="0.26124">
        <ele>368.8</ele>
        <time>2020-06-30T13:36:18Z</time>
      </trkpt>
      <trkpt lat="43.10304" lon="0.26123">
        <ele>369</ele>
        <time>2020-06-30T13:36:19Z</time>
      </trkpt>
      <trkpt lat="43.10305" lon="0.2612">
        <ele>369.2</ele>
        <time>2020-06-30T13:36:20Z</time>
      </trkpt>
      <trkpt lat="43.10305" lon="0.26118">
        <ele>369.4</ele>
        <time>2020-06-30T13:36:21Z</time>
      </trkpt>
      <trkpt lat="43.10306" lon="0.26115">
        <ele>369.6</ele>
        <time>2020-06-30T13:36:22Z</time>
      </trkpt>
      <trkpt lat="43.10306" lon="0.26112">
        <ele>369.6</ele>
        <time>2020-06-30T13:36:23Z</time>
      </trkpt>
      <trkpt lat="43.10306" lon="0.2611">
        <ele>369.8</ele>
        <time>2020-06-30T13:36:24Z</time>
      </trkpt>
      <trkpt lat="43.10306" lon="0.26107">
        <ele>370</ele>
        <time>2020-06-30T13:36:25Z</time>
      </trkpt>
      <trkpt lat="43.10306" lon="0.26104">
        <ele>370</ele>
        <time>2020-06-30T13:36:26Z</time>
      </trkpt>
      <trkpt lat="43.10306" lon="0.26102">
        <ele>370.2</ele>
        <time>2020-06-30T13:36:27Z</time>
      </trkpt>
      <trkpt lat="43.10307" lon="0.261">
        <ele>370.2</ele>
        <time>2020-06-30T13:36:28Z</time>
      </trkpt>
      <trkpt lat="43.10307" lon="0.26097">
        <ele>370.4</ele>
        <time>2020-06-30T13:36:29Z</time>
      </trkpt>
      <trkpt lat="43.10308" lon="0.26095">
        <ele>370.4</ele>
        <time>2020-06-30T13:36:30Z</time>
      </trkpt>
      <trkpt lat="43.10309" lon="0.26092">
        <ele>370.6</ele>
        <time>2020-06-30T13:36:31Z</time>
      </trkpt>
      <trkpt lat="43.10309" lon="0.26089">
        <ele>370.8</ele>
        <time>2020-06-30T13:36:32Z</time>
      </trkpt>
      <trkpt lat="43.10309" lon="0.26086">
        <ele>370.8</ele>
        <time>2020-06-30T13:36:33Z</time>
      </trkpt>
      <trkpt lat="43.10309" lon="0.26083">
        <ele>371</ele>
        <time>2020-06-30T13:36:34Z</time>
      </trkpt>
      <trkpt lat="43.10311" lon="0.26077">
        <ele>371</ele>
        <time>2020-06-30T13:36:35Z</time>
      </trkpt>
      <trkpt lat="43.10311" lon="0.26077">
        <ele>371</ele>
        <time>2020-06-30T13:36:36Z</time>
      </trkpt>
      <trkpt lat="43.10311" lon="0.26074">
        <ele>371.2</ele>
        <time>2020-06-30T13:36:37Z</time>
      </trkpt>
      <trkpt lat="43.10311" lon="0.26071">
        <ele>371.4</ele>
        <time>2020-06-30T13:36:38Z</time>
      </trkpt>
      <trkpt lat="43.10311" lon="0.26069">
        <ele>371.4</ele>
        <time>2020-06-30T13:36:39Z</time>
      </trkpt>
      <trkpt lat="43.10313" lon="0.26066">
        <ele>371.6</ele>
        <time>2020-06-30T13:36:40Z</time>
      </trkpt>
      <trkpt lat="43.10313" lon="0.26064">
        <ele>371.6</ele>
        <time>2020-06-30T13:36:41Z</time>
      </trkpt>
      <trkpt lat="43.10314" lon="0.26061">
        <ele>371.8</ele>
        <time>2020-06-30T13:36:42Z</time>
      </trkpt>
      <trkpt lat="43.10315" lon="0.26058">
        <ele>371.8</ele>
        <time>2020-06-30T13:36:43Z</time>
      </trkpt>
      <trkpt lat="43.10316" lon="0.26055">
        <ele>372</ele>
        <time>2020-06-30T13:36:44Z</time>
      </trkpt>
      <trkpt lat="43.10317" lon="0.26052">
        <ele>372</ele>
        <time>2020-06-30T13:36:45Z</time>
      </trkpt>
      <trkpt lat="43.10317" lon="0.26049">
        <ele>372.2</ele>
        <time>2020-06-30T13:36:46Z</time>
      </trkpt>
      <trkpt lat="43.10318" lon="0.26046">
        <ele>372.4</ele>
        <time>2020-06-30T13:36:47Z</time>
      </trkpt>
      <trkpt lat="43.10319" lon="0.2604">
        <ele>372.4</ele>
        <time>2020-06-30T13:36:48Z</time>
      </trkpt>
      <trkpt lat="43.10319" lon="0.2604">
        <ele>372.4</ele>
        <time>2020-06-30T13:36:49Z</time>
      </trkpt>
      <trkpt lat="43.1032" lon="0.26037">
        <ele>372.6</ele>
        <time>2020-06-30T13:36:50Z</time>
      </trkpt>
      <trkpt lat="43.10321" lon="0.26034">
        <ele>372.8</ele>
        <time>2020-06-30T13:36:51Z</time>
      </trkpt>
      <trkpt lat="43.10322" lon="0.26031">
        <ele>372.8</ele>
        <time>2020-06-30T13:36:52Z</time>
      </trkpt>
      <trkpt lat="43.10324" lon="0.26028">
        <ele>373</ele>
        <time>2020-06-30T13:36:53Z</time>
      </trkpt>
      <trkpt lat="43.10325" lon="0.26025">
        <ele>373.2</ele>
        <time>2020-06-30T13:36:54Z</time>
      </trkpt>
      <trkpt lat="43.10326" lon="0.26022">
        <ele>373.2</ele>
        <time>2020-06-30T13:36:55Z</time>
      </trkpt>
      <trkpt lat="43.10327" lon="0.2602">
        <ele>373.4</ele>
        <time>2020-06-30T13:36:56Z</time>
      </trkpt>
      <trkpt lat="43.10329" lon="0.26017">
        <ele>373.6</ele>
        <time>2020-06-30T13:36:57Z</time>
      </trkpt>
      <trkpt lat="43.10331" lon="0.26014">
        <ele>373.8</ele>
        <time>2020-06-30T13:36:58Z</time>
      </trkpt>
      <trkpt lat="43.10334" lon="0.26012">
        <ele>373.8</ele>
        <time>2020-06-30T13:36:59Z</time>
      </trkpt>
      <trkpt lat="43.10334" lon="0.2601">
        <ele>374</ele>
        <time>2020-06-30T13:37:00Z</time>
      </trkpt>
      <trkpt lat="43.10336" lon="0.26008">
        <ele>374</ele>
        <time>2020-06-30T13:37:01Z</time>
      </trkpt>
      <trkpt lat="43.10337" lon="0.26005">
        <ele>374.2</ele>
        <time>2020-06-30T13:37:02Z</time>
      </trkpt>
      <trkpt lat="43.10339" lon="0.26004">
        <ele>374.4</ele>
        <time>2020-06-30T13:37:03Z</time>
      </trkpt>
      <trkpt lat="43.10341" lon="0.26003">
        <ele>374.4</ele>
        <time>2020-06-30T13:37:04Z</time>
      </trkpt>
      <trkpt lat="43.10342" lon="0.26">
        <ele>374.6</ele>
        <time>2020-06-30T13:37:05Z</time>
      </trkpt>
      <trkpt lat="43.10343" lon="0.25998">
        <ele>374.8</ele>
        <time>2020-06-30T13:37:06Z</time>
      </trkpt>
      <trkpt lat="43.10345" lon="0.25996">
        <ele>374.8</ele>
        <time>2020-06-30T13:37:07Z</time>
      </trkpt>
      <trkpt lat="43.10346" lon="0.25995">
        <ele>375</ele>
        <time>2020-06-30T13:37:08Z</time>
      </trkpt>
      <trkpt lat="43.10347" lon="0.25994">
        <ele>375</ele>
        <time>2020-06-30T13:37:09Z</time>
      </trkpt>
      <trkpt lat="43.10348" lon="0.25992">
        <ele>375.2</ele>
        <time>2020-06-30T13:37:10Z</time>
      </trkpt>
      <trkpt lat="43.1035" lon="0.2599">
        <ele>375.4</ele>
        <time>2020-06-30T13:37:11Z</time>
      </trkpt>
      <trkpt lat="43.1035" lon="0.25988">
        <ele>375.4</ele>
        <time>2020-06-30T13:37:12Z</time>
      </trkpt>
      <trkpt lat="43.10351" lon="0.25985">
        <ele>375.6</ele>
        <time>2020-06-30T13:37:13Z</time>
      </trkpt>
      <trkpt lat="43.10352" lon="0.25983">
        <ele>375.6</ele>
        <time>2020-06-30T13:37:14Z</time>
      </trkpt>
      <trkpt lat="43.10355" lon="0.25983">
        <ele>375.6</ele>
        <time>2020-06-30T13:37:15Z</time>
      </trkpt>
      <trkpt lat="43.10356" lon="0.25981">
        <ele>375.8</ele>
        <time>2020-06-30T13:37:16Z</time>
      </trkpt>
      <trkpt lat="43.10357" lon="0.2598">
        <ele>376</ele>
        <time>2020-06-30T13:37:17Z</time>
      </trkpt>
      <trkpt lat="43.10358" lon="0.25979">
        <ele>376</ele>
        <time>2020-06-30T13:37:18Z</time>
      </trkpt>
      <trkpt lat="43.10358" lon="0.25977">
        <ele>376</ele>
        <time>2020-06-30T13:37:19Z</time>
      </trkpt>
      <trkpt lat="43.10359" lon="0.25976">
        <ele>376.2</ele>
        <time>2020-06-30T13:37:20Z</time>
      </trkpt>
      <trkpt lat="43.1036" lon="0.25973">
        <ele>376.2</ele>
        <time>2020-06-30T13:37:21Z</time>
      </trkpt>
      <trkpt lat="43.10361" lon="0.25972">
        <ele>376.4</ele>
        <time>2020-06-30T13:37:22Z</time>
      </trkpt>
      <trkpt lat="43.10362" lon="0.2597">
        <ele>376.4</ele>
        <time>2020-06-30T13:37:23Z</time>
      </trkpt>
      <trkpt lat="43.10366" lon="0.25966">
        <ele>376.6</ele>
        <time>2020-06-30T13:37:24Z</time>
      </trkpt>
      <trkpt lat="43.10366" lon="0.25964">
        <ele>376.8</ele>
        <time>2020-06-30T13:37:25Z</time>
      </trkpt>
      <trkpt lat="43.10366" lon="0.25964">
        <ele>376.8</ele>
        <time>2020-06-30T13:37:26Z</time>
      </trkpt>
      <trkpt lat="43.10368" lon="0.25963">
        <ele>377</ele>
        <time>2020-06-30T13:37:27Z</time>
      </trkpt>
      <trkpt lat="43.10369" lon="0.25961">
        <ele>377.2</ele>
        <time>2020-06-30T13:37:28Z</time>
      </trkpt>
      <trkpt lat="43.10371" lon="0.2596">
        <ele>377.2</ele>
        <time>2020-06-30T13:37:29Z</time>
      </trkpt>
      <trkpt lat="43.10373" lon="0.25958">
        <ele>377.4</ele>
        <time>2020-06-30T13:37:30Z</time>
      </trkpt>
      <trkpt lat="43.10375" lon="0.25956">
        <ele>377.6</ele>
        <time>2020-06-30T13:37:31Z</time>
      </trkpt>
      <trkpt lat="43.10376" lon="0.25954">
        <ele>377.6</ele>
        <time>2020-06-30T13:37:32Z</time>
      </trkpt>
      <trkpt lat="43.10377" lon="0.25952">
        <ele>377.8</ele>
        <time>2020-06-30T13:37:33Z</time>
      </trkpt>
      <trkpt lat="43.10379" lon="0.2595">
        <ele>378</ele>
        <time>2020-06-30T13:37:34Z</time>
      </trkpt>
      <trkpt lat="43.10381" lon="0.25949">
        <ele>378</ele>
        <time>2020-06-30T13:37:35Z</time>
      </trkpt>
      <trkpt lat="43.10384" lon="0.25946">
        <ele>378.2</ele>
        <time>2020-06-30T13:37:36Z</time>
      </trkpt>
      <trkpt lat="43.10384" lon="0.25946">
        <ele>378.4</ele>
        <time>2020-06-30T13:37:37Z</time>
      </trkpt>
      <trkpt lat="43.10385" lon="0.25945">
        <ele>378.4</ele>
        <time>2020-06-30T13:37:38Z</time>
      </trkpt>
      <trkpt lat="43.10389" lon="0.25942">
        <ele>378.6</ele>
        <time>2020-06-30T13:37:39Z</time>
      </trkpt>
      <trkpt lat="43.10389" lon="0.25942">
        <ele>378.6</ele>
        <time>2020-06-30T13:37:40Z</time>
      </trkpt>
      <trkpt lat="43.10391" lon="0.2594">
        <ele>378.8</ele>
        <time>2020-06-30T13:37:41Z</time>
      </trkpt>
      <trkpt lat="43.10392" lon="0.25939">
        <ele>378.8</ele>
        <time>2020-06-30T13:37:42Z</time>
      </trkpt>
      <trkpt lat="43.10396" lon="0.25936">
        <ele>379</ele>
        <time>2020-06-30T13:37:43Z</time>
      </trkpt>
      <trkpt lat="43.10397" lon="0.25935">
        <ele>379.2</ele>
        <time>2020-06-30T13:37:44Z</time>
      </trkpt>
      <trkpt lat="43.10398" lon="0.25933">
        <ele>379.2</ele>
        <time>2020-06-30T13:37:45Z</time>
      </trkpt>
      <trkpt lat="43.10398" lon="0.25933">
        <ele>379.4</ele>
        <time>2020-06-30T13:37:46Z</time>
      </trkpt>
      <trkpt lat="43.104" lon="0.2593">
        <ele>379.4</ele>
        <time>2020-06-30T13:37:47Z</time>
      </trkpt>
      <trkpt lat="43.104" lon="0.2593">
        <ele>379.6</ele>
        <time>2020-06-30T13:37:48Z</time>
      </trkpt>
      <trkpt lat="43.10402" lon="0.25928">
        <ele>379.6</ele>
        <time>2020-06-30T13:37:49Z</time>
      </trkpt>
      <trkpt lat="43.10405" lon="0.25924">
        <ele>379.6</ele>
        <time>2020-06-30T13:37:50Z</time>
      </trkpt>
      <trkpt lat="43.10406" lon="0.25922">
        <ele>379.8</ele>
        <time>2020-06-30T13:37:51Z</time>
      </trkpt>
      <trkpt lat="43.10408" lon="0.25921">
        <ele>379.8</ele>
        <time>2020-06-30T13:37:52Z</time>
      </trkpt>
      <trkpt lat="43.10408" lon="0.25921">
        <ele>380</ele>
        <time>2020-06-30T13:37:53Z</time>
      </trkpt>
      <trkpt lat="43.10409" lon="0.2592">
        <ele>380</ele>
        <time>2020-06-30T13:37:54Z</time>
      </trkpt>
      <trkpt lat="43.10412" lon="0.25917">
        <ele>380.2</ele>
        <time>2020-06-30T13:37:55Z</time>
      </trkpt>
      <trkpt lat="43.10414" lon="0.25916">
        <ele>380.2</ele>
        <time>2020-06-30T13:37:56Z</time>
      </trkpt>
      <trkpt lat="43.10414" lon="0.25916">
        <ele>380.4</ele>
        <time>2020-06-30T13:37:57Z</time>
      </trkpt>
      <trkpt lat="43.10417" lon="0.25913">
        <ele>380.4</ele>
        <time>2020-06-30T13:37:58Z</time>
      </trkpt>
      <trkpt lat="43.10419" lon="0.25912">
        <ele>380.6</ele>
        <time>2020-06-30T13:37:59Z</time>
      </trkpt>
      <trkpt lat="43.10419" lon="0.25912">
        <ele>380.8</ele>
        <time>2020-06-30T13:38:00Z</time>
      </trkpt>
      <trkpt lat="43.10421" lon="0.25911">
        <ele>380.8</ele>
        <time>2020-06-30T13:38:01Z</time>
      </trkpt>
      <trkpt lat="43.10423" lon="0.25909">
        <ele>381</ele>
        <time>2020-06-30T13:38:02Z</time>
      </trkpt>
      <trkpt lat="43.10424" lon="0.25908">
        <ele>381</ele>
        <time>2020-06-30T13:38:03Z</time>
      </trkpt>
      <trkpt lat="43.10426" lon="0.25907">
        <ele>381.2</ele>
        <time>2020-06-30T13:38:04Z</time>
      </trkpt>
      <trkpt lat="43.10427" lon="0.25905">
        <ele>381.4</ele>
        <time>2020-06-30T13:38:05Z</time>
      </trkpt>
      <trkpt lat="43.10429" lon="0.25902">
        <ele>381.4</ele>
        <time>2020-06-30T13:38:06Z</time>
      </trkpt>
      <trkpt lat="43.10429" lon="0.25902">
        <ele>381.6</ele>
        <time>2020-06-30T13:38:07Z</time>
      </trkpt>
      <trkpt lat="43.10431" lon="0.25901">
        <ele>381.8</ele>
        <time>2020-06-30T13:38:08Z</time>
      </trkpt>
      <trkpt lat="43.10433" lon="0.25899">
        <ele>382</ele>
        <time>2020-06-30T13:38:09Z</time>
      </trkpt>
      <trkpt lat="43.10435" lon="0.25898">
        <ele>382.2</ele>
        <time>2020-06-30T13:38:10Z</time>
      </trkpt>
      <trkpt lat="43.10436" lon="0.25898">
        <ele>382.2</ele>
        <time>2020-06-30T13:38:11Z</time>
      </trkpt>
      <trkpt lat="43.10436" lon="0.25895">
        <ele>382.4</ele>
        <time>2020-06-30T13:38:12Z</time>
      </trkpt>
      <trkpt lat="43.10436" lon="0.25895">
        <ele>382.6</ele>
        <time>2020-06-30T13:38:13Z</time>
      </trkpt>
      <trkpt lat="43.10438" lon="0.25894">
        <ele>382.6</ele>
        <time>2020-06-30T13:38:14Z</time>
      </trkpt>
      <trkpt lat="43.1044" lon="0.25893">
        <ele>382.8</ele>
        <time>2020-06-30T13:38:15Z</time>
      </trkpt>
      <trkpt lat="43.10441" lon="0.25892">
        <ele>383</ele>
        <time>2020-06-30T13:38:16Z</time>
      </trkpt>
      <trkpt lat="43.10443" lon="0.2589">
        <ele>383</ele>
        <time>2020-06-30T13:38:17Z</time>
      </trkpt>
      <trkpt lat="43.10445" lon="0.25888">
        <ele>383.2</ele>
        <time>2020-06-30T13:38:18Z</time>
      </trkpt>
      <trkpt lat="43.10446" lon="0.25888">
        <ele>383.4</ele>
        <time>2020-06-30T13:38:19Z</time>
      </trkpt>
      <trkpt lat="43.10447" lon="0.25886">
        <ele>383.4</ele>
        <time>2020-06-30T13:38:20Z</time>
      </trkpt>
      <trkpt lat="43.10447" lon="0.25886">
        <ele>383.4</ele>
        <time>2020-06-30T13:38:21Z</time>
      </trkpt>
      <trkpt lat="43.10447" lon="0.25885">
        <ele>383.4</ele>
        <time>2020-06-30T13:38:22Z</time>
      </trkpt>
      <trkpt lat="43.10447" lon="0.25885">
        <ele>383.4</ele>
        <time>2020-06-30T13:38:23Z</time>
      </trkpt>
      <trkpt lat="43.10448" lon="0.25883">
        <ele>383.4</ele>
        <time>2020-06-30T13:38:24Z</time>
      </trkpt>
      <trkpt lat="43.10448" lon="0.25883">
        <ele>383.6</ele>
        <time>2020-06-30T13:38:25Z</time>
      </trkpt>
      <trkpt lat="43.10448" lon="0.25883">
        <ele>383.6</ele>
        <time>2020-06-30T13:38:26Z</time>
      </trkpt>
      <trkpt lat="43.10448" lon="0.25882">
        <ele>383.6</ele>
        <time>2020-06-30T13:38:27Z</time>
      </trkpt>
      <trkpt lat="43.10448" lon="0.25882">
        <ele>383.4</ele>
        <time>2020-06-30T13:38:28Z</time>
      </trkpt>
      <trkpt lat="43.10448" lon="0.25882">
        <ele>383.6</ele>
        <time>2020-06-30T13:38:29Z</time>
      </trkpt>
      <trkpt lat="43.1045" lon="0.25882">
        <ele>383.6</ele>
        <time>2020-06-30T13:38:30Z</time>
      </trkpt>
      <trkpt lat="43.10449" lon="0.25881">
        <ele>383.6</ele>
        <time>2020-06-30T13:38:31Z</time>
      </trkpt>
      <trkpt lat="43.1045" lon="0.25881">
        <ele>383.6</ele>
        <time>2020-06-30T13:38:41Z</time>
      </trkpt>
      <trkpt lat="43.1045" lon="0.25879">
        <ele>383.6</ele>
        <time>2020-06-30T13:38:42Z</time>
      </trkpt>
      <trkpt lat="43.1045" lon="0.25879">
        <ele>383.6</ele>
        <time>2020-06-30T13:38:43Z</time>
      </trkpt>
      <trkpt lat="43.10451" lon="0.25879">
        <ele>383.6</ele>
        <time>2020-06-30T13:38:44Z</time>
      </trkpt>
      <trkpt lat="43.10451" lon="0.25878">
        <ele>383.6</ele>
        <time>2020-06-30T13:38:45Z</time>
      </trkpt>
      <trkpt lat="43.10451" lon="0.25878">
        <ele>383.6</ele>
        <time>2020-06-30T13:38:46Z</time>
      </trkpt>
      <trkpt lat="43.1045" lon="0.25878">
        <ele>383.6</ele>
        <time>2020-06-30T13:38:47Z</time>
      </trkpt>
      <trkpt lat="43.10451" lon="0.25877">
        <ele>383.8</ele>
        <time>2020-06-30T13:38:48Z</time>
      </trkpt>
      <trkpt lat="43.10451" lon="0.25877">
        <ele>383.8</ele>
        <time>2020-06-30T13:38:49Z</time>
      </trkpt>
      <trkpt lat="43.10451" lon="0.25877">
        <ele>383.8</ele>
        <time>2020-06-30T13:38:50Z</time>
      </trkpt>
      <trkpt lat="43.10451" lon="0.25876">
        <ele>383.6</ele>
        <time>2020-06-30T13:38:51Z</time>
      </trkpt>
      <trkpt lat="43.1045" lon="0.25877">
        <ele>383.8</ele>
        <time>2020-06-30T13:38:52Z</time>
      </trkpt>
      <trkpt lat="43.10451" lon="0.25878">
        <ele>383.8</ele>
        <time>2020-06-30T13:38:57Z</time>
      </trkpt>
      <trkpt lat="43.10452" lon="0.25878">
        <ele>383.8</ele>
        <time>2020-06-30T13:38:58Z</time>
      </trkpt>
      <trkpt lat="43.10454" lon="0.25877">
        <ele>383.8</ele>
        <time>2020-06-30T13:38:59Z</time>
      </trkpt>
      <trkpt lat="43.10454" lon="0.25877">
        <ele>383.8</ele>
        <time>2020-06-30T13:39:00Z</time>
      </trkpt>
      <trkpt lat="43.10454" lon="0.25876">
        <ele>384</ele>
        <time>2020-06-30T13:39:01Z</time>
      </trkpt>
      <trkpt lat="43.10454" lon="0.25876">
        <ele>384</ele>
        <time>2020-06-30T13:39:02Z</time>
      </trkpt>
      <trkpt lat="43.10454" lon="0.25875">
        <ele>384</ele>
        <time>2020-06-30T13:39:03Z</time>
      </trkpt>
      <trkpt lat="43.10454" lon="0.25875">
        <ele>384</ele>
        <time>2020-06-30T13:39:04Z</time>
      </trkpt>
      <trkpt lat="43.10453" lon="0.25875">
        <ele>384</ele>
        <time>2020-06-30T13:39:05Z</time>
      </trkpt>
      <trkpt lat="43.10454" lon="0.25874">
        <ele>384</ele>
        <time>2020-06-30T13:39:06Z</time>
      </trkpt>
      <trkpt lat="43.10455" lon="0.25874">
        <ele>384.2</ele>
        <time>2020-06-30T13:39:07Z</time>
      </trkpt>
      <trkpt lat="43.10454" lon="0.25873">
        <ele>384</ele>
        <time>2020-06-30T13:39:08Z</time>
      </trkpt>
      <trkpt lat="43.10455" lon="0.25873">
        <ele>384.2</ele>
        <time>2020-06-30T13:39:09Z</time>
      </trkpt>
      <trkpt lat="43.10455" lon="0.25873">
        <ele>384.2</ele>
        <time>2020-06-30T13:39:10Z</time>
      </trkpt>
      <trkpt lat="43.1046" lon="0.25871">
        <ele>384.4</ele>
        <time>2020-06-30T13:39:11Z</time>
      </trkpt>
      <trkpt lat="43.1046" lon="0.25869">
        <ele>384.4</ele>
        <time>2020-06-30T13:39:12Z</time>
      </trkpt>
      <trkpt lat="43.1046" lon="0.25868">
        <ele>384.6</ele>
        <time>2020-06-30T13:39:13Z</time>
      </trkpt>
      <trkpt lat="43.10461" lon="0.25867">
        <ele>384.6</ele>
        <time>2020-06-30T13:39:14Z</time>
      </trkpt>
      <trkpt lat="43.10462" lon="0.25865">
        <ele>384.8</ele>
        <time>2020-06-30T13:39:15Z</time>
      </trkpt>
      <trkpt lat="43.10463" lon="0.25863">
        <ele>385</ele>
        <time>2020-06-30T13:39:16Z</time>
      </trkpt>
      <trkpt lat="43.10465" lon="0.25862">
        <ele>385</ele>
        <time>2020-06-30T13:39:17Z</time>
      </trkpt>
      <trkpt lat="43.10466" lon="0.25861">
        <ele>385.2</ele>
        <time>2020-06-30T13:39:18Z</time>
      </trkpt>
      <trkpt lat="43.10467" lon="0.2586">
        <ele>385.2</ele>
        <time>2020-06-30T13:39:19Z</time>
      </trkpt>
      <trkpt lat="43.10467" lon="0.2586">
        <ele>385.4</ele>
        <time>2020-06-30T13:39:20Z</time>
      </trkpt>
      <trkpt lat="43.10468" lon="0.25858">
        <ele>385.6</ele>
        <time>2020-06-30T13:39:21Z</time>
      </trkpt>
      <trkpt lat="43.1047" lon="0.25858">
        <ele>385.6</ele>
        <time>2020-06-30T13:39:22Z</time>
      </trkpt>
      <trkpt lat="43.10471" lon="0.25857">
        <ele>385.8</ele>
        <time>2020-06-30T13:39:23Z</time>
      </trkpt>
      <trkpt lat="43.10472" lon="0.25856">
        <ele>386</ele>
        <time>2020-06-30T13:39:24Z</time>
      </trkpt>
      <trkpt lat="43.10472" lon="0.25855">
        <ele>386</ele>
        <time>2020-06-30T13:39:25Z</time>
      </trkpt>
      <trkpt lat="43.10474" lon="0.25854">
        <ele>386.2</ele>
        <time>2020-06-30T13:39:26Z</time>
      </trkpt>
      <trkpt lat="43.10475" lon="0.25853">
        <ele>386.4</ele>
        <time>2020-06-30T13:39:27Z</time>
      </trkpt>
      <trkpt lat="43.10476" lon="0.25852">
        <ele>386.6</ele>
        <time>2020-06-30T13:39:28Z</time>
      </trkpt>
      <trkpt lat="43.10477" lon="0.25851">
        <ele>386.8</ele>
        <time>2020-06-30T13:39:29Z</time>
      </trkpt>
      <trkpt lat="43.10477" lon="0.2585">
        <ele>387</ele>
        <time>2020-06-30T13:39:30Z</time>
      </trkpt>
      <trkpt lat="43.10477" lon="0.25848">
        <ele>387.2</ele>
        <time>2020-06-30T13:39:31Z</time>
      </trkpt>
      <trkpt lat="43.10479" lon="0.25847">
        <ele>387.4</ele>
        <time>2020-06-30T13:39:32Z</time>
      </trkpt>
      <trkpt lat="43.1048" lon="0.25846">
        <ele>387.4</ele>
        <time>2020-06-30T13:39:33Z</time>
      </trkpt>
      <trkpt lat="43.10481" lon="0.25846">
        <ele>387.6</ele>
        <time>2020-06-30T13:39:34Z</time>
      </trkpt>
      <trkpt lat="43.10482" lon="0.25845">
        <ele>387.8</ele>
        <time>2020-06-30T13:39:35Z</time>
      </trkpt>
      <trkpt lat="43.10482" lon="0.25845">
        <ele>388</ele>
        <time>2020-06-30T13:39:36Z</time>
      </trkpt>
      <trkpt lat="43.10486" lon="0.25844">
        <ele>388.2</ele>
        <time>2020-06-30T13:39:37Z</time>
      </trkpt>
      <trkpt lat="43.10487" lon="0.25843">
        <ele>388.4</ele>
        <time>2020-06-30T13:39:38Z</time>
      </trkpt>
      <trkpt lat="43.10488" lon="0.25842">
        <ele>388.6</ele>
        <time>2020-06-30T13:39:39Z</time>
      </trkpt>
      <trkpt lat="43.10489" lon="0.25841">
        <ele>388.8</ele>
        <time>2020-06-30T13:39:40Z</time>
      </trkpt>
      <trkpt lat="43.1049" lon="0.2584">
        <ele>389</ele>
        <time>2020-06-30T13:39:41Z</time>
      </trkpt>
      <trkpt lat="43.10491" lon="0.2584">
        <ele>389.2</ele>
        <time>2020-06-30T13:39:42Z</time>
      </trkpt>
      <trkpt lat="43.10491" lon="0.25838">
        <ele>389.4</ele>
        <time>2020-06-30T13:39:43Z</time>
      </trkpt>
      <trkpt lat="43.10492" lon="0.25837">
        <ele>389.6</ele>
        <time>2020-06-30T13:39:44Z</time>
      </trkpt>
      <trkpt lat="43.10494" lon="0.25836">
        <ele>389.8</ele>
        <time>2020-06-30T13:39:45Z</time>
      </trkpt>
      <trkpt lat="43.10495" lon="0.25835">
        <ele>390</ele>
        <time>2020-06-30T13:39:46Z</time>
      </trkpt>
      <trkpt lat="43.10496" lon="0.25834">
        <ele>390.2</ele>
        <time>2020-06-30T13:39:47Z</time>
      </trkpt>
      <trkpt lat="43.10496" lon="0.25833">
        <ele>390.4</ele>
        <time>2020-06-30T13:39:48Z</time>
      </trkpt>
      <trkpt lat="43.10496" lon="0.25833">
        <ele>390.6</ele>
        <time>2020-06-30T13:39:49Z</time>
      </trkpt>
      <trkpt lat="43.10497" lon="0.25832">
        <ele>390.6</ele>
        <time>2020-06-30T13:39:50Z</time>
      </trkpt>
      <trkpt lat="43.10497" lon="0.25831">
        <ele>390.8</ele>
        <time>2020-06-30T13:39:51Z</time>
      </trkpt>
      <trkpt lat="43.10498" lon="0.2583">
        <ele>391</ele>
        <time>2020-06-30T13:39:52Z</time>
      </trkpt>
      <trkpt lat="43.10499" lon="0.25829">
        <ele>391.2</ele>
        <time>2020-06-30T13:39:53Z</time>
      </trkpt>
      <trkpt lat="43.105" lon="0.25828">
        <ele>391.4</ele>
        <time>2020-06-30T13:39:54Z</time>
      </trkpt>
      <trkpt lat="43.10501" lon="0.25827">
        <ele>391.6</ele>
        <time>2020-06-30T13:39:55Z</time>
      </trkpt>
      <trkpt lat="43.10501" lon="0.25827">
        <ele>391.8</ele>
        <time>2020-06-30T13:39:56Z</time>
      </trkpt>
      <trkpt lat="43.10503" lon="0.25826">
        <ele>392</ele>
        <time>2020-06-30T13:39:57Z</time>
      </trkpt>
      <trkpt lat="43.10504" lon="0.25825">
        <ele>392.2</ele>
        <time>2020-06-30T13:39:58Z</time>
      </trkpt>
      <trkpt lat="43.10505" lon="0.25825">
        <ele>392.2</ele>
        <time>2020-06-30T13:39:59Z</time>
      </trkpt>
      <trkpt lat="43.10506" lon="0.25824">
        <ele>392.6</ele>
        <time>2020-06-30T13:40:00Z</time>
      </trkpt>
      <trkpt lat="43.10508" lon="0.25824">
        <ele>392.6</ele>
        <time>2020-06-30T13:40:01Z</time>
      </trkpt>
      <trkpt lat="43.10509" lon="0.25823">
        <ele>392.8</ele>
        <time>2020-06-30T13:40:02Z</time>
      </trkpt>
      <trkpt lat="43.10509" lon="0.25823">
        <ele>393</ele>
        <time>2020-06-30T13:40:03Z</time>
      </trkpt>
      <trkpt lat="43.1051" lon="0.25822">
        <ele>393.2</ele>
        <time>2020-06-30T13:40:04Z</time>
      </trkpt>
      <trkpt lat="43.10512" lon="0.25822">
        <ele>393.4</ele>
        <time>2020-06-30T13:40:05Z</time>
      </trkpt>
      <trkpt lat="43.10513" lon="0.25821">
        <ele>393.6</ele>
        <time>2020-06-30T13:40:06Z</time>
      </trkpt>
      <trkpt lat="43.10514" lon="0.2582">
        <ele>393.8</ele>
        <time>2020-06-30T13:40:07Z</time>
      </trkpt>
      <trkpt lat="43.10515" lon="0.25818">
        <ele>394</ele>
        <time>2020-06-30T13:40:08Z</time>
      </trkpt>
      <trkpt lat="43.10516" lon="0.25817">
        <ele>394.2</ele>
        <time>2020-06-30T13:40:09Z</time>
      </trkpt>
      <trkpt lat="43.10518" lon="0.25816">
        <ele>394.4</ele>
        <time>2020-06-30T13:40:10Z</time>
      </trkpt>
      <trkpt lat="43.10518" lon="0.25814">
        <ele>394.6</ele>
        <time>2020-06-30T13:40:11Z</time>
      </trkpt>
      <trkpt lat="43.10518" lon="0.25814">
        <ele>394.8</ele>
        <time>2020-06-30T13:40:12Z</time>
      </trkpt>
      <trkpt lat="43.10518" lon="0.25813">
        <ele>394.8</ele>
        <time>2020-06-30T13:40:13Z</time>
      </trkpt>
      <trkpt lat="43.10519" lon="0.25812">
        <ele>395</ele>
        <time>2020-06-30T13:40:14Z</time>
      </trkpt>
      <trkpt lat="43.10519" lon="0.25812">
        <ele>395.2</ele>
        <time>2020-06-30T13:40:15Z</time>
      </trkpt>
      <trkpt lat="43.10521" lon="0.25811">
        <ele>395.4</ele>
        <time>2020-06-30T13:40:16Z</time>
      </trkpt>
      <trkpt lat="43.10522" lon="0.2581">
        <ele>395.6</ele>
        <time>2020-06-30T13:40:17Z</time>
      </trkpt>
      <trkpt lat="43.10523" lon="0.25809">
        <ele>395.8</ele>
        <time>2020-06-30T13:40:18Z</time>
      </trkpt>
      <trkpt lat="43.10523" lon="0.25809">
        <ele>396</ele>
        <time>2020-06-30T13:40:19Z</time>
      </trkpt>
      <trkpt lat="43.10525" lon="0.25806">
        <ele>396.2</ele>
        <time>2020-06-30T13:40:20Z</time>
      </trkpt>
      <trkpt lat="43.10525" lon="0.25805">
        <ele>396.2</ele>
        <time>2020-06-30T13:40:21Z</time>
      </trkpt>
      <trkpt lat="43.10526" lon="0.25804">
        <ele>396.4</ele>
        <time>2020-06-30T13:40:22Z</time>
      </trkpt>
      <trkpt lat="43.10527" lon="0.25802">
        <ele>396.6</ele>
        <time>2020-06-30T13:40:23Z</time>
      </trkpt>
      <trkpt lat="43.10528" lon="0.25802">
        <ele>396.8</ele>
        <time>2020-06-30T13:40:24Z</time>
      </trkpt>
      <trkpt lat="43.10528" lon="0.25801">
        <ele>397</ele>
        <time>2020-06-30T13:40:25Z</time>
      </trkpt>
      <trkpt lat="43.10529" lon="0.258">
        <ele>397.2</ele>
        <time>2020-06-30T13:40:26Z</time>
      </trkpt>
      <trkpt lat="43.10529" lon="0.258">
        <ele>397.2</ele>
        <time>2020-06-30T13:40:27Z</time>
      </trkpt>
      <trkpt lat="43.1053" lon="0.25799">
        <ele>397.4</ele>
        <time>2020-06-30T13:40:28Z</time>
      </trkpt>
      <trkpt lat="43.10531" lon="0.25797">
        <ele>397.6</ele>
        <time>2020-06-30T13:40:29Z</time>
      </trkpt>
      <trkpt lat="43.10531" lon="0.25796">
        <ele>397.8</ele>
        <time>2020-06-30T13:40:30Z</time>
      </trkpt>
      <trkpt lat="43.10532" lon="0.25794">
        <ele>398</ele>
        <time>2020-06-30T13:40:31Z</time>
      </trkpt>
      <trkpt lat="43.10533" lon="0.25794">
        <ele>398.2</ele>
        <time>2020-06-30T13:40:32Z</time>
      </trkpt>
      <trkpt lat="43.10534" lon="0.25794">
        <ele>398.2</ele>
        <time>2020-06-30T13:40:33Z</time>
      </trkpt>
      <trkpt lat="43.10535" lon="0.25793">
        <ele>398.4</ele>
        <time>2020-06-30T13:40:34Z</time>
      </trkpt>
      <trkpt lat="43.10537" lon="0.25792">
        <ele>398.6</ele>
        <time>2020-06-30T13:40:35Z</time>
      </trkpt>
      <trkpt lat="43.10537" lon="0.25791">
        <ele>398.6</ele>
        <time>2020-06-30T13:40:36Z</time>
      </trkpt>
      <trkpt lat="43.10538" lon="0.2579">
        <ele>398.8</ele>
        <time>2020-06-30T13:40:37Z</time>
      </trkpt>
      <trkpt lat="43.10539" lon="0.2579">
        <ele>399</ele>
        <time>2020-06-30T13:40:38Z</time>
      </trkpt>
      <trkpt lat="43.10539" lon="0.25789">
        <ele>399.2</ele>
        <time>2020-06-30T13:40:39Z</time>
      </trkpt>
      <trkpt lat="43.1054" lon="0.25786">
        <ele>399.2</ele>
        <time>2020-06-30T13:40:40Z</time>
      </trkpt>
      <trkpt lat="43.10539" lon="0.25785">
        <ele>399.2</ele>
        <time>2020-06-30T13:40:41Z</time>
      </trkpt>
      <trkpt lat="43.10539" lon="0.25785">
        <ele>399.4</ele>
        <time>2020-06-30T13:40:42Z</time>
      </trkpt>
      <trkpt lat="43.10539" lon="0.2578">
        <ele>399.6</ele>
        <time>2020-06-30T13:40:43Z</time>
      </trkpt>
      <trkpt lat="43.10539" lon="0.25779">
        <ele>399.6</ele>
        <time>2020-06-30T13:40:44Z</time>
      </trkpt>
      <trkpt lat="43.10539" lon="0.25778">
        <ele>399.8</ele>
        <time>2020-06-30T13:40:45Z</time>
      </trkpt>
      <trkpt lat="43.10538" lon="0.25776">
        <ele>399.8</ele>
        <time>2020-06-30T13:40:46Z</time>
      </trkpt>
      <trkpt lat="43.10538" lon="0.25774">
        <ele>400</ele>
        <time>2020-06-30T13:40:47Z</time>
      </trkpt>
      <trkpt lat="43.10538" lon="0.25773">
        <ele>400</ele>
        <time>2020-06-30T13:40:48Z</time>
      </trkpt>
      <trkpt lat="43.10537" lon="0.25771">
        <ele>400</ele>
        <time>2020-06-30T13:40:49Z</time>
      </trkpt>
      <trkpt lat="43.10537" lon="0.25768">
        <ele>400</ele>
        <time>2020-06-30T13:40:50Z</time>
      </trkpt>
      <trkpt lat="43.10536" lon="0.25766">
        <ele>400.2</ele>
        <time>2020-06-30T13:40:51Z</time>
      </trkpt>
      <trkpt lat="43.10536" lon="0.25765">
        <ele>400.2</ele>
        <time>2020-06-30T13:40:52Z</time>
      </trkpt>
      <trkpt lat="43.10536" lon="0.25763">
        <ele>400.2</ele>
        <time>2020-06-30T13:40:53Z</time>
      </trkpt>
      <trkpt lat="43.10535" lon="0.25761">
        <ele>400.4</ele>
        <time>2020-06-30T13:40:54Z</time>
      </trkpt>
      <trkpt lat="43.10534" lon="0.2576">
        <ele>400.4</ele>
        <time>2020-06-30T13:40:55Z</time>
      </trkpt>
      <trkpt lat="43.10534" lon="0.25759">
        <ele>400.4</ele>
        <time>2020-06-30T13:40:56Z</time>
      </trkpt>
      <trkpt lat="43.10533" lon="0.25757">
        <ele>400.4</ele>
        <time>2020-06-30T13:40:57Z</time>
      </trkpt>
      <trkpt lat="43.10532" lon="0.25754">
        <ele>400.4</ele>
        <time>2020-06-30T13:40:58Z</time>
      </trkpt>
      <trkpt lat="43.10531" lon="0.25752">
        <ele>400.6</ele>
        <time>2020-06-30T13:40:59Z</time>
      </trkpt>
      <trkpt lat="43.10529" lon="0.25749">
        <ele>400.6</ele>
        <time>2020-06-30T13:41:00Z</time>
      </trkpt>
      <trkpt lat="43.10528" lon="0.25748">
        <ele>400.6</ele>
        <time>2020-06-30T13:41:01Z</time>
      </trkpt>
      <trkpt lat="43.10526" lon="0.25746">
        <ele>400.6</ele>
        <time>2020-06-30T13:41:02Z</time>
      </trkpt>
      <trkpt lat="43.10525" lon="0.25744">
        <ele>400.8</ele>
        <time>2020-06-30T13:41:03Z</time>
      </trkpt>
      <trkpt lat="43.10523" lon="0.25743">
        <ele>400.8</ele>
        <time>2020-06-30T13:41:04Z</time>
      </trkpt>
      <trkpt lat="43.10521" lon="0.25742">
        <ele>401</ele>
        <time>2020-06-30T13:41:05Z</time>
      </trkpt>
      <trkpt lat="43.10519" lon="0.25741">
        <ele>401.2</ele>
        <time>2020-06-30T13:41:06Z</time>
      </trkpt>
      <trkpt lat="43.10517" lon="0.2574">
        <ele>401.2</ele>
        <time>2020-06-30T13:41:07Z</time>
      </trkpt>
      <trkpt lat="43.10516" lon="0.25738">
        <ele>401.4</ele>
        <time>2020-06-30T13:41:08Z</time>
      </trkpt>
      <trkpt lat="43.10514" lon="0.25737">
        <ele>401.6</ele>
        <time>2020-06-30T13:41:09Z</time>
      </trkpt>
      <trkpt lat="43.10513" lon="0.25736">
        <ele>401.6</ele>
        <time>2020-06-30T13:41:10Z</time>
      </trkpt>
      <trkpt lat="43.10512" lon="0.25735">
        <ele>401.8</ele>
        <time>2020-06-30T13:41:11Z</time>
      </trkpt>
      <trkpt lat="43.10511" lon="0.25734">
        <ele>402</ele>
        <time>2020-06-30T13:41:12Z</time>
      </trkpt>
      <trkpt lat="43.10511" lon="0.25732">
        <ele>402</ele>
        <time>2020-06-30T13:41:13Z</time>
      </trkpt>
      <trkpt lat="43.10511" lon="0.25729">
        <ele>402.2</ele>
        <time>2020-06-30T13:41:14Z</time>
      </trkpt>
      <trkpt lat="43.10511" lon="0.25727">
        <ele>402.4</ele>
        <time>2020-06-30T13:41:15Z</time>
      </trkpt>
      <trkpt lat="43.1051" lon="0.25725">
        <ele>402.6</ele>
        <time>2020-06-30T13:41:16Z</time>
      </trkpt>
      <trkpt lat="43.1051" lon="0.25723">
        <ele>402.6</ele>
        <time>2020-06-30T13:41:17Z</time>
      </trkpt>
      <trkpt lat="43.10508" lon="0.25721">
        <ele>402.8</ele>
        <time>2020-06-30T13:41:18Z</time>
      </trkpt>
      <trkpt lat="43.10507" lon="0.25719">
        <ele>403</ele>
        <time>2020-06-30T13:41:19Z</time>
      </trkpt>
      <trkpt lat="43.10508" lon="0.25716">
        <ele>403</ele>
        <time>2020-06-30T13:41:20Z</time>
      </trkpt>
      <trkpt lat="43.10507" lon="0.25713">
        <ele>403.2</ele>
        <time>2020-06-30T13:41:21Z</time>
      </trkpt>
      <trkpt lat="43.10507" lon="0.25712">
        <ele>403.2</ele>
        <time>2020-06-30T13:41:22Z</time>
      </trkpt>
      <trkpt lat="43.10505" lon="0.2571">
        <ele>403.4</ele>
        <time>2020-06-30T13:41:23Z</time>
      </trkpt>
      <trkpt lat="43.10506" lon="0.25707">
        <ele>403.4</ele>
        <time>2020-06-30T13:41:24Z</time>
      </trkpt>
      <trkpt lat="43.10506" lon="0.25704">
        <ele>403.6</ele>
        <time>2020-06-30T13:41:25Z</time>
      </trkpt>
      <trkpt lat="43.10506" lon="0.25701">
        <ele>403.6</ele>
        <time>2020-06-30T13:41:26Z</time>
      </trkpt>
      <trkpt lat="43.10505" lon="0.25698">
        <ele>403.6</ele>
        <time>2020-06-30T13:41:27Z</time>
      </trkpt>
      <trkpt lat="43.10506" lon="0.25694">
        <ele>403.6</ele>
        <time>2020-06-30T13:41:28Z</time>
      </trkpt>
      <trkpt lat="43.10507" lon="0.25691">
        <ele>403.8</ele>
        <time>2020-06-30T13:41:29Z</time>
      </trkpt>
      <trkpt lat="43.10507" lon="0.25688">
        <ele>403.8</ele>
        <time>2020-06-30T13:41:30Z</time>
      </trkpt>
      <trkpt lat="43.10508" lon="0.25685">
        <ele>403.8</ele>
        <time>2020-06-30T13:41:31Z</time>
      </trkpt>
      <trkpt lat="43.10508" lon="0.25681">
        <ele>404</ele>
        <time>2020-06-30T13:41:32Z</time>
      </trkpt>
      <trkpt lat="43.10509" lon="0.25678">
        <ele>404</ele>
        <time>2020-06-30T13:41:33Z</time>
      </trkpt>
      <trkpt lat="43.10509" lon="0.25675">
        <ele>404</ele>
        <time>2020-06-30T13:41:34Z</time>
      </trkpt>
      <trkpt lat="43.1051" lon="0.25671">
        <ele>404.2</ele>
        <time>2020-06-30T13:41:35Z</time>
      </trkpt>
      <trkpt lat="43.10511" lon="0.25668">
        <ele>404.4</ele>
        <time>2020-06-30T13:41:36Z</time>
      </trkpt>
      <trkpt lat="43.10511" lon="0.25665">
        <ele>404.4</ele>
        <time>2020-06-30T13:41:37Z</time>
      </trkpt>
      <trkpt lat="43.10512" lon="0.25662">
        <ele>404.4</ele>
        <time>2020-06-30T13:41:38Z</time>
      </trkpt>
      <trkpt lat="43.10512" lon="0.25658">
        <ele>404.6</ele>
        <time>2020-06-30T13:41:39Z</time>
      </trkpt>
      <trkpt lat="43.10512" lon="0.25655">
        <ele>404.6</ele>
        <time>2020-06-30T13:41:40Z</time>
      </trkpt>
      <trkpt lat="43.10512" lon="0.25652">
        <ele>404.8</ele>
        <time>2020-06-30T13:41:41Z</time>
      </trkpt>
      <trkpt lat="43.10513" lon="0.25649">
        <ele>404.8</ele>
        <time>2020-06-30T13:41:42Z</time>
      </trkpt>
      <trkpt lat="43.10513" lon="0.25645">
        <ele>404.8</ele>
        <time>2020-06-30T13:41:43Z</time>
      </trkpt>
      <trkpt lat="43.10513" lon="0.25641">
        <ele>405</ele>
        <time>2020-06-30T13:41:44Z</time>
      </trkpt>
      <trkpt lat="43.10513" lon="0.25641">
        <ele>405</ele>
        <time>2020-06-30T13:41:45Z</time>
      </trkpt>
      <trkpt lat="43.10514" lon="0.25635">
        <ele>405.2</ele>
        <time>2020-06-30T13:41:46Z</time>
      </trkpt>
      <trkpt lat="43.10515" lon="0.25632">
        <ele>405.2</ele>
        <time>2020-06-30T13:41:47Z</time>
      </trkpt>
      <trkpt lat="43.10516" lon="0.25628">
        <ele>405.2</ele>
        <time>2020-06-30T13:41:48Z</time>
      </trkpt>
      <trkpt lat="43.10516" lon="0.25628">
        <ele>405.2</ele>
        <time>2020-06-30T13:41:49Z</time>
      </trkpt>
      <trkpt lat="43.10517" lon="0.25621">
        <ele>405.4</ele>
        <time>2020-06-30T13:41:50Z</time>
      </trkpt>
      <trkpt lat="43.10518" lon="0.25618">
        <ele>405.6</ele>
        <time>2020-06-30T13:41:51Z</time>
      </trkpt>
      <trkpt lat="43.10519" lon="0.25615">
        <ele>405.6</ele>
        <time>2020-06-30T13:41:52Z</time>
      </trkpt>
      <trkpt lat="43.10519" lon="0.25615">
        <ele>405.6</ele>
        <time>2020-06-30T13:41:53Z</time>
      </trkpt>
      <trkpt lat="43.10521" lon="0.25607">
        <ele>405.8</ele>
        <time>2020-06-30T13:41:54Z</time>
      </trkpt>
      <trkpt lat="43.10521" lon="0.25603">
        <ele>405.8</ele>
        <time>2020-06-30T13:41:55Z</time>
      </trkpt>
      <trkpt lat="43.10521" lon="0.256">
        <ele>406</ele>
        <time>2020-06-30T13:41:56Z</time>
      </trkpt>
      <trkpt lat="43.10521" lon="0.256">
        <ele>406</ele>
        <time>2020-06-30T13:41:57Z</time>
      </trkpt>
      <trkpt lat="43.10522" lon="0.25593">
        <ele>406</ele>
        <time>2020-06-30T13:41:58Z</time>
      </trkpt>
      <trkpt lat="43.10524" lon="0.25589">
        <ele>406</ele>
        <time>2020-06-30T13:41:59Z</time>
      </trkpt>
      <trkpt lat="43.10524" lon="0.25585">
        <ele>406.2</ele>
        <time>2020-06-30T13:42:00Z</time>
      </trkpt>
      <trkpt lat="43.10524" lon="0.25585">
        <ele>406.2</ele>
        <time>2020-06-30T13:42:01Z</time>
      </trkpt>
      <trkpt lat="43.10526" lon="0.25579">
        <ele>406.2</ele>
        <time>2020-06-30T13:42:02Z</time>
      </trkpt>
      <trkpt lat="43.10527" lon="0.25575">
        <ele>406.2</ele>
        <time>2020-06-30T13:42:03Z</time>
      </trkpt>
      <trkpt lat="43.10529" lon="0.25572">
        <ele>406.4</ele>
        <time>2020-06-30T13:42:04Z</time>
      </trkpt>
      <trkpt lat="43.1053" lon="0.25568">
        <ele>406.4</ele>
        <time>2020-06-30T13:42:05Z</time>
      </trkpt>
      <trkpt lat="43.1053" lon="0.25565">
        <ele>406.4</ele>
        <time>2020-06-30T13:42:06Z</time>
      </trkpt>
      <trkpt lat="43.10531" lon="0.25561">
        <ele>406.4</ele>
        <time>2020-06-30T13:42:07Z</time>
      </trkpt>
      <trkpt lat="43.10532" lon="0.25557">
        <ele>406.4</ele>
        <time>2020-06-30T13:42:08Z</time>
      </trkpt>
      <trkpt lat="43.10534" lon="0.25553">
        <ele>406.4</ele>
        <time>2020-06-30T13:42:09Z</time>
      </trkpt>
      <trkpt lat="43.10536" lon="0.25549">
        <ele>406.4</ele>
        <time>2020-06-30T13:42:10Z</time>
      </trkpt>
      <trkpt lat="43.10536" lon="0.25544">
        <ele>406.4</ele>
        <time>2020-06-30T13:42:11Z</time>
      </trkpt>
      <trkpt lat="43.10536" lon="0.25538">
        <ele>406.2</ele>
        <time>2020-06-30T13:42:12Z</time>
      </trkpt>
      <trkpt lat="43.10536" lon="0.25538">
        <ele>406.2</ele>
        <time>2020-06-30T13:42:13Z</time>
      </trkpt>
      <trkpt lat="43.10537" lon="0.25527">
        <ele>406.2</ele>
        <time>2020-06-30T13:42:14Z</time>
      </trkpt>
      <trkpt lat="43.10538" lon="0.25523">
        <ele>406.2</ele>
        <time>2020-06-30T13:42:15Z</time>
      </trkpt>
      <trkpt lat="43.1054" lon="0.25518">
        <ele>406.2</ele>
        <time>2020-06-30T13:42:16Z</time>
      </trkpt>
      <trkpt lat="43.1054" lon="0.25513">
        <ele>406.2</ele>
        <time>2020-06-30T13:42:17Z</time>
      </trkpt>
      <trkpt lat="43.10541" lon="0.25508">
        <ele>406.2</ele>
        <time>2020-06-30T13:42:18Z</time>
      </trkpt>
      <trkpt lat="43.10541" lon="0.25503">
        <ele>406.4</ele>
        <time>2020-06-30T13:42:19Z</time>
      </trkpt>
      <trkpt lat="43.10542" lon="0.25498">
        <ele>406.4</ele>
        <time>2020-06-30T13:42:20Z</time>
      </trkpt>
      <trkpt lat="43.10542" lon="0.25493">
        <ele>406.4</ele>
        <time>2020-06-30T13:42:21Z</time>
      </trkpt>
      <trkpt lat="43.10542" lon="0.25493">
        <ele>406.4</ele>
        <time>2020-06-30T13:42:22Z</time>
      </trkpt>
      <trkpt lat="43.10541" lon="0.25482">
        <ele>406.4</ele>
        <time>2020-06-30T13:42:23Z</time>
      </trkpt>
      <trkpt lat="43.1054" lon="0.25478">
        <ele>406.4</ele>
        <time>2020-06-30T13:42:24Z</time>
      </trkpt>
      <trkpt lat="43.10539" lon="0.25473">
        <ele>406.6</ele>
        <time>2020-06-30T13:42:25Z</time>
      </trkpt>
      <trkpt lat="43.10538" lon="0.25469">
        <ele>406.8</ele>
        <time>2020-06-30T13:42:26Z</time>
      </trkpt>
      <trkpt lat="43.10538" lon="0.25469">
        <ele>407</ele>
        <time>2020-06-30T13:42:27Z</time>
      </trkpt>
      <trkpt lat="43.10537" lon="0.2546">
        <ele>407.2</ele>
        <time>2020-06-30T13:42:28Z</time>
      </trkpt>
      <trkpt lat="43.10537" lon="0.25456">
        <ele>407.4</ele>
        <time>2020-06-30T13:42:29Z</time>
      </trkpt>
      <trkpt lat="43.10537" lon="0.25453">
        <ele>407.6</ele>
        <time>2020-06-30T13:42:30Z</time>
      </trkpt>
      <trkpt lat="43.10538" lon="0.2545">
        <ele>407.6</ele>
        <time>2020-06-30T13:42:31Z</time>
      </trkpt>
      <trkpt lat="43.10538" lon="0.2545">
        <ele>407.8</ele>
        <time>2020-06-30T13:42:32Z</time>
      </trkpt>
      <trkpt lat="43.10538" lon="0.25443">
        <ele>408</ele>
        <time>2020-06-30T13:42:33Z</time>
      </trkpt>
      <trkpt lat="43.10538" lon="0.2544">
        <ele>408</ele>
        <time>2020-06-30T13:42:34Z</time>
      </trkpt>
      <trkpt lat="43.10539" lon="0.25437">
        <ele>408.2</ele>
        <time>2020-06-30T13:42:35Z</time>
      </trkpt>
      <trkpt lat="43.10539" lon="0.25437">
        <ele>408.2</ele>
        <time>2020-06-30T13:42:36Z</time>
      </trkpt>
      <trkpt lat="43.10539" lon="0.2543">
        <ele>408.2</ele>
        <time>2020-06-30T13:42:37Z</time>
      </trkpt>
      <trkpt lat="43.10539" lon="0.25425">
        <ele>408.4</ele>
        <time>2020-06-30T13:42:38Z</time>
      </trkpt>
      <trkpt lat="43.10539" lon="0.25422">
        <ele>408.4</ele>
        <time>2020-06-30T13:42:39Z</time>
      </trkpt>
      <trkpt lat="43.10539" lon="0.25419">
        <ele>408.4</ele>
        <time>2020-06-30T13:42:40Z</time>
      </trkpt>
      <trkpt lat="43.10539" lon="0.25414">
        <ele>408.6</ele>
        <time>2020-06-30T13:42:41Z</time>
      </trkpt>
      <trkpt lat="43.1054" lon="0.25409">
        <ele>408.6</ele>
        <time>2020-06-30T13:42:42Z</time>
      </trkpt>
      <trkpt lat="43.1054" lon="0.25405">
        <ele>408.6</ele>
        <time>2020-06-30T13:42:43Z</time>
      </trkpt>
      <trkpt lat="43.1054" lon="0.25401">
        <ele>408.8</ele>
        <time>2020-06-30T13:42:44Z</time>
      </trkpt>
      <trkpt lat="43.1054" lon="0.25401">
        <ele>408.8</ele>
        <time>2020-06-30T13:42:45Z</time>
      </trkpt>
      <trkpt lat="43.10541" lon="0.25391">
        <ele>408.8</ele>
        <time>2020-06-30T13:42:46Z</time>
      </trkpt>
      <trkpt lat="43.10541" lon="0.25386">
        <ele>409</ele>
        <time>2020-06-30T13:42:47Z</time>
      </trkpt>
      <trkpt lat="43.10541" lon="0.25382">
        <ele>409</ele>
        <time>2020-06-30T13:42:48Z</time>
      </trkpt>
      <trkpt lat="43.10541" lon="0.25378">
        <ele>409.2</ele>
        <time>2020-06-30T13:42:49Z</time>
      </trkpt>
      <trkpt lat="43.10542" lon="0.25375">
        <ele>409.4</ele>
        <time>2020-06-30T13:42:50Z</time>
      </trkpt>
      <trkpt lat="43.10543" lon="0.25371">
        <ele>409.4</ele>
        <time>2020-06-30T13:42:51Z</time>
      </trkpt>
      <trkpt lat="43.10544" lon="0.25368">
        <ele>409.6</ele>
        <time>2020-06-30T13:42:52Z</time>
      </trkpt>
      <trkpt lat="43.10544" lon="0.25365">
        <ele>409.8</ele>
        <time>2020-06-30T13:42:53Z</time>
      </trkpt>
      <trkpt lat="43.10545" lon="0.25361">
        <ele>410</ele>
        <time>2020-06-30T13:42:54Z</time>
      </trkpt>
      <trkpt lat="43.10545" lon="0.25359">
        <ele>410.2</ele>
        <time>2020-06-30T13:42:55Z</time>
      </trkpt>
      <trkpt lat="43.10546" lon="0.25357">
        <ele>410.2</ele>
        <time>2020-06-30T13:42:56Z</time>
      </trkpt>
      <trkpt lat="43.10548" lon="0.25354">
        <ele>410.4</ele>
        <time>2020-06-30T13:42:57Z</time>
      </trkpt>
      <trkpt lat="43.10549" lon="0.25351">
        <ele>410.6</ele>
        <time>2020-06-30T13:42:58Z</time>
      </trkpt>
      <trkpt lat="43.10551" lon="0.25349">
        <ele>410.6</ele>
        <time>2020-06-30T13:42:59Z</time>
      </trkpt>
      <trkpt lat="43.10552" lon="0.25347">
        <ele>410.8</ele>
        <time>2020-06-30T13:43:00Z</time>
      </trkpt>
      <trkpt lat="43.10554" lon="0.25345">
        <ele>410.8</ele>
        <time>2020-06-30T13:43:01Z</time>
      </trkpt>
      <trkpt lat="43.10556" lon="0.25343">
        <ele>410.8</ele>
        <time>2020-06-30T13:43:02Z</time>
      </trkpt>
      <trkpt lat="43.10558" lon="0.2534">
        <ele>410.6</ele>
        <time>2020-06-30T13:43:03Z</time>
      </trkpt>
      <trkpt lat="43.1056" lon="0.25338">
        <ele>410.2</ele>
        <time>2020-06-30T13:43:04Z</time>
      </trkpt>
      <trkpt lat="43.10563" lon="0.25334">
        <ele>409.8</ele>
        <time>2020-06-30T13:43:05Z</time>
      </trkpt>
      <trkpt lat="43.10566" lon="0.2533">
        <ele>409.6</ele>
        <time>2020-06-30T13:43:06Z</time>
      </trkpt>
      <trkpt lat="43.10566" lon="0.2533">
        <ele>409.6</ele>
        <time>2020-06-30T13:43:07Z</time>
      </trkpt>
      <trkpt lat="43.10572" lon="0.25321">
        <ele>409.4</ele>
        <time>2020-06-30T13:43:08Z</time>
      </trkpt>
      <trkpt lat="43.10574" lon="0.25315">
        <ele>409.2</ele>
        <time>2020-06-30T13:43:09Z</time>
      </trkpt>
      <trkpt lat="43.10576" lon="0.2531">
        <ele>409.2</ele>
        <time>2020-06-30T13:43:10Z</time>
      </trkpt>
      <trkpt lat="43.10576" lon="0.25305">
        <ele>409.2</ele>
        <time>2020-06-30T13:43:11Z</time>
      </trkpt>
      <trkpt lat="43.10574" lon="0.25296">
        <ele>409.2</ele>
        <time>2020-06-30T13:43:12Z</time>
      </trkpt>
      <trkpt lat="43.10573" lon="0.25289">
        <ele>409</ele>
        <time>2020-06-30T13:43:13Z</time>
      </trkpt>
      <trkpt lat="43.10574" lon="0.25286">
        <ele>409</ele>
        <time>2020-06-30T13:43:14Z</time>
      </trkpt>
      <trkpt lat="43.10575" lon="0.2528">
        <ele>408.6</ele>
        <time>2020-06-30T13:43:15Z</time>
      </trkpt>
      <trkpt lat="43.10572" lon="0.25272">
        <ele>408.4</ele>
        <time>2020-06-30T13:43:16Z</time>
      </trkpt>
      <trkpt lat="43.10572" lon="0.25272">
        <ele>408</ele>
        <time>2020-06-30T13:43:17Z</time>
      </trkpt>
      <trkpt lat="43.10565" lon="0.25261">
        <ele>407.4</ele>
        <time>2020-06-30T13:43:18Z</time>
      </trkpt>
      <trkpt lat="43.10561" lon="0.25252">
        <ele>406.8</ele>
        <time>2020-06-30T13:43:19Z</time>
      </trkpt>
      <trkpt lat="43.10556" lon="0.25246">
        <ele>406</ele>
        <time>2020-06-30T13:43:20Z</time>
      </trkpt>
      <trkpt lat="43.10556" lon="0.25246">
        <ele>405.4</ele>
        <time>2020-06-30T13:43:21Z</time>
      </trkpt>
      <trkpt lat="43.10545" lon="0.25229">
        <ele>404.6</ele>
        <time>2020-06-30T13:43:22Z</time>
      </trkpt>
      <trkpt lat="43.10539" lon="0.25217">
        <ele>403.6</ele>
        <time>2020-06-30T13:43:23Z</time>
      </trkpt>
      <trkpt lat="43.10533" lon="0.25206">
        <ele>402.6</ele>
        <time>2020-06-30T13:43:24Z</time>
      </trkpt>
      <trkpt lat="43.10533" lon="0.25206">
        <ele>401.8</ele>
        <time>2020-06-30T13:43:25Z</time>
      </trkpt>
      <trkpt lat="43.10517" lon="0.25186">
        <ele>400.6</ele>
        <time>2020-06-30T13:43:26Z</time>
      </trkpt>
      <trkpt lat="43.10509" lon="0.25175">
        <ele>399.4</ele>
        <time>2020-06-30T13:43:27Z</time>
      </trkpt>
      <trkpt lat="43.105" lon="0.25164">
        <ele>398.2</ele>
        <time>2020-06-30T13:43:28Z</time>
      </trkpt>
      <trkpt lat="43.10492" lon="0.25151">
        <ele>397.4</ele>
        <time>2020-06-30T13:43:29Z</time>
      </trkpt>
      <trkpt lat="43.10483" lon="0.25139">
        <ele>396.6</ele>
        <time>2020-06-30T13:43:30Z</time>
      </trkpt>
      <trkpt lat="43.10483" lon="0.25139">
        <ele>396.2</ele>
        <time>2020-06-30T13:43:31Z</time>
      </trkpt>
      <trkpt lat="43.10469" lon="0.25114">
        <ele>395.8</ele>
        <time>2020-06-30T13:43:32Z</time>
      </trkpt>
      <trkpt lat="43.10463" lon="0.25101">
        <ele>395.4</ele>
        <time>2020-06-30T13:43:33Z</time>
      </trkpt>
      <trkpt lat="43.10458" lon="0.2509">
        <ele>395.4</ele>
        <time>2020-06-30T13:43:34Z</time>
      </trkpt>
      <trkpt lat="43.10458" lon="0.2509">
        <ele>395.6</ele>
        <time>2020-06-30T13:43:35Z</time>
      </trkpt>
      <trkpt lat="43.10452" lon="0.25073">
        <ele>395.8</ele>
        <time>2020-06-30T13:43:36Z</time>
      </trkpt>
      <trkpt lat="43.10449" lon="0.25065">
        <ele>395.8</ele>
        <time>2020-06-30T13:43:37Z</time>
      </trkpt>
      <trkpt lat="43.10448" lon="0.25056">
        <ele>396</ele>
        <time>2020-06-30T13:43:38Z</time>
      </trkpt>
      <trkpt lat="43.10448" lon="0.25056">
        <ele>396</ele>
        <time>2020-06-30T13:43:39Z</time>
      </trkpt>
      <trkpt lat="43.10446" lon="0.2504">
        <ele>396.2</ele>
        <time>2020-06-30T13:43:40Z</time>
      </trkpt>
      <trkpt lat="43.10444" lon="0.25034">
        <ele>396.2</ele>
        <time>2020-06-30T13:43:41Z</time>
      </trkpt>
      <trkpt lat="43.10442" lon="0.25027">
        <ele>396.4</ele>
        <time>2020-06-30T13:43:42Z</time>
      </trkpt>
      <trkpt lat="43.10441" lon="0.25021">
        <ele>396.6</ele>
        <time>2020-06-30T13:43:43Z</time>
      </trkpt>
      <trkpt lat="43.10438" lon="0.25016">
        <ele>396.8</ele>
        <time>2020-06-30T13:43:44Z</time>
      </trkpt>
      <trkpt lat="43.10438" lon="0.2501">
        <ele>397</ele>
        <time>2020-06-30T13:43:45Z</time>
      </trkpt>
      <trkpt lat="43.10436" lon="0.25004">
        <ele>397.2</ele>
        <time>2020-06-30T13:43:46Z</time>
      </trkpt>
      <trkpt lat="43.10435" lon="0.24998">
        <ele>397.2</ele>
        <time>2020-06-30T13:43:47Z</time>
      </trkpt>
      <trkpt lat="43.10433" lon="0.24993">
        <ele>397.4</ele>
        <time>2020-06-30T13:43:48Z</time>
      </trkpt>
      <trkpt lat="43.10433" lon="0.24993">
        <ele>397.6</ele>
        <time>2020-06-30T13:43:49Z</time>
      </trkpt>
      <trkpt lat="43.1043" lon="0.24982">
        <ele>397.6</ele>
        <time>2020-06-30T13:43:50Z</time>
      </trkpt>
      <trkpt lat="43.10429" lon="0.24976">
        <ele>397.8</ele>
        <time>2020-06-30T13:43:51Z</time>
      </trkpt>
      <trkpt lat="43.10429" lon="0.24976">
        <ele>397.8</ele>
        <time>2020-06-30T13:43:52Z</time>
      </trkpt>
      <trkpt lat="43.10428" lon="0.24967">
        <ele>397.8</ele>
        <time>2020-06-30T13:43:53Z</time>
      </trkpt>
      <trkpt lat="43.10426" lon="0.24962">
        <ele>398</ele>
        <time>2020-06-30T13:43:54Z</time>
      </trkpt>
      <trkpt lat="43.10424" lon="0.24957">
        <ele>398</ele>
        <time>2020-06-30T13:43:55Z</time>
      </trkpt>
      <trkpt lat="43.10422" lon="0.24952">
        <ele>398.2</ele>
        <time>2020-06-30T13:43:56Z</time>
      </trkpt>
      <trkpt lat="43.1042" lon="0.24946">
        <ele>398.4</ele>
        <time>2020-06-30T13:43:57Z</time>
      </trkpt>
      <trkpt lat="43.10418" lon="0.24942">
        <ele>398.4</ele>
        <time>2020-06-30T13:43:58Z</time>
      </trkpt>
      <trkpt lat="43.10418" lon="0.24942">
        <ele>398.6</ele>
        <time>2020-06-30T13:43:59Z</time>
      </trkpt>
      <trkpt lat="43.10414" lon="0.24932">
        <ele>398.6</ele>
        <time>2020-06-30T13:44:00Z</time>
      </trkpt>
      <trkpt lat="43.10411" lon="0.24929">
        <ele>398.8</ele>
        <time>2020-06-30T13:44:01Z</time>
      </trkpt>
      <trkpt lat="43.10409" lon="0.24926">
        <ele>399</ele>
        <time>2020-06-30T13:44:02Z</time>
      </trkpt>
      <trkpt lat="43.10407" lon="0.24922">
        <ele>399.2</ele>
        <time>2020-06-30T13:44:03Z</time>
      </trkpt>
      <trkpt lat="43.10405" lon="0.24919">
        <ele>399.2</ele>
        <time>2020-06-30T13:44:04Z</time>
      </trkpt>
      <trkpt lat="43.10403" lon="0.24916">
        <ele>399.4</ele>
        <time>2020-06-30T13:44:05Z</time>
      </trkpt>
      <trkpt lat="43.10401" lon="0.24913">
        <ele>399.6</ele>
        <time>2020-06-30T13:44:06Z</time>
      </trkpt>
      <trkpt lat="43.10398" lon="0.2491">
        <ele>399.6</ele>
        <time>2020-06-30T13:44:07Z</time>
      </trkpt>
      <trkpt lat="43.10396" lon="0.24906">
        <ele>399.8</ele>
        <time>2020-06-30T13:44:08Z</time>
      </trkpt>
      <trkpt lat="43.10394" lon="0.24902">
        <ele>399.8</ele>
        <time>2020-06-30T13:44:09Z</time>
      </trkpt>
      <trkpt lat="43.10394" lon="0.24902">
        <ele>399.8</ele>
        <time>2020-06-30T13:44:10Z</time>
      </trkpt>
      <trkpt lat="43.10389" lon="0.24895">
        <ele>399.8</ele>
        <time>2020-06-30T13:44:11Z</time>
      </trkpt>
      <trkpt lat="43.10387" lon="0.24892">
        <ele>399.8</ele>
        <time>2020-06-30T13:44:12Z</time>
      </trkpt>
      <trkpt lat="43.10384" lon="0.24887">
        <ele>400</ele>
        <time>2020-06-30T13:44:13Z</time>
      </trkpt>
      <trkpt lat="43.10381" lon="0.24884">
        <ele>399.8</ele>
        <time>2020-06-30T13:44:14Z</time>
      </trkpt>
      <trkpt lat="43.10378" lon="0.24879">
        <ele>400</ele>
        <time>2020-06-30T13:44:15Z</time>
      </trkpt>
      <trkpt lat="43.10375" lon="0.24875">
        <ele>400</ele>
        <time>2020-06-30T13:44:16Z</time>
      </trkpt>
      <trkpt lat="43.10372" lon="0.24871">
        <ele>400</ele>
        <time>2020-06-30T13:44:17Z</time>
      </trkpt>
      <trkpt lat="43.10369" lon="0.24867">
        <ele>400</ele>
        <time>2020-06-30T13:44:18Z</time>
      </trkpt>
      <trkpt lat="43.10369" lon="0.24867">
        <ele>399.8</ele>
        <time>2020-06-30T13:44:19Z</time>
      </trkpt>
      <trkpt lat="43.10365" lon="0.24859">
        <ele>399.8</ele>
        <time>2020-06-30T13:44:20Z</time>
      </trkpt>
      <trkpt lat="43.10363" lon="0.24855">
        <ele>399.8</ele>
        <time>2020-06-30T13:44:21Z</time>
      </trkpt>
      <trkpt lat="43.10363" lon="0.24855">
        <ele>400</ele>
        <time>2020-06-30T13:44:22Z</time>
      </trkpt>
      <trkpt lat="43.10359" lon="0.24847">
        <ele>400</ele>
        <time>2020-06-30T13:44:23Z</time>
      </trkpt>
      <trkpt lat="43.10358" lon="0.24842">
        <ele>400</ele>
        <time>2020-06-30T13:44:24Z</time>
      </trkpt>
      <trkpt lat="43.10357" lon="0.24838">
        <ele>399.8</ele>
        <time>2020-06-30T13:44:25Z</time>
      </trkpt>
      <trkpt lat="43.10355" lon="0.24833">
        <ele>399.8</ele>
        <time>2020-06-30T13:44:26Z</time>
      </trkpt>
      <trkpt lat="43.10354" lon="0.24827">
        <ele>399.8</ele>
        <time>2020-06-30T13:44:27Z</time>
      </trkpt>
      <trkpt lat="43.10352" lon="0.24821">
        <ele>399.8</ele>
        <time>2020-06-30T13:44:28Z</time>
      </trkpt>
      <trkpt lat="43.1035" lon="0.24816">
        <ele>399.6</ele>
        <time>2020-06-30T13:44:29Z</time>
      </trkpt>
      <trkpt lat="43.1035" lon="0.24816">
        <ele>399.4</ele>
        <time>2020-06-30T13:44:30Z</time>
      </trkpt>
      <trkpt lat="43.10347" lon="0.24802">
        <ele>399</ele>
        <time>2020-06-30T13:44:31Z</time>
      </trkpt>
      <trkpt lat="43.10345" lon="0.24795">
        <ele>398.8</ele>
        <time>2020-06-30T13:44:32Z</time>
      </trkpt>
      <trkpt lat="43.10345" lon="0.24795">
        <ele>398.6</ele>
        <time>2020-06-30T13:44:33Z</time>
      </trkpt>
      <trkpt lat="43.10341" lon="0.2478">
        <ele>398.4</ele>
        <time>2020-06-30T13:44:34Z</time>
      </trkpt>
      <trkpt lat="43.10339" lon="0.24773">
        <ele>398.2</ele>
        <time>2020-06-30T13:44:35Z</time>
      </trkpt>
      <trkpt lat="43.10339" lon="0.24773">
        <ele>398</ele>
        <time>2020-06-30T13:44:36Z</time>
      </trkpt>
      <trkpt lat="43.10334" lon="0.24757">
        <ele>398</ele>
        <time>2020-06-30T13:44:37Z</time>
      </trkpt>
      <trkpt lat="43.1033" lon="0.24751">
        <ele>398</ele>
        <time>2020-06-30T13:44:38Z</time>
      </trkpt>
      <trkpt lat="43.1033" lon="0.24751">
        <ele>397.8</ele>
        <time>2020-06-30T13:44:39Z</time>
      </trkpt>
      <trkpt lat="43.10324" lon="0.24738">
        <ele>397.8</ele>
        <time>2020-06-30T13:44:40Z</time>
      </trkpt>
      <trkpt lat="43.1032" lon="0.24733">
        <ele>397.8</ele>
        <time>2020-06-30T13:44:41Z</time>
      </trkpt>
      <trkpt lat="43.10317" lon="0.24725">
        <ele>397.8</ele>
        <time>2020-06-30T13:44:42Z</time>
      </trkpt>
      <trkpt lat="43.10317" lon="0.24725">
        <ele>398</ele>
        <time>2020-06-30T13:44:43Z</time>
      </trkpt>
      <trkpt lat="43.10314" lon="0.24711">
        <ele>398</ele>
        <time>2020-06-30T13:44:44Z</time>
      </trkpt>
      <trkpt lat="43.10313" lon="0.24703">
        <ele>398</ele>
        <time>2020-06-30T13:44:45Z</time>
      </trkpt>
      <trkpt lat="43.10312" lon="0.24696">
        <ele>398.2</ele>
        <time>2020-06-30T13:44:46Z</time>
      </trkpt>
      <trkpt lat="43.10311" lon="0.24688">
        <ele>398.2</ele>
        <time>2020-06-30T13:44:47Z</time>
      </trkpt>
      <trkpt lat="43.10311" lon="0.24682">
        <ele>398.2</ele>
        <time>2020-06-30T13:44:48Z</time>
      </trkpt>
      <trkpt lat="43.10309" lon="0.24675">
        <ele>398.2</ele>
        <time>2020-06-30T13:44:49Z</time>
      </trkpt>
      <trkpt lat="43.10309" lon="0.24668">
        <ele>398</ele>
        <time>2020-06-30T13:44:50Z</time>
      </trkpt>
      <trkpt lat="43.10309" lon="0.24668">
        <ele>397.8</ele>
        <time>2020-06-30T13:44:51Z</time>
      </trkpt>
      <trkpt lat="43.10308" lon="0.24652">
        <ele>397.6</ele>
        <time>2020-06-30T13:44:52Z</time>
      </trkpt>
      <trkpt lat="43.10307" lon="0.24644">
        <ele>397.2</ele>
        <time>2020-06-30T13:44:53Z</time>
      </trkpt>
      <trkpt lat="43.10307" lon="0.24644">
        <ele>396.6</ele>
        <time>2020-06-30T13:44:54Z</time>
      </trkpt>
      <trkpt lat="43.10306" lon="0.24626">
        <ele>396</ele>
        <time>2020-06-30T13:44:55Z</time>
      </trkpt>
      <trkpt lat="43.10305" lon="0.24615">
        <ele>395.4</ele>
        <time>2020-06-30T13:44:56Z</time>
      </trkpt>
      <trkpt lat="43.10305" lon="0.24615">
        <ele>394.8</ele>
        <time>2020-06-30T13:44:57Z</time>
      </trkpt>
      <trkpt lat="43.10305" lon="0.24592">
        <ele>394.2</ele>
        <time>2020-06-30T13:44:58Z</time>
      </trkpt>
      <trkpt lat="43.10305" lon="0.24582">
        <ele>393.8</ele>
        <time>2020-06-30T13:44:59Z</time>
      </trkpt>
      <trkpt lat="43.10305" lon="0.2457">
        <ele>393.6</ele>
        <time>2020-06-30T13:45:00Z</time>
      </trkpt>
      <trkpt lat="43.10305" lon="0.2457">
        <ele>393.4</ele>
        <time>2020-06-30T13:45:01Z</time>
      </trkpt>
      <trkpt lat="43.10304" lon="0.24549">
        <ele>393.2</ele>
        <time>2020-06-30T13:45:02Z</time>
      </trkpt>
      <trkpt lat="43.10302" lon="0.24538">
        <ele>393</ele>
        <time>2020-06-30T13:45:03Z</time>
      </trkpt>
      <trkpt lat="43.10302" lon="0.24538">
        <ele>393</ele>
        <time>2020-06-30T13:45:04Z</time>
      </trkpt>
      <trkpt lat="43.10305" lon="0.24519">
        <ele>392.8</ele>
        <time>2020-06-30T13:45:05Z</time>
      </trkpt>
      <trkpt lat="43.10306" lon="0.24508">
        <ele>392.6</ele>
        <time>2020-06-30T13:45:06Z</time>
      </trkpt>
      <trkpt lat="43.10306" lon="0.24508">
        <ele>392.6</ele>
        <time>2020-06-30T13:45:07Z</time>
      </trkpt>
      <trkpt lat="43.10305" lon="0.24488">
        <ele>392.4</ele>
        <time>2020-06-30T13:45:08Z</time>
      </trkpt>
      <trkpt lat="43.10304" lon="0.24477">
        <ele>392.2</ele>
        <time>2020-06-30T13:45:09Z</time>
      </trkpt>
      <trkpt lat="43.10303" lon="0.24468">
        <ele>392</ele>
        <time>2020-06-30T13:45:10Z</time>
      </trkpt>
      <trkpt lat="43.10302" lon="0.24458">
        <ele>391.8</ele>
        <time>2020-06-30T13:45:11Z</time>
      </trkpt>
      <trkpt lat="43.103" lon="0.24447">
        <ele>391.6</ele>
        <time>2020-06-30T13:45:12Z</time>
      </trkpt>
      <trkpt lat="43.10298" lon="0.24436">
        <ele>391.4</ele>
        <time>2020-06-30T13:45:13Z</time>
      </trkpt>
      <trkpt lat="43.10298" lon="0.24436">
        <ele>391.4</ele>
        <time>2020-06-30T13:45:14Z</time>
      </trkpt>
      <trkpt lat="43.10292" lon="0.24416">
        <ele>391.4</ele>
        <time>2020-06-30T13:45:15Z</time>
      </trkpt>
      <trkpt lat="43.1029" lon="0.24407">
        <ele>391.2</ele>
        <time>2020-06-30T13:45:16Z</time>
      </trkpt>
      <trkpt lat="43.10286" lon="0.24397">
        <ele>391.2</ele>
        <time>2020-06-30T13:45:17Z</time>
      </trkpt>
      <trkpt lat="43.10283" lon="0.24387">
        <ele>391.4</ele>
        <time>2020-06-30T13:45:18Z</time>
      </trkpt>
      <trkpt lat="43.1028" lon="0.24378">
        <ele>391.4</ele>
        <time>2020-06-30T13:45:19Z</time>
      </trkpt>
      <trkpt lat="43.10278" lon="0.2437">
        <ele>391.6</ele>
        <time>2020-06-30T13:45:20Z</time>
      </trkpt>
      <trkpt lat="43.10275" lon="0.24361">
        <ele>391.8</ele>
        <time>2020-06-30T13:45:21Z</time>
      </trkpt>
      <trkpt lat="43.10275" lon="0.24361">
        <ele>391.8</ele>
        <time>2020-06-30T13:45:22Z</time>
      </trkpt>
      <trkpt lat="43.1027" lon="0.24344">
        <ele>391.8</ele>
        <time>2020-06-30T13:45:23Z</time>
      </trkpt>
      <trkpt lat="43.10268" lon="0.24336">
        <ele>391.8</ele>
        <time>2020-06-30T13:45:24Z</time>
      </trkpt>
      <trkpt lat="43.10265" lon="0.24327">
        <ele>391.8</ele>
        <time>2020-06-30T13:45:25Z</time>
      </trkpt>
      <trkpt lat="43.10265" lon="0.24327">
        <ele>391.6</ele>
        <time>2020-06-30T13:45:26Z</time>
      </trkpt>
      <trkpt lat="43.10259" lon="0.24309">
        <ele>391.4</ele>
        <time>2020-06-30T13:45:27Z</time>
      </trkpt>
      <trkpt lat="43.10258" lon="0.243">
        <ele>391.4</ele>
        <time>2020-06-30T13:45:28Z</time>
      </trkpt>
      <trkpt lat="43.10258" lon="0.243">
        <ele>391.4</ele>
        <time>2020-06-30T13:45:29Z</time>
      </trkpt>
      <trkpt lat="43.10253" lon="0.24283">
        <ele>391.4</ele>
        <time>2020-06-30T13:45:30Z</time>
      </trkpt>
      <trkpt lat="43.1025" lon="0.24275">
        <ele>391.2</ele>
        <time>2020-06-30T13:45:31Z</time>
      </trkpt>
      <trkpt lat="43.10248" lon="0.24266">
        <ele>391.4</ele>
        <time>2020-06-30T13:45:32Z</time>
      </trkpt>
      <trkpt lat="43.10245" lon="0.24257">
        <ele>391.4</ele>
        <time>2020-06-30T13:45:33Z</time>
      </trkpt>
      <trkpt lat="43.10245" lon="0.24257">
        <ele>391.4</ele>
        <time>2020-06-30T13:45:34Z</time>
      </trkpt>
      <trkpt lat="43.10242" lon="0.24242">
        <ele>391.4</ele>
        <time>2020-06-30T13:45:35Z</time>
      </trkpt>
      <trkpt lat="43.10242" lon="0.24236">
        <ele>391.6</ele>
        <time>2020-06-30T13:45:36Z</time>
      </trkpt>
      <trkpt lat="43.10238" lon="0.24227">
        <ele>391.6</ele>
        <time>2020-06-30T13:45:37Z</time>
      </trkpt>
      <trkpt lat="43.10238" lon="0.24227">
        <ele>391.6</ele>
        <time>2020-06-30T13:45:38Z</time>
      </trkpt>
      <trkpt lat="43.10232" lon="0.24213">
        <ele>391.8</ele>
        <time>2020-06-30T13:45:39Z</time>
      </trkpt>
      <trkpt lat="43.1023" lon="0.24206">
        <ele>391.6</ele>
        <time>2020-06-30T13:45:40Z</time>
      </trkpt>
      <trkpt lat="43.10226" lon="0.24199">
        <ele>391.6</ele>
        <time>2020-06-30T13:45:41Z</time>
      </trkpt>
      <trkpt lat="43.10226" lon="0.24199">
        <ele>391.8</ele>
        <time>2020-06-30T13:45:42Z</time>
      </trkpt>
      <trkpt lat="43.10223" lon="0.24183">
        <ele>391.8</ele>
        <time>2020-06-30T13:45:43Z</time>
      </trkpt>
      <trkpt lat="43.10222" lon="0.24174">
        <ele>392</ele>
        <time>2020-06-30T13:45:44Z</time>
      </trkpt>
      <trkpt lat="43.10219" lon="0.24165">
        <ele>392</ele>
        <time>2020-06-30T13:45:45Z</time>
      </trkpt>
      <trkpt lat="43.10217" lon="0.24156">
        <ele>392</ele>
        <time>2020-06-30T13:45:46Z</time>
      </trkpt>
      <trkpt lat="43.10216" lon="0.24148">
        <ele>392</ele>
        <time>2020-06-30T13:45:47Z</time>
      </trkpt>
      <trkpt lat="43.10216" lon="0.24148">
        <ele>392.2</ele>
        <time>2020-06-30T13:45:48Z</time>
      </trkpt>
      <trkpt lat="43.10212" lon="0.24132">
        <ele>392.2</ele>
        <time>2020-06-30T13:45:49Z</time>
      </trkpt>
      <trkpt lat="43.1021" lon="0.24124">
        <ele>392.4</ele>
        <time>2020-06-30T13:45:50Z</time>
      </trkpt>
      <trkpt lat="43.1021" lon="0.24117">
        <ele>392.6</ele>
        <time>2020-06-30T13:45:51Z</time>
      </trkpt>
      <trkpt lat="43.10208" lon="0.2411">
        <ele>392.8</ele>
        <time>2020-06-30T13:45:52Z</time>
      </trkpt>
      <trkpt lat="43.10206" lon="0.24103">
        <ele>393</ele>
        <time>2020-06-30T13:45:53Z</time>
      </trkpt>
      <trkpt lat="43.10205" lon="0.24096">
        <ele>393.2</ele>
        <time>2020-06-30T13:45:54Z</time>
      </trkpt>
      <trkpt lat="43.10205" lon="0.24096">
        <ele>393.4</ele>
        <time>2020-06-30T13:45:55Z</time>
      </trkpt>
      <trkpt lat="43.10202" lon="0.24085">
        <ele>393.8</ele>
        <time>2020-06-30T13:45:56Z</time>
      </trkpt>
      <trkpt lat="43.10201" lon="0.2408">
        <ele>394</ele>
        <time>2020-06-30T13:45:57Z</time>
      </trkpt>
      <trkpt lat="43.10201" lon="0.2408">
        <ele>394.2</ele>
        <time>2020-06-30T13:45:58Z</time>
      </trkpt>
      <trkpt lat="43.10197" lon="0.24071">
        <ele>394.4</ele>
        <time>2020-06-30T13:45:59Z</time>
      </trkpt>
      <trkpt lat="43.10196" lon="0.24067">
        <ele>394.8</ele>
        <time>2020-06-30T13:46:00Z</time>
      </trkpt>
      <trkpt lat="43.10196" lon="0.24067">
        <ele>395</ele>
        <time>2020-06-30T13:46:01Z</time>
      </trkpt>
      <trkpt lat="43.10194" lon="0.24061">
        <ele>395.2</ele>
        <time>2020-06-30T13:46:02Z</time>
      </trkpt>
      <trkpt lat="43.10192" lon="0.24057">
        <ele>395.4</ele>
        <time>2020-06-30T13:46:03Z</time>
      </trkpt>
      <trkpt lat="43.10192" lon="0.24057">
        <ele>395.4</ele>
        <time>2020-06-30T13:46:04Z</time>
      </trkpt>
      <trkpt lat="43.10189" lon="0.24052">
        <ele>395.6</ele>
        <time>2020-06-30T13:46:05Z</time>
      </trkpt>
      <trkpt lat="43.10188" lon="0.2405">
        <ele>395.8</ele>
        <time>2020-06-30T13:46:06Z</time>
      </trkpt>
      <trkpt lat="43.10187" lon="0.24047">
        <ele>395.8</ele>
        <time>2020-06-30T13:46:07Z</time>
      </trkpt>
      <trkpt lat="43.10184" lon="0.24044">
        <ele>395.8</ele>
        <time>2020-06-30T13:46:08Z</time>
      </trkpt>
      <trkpt lat="43.10183" lon="0.24041">
        <ele>396</ele>
        <time>2020-06-30T13:46:09Z</time>
      </trkpt>
      <trkpt lat="43.1018" lon="0.24038">
        <ele>396</ele>
        <time>2020-06-30T13:46:10Z</time>
      </trkpt>
      <trkpt lat="43.1018" lon="0.24038">
        <ele>396</ele>
        <time>2020-06-30T13:46:11Z</time>
      </trkpt>
      <trkpt lat="43.10176" lon="0.24031">
        <ele>396</ele>
        <time>2020-06-30T13:46:12Z</time>
      </trkpt>
      <trkpt lat="43.10174" lon="0.24027">
        <ele>396</ele>
        <time>2020-06-30T13:46:13Z</time>
      </trkpt>
      <trkpt lat="43.10171" lon="0.24023">
        <ele>396.2</ele>
        <time>2020-06-30T13:46:14Z</time>
      </trkpt>
      <trkpt lat="43.10171" lon="0.24023">
        <ele>396.2</ele>
        <time>2020-06-30T13:46:15Z</time>
      </trkpt>
      <trkpt lat="43.10165" lon="0.24015">
        <ele>396</ele>
        <time>2020-06-30T13:46:16Z</time>
      </trkpt>
      <trkpt lat="43.10162" lon="0.24012">
        <ele>396</ele>
        <time>2020-06-30T13:46:17Z</time>
      </trkpt>
      <trkpt lat="43.10159" lon="0.24008">
        <ele>396</ele>
        <time>2020-06-30T13:46:18Z</time>
      </trkpt>
      <trkpt lat="43.10159" lon="0.24008">
        <ele>396</ele>
        <time>2020-06-30T13:46:19Z</time>
      </trkpt>
      <trkpt lat="43.10152" lon="0.24">
        <ele>395.8</ele>
        <time>2020-06-30T13:46:20Z</time>
      </trkpt>
      <trkpt lat="43.10149" lon="0.23995">
        <ele>395.8</ele>
        <time>2020-06-30T13:46:21Z</time>
      </trkpt>
      <trkpt lat="43.10147" lon="0.2399">
        <ele>395.8</ele>
        <time>2020-06-30T13:46:22Z</time>
      </trkpt>
      <trkpt lat="43.10144" lon="0.23985">
        <ele>395.8</ele>
        <time>2020-06-30T13:46:23Z</time>
      </trkpt>
      <trkpt lat="43.10141" lon="0.23979">
        <ele>395.6</ele>
        <time>2020-06-30T13:46:24Z</time>
      </trkpt>
      <trkpt lat="43.10139" lon="0.23973">
        <ele>395.8</ele>
        <time>2020-06-30T13:46:25Z</time>
      </trkpt>
      <trkpt lat="43.10139" lon="0.23973">
        <ele>395.8</ele>
        <time>2020-06-30T13:46:26Z</time>
      </trkpt>
      <trkpt lat="43.10133" lon="0.23962">
        <ele>395.6</ele>
        <time>2020-06-30T13:46:27Z</time>
      </trkpt>
      <trkpt lat="43.1013" lon="0.23957">
        <ele>395.6</ele>
        <time>2020-06-30T13:46:28Z</time>
      </trkpt>
      <trkpt lat="43.10127" lon="0.23951">
        <ele>395.6</ele>
        <time>2020-06-30T13:46:29Z</time>
      </trkpt>
      <trkpt lat="43.10127" lon="0.23951">
        <ele>395.8</ele>
        <time>2020-06-30T13:46:30Z</time>
      </trkpt>
      <trkpt lat="43.10122" lon="0.23941">
        <ele>396</ele>
        <time>2020-06-30T13:46:31Z</time>
      </trkpt>
      <trkpt lat="43.1012" lon="0.23936">
        <ele>396.2</ele>
        <time>2020-06-30T13:46:32Z</time>
      </trkpt>
      <trkpt lat="43.1012" lon="0.23936">
        <ele>396.4</ele>
        <time>2020-06-30T13:46:33Z</time>
      </trkpt>
      <trkpt lat="43.10119" lon="0.23928">
        <ele>396.8</ele>
        <time>2020-06-30T13:46:34Z</time>
      </trkpt>
      <trkpt lat="43.10119" lon="0.23924">
        <ele>397.2</ele>
        <time>2020-06-30T13:46:35Z</time>
      </trkpt>
      <trkpt lat="43.10118" lon="0.23922">
        <ele>397.4</ele>
        <time>2020-06-30T13:46:36Z</time>
      </trkpt>
      <trkpt lat="43.10118" lon="0.23922">
        <ele>397.6</ele>
        <time>2020-06-30T13:46:37Z</time>
      </trkpt>
      <trkpt lat="43.10118" lon="0.23916">
        <ele>398</ele>
        <time>2020-06-30T13:46:38Z</time>
      </trkpt>
      <trkpt lat="43.10118" lon="0.23914">
        <ele>398.2</ele>
        <time>2020-06-30T13:46:39Z</time>
      </trkpt>
      <trkpt lat="43.10118" lon="0.23911">
        <ele>398.4</ele>
        <time>2020-06-30T13:46:40Z</time>
      </trkpt>
      <trkpt lat="43.10119" lon="0.23909">
        <ele>398.6</ele>
        <time>2020-06-30T13:46:41Z</time>
      </trkpt>
      <trkpt lat="43.10118" lon="0.23906">
        <ele>398.6</ele>
        <time>2020-06-30T13:46:42Z</time>
      </trkpt>
      <trkpt lat="43.10119" lon="0.23903">
        <ele>398.8</ele>
        <time>2020-06-30T13:46:43Z</time>
      </trkpt>
      <trkpt lat="43.10119" lon="0.23903">
        <ele>399</ele>
        <time>2020-06-30T13:46:44Z</time>
      </trkpt>
      <trkpt lat="43.10119" lon="0.23898">
        <ele>399.2</ele>
        <time>2020-06-30T13:46:45Z</time>
      </trkpt>
      <trkpt lat="43.10119" lon="0.23896">
        <ele>399.4</ele>
        <time>2020-06-30T13:46:46Z</time>
      </trkpt>
      <trkpt lat="43.10117" lon="0.23894">
        <ele>399.6</ele>
        <time>2020-06-30T13:46:47Z</time>
      </trkpt>
      <trkpt lat="43.10117" lon="0.23894">
        <ele>399.6</ele>
        <time>2020-06-30T13:46:48Z</time>
      </trkpt>
      <trkpt lat="43.10117" lon="0.23889">
        <ele>399.8</ele>
        <time>2020-06-30T13:46:49Z</time>
      </trkpt>
      <trkpt lat="43.10116" lon="0.23887">
        <ele>400</ele>
        <time>2020-06-30T13:46:50Z</time>
      </trkpt>
      <trkpt lat="43.10117" lon="0.23884">
        <ele>400.2</ele>
        <time>2020-06-30T13:46:51Z</time>
      </trkpt>
      <trkpt lat="43.10117" lon="0.23884">
        <ele>400.4</ele>
        <time>2020-06-30T13:46:52Z</time>
      </trkpt>
      <trkpt lat="43.10116" lon="0.2388">
        <ele>400.4</ele>
        <time>2020-06-30T13:46:53Z</time>
      </trkpt>
      <trkpt lat="43.10115" lon="0.23878">
        <ele>400.6</ele>
        <time>2020-06-30T13:46:54Z</time>
      </trkpt>
      <trkpt lat="43.10115" lon="0.23877">
        <ele>400.8</ele>
        <time>2020-06-30T13:46:55Z</time>
      </trkpt>
      <trkpt lat="43.10115" lon="0.23875">
        <ele>401</ele>
        <time>2020-06-30T13:46:56Z</time>
      </trkpt>
      <trkpt lat="43.10113" lon="0.23872">
        <ele>401</ele>
        <time>2020-06-30T13:46:57Z</time>
      </trkpt>
      <trkpt lat="43.10113" lon="0.2387">
        <ele>401.2</ele>
        <time>2020-06-30T13:46:58Z</time>
      </trkpt>
      <trkpt lat="43.10113" lon="0.23868">
        <ele>401.4</ele>
        <time>2020-06-30T13:46:59Z</time>
      </trkpt>
      <trkpt lat="43.10113" lon="0.23866">
        <ele>401.6</ele>
        <time>2020-06-30T13:47:00Z</time>
      </trkpt>
      <trkpt lat="43.10113" lon="0.23864">
        <ele>401.6</ele>
        <time>2020-06-30T13:47:01Z</time>
      </trkpt>
      <trkpt lat="43.10113" lon="0.23863">
        <ele>401.8</ele>
        <time>2020-06-30T13:47:02Z</time>
      </trkpt>
      <trkpt lat="43.10113" lon="0.23862">
        <ele>402</ele>
        <time>2020-06-30T13:47:03Z</time>
      </trkpt>
      <trkpt lat="43.10113" lon="0.23862">
        <ele>402</ele>
        <time>2020-06-30T13:47:04Z</time>
      </trkpt>
      <trkpt lat="43.10113" lon="0.23858">
        <ele>402.2</ele>
        <time>2020-06-30T13:47:05Z</time>
      </trkpt>
      <trkpt lat="43.10113" lon="0.23856">
        <ele>402.4</ele>
        <time>2020-06-30T13:47:06Z</time>
      </trkpt>
      <trkpt lat="43.10113" lon="0.23853">
        <ele>402.6</ele>
        <time>2020-06-30T13:47:07Z</time>
      </trkpt>
      <trkpt lat="43.10113" lon="0.23852">
        <ele>402.8</ele>
        <time>2020-06-30T13:47:08Z</time>
      </trkpt>
      <trkpt lat="43.10111" lon="0.2385">
        <ele>403</ele>
        <time>2020-06-30T13:47:09Z</time>
      </trkpt>
      <trkpt lat="43.1011" lon="0.23848">
        <ele>403</ele>
        <time>2020-06-30T13:47:10Z</time>
      </trkpt>
      <trkpt lat="43.1011" lon="0.23846">
        <ele>403.2</ele>
        <time>2020-06-30T13:47:11Z</time>
      </trkpt>
      <trkpt lat="43.1011" lon="0.23846">
        <ele>403.4</ele>
        <time>2020-06-30T13:47:12Z</time>
      </trkpt>
      <trkpt lat="43.10111" lon="0.23844">
        <ele>403.6</ele>
        <time>2020-06-30T13:47:13Z</time>
      </trkpt>
      <trkpt lat="43.1011" lon="0.23842">
        <ele>403.6</ele>
        <time>2020-06-30T13:47:14Z</time>
      </trkpt>
      <trkpt lat="43.1011" lon="0.23841">
        <ele>403.8</ele>
        <time>2020-06-30T13:47:15Z</time>
      </trkpt>
      <trkpt lat="43.1011" lon="0.23841">
        <ele>404</ele>
        <time>2020-06-30T13:47:16Z</time>
      </trkpt>
      <trkpt lat="43.1011" lon="0.23838">
        <ele>404.2</ele>
        <time>2020-06-30T13:47:17Z</time>
      </trkpt>
      <trkpt lat="43.1011" lon="0.23837">
        <ele>404.2</ele>
        <time>2020-06-30T13:47:18Z</time>
      </trkpt>
      <trkpt lat="43.10109" lon="0.23837">
        <ele>404.4</ele>
        <time>2020-06-30T13:47:19Z</time>
      </trkpt>
      <trkpt lat="43.10108" lon="0.23836">
        <ele>404.6</ele>
        <time>2020-06-30T13:47:20Z</time>
      </trkpt>
      <trkpt lat="43.10108" lon="0.23835">
        <ele>404.6</ele>
        <time>2020-06-30T13:47:21Z</time>
      </trkpt>
      <trkpt lat="43.10108" lon="0.23835">
        <ele>404.8</ele>
        <time>2020-06-30T13:47:22Z</time>
      </trkpt>
      <trkpt lat="43.10107" lon="0.23832">
        <ele>404.8</ele>
        <time>2020-06-30T13:47:23Z</time>
      </trkpt>
      <trkpt lat="43.10106" lon="0.23831">
        <ele>405</ele>
        <time>2020-06-30T13:47:24Z</time>
      </trkpt>
      <trkpt lat="43.10106" lon="0.2383">
        <ele>405.2</ele>
        <time>2020-06-30T13:47:25Z</time>
      </trkpt>
      <trkpt lat="43.10105" lon="0.23829">
        <ele>405.2</ele>
        <time>2020-06-30T13:47:26Z</time>
      </trkpt>
      <trkpt lat="43.10104" lon="0.23827">
        <ele>405.4</ele>
        <time>2020-06-30T13:47:27Z</time>
      </trkpt>
      <trkpt lat="43.10105" lon="0.23826">
        <ele>405.6</ele>
        <time>2020-06-30T13:47:28Z</time>
      </trkpt>
      <trkpt lat="43.10105" lon="0.23825">
        <ele>405.8</ele>
        <time>2020-06-30T13:47:29Z</time>
      </trkpt>
      <trkpt lat="43.10105" lon="0.23825">
        <ele>406</ele>
        <time>2020-06-30T13:47:30Z</time>
      </trkpt>
      <trkpt lat="43.10105" lon="0.23823">
        <ele>406.2</ele>
        <time>2020-06-30T13:47:31Z</time>
      </trkpt>
      <trkpt lat="43.10105" lon="0.23821">
        <ele>406.2</ele>
        <time>2020-06-30T13:47:32Z</time>
      </trkpt>
      <trkpt lat="43.10105" lon="0.23819">
        <ele>406.4</ele>
        <time>2020-06-30T13:47:33Z</time>
      </trkpt>
      <trkpt lat="43.10105" lon="0.23817">
        <ele>406.6</ele>
        <time>2020-06-30T13:47:34Z</time>
      </trkpt>
      <trkpt lat="43.10105" lon="0.23815">
        <ele>406.8</ele>
        <time>2020-06-30T13:47:35Z</time>
      </trkpt>
      <trkpt lat="43.10105" lon="0.23815">
        <ele>406.8</ele>
        <time>2020-06-30T13:47:36Z</time>
      </trkpt>
      <trkpt lat="43.10104" lon="0.23814">
        <ele>407</ele>
        <time>2020-06-30T13:47:37Z</time>
      </trkpt>
      <trkpt lat="43.10104" lon="0.23813">
        <ele>407</ele>
        <time>2020-06-30T13:47:38Z</time>
      </trkpt>
      <trkpt lat="43.10104" lon="0.23812">
        <ele>407.2</ele>
        <time>2020-06-30T13:47:39Z</time>
      </trkpt>
      <trkpt lat="43.10104" lon="0.23812">
        <ele>407.4</ele>
        <time>2020-06-30T13:47:40Z</time>
      </trkpt>
      <trkpt lat="43.10103" lon="0.23808">
        <ele>407.6</ele>
        <time>2020-06-30T13:47:41Z</time>
      </trkpt>
      <trkpt lat="43.10102" lon="0.23807">
        <ele>407.6</ele>
        <time>2020-06-30T13:47:42Z</time>
      </trkpt>
      <trkpt lat="43.10102" lon="0.23805">
        <ele>407.8</ele>
        <time>2020-06-30T13:47:43Z</time>
      </trkpt>
      <trkpt lat="43.10101" lon="0.23804">
        <ele>408</ele>
        <time>2020-06-30T13:47:44Z</time>
      </trkpt>
      <trkpt lat="43.10101" lon="0.23803">
        <ele>408.2</ele>
        <time>2020-06-30T13:47:45Z</time>
      </trkpt>
      <trkpt lat="43.10101" lon="0.23802">
        <ele>408.2</ele>
        <time>2020-06-30T13:47:46Z</time>
      </trkpt>
      <trkpt lat="43.10101" lon="0.23799">
        <ele>408.4</ele>
        <time>2020-06-30T13:47:47Z</time>
      </trkpt>
      <trkpt lat="43.101" lon="0.23798">
        <ele>408.6</ele>
        <time>2020-06-30T13:47:48Z</time>
      </trkpt>
      <trkpt lat="43.101" lon="0.23797">
        <ele>408.8</ele>
        <time>2020-06-30T13:47:49Z</time>
      </trkpt>
      <trkpt lat="43.101" lon="0.23796">
        <ele>408.8</ele>
        <time>2020-06-30T13:47:50Z</time>
      </trkpt>
      <trkpt lat="43.10099" lon="0.23795">
        <ele>409</ele>
        <time>2020-06-30T13:47:51Z</time>
      </trkpt>
      <trkpt lat="43.10099" lon="0.23795">
        <ele>409</ele>
        <time>2020-06-30T13:47:52Z</time>
      </trkpt>
      <trkpt lat="43.10095" lon="0.23794">
        <ele>409.2</ele>
        <time>2020-06-30T13:47:53Z</time>
      </trkpt>
      <trkpt lat="43.10095" lon="0.23792">
        <ele>409.4</ele>
        <time>2020-06-30T13:47:54Z</time>
      </trkpt>
      <trkpt lat="43.10095" lon="0.23792">
        <ele>409.6</ele>
        <time>2020-06-30T13:47:55Z</time>
      </trkpt>
      <trkpt lat="43.10095" lon="0.23788">
        <ele>409.8</ele>
        <time>2020-06-30T13:47:56Z</time>
      </trkpt>
      <trkpt lat="43.10094" lon="0.23788">
        <ele>409.8</ele>
        <time>2020-06-30T13:47:57Z</time>
      </trkpt>
      <trkpt lat="43.10094" lon="0.23787">
        <ele>410</ele>
        <time>2020-06-30T13:47:58Z</time>
      </trkpt>
      <trkpt lat="43.10094" lon="0.23785">
        <ele>410.2</ele>
        <time>2020-06-30T13:47:59Z</time>
      </trkpt>
      <trkpt lat="43.10093" lon="0.23783">
        <ele>410.4</ele>
        <time>2020-06-30T13:48:00Z</time>
      </trkpt>
      <trkpt lat="43.10093" lon="0.23782">
        <ele>410.4</ele>
        <time>2020-06-30T13:48:01Z</time>
      </trkpt>
      <trkpt lat="43.10093" lon="0.2378">
        <ele>410.6</ele>
        <time>2020-06-30T13:48:02Z</time>
      </trkpt>
      <trkpt lat="43.10092" lon="0.23778">
        <ele>410.8</ele>
        <time>2020-06-30T13:48:03Z</time>
      </trkpt>
      <trkpt lat="43.10092" lon="0.23777">
        <ele>410.8</ele>
        <time>2020-06-30T13:48:04Z</time>
      </trkpt>
      <trkpt lat="43.10092" lon="0.23775">
        <ele>411</ele>
        <time>2020-06-30T13:48:05Z</time>
      </trkpt>
      <trkpt lat="43.10091" lon="0.23775">
        <ele>411.2</ele>
        <time>2020-06-30T13:48:06Z</time>
      </trkpt>
      <trkpt lat="43.10089" lon="0.23773">
        <ele>411.2</ele>
        <time>2020-06-30T13:48:07Z</time>
      </trkpt>
      <trkpt lat="43.10088" lon="0.23771">
        <ele>411.4</ele>
        <time>2020-06-30T13:48:08Z</time>
      </trkpt>
      <trkpt lat="43.10087" lon="0.2377">
        <ele>411.6</ele>
        <time>2020-06-30T13:48:09Z</time>
      </trkpt>
      <trkpt lat="43.10087" lon="0.23769">
        <ele>411.8</ele>
        <time>2020-06-30T13:48:10Z</time>
      </trkpt>
      <trkpt lat="43.10086" lon="0.23767">
        <ele>412</ele>
        <time>2020-06-30T13:48:11Z</time>
      </trkpt>
      <trkpt lat="43.10086" lon="0.23766">
        <ele>412</ele>
        <time>2020-06-30T13:48:12Z</time>
      </trkpt>
      <trkpt lat="43.10085" lon="0.23765">
        <ele>412.2</ele>
        <time>2020-06-30T13:48:13Z</time>
      </trkpt>
      <trkpt lat="43.10084" lon="0.23764">
        <ele>412.2</ele>
        <time>2020-06-30T13:48:14Z</time>
      </trkpt>
      <trkpt lat="43.10084" lon="0.23762">
        <ele>412.4</ele>
        <time>2020-06-30T13:48:15Z</time>
      </trkpt>
      <trkpt lat="43.10083" lon="0.2376">
        <ele>412.4</ele>
        <time>2020-06-30T13:48:16Z</time>
      </trkpt>
      <trkpt lat="43.10082" lon="0.23758">
        <ele>412.6</ele>
        <time>2020-06-30T13:48:17Z</time>
      </trkpt>
      <trkpt lat="43.10083" lon="0.23756">
        <ele>412.6</ele>
        <time>2020-06-30T13:48:18Z</time>
      </trkpt>
      <trkpt lat="43.10082" lon="0.23755">
        <ele>412.8</ele>
        <time>2020-06-30T13:48:19Z</time>
      </trkpt>
      <trkpt lat="43.10081" lon="0.23753">
        <ele>412.8</ele>
        <time>2020-06-30T13:48:20Z</time>
      </trkpt>
      <trkpt lat="43.10081" lon="0.23752">
        <ele>413</ele>
        <time>2020-06-30T13:48:21Z</time>
      </trkpt>
      <trkpt lat="43.1008" lon="0.2375">
        <ele>413</ele>
        <time>2020-06-30T13:48:22Z</time>
      </trkpt>
      <trkpt lat="43.10079" lon="0.23749">
        <ele>413.2</ele>
        <time>2020-06-30T13:48:23Z</time>
      </trkpt>
      <trkpt lat="43.10078" lon="0.23747">
        <ele>413.2</ele>
        <time>2020-06-30T13:48:24Z</time>
      </trkpt>
      <trkpt lat="43.10078" lon="0.23745">
        <ele>413.4</ele>
        <time>2020-06-30T13:48:25Z</time>
      </trkpt>
      <trkpt lat="43.10078" lon="0.23744">
        <ele>413.4</ele>
        <time>2020-06-30T13:48:26Z</time>
      </trkpt>
      <trkpt lat="43.10078" lon="0.23743">
        <ele>413.6</ele>
        <time>2020-06-30T13:48:27Z</time>
      </trkpt>
      <trkpt lat="43.10077" lon="0.23741">
        <ele>413.6</ele>
        <time>2020-06-30T13:48:28Z</time>
      </trkpt>
      <trkpt lat="43.10076" lon="0.2374">
        <ele>413.8</ele>
        <time>2020-06-30T13:48:29Z</time>
      </trkpt>
      <trkpt lat="43.10076" lon="0.23737">
        <ele>413.8</ele>
        <time>2020-06-30T13:48:30Z</time>
      </trkpt>
      <trkpt lat="43.10075" lon="0.23736">
        <ele>414</ele>
        <time>2020-06-30T13:48:31Z</time>
      </trkpt>
      <trkpt lat="43.10075" lon="0.23735">
        <ele>414.2</ele>
        <time>2020-06-30T13:48:32Z</time>
      </trkpt>
      <trkpt lat="43.10073" lon="0.23733">
        <ele>414.2</ele>
        <time>2020-06-30T13:48:33Z</time>
      </trkpt>
      <trkpt lat="43.10073" lon="0.23731">
        <ele>414.4</ele>
        <time>2020-06-30T13:48:34Z</time>
      </trkpt>
      <trkpt lat="43.10073" lon="0.23731">
        <ele>414.6</ele>
        <time>2020-06-30T13:48:35Z</time>
      </trkpt>
      <trkpt lat="43.10072" lon="0.23727">
        <ele>414.6</ele>
        <time>2020-06-30T13:48:36Z</time>
      </trkpt>
      <trkpt lat="43.10071" lon="0.23726">
        <ele>414.8</ele>
        <time>2020-06-30T13:48:37Z</time>
      </trkpt>
      <trkpt lat="43.10071" lon="0.23724">
        <ele>415</ele>
        <time>2020-06-30T13:48:38Z</time>
      </trkpt>
      <trkpt lat="43.10071" lon="0.23722">
        <ele>415</ele>
        <time>2020-06-30T13:48:39Z</time>
      </trkpt>
      <trkpt lat="43.1007" lon="0.23722">
        <ele>415</ele>
        <time>2020-06-30T13:48:40Z</time>
      </trkpt>
      <trkpt lat="43.10069" lon="0.2372">
        <ele>415.2</ele>
        <time>2020-06-30T13:48:41Z</time>
      </trkpt>
      <trkpt lat="43.10068" lon="0.23718">
        <ele>415.4</ele>
        <time>2020-06-30T13:48:42Z</time>
      </trkpt>
      <trkpt lat="43.10068" lon="0.23718">
        <ele>415.4</ele>
        <time>2020-06-30T13:48:43Z</time>
      </trkpt>
      <trkpt lat="43.10067" lon="0.23717">
        <ele>415.6</ele>
        <time>2020-06-30T13:48:44Z</time>
      </trkpt>
      <trkpt lat="43.10068" lon="0.23716">
        <ele>415.6</ele>
        <time>2020-06-30T13:48:45Z</time>
      </trkpt>
      <trkpt lat="43.10067" lon="0.23714">
        <ele>415.8</ele>
        <time>2020-06-30T13:48:46Z</time>
      </trkpt>
      <trkpt lat="43.10068" lon="0.23712">
        <ele>415.8</ele>
        <time>2020-06-30T13:48:47Z</time>
      </trkpt>
      <trkpt lat="43.10067" lon="0.23711">
        <ele>416</ele>
        <time>2020-06-30T13:48:48Z</time>
      </trkpt>
      <trkpt lat="43.10066" lon="0.2371">
        <ele>416.2</ele>
        <time>2020-06-30T13:48:49Z</time>
      </trkpt>
      <trkpt lat="43.10065" lon="0.2371">
        <ele>416.2</ele>
        <time>2020-06-30T13:48:50Z</time>
      </trkpt>
      <trkpt lat="43.10063" lon="0.23709">
        <ele>416.4</ele>
        <time>2020-06-30T13:48:51Z</time>
      </trkpt>
      <trkpt lat="43.10062" lon="0.23707">
        <ele>416.4</ele>
        <time>2020-06-30T13:48:52Z</time>
      </trkpt>
      <trkpt lat="43.10062" lon="0.23706">
        <ele>416.6</ele>
        <time>2020-06-30T13:48:53Z</time>
      </trkpt>
      <trkpt lat="43.10063" lon="0.23705">
        <ele>416.6</ele>
        <time>2020-06-30T13:48:54Z</time>
      </trkpt>
      <trkpt lat="43.10062" lon="0.23705">
        <ele>416.8</ele>
        <time>2020-06-30T13:48:55Z</time>
      </trkpt>
      <trkpt lat="43.10061" lon="0.23704">
        <ele>417</ele>
        <time>2020-06-30T13:48:56Z</time>
      </trkpt>
      <trkpt lat="43.10059" lon="0.23702">
        <ele>417</ele>
        <time>2020-06-30T13:48:57Z</time>
      </trkpt>
      <trkpt lat="43.10056" lon="0.237">
        <ele>417.2</ele>
        <time>2020-06-30T13:48:58Z</time>
      </trkpt>
      <trkpt lat="43.10056" lon="0.23698">
        <ele>417.2</ele>
        <time>2020-06-30T13:48:59Z</time>
      </trkpt>
      <trkpt lat="43.10055" lon="0.23696">
        <ele>417.4</ele>
        <time>2020-06-30T13:49:00Z</time>
      </trkpt>
      <trkpt lat="43.10054" lon="0.23694">
        <ele>417.6</ele>
        <time>2020-06-30T13:49:01Z</time>
      </trkpt>
      <trkpt lat="43.10053" lon="0.23693">
        <ele>417.8</ele>
        <time>2020-06-30T13:49:02Z</time>
      </trkpt>
      <trkpt lat="43.10051" lon="0.23692">
        <ele>417.8</ele>
        <time>2020-06-30T13:49:03Z</time>
      </trkpt>
      <trkpt lat="43.1005" lon="0.23691">
        <ele>418</ele>
        <time>2020-06-30T13:49:04Z</time>
      </trkpt>
      <trkpt lat="43.10049" lon="0.2369">
        <ele>418</ele>
        <time>2020-06-30T13:49:05Z</time>
      </trkpt>
      <trkpt lat="43.10049" lon="0.23689">
        <ele>418.2</ele>
        <time>2020-06-30T13:49:06Z</time>
      </trkpt>
      <trkpt lat="43.10048" lon="0.23687">
        <ele>418.4</ele>
        <time>2020-06-30T13:49:07Z</time>
      </trkpt>
      <trkpt lat="43.10046" lon="0.23686">
        <ele>418.4</ele>
        <time>2020-06-30T13:49:08Z</time>
      </trkpt>
      <trkpt lat="43.10045" lon="0.23684">
        <ele>418.4</ele>
        <time>2020-06-30T13:49:09Z</time>
      </trkpt>
      <trkpt lat="43.10043" lon="0.23682">
        <ele>418.6</ele>
        <time>2020-06-30T13:49:10Z</time>
      </trkpt>
      <trkpt lat="43.1004" lon="0.23681">
        <ele>418.6</ele>
        <time>2020-06-30T13:49:11Z</time>
      </trkpt>
      <trkpt lat="43.1004" lon="0.23679">
        <ele>418.8</ele>
        <time>2020-06-30T13:49:12Z</time>
      </trkpt>
      <trkpt lat="43.10037" lon="0.23677">
        <ele>418.8</ele>
        <time>2020-06-30T13:49:13Z</time>
      </trkpt>
      <trkpt lat="43.10035" lon="0.23676">
        <ele>419</ele>
        <time>2020-06-30T13:49:14Z</time>
      </trkpt>
      <trkpt lat="43.10034" lon="0.23675">
        <ele>419</ele>
        <time>2020-06-30T13:49:15Z</time>
      </trkpt>
      <trkpt lat="43.10034" lon="0.23673">
        <ele>419</ele>
        <time>2020-06-30T13:49:16Z</time>
      </trkpt>
      <trkpt lat="43.10034" lon="0.23671">
        <ele>419.2</ele>
        <time>2020-06-30T13:49:17Z</time>
      </trkpt>
      <trkpt lat="43.10033" lon="0.2367">
        <ele>419.2</ele>
        <time>2020-06-30T13:49:18Z</time>
      </trkpt>
      <trkpt lat="43.10033" lon="0.23669">
        <ele>419.4</ele>
        <time>2020-06-30T13:49:19Z</time>
      </trkpt>
      <trkpt lat="43.10031" lon="0.23669">
        <ele>419.4</ele>
        <time>2020-06-30T13:49:20Z</time>
      </trkpt>
      <trkpt lat="43.1003" lon="0.23667">
        <ele>419.6</ele>
        <time>2020-06-30T13:49:21Z</time>
      </trkpt>
      <trkpt lat="43.1003" lon="0.23666">
        <ele>419.6</ele>
        <time>2020-06-30T13:49:22Z</time>
      </trkpt>
      <trkpt lat="43.10028" lon="0.23665">
        <ele>419.8</ele>
        <time>2020-06-30T13:49:23Z</time>
      </trkpt>
      <trkpt lat="43.10026" lon="0.23664">
        <ele>419.8</ele>
        <time>2020-06-30T13:49:24Z</time>
      </trkpt>
      <trkpt lat="43.10026" lon="0.23661">
        <ele>420</ele>
        <time>2020-06-30T13:49:25Z</time>
      </trkpt>
      <trkpt lat="43.10024" lon="0.2366">
        <ele>420.2</ele>
        <time>2020-06-30T13:49:26Z</time>
      </trkpt>
      <trkpt lat="43.10022" lon="0.23657">
        <ele>420.2</ele>
        <time>2020-06-30T13:49:27Z</time>
      </trkpt>
      <trkpt lat="43.1002" lon="0.23655">
        <ele>420.4</ele>
        <time>2020-06-30T13:49:28Z</time>
      </trkpt>
      <trkpt lat="43.1002" lon="0.23652">
        <ele>420.4</ele>
        <time>2020-06-30T13:49:29Z</time>
      </trkpt>
      <trkpt lat="43.10018" lon="0.23651">
        <ele>420.6</ele>
        <time>2020-06-30T13:49:30Z</time>
      </trkpt>
      <trkpt lat="43.10018" lon="0.2365">
        <ele>420.6</ele>
        <time>2020-06-30T13:49:31Z</time>
      </trkpt>
      <trkpt lat="43.10017" lon="0.23649">
        <ele>420.8</ele>
        <time>2020-06-30T13:49:32Z</time>
      </trkpt>
      <trkpt lat="43.10015" lon="0.23648">
        <ele>420.8</ele>
        <time>2020-06-30T13:49:33Z</time>
      </trkpt>
      <trkpt lat="43.10015" lon="0.23647">
        <ele>421</ele>
        <time>2020-06-30T13:49:34Z</time>
      </trkpt>
      <trkpt lat="43.10014" lon="0.23646">
        <ele>421</ele>
        <time>2020-06-30T13:49:35Z</time>
      </trkpt>
      <trkpt lat="43.10013" lon="0.23646">
        <ele>421.2</ele>
        <time>2020-06-30T13:49:36Z</time>
      </trkpt>
      <trkpt lat="43.10013" lon="0.23645">
        <ele>421.4</ele>
        <time>2020-06-30T13:49:37Z</time>
      </trkpt>
      <trkpt lat="43.10012" lon="0.23644">
        <ele>421.4</ele>
        <time>2020-06-30T13:49:38Z</time>
      </trkpt>
      <trkpt lat="43.10011" lon="0.23642">
        <ele>421.6</ele>
        <time>2020-06-30T13:49:39Z</time>
      </trkpt>
      <trkpt lat="43.10011" lon="0.23641">
        <ele>421.6</ele>
        <time>2020-06-30T13:49:40Z</time>
      </trkpt>
      <trkpt lat="43.10009" lon="0.2364">
        <ele>421.8</ele>
        <time>2020-06-30T13:49:41Z</time>
      </trkpt>
      <trkpt lat="43.10007" lon="0.23639">
        <ele>421.8</ele>
        <time>2020-06-30T13:49:42Z</time>
      </trkpt>
      <trkpt lat="43.10007" lon="0.23638">
        <ele>422</ele>
        <time>2020-06-30T13:49:43Z</time>
      </trkpt>
      <trkpt lat="43.10006" lon="0.23637">
        <ele>422</ele>
        <time>2020-06-30T13:49:44Z</time>
      </trkpt>
      <trkpt lat="43.10005" lon="0.23635">
        <ele>422.2</ele>
        <time>2020-06-30T13:49:45Z</time>
      </trkpt>
      <trkpt lat="43.10003" lon="0.23633">
        <ele>422.2</ele>
        <time>2020-06-30T13:49:46Z</time>
      </trkpt>
      <trkpt lat="43.10002" lon="0.23632">
        <ele>422.4</ele>
        <time>2020-06-30T13:49:47Z</time>
      </trkpt>
      <trkpt lat="43.1" lon="0.23631">
        <ele>422.4</ele>
        <time>2020-06-30T13:49:48Z</time>
      </trkpt>
      <trkpt lat="43.09999" lon="0.23629">
        <ele>422.4</ele>
        <time>2020-06-30T13:49:49Z</time>
      </trkpt>
      <trkpt lat="43.09997" lon="0.23627">
        <ele>422.6</ele>
        <time>2020-06-30T13:49:50Z</time>
      </trkpt>
      <trkpt lat="43.09996" lon="0.23625">
        <ele>422.8</ele>
        <time>2020-06-30T13:49:51Z</time>
      </trkpt>
      <trkpt lat="43.09994" lon="0.23623">
        <ele>422.8</ele>
        <time>2020-06-30T13:49:52Z</time>
      </trkpt>
      <trkpt lat="43.09994" lon="0.23623">
        <ele>422.8</ele>
        <time>2020-06-30T13:49:53Z</time>
      </trkpt>
      <trkpt lat="43.09992" lon="0.23621">
        <ele>423</ele>
        <time>2020-06-30T13:49:54Z</time>
      </trkpt>
      <trkpt lat="43.09991" lon="0.23618">
        <ele>423</ele>
        <time>2020-06-30T13:49:55Z</time>
      </trkpt>
      <trkpt lat="43.0999" lon="0.23616">
        <ele>423.2</ele>
        <time>2020-06-30T13:49:56Z</time>
      </trkpt>
      <trkpt lat="43.09989" lon="0.23614">
        <ele>423.2</ele>
        <time>2020-06-30T13:49:57Z</time>
      </trkpt>
      <trkpt lat="43.09989" lon="0.23613">
        <ele>423.4</ele>
        <time>2020-06-30T13:49:58Z</time>
      </trkpt>
      <trkpt lat="43.09987" lon="0.23612">
        <ele>423.4</ele>
        <time>2020-06-30T13:49:59Z</time>
      </trkpt>
      <trkpt lat="43.09986" lon="0.23611">
        <ele>423.6</ele>
        <time>2020-06-30T13:50:00Z</time>
      </trkpt>
      <trkpt lat="43.09985" lon="0.2361">
        <ele>423.8</ele>
        <time>2020-06-30T13:50:01Z</time>
      </trkpt>
      <trkpt lat="43.09984" lon="0.23609">
        <ele>423.8</ele>
        <time>2020-06-30T13:50:02Z</time>
      </trkpt>
      <trkpt lat="43.09982" lon="0.23608">
        <ele>424</ele>
        <time>2020-06-30T13:50:03Z</time>
      </trkpt>
      <trkpt lat="43.09981" lon="0.23606">
        <ele>424</ele>
        <time>2020-06-30T13:50:04Z</time>
      </trkpt>
      <trkpt lat="43.0998" lon="0.23605">
        <ele>424.2</ele>
        <time>2020-06-30T13:50:05Z</time>
      </trkpt>
      <trkpt lat="43.0998" lon="0.23604">
        <ele>424.4</ele>
        <time>2020-06-30T13:50:06Z</time>
      </trkpt>
      <trkpt lat="43.09979" lon="0.23602">
        <ele>424.4</ele>
        <time>2020-06-30T13:50:07Z</time>
      </trkpt>
      <trkpt lat="43.09979" lon="0.23601">
        <ele>424.6</ele>
        <time>2020-06-30T13:50:08Z</time>
      </trkpt>
      <trkpt lat="43.09978" lon="0.23601">
        <ele>424.6</ele>
        <time>2020-06-30T13:50:09Z</time>
      </trkpt>
      <trkpt lat="43.09977" lon="0.23599">
        <ele>424.8</ele>
        <time>2020-06-30T13:50:10Z</time>
      </trkpt>
      <trkpt lat="43.09976" lon="0.23597">
        <ele>425</ele>
        <time>2020-06-30T13:50:11Z</time>
      </trkpt>
      <trkpt lat="43.09975" lon="0.23596">
        <ele>425.2</ele>
        <time>2020-06-30T13:50:12Z</time>
      </trkpt>
      <trkpt lat="43.09974" lon="0.23595">
        <ele>425.2</ele>
        <time>2020-06-30T13:50:13Z</time>
      </trkpt>
      <trkpt lat="43.09972" lon="0.23593">
        <ele>425.4</ele>
        <time>2020-06-30T13:50:14Z</time>
      </trkpt>
      <trkpt lat="43.09971" lon="0.23592">
        <ele>425.4</ele>
        <time>2020-06-30T13:50:15Z</time>
      </trkpt>
      <trkpt lat="43.0997" lon="0.2359">
        <ele>425.2</ele>
        <time>2020-06-30T13:50:16Z</time>
      </trkpt>
      <trkpt lat="43.09969" lon="0.23588">
        <ele>425.6</ele>
        <time>2020-06-30T13:50:17Z</time>
      </trkpt>
      <trkpt lat="43.09968" lon="0.23587">
        <ele>425.8</ele>
        <time>2020-06-30T13:50:18Z</time>
      </trkpt>
      <trkpt lat="43.09967" lon="0.23586">
        <ele>426.6</ele>
        <time>2020-06-30T13:50:19Z</time>
      </trkpt>
      <trkpt lat="43.09967" lon="0.23585">
        <ele>426.4</ele>
        <time>2020-06-30T13:50:20Z</time>
      </trkpt>
      <trkpt lat="43.09967" lon="0.23584">
        <ele>426.4</ele>
        <time>2020-06-30T13:50:21Z</time>
      </trkpt>
      <trkpt lat="43.09965" lon="0.23583">
        <ele>426.6</ele>
        <time>2020-06-30T13:50:22Z</time>
      </trkpt>
      <trkpt lat="43.09964" lon="0.23582">
        <ele>426.8</ele>
        <time>2020-06-30T13:50:23Z</time>
      </trkpt>
      <trkpt lat="43.09963" lon="0.2358">
        <ele>427</ele>
        <time>2020-06-30T13:50:24Z</time>
      </trkpt>
      <trkpt lat="43.09963" lon="0.23579">
        <ele>427</ele>
        <time>2020-06-30T13:50:25Z</time>
      </trkpt>
      <trkpt lat="43.09962" lon="0.23578">
        <ele>427.2</ele>
        <time>2020-06-30T13:50:26Z</time>
      </trkpt>
      <trkpt lat="43.0996" lon="0.23576">
        <ele>427.2</ele>
        <time>2020-06-30T13:50:27Z</time>
      </trkpt>
      <trkpt lat="43.09959" lon="0.23575">
        <ele>427.4</ele>
        <time>2020-06-30T13:50:28Z</time>
      </trkpt>
      <trkpt lat="43.09958" lon="0.23573">
        <ele>427.6</ele>
        <time>2020-06-30T13:50:29Z</time>
      </trkpt>
      <trkpt lat="43.09957" lon="0.23572">
        <ele>427.6</ele>
        <time>2020-06-30T13:50:30Z</time>
      </trkpt>
      <trkpt lat="43.09955" lon="0.2357">
        <ele>427.8</ele>
        <time>2020-06-30T13:50:31Z</time>
      </trkpt>
      <trkpt lat="43.09953" lon="0.23567">
        <ele>427.8</ele>
        <time>2020-06-30T13:50:32Z</time>
      </trkpt>
      <trkpt lat="43.09951" lon="0.23566">
        <ele>428</ele>
        <time>2020-06-30T13:50:33Z</time>
      </trkpt>
      <trkpt lat="43.0995" lon="0.23564">
        <ele>428.2</ele>
        <time>2020-06-30T13:50:34Z</time>
      </trkpt>
      <trkpt lat="43.09947" lon="0.23563">
        <ele>428.2</ele>
        <time>2020-06-30T13:50:35Z</time>
      </trkpt>
      <trkpt lat="43.09947" lon="0.23561">
        <ele>428.4</ele>
        <time>2020-06-30T13:50:36Z</time>
      </trkpt>
      <trkpt lat="43.09945" lon="0.2356">
        <ele>428.4</ele>
        <time>2020-06-30T13:50:37Z</time>
      </trkpt>
      <trkpt lat="43.09944" lon="0.23558">
        <ele>428.6</ele>
        <time>2020-06-30T13:50:38Z</time>
      </trkpt>
      <trkpt lat="43.09944" lon="0.23557">
        <ele>428.6</ele>
        <time>2020-06-30T13:50:39Z</time>
      </trkpt>
      <trkpt lat="43.09943" lon="0.23556">
        <ele>428.8</ele>
        <time>2020-06-30T13:50:40Z</time>
      </trkpt>
      <trkpt lat="43.09943" lon="0.23555">
        <ele>429</ele>
        <time>2020-06-30T13:50:41Z</time>
      </trkpt>
      <trkpt lat="43.09942" lon="0.23553">
        <ele>429</ele>
        <time>2020-06-30T13:50:42Z</time>
      </trkpt>
      <trkpt lat="43.09942" lon="0.23553">
        <ele>429.2</ele>
        <time>2020-06-30T13:50:43Z</time>
      </trkpt>
      <trkpt lat="43.09941" lon="0.23551">
        <ele>429.4</ele>
        <time>2020-06-30T13:50:44Z</time>
      </trkpt>
      <trkpt lat="43.0994" lon="0.23551">
        <ele>429.6</ele>
        <time>2020-06-30T13:50:45Z</time>
      </trkpt>
      <trkpt lat="43.09939" lon="0.2355">
        <ele>429.8</ele>
        <time>2020-06-30T13:50:46Z</time>
      </trkpt>
      <trkpt lat="43.09938" lon="0.2355">
        <ele>429.8</ele>
        <time>2020-06-30T13:50:47Z</time>
      </trkpt>
      <trkpt lat="43.09938" lon="0.2355">
        <ele>430</ele>
        <time>2020-06-30T13:50:48Z</time>
      </trkpt>
      <trkpt lat="43.09939" lon="0.23546">
        <ele>430.2</ele>
        <time>2020-06-30T13:50:49Z</time>
      </trkpt>
      <trkpt lat="43.09938" lon="0.23544">
        <ele>430.4</ele>
        <time>2020-06-30T13:50:50Z</time>
      </trkpt>
      <trkpt lat="43.09936" lon="0.23543">
        <ele>430.4</ele>
        <time>2020-06-30T13:50:51Z</time>
      </trkpt>
      <trkpt lat="43.09936" lon="0.23543">
        <ele>430.6</ele>
        <time>2020-06-30T13:50:52Z</time>
      </trkpt>
      <trkpt lat="43.09932" lon="0.23543">
        <ele>430.8</ele>
        <time>2020-06-30T13:50:53Z</time>
      </trkpt>
      <trkpt lat="43.09931" lon="0.23542">
        <ele>430.8</ele>
        <time>2020-06-30T13:50:54Z</time>
      </trkpt>
      <trkpt lat="43.0993" lon="0.23541">
        <ele>431</ele>
        <time>2020-06-30T13:50:55Z</time>
      </trkpt>
      <trkpt lat="43.09929" lon="0.2354">
        <ele>431.2</ele>
        <time>2020-06-30T13:50:56Z</time>
      </trkpt>
      <trkpt lat="43.09928" lon="0.23538">
        <ele>431.2</ele>
        <time>2020-06-30T13:50:57Z</time>
      </trkpt>
      <trkpt lat="43.09927" lon="0.23538">
        <ele>431.4</ele>
        <time>2020-06-30T13:50:58Z</time>
      </trkpt>
      <trkpt lat="43.09926" lon="0.23537">
        <ele>431.6</ele>
        <time>2020-06-30T13:50:59Z</time>
      </trkpt>
      <trkpt lat="43.09925" lon="0.23537">
        <ele>431.6</ele>
        <time>2020-06-30T13:51:00Z</time>
      </trkpt>
      <trkpt lat="43.09925" lon="0.23537">
        <ele>431.8</ele>
        <time>2020-06-30T13:51:01Z</time>
      </trkpt>
      <trkpt lat="43.09923" lon="0.23535">
        <ele>432</ele>
        <time>2020-06-30T13:51:02Z</time>
      </trkpt>
      <trkpt lat="43.09923" lon="0.23535">
        <ele>432.2</ele>
        <time>2020-06-30T13:51:03Z</time>
      </trkpt>
      <trkpt lat="43.09922" lon="0.23535">
        <ele>432.2</ele>
        <time>2020-06-30T13:51:04Z</time>
      </trkpt>
      <trkpt lat="43.0992" lon="0.23534">
        <ele>432.4</ele>
        <time>2020-06-30T13:51:05Z</time>
      </trkpt>
      <trkpt lat="43.09919" lon="0.23533">
        <ele>432.6</ele>
        <time>2020-06-30T13:51:06Z</time>
      </trkpt>
      <trkpt lat="43.09918" lon="0.23533">
        <ele>432.6</ele>
        <time>2020-06-30T13:51:07Z</time>
      </trkpt>
      <trkpt lat="43.09917" lon="0.23533">
        <ele>432.8</ele>
        <time>2020-06-30T13:51:08Z</time>
      </trkpt>
      <trkpt lat="43.09916" lon="0.23531">
        <ele>433</ele>
        <time>2020-06-30T13:51:09Z</time>
      </trkpt>
      <trkpt lat="43.09916" lon="0.2353">
        <ele>433</ele>
        <time>2020-06-30T13:51:10Z</time>
      </trkpt>
      <trkpt lat="43.09915" lon="0.23528">
        <ele>433.2</ele>
        <time>2020-06-30T13:51:11Z</time>
      </trkpt>
      <trkpt lat="43.09914" lon="0.23527">
        <ele>433.4</ele>
        <time>2020-06-30T13:51:12Z</time>
      </trkpt>
      <trkpt lat="43.09913" lon="0.23527">
        <ele>433.6</ele>
        <time>2020-06-30T13:51:13Z</time>
      </trkpt>
      <trkpt lat="43.09912" lon="0.23525">
        <ele>433.6</ele>
        <time>2020-06-30T13:51:14Z</time>
      </trkpt>
      <trkpt lat="43.09911" lon="0.23525">
        <ele>433.8</ele>
        <time>2020-06-30T13:51:15Z</time>
      </trkpt>
      <trkpt lat="43.0991" lon="0.23523">
        <ele>434</ele>
        <time>2020-06-30T13:51:16Z</time>
      </trkpt>
      <trkpt lat="43.09908" lon="0.23523">
        <ele>434.2</ele>
        <time>2020-06-30T13:51:17Z</time>
      </trkpt>
      <trkpt lat="43.09907" lon="0.23523">
        <ele>434.4</ele>
        <time>2020-06-30T13:51:18Z</time>
      </trkpt>
      <trkpt lat="43.09906" lon="0.23523">
        <ele>434.6</ele>
        <time>2020-06-30T13:51:19Z</time>
      </trkpt>
      <trkpt lat="43.09905" lon="0.23522">
        <ele>434.8</ele>
        <time>2020-06-30T13:51:20Z</time>
      </trkpt>
      <trkpt lat="43.09904" lon="0.23521">
        <ele>434.8</ele>
        <time>2020-06-30T13:51:21Z</time>
      </trkpt>
      <trkpt lat="43.09903" lon="0.2352">
        <ele>435</ele>
        <time>2020-06-30T13:51:22Z</time>
      </trkpt>
      <trkpt lat="43.09902" lon="0.2352">
        <ele>435.2</ele>
        <time>2020-06-30T13:51:23Z</time>
      </trkpt>
      <trkpt lat="43.09902" lon="0.2352">
        <ele>435.4</ele>
        <time>2020-06-30T13:51:24Z</time>
      </trkpt>
      <trkpt lat="43.09901" lon="0.23519">
        <ele>435.6</ele>
        <time>2020-06-30T13:51:25Z</time>
      </trkpt>
      <trkpt lat="43.099" lon="0.23519">
        <ele>435.8</ele>
        <time>2020-06-30T13:51:26Z</time>
      </trkpt>
      <trkpt lat="43.09899" lon="0.23518">
        <ele>436</ele>
        <time>2020-06-30T13:51:27Z</time>
      </trkpt>
      <trkpt lat="43.09896" lon="0.23518">
        <ele>436</ele>
        <time>2020-06-30T13:51:28Z</time>
      </trkpt>
      <trkpt lat="43.09895" lon="0.23517">
        <ele>436.2</ele>
        <time>2020-06-30T13:51:29Z</time>
      </trkpt>
      <trkpt lat="43.09893" lon="0.23517">
        <ele>436.2</ele>
        <time>2020-06-30T13:51:30Z</time>
      </trkpt>
      <trkpt lat="43.09893" lon="0.23516">
        <ele>436.4</ele>
        <time>2020-06-30T13:51:31Z</time>
      </trkpt>
      <trkpt lat="43.09891" lon="0.23516">
        <ele>436.6</ele>
        <time>2020-06-30T13:51:32Z</time>
      </trkpt>
      <trkpt lat="43.0989" lon="0.23516">
        <ele>436.8</ele>
        <time>2020-06-30T13:51:33Z</time>
      </trkpt>
      <trkpt lat="43.09889" lon="0.23516">
        <ele>437</ele>
        <time>2020-06-30T13:51:34Z</time>
      </trkpt>
      <trkpt lat="43.09889" lon="0.23516">
        <ele>437.2</ele>
        <time>2020-06-30T13:51:35Z</time>
      </trkpt>
      <trkpt lat="43.09888" lon="0.23516">
        <ele>437.4</ele>
        <time>2020-06-30T13:51:36Z</time>
      </trkpt>
      <trkpt lat="43.09887" lon="0.23516">
        <ele>437.4</ele>
        <time>2020-06-30T13:51:37Z</time>
      </trkpt>
      <trkpt lat="43.09887" lon="0.23517">
        <ele>437.6</ele>
        <time>2020-06-30T13:51:38Z</time>
      </trkpt>
      <trkpt lat="43.09886" lon="0.23517">
        <ele>437.8</ele>
        <time>2020-06-30T13:51:39Z</time>
      </trkpt>
      <trkpt lat="43.09884" lon="0.23517">
        <ele>438</ele>
        <time>2020-06-30T13:51:40Z</time>
      </trkpt>
      <trkpt lat="43.09883" lon="0.23517">
        <ele>438.2</ele>
        <time>2020-06-30T13:51:41Z</time>
      </trkpt>
      <trkpt lat="43.09883" lon="0.23517">
        <ele>438.4</ele>
        <time>2020-06-30T13:51:42Z</time>
      </trkpt>
      <trkpt lat="43.09882" lon="0.23516">
        <ele>438.6</ele>
        <time>2020-06-30T13:51:43Z</time>
      </trkpt>
      <trkpt lat="43.09881" lon="0.23516">
        <ele>438.8</ele>
        <time>2020-06-30T13:51:44Z</time>
      </trkpt>
      <trkpt lat="43.0988" lon="0.23515">
        <ele>438.8</ele>
        <time>2020-06-30T13:51:45Z</time>
      </trkpt>
      <trkpt lat="43.09879" lon="0.23515">
        <ele>439</ele>
        <time>2020-06-30T13:51:46Z</time>
      </trkpt>
      <trkpt lat="43.09879" lon="0.23515">
        <ele>439.2</ele>
        <time>2020-06-30T13:51:47Z</time>
      </trkpt>
      <trkpt lat="43.09877" lon="0.23515">
        <ele>439.4</ele>
        <time>2020-06-30T13:51:48Z</time>
      </trkpt>
      <trkpt lat="43.09876" lon="0.23515">
        <ele>439.6</ele>
        <time>2020-06-30T13:51:49Z</time>
      </trkpt>
      <trkpt lat="43.09875" lon="0.23516">
        <ele>439.6</ele>
        <time>2020-06-30T13:51:50Z</time>
      </trkpt>
      <trkpt lat="43.09875" lon="0.23515">
        <ele>439.8</ele>
        <time>2020-06-30T13:51:51Z</time>
      </trkpt>
      <trkpt lat="43.09875" lon="0.23515">
        <ele>440</ele>
        <time>2020-06-30T13:51:52Z</time>
      </trkpt>
      <trkpt lat="43.09874" lon="0.23514">
        <ele>440</ele>
        <time>2020-06-30T13:51:53Z</time>
      </trkpt>
      <trkpt lat="43.09873" lon="0.23513">
        <ele>440.2</ele>
        <time>2020-06-30T13:51:54Z</time>
      </trkpt>
      <trkpt lat="43.09871" lon="0.23513">
        <ele>440.4</ele>
        <time>2020-06-30T13:51:55Z</time>
      </trkpt>
      <trkpt lat="43.09869" lon="0.23514">
        <ele>440.6</ele>
        <time>2020-06-30T13:51:56Z</time>
      </trkpt>
      <trkpt lat="43.09869" lon="0.23513">
        <ele>440.8</ele>
        <time>2020-06-30T13:51:57Z</time>
      </trkpt>
      <trkpt lat="43.09868" lon="0.23512">
        <ele>440.8</ele>
        <time>2020-06-30T13:51:58Z</time>
      </trkpt>
      <trkpt lat="43.09866" lon="0.23512">
        <ele>441</ele>
        <time>2020-06-30T13:51:59Z</time>
      </trkpt>
      <trkpt lat="43.09866" lon="0.23511">
        <ele>441.2</ele>
        <time>2020-06-30T13:52:00Z</time>
      </trkpt>
      <trkpt lat="43.09865" lon="0.2351">
        <ele>441.4</ele>
        <time>2020-06-30T13:52:01Z</time>
      </trkpt>
      <trkpt lat="43.09864" lon="0.23509">
        <ele>441.4</ele>
        <time>2020-06-30T13:52:02Z</time>
      </trkpt>
      <trkpt lat="43.09864" lon="0.23508">
        <ele>441.6</ele>
        <time>2020-06-30T13:52:03Z</time>
      </trkpt>
      <trkpt lat="43.09864" lon="0.23508">
        <ele>441.8</ele>
        <time>2020-06-30T13:52:04Z</time>
      </trkpt>
      <trkpt lat="43.09863" lon="0.23508">
        <ele>442</ele>
        <time>2020-06-30T13:52:05Z</time>
      </trkpt>
      <trkpt lat="43.09862" lon="0.23507">
        <ele>442.2</ele>
        <time>2020-06-30T13:52:06Z</time>
      </trkpt>
      <trkpt lat="43.0986" lon="0.23506">
        <ele>442.4</ele>
        <time>2020-06-30T13:52:07Z</time>
      </trkpt>
      <trkpt lat="43.09859" lon="0.23506">
        <ele>442.4</ele>
        <time>2020-06-30T13:52:08Z</time>
      </trkpt>
      <trkpt lat="43.09858" lon="0.23505">
        <ele>442.6</ele>
        <time>2020-06-30T13:52:09Z</time>
      </trkpt>
      <trkpt lat="43.09858" lon="0.23504">
        <ele>442.6</ele>
        <time>2020-06-30T13:52:10Z</time>
      </trkpt>
      <trkpt lat="43.09857" lon="0.23503">
        <ele>442.8</ele>
        <time>2020-06-30T13:52:11Z</time>
      </trkpt>
      <trkpt lat="43.09857" lon="0.23502">
        <ele>443</ele>
        <time>2020-06-30T13:52:12Z</time>
      </trkpt>
      <trkpt lat="43.09856" lon="0.23501">
        <ele>443</ele>
        <time>2020-06-30T13:52:13Z</time>
      </trkpt>
      <trkpt lat="43.09854" lon="0.23501">
        <ele>443.2</ele>
        <time>2020-06-30T13:52:14Z</time>
      </trkpt>
      <trkpt lat="43.09853" lon="0.23501">
        <ele>443.4</ele>
        <time>2020-06-30T13:52:15Z</time>
      </trkpt>
      <trkpt lat="43.09852" lon="0.23501">
        <ele>443.4</ele>
        <time>2020-06-30T13:52:16Z</time>
      </trkpt>
      <trkpt lat="43.09852" lon="0.23499">
        <ele>443.6</ele>
        <time>2020-06-30T13:52:17Z</time>
      </trkpt>
      <trkpt lat="43.0985" lon="0.23498">
        <ele>443.6</ele>
        <time>2020-06-30T13:52:18Z</time>
      </trkpt>
      <trkpt lat="43.09849" lon="0.23498">
        <ele>443.8</ele>
        <time>2020-06-30T13:52:19Z</time>
      </trkpt>
      <trkpt lat="43.09848" lon="0.23496">
        <ele>443.8</ele>
        <time>2020-06-30T13:52:20Z</time>
      </trkpt>
      <trkpt lat="43.09847" lon="0.23494">
        <ele>444</ele>
        <time>2020-06-30T13:52:21Z</time>
      </trkpt>
      <trkpt lat="43.09847" lon="0.23493">
        <ele>444</ele>
        <time>2020-06-30T13:52:22Z</time>
      </trkpt>
      <trkpt lat="43.09846" lon="0.23491">
        <ele>444.2</ele>
        <time>2020-06-30T13:52:23Z</time>
      </trkpt>
      <trkpt lat="43.09845" lon="0.2349">
        <ele>444.4</ele>
        <time>2020-06-30T13:52:24Z</time>
      </trkpt>
      <trkpt lat="43.09844" lon="0.23489">
        <ele>444.4</ele>
        <time>2020-06-30T13:52:25Z</time>
      </trkpt>
      <trkpt lat="43.09843" lon="0.23488">
        <ele>444.6</ele>
        <time>2020-06-30T13:52:26Z</time>
      </trkpt>
      <trkpt lat="43.09843" lon="0.23486">
        <ele>444.8</ele>
        <time>2020-06-30T13:52:27Z</time>
      </trkpt>
      <trkpt lat="43.09843" lon="0.23485">
        <ele>445</ele>
        <time>2020-06-30T13:52:28Z</time>
      </trkpt>
      <trkpt lat="43.09843" lon="0.23484">
        <ele>445</ele>
        <time>2020-06-30T13:52:29Z</time>
      </trkpt>
      <trkpt lat="43.09844" lon="0.23482">
        <ele>445.2</ele>
        <time>2020-06-30T13:52:30Z</time>
      </trkpt>
      <trkpt lat="43.09844" lon="0.2348">
        <ele>445.2</ele>
        <time>2020-06-30T13:52:31Z</time>
      </trkpt>
      <trkpt lat="43.09844" lon="0.23479">
        <ele>445.4</ele>
        <time>2020-06-30T13:52:32Z</time>
      </trkpt>
      <trkpt lat="43.09843" lon="0.23478">
        <ele>445.4</ele>
        <time>2020-06-30T13:52:33Z</time>
      </trkpt>
      <trkpt lat="43.09842" lon="0.23476">
        <ele>445.6</ele>
        <time>2020-06-30T13:52:34Z</time>
      </trkpt>
      <trkpt lat="43.09841" lon="0.23474">
        <ele>445.6</ele>
        <time>2020-06-30T13:52:35Z</time>
      </trkpt>
      <trkpt lat="43.0984" lon="0.23473">
        <ele>445.8</ele>
        <time>2020-06-30T13:52:36Z</time>
      </trkpt>
      <trkpt lat="43.09839" lon="0.23472">
        <ele>446</ele>
        <time>2020-06-30T13:52:37Z</time>
      </trkpt>
      <trkpt lat="43.09839" lon="0.2347">
        <ele>446</ele>
        <time>2020-06-30T13:52:38Z</time>
      </trkpt>
      <trkpt lat="43.09839" lon="0.23468">
        <ele>446.2</ele>
        <time>2020-06-30T13:52:39Z</time>
      </trkpt>
      <trkpt lat="43.09838" lon="0.23467">
        <ele>446.2</ele>
        <time>2020-06-30T13:52:40Z</time>
      </trkpt>
      <trkpt lat="43.09838" lon="0.23466">
        <ele>446.4</ele>
        <time>2020-06-30T13:52:41Z</time>
      </trkpt>
      <trkpt lat="43.09837" lon="0.23464">
        <ele>446.6</ele>
        <time>2020-06-30T13:52:42Z</time>
      </trkpt>
      <trkpt lat="43.09837" lon="0.23463">
        <ele>446.6</ele>
        <time>2020-06-30T13:52:43Z</time>
      </trkpt>
      <trkpt lat="43.09837" lon="0.23463">
        <ele>446.8</ele>
        <time>2020-06-30T13:52:44Z</time>
      </trkpt>
      <trkpt lat="43.09836" lon="0.23461">
        <ele>447</ele>
        <time>2020-06-30T13:52:45Z</time>
      </trkpt>
      <trkpt lat="43.09836" lon="0.2346">
        <ele>447</ele>
        <time>2020-06-30T13:52:46Z</time>
      </trkpt>
      <trkpt lat="43.09835" lon="0.23459">
        <ele>447.2</ele>
        <time>2020-06-30T13:52:47Z</time>
      </trkpt>
      <trkpt lat="43.09835" lon="0.23458">
        <ele>447.4</ele>
        <time>2020-06-30T13:52:48Z</time>
      </trkpt>
      <trkpt lat="43.09835" lon="0.23457">
        <ele>447.6</ele>
        <time>2020-06-30T13:52:49Z</time>
      </trkpt>
      <trkpt lat="43.09835" lon="0.23454">
        <ele>447.8</ele>
        <time>2020-06-30T13:52:50Z</time>
      </trkpt>
      <trkpt lat="43.09835" lon="0.23453">
        <ele>447.8</ele>
        <time>2020-06-30T13:52:51Z</time>
      </trkpt>
      <trkpt lat="43.09835" lon="0.23451">
        <ele>448</ele>
        <time>2020-06-30T13:52:52Z</time>
      </trkpt>
      <trkpt lat="43.09834" lon="0.2345">
        <ele>448.2</ele>
        <time>2020-06-30T13:52:53Z</time>
      </trkpt>
      <trkpt lat="43.09833" lon="0.23448">
        <ele>448.4</ele>
        <time>2020-06-30T13:52:54Z</time>
      </trkpt>
      <trkpt lat="43.09833" lon="0.23447">
        <ele>448.6</ele>
        <time>2020-06-30T13:52:55Z</time>
      </trkpt>
      <trkpt lat="43.09832" lon="0.23446">
        <ele>448.8</ele>
        <time>2020-06-30T13:52:56Z</time>
      </trkpt>
      <trkpt lat="43.09831" lon="0.23444">
        <ele>448.8</ele>
        <time>2020-06-30T13:52:57Z</time>
      </trkpt>
      <trkpt lat="43.09831" lon="0.23442">
        <ele>449</ele>
        <time>2020-06-30T13:52:58Z</time>
      </trkpt>
      <trkpt lat="43.09831" lon="0.23441">
        <ele>449.2</ele>
        <time>2020-06-30T13:52:59Z</time>
      </trkpt>
      <trkpt lat="43.0983" lon="0.2344">
        <ele>449.2</ele>
        <time>2020-06-30T13:53:00Z</time>
      </trkpt>
      <trkpt lat="43.09829" lon="0.23438">
        <ele>449.4</ele>
        <time>2020-06-30T13:53:01Z</time>
      </trkpt>
      <trkpt lat="43.09828" lon="0.23437">
        <ele>449.6</ele>
        <time>2020-06-30T13:53:02Z</time>
      </trkpt>
      <trkpt lat="43.09828" lon="0.23435">
        <ele>449.8</ele>
        <time>2020-06-30T13:53:03Z</time>
      </trkpt>
      <trkpt lat="43.09827" lon="0.23434">
        <ele>450</ele>
        <time>2020-06-30T13:53:04Z</time>
      </trkpt>
      <trkpt lat="43.09827" lon="0.23432">
        <ele>450.2</ele>
        <time>2020-06-30T13:53:05Z</time>
      </trkpt>
      <trkpt lat="43.09827" lon="0.23431">
        <ele>450.2</ele>
        <time>2020-06-30T13:53:06Z</time>
      </trkpt>
      <trkpt lat="43.09827" lon="0.2343">
        <ele>450.4</ele>
        <time>2020-06-30T13:53:07Z</time>
      </trkpt>
      <trkpt lat="43.09826" lon="0.23428">
        <ele>450.4</ele>
        <time>2020-06-30T13:53:08Z</time>
      </trkpt>
      <trkpt lat="43.09826" lon="0.23426">
        <ele>450.6</ele>
        <time>2020-06-30T13:53:09Z</time>
      </trkpt>
      <trkpt lat="43.09826" lon="0.23425">
        <ele>450.8</ele>
        <time>2020-06-30T13:53:10Z</time>
      </trkpt>
      <trkpt lat="43.09825" lon="0.23424">
        <ele>451</ele>
        <time>2020-06-30T13:53:11Z</time>
      </trkpt>
      <trkpt lat="43.09825" lon="0.23422">
        <ele>451</ele>
        <time>2020-06-30T13:53:12Z</time>
      </trkpt>
      <trkpt lat="43.09826" lon="0.23419">
        <ele>451.2</ele>
        <time>2020-06-30T13:53:13Z</time>
      </trkpt>
      <trkpt lat="43.09826" lon="0.23417">
        <ele>451.4</ele>
        <time>2020-06-30T13:53:14Z</time>
      </trkpt>
      <trkpt lat="43.09826" lon="0.23414">
        <ele>451.6</ele>
        <time>2020-06-30T13:53:15Z</time>
      </trkpt>
      <trkpt lat="43.09827" lon="0.23411">
        <ele>452</ele>
        <time>2020-06-30T13:53:16Z</time>
      </trkpt>
      <trkpt lat="43.09826" lon="0.23409">
        <ele>452.2</ele>
        <time>2020-06-30T13:53:17Z</time>
      </trkpt>
      <trkpt lat="43.09827" lon="0.23407">
        <ele>452.4</ele>
        <time>2020-06-30T13:53:18Z</time>
      </trkpt>
      <trkpt lat="43.09826" lon="0.23406">
        <ele>452.6</ele>
        <time>2020-06-30T13:53:19Z</time>
      </trkpt>
      <trkpt lat="43.09826" lon="0.23405">
        <ele>452.8</ele>
        <time>2020-06-30T13:53:20Z</time>
      </trkpt>
      <trkpt lat="43.09826" lon="0.23403">
        <ele>452.8</ele>
        <time>2020-06-30T13:53:21Z</time>
      </trkpt>
      <trkpt lat="43.09826" lon="0.23402">
        <ele>453</ele>
        <time>2020-06-30T13:53:22Z</time>
      </trkpt>
      <trkpt lat="43.09825" lon="0.23401">
        <ele>453.2</ele>
        <time>2020-06-30T13:53:23Z</time>
      </trkpt>
      <trkpt lat="43.09825" lon="0.23399">
        <ele>453.4</ele>
        <time>2020-06-30T13:53:24Z</time>
      </trkpt>
      <trkpt lat="43.09825" lon="0.23398">
        <ele>453.4</ele>
        <time>2020-06-30T13:53:25Z</time>
      </trkpt>
      <trkpt lat="43.09826" lon="0.23396">
        <ele>453.6</ele>
        <time>2020-06-30T13:53:26Z</time>
      </trkpt>
      <trkpt lat="43.09825" lon="0.23395">
        <ele>453.8</ele>
        <time>2020-06-30T13:53:27Z</time>
      </trkpt>
      <trkpt lat="43.09826" lon="0.23394">
        <ele>454</ele>
        <time>2020-06-30T13:53:28Z</time>
      </trkpt>
      <trkpt lat="43.09826" lon="0.23392">
        <ele>454</ele>
        <time>2020-06-30T13:53:29Z</time>
      </trkpt>
      <trkpt lat="43.09826" lon="0.2339">
        <ele>454.2</ele>
        <time>2020-06-30T13:53:30Z</time>
      </trkpt>
      <trkpt lat="43.09824" lon="0.23387">
        <ele>454.4</ele>
        <time>2020-06-30T13:53:31Z</time>
      </trkpt>
      <trkpt lat="43.09824" lon="0.23385">
        <ele>454.4</ele>
        <time>2020-06-30T13:53:32Z</time>
      </trkpt>
      <trkpt lat="43.09825" lon="0.23382">
        <ele>454.6</ele>
        <time>2020-06-30T13:53:33Z</time>
      </trkpt>
      <trkpt lat="43.09825" lon="0.23379">
        <ele>454.8</ele>
        <time>2020-06-30T13:53:34Z</time>
      </trkpt>
      <trkpt lat="43.09825" lon="0.23376">
        <ele>455</ele>
        <time>2020-06-30T13:53:35Z</time>
      </trkpt>
      <trkpt lat="43.09826" lon="0.23374">
        <ele>455.2</ele>
        <time>2020-06-30T13:53:36Z</time>
      </trkpt>
      <trkpt lat="43.09825" lon="0.23372">
        <ele>455.2</ele>
        <time>2020-06-30T13:53:37Z</time>
      </trkpt>
      <trkpt lat="43.09825" lon="0.23369">
        <ele>455.4</ele>
        <time>2020-06-30T13:53:38Z</time>
      </trkpt>
      <trkpt lat="43.09825" lon="0.23367">
        <ele>455.4</ele>
        <time>2020-06-30T13:53:39Z</time>
      </trkpt>
      <trkpt lat="43.09825" lon="0.23365">
        <ele>455.6</ele>
        <time>2020-06-30T13:53:40Z</time>
      </trkpt>
      <trkpt lat="43.09825" lon="0.23362">
        <ele>455.8</ele>
        <time>2020-06-30T13:53:41Z</time>
      </trkpt>
      <trkpt lat="43.09824" lon="0.2336">
        <ele>456</ele>
        <time>2020-06-30T13:53:42Z</time>
      </trkpt>
      <trkpt lat="43.09824" lon="0.23358">
        <ele>456.2</ele>
        <time>2020-06-30T13:53:43Z</time>
      </trkpt>
      <trkpt lat="43.09824" lon="0.23357">
        <ele>456.2</ele>
        <time>2020-06-30T13:53:44Z</time>
      </trkpt>
      <trkpt lat="43.09825" lon="0.23355">
        <ele>456.2</ele>
        <time>2020-06-30T13:53:45Z</time>
      </trkpt>
      <trkpt lat="43.09826" lon="0.23354">
        <ele>456.4</ele>
        <time>2020-06-30T13:53:46Z</time>
      </trkpt>
      <trkpt lat="43.09826" lon="0.23352">
        <ele>456.6</ele>
        <time>2020-06-30T13:53:47Z</time>
      </trkpt>
      <trkpt lat="43.09827" lon="0.23351">
        <ele>456.8</ele>
        <time>2020-06-30T13:53:48Z</time>
      </trkpt>
      <trkpt lat="43.09827" lon="0.23349">
        <ele>456.8</ele>
        <time>2020-06-30T13:53:49Z</time>
      </trkpt>
      <trkpt lat="43.09827" lon="0.23347">
        <ele>457</ele>
        <time>2020-06-30T13:53:50Z</time>
      </trkpt>
      <trkpt lat="43.09827" lon="0.23344">
        <ele>457.2</ele>
        <time>2020-06-30T13:53:51Z</time>
      </trkpt>
      <trkpt lat="43.09828" lon="0.23342">
        <ele>457.2</ele>
        <time>2020-06-30T13:53:52Z</time>
      </trkpt>
      <trkpt lat="43.09828" lon="0.2334">
        <ele>457.4</ele>
        <time>2020-06-30T13:53:53Z</time>
      </trkpt>
      <trkpt lat="43.09828" lon="0.23339">
        <ele>457.6</ele>
        <time>2020-06-30T13:53:54Z</time>
      </trkpt>
      <trkpt lat="43.09829" lon="0.23337">
        <ele>457.8</ele>
        <time>2020-06-30T13:53:55Z</time>
      </trkpt>
      <trkpt lat="43.09829" lon="0.23335">
        <ele>457.8</ele>
        <time>2020-06-30T13:53:56Z</time>
      </trkpt>
      <trkpt lat="43.09829" lon="0.23333">
        <ele>458</ele>
        <time>2020-06-30T13:53:57Z</time>
      </trkpt>
      <trkpt lat="43.09828" lon="0.23331">
        <ele>458.2</ele>
        <time>2020-06-30T13:53:58Z</time>
      </trkpt>
      <trkpt lat="43.09829" lon="0.23329">
        <ele>458.4</ele>
        <time>2020-06-30T13:53:59Z</time>
      </trkpt>
      <trkpt lat="43.09828" lon="0.23327">
        <ele>458.4</ele>
        <time>2020-06-30T13:54:00Z</time>
      </trkpt>
      <trkpt lat="43.09828" lon="0.23326">
        <ele>458.6</ele>
        <time>2020-06-30T13:54:01Z</time>
      </trkpt>
      <trkpt lat="43.09827" lon="0.23324">
        <ele>458.8</ele>
        <time>2020-06-30T13:54:02Z</time>
      </trkpt>
      <trkpt lat="43.09826" lon="0.23322">
        <ele>458.8</ele>
        <time>2020-06-30T13:54:03Z</time>
      </trkpt>
      <trkpt lat="43.09825" lon="0.23319">
        <ele>459</ele>
        <time>2020-06-30T13:54:04Z</time>
      </trkpt>
      <trkpt lat="43.09825" lon="0.23317">
        <ele>459.2</ele>
        <time>2020-06-30T13:54:05Z</time>
      </trkpt>
      <trkpt lat="43.09824" lon="0.23317">
        <ele>459.4</ele>
        <time>2020-06-30T13:54:06Z</time>
      </trkpt>
      <trkpt lat="43.09824" lon="0.23315">
        <ele>459.6</ele>
        <time>2020-06-30T13:54:07Z</time>
      </trkpt>
      <trkpt lat="43.09824" lon="0.23313">
        <ele>459.6</ele>
        <time>2020-06-30T13:54:08Z</time>
      </trkpt>
      <trkpt lat="43.09824" lon="0.23311">
        <ele>459.8</ele>
        <time>2020-06-30T13:54:09Z</time>
      </trkpt>
      <trkpt lat="43.09823" lon="0.23309">
        <ele>460</ele>
        <time>2020-06-30T13:54:10Z</time>
      </trkpt>
      <trkpt lat="43.09824" lon="0.23307">
        <ele>460.2</ele>
        <time>2020-06-30T13:54:11Z</time>
      </trkpt>
      <trkpt lat="43.09825" lon="0.23306">
        <ele>460.4</ele>
        <time>2020-06-30T13:54:12Z</time>
      </trkpt>
      <trkpt lat="43.09826" lon="0.23303">
        <ele>460.4</ele>
        <time>2020-06-30T13:54:13Z</time>
      </trkpt>
      <trkpt lat="43.09826" lon="0.23302">
        <ele>460.6</ele>
        <time>2020-06-30T13:54:14Z</time>
      </trkpt>
      <trkpt lat="43.09825" lon="0.233">
        <ele>460.8</ele>
        <time>2020-06-30T13:54:15Z</time>
      </trkpt>
      <trkpt lat="43.09825" lon="0.23297">
        <ele>461</ele>
        <time>2020-06-30T13:54:16Z</time>
      </trkpt>
      <trkpt lat="43.09825" lon="0.23295">
        <ele>461.2</ele>
        <time>2020-06-30T13:54:17Z</time>
      </trkpt>
      <trkpt lat="43.09825" lon="0.23292">
        <ele>461.2</ele>
        <time>2020-06-30T13:54:18Z</time>
      </trkpt>
      <trkpt lat="43.09826" lon="0.23291">
        <ele>461.4</ele>
        <time>2020-06-30T13:54:19Z</time>
      </trkpt>
      <trkpt lat="43.09824" lon="0.2329">
        <ele>461.6</ele>
        <time>2020-06-30T13:54:20Z</time>
      </trkpt>
      <trkpt lat="43.09825" lon="0.23287">
        <ele>461.8</ele>
        <time>2020-06-30T13:54:21Z</time>
      </trkpt>
      <trkpt lat="43.09827" lon="0.23284">
        <ele>461.8</ele>
        <time>2020-06-30T13:54:22Z</time>
      </trkpt>
      <trkpt lat="43.09827" lon="0.23283">
        <ele>462</ele>
        <time>2020-06-30T13:54:23Z</time>
      </trkpt>
      <trkpt lat="43.09828" lon="0.2328">
        <ele>462.2</ele>
        <time>2020-06-30T13:54:24Z</time>
      </trkpt>
      <trkpt lat="43.09827" lon="0.23278">
        <ele>462.4</ele>
        <time>2020-06-30T13:54:25Z</time>
      </trkpt>
      <trkpt lat="43.09828" lon="0.23276">
        <ele>462.6</ele>
        <time>2020-06-30T13:54:26Z</time>
      </trkpt>
      <trkpt lat="43.09826" lon="0.23273">
        <ele>462.6</ele>
        <time>2020-06-30T13:54:27Z</time>
      </trkpt>
      <trkpt lat="43.09827" lon="0.23272">
        <ele>462.8</ele>
        <time>2020-06-30T13:54:28Z</time>
      </trkpt>
      <trkpt lat="43.09827" lon="0.2327">
        <ele>463</ele>
        <time>2020-06-30T13:54:29Z</time>
      </trkpt>
      <trkpt lat="43.09826" lon="0.23268">
        <ele>463.2</ele>
        <time>2020-06-30T13:54:30Z</time>
      </trkpt>
      <trkpt lat="43.09826" lon="0.23266">
        <ele>463.2</ele>
        <time>2020-06-30T13:54:31Z</time>
      </trkpt>
      <trkpt lat="43.09827" lon="0.23264">
        <ele>463.4</ele>
        <time>2020-06-30T13:54:32Z</time>
      </trkpt>
      <trkpt lat="43.09826" lon="0.23261">
        <ele>463.6</ele>
        <time>2020-06-30T13:54:33Z</time>
      </trkpt>
      <trkpt lat="43.09826" lon="0.23259">
        <ele>463.6</ele>
        <time>2020-06-30T13:54:34Z</time>
      </trkpt>
      <trkpt lat="43.09826" lon="0.23257">
        <ele>463.8</ele>
        <time>2020-06-30T13:54:35Z</time>
      </trkpt>
      <trkpt lat="43.09826" lon="0.23254">
        <ele>464</ele>
        <time>2020-06-30T13:54:36Z</time>
      </trkpt>
      <trkpt lat="43.09825" lon="0.23252">
        <ele>464.2</ele>
        <time>2020-06-30T13:54:37Z</time>
      </trkpt>
      <trkpt lat="43.09824" lon="0.2325">
        <ele>464.4</ele>
        <time>2020-06-30T13:54:38Z</time>
      </trkpt>
      <trkpt lat="43.09824" lon="0.23248">
        <ele>464.4</ele>
        <time>2020-06-30T13:54:39Z</time>
      </trkpt>
      <trkpt lat="43.09823" lon="0.23246">
        <ele>464.6</ele>
        <time>2020-06-30T13:54:40Z</time>
      </trkpt>
      <trkpt lat="43.09823" lon="0.23244">
        <ele>464.8</ele>
        <time>2020-06-30T13:54:41Z</time>
      </trkpt>
      <trkpt lat="43.09823" lon="0.23242">
        <ele>465</ele>
        <time>2020-06-30T13:54:42Z</time>
      </trkpt>
      <trkpt lat="43.09823" lon="0.23241">
        <ele>465</ele>
        <time>2020-06-30T13:54:43Z</time>
      </trkpt>
      <trkpt lat="43.09823" lon="0.23239">
        <ele>465.2</ele>
        <time>2020-06-30T13:54:44Z</time>
      </trkpt>
      <trkpt lat="43.09823" lon="0.23237">
        <ele>465.4</ele>
        <time>2020-06-30T13:54:45Z</time>
      </trkpt>
      <trkpt lat="43.09823" lon="0.23237">
        <ele>465.6</ele>
        <time>2020-06-30T13:54:46Z</time>
      </trkpt>
      <trkpt lat="43.09823" lon="0.23235">
        <ele>465.6</ele>
        <time>2020-06-30T13:54:47Z</time>
      </trkpt>
      <trkpt lat="43.09823" lon="0.23233">
        <ele>465.8</ele>
        <time>2020-06-30T13:54:48Z</time>
      </trkpt>
      <trkpt lat="43.09822" lon="0.23231">
        <ele>466</ele>
        <time>2020-06-30T13:54:49Z</time>
      </trkpt>
      <trkpt lat="43.09823" lon="0.23229">
        <ele>466.2</ele>
        <time>2020-06-30T13:54:50Z</time>
      </trkpt>
      <trkpt lat="43.09822" lon="0.23225">
        <ele>466.2</ele>
        <time>2020-06-30T13:54:51Z</time>
      </trkpt>
      <trkpt lat="43.09823" lon="0.23223">
        <ele>466.4</ele>
        <time>2020-06-30T13:54:52Z</time>
      </trkpt>
      <trkpt lat="43.09822" lon="0.23221">
        <ele>466.6</ele>
        <time>2020-06-30T13:54:53Z</time>
      </trkpt>
      <trkpt lat="43.09822" lon="0.2322">
        <ele>466.8</ele>
        <time>2020-06-30T13:54:54Z</time>
      </trkpt>
      <trkpt lat="43.09821" lon="0.23218">
        <ele>467</ele>
        <time>2020-06-30T13:54:55Z</time>
      </trkpt>
      <trkpt lat="43.09821" lon="0.23217">
        <ele>467.2</ele>
        <time>2020-06-30T13:54:56Z</time>
      </trkpt>
      <trkpt lat="43.0982" lon="0.23215">
        <ele>467.2</ele>
        <time>2020-06-30T13:54:57Z</time>
      </trkpt>
      <trkpt lat="43.09819" lon="0.23213">
        <ele>467.4</ele>
        <time>2020-06-30T13:54:58Z</time>
      </trkpt>
      <trkpt lat="43.09818" lon="0.2321">
        <ele>467.4</ele>
        <time>2020-06-30T13:54:59Z</time>
      </trkpt>
      <trkpt lat="43.09817" lon="0.23208">
        <ele>467.6</ele>
        <time>2020-06-30T13:55:00Z</time>
      </trkpt>
      <trkpt lat="43.09816" lon="0.23205">
        <ele>467.8</ele>
        <time>2020-06-30T13:55:01Z</time>
      </trkpt>
      <trkpt lat="43.09815" lon="0.23202">
        <ele>468</ele>
        <time>2020-06-30T13:55:02Z</time>
      </trkpt>
      <trkpt lat="43.09815" lon="0.232">
        <ele>468.2</ele>
        <time>2020-06-30T13:55:03Z</time>
      </trkpt>
      <trkpt lat="43.09814" lon="0.23197">
        <ele>468.4</ele>
        <time>2020-06-30T13:55:04Z</time>
      </trkpt>
      <trkpt lat="43.09813" lon="0.23195">
        <ele>468.4</ele>
        <time>2020-06-30T13:55:05Z</time>
      </trkpt>
      <trkpt lat="43.09812" lon="0.23194">
        <ele>468.6</ele>
        <time>2020-06-30T13:55:06Z</time>
      </trkpt>
      <trkpt lat="43.09813" lon="0.23192">
        <ele>468.8</ele>
        <time>2020-06-30T13:55:07Z</time>
      </trkpt>
      <trkpt lat="43.09813" lon="0.2319">
        <ele>469</ele>
        <time>2020-06-30T13:55:08Z</time>
      </trkpt>
      <trkpt lat="43.09813" lon="0.23188">
        <ele>469</ele>
        <time>2020-06-30T13:55:09Z</time>
      </trkpt>
      <trkpt lat="43.09813" lon="0.23187">
        <ele>469.2</ele>
        <time>2020-06-30T13:55:10Z</time>
      </trkpt>
      <trkpt lat="43.09811" lon="0.23185">
        <ele>469.4</ele>
        <time>2020-06-30T13:55:11Z</time>
      </trkpt>
      <trkpt lat="43.09812" lon="0.23184">
        <ele>469.4</ele>
        <time>2020-06-30T13:55:12Z</time>
      </trkpt>
      <trkpt lat="43.09812" lon="0.23183">
        <ele>469.6</ele>
        <time>2020-06-30T13:55:13Z</time>
      </trkpt>
      <trkpt lat="43.09812" lon="0.23181">
        <ele>469.8</ele>
        <time>2020-06-30T13:55:14Z</time>
      </trkpt>
      <trkpt lat="43.09811" lon="0.23179">
        <ele>469.8</ele>
        <time>2020-06-30T13:55:15Z</time>
      </trkpt>
      <trkpt lat="43.09811" lon="0.23176">
        <ele>469.8</ele>
        <time>2020-06-30T13:55:16Z</time>
      </trkpt>
      <trkpt lat="43.09811" lon="0.23174">
        <ele>470</ele>
        <time>2020-06-30T13:55:17Z</time>
      </trkpt>
      <trkpt lat="43.09811" lon="0.23172">
        <ele>470.2</ele>
        <time>2020-06-30T13:55:18Z</time>
      </trkpt>
      <trkpt lat="43.09811" lon="0.2317">
        <ele>470</ele>
        <time>2020-06-30T13:55:19Z</time>
      </trkpt>
      <trkpt lat="43.09811" lon="0.23168">
        <ele>470</ele>
        <time>2020-06-30T13:55:20Z</time>
      </trkpt>
      <trkpt lat="43.09812" lon="0.23165">
        <ele>470.2</ele>
        <time>2020-06-30T13:55:21Z</time>
      </trkpt>
      <trkpt lat="43.09812" lon="0.23163">
        <ele>470.2</ele>
        <time>2020-06-30T13:55:22Z</time>
      </trkpt>
      <trkpt lat="43.09812" lon="0.23161">
        <ele>470.2</ele>
        <time>2020-06-30T13:55:23Z</time>
      </trkpt>
      <trkpt lat="43.09813" lon="0.23158">
        <ele>470.2</ele>
        <time>2020-06-30T13:55:24Z</time>
      </trkpt>
      <trkpt lat="43.09813" lon="0.23156">
        <ele>470.2</ele>
        <time>2020-06-30T13:55:25Z</time>
      </trkpt>
      <trkpt lat="43.09813" lon="0.23153">
        <ele>470.2</ele>
        <time>2020-06-30T13:55:26Z</time>
      </trkpt>
      <trkpt lat="43.09814" lon="0.23151">
        <ele>470.2</ele>
        <time>2020-06-30T13:55:27Z</time>
      </trkpt>
      <trkpt lat="43.09815" lon="0.23149">
        <ele>470.2</ele>
        <time>2020-06-30T13:55:28Z</time>
      </trkpt>
      <trkpt lat="43.09816" lon="0.23147">
        <ele>470.2</ele>
        <time>2020-06-30T13:55:29Z</time>
      </trkpt>
      <trkpt lat="43.09816" lon="0.23144">
        <ele>470.2</ele>
        <time>2020-06-30T13:55:30Z</time>
      </trkpt>
      <trkpt lat="43.09816" lon="0.23142">
        <ele>470.4</ele>
        <time>2020-06-30T13:55:31Z</time>
      </trkpt>
      <trkpt lat="43.09816" lon="0.23141">
        <ele>470.2</ele>
        <time>2020-06-30T13:55:32Z</time>
      </trkpt>
      <trkpt lat="43.09816" lon="0.2314">
        <ele>470.4</ele>
        <time>2020-06-30T13:55:33Z</time>
      </trkpt>
      <trkpt lat="43.09816" lon="0.23138">
        <ele>470.4</ele>
        <time>2020-06-30T13:55:34Z</time>
      </trkpt>
      <trkpt lat="43.09816" lon="0.23138">
        <ele>470.4</ele>
        <time>2020-06-30T13:55:35Z</time>
      </trkpt>
      <trkpt lat="43.09817" lon="0.23137">
        <ele>470.4</ele>
        <time>2020-06-30T13:55:36Z</time>
      </trkpt>
      <trkpt lat="43.09817" lon="0.23136">
        <ele>470.4</ele>
        <time>2020-06-30T13:55:37Z</time>
      </trkpt>
      <trkpt lat="43.09817" lon="0.23136">
        <ele>470.4</ele>
        <time>2020-06-30T13:55:38Z</time>
      </trkpt>
      <trkpt lat="43.09818" lon="0.23135">
        <ele>470.4</ele>
        <time>2020-06-30T13:55:39Z</time>
      </trkpt>
      <trkpt lat="43.09817" lon="0.23136">
        <ele>470.4</ele>
        <time>2020-06-30T13:55:40Z</time>
      </trkpt>
      <trkpt lat="43.09817" lon="0.23136">
        <ele>470.4</ele>
        <time>2020-06-30T13:55:41Z</time>
      </trkpt>
      <trkpt lat="43.09817" lon="0.23136">
        <ele>470.4</ele>
        <time>2020-06-30T13:55:42Z</time>
      </trkpt>
      <trkpt lat="43.09817" lon="0.23135">
        <ele>470.4</ele>
        <time>2020-06-30T13:55:43Z</time>
      </trkpt>
      <trkpt lat="43.09816" lon="0.23135">
        <ele>470.4</ele>
        <time>2020-06-30T13:55:44Z</time>
      </trkpt>
      <trkpt lat="43.09812" lon="0.23126">
        <ele>470.8</ele>
        <time>2020-06-30T13:59:39Z</time>
      </trkpt>
      <trkpt lat="43.09812" lon="0.23123">
        <ele>470.6</ele>
        <time>2020-06-30T13:59:40Z</time>
      </trkpt>
      <trkpt lat="43.09813" lon="0.23119">
        <ele>470.6</ele>
        <time>2020-06-30T13:59:41Z</time>
      </trkpt>
      <trkpt lat="43.09812" lon="0.23116">
        <ele>470.6</ele>
        <time>2020-06-30T13:59:42Z</time>
      </trkpt>
      <trkpt lat="43.09813" lon="0.23113">
        <ele>470.6</ele>
        <time>2020-06-30T13:59:43Z</time>
      </trkpt>
      <trkpt lat="43.09814" lon="0.23109">
        <ele>470.6</ele>
        <time>2020-06-30T13:59:44Z</time>
      </trkpt>
      <trkpt lat="43.09815" lon="0.23106">
        <ele>470.4</ele>
        <time>2020-06-30T13:59:45Z</time>
      </trkpt>
      <trkpt lat="43.09816" lon="0.23102">
        <ele>470.4</ele>
        <time>2020-06-30T13:59:46Z</time>
      </trkpt>
      <trkpt lat="43.09816" lon="0.23098">
        <ele>470.6</ele>
        <time>2020-06-30T13:59:47Z</time>
      </trkpt>
      <trkpt lat="43.09816" lon="0.23093">
        <ele>470.4</ele>
        <time>2020-06-30T13:59:48Z</time>
      </trkpt>
      <trkpt lat="43.09818" lon="0.23089">
        <ele>470.4</ele>
        <time>2020-06-30T13:59:49Z</time>
      </trkpt>
      <trkpt lat="43.09817" lon="0.23084">
        <ele>470.2</ele>
        <time>2020-06-30T13:59:50Z</time>
      </trkpt>
      <trkpt lat="43.09816" lon="0.23078">
        <ele>470.2</ele>
        <time>2020-06-30T13:59:51Z</time>
      </trkpt>
      <trkpt lat="43.09816" lon="0.23072">
        <ele>470</ele>
        <time>2020-06-30T13:59:52Z</time>
      </trkpt>
      <trkpt lat="43.09815" lon="0.23067">
        <ele>470</ele>
        <time>2020-06-30T13:59:53Z</time>
      </trkpt>
      <trkpt lat="43.09815" lon="0.23063">
        <ele>470</ele>
        <time>2020-06-30T13:59:54Z</time>
      </trkpt>
      <trkpt lat="43.09817" lon="0.23058">
        <ele>469.8</ele>
        <time>2020-06-30T13:59:55Z</time>
      </trkpt>
      <trkpt lat="43.09818" lon="0.23053">
        <ele>469.8</ele>
        <time>2020-06-30T13:59:56Z</time>
      </trkpt>
      <trkpt lat="43.09818" lon="0.23047">
        <ele>469.6</ele>
        <time>2020-06-30T13:59:57Z</time>
      </trkpt>
      <trkpt lat="43.09818" lon="0.23042">
        <ele>469.4</ele>
        <time>2020-06-30T13:59:58Z</time>
      </trkpt>
      <trkpt lat="43.09817" lon="0.23037">
        <ele>469</ele>
        <time>2020-06-30T13:59:59Z</time>
      </trkpt>
      <trkpt lat="43.09817" lon="0.2303">
        <ele>468.8</ele>
        <time>2020-06-30T14:00:00Z</time>
      </trkpt>
      <trkpt lat="43.09817" lon="0.23022">
        <ele>468.4</ele>
        <time>2020-06-30T14:00:01Z</time>
      </trkpt>
      <trkpt lat="43.09818" lon="0.23015">
        <ele>468</ele>
        <time>2020-06-30T14:00:02Z</time>
      </trkpt>
      <trkpt lat="43.09817" lon="0.23006">
        <ele>467.8</ele>
        <time>2020-06-30T14:00:03Z</time>
      </trkpt>
      <trkpt lat="43.09818" lon="0.22997">
        <ele>467.6</ele>
        <time>2020-06-30T14:00:04Z</time>
      </trkpt>
      <trkpt lat="43.09818" lon="0.22988">
        <ele>467.2</ele>
        <time>2020-06-30T14:00:05Z</time>
      </trkpt>
      <trkpt lat="43.0982" lon="0.22979">
        <ele>466.8</ele>
        <time>2020-06-30T14:00:06Z</time>
      </trkpt>
      <trkpt lat="43.0982" lon="0.2297">
        <ele>466.6</ele>
        <time>2020-06-30T14:00:07Z</time>
      </trkpt>
      <trkpt lat="43.09821" lon="0.2296">
        <ele>466.4</ele>
        <time>2020-06-30T14:00:08Z</time>
      </trkpt>
      <trkpt lat="43.09822" lon="0.2295">
        <ele>466</ele>
        <time>2020-06-30T14:00:09Z</time>
      </trkpt>
      <trkpt lat="43.09823" lon="0.22939">
        <ele>465.4</ele>
        <time>2020-06-30T14:00:10Z</time>
      </trkpt>
      <trkpt lat="43.09823" lon="0.22928">
        <ele>465.2</ele>
        <time>2020-06-30T14:00:11Z</time>
      </trkpt>
      <trkpt lat="43.09824" lon="0.22917">
        <ele>464.6</ele>
        <time>2020-06-30T14:00:12Z</time>
      </trkpt>
      <trkpt lat="43.09824" lon="0.22907">
        <ele>464</ele>
        <time>2020-06-30T14:00:13Z</time>
      </trkpt>
      <trkpt lat="43.09824" lon="0.22896">
        <ele>463.6</ele>
        <time>2020-06-30T14:00:14Z</time>
      </trkpt>
      <trkpt lat="43.09823" lon="0.22885">
        <ele>463.2</ele>
        <time>2020-06-30T14:00:15Z</time>
      </trkpt>
      <trkpt lat="43.09822" lon="0.22874">
        <ele>462.8</ele>
        <time>2020-06-30T14:00:16Z</time>
      </trkpt>
      <trkpt lat="43.0982" lon="0.22863">
        <ele>462.4</ele>
        <time>2020-06-30T14:00:17Z</time>
      </trkpt>
      <trkpt lat="43.09819" lon="0.22851">
        <ele>462.2</ele>
        <time>2020-06-30T14:00:18Z</time>
      </trkpt>
      <trkpt lat="43.09818" lon="0.2284">
        <ele>462</ele>
        <time>2020-06-30T14:00:19Z</time>
      </trkpt>
      <trkpt lat="43.09816" lon="0.2283">
        <ele>462</ele>
        <time>2020-06-30T14:00:20Z</time>
      </trkpt>
      <trkpt lat="43.09814" lon="0.2282">
        <ele>462</ele>
        <time>2020-06-30T14:00:21Z</time>
      </trkpt>
      <trkpt lat="43.09812" lon="0.2281">
        <ele>462</ele>
        <time>2020-06-30T14:00:22Z</time>
      </trkpt>
      <trkpt lat="43.09809" lon="0.22802">
        <ele>462</ele>
        <time>2020-06-30T14:00:23Z</time>
      </trkpt>
      <trkpt lat="43.09805" lon="0.22793">
        <ele>462</ele>
        <time>2020-06-30T14:00:24Z</time>
      </trkpt>
      <trkpt lat="43.09802" lon="0.22786">
        <ele>462.2</ele>
        <time>2020-06-30T14:00:25Z</time>
      </trkpt>
      <trkpt lat="43.09798" lon="0.22779">
        <ele>462.2</ele>
        <time>2020-06-30T14:00:26Z</time>
      </trkpt>
      <trkpt lat="43.09795" lon="0.22772">
        <ele>462.2</ele>
        <time>2020-06-30T14:00:27Z</time>
      </trkpt>
      <trkpt lat="43.09793" lon="0.22765">
        <ele>462.2</ele>
        <time>2020-06-30T14:00:28Z</time>
      </trkpt>
      <trkpt lat="43.0979" lon="0.22759">
        <ele>462.4</ele>
        <time>2020-06-30T14:00:29Z</time>
      </trkpt>
      <trkpt lat="43.09788" lon="0.22753">
        <ele>462.4</ele>
        <time>2020-06-30T14:00:30Z</time>
      </trkpt>
      <trkpt lat="43.09786" lon="0.22747">
        <ele>462.4</ele>
        <time>2020-06-30T14:00:31Z</time>
      </trkpt>
      <trkpt lat="43.09784" lon="0.2274">
        <ele>462.6</ele>
        <time>2020-06-30T14:00:32Z</time>
      </trkpt>
      <trkpt lat="43.09783" lon="0.22734">
        <ele>462.6</ele>
        <time>2020-06-30T14:00:33Z</time>
      </trkpt>
      <trkpt lat="43.09782" lon="0.22728">
        <ele>462.8</ele>
        <time>2020-06-30T14:00:34Z</time>
      </trkpt>
      <trkpt lat="43.09782" lon="0.22723">
        <ele>463</ele>
        <time>2020-06-30T14:00:35Z</time>
      </trkpt>
      <trkpt lat="43.09783" lon="0.22717">
        <ele>463.2</ele>
        <time>2020-06-30T14:00:36Z</time>
      </trkpt>
      <trkpt lat="43.09783" lon="0.22712">
        <ele>463.4</ele>
        <time>2020-06-30T14:00:37Z</time>
      </trkpt>
      <trkpt lat="43.09784" lon="0.22707">
        <ele>463.6</ele>
        <time>2020-06-30T14:00:38Z</time>
      </trkpt>
      <trkpt lat="43.09785" lon="0.22703">
        <ele>463.6</ele>
        <time>2020-06-30T14:00:39Z</time>
      </trkpt>
      <trkpt lat="43.09786" lon="0.22699">
        <ele>463.8</ele>
        <time>2020-06-30T14:00:40Z</time>
      </trkpt>
      <trkpt lat="43.09786" lon="0.22695">
        <ele>464</ele>
        <time>2020-06-30T14:00:41Z</time>
      </trkpt>
      <trkpt lat="43.09787" lon="0.22692">
        <ele>464.2</ele>
        <time>2020-06-30T14:00:42Z</time>
      </trkpt>
      <trkpt lat="43.09787" lon="0.22688">
        <ele>464.2</ele>
        <time>2020-06-30T14:00:43Z</time>
      </trkpt>
      <trkpt lat="43.09789" lon="0.22685">
        <ele>464.6</ele>
        <time>2020-06-30T14:00:44Z</time>
      </trkpt>
      <trkpt lat="43.0979" lon="0.22682">
        <ele>464.6</ele>
        <time>2020-06-30T14:00:45Z</time>
      </trkpt>
      <trkpt lat="43.09792" lon="0.22679">
        <ele>464.8</ele>
        <time>2020-06-30T14:00:46Z</time>
      </trkpt>
      <trkpt lat="43.09794" lon="0.22675">
        <ele>465</ele>
        <time>2020-06-30T14:00:47Z</time>
      </trkpt>
      <trkpt lat="43.09792" lon="0.22672">
        <ele>465.2</ele>
        <time>2020-06-30T14:00:48Z</time>
      </trkpt>
      <trkpt lat="43.09792" lon="0.22669">
        <ele>465.2</ele>
        <time>2020-06-30T14:00:49Z</time>
      </trkpt>
      <trkpt lat="43.0979" lon="0.22669">
        <ele>465.4</ele>
        <time>2020-06-30T14:00:50Z</time>
      </trkpt>
      <trkpt lat="43.0979" lon="0.22668">
        <ele>465.4</ele>
        <time>2020-06-30T14:00:51Z</time>
      </trkpt>
      <trkpt lat="43.09787" lon="0.22667">
        <ele>465.6</ele>
        <time>2020-06-30T14:00:52Z</time>
      </trkpt>
      <trkpt lat="43.09785" lon="0.22664">
        <ele>465.8</ele>
        <time>2020-06-30T14:00:53Z</time>
      </trkpt>
      <trkpt lat="43.09786" lon="0.22661">
        <ele>465.8</ele>
        <time>2020-06-30T14:00:54Z</time>
      </trkpt>
      <trkpt lat="43.09784" lon="0.2266">
        <ele>466</ele>
        <time>2020-06-30T14:00:55Z</time>
      </trkpt>
      <trkpt lat="43.09787" lon="0.22657">
        <ele>466</ele>
        <time>2020-06-30T14:00:56Z</time>
      </trkpt>
      <trkpt lat="43.09787" lon="0.22653">
        <ele>466.2</ele>
        <time>2020-06-30T14:00:57Z</time>
      </trkpt>
      <trkpt lat="43.09786" lon="0.22653">
        <ele>466.4</ele>
        <time>2020-06-30T14:00:58Z</time>
      </trkpt>
      <trkpt lat="43.09785" lon="0.2265">
        <ele>466.6</ele>
        <time>2020-06-30T14:00:59Z</time>
      </trkpt>
      <trkpt lat="43.09783" lon="0.22648">
        <ele>466.6</ele>
        <time>2020-06-30T14:01:00Z</time>
      </trkpt>
      <trkpt lat="43.09784" lon="0.22644">
        <ele>466.8</ele>
        <time>2020-06-30T14:01:01Z</time>
      </trkpt>
      <trkpt lat="43.09786" lon="0.2264">
        <ele>467</ele>
        <time>2020-06-30T14:01:02Z</time>
      </trkpt>
      <trkpt lat="43.09784" lon="0.22642">
        <ele>467</ele>
        <time>2020-06-30T14:01:03Z</time>
      </trkpt>
      <trkpt lat="43.09785" lon="0.2264">
        <ele>467</ele>
        <time>2020-06-30T14:01:04Z</time>
      </trkpt>
      <trkpt lat="43.09785" lon="0.22638">
        <ele>467.2</ele>
        <time>2020-06-30T14:01:05Z</time>
      </trkpt>
      <trkpt lat="43.09781" lon="0.22636">
        <ele>467.4</ele>
        <time>2020-06-30T14:01:06Z</time>
      </trkpt>
      <trkpt lat="43.09781" lon="0.22633">
        <ele>467.6</ele>
        <time>2020-06-30T14:01:07Z</time>
      </trkpt>
      <trkpt lat="43.09781" lon="0.22631">
        <ele>467.6</ele>
        <time>2020-06-30T14:01:08Z</time>
      </trkpt>
      <trkpt lat="43.09781" lon="0.22628">
        <ele>467.8</ele>
        <time>2020-06-30T14:01:09Z</time>
      </trkpt>
      <trkpt lat="43.09779" lon="0.22627">
        <ele>468</ele>
        <time>2020-06-30T14:01:10Z</time>
      </trkpt>
      <trkpt lat="43.09779" lon="0.22626">
        <ele>468</ele>
        <time>2020-06-30T14:01:11Z</time>
      </trkpt>
      <trkpt lat="43.09781" lon="0.22623">
        <ele>468.2</ele>
        <time>2020-06-30T14:01:12Z</time>
      </trkpt>
      <trkpt lat="43.09783" lon="0.22622">
        <ele>468.4</ele>
        <time>2020-06-30T14:01:13Z</time>
      </trkpt>
      <trkpt lat="43.09784" lon="0.22619">
        <ele>468.6</ele>
        <time>2020-06-30T14:01:14Z</time>
      </trkpt>
      <trkpt lat="43.09788" lon="0.22618">
        <ele>468.6</ele>
        <time>2020-06-30T14:01:15Z</time>
      </trkpt>
      <trkpt lat="43.09787" lon="0.22617">
        <ele>468.8</ele>
        <time>2020-06-30T14:01:16Z</time>
      </trkpt>
      <trkpt lat="43.09785" lon="0.22615">
        <ele>468.8</ele>
        <time>2020-06-30T14:01:17Z</time>
      </trkpt>
      <trkpt lat="43.09786" lon="0.22613">
        <ele>469</ele>
        <time>2020-06-30T14:01:18Z</time>
      </trkpt>
      <trkpt lat="43.09784" lon="0.22611">
        <ele>469</ele>
        <time>2020-06-30T14:01:19Z</time>
      </trkpt>
      <trkpt lat="43.09785" lon="0.22607">
        <ele>469.2</ele>
        <time>2020-06-30T14:01:20Z</time>
      </trkpt>
      <trkpt lat="43.09786" lon="0.22607">
        <ele>469.4</ele>
        <time>2020-06-30T14:01:21Z</time>
      </trkpt>
      <trkpt lat="43.09785" lon="0.22606">
        <ele>469.4</ele>
        <time>2020-06-30T14:01:22Z</time>
      </trkpt>
      <trkpt lat="43.09781" lon="0.22602">
        <ele>469.6</ele>
        <time>2020-06-30T14:01:23Z</time>
      </trkpt>
      <trkpt lat="43.09784" lon="0.226">
        <ele>469.8</ele>
        <time>2020-06-30T14:01:24Z</time>
      </trkpt>
      <trkpt lat="43.09783" lon="0.22597">
        <ele>469.8</ele>
        <time>2020-06-30T14:01:25Z</time>
      </trkpt>
      <trkpt lat="43.09782" lon="0.22595">
        <ele>470</ele>
        <time>2020-06-30T14:01:26Z</time>
      </trkpt>
      <trkpt lat="43.09781" lon="0.22595">
        <ele>470.2</ele>
        <time>2020-06-30T14:01:27Z</time>
      </trkpt>
      <trkpt lat="43.09784" lon="0.22593">
        <ele>470.2</ele>
        <time>2020-06-30T14:01:28Z</time>
      </trkpt>
      <trkpt lat="43.09784" lon="0.22591">
        <ele>470.4</ele>
        <time>2020-06-30T14:01:29Z</time>
      </trkpt>
      <trkpt lat="43.09785" lon="0.2259">
        <ele>470.4</ele>
        <time>2020-06-30T14:01:30Z</time>
      </trkpt>
      <trkpt lat="43.09786" lon="0.22587">
        <ele>470.6</ele>
        <time>2020-06-30T14:01:31Z</time>
      </trkpt>
      <trkpt lat="43.09789" lon="0.22587">
        <ele>470.6</ele>
        <time>2020-06-30T14:01:32Z</time>
      </trkpt>
      <trkpt lat="43.09786" lon="0.22585">
        <ele>470.8</ele>
        <time>2020-06-30T14:01:33Z</time>
      </trkpt>
      <trkpt lat="43.09788" lon="0.22583">
        <ele>471</ele>
        <time>2020-06-30T14:01:34Z</time>
      </trkpt>
      <trkpt lat="43.09789" lon="0.22582">
        <ele>471</ele>
        <time>2020-06-30T14:01:35Z</time>
      </trkpt>
      <trkpt lat="43.09788" lon="0.22581">
        <ele>471.2</ele>
        <time>2020-06-30T14:01:36Z</time>
      </trkpt>
      <trkpt lat="43.09786" lon="0.22577">
        <ele>471.4</ele>
        <time>2020-06-30T14:01:37Z</time>
      </trkpt>
      <trkpt lat="43.09786" lon="0.22575">
        <ele>471.4</ele>
        <time>2020-06-30T14:01:38Z</time>
      </trkpt>
      <trkpt lat="43.09785" lon="0.22572">
        <ele>471.6</ele>
        <time>2020-06-30T14:01:39Z</time>
      </trkpt>
      <trkpt lat="43.09785" lon="0.22571">
        <ele>471.8</ele>
        <time>2020-06-30T14:01:40Z</time>
      </trkpt>
      <trkpt lat="43.09789" lon="0.22569">
        <ele>471.8</ele>
        <time>2020-06-30T14:01:41Z</time>
      </trkpt>
      <trkpt lat="43.09787" lon="0.22569">
        <ele>472</ele>
        <time>2020-06-30T14:01:42Z</time>
      </trkpt>
      <trkpt lat="43.09786" lon="0.22569">
        <ele>472.2</ele>
        <time>2020-06-30T14:01:43Z</time>
      </trkpt>
      <trkpt lat="43.09787" lon="0.22567">
        <ele>472.2</ele>
        <time>2020-06-30T14:01:44Z</time>
      </trkpt>
      <trkpt lat="43.09785" lon="0.22567">
        <ele>472.4</ele>
        <time>2020-06-30T14:01:45Z</time>
      </trkpt>
      <trkpt lat="43.09787" lon="0.22566">
        <ele>472.6</ele>
        <time>2020-06-30T14:01:46Z</time>
      </trkpt>
      <trkpt lat="43.09785" lon="0.22563">
        <ele>472.6</ele>
        <time>2020-06-30T14:01:47Z</time>
      </trkpt>
      <trkpt lat="43.09786" lon="0.22562">
        <ele>472.8</ele>
        <time>2020-06-30T14:01:48Z</time>
      </trkpt>
      <trkpt lat="43.09785" lon="0.22562">
        <ele>473</ele>
        <time>2020-06-30T14:01:49Z</time>
      </trkpt>
      <trkpt lat="43.09785" lon="0.22559">
        <ele>473</ele>
        <time>2020-06-30T14:01:50Z</time>
      </trkpt>
      <trkpt lat="43.09785" lon="0.22557">
        <ele>473.2</ele>
        <time>2020-06-30T14:01:51Z</time>
      </trkpt>
      <trkpt lat="43.09785" lon="0.22556">
        <ele>473.4</ele>
        <time>2020-06-30T14:01:52Z</time>
      </trkpt>
      <trkpt lat="43.09787" lon="0.22553">
        <ele>473.4</ele>
        <time>2020-06-30T14:01:53Z</time>
      </trkpt>
      <trkpt lat="43.09785" lon="0.22552">
        <ele>473.6</ele>
        <time>2020-06-30T14:01:54Z</time>
      </trkpt>
      <trkpt lat="43.09782" lon="0.22549">
        <ele>473.6</ele>
        <time>2020-06-30T14:01:55Z</time>
      </trkpt>
      <trkpt lat="43.09782" lon="0.22547">
        <ele>473.8</ele>
        <time>2020-06-30T14:01:56Z</time>
      </trkpt>
      <trkpt lat="43.09782" lon="0.22545">
        <ele>474</ele>
        <time>2020-06-30T14:01:57Z</time>
      </trkpt>
      <trkpt lat="43.09784" lon="0.22543">
        <ele>474</ele>
        <time>2020-06-30T14:01:58Z</time>
      </trkpt>
      <trkpt lat="43.09783" lon="0.22543">
        <ele>474.2</ele>
        <time>2020-06-30T14:01:59Z</time>
      </trkpt>
      <trkpt lat="43.09783" lon="0.22542">
        <ele>474.2</ele>
        <time>2020-06-30T14:02:00Z</time>
      </trkpt>
      <trkpt lat="43.09784" lon="0.22542">
        <ele>474.4</ele>
        <time>2020-06-30T14:02:01Z</time>
      </trkpt>
      <trkpt lat="43.09785" lon="0.22541">
        <ele>474.6</ele>
        <time>2020-06-30T14:02:02Z</time>
      </trkpt>
      <trkpt lat="43.09785" lon="0.22538">
        <ele>474.6</ele>
        <time>2020-06-30T14:02:03Z</time>
      </trkpt>
      <trkpt lat="43.09784" lon="0.22538">
        <ele>474.8</ele>
        <time>2020-06-30T14:02:04Z</time>
      </trkpt>
      <trkpt lat="43.09784" lon="0.22536">
        <ele>475</ele>
        <time>2020-06-30T14:02:05Z</time>
      </trkpt>
      <trkpt lat="43.09783" lon="0.22534">
        <ele>475.2</ele>
        <time>2020-06-30T14:02:06Z</time>
      </trkpt>
      <trkpt lat="43.09784" lon="0.22532">
        <ele>475.2</ele>
        <time>2020-06-30T14:02:07Z</time>
      </trkpt>
      <trkpt lat="43.0978" lon="0.22532">
        <ele>475.4</ele>
        <time>2020-06-30T14:02:08Z</time>
      </trkpt>
      <trkpt lat="43.09778" lon="0.22532">
        <ele>475.4</ele>
        <time>2020-06-30T14:02:09Z</time>
      </trkpt>
      <trkpt lat="43.09778" lon="0.22531">
        <ele>475.6</ele>
        <time>2020-06-30T14:02:10Z</time>
      </trkpt>
      <trkpt lat="43.09778" lon="0.22529">
        <ele>475.6</ele>
        <time>2020-06-30T14:02:11Z</time>
      </trkpt>
      <trkpt lat="43.09779" lon="0.22527">
        <ele>475.8</ele>
        <time>2020-06-30T14:02:12Z</time>
      </trkpt>
      <trkpt lat="43.09778" lon="0.22524">
        <ele>476</ele>
        <time>2020-06-30T14:02:13Z</time>
      </trkpt>
      <trkpt lat="43.09778" lon="0.22523">
        <ele>476</ele>
        <time>2020-06-30T14:02:14Z</time>
      </trkpt>
      <trkpt lat="43.09779" lon="0.2252">
        <ele>476.2</ele>
        <time>2020-06-30T14:02:15Z</time>
      </trkpt>
      <trkpt lat="43.09775" lon="0.22521">
        <ele>476.2</ele>
        <time>2020-06-30T14:02:16Z</time>
      </trkpt>
      <trkpt lat="43.09775" lon="0.22519">
        <ele>476.4</ele>
        <time>2020-06-30T14:02:17Z</time>
      </trkpt>
      <trkpt lat="43.09774" lon="0.22516">
        <ele>476.6</ele>
        <time>2020-06-30T14:02:18Z</time>
      </trkpt>
      <trkpt lat="43.09772" lon="0.22516">
        <ele>476.6</ele>
        <time>2020-06-30T14:02:19Z</time>
      </trkpt>
      <trkpt lat="43.09772" lon="0.22514">
        <ele>476.6</ele>
        <time>2020-06-30T14:02:20Z</time>
      </trkpt>
      <trkpt lat="43.0977" lon="0.22511">
        <ele>476.8</ele>
        <time>2020-06-30T14:02:21Z</time>
      </trkpt>
      <trkpt lat="43.09768" lon="0.22509">
        <ele>477</ele>
        <time>2020-06-30T14:02:22Z</time>
      </trkpt>
      <trkpt lat="43.09768" lon="0.22507">
        <ele>477</ele>
        <time>2020-06-30T14:02:23Z</time>
      </trkpt>
      <trkpt lat="43.0977" lon="0.22505">
        <ele>477.2</ele>
        <time>2020-06-30T14:02:24Z</time>
      </trkpt>
      <trkpt lat="43.0977" lon="0.22504">
        <ele>477.2</ele>
        <time>2020-06-30T14:02:25Z</time>
      </trkpt>
      <trkpt lat="43.09773" lon="0.22503">
        <ele>477.4</ele>
        <time>2020-06-30T14:02:26Z</time>
      </trkpt>
      <trkpt lat="43.0977" lon="0.22501">
        <ele>477.6</ele>
        <time>2020-06-30T14:02:27Z</time>
      </trkpt>
      <trkpt lat="43.0977" lon="0.225">
        <ele>477.6</ele>
        <time>2020-06-30T14:02:28Z</time>
      </trkpt>
      <trkpt lat="43.0977" lon="0.22499">
        <ele>477.8</ele>
        <time>2020-06-30T14:02:29Z</time>
      </trkpt>
      <trkpt lat="43.0977" lon="0.22498">
        <ele>477.8</ele>
        <time>2020-06-30T14:02:30Z</time>
      </trkpt>
      <trkpt lat="43.09769" lon="0.22497">
        <ele>478</ele>
        <time>2020-06-30T14:02:31Z</time>
      </trkpt>
      <trkpt lat="43.09768" lon="0.22495">
        <ele>478.2</ele>
        <time>2020-06-30T14:02:32Z</time>
      </trkpt>
      <trkpt lat="43.09768" lon="0.22494">
        <ele>478.2</ele>
        <time>2020-06-30T14:02:33Z</time>
      </trkpt>
      <trkpt lat="43.09766" lon="0.22492">
        <ele>478.4</ele>
        <time>2020-06-30T14:02:34Z</time>
      </trkpt>
      <trkpt lat="43.09767" lon="0.22491">
        <ele>478.4</ele>
        <time>2020-06-30T14:02:35Z</time>
      </trkpt>
      <trkpt lat="43.09767" lon="0.22489">
        <ele>478.6</ele>
        <time>2020-06-30T14:02:36Z</time>
      </trkpt>
      <trkpt lat="43.09767" lon="0.22488">
        <ele>478.8</ele>
        <time>2020-06-30T14:02:37Z</time>
      </trkpt>
      <trkpt lat="43.09766" lon="0.22486">
        <ele>478.8</ele>
        <time>2020-06-30T14:02:38Z</time>
      </trkpt>
      <trkpt lat="43.09766" lon="0.22485">
        <ele>479</ele>
        <time>2020-06-30T14:02:39Z</time>
      </trkpt>
      <trkpt lat="43.09766" lon="0.22483">
        <ele>479.2</ele>
        <time>2020-06-30T14:02:40Z</time>
      </trkpt>
      <trkpt lat="43.09767" lon="0.22483">
        <ele>479.2</ele>
        <time>2020-06-30T14:02:41Z</time>
      </trkpt>
      <trkpt lat="43.09768" lon="0.22481">
        <ele>479.4</ele>
        <time>2020-06-30T14:02:42Z</time>
      </trkpt>
      <trkpt lat="43.09767" lon="0.2248">
        <ele>479.6</ele>
        <time>2020-06-30T14:02:43Z</time>
      </trkpt>
      <trkpt lat="43.09768" lon="0.22478">
        <ele>479.6</ele>
        <time>2020-06-30T14:02:44Z</time>
      </trkpt>
      <trkpt lat="43.09767" lon="0.22476">
        <ele>479.8</ele>
        <time>2020-06-30T14:02:45Z</time>
      </trkpt>
      <trkpt lat="43.09767" lon="0.22474">
        <ele>480</ele>
        <time>2020-06-30T14:02:46Z</time>
      </trkpt>
      <trkpt lat="43.09766" lon="0.22472">
        <ele>480.2</ele>
        <time>2020-06-30T14:02:47Z</time>
      </trkpt>
      <trkpt lat="43.09766" lon="0.22471">
        <ele>480.2</ele>
        <time>2020-06-30T14:02:48Z</time>
      </trkpt>
      <trkpt lat="43.09766" lon="0.2247">
        <ele>480.4</ele>
        <time>2020-06-30T14:02:49Z</time>
      </trkpt>
      <trkpt lat="43.09767" lon="0.22469">
        <ele>480.6</ele>
        <time>2020-06-30T14:02:50Z</time>
      </trkpt>
      <trkpt lat="43.09766" lon="0.22468">
        <ele>480.8</ele>
        <time>2020-06-30T14:02:51Z</time>
      </trkpt>
      <trkpt lat="43.09766" lon="0.22467">
        <ele>480.8</ele>
        <time>2020-06-30T14:02:52Z</time>
      </trkpt>
      <trkpt lat="43.09765" lon="0.22465">
        <ele>481</ele>
        <time>2020-06-30T14:02:53Z</time>
      </trkpt>
      <trkpt lat="43.09762" lon="0.22464">
        <ele>481.2</ele>
        <time>2020-06-30T14:02:54Z</time>
      </trkpt>
      <trkpt lat="43.0976" lon="0.22462">
        <ele>481.4</ele>
        <time>2020-06-30T14:02:55Z</time>
      </trkpt>
      <trkpt lat="43.09759" lon="0.2246">
        <ele>481.6</ele>
        <time>2020-06-30T14:02:56Z</time>
      </trkpt>
      <trkpt lat="43.09761" lon="0.22458">
        <ele>481.6</ele>
        <time>2020-06-30T14:02:57Z</time>
      </trkpt>
      <trkpt lat="43.09759" lon="0.22457">
        <ele>481.8</ele>
        <time>2020-06-30T14:02:58Z</time>
      </trkpt>
      <trkpt lat="43.09758" lon="0.22456">
        <ele>481.8</ele>
        <time>2020-06-30T14:02:59Z</time>
      </trkpt>
      <trkpt lat="43.09758" lon="0.22454">
        <ele>482</ele>
        <time>2020-06-30T14:03:00Z</time>
      </trkpt>
      <trkpt lat="43.09757" lon="0.22453">
        <ele>482.2</ele>
        <time>2020-06-30T14:03:01Z</time>
      </trkpt>
      <trkpt lat="43.09756" lon="0.22451">
        <ele>482.2</ele>
        <time>2020-06-30T14:03:02Z</time>
      </trkpt>
      <trkpt lat="43.09755" lon="0.22451">
        <ele>482.4</ele>
        <time>2020-06-30T14:03:03Z</time>
      </trkpt>
      <trkpt lat="43.09756" lon="0.22449">
        <ele>482.6</ele>
        <time>2020-06-30T14:03:04Z</time>
      </trkpt>
      <trkpt lat="43.09755" lon="0.22447">
        <ele>482.6</ele>
        <time>2020-06-30T14:03:05Z</time>
      </trkpt>
      <trkpt lat="43.09754" lon="0.22446">
        <ele>482.8</ele>
        <time>2020-06-30T14:03:06Z</time>
      </trkpt>
      <trkpt lat="43.09753" lon="0.22443">
        <ele>483</ele>
        <time>2020-06-30T14:03:07Z</time>
      </trkpt>
      <trkpt lat="43.09753" lon="0.22442">
        <ele>483</ele>
        <time>2020-06-30T14:03:08Z</time>
      </trkpt>
      <trkpt lat="43.09753" lon="0.2244">
        <ele>483.2</ele>
        <time>2020-06-30T14:03:09Z</time>
      </trkpt>
      <trkpt lat="43.09752" lon="0.22438">
        <ele>483.4</ele>
        <time>2020-06-30T14:03:10Z</time>
      </trkpt>
      <trkpt lat="43.09751" lon="0.22437">
        <ele>483.4</ele>
        <time>2020-06-30T14:03:11Z</time>
      </trkpt>
      <trkpt lat="43.09752" lon="0.22436">
        <ele>483.6</ele>
        <time>2020-06-30T14:03:12Z</time>
      </trkpt>
      <trkpt lat="43.09751" lon="0.22434">
        <ele>483.6</ele>
        <time>2020-06-30T14:03:13Z</time>
      </trkpt>
      <trkpt lat="43.0975" lon="0.22432">
        <ele>483.8</ele>
        <time>2020-06-30T14:03:14Z</time>
      </trkpt>
      <trkpt lat="43.0975" lon="0.22431">
        <ele>484</ele>
        <time>2020-06-30T14:03:15Z</time>
      </trkpt>
      <trkpt lat="43.09748" lon="0.22429">
        <ele>484</ele>
        <time>2020-06-30T14:03:16Z</time>
      </trkpt>
      <trkpt lat="43.09748" lon="0.22427">
        <ele>484.2</ele>
        <time>2020-06-30T14:03:17Z</time>
      </trkpt>
      <trkpt lat="43.09749" lon="0.22426">
        <ele>484.2</ele>
        <time>2020-06-30T14:03:18Z</time>
      </trkpt>
      <trkpt lat="43.09749" lon="0.22425">
        <ele>484.4</ele>
        <time>2020-06-30T14:03:19Z</time>
      </trkpt>
      <trkpt lat="43.09749" lon="0.22423">
        <ele>484.4</ele>
        <time>2020-06-30T14:03:20Z</time>
      </trkpt>
      <trkpt lat="43.09749" lon="0.22422">
        <ele>484.6</ele>
        <time>2020-06-30T14:03:21Z</time>
      </trkpt>
      <trkpt lat="43.09748" lon="0.22421">
        <ele>484.6</ele>
        <time>2020-06-30T14:03:22Z</time>
      </trkpt>
      <trkpt lat="43.09746" lon="0.22419">
        <ele>484.8</ele>
        <time>2020-06-30T14:03:23Z</time>
      </trkpt>
      <trkpt lat="43.09746" lon="0.22418">
        <ele>485</ele>
        <time>2020-06-30T14:03:24Z</time>
      </trkpt>
      <trkpt lat="43.09745" lon="0.22416">
        <ele>485</ele>
        <time>2020-06-30T14:03:25Z</time>
      </trkpt>
      <trkpt lat="43.09745" lon="0.22414">
        <ele>485.2</ele>
        <time>2020-06-30T14:03:26Z</time>
      </trkpt>
      <trkpt lat="43.09744" lon="0.22413">
        <ele>485.2</ele>
        <time>2020-06-30T14:03:27Z</time>
      </trkpt>
      <trkpt lat="43.09744" lon="0.2241">
        <ele>485.4</ele>
        <time>2020-06-30T14:03:28Z</time>
      </trkpt>
      <trkpt lat="43.09743" lon="0.22409">
        <ele>485.4</ele>
        <time>2020-06-30T14:03:29Z</time>
      </trkpt>
      <trkpt lat="43.09741" lon="0.22407">
        <ele>485.6</ele>
        <time>2020-06-30T14:03:30Z</time>
      </trkpt>
      <trkpt lat="43.09739" lon="0.22406">
        <ele>485.6</ele>
        <time>2020-06-30T14:03:31Z</time>
      </trkpt>
      <trkpt lat="43.09741" lon="0.22404">
        <ele>485.6</ele>
        <time>2020-06-30T14:03:32Z</time>
      </trkpt>
      <trkpt lat="43.0974" lon="0.22402">
        <ele>485.8</ele>
        <time>2020-06-30T14:03:33Z</time>
      </trkpt>
      <trkpt lat="43.09739" lon="0.22399">
        <ele>485.8</ele>
        <time>2020-06-30T14:03:34Z</time>
      </trkpt>
      <trkpt lat="43.09738" lon="0.22398">
        <ele>486</ele>
        <time>2020-06-30T14:03:35Z</time>
      </trkpt>
      <trkpt lat="43.09739" lon="0.22396">
        <ele>486</ele>
        <time>2020-06-30T14:03:36Z</time>
      </trkpt>
      <trkpt lat="43.09737" lon="0.22393">
        <ele>486</ele>
        <time>2020-06-30T14:03:37Z</time>
      </trkpt>
      <trkpt lat="43.09736" lon="0.2239">
        <ele>486.2</ele>
        <time>2020-06-30T14:03:38Z</time>
      </trkpt>
      <trkpt lat="43.09736" lon="0.22388">
        <ele>486.2</ele>
        <time>2020-06-30T14:03:39Z</time>
      </trkpt>
      <trkpt lat="43.09735" lon="0.22386">
        <ele>486.2</ele>
        <time>2020-06-30T14:03:40Z</time>
      </trkpt>
      <trkpt lat="43.09733" lon="0.22383">
        <ele>486.4</ele>
        <time>2020-06-30T14:03:41Z</time>
      </trkpt>
      <trkpt lat="43.09732" lon="0.2238">
        <ele>486.4</ele>
        <time>2020-06-30T14:03:42Z</time>
      </trkpt>
      <trkpt lat="43.09731" lon="0.22378">
        <ele>486.4</ele>
        <time>2020-06-30T14:03:43Z</time>
      </trkpt>
      <trkpt lat="43.0973" lon="0.22376">
        <ele>486.6</ele>
        <time>2020-06-30T14:03:44Z</time>
      </trkpt>
      <trkpt lat="43.09728" lon="0.22373">
        <ele>486.6</ele>
        <time>2020-06-30T14:03:45Z</time>
      </trkpt>
      <trkpt lat="43.09727" lon="0.22371">
        <ele>486.6</ele>
        <time>2020-06-30T14:03:46Z</time>
      </trkpt>
      <trkpt lat="43.09726" lon="0.22369">
        <ele>486.8</ele>
        <time>2020-06-30T14:03:47Z</time>
      </trkpt>
      <trkpt lat="43.09725" lon="0.22368">
        <ele>486.8</ele>
        <time>2020-06-30T14:03:48Z</time>
      </trkpt>
      <trkpt lat="43.09723" lon="0.22366">
        <ele>487</ele>
        <time>2020-06-30T14:03:49Z</time>
      </trkpt>
      <trkpt lat="43.0972" lon="0.22364">
        <ele>487</ele>
        <time>2020-06-30T14:03:50Z</time>
      </trkpt>
      <trkpt lat="43.0972" lon="0.22362">
        <ele>487.2</ele>
        <time>2020-06-30T14:03:51Z</time>
      </trkpt>
      <trkpt lat="43.09719" lon="0.2236">
        <ele>487.2</ele>
        <time>2020-06-30T14:03:52Z</time>
      </trkpt>
      <trkpt lat="43.09718" lon="0.22358">
        <ele>487.4</ele>
        <time>2020-06-30T14:03:53Z</time>
      </trkpt>
      <trkpt lat="43.09715" lon="0.22357">
        <ele>487.4</ele>
        <time>2020-06-30T14:03:54Z</time>
      </trkpt>
      <trkpt lat="43.09716" lon="0.22355">
        <ele>487.6</ele>
        <time>2020-06-30T14:03:55Z</time>
      </trkpt>
      <trkpt lat="43.09715" lon="0.22352">
        <ele>487.6</ele>
        <time>2020-06-30T14:03:56Z</time>
      </trkpt>
      <trkpt lat="43.09715" lon="0.2235">
        <ele>487.8</ele>
        <time>2020-06-30T14:03:57Z</time>
      </trkpt>
      <trkpt lat="43.09713" lon="0.22348">
        <ele>487.8</ele>
        <time>2020-06-30T14:03:58Z</time>
      </trkpt>
      <trkpt lat="43.0971" lon="0.22346">
        <ele>487.8</ele>
        <time>2020-06-30T14:03:59Z</time>
      </trkpt>
      <trkpt lat="43.0971" lon="0.22344">
        <ele>487.8</ele>
        <time>2020-06-30T14:04:00Z</time>
      </trkpt>
      <trkpt lat="43.09708" lon="0.22341">
        <ele>488</ele>
        <time>2020-06-30T14:04:01Z</time>
      </trkpt>
      <trkpt lat="43.09705" lon="0.22336">
        <ele>488</ele>
        <time>2020-06-30T14:04:02Z</time>
      </trkpt>
      <trkpt lat="43.09703" lon="0.22333">
        <ele>488.2</ele>
        <time>2020-06-30T14:04:03Z</time>
      </trkpt>
      <trkpt lat="43.09701" lon="0.22331">
        <ele>488.2</ele>
        <time>2020-06-30T14:04:04Z</time>
      </trkpt>
      <trkpt lat="43.097" lon="0.22328">
        <ele>488.2</ele>
        <time>2020-06-30T14:04:05Z</time>
      </trkpt>
      <trkpt lat="43.09699" lon="0.22326">
        <ele>488.4</ele>
        <time>2020-06-30T14:04:06Z</time>
      </trkpt>
      <trkpt lat="43.09698" lon="0.22324">
        <ele>488.4</ele>
        <time>2020-06-30T14:04:07Z</time>
      </trkpt>
      <trkpt lat="43.09696" lon="0.22321">
        <ele>488.4</ele>
        <time>2020-06-30T14:04:08Z</time>
      </trkpt>
      <trkpt lat="43.09696" lon="0.22318">
        <ele>488.4</ele>
        <time>2020-06-30T14:04:09Z</time>
      </trkpt>
      <trkpt lat="43.09698" lon="0.22314">
        <ele>488.4</ele>
        <time>2020-06-30T14:04:10Z</time>
      </trkpt>
      <trkpt lat="43.09697" lon="0.22311">
        <ele>488.6</ele>
        <time>2020-06-30T14:04:11Z</time>
      </trkpt>
      <trkpt lat="43.09696" lon="0.22309">
        <ele>488.6</ele>
        <time>2020-06-30T14:04:12Z</time>
      </trkpt>
      <trkpt lat="43.09694" lon="0.22306">
        <ele>488.8</ele>
        <time>2020-06-30T14:04:13Z</time>
      </trkpt>
      <trkpt lat="43.09694" lon="0.22304">
        <ele>488.8</ele>
        <time>2020-06-30T14:04:14Z</time>
      </trkpt>
      <trkpt lat="43.09693" lon="0.22301">
        <ele>489</ele>
        <time>2020-06-30T14:04:15Z</time>
      </trkpt>
      <trkpt lat="43.09692" lon="0.223">
        <ele>489</ele>
        <time>2020-06-30T14:04:16Z</time>
      </trkpt>
      <trkpt lat="43.09694" lon="0.22296">
        <ele>489.2</ele>
        <time>2020-06-30T14:04:17Z</time>
      </trkpt>
      <trkpt lat="43.09692" lon="0.22293">
        <ele>489.2</ele>
        <time>2020-06-30T14:04:18Z</time>
      </trkpt>
      <trkpt lat="43.09691" lon="0.22291">
        <ele>489.4</ele>
        <time>2020-06-30T14:04:19Z</time>
      </trkpt>
      <trkpt lat="43.09689" lon="0.22288">
        <ele>489.4</ele>
        <time>2020-06-30T14:04:20Z</time>
      </trkpt>
      <trkpt lat="43.09688" lon="0.22286">
        <ele>489.4</ele>
        <time>2020-06-30T14:04:21Z</time>
      </trkpt>
      <trkpt lat="43.09687" lon="0.22285">
        <ele>489.4</ele>
        <time>2020-06-30T14:04:22Z</time>
      </trkpt>
      <trkpt lat="43.09686" lon="0.22282">
        <ele>489.6</ele>
        <time>2020-06-30T14:04:23Z</time>
      </trkpt>
      <trkpt lat="43.09685" lon="0.2228">
        <ele>489.6</ele>
        <time>2020-06-30T14:04:24Z</time>
      </trkpt>
      <trkpt lat="43.09684" lon="0.22276">
        <ele>489.6</ele>
        <time>2020-06-30T14:04:25Z</time>
      </trkpt>
      <trkpt lat="43.09681" lon="0.22272">
        <ele>489.6</ele>
        <time>2020-06-30T14:04:26Z</time>
      </trkpt>
      <trkpt lat="43.0968" lon="0.2227">
        <ele>489.6</ele>
        <time>2020-06-30T14:04:27Z</time>
      </trkpt>
      <trkpt lat="43.09677" lon="0.22267">
        <ele>489.6</ele>
        <time>2020-06-30T14:04:28Z</time>
      </trkpt>
      <trkpt lat="43.09675" lon="0.22264">
        <ele>489.6</ele>
        <time>2020-06-30T14:04:29Z</time>
      </trkpt>
      <trkpt lat="43.09673" lon="0.22261">
        <ele>489.6</ele>
        <time>2020-06-30T14:04:30Z</time>
      </trkpt>
      <trkpt lat="43.09671" lon="0.22258">
        <ele>489.6</ele>
        <time>2020-06-30T14:04:31Z</time>
      </trkpt>
      <trkpt lat="43.09669" lon="0.22255">
        <ele>489.6</ele>
        <time>2020-06-30T14:04:32Z</time>
      </trkpt>
      <trkpt lat="43.09668" lon="0.22251">
        <ele>489.6</ele>
        <time>2020-06-30T14:04:33Z</time>
      </trkpt>
      <trkpt lat="43.09665" lon="0.22248">
        <ele>489.6</ele>
        <time>2020-06-30T14:04:34Z</time>
      </trkpt>
      <trkpt lat="43.09664" lon="0.22243">
        <ele>489.4</ele>
        <time>2020-06-30T14:04:35Z</time>
      </trkpt>
      <trkpt lat="43.0966" lon="0.2224">
        <ele>489.4</ele>
        <time>2020-06-30T14:04:36Z</time>
      </trkpt>
      <trkpt lat="43.09658" lon="0.22236">
        <ele>489.2</ele>
        <time>2020-06-30T14:04:37Z</time>
      </trkpt>
      <trkpt lat="43.09656" lon="0.22231">
        <ele>489.2</ele>
        <time>2020-06-30T14:04:38Z</time>
      </trkpt>
      <trkpt lat="43.09652" lon="0.22227">
        <ele>489</ele>
        <time>2020-06-30T14:04:39Z</time>
      </trkpt>
      <trkpt lat="43.0965" lon="0.22222">
        <ele>489</ele>
        <time>2020-06-30T14:04:40Z</time>
      </trkpt>
      <trkpt lat="43.09648" lon="0.22217">
        <ele>489</ele>
        <time>2020-06-30T14:04:41Z</time>
      </trkpt>
      <trkpt lat="43.09646" lon="0.22213">
        <ele>489</ele>
        <time>2020-06-30T14:04:42Z</time>
      </trkpt>
      <trkpt lat="43.09644" lon="0.22208">
        <ele>488.8</ele>
        <time>2020-06-30T14:04:43Z</time>
      </trkpt>
      <trkpt lat="43.09642" lon="0.22204">
        <ele>488.8</ele>
        <time>2020-06-30T14:04:44Z</time>
      </trkpt>
      <trkpt lat="43.0964" lon="0.22199">
        <ele>488.8</ele>
        <time>2020-06-30T14:04:45Z</time>
      </trkpt>
      <trkpt lat="43.09638" lon="0.22195">
        <ele>488.8</ele>
        <time>2020-06-30T14:04:46Z</time>
      </trkpt>
      <trkpt lat="43.09637" lon="0.22191">
        <ele>488.8</ele>
        <time>2020-06-30T14:04:47Z</time>
      </trkpt>
      <trkpt lat="43.09636" lon="0.22186">
        <ele>488.6</ele>
        <time>2020-06-30T14:04:48Z</time>
      </trkpt>
      <trkpt lat="43.09634" lon="0.22182">
        <ele>488.6</ele>
        <time>2020-06-30T14:04:49Z</time>
      </trkpt>
      <trkpt lat="43.09631" lon="0.22177">
        <ele>488.6</ele>
        <time>2020-06-30T14:04:50Z</time>
      </trkpt>
      <trkpt lat="43.0963" lon="0.22173">
        <ele>488.6</ele>
        <time>2020-06-30T14:04:51Z</time>
      </trkpt>
      <trkpt lat="43.0963" lon="0.22169">
        <ele>488.4</ele>
        <time>2020-06-30T14:04:52Z</time>
      </trkpt>
      <trkpt lat="43.09628" lon="0.22164">
        <ele>488.4</ele>
        <time>2020-06-30T14:04:53Z</time>
      </trkpt>
      <trkpt lat="43.09627" lon="0.22159">
        <ele>488.2</ele>
        <time>2020-06-30T14:04:54Z</time>
      </trkpt>
      <trkpt lat="43.09625" lon="0.22154">
        <ele>487.8</ele>
        <time>2020-06-30T14:04:55Z</time>
      </trkpt>
      <trkpt lat="43.09624" lon="0.2215">
        <ele>487.6</ele>
        <time>2020-06-30T14:04:56Z</time>
      </trkpt>
      <trkpt lat="43.09621" lon="0.22144">
        <ele>487.6</ele>
        <time>2020-06-30T14:04:57Z</time>
      </trkpt>
      <trkpt lat="43.09617" lon="0.22139">
        <ele>487.4</ele>
        <time>2020-06-30T14:04:58Z</time>
      </trkpt>
      <trkpt lat="43.09614" lon="0.22135">
        <ele>487.4</ele>
        <time>2020-06-30T14:04:59Z</time>
      </trkpt>
      <trkpt lat="43.0961" lon="0.2213">
        <ele>487</ele>
        <time>2020-06-30T14:05:00Z</time>
      </trkpt>
      <trkpt lat="43.09608" lon="0.22125">
        <ele>486.8</ele>
        <time>2020-06-30T14:05:01Z</time>
      </trkpt>
      <trkpt lat="43.09605" lon="0.22119">
        <ele>486.6</ele>
        <time>2020-06-30T14:05:02Z</time>
      </trkpt>
      <trkpt lat="43.096" lon="0.22114">
        <ele>486.4</ele>
        <time>2020-06-30T14:05:03Z</time>
      </trkpt>
      <trkpt lat="43.09594" lon="0.22108">
        <ele>486</ele>
        <time>2020-06-30T14:05:04Z</time>
      </trkpt>
      <trkpt lat="43.0959" lon="0.22101">
        <ele>485.6</ele>
        <time>2020-06-30T14:05:05Z</time>
      </trkpt>
      <trkpt lat="43.09584" lon="0.22094">
        <ele>485.4</ele>
        <time>2020-06-30T14:05:06Z</time>
      </trkpt>
      <trkpt lat="43.09579" lon="0.22087">
        <ele>485.4</ele>
        <time>2020-06-30T14:05:07Z</time>
      </trkpt>
      <trkpt lat="43.09575" lon="0.22082">
        <ele>485.2</ele>
        <time>2020-06-30T14:05:08Z</time>
      </trkpt>
      <trkpt lat="43.0957" lon="0.22076">
        <ele>485.2</ele>
        <time>2020-06-30T14:05:09Z</time>
      </trkpt>
      <trkpt lat="43.09565" lon="0.2207">
        <ele>485.2</ele>
        <time>2020-06-30T14:05:10Z</time>
      </trkpt>
      <trkpt lat="43.09561" lon="0.22066">
        <ele>485.2</ele>
        <time>2020-06-30T14:05:11Z</time>
      </trkpt>
      <trkpt lat="43.09557" lon="0.2206">
        <ele>485.4</ele>
        <time>2020-06-30T14:05:12Z</time>
      </trkpt>
      <trkpt lat="43.09555" lon="0.22056">
        <ele>485.4</ele>
        <time>2020-06-30T14:05:13Z</time>
      </trkpt>
      <trkpt lat="43.09552" lon="0.22052">
        <ele>485.6</ele>
        <time>2020-06-30T14:05:14Z</time>
      </trkpt>
      <trkpt lat="43.09549" lon="0.22049">
        <ele>485.6</ele>
        <time>2020-06-30T14:05:15Z</time>
      </trkpt>
      <trkpt lat="43.09547" lon="0.22046">
        <ele>485.6</ele>
        <time>2020-06-30T14:05:16Z</time>
      </trkpt>
      <trkpt lat="43.09544" lon="0.22042">
        <ele>485.8</ele>
        <time>2020-06-30T14:05:17Z</time>
      </trkpt>
      <trkpt lat="43.09541" lon="0.22038">
        <ele>485.8</ele>
        <time>2020-06-30T14:05:18Z</time>
      </trkpt>
      <trkpt lat="43.09539" lon="0.22035">
        <ele>486</ele>
        <time>2020-06-30T14:05:19Z</time>
      </trkpt>
      <trkpt lat="43.09536" lon="0.22031">
        <ele>486.2</ele>
        <time>2020-06-30T14:05:20Z</time>
      </trkpt>
      <trkpt lat="43.09532" lon="0.22029">
        <ele>486.2</ele>
        <time>2020-06-30T14:05:21Z</time>
      </trkpt>
      <trkpt lat="43.09528" lon="0.22025">
        <ele>486.4</ele>
        <time>2020-06-30T14:05:22Z</time>
      </trkpt>
      <trkpt lat="43.09526" lon="0.22023">
        <ele>486.6</ele>
        <time>2020-06-30T14:05:23Z</time>
      </trkpt>
      <trkpt lat="43.09523" lon="0.2202">
        <ele>486.6</ele>
        <time>2020-06-30T14:05:24Z</time>
      </trkpt>
      <trkpt lat="43.0952" lon="0.22018">
        <ele>486.8</ele>
        <time>2020-06-30T14:05:25Z</time>
      </trkpt>
      <trkpt lat="43.09517" lon="0.22016">
        <ele>487</ele>
        <time>2020-06-30T14:05:26Z</time>
      </trkpt>
      <trkpt lat="43.09514" lon="0.22014">
        <ele>487.2</ele>
        <time>2020-06-30T14:05:27Z</time>
      </trkpt>
      <trkpt lat="43.09511" lon="0.22012">
        <ele>487.2</ele>
        <time>2020-06-30T14:05:28Z</time>
      </trkpt>
      <trkpt lat="43.09509" lon="0.2201">
        <ele>487.4</ele>
        <time>2020-06-30T14:05:29Z</time>
      </trkpt>
      <trkpt lat="43.09506" lon="0.22009">
        <ele>487.6</ele>
        <time>2020-06-30T14:05:30Z</time>
      </trkpt>
      <trkpt lat="43.09504" lon="0.22006">
        <ele>487.6</ele>
        <time>2020-06-30T14:05:31Z</time>
      </trkpt>
      <trkpt lat="43.09502" lon="0.22004">
        <ele>487.8</ele>
        <time>2020-06-30T14:05:32Z</time>
      </trkpt>
      <trkpt lat="43.095" lon="0.22001">
        <ele>488</ele>
        <time>2020-06-30T14:05:33Z</time>
      </trkpt>
      <trkpt lat="43.09497" lon="0.21999">
        <ele>488</ele>
        <time>2020-06-30T14:05:34Z</time>
      </trkpt>
      <trkpt lat="43.09495" lon="0.21998">
        <ele>488.2</ele>
        <time>2020-06-30T14:05:35Z</time>
      </trkpt>
      <trkpt lat="43.09494" lon="0.21997">
        <ele>488.4</ele>
        <time>2020-06-30T14:05:36Z</time>
      </trkpt>
      <trkpt lat="43.09492" lon="0.21995">
        <ele>488.6</ele>
        <time>2020-06-30T14:05:37Z</time>
      </trkpt>
      <trkpt lat="43.0949" lon="0.21993">
        <ele>488.8</ele>
        <time>2020-06-30T14:05:38Z</time>
      </trkpt>
      <trkpt lat="43.09489" lon="0.21992">
        <ele>489</ele>
        <time>2020-06-30T14:05:39Z</time>
      </trkpt>
      <trkpt lat="43.09488" lon="0.21991">
        <ele>489</ele>
        <time>2020-06-30T14:05:40Z</time>
      </trkpt>
      <trkpt lat="43.09486" lon="0.2199">
        <ele>489.2</ele>
        <time>2020-06-30T14:05:41Z</time>
      </trkpt>
      <trkpt lat="43.09485" lon="0.21989">
        <ele>489.4</ele>
        <time>2020-06-30T14:05:42Z</time>
      </trkpt>
      <trkpt lat="43.09484" lon="0.21987">
        <ele>489.4</ele>
        <time>2020-06-30T14:05:43Z</time>
      </trkpt>
      <trkpt lat="43.09484" lon="0.21986">
        <ele>489.6</ele>
        <time>2020-06-30T14:05:44Z</time>
      </trkpt>
      <trkpt lat="43.09483" lon="0.21985">
        <ele>489.8</ele>
        <time>2020-06-30T14:05:45Z</time>
      </trkpt>
      <trkpt lat="43.09482" lon="0.21983">
        <ele>490</ele>
        <time>2020-06-30T14:05:46Z</time>
      </trkpt>
      <trkpt lat="43.09481" lon="0.21983">
        <ele>490</ele>
        <time>2020-06-30T14:05:47Z</time>
      </trkpt>
      <trkpt lat="43.0948" lon="0.21982">
        <ele>490.2</ele>
        <time>2020-06-30T14:05:48Z</time>
      </trkpt>
      <trkpt lat="43.09479" lon="0.21981">
        <ele>490.4</ele>
        <time>2020-06-30T14:05:49Z</time>
      </trkpt>
      <trkpt lat="43.09478" lon="0.2198">
        <ele>490.6</ele>
        <time>2020-06-30T14:05:50Z</time>
      </trkpt>
      <trkpt lat="43.09478" lon="0.21978">
        <ele>490.8</ele>
        <time>2020-06-30T14:05:51Z</time>
      </trkpt>
      <trkpt lat="43.09477" lon="0.21976">
        <ele>490.8</ele>
        <time>2020-06-30T14:05:52Z</time>
      </trkpt>
      <trkpt lat="43.09476" lon="0.21975">
        <ele>491</ele>
        <time>2020-06-30T14:05:53Z</time>
      </trkpt>
      <trkpt lat="43.09475" lon="0.21974">
        <ele>491.2</ele>
        <time>2020-06-30T14:05:54Z</time>
      </trkpt>
      <trkpt lat="43.09474" lon="0.21974">
        <ele>491.4</ele>
        <time>2020-06-30T14:05:55Z</time>
      </trkpt>
      <trkpt lat="43.09473" lon="0.21974">
        <ele>491.4</ele>
        <time>2020-06-30T14:05:56Z</time>
      </trkpt>
      <trkpt lat="43.09472" lon="0.21972">
        <ele>491.6</ele>
        <time>2020-06-30T14:05:57Z</time>
      </trkpt>
      <trkpt lat="43.09472" lon="0.21971">
        <ele>491.8</ele>
        <time>2020-06-30T14:05:58Z</time>
      </trkpt>
      <trkpt lat="43.09472" lon="0.21969">
        <ele>492</ele>
        <time>2020-06-30T14:05:59Z</time>
      </trkpt>
      <trkpt lat="43.09471" lon="0.21968">
        <ele>492.2</ele>
        <time>2020-06-30T14:06:00Z</time>
      </trkpt>
      <trkpt lat="43.0947" lon="0.21967">
        <ele>492.2</ele>
        <time>2020-06-30T14:06:01Z</time>
      </trkpt>
      <trkpt lat="43.09469" lon="0.21966">
        <ele>492.4</ele>
        <time>2020-06-30T14:06:02Z</time>
      </trkpt>
      <trkpt lat="43.09469" lon="0.21964">
        <ele>492.6</ele>
        <time>2020-06-30T14:06:03Z</time>
      </trkpt>
      <trkpt lat="43.09468" lon="0.21964">
        <ele>492.8</ele>
        <time>2020-06-30T14:06:04Z</time>
      </trkpt>
      <trkpt lat="43.09466" lon="0.21963">
        <ele>493</ele>
        <time>2020-06-30T14:06:05Z</time>
      </trkpt>
      <trkpt lat="43.09465" lon="0.21963">
        <ele>493.2</ele>
        <time>2020-06-30T14:06:06Z</time>
      </trkpt>
      <trkpt lat="43.09464" lon="0.21963">
        <ele>493.2</ele>
        <time>2020-06-30T14:06:07Z</time>
      </trkpt>
      <trkpt lat="43.09464" lon="0.21962">
        <ele>493.4</ele>
        <time>2020-06-30T14:06:08Z</time>
      </trkpt>
      <trkpt lat="43.09463" lon="0.21961">
        <ele>493.6</ele>
        <time>2020-06-30T14:06:09Z</time>
      </trkpt>
      <trkpt lat="43.09462" lon="0.21961">
        <ele>493.8</ele>
        <time>2020-06-30T14:06:10Z</time>
      </trkpt>
      <trkpt lat="43.09461" lon="0.2196">
        <ele>494</ele>
        <time>2020-06-30T14:06:11Z</time>
      </trkpt>
      <trkpt lat="43.0946" lon="0.21959">
        <ele>494</ele>
        <time>2020-06-30T14:06:12Z</time>
      </trkpt>
      <trkpt lat="43.09459" lon="0.21958">
        <ele>494.2</ele>
        <time>2020-06-30T14:06:13Z</time>
      </trkpt>
      <trkpt lat="43.09458" lon="0.21957">
        <ele>494.4</ele>
        <time>2020-06-30T14:06:14Z</time>
      </trkpt>
      <trkpt lat="43.09457" lon="0.21956">
        <ele>494.6</ele>
        <time>2020-06-30T14:06:15Z</time>
      </trkpt>
      <trkpt lat="43.09456" lon="0.21955">
        <ele>494.6</ele>
        <time>2020-06-30T14:06:16Z</time>
      </trkpt>
      <trkpt lat="43.09455" lon="0.21954">
        <ele>494.8</ele>
        <time>2020-06-30T14:06:17Z</time>
      </trkpt>
      <trkpt lat="43.09454" lon="0.21953">
        <ele>495</ele>
        <time>2020-06-30T14:06:18Z</time>
      </trkpt>
      <trkpt lat="43.09454" lon="0.21953">
        <ele>495</ele>
        <time>2020-06-30T14:06:19Z</time>
      </trkpt>
      <trkpt lat="43.09452" lon="0.21952">
        <ele>495.2</ele>
        <time>2020-06-30T14:06:20Z</time>
      </trkpt>
      <trkpt lat="43.09451" lon="0.21951">
        <ele>495.4</ele>
        <time>2020-06-30T14:06:21Z</time>
      </trkpt>
      <trkpt lat="43.0945" lon="0.2195">
        <ele>495.4</ele>
        <time>2020-06-30T14:06:22Z</time>
      </trkpt>
      <trkpt lat="43.09449" lon="0.21948">
        <ele>495.6</ele>
        <time>2020-06-30T14:06:23Z</time>
      </trkpt>
      <trkpt lat="43.09448" lon="0.21947">
        <ele>495.8</ele>
        <time>2020-06-30T14:06:24Z</time>
      </trkpt>
      <trkpt lat="43.09446" lon="0.21947">
        <ele>496</ele>
        <time>2020-06-30T14:06:25Z</time>
      </trkpt>
      <trkpt lat="43.09445" lon="0.21947">
        <ele>496.2</ele>
        <time>2020-06-30T14:06:26Z</time>
      </trkpt>
      <trkpt lat="43.09443" lon="0.21946">
        <ele>496.2</ele>
        <time>2020-06-30T14:06:27Z</time>
      </trkpt>
      <trkpt lat="43.09442" lon="0.21946">
        <ele>496.4</ele>
        <time>2020-06-30T14:06:28Z</time>
      </trkpt>
      <trkpt lat="43.0944" lon="0.21945">
        <ele>496.6</ele>
        <time>2020-06-30T14:06:29Z</time>
      </trkpt>
      <trkpt lat="43.09439" lon="0.21945">
        <ele>496.8</ele>
        <time>2020-06-30T14:06:30Z</time>
      </trkpt>
      <trkpt lat="43.09437" lon="0.21945">
        <ele>496.8</ele>
        <time>2020-06-30T14:06:31Z</time>
      </trkpt>
      <trkpt lat="43.09436" lon="0.21945">
        <ele>497</ele>
        <time>2020-06-30T14:06:32Z</time>
      </trkpt>
      <trkpt lat="43.09435" lon="0.21944">
        <ele>497.2</ele>
        <time>2020-06-30T14:06:33Z</time>
      </trkpt>
      <trkpt lat="43.09434" lon="0.21944">
        <ele>497.4</ele>
        <time>2020-06-30T14:06:34Z</time>
      </trkpt>
      <trkpt lat="43.09433" lon="0.21943">
        <ele>497.6</ele>
        <time>2020-06-30T14:06:35Z</time>
      </trkpt>
      <trkpt lat="43.09433" lon="0.21943">
        <ele>497.6</ele>
        <time>2020-06-30T14:06:36Z</time>
      </trkpt>
      <trkpt lat="43.09432" lon="0.21943">
        <ele>497.8</ele>
        <time>2020-06-30T14:06:37Z</time>
      </trkpt>
      <trkpt lat="43.09431" lon="0.21942">
        <ele>498</ele>
        <time>2020-06-30T14:06:38Z</time>
      </trkpt>
      <trkpt lat="43.0943" lon="0.21941">
        <ele>498.2</ele>
        <time>2020-06-30T14:06:39Z</time>
      </trkpt>
      <trkpt lat="43.09429" lon="0.21941">
        <ele>498.2</ele>
        <time>2020-06-30T14:06:40Z</time>
      </trkpt>
      <trkpt lat="43.09428" lon="0.21941">
        <ele>498.4</ele>
        <time>2020-06-30T14:06:41Z</time>
      </trkpt>
      <trkpt lat="43.09427" lon="0.2194">
        <ele>498.6</ele>
        <time>2020-06-30T14:06:42Z</time>
      </trkpt>
      <trkpt lat="43.09426" lon="0.2194">
        <ele>498.8</ele>
        <time>2020-06-30T14:06:43Z</time>
      </trkpt>
      <trkpt lat="43.09425" lon="0.21939">
        <ele>499</ele>
        <time>2020-06-30T14:06:44Z</time>
      </trkpt>
      <trkpt lat="43.09424" lon="0.21939">
        <ele>499</ele>
        <time>2020-06-30T14:06:45Z</time>
      </trkpt>
      <trkpt lat="43.09423" lon="0.21938">
        <ele>499.2</ele>
        <time>2020-06-30T14:06:46Z</time>
      </trkpt>
      <trkpt lat="43.09422" lon="0.21937">
        <ele>499.4</ele>
        <time>2020-06-30T14:06:47Z</time>
      </trkpt>
      <trkpt lat="43.09421" lon="0.21936">
        <ele>499.4</ele>
        <time>2020-06-30T14:06:48Z</time>
      </trkpt>
      <trkpt lat="43.09419" lon="0.21936">
        <ele>499.8</ele>
        <time>2020-06-30T14:06:49Z</time>
      </trkpt>
      <trkpt lat="43.09418" lon="0.21936">
        <ele>499.8</ele>
        <time>2020-06-30T14:06:50Z</time>
      </trkpt>
      <trkpt lat="43.09417" lon="0.21936">
        <ele>500</ele>
        <time>2020-06-30T14:06:51Z</time>
      </trkpt>
      <trkpt lat="43.09416" lon="0.21936">
        <ele>500.2</ele>
        <time>2020-06-30T14:06:52Z</time>
      </trkpt>
      <trkpt lat="43.09415" lon="0.21935">
        <ele>500.4</ele>
        <time>2020-06-30T14:06:53Z</time>
      </trkpt>
      <trkpt lat="43.09415" lon="0.21934">
        <ele>500.4</ele>
        <time>2020-06-30T14:06:54Z</time>
      </trkpt>
      <trkpt lat="43.09407" lon="0.21933">
        <ele>501.6</ele>
        <time>2020-06-30T14:07:01Z</time>
      </trkpt>
      <trkpt lat="43.09406" lon="0.21934">
        <ele>501.6</ele>
        <time>2020-06-30T14:07:02Z</time>
      </trkpt>
      <trkpt lat="43.09405" lon="0.21934">
        <ele>501.8</ele>
        <time>2020-06-30T14:07:03Z</time>
      </trkpt>
      <trkpt lat="43.09403" lon="0.21934">
        <ele>502</ele>
        <time>2020-06-30T14:07:04Z</time>
      </trkpt>
      <trkpt lat="43.09402" lon="0.21933">
        <ele>502.2</ele>
        <time>2020-06-30T14:07:05Z</time>
      </trkpt>
      <trkpt lat="43.09401" lon="0.21933">
        <ele>502.4</ele>
        <time>2020-06-30T14:07:06Z</time>
      </trkpt>
      <trkpt lat="43.094" lon="0.21933">
        <ele>502.4</ele>
        <time>2020-06-30T14:07:07Z</time>
      </trkpt>
      <trkpt lat="43.09399" lon="0.21933">
        <ele>502.6</ele>
        <time>2020-06-30T14:07:08Z</time>
      </trkpt>
      <trkpt lat="43.09397" lon="0.21932">
        <ele>502.8</ele>
        <time>2020-06-30T14:07:09Z</time>
      </trkpt>
      <trkpt lat="43.09396" lon="0.21932">
        <ele>502.8</ele>
        <time>2020-06-30T14:07:10Z</time>
      </trkpt>
      <trkpt lat="43.09395" lon="0.21932">
        <ele>503</ele>
        <time>2020-06-30T14:07:11Z</time>
      </trkpt>
      <trkpt lat="43.09394" lon="0.21932">
        <ele>503.2</ele>
        <time>2020-06-30T14:07:12Z</time>
      </trkpt>
      <trkpt lat="43.09393" lon="0.21932">
        <ele>503.4</ele>
        <time>2020-06-30T14:07:13Z</time>
      </trkpt>
      <trkpt lat="43.09392" lon="0.21932">
        <ele>503.4</ele>
        <time>2020-06-30T14:07:14Z</time>
      </trkpt>
      <trkpt lat="43.09392" lon="0.21931">
        <ele>503.6</ele>
        <time>2020-06-30T14:07:15Z</time>
      </trkpt>
      <trkpt lat="43.09391" lon="0.2193">
        <ele>503.8</ele>
        <time>2020-06-30T14:07:16Z</time>
      </trkpt>
      <trkpt lat="43.0939" lon="0.21929">
        <ele>504</ele>
        <time>2020-06-30T14:07:17Z</time>
      </trkpt>
      <trkpt lat="43.0939" lon="0.21928">
        <ele>504</ele>
        <time>2020-06-30T14:07:18Z</time>
      </trkpt>
      <trkpt lat="43.09389" lon="0.21928">
        <ele>504.2</ele>
        <time>2020-06-30T14:07:19Z</time>
      </trkpt>
      <trkpt lat="43.09388" lon="0.21927">
        <ele>504.4</ele>
        <time>2020-06-30T14:07:20Z</time>
      </trkpt>
      <trkpt lat="43.09388" lon="0.21926">
        <ele>504.4</ele>
        <time>2020-06-30T14:07:21Z</time>
      </trkpt>
      <trkpt lat="43.09386" lon="0.21927">
        <ele>504.6</ele>
        <time>2020-06-30T14:07:22Z</time>
      </trkpt>
      <trkpt lat="43.09385" lon="0.21926">
        <ele>504.8</ele>
        <time>2020-06-30T14:07:23Z</time>
      </trkpt>
      <trkpt lat="43.09385" lon="0.21924">
        <ele>505</ele>
        <time>2020-06-30T14:07:24Z</time>
      </trkpt>
      <trkpt lat="43.09385" lon="0.21923">
        <ele>505</ele>
        <time>2020-06-30T14:07:25Z</time>
      </trkpt>
      <trkpt lat="43.09385" lon="0.21922">
        <ele>505</ele>
        <time>2020-06-30T14:07:26Z</time>
      </trkpt>
      <trkpt lat="43.09385" lon="0.21921">
        <ele>505.2</ele>
        <time>2020-06-30T14:07:27Z</time>
      </trkpt>
      <trkpt lat="43.09385" lon="0.2192">
        <ele>505.2</ele>
        <time>2020-06-30T14:07:28Z</time>
      </trkpt>
      <trkpt lat="43.09384" lon="0.2192">
        <ele>505.2</ele>
        <time>2020-06-30T14:07:29Z</time>
      </trkpt>
      <trkpt lat="43.09382" lon="0.21919">
        <ele>505.2</ele>
        <time>2020-06-30T14:07:30Z</time>
      </trkpt>
      <trkpt lat="43.09382" lon="0.21919">
        <ele>505.2</ele>
        <time>2020-06-30T14:07:31Z</time>
      </trkpt>
      <trkpt lat="43.09381" lon="0.21919">
        <ele>505.2</ele>
        <time>2020-06-30T14:07:32Z</time>
      </trkpt>
      <trkpt lat="43.09381" lon="0.21919">
        <ele>505.2</ele>
        <time>2020-06-30T14:07:33Z</time>
      </trkpt>
      <trkpt lat="43.09381" lon="0.2192">
        <ele>505.2</ele>
        <time>2020-06-30T14:07:34Z</time>
      </trkpt>
      <trkpt lat="43.09381" lon="0.2192">
        <ele>505.2</ele>
        <time>2020-06-30T14:07:35Z</time>
      </trkpt>
      <trkpt lat="43.09382" lon="0.2192">
        <ele>505.4</ele>
        <time>2020-06-30T14:07:36Z</time>
      </trkpt>
      <trkpt lat="43.0938" lon="0.21919">
        <ele>505.4</ele>
        <time>2020-06-30T14:07:37Z</time>
      </trkpt>
      <trkpt lat="43.09382" lon="0.21917">
        <ele>506</ele>
        <time>2020-06-30T14:09:51Z</time>
      </trkpt>
      <trkpt lat="43.09383" lon="0.21915">
        <ele>506</ele>
        <time>2020-06-30T14:09:52Z</time>
      </trkpt>
      <trkpt lat="43.09385" lon="0.21915">
        <ele>506.2</ele>
        <time>2020-06-30T14:09:53Z</time>
      </trkpt>
      <trkpt lat="43.09386" lon="0.21914">
        <ele>506.2</ele>
        <time>2020-06-30T14:09:54Z</time>
      </trkpt>
      <trkpt lat="43.09387" lon="0.21913">
        <ele>506.4</ele>
        <time>2020-06-30T14:09:55Z</time>
      </trkpt>
      <trkpt lat="43.09389" lon="0.21912">
        <ele>506.6</ele>
        <time>2020-06-30T14:09:56Z</time>
      </trkpt>
      <trkpt lat="43.0939" lon="0.2191">
        <ele>506.8</ele>
        <time>2020-06-30T14:09:57Z</time>
      </trkpt>
      <trkpt lat="43.09391" lon="0.2191">
        <ele>507</ele>
        <time>2020-06-30T14:09:59Z</time>
      </trkpt>
      <trkpt lat="43.09393" lon="0.21908">
        <ele>507.2</ele>
        <time>2020-06-30T14:10:00Z</time>
      </trkpt>
      <trkpt lat="43.09395" lon="0.21908">
        <ele>507.4</ele>
        <time>2020-06-30T14:10:01Z</time>
      </trkpt>
      <trkpt lat="43.09396" lon="0.21908">
        <ele>507.6</ele>
        <time>2020-06-30T14:10:02Z</time>
      </trkpt>
      <trkpt lat="43.09398" lon="0.21907">
        <ele>507.8</ele>
        <time>2020-06-30T14:10:03Z</time>
      </trkpt>
      <trkpt lat="43.09398" lon="0.21907">
        <ele>507.8</ele>
        <time>2020-06-30T14:10:04Z</time>
      </trkpt>
      <trkpt lat="43.09399" lon="0.21906">
        <ele>508</ele>
        <time>2020-06-30T14:10:05Z</time>
      </trkpt>
      <trkpt lat="43.09399" lon="0.21905">
        <ele>508.2</ele>
        <time>2020-06-30T14:10:06Z</time>
      </trkpt>
      <trkpt lat="43.094" lon="0.21904">
        <ele>508.2</ele>
        <time>2020-06-30T14:10:07Z</time>
      </trkpt>
      <trkpt lat="43.09401" lon="0.21904">
        <ele>508.2</ele>
        <time>2020-06-30T14:10:08Z</time>
      </trkpt>
      <trkpt lat="43.09402" lon="0.21904">
        <ele>508.4</ele>
        <time>2020-06-30T14:10:09Z</time>
      </trkpt>
      <trkpt lat="43.09404" lon="0.21903">
        <ele>508.6</ele>
        <time>2020-06-30T14:10:10Z</time>
      </trkpt>
      <trkpt lat="43.09405" lon="0.21902">
        <ele>508.6</ele>
        <time>2020-06-30T14:10:12Z</time>
      </trkpt>
      <trkpt lat="43.09406" lon="0.219">
        <ele>509</ele>
        <time>2020-06-30T14:10:13Z</time>
      </trkpt>
      <trkpt lat="43.09406" lon="0.21899">
        <ele>509.2</ele>
        <time>2020-06-30T14:10:14Z</time>
      </trkpt>
      <trkpt lat="43.09407" lon="0.21898">
        <ele>509.2</ele>
        <time>2020-06-30T14:10:15Z</time>
      </trkpt>
      <trkpt lat="43.09408" lon="0.21896">
        <ele>509.4</ele>
        <time>2020-06-30T14:10:17Z</time>
      </trkpt>
      <trkpt lat="43.09408" lon="0.21893">
        <ele>509.6</ele>
        <time>2020-06-30T14:10:18Z</time>
      </trkpt>
      <trkpt lat="43.09409" lon="0.21891">
        <ele>509.8</ele>
        <time>2020-06-30T14:10:19Z</time>
      </trkpt>
      <trkpt lat="43.09411" lon="0.21888">
        <ele>509.8</ele>
        <time>2020-06-30T14:10:20Z</time>
      </trkpt>
      <trkpt lat="43.09412" lon="0.21887">
        <ele>510</ele>
        <time>2020-06-30T14:10:21Z</time>
      </trkpt>
      <trkpt lat="43.09412" lon="0.21886">
        <ele>510</ele>
        <time>2020-06-30T14:10:22Z</time>
      </trkpt>
      <trkpt lat="43.09413" lon="0.21884">
        <ele>510.2</ele>
        <time>2020-06-30T14:10:23Z</time>
      </trkpt>
      <trkpt lat="43.09414" lon="0.21883">
        <ele>510.4</ele>
        <time>2020-06-30T14:10:24Z</time>
      </trkpt>
      <trkpt lat="43.09415" lon="0.21882">
        <ele>510.4</ele>
        <time>2020-06-30T14:10:26Z</time>
      </trkpt>
      <trkpt lat="43.09417" lon="0.21879">
        <ele>510.8</ele>
        <time>2020-06-30T14:10:27Z</time>
      </trkpt>
      <trkpt lat="43.09417" lon="0.21877">
        <ele>510.8</ele>
        <time>2020-06-30T14:10:28Z</time>
      </trkpt>
      <trkpt lat="43.09417" lon="0.21876">
        <ele>511</ele>
        <time>2020-06-30T14:10:29Z</time>
      </trkpt>
      <trkpt lat="43.09417" lon="0.21875">
        <ele>511</ele>
        <time>2020-06-30T14:10:30Z</time>
      </trkpt>
      <trkpt lat="43.09418" lon="0.21873">
        <ele>511.2</ele>
        <time>2020-06-30T14:10:31Z</time>
      </trkpt>
      <trkpt lat="43.09418" lon="0.21872">
        <ele>511.2</ele>
        <time>2020-06-30T14:10:32Z</time>
      </trkpt>
      <trkpt lat="43.09419" lon="0.2187">
        <ele>511.4</ele>
        <time>2020-06-30T14:10:33Z</time>
      </trkpt>
      <trkpt lat="43.09419" lon="0.21869">
        <ele>511.6</ele>
        <time>2020-06-30T14:10:34Z</time>
      </trkpt>
      <trkpt lat="43.0942" lon="0.21867">
        <ele>511.6</ele>
        <time>2020-06-30T14:10:35Z</time>
      </trkpt>
      <trkpt lat="43.0942" lon="0.21865">
        <ele>511.8</ele>
        <time>2020-06-30T14:10:36Z</time>
      </trkpt>
      <trkpt lat="43.09421" lon="0.21864">
        <ele>512</ele>
        <time>2020-06-30T14:10:37Z</time>
      </trkpt>
      <trkpt lat="43.09421" lon="0.21863">
        <ele>512</ele>
        <time>2020-06-30T14:10:38Z</time>
      </trkpt>
      <trkpt lat="43.09421" lon="0.21861">
        <ele>512.2</ele>
        <time>2020-06-30T14:10:39Z</time>
      </trkpt>
      <trkpt lat="43.09422" lon="0.2186">
        <ele>512.2</ele>
        <time>2020-06-30T14:10:40Z</time>
      </trkpt>
      <trkpt lat="43.09422" lon="0.21857">
        <ele>512.4</ele>
        <time>2020-06-30T14:10:41Z</time>
      </trkpt>
      <trkpt lat="43.09421" lon="0.21856">
        <ele>512.4</ele>
        <time>2020-06-30T14:10:43Z</time>
      </trkpt>
      <trkpt lat="43.09421" lon="0.21853">
        <ele>512.6</ele>
        <time>2020-06-30T14:10:44Z</time>
      </trkpt>
      <trkpt lat="43.09422" lon="0.21851">
        <ele>512.8</ele>
        <time>2020-06-30T14:10:45Z</time>
      </trkpt>
      <trkpt lat="43.09422" lon="0.2185">
        <ele>512.8</ele>
        <time>2020-06-30T14:10:46Z</time>
      </trkpt>
      <trkpt lat="43.09422" lon="0.21848">
        <ele>513</ele>
        <time>2020-06-30T14:10:47Z</time>
      </trkpt>
      <trkpt lat="43.09422" lon="0.21846">
        <ele>513.2</ele>
        <time>2020-06-30T14:10:49Z</time>
      </trkpt>
      <trkpt lat="43.09423" lon="0.21845">
        <ele>513.2</ele>
        <time>2020-06-30T14:10:50Z</time>
      </trkpt>
      <trkpt lat="43.09424" lon="0.21844">
        <ele>513.4</ele>
        <time>2020-06-30T14:10:51Z</time>
      </trkpt>
      <trkpt lat="43.09425" lon="0.21842">
        <ele>513.4</ele>
        <time>2020-06-30T14:10:52Z</time>
      </trkpt>
      <trkpt lat="43.09425" lon="0.21838">
        <ele>513.8</ele>
        <time>2020-06-30T14:10:53Z</time>
      </trkpt>
      <trkpt lat="43.09427" lon="0.21836">
        <ele>513.8</ele>
        <time>2020-06-30T14:10:54Z</time>
      </trkpt>
      <trkpt lat="43.09427" lon="0.21834">
        <ele>513.8</ele>
        <time>2020-06-30T14:10:55Z</time>
      </trkpt>
      <trkpt lat="43.09427" lon="0.21833">
        <ele>514</ele>
        <time>2020-06-30T14:10:56Z</time>
      </trkpt>
      <trkpt lat="43.09427" lon="0.21831">
        <ele>514</ele>
        <time>2020-06-30T14:10:58Z</time>
      </trkpt>
      <trkpt lat="43.09427" lon="0.2183">
        <ele>514.2</ele>
        <time>2020-06-30T14:10:59Z</time>
      </trkpt>
      <trkpt lat="43.09429" lon="0.21828">
        <ele>514.2</ele>
        <time>2020-06-30T14:11:00Z</time>
      </trkpt>
      <trkpt lat="43.09429" lon="0.21825">
        <ele>514.4</ele>
        <time>2020-06-30T14:11:02Z</time>
      </trkpt>
      <trkpt lat="43.0943" lon="0.21823">
        <ele>514.6</ele>
        <time>2020-06-30T14:11:03Z</time>
      </trkpt>
      <trkpt lat="43.09429" lon="0.21822">
        <ele>514.6</ele>
        <time>2020-06-30T14:11:04Z</time>
      </trkpt>
      <trkpt lat="43.09429" lon="0.2182">
        <ele>514.8</ele>
        <time>2020-06-30T14:11:05Z</time>
      </trkpt>
      <trkpt lat="43.0943" lon="0.21817">
        <ele>515</ele>
        <time>2020-06-30T14:11:06Z</time>
      </trkpt>
      <trkpt lat="43.09429" lon="0.21815">
        <ele>515.2</ele>
        <time>2020-06-30T14:11:07Z</time>
      </trkpt>
      <trkpt lat="43.0943" lon="0.21814">
        <ele>515.2</ele>
        <time>2020-06-30T14:11:08Z</time>
      </trkpt>
      <trkpt lat="43.09429" lon="0.21813">
        <ele>515.4</ele>
        <time>2020-06-30T14:11:09Z</time>
      </trkpt>
      <trkpt lat="43.0943" lon="0.21811">
        <ele>515.4</ele>
        <time>2020-06-30T14:11:11Z</time>
      </trkpt>
      <trkpt lat="43.0943" lon="0.2181">
        <ele>515.6</ele>
        <time>2020-06-30T14:11:12Z</time>
      </trkpt>
      <trkpt lat="43.09431" lon="0.21808">
        <ele>515.8</ele>
        <time>2020-06-30T14:11:13Z</time>
      </trkpt>
      <trkpt lat="43.09431" lon="0.21807">
        <ele>515.8</ele>
        <time>2020-06-30T14:11:14Z</time>
      </trkpt>
      <trkpt lat="43.09433" lon="0.21803">
        <ele>516</ele>
        <time>2020-06-30T14:11:15Z</time>
      </trkpt>
      <trkpt lat="43.09434" lon="0.21802">
        <ele>516.2</ele>
        <time>2020-06-30T14:11:16Z</time>
      </trkpt>
      <trkpt lat="43.09435" lon="0.21801">
        <ele>516.2</ele>
        <time>2020-06-30T14:11:18Z</time>
      </trkpt>
      <trkpt lat="43.09437" lon="0.21799">
        <ele>516.4</ele>
        <time>2020-06-30T14:11:19Z</time>
      </trkpt>
      <trkpt lat="43.09436" lon="0.21798">
        <ele>516.6</ele>
        <time>2020-06-30T14:11:20Z</time>
      </trkpt>
      <trkpt lat="43.09435" lon="0.21795">
        <ele>516.8</ele>
        <time>2020-06-30T14:11:21Z</time>
      </trkpt>
      <trkpt lat="43.09434" lon="0.21794">
        <ele>517</ele>
        <time>2020-06-30T14:11:22Z</time>
      </trkpt>
      <trkpt lat="43.09434" lon="0.21793">
        <ele>517</ele>
        <time>2020-06-30T14:11:24Z</time>
      </trkpt>
      <trkpt lat="43.09434" lon="0.21792">
        <ele>517.2</ele>
        <time>2020-06-30T14:11:25Z</time>
      </trkpt>
      <trkpt lat="43.09434" lon="0.21791">
        <ele>517.4</ele>
        <time>2020-06-30T14:11:26Z</time>
      </trkpt>
      <trkpt lat="43.09435" lon="0.2179">
        <ele>517.4</ele>
        <time>2020-06-30T14:11:27Z</time>
      </trkpt>
      <trkpt lat="43.09435" lon="0.21788">
        <ele>517.6</ele>
        <time>2020-06-30T14:11:28Z</time>
      </trkpt>
      <trkpt lat="43.09435" lon="0.21786">
        <ele>517.8</ele>
        <time>2020-06-30T14:11:29Z</time>
      </trkpt>
      <trkpt lat="43.09435" lon="0.21784">
        <ele>518</ele>
        <time>2020-06-30T14:11:30Z</time>
      </trkpt>
      <trkpt lat="43.09437" lon="0.21783">
        <ele>518.2</ele>
        <time>2020-06-30T14:11:32Z</time>
      </trkpt>
      <trkpt lat="43.09437" lon="0.21781">
        <ele>518.2</ele>
        <time>2020-06-30T14:11:33Z</time>
      </trkpt>
      <trkpt lat="43.09438" lon="0.2178">
        <ele>518.4</ele>
        <time>2020-06-30T14:11:34Z</time>
      </trkpt>
      <trkpt lat="43.09439" lon="0.21776">
        <ele>518.8</ele>
        <time>2020-06-30T14:11:35Z</time>
      </trkpt>
      <trkpt lat="43.09439" lon="0.21776">
        <ele>519</ele>
        <time>2020-06-30T14:11:36Z</time>
      </trkpt>
      <trkpt lat="43.09439" lon="0.21773">
        <ele>519</ele>
        <time>2020-06-30T14:11:37Z</time>
      </trkpt>
      <trkpt lat="43.09439" lon="0.21772">
        <ele>519.2</ele>
        <time>2020-06-30T14:11:38Z</time>
      </trkpt>
      <trkpt lat="43.0944" lon="0.2177">
        <ele>519.4</ele>
        <time>2020-06-30T14:11:39Z</time>
      </trkpt>
      <trkpt lat="43.0944" lon="0.21768">
        <ele>519.4</ele>
        <time>2020-06-30T14:11:40Z</time>
      </trkpt>
      <trkpt lat="43.0944" lon="0.21766">
        <ele>519.6</ele>
        <time>2020-06-30T14:11:42Z</time>
      </trkpt>
      <trkpt lat="43.09441" lon="0.21765">
        <ele>519.8</ele>
        <time>2020-06-30T14:11:43Z</time>
      </trkpt>
      <trkpt lat="43.0944" lon="0.21763">
        <ele>519.8</ele>
        <time>2020-06-30T14:11:44Z</time>
      </trkpt>
      <trkpt lat="43.09439" lon="0.21761">
        <ele>520</ele>
        <time>2020-06-30T14:11:45Z</time>
      </trkpt>
      <trkpt lat="43.0944" lon="0.2176">
        <ele>520.2</ele>
        <time>2020-06-30T14:11:46Z</time>
      </trkpt>
      <trkpt lat="43.09441" lon="0.21757">
        <ele>520.4</ele>
        <time>2020-06-30T14:11:47Z</time>
      </trkpt>
      <trkpt lat="43.09442" lon="0.21754">
        <ele>520.4</ele>
        <time>2020-06-30T14:11:49Z</time>
      </trkpt>
      <trkpt lat="43.09442" lon="0.21752">
        <ele>520.6</ele>
        <time>2020-06-30T14:11:50Z</time>
      </trkpt>
      <trkpt lat="43.09441" lon="0.21751">
        <ele>520.8</ele>
        <time>2020-06-30T14:11:51Z</time>
      </trkpt>
      <trkpt lat="43.09442" lon="0.21749">
        <ele>520.8</ele>
        <time>2020-06-30T14:11:52Z</time>
      </trkpt>
      <trkpt lat="43.09441" lon="0.21746">
        <ele>521</ele>
        <time>2020-06-30T14:11:53Z</time>
      </trkpt>
      <trkpt lat="43.09441" lon="0.21744">
        <ele>521.2</ele>
        <time>2020-06-30T14:11:54Z</time>
      </trkpt>
      <trkpt lat="43.09441" lon="0.21743">
        <ele>521.4</ele>
        <time>2020-06-30T14:11:55Z</time>
      </trkpt>
      <trkpt lat="43.09441" lon="0.21742">
        <ele>521.4</ele>
        <time>2020-06-30T14:11:56Z</time>
      </trkpt>
      <trkpt lat="43.09441" lon="0.2174">
        <ele>521.6</ele>
        <time>2020-06-30T14:11:57Z</time>
      </trkpt>
      <trkpt lat="43.09441" lon="0.21739">
        <ele>521.8</ele>
        <time>2020-06-30T14:11:58Z</time>
      </trkpt>
      <trkpt lat="43.09441" lon="0.21738">
        <ele>521.8</ele>
        <time>2020-06-30T14:11:59Z</time>
      </trkpt>
      <trkpt lat="43.09441" lon="0.21737">
        <ele>522</ele>
        <time>2020-06-30T14:12:00Z</time>
      </trkpt>
      <trkpt lat="43.0944" lon="0.21735">
        <ele>522</ele>
        <time>2020-06-30T14:12:01Z</time>
      </trkpt>
      <trkpt lat="43.09441" lon="0.21734">
        <ele>522.2</ele>
        <time>2020-06-30T14:12:02Z</time>
      </trkpt>
      <trkpt lat="43.09441" lon="0.21731">
        <ele>522.2</ele>
        <time>2020-06-30T14:12:03Z</time>
      </trkpt>
      <trkpt lat="43.09441" lon="0.21729">
        <ele>522.4</ele>
        <time>2020-06-30T14:12:05Z</time>
      </trkpt>
      <trkpt lat="43.09442" lon="0.21728">
        <ele>522.6</ele>
        <time>2020-06-30T14:12:06Z</time>
      </trkpt>
      <trkpt lat="43.09443" lon="0.21726">
        <ele>522.6</ele>
        <time>2020-06-30T14:12:07Z</time>
      </trkpt>
      <trkpt lat="43.09443" lon="0.21726">
        <ele>522.8</ele>
        <time>2020-06-30T14:12:08Z</time>
      </trkpt>
      <trkpt lat="43.09442" lon="0.21723">
        <ele>523</ele>
        <time>2020-06-30T14:12:09Z</time>
      </trkpt>
      <trkpt lat="43.09442" lon="0.21722">
        <ele>523</ele>
        <time>2020-06-30T14:12:10Z</time>
      </trkpt>
      <trkpt lat="43.09443" lon="0.2172">
        <ele>523.2</ele>
        <time>2020-06-30T14:12:11Z</time>
      </trkpt>
      <trkpt lat="43.09443" lon="0.21718">
        <ele>523.2</ele>
        <time>2020-06-30T14:12:12Z</time>
      </trkpt>
      <trkpt lat="43.09443" lon="0.21715">
        <ele>523.4</ele>
        <time>2020-06-30T14:12:13Z</time>
      </trkpt>
      <trkpt lat="43.09445" lon="0.21714">
        <ele>523.4</ele>
        <time>2020-06-30T14:12:14Z</time>
      </trkpt>
      <trkpt lat="43.09445" lon="0.21712">
        <ele>523.6</ele>
        <time>2020-06-30T14:12:15Z</time>
      </trkpt>
      <trkpt lat="43.09446" lon="0.21711">
        <ele>523.6</ele>
        <time>2020-06-30T14:12:16Z</time>
      </trkpt>
      <trkpt lat="43.09445" lon="0.21709">
        <ele>523.8</ele>
        <time>2020-06-30T14:12:17Z</time>
      </trkpt>
      <trkpt lat="43.09447" lon="0.21706">
        <ele>524</ele>
        <time>2020-06-30T14:12:19Z</time>
      </trkpt>
      <trkpt lat="43.09447" lon="0.21705">
        <ele>524.2</ele>
        <time>2020-06-30T14:12:20Z</time>
      </trkpt>
      <trkpt lat="43.09446" lon="0.21703">
        <ele>524.2</ele>
        <time>2020-06-30T14:12:21Z</time>
      </trkpt>
      <trkpt lat="43.09446" lon="0.21702">
        <ele>524.4</ele>
        <time>2020-06-30T14:12:22Z</time>
      </trkpt>
      <trkpt lat="43.09445" lon="0.217">
        <ele>524.6</ele>
        <time>2020-06-30T14:12:23Z</time>
      </trkpt>
      <trkpt lat="43.09447" lon="0.21699">
        <ele>524.6</ele>
        <time>2020-06-30T14:12:24Z</time>
      </trkpt>
      <trkpt lat="43.09447" lon="0.21697">
        <ele>524.8</ele>
        <time>2020-06-30T14:12:25Z</time>
      </trkpt>
      <trkpt lat="43.09449" lon="0.21695">
        <ele>524.8</ele>
        <time>2020-06-30T14:12:26Z</time>
      </trkpt>
      <trkpt lat="43.0945" lon="0.21694">
        <ele>525</ele>
        <time>2020-06-30T14:12:27Z</time>
      </trkpt>
      <trkpt lat="43.09451" lon="0.21693">
        <ele>525.2</ele>
        <time>2020-06-30T14:12:28Z</time>
      </trkpt>
      <trkpt lat="43.09451" lon="0.21691">
        <ele>525.2</ele>
        <time>2020-06-30T14:12:29Z</time>
      </trkpt>
      <trkpt lat="43.09452" lon="0.2169">
        <ele>525.4</ele>
        <time>2020-06-30T14:12:30Z</time>
      </trkpt>
      <trkpt lat="43.09452" lon="0.21688">
        <ele>525.4</ele>
        <time>2020-06-30T14:12:31Z</time>
      </trkpt>
      <trkpt lat="43.09452" lon="0.21687">
        <ele>525.6</ele>
        <time>2020-06-30T14:12:32Z</time>
      </trkpt>
      <trkpt lat="43.09454" lon="0.21686">
        <ele>525.8</ele>
        <time>2020-06-30T14:12:33Z</time>
      </trkpt>
      <trkpt lat="43.09454" lon="0.21684">
        <ele>525.8</ele>
        <time>2020-06-30T14:12:34Z</time>
      </trkpt>
      <trkpt lat="43.09454" lon="0.21682">
        <ele>526</ele>
        <time>2020-06-30T14:12:35Z</time>
      </trkpt>
      <trkpt lat="43.09454" lon="0.2168">
        <ele>526</ele>
        <time>2020-06-30T14:12:36Z</time>
      </trkpt>
      <trkpt lat="43.09453" lon="0.21676">
        <ele>526.2</ele>
        <time>2020-06-30T14:12:38Z</time>
      </trkpt>
      <trkpt lat="43.09454" lon="0.21674">
        <ele>526.4</ele>
        <time>2020-06-30T14:12:39Z</time>
      </trkpt>
      <trkpt lat="43.09454" lon="0.21673">
        <ele>526.6</ele>
        <time>2020-06-30T14:12:40Z</time>
      </trkpt>
      <trkpt lat="43.09455" lon="0.21672">
        <ele>526.6</ele>
        <time>2020-06-30T14:12:41Z</time>
      </trkpt>
      <trkpt lat="43.09454" lon="0.2167">
        <ele>526.8</ele>
        <time>2020-06-30T14:12:42Z</time>
      </trkpt>
      <trkpt lat="43.09453" lon="0.21668">
        <ele>526.8</ele>
        <time>2020-06-30T14:12:43Z</time>
      </trkpt>
      <trkpt lat="43.09454" lon="0.21666">
        <ele>527</ele>
        <time>2020-06-30T14:12:44Z</time>
      </trkpt>
      <trkpt lat="43.09454" lon="0.21665">
        <ele>527</ele>
        <time>2020-06-30T14:12:45Z</time>
      </trkpt>
      <trkpt lat="43.09454" lon="0.21663">
        <ele>527.2</ele>
        <time>2020-06-30T14:12:46Z</time>
      </trkpt>
      <trkpt lat="43.09455" lon="0.21662">
        <ele>527.2</ele>
        <time>2020-06-30T14:12:47Z</time>
      </trkpt>
      <trkpt lat="43.09453" lon="0.2166">
        <ele>527.4</ele>
        <time>2020-06-30T14:12:48Z</time>
      </trkpt>
      <trkpt lat="43.09454" lon="0.21659">
        <ele>527.6</ele>
        <time>2020-06-30T14:12:49Z</time>
      </trkpt>
      <trkpt lat="43.09454" lon="0.21657">
        <ele>527.6</ele>
        <time>2020-06-30T14:12:50Z</time>
      </trkpt>
      <trkpt lat="43.09454" lon="0.21655">
        <ele>527.8</ele>
        <time>2020-06-30T14:12:51Z</time>
      </trkpt>
      <trkpt lat="43.09455" lon="0.21653">
        <ele>528</ele>
        <time>2020-06-30T14:12:52Z</time>
      </trkpt>
      <trkpt lat="43.09455" lon="0.21653">
        <ele>528</ele>
        <time>2020-06-30T14:12:53Z</time>
      </trkpt>
      <trkpt lat="43.09457" lon="0.21651">
        <ele>528.2</ele>
        <time>2020-06-30T14:12:54Z</time>
      </trkpt>
      <trkpt lat="43.09458" lon="0.2165">
        <ele>528.2</ele>
        <time>2020-06-30T14:12:55Z</time>
      </trkpt>
      <trkpt lat="43.09459" lon="0.21648">
        <ele>528.4</ele>
        <time>2020-06-30T14:12:56Z</time>
      </trkpt>
      <trkpt lat="43.09458" lon="0.21647">
        <ele>528.6</ele>
        <time>2020-06-30T14:12:57Z</time>
      </trkpt>
      <trkpt lat="43.09459" lon="0.21646">
        <ele>528.6</ele>
        <time>2020-06-30T14:12:58Z</time>
      </trkpt>
      <trkpt lat="43.09459" lon="0.21644">
        <ele>528.8</ele>
        <time>2020-06-30T14:12:59Z</time>
      </trkpt>
      <trkpt lat="43.0946" lon="0.21643">
        <ele>529</ele>
        <time>2020-06-30T14:13:00Z</time>
      </trkpt>
      <trkpt lat="43.0946" lon="0.21642">
        <ele>529</ele>
        <time>2020-06-30T14:13:01Z</time>
      </trkpt>
      <trkpt lat="43.09458" lon="0.21641">
        <ele>529.2</ele>
        <time>2020-06-30T14:13:02Z</time>
      </trkpt>
      <trkpt lat="43.09457" lon="0.2164">
        <ele>529.4</ele>
        <time>2020-06-30T14:13:03Z</time>
      </trkpt>
      <trkpt lat="43.09458" lon="0.21638">
        <ele>529.4</ele>
        <time>2020-06-30T14:13:04Z</time>
      </trkpt>
      <trkpt lat="43.09458" lon="0.21636">
        <ele>529.6</ele>
        <time>2020-06-30T14:13:05Z</time>
      </trkpt>
      <trkpt lat="43.09457" lon="0.21634">
        <ele>529.6</ele>
        <time>2020-06-30T14:13:06Z</time>
      </trkpt>
      <trkpt lat="43.09457" lon="0.21632">
        <ele>529.8</ele>
        <time>2020-06-30T14:13:07Z</time>
      </trkpt>
      <trkpt lat="43.09458" lon="0.21632">
        <ele>530</ele>
        <time>2020-06-30T14:13:08Z</time>
      </trkpt>
      <trkpt lat="43.09457" lon="0.2163">
        <ele>530</ele>
        <time>2020-06-30T14:13:09Z</time>
      </trkpt>
      <trkpt lat="43.09457" lon="0.21628">
        <ele>530.2</ele>
        <time>2020-06-30T14:13:10Z</time>
      </trkpt>
      <trkpt lat="43.09458" lon="0.21626">
        <ele>530.4</ele>
        <time>2020-06-30T14:13:11Z</time>
      </trkpt>
      <trkpt lat="43.09459" lon="0.21625">
        <ele>530.4</ele>
        <time>2020-06-30T14:13:12Z</time>
      </trkpt>
      <trkpt lat="43.09459" lon="0.21623">
        <ele>530.6</ele>
        <time>2020-06-30T14:13:13Z</time>
      </trkpt>
      <trkpt lat="43.09459" lon="0.21622">
        <ele>530.8</ele>
        <time>2020-06-30T14:13:14Z</time>
      </trkpt>
      <trkpt lat="43.0946" lon="0.21619">
        <ele>531</ele>
        <time>2020-06-30T14:13:16Z</time>
      </trkpt>
      <trkpt lat="43.09459" lon="0.21618">
        <ele>531.2</ele>
        <time>2020-06-30T14:13:17Z</time>
      </trkpt>
      <trkpt lat="43.0946" lon="0.21616">
        <ele>531.2</ele>
        <time>2020-06-30T14:13:18Z</time>
      </trkpt>
      <trkpt lat="43.09459" lon="0.21615">
        <ele>531.4</ele>
        <time>2020-06-30T14:13:19Z</time>
      </trkpt>
      <trkpt lat="43.0946" lon="0.21614">
        <ele>531.4</ele>
        <time>2020-06-30T14:13:20Z</time>
      </trkpt>
      <trkpt lat="43.09461" lon="0.21613">
        <ele>531.6</ele>
        <time>2020-06-30T14:13:21Z</time>
      </trkpt>
      <trkpt lat="43.09461" lon="0.21611">
        <ele>531.8</ele>
        <time>2020-06-30T14:13:22Z</time>
      </trkpt>
      <trkpt lat="43.09461" lon="0.2161">
        <ele>531.8</ele>
        <time>2020-06-30T14:13:23Z</time>
      </trkpt>
      <trkpt lat="43.09461" lon="0.21609">
        <ele>532</ele>
        <time>2020-06-30T14:13:24Z</time>
      </trkpt>
      <trkpt lat="43.09461" lon="0.21607">
        <ele>532</ele>
        <time>2020-06-30T14:13:25Z</time>
      </trkpt>
      <trkpt lat="43.0946" lon="0.21605">
        <ele>532.2</ele>
        <time>2020-06-30T14:13:26Z</time>
      </trkpt>
      <trkpt lat="43.0946" lon="0.21604">
        <ele>532.4</ele>
        <time>2020-06-30T14:13:27Z</time>
      </trkpt>
      <trkpt lat="43.0946" lon="0.21603">
        <ele>532.4</ele>
        <time>2020-06-30T14:13:28Z</time>
      </trkpt>
      <trkpt lat="43.0946" lon="0.21601">
        <ele>532.6</ele>
        <time>2020-06-30T14:13:29Z</time>
      </trkpt>
      <trkpt lat="43.0946" lon="0.21599">
        <ele>532.8</ele>
        <time>2020-06-30T14:13:30Z</time>
      </trkpt>
      <trkpt lat="43.0946" lon="0.21597">
        <ele>532.8</ele>
        <time>2020-06-30T14:13:31Z</time>
      </trkpt>
      <trkpt lat="43.09461" lon="0.21597">
        <ele>533</ele>
        <time>2020-06-30T14:13:32Z</time>
      </trkpt>
      <trkpt lat="43.09461" lon="0.21595">
        <ele>533</ele>
        <time>2020-06-30T14:13:33Z</time>
      </trkpt>
      <trkpt lat="43.09462" lon="0.21593">
        <ele>533.2</ele>
        <time>2020-06-30T14:13:34Z</time>
      </trkpt>
      <trkpt lat="43.09462" lon="0.21592">
        <ele>533.2</ele>
        <time>2020-06-30T14:13:35Z</time>
      </trkpt>
      <trkpt lat="43.09461" lon="0.2159">
        <ele>533.4</ele>
        <time>2020-06-30T14:13:36Z</time>
      </trkpt>
      <trkpt lat="43.0946" lon="0.21588">
        <ele>533.6</ele>
        <time>2020-06-30T14:13:37Z</time>
      </trkpt>
      <trkpt lat="43.09461" lon="0.21587">
        <ele>533.8</ele>
        <time>2020-06-30T14:13:38Z</time>
      </trkpt>
      <trkpt lat="43.09462" lon="0.21586">
        <ele>533.8</ele>
        <time>2020-06-30T14:13:39Z</time>
      </trkpt>
      <trkpt lat="43.09462" lon="0.21584">
        <ele>534</ele>
        <time>2020-06-30T14:13:40Z</time>
      </trkpt>
      <trkpt lat="43.09463" lon="0.21582">
        <ele>534</ele>
        <time>2020-06-30T14:13:41Z</time>
      </trkpt>
      <trkpt lat="43.09463" lon="0.21579">
        <ele>534.4</ele>
        <time>2020-06-30T14:13:43Z</time>
      </trkpt>
      <trkpt lat="43.09463" lon="0.21578">
        <ele>534.6</ele>
        <time>2020-06-30T14:13:44Z</time>
      </trkpt>
      <trkpt lat="43.09462" lon="0.21576">
        <ele>534.6</ele>
        <time>2020-06-30T14:13:45Z</time>
      </trkpt>
      <trkpt lat="43.09461" lon="0.21574">
        <ele>534.8</ele>
        <time>2020-06-30T14:13:46Z</time>
      </trkpt>
      <trkpt lat="43.0946" lon="0.21573">
        <ele>535</ele>
        <time>2020-06-30T14:13:47Z</time>
      </trkpt>
      <trkpt lat="43.0946" lon="0.21571">
        <ele>535</ele>
        <time>2020-06-30T14:13:48Z</time>
      </trkpt>
      <trkpt lat="43.0946" lon="0.21569">
        <ele>535.2</ele>
        <time>2020-06-30T14:13:49Z</time>
      </trkpt>
      <trkpt lat="43.09459" lon="0.21568">
        <ele>535.4</ele>
        <time>2020-06-30T14:13:50Z</time>
      </trkpt>
      <trkpt lat="43.09459" lon="0.21566">
        <ele>535.4</ele>
        <time>2020-06-30T14:13:51Z</time>
      </trkpt>
      <trkpt lat="43.09458" lon="0.21564">
        <ele>535.6</ele>
        <time>2020-06-30T14:13:52Z</time>
      </trkpt>
      <trkpt lat="43.09457" lon="0.21562">
        <ele>535.8</ele>
        <time>2020-06-30T14:13:53Z</time>
      </trkpt>
      <trkpt lat="43.09457" lon="0.21561">
        <ele>536</ele>
        <time>2020-06-30T14:13:54Z</time>
      </trkpt>
      <trkpt lat="43.09456" lon="0.2156">
        <ele>536.2</ele>
        <time>2020-06-30T14:13:55Z</time>
      </trkpt>
      <trkpt lat="43.09456" lon="0.21558">
        <ele>536.2</ele>
        <time>2020-06-30T14:13:56Z</time>
      </trkpt>
      <trkpt lat="43.09456" lon="0.21557">
        <ele>536.4</ele>
        <time>2020-06-30T14:13:57Z</time>
      </trkpt>
      <trkpt lat="43.09455" lon="0.21555">
        <ele>536.6</ele>
        <time>2020-06-30T14:13:58Z</time>
      </trkpt>
      <trkpt lat="43.09455" lon="0.21554">
        <ele>536.8</ele>
        <time>2020-06-30T14:13:59Z</time>
      </trkpt>
      <trkpt lat="43.09454" lon="0.21553">
        <ele>536.8</ele>
        <time>2020-06-30T14:14:00Z</time>
      </trkpt>
      <trkpt lat="43.09453" lon="0.21552">
        <ele>537</ele>
        <time>2020-06-30T14:14:01Z</time>
      </trkpt>
      <trkpt lat="43.09451" lon="0.21551">
        <ele>537</ele>
        <time>2020-06-30T14:14:02Z</time>
      </trkpt>
      <trkpt lat="43.09451" lon="0.21551">
        <ele>537.2</ele>
        <time>2020-06-30T14:14:03Z</time>
      </trkpt>
      <trkpt lat="43.0945" lon="0.2155">
        <ele>537.4</ele>
        <time>2020-06-30T14:14:04Z</time>
      </trkpt>
      <trkpt lat="43.09449" lon="0.21548">
        <ele>537.4</ele>
        <time>2020-06-30T14:14:05Z</time>
      </trkpt>
      <trkpt lat="43.09449" lon="0.21546">
        <ele>537.6</ele>
        <time>2020-06-30T14:14:06Z</time>
      </trkpt>
      <trkpt lat="43.09449" lon="0.21544">
        <ele>537.8</ele>
        <time>2020-06-30T14:14:07Z</time>
      </trkpt>
      <trkpt lat="43.09448" lon="0.21542">
        <ele>537.8</ele>
        <time>2020-06-30T14:14:08Z</time>
      </trkpt>
      <trkpt lat="43.09448" lon="0.2154">
        <ele>538</ele>
        <time>2020-06-30T14:14:09Z</time>
      </trkpt>
      <trkpt lat="43.09447" lon="0.2154">
        <ele>538.2</ele>
        <time>2020-06-30T14:14:10Z</time>
      </trkpt>
      <trkpt lat="43.09447" lon="0.21539">
        <ele>538.2</ele>
        <time>2020-06-30T14:14:11Z</time>
      </trkpt>
      <trkpt lat="43.09445" lon="0.21537">
        <ele>538.4</ele>
        <time>2020-06-30T14:14:12Z</time>
      </trkpt>
      <trkpt lat="43.09445" lon="0.21537">
        <ele>538.6</ele>
        <time>2020-06-30T14:14:13Z</time>
      </trkpt>
      <trkpt lat="43.09444" lon="0.21536">
        <ele>538.6</ele>
        <time>2020-06-30T14:14:14Z</time>
      </trkpt>
      <trkpt lat="43.09444" lon="0.21534">
        <ele>538.8</ele>
        <time>2020-06-30T14:14:15Z</time>
      </trkpt>
      <trkpt lat="43.09442" lon="0.21533">
        <ele>539</ele>
        <time>2020-06-30T14:14:16Z</time>
      </trkpt>
      <trkpt lat="43.09441" lon="0.21532">
        <ele>539</ele>
        <time>2020-06-30T14:14:17Z</time>
      </trkpt>
      <trkpt lat="43.09441" lon="0.2153">
        <ele>539.2</ele>
        <time>2020-06-30T14:14:18Z</time>
      </trkpt>
      <trkpt lat="43.0944" lon="0.21529">
        <ele>539.4</ele>
        <time>2020-06-30T14:14:19Z</time>
      </trkpt>
      <trkpt lat="43.0944" lon="0.21527">
        <ele>539.4</ele>
        <time>2020-06-30T14:14:20Z</time>
      </trkpt>
      <trkpt lat="43.09438" lon="0.21525">
        <ele>539.6</ele>
        <time>2020-06-30T14:14:21Z</time>
      </trkpt>
      <trkpt lat="43.09437" lon="0.21522">
        <ele>539.8</ele>
        <time>2020-06-30T14:14:23Z</time>
      </trkpt>
      <trkpt lat="43.09436" lon="0.2152">
        <ele>540</ele>
        <time>2020-06-30T14:14:24Z</time>
      </trkpt>
      <trkpt lat="43.09435" lon="0.21519">
        <ele>540</ele>
        <time>2020-06-30T14:14:25Z</time>
      </trkpt>
      <trkpt lat="43.09434" lon="0.21517">
        <ele>540.2</ele>
        <time>2020-06-30T14:14:26Z</time>
      </trkpt>
      <trkpt lat="43.09433" lon="0.21516">
        <ele>540.2</ele>
        <time>2020-06-30T14:14:27Z</time>
      </trkpt>
      <trkpt lat="43.09432" lon="0.21513">
        <ele>540.6</ele>
        <time>2020-06-30T14:14:29Z</time>
      </trkpt>
      <trkpt lat="43.09431" lon="0.21512">
        <ele>540.6</ele>
        <time>2020-06-30T14:14:30Z</time>
      </trkpt>
      <trkpt lat="43.09431" lon="0.2151">
        <ele>540.8</ele>
        <time>2020-06-30T14:14:31Z</time>
      </trkpt>
      <trkpt lat="43.09429" lon="0.21508">
        <ele>541</ele>
        <time>2020-06-30T14:14:32Z</time>
      </trkpt>
      <trkpt lat="43.09429" lon="0.21507">
        <ele>541</ele>
        <time>2020-06-30T14:14:33Z</time>
      </trkpt>
      <trkpt lat="43.09428" lon="0.21505">
        <ele>541.2</ele>
        <time>2020-06-30T14:14:34Z</time>
      </trkpt>
      <trkpt lat="43.09426" lon="0.21503">
        <ele>541.2</ele>
        <time>2020-06-30T14:14:35Z</time>
      </trkpt>
      <trkpt lat="43.09426" lon="0.21502">
        <ele>541.4</ele>
        <time>2020-06-30T14:14:36Z</time>
      </trkpt>
      <trkpt lat="43.09426" lon="0.21499">
        <ele>541.4</ele>
        <time>2020-06-30T14:14:37Z</time>
      </trkpt>
      <trkpt lat="43.09425" lon="0.21498">
        <ele>541.6</ele>
        <time>2020-06-30T14:14:38Z</time>
      </trkpt>
      <trkpt lat="43.09424" lon="0.21495">
        <ele>541.6</ele>
        <time>2020-06-30T14:14:39Z</time>
      </trkpt>
      <trkpt lat="43.09423" lon="0.21494">
        <ele>542</ele>
        <time>2020-06-30T14:14:41Z</time>
      </trkpt>
      <trkpt lat="43.09421" lon="0.21492">
        <ele>542</ele>
        <time>2020-06-30T14:14:42Z</time>
      </trkpt>
      <trkpt lat="43.0942" lon="0.2149">
        <ele>542.2</ele>
        <time>2020-06-30T14:14:43Z</time>
      </trkpt>
      <trkpt lat="43.0942" lon="0.21488">
        <ele>542.4</ele>
        <time>2020-06-30T14:14:44Z</time>
      </trkpt>
      <trkpt lat="43.0942" lon="0.21487">
        <ele>542.4</ele>
        <time>2020-06-30T14:14:45Z</time>
      </trkpt>
      <trkpt lat="43.09419" lon="0.21484">
        <ele>542.6</ele>
        <time>2020-06-30T14:14:46Z</time>
      </trkpt>
      <trkpt lat="43.09418" lon="0.21482">
        <ele>542.6</ele>
        <time>2020-06-30T14:14:47Z</time>
      </trkpt>
      <trkpt lat="43.09418" lon="0.21481">
        <ele>542.8</ele>
        <time>2020-06-30T14:14:48Z</time>
      </trkpt>
      <trkpt lat="43.09416" lon="0.21479">
        <ele>543</ele>
        <time>2020-06-30T14:14:49Z</time>
      </trkpt>
      <trkpt lat="43.09416" lon="0.21478">
        <ele>543.2</ele>
        <time>2020-06-30T14:14:50Z</time>
      </trkpt>
      <trkpt lat="43.09416" lon="0.21477">
        <ele>543.2</ele>
        <time>2020-06-30T14:14:51Z</time>
      </trkpt>
      <trkpt lat="43.09416" lon="0.21476">
        <ele>543.4</ele>
        <time>2020-06-30T14:14:52Z</time>
      </trkpt>
      <trkpt lat="43.09415" lon="0.21473">
        <ele>543.4</ele>
        <time>2020-06-30T14:14:53Z</time>
      </trkpt>
      <trkpt lat="43.09414" lon="0.21472">
        <ele>543.6</ele>
        <time>2020-06-30T14:14:54Z</time>
      </trkpt>
      <trkpt lat="43.09414" lon="0.2147">
        <ele>543.8</ele>
        <time>2020-06-30T14:14:55Z</time>
      </trkpt>
      <trkpt lat="43.09414" lon="0.21468">
        <ele>543.8</ele>
        <time>2020-06-30T14:14:56Z</time>
      </trkpt>
      <trkpt lat="43.09413" lon="0.21467">
        <ele>544</ele>
        <time>2020-06-30T14:14:57Z</time>
      </trkpt>
      <trkpt lat="43.09415" lon="0.21466">
        <ele>544.2</ele>
        <time>2020-06-30T14:14:58Z</time>
      </trkpt>
      <trkpt lat="43.09413" lon="0.21465">
        <ele>544.2</ele>
        <time>2020-06-30T14:14:59Z</time>
      </trkpt>
      <trkpt lat="43.09413" lon="0.21463">
        <ele>544.4</ele>
        <time>2020-06-30T14:15:01Z</time>
      </trkpt>
      <trkpt lat="43.09413" lon="0.21461">
        <ele>544.6</ele>
        <time>2020-06-30T14:15:02Z</time>
      </trkpt>
      <trkpt lat="43.09412" lon="0.2146">
        <ele>544.8</ele>
        <time>2020-06-30T14:15:03Z</time>
      </trkpt>
      <trkpt lat="43.09413" lon="0.21457">
        <ele>544.8</ele>
        <time>2020-06-30T14:15:04Z</time>
      </trkpt>
      <trkpt lat="43.09413" lon="0.21456">
        <ele>545</ele>
        <time>2020-06-30T14:15:05Z</time>
      </trkpt>
      <trkpt lat="43.09414" lon="0.21455">
        <ele>545.2</ele>
        <time>2020-06-30T14:15:06Z</time>
      </trkpt>
      <trkpt lat="43.09413" lon="0.21453">
        <ele>545.2</ele>
        <time>2020-06-30T14:15:07Z</time>
      </trkpt>
      <trkpt lat="43.09412" lon="0.21453">
        <ele>545.4</ele>
        <time>2020-06-30T14:15:08Z</time>
      </trkpt>
      <trkpt lat="43.09412" lon="0.21452">
        <ele>545.4</ele>
        <time>2020-06-30T14:15:09Z</time>
      </trkpt>
      <trkpt lat="43.09412" lon="0.21451">
        <ele>545.6</ele>
        <time>2020-06-30T14:15:10Z</time>
      </trkpt>
      <trkpt lat="43.09412" lon="0.21451">
        <ele>545.4</ele>
        <time>2020-06-30T14:15:11Z</time>
      </trkpt>
      <trkpt lat="43.09412" lon="0.2145">
        <ele>545.4</ele>
        <time>2020-06-30T14:15:12Z</time>
      </trkpt>
      <trkpt lat="43.09412" lon="0.21451">
        <ele>545.4</ele>
        <time>2020-06-30T14:15:13Z</time>
      </trkpt>
      <trkpt lat="43.09412" lon="0.21451">
        <ele>545.2</ele>
        <time>2020-06-30T14:15:14Z</time>
      </trkpt>
      <trkpt lat="43.09412" lon="0.21451">
        <ele>545.8</ele>
        <time>2020-06-30T14:15:15Z</time>
      </trkpt>
      <trkpt lat="43.09413" lon="0.21451">
        <ele>545.6</ele>
        <time>2020-06-30T14:15:16Z</time>
      </trkpt>
      <trkpt lat="43.09412" lon="0.21451">
        <ele>545.4</ele>
        <time>2020-06-30T14:15:17Z</time>
      </trkpt>
      <trkpt lat="43.09413" lon="0.21451">
        <ele>545.4</ele>
        <time>2020-06-30T14:15:18Z</time>
      </trkpt>
      <trkpt lat="43.09414" lon="0.21451">
        <ele>545.6</ele>
        <time>2020-06-30T14:15:19Z</time>
      </trkpt>
      <trkpt lat="43.09414" lon="0.2145">
        <ele>545.4</ele>
        <time>2020-06-30T14:15:20Z</time>
      </trkpt>
      <trkpt lat="43.09409" lon="0.21452">
        <ele>545.8</ele>
        <time>2020-06-30T14:15:49Z</time>
      </trkpt>
      <trkpt lat="43.09407" lon="0.2145">
        <ele>545.8</ele>
        <time>2020-06-30T14:15:50Z</time>
      </trkpt>
      <trkpt lat="43.09406" lon="0.21449">
        <ele>546</ele>
        <time>2020-06-30T14:15:51Z</time>
      </trkpt>
      <trkpt lat="43.09405" lon="0.21448">
        <ele>546.2</ele>
        <time>2020-06-30T14:15:52Z</time>
      </trkpt>
      <trkpt lat="43.09404" lon="0.21445">
        <ele>546.2</ele>
        <time>2020-06-30T14:15:53Z</time>
      </trkpt>
      <trkpt lat="43.09404" lon="0.21444">
        <ele>546.4</ele>
        <time>2020-06-30T14:15:54Z</time>
      </trkpt>
      <trkpt lat="43.09404" lon="0.21442">
        <ele>546.6</ele>
        <time>2020-06-30T14:15:55Z</time>
      </trkpt>
      <trkpt lat="43.09403" lon="0.21441">
        <ele>546.6</ele>
        <time>2020-06-30T14:15:56Z</time>
      </trkpt>
      <trkpt lat="43.09401" lon="0.21438">
        <ele>547</ele>
        <time>2020-06-30T14:15:58Z</time>
      </trkpt>
      <trkpt lat="43.09401" lon="0.21436">
        <ele>547.2</ele>
        <time>2020-06-30T14:15:59Z</time>
      </trkpt>
      <trkpt lat="43.09401" lon="0.21436">
        <ele>547.2</ele>
        <time>2020-06-30T14:16:00Z</time>
      </trkpt>
      <trkpt lat="43.094" lon="0.21435">
        <ele>547.4</ele>
        <time>2020-06-30T14:16:01Z</time>
      </trkpt>
      <trkpt lat="43.09399" lon="0.21434">
        <ele>547.6</ele>
        <time>2020-06-30T14:16:02Z</time>
      </trkpt>
      <trkpt lat="43.09398" lon="0.21433">
        <ele>547.8</ele>
        <time>2020-06-30T14:16:03Z</time>
      </trkpt>
      <trkpt lat="43.09397" lon="0.21432">
        <ele>547.8</ele>
        <time>2020-06-30T14:16:04Z</time>
      </trkpt>
      <trkpt lat="43.09396" lon="0.21432">
        <ele>548</ele>
        <time>2020-06-30T14:16:05Z</time>
      </trkpt>
      <trkpt lat="43.09396" lon="0.21431">
        <ele>548.2</ele>
        <time>2020-06-30T14:16:06Z</time>
      </trkpt>
      <trkpt lat="43.09394" lon="0.21429">
        <ele>548.4</ele>
        <time>2020-06-30T14:16:07Z</time>
      </trkpt>
      <trkpt lat="43.09393" lon="0.21427">
        <ele>548.4</ele>
        <time>2020-06-30T14:16:08Z</time>
      </trkpt>
      <trkpt lat="43.09393" lon="0.21425">
        <ele>548.6</ele>
        <time>2020-06-30T14:16:09Z</time>
      </trkpt>
      <trkpt lat="43.09392" lon="0.21424">
        <ele>548.8</ele>
        <time>2020-06-30T14:16:10Z</time>
      </trkpt>
      <trkpt lat="43.09392" lon="0.21422">
        <ele>548.8</ele>
        <time>2020-06-30T14:16:11Z</time>
      </trkpt>
      <trkpt lat="43.09391" lon="0.21422">
        <ele>549</ele>
        <time>2020-06-30T14:16:12Z</time>
      </trkpt>
      <trkpt lat="43.09389" lon="0.21421">
        <ele>549.2</ele>
        <time>2020-06-30T14:16:13Z</time>
      </trkpt>
      <trkpt lat="43.09388" lon="0.21421">
        <ele>549.4</ele>
        <time>2020-06-30T14:16:14Z</time>
      </trkpt>
      <trkpt lat="43.09387" lon="0.2142">
        <ele>549.6</ele>
        <time>2020-06-30T14:16:15Z</time>
      </trkpt>
      <trkpt lat="43.09386" lon="0.21419">
        <ele>549.6</ele>
        <time>2020-06-30T14:16:16Z</time>
      </trkpt>
      <trkpt lat="43.09384" lon="0.21418">
        <ele>549.8</ele>
        <time>2020-06-30T14:16:17Z</time>
      </trkpt>
      <trkpt lat="43.09384" lon="0.21417">
        <ele>550</ele>
        <time>2020-06-30T14:16:18Z</time>
      </trkpt>
      <trkpt lat="43.09382" lon="0.21416">
        <ele>550.2</ele>
        <time>2020-06-30T14:16:19Z</time>
      </trkpt>
      <trkpt lat="43.09381" lon="0.21416">
        <ele>550.4</ele>
        <time>2020-06-30T14:16:20Z</time>
      </trkpt>
      <trkpt lat="43.0938" lon="0.21414">
        <ele>550.4</ele>
        <time>2020-06-30T14:16:21Z</time>
      </trkpt>
      <trkpt lat="43.09379" lon="0.21414">
        <ele>550.6</ele>
        <time>2020-06-30T14:16:22Z</time>
      </trkpt>
      <trkpt lat="43.09378" lon="0.21413">
        <ele>550.8</ele>
        <time>2020-06-30T14:16:23Z</time>
      </trkpt>
      <trkpt lat="43.09376" lon="0.21412">
        <ele>550.8</ele>
        <time>2020-06-30T14:16:24Z</time>
      </trkpt>
      <trkpt lat="43.09375" lon="0.21411">
        <ele>551</ele>
        <time>2020-06-30T14:16:25Z</time>
      </trkpt>
      <trkpt lat="43.09373" lon="0.2141">
        <ele>551.2</ele>
        <time>2020-06-30T14:16:26Z</time>
      </trkpt>
      <trkpt lat="43.09372" lon="0.2141">
        <ele>551.4</ele>
        <time>2020-06-30T14:16:27Z</time>
      </trkpt>
      <trkpt lat="43.0937" lon="0.2141">
        <ele>551.4</ele>
        <time>2020-06-30T14:16:28Z</time>
      </trkpt>
      <trkpt lat="43.09368" lon="0.21409">
        <ele>551.6</ele>
        <time>2020-06-30T14:16:29Z</time>
      </trkpt>
      <trkpt lat="43.09367" lon="0.21409">
        <ele>551.8</ele>
        <time>2020-06-30T14:16:30Z</time>
      </trkpt>
      <trkpt lat="43.09365" lon="0.21409">
        <ele>552</ele>
        <time>2020-06-30T14:16:31Z</time>
      </trkpt>
      <trkpt lat="43.09362" lon="0.21408">
        <ele>552.2</ele>
        <time>2020-06-30T14:16:32Z</time>
      </trkpt>
      <trkpt lat="43.0936" lon="0.21408">
        <ele>552.2</ele>
        <time>2020-06-30T14:16:33Z</time>
      </trkpt>
      <trkpt lat="43.09359" lon="0.21408">
        <ele>552.6</ele>
        <time>2020-06-30T14:16:34Z</time>
      </trkpt>
      <trkpt lat="43.09357" lon="0.21408">
        <ele>552.8</ele>
        <time>2020-06-30T14:16:35Z</time>
      </trkpt>
      <trkpt lat="43.09355" lon="0.21408">
        <ele>553</ele>
        <time>2020-06-30T14:16:36Z</time>
      </trkpt>
      <trkpt lat="43.09354" lon="0.21408">
        <ele>553.2</ele>
        <time>2020-06-30T14:16:37Z</time>
      </trkpt>
      <trkpt lat="43.09353" lon="0.21407">
        <ele>553.4</ele>
        <time>2020-06-30T14:16:38Z</time>
      </trkpt>
      <trkpt lat="43.09351" lon="0.21406">
        <ele>553.4</ele>
        <time>2020-06-30T14:16:39Z</time>
      </trkpt>
      <trkpt lat="43.09349" lon="0.21405">
        <ele>553.6</ele>
        <time>2020-06-30T14:16:40Z</time>
      </trkpt>
      <trkpt lat="43.09348" lon="0.21405">
        <ele>553.8</ele>
        <time>2020-06-30T14:16:41Z</time>
      </trkpt>
      <trkpt lat="43.09346" lon="0.21404">
        <ele>554</ele>
        <time>2020-06-30T14:16:42Z</time>
      </trkpt>
      <trkpt lat="43.09345" lon="0.21404">
        <ele>554.2</ele>
        <time>2020-06-30T14:16:43Z</time>
      </trkpt>
      <trkpt lat="43.09343" lon="0.21404">
        <ele>554.2</ele>
        <time>2020-06-30T14:16:44Z</time>
      </trkpt>
      <trkpt lat="43.09342" lon="0.21404">
        <ele>554.4</ele>
        <time>2020-06-30T14:16:45Z</time>
      </trkpt>
      <trkpt lat="43.0934" lon="0.21404">
        <ele>554.6</ele>
        <time>2020-06-30T14:16:46Z</time>
      </trkpt>
      <trkpt lat="43.09339" lon="0.21403">
        <ele>554.8</ele>
        <time>2020-06-30T14:16:47Z</time>
      </trkpt>
      <trkpt lat="43.09337" lon="0.21403">
        <ele>554.8</ele>
        <time>2020-06-30T14:16:48Z</time>
      </trkpt>
      <trkpt lat="43.09335" lon="0.21403">
        <ele>555</ele>
        <time>2020-06-30T14:16:49Z</time>
      </trkpt>
      <trkpt lat="43.09333" lon="0.21402">
        <ele>555</ele>
        <time>2020-06-30T14:16:50Z</time>
      </trkpt>
      <trkpt lat="43.09332" lon="0.21402">
        <ele>555</ele>
        <time>2020-06-30T14:16:51Z</time>
      </trkpt>
      <trkpt lat="43.09329" lon="0.21402">
        <ele>555</ele>
        <time>2020-06-30T14:16:52Z</time>
      </trkpt>
      <trkpt lat="43.09328" lon="0.21402">
        <ele>555.2</ele>
        <time>2020-06-30T14:16:53Z</time>
      </trkpt>
      <trkpt lat="43.09326" lon="0.21402">
        <ele>555.2</ele>
        <time>2020-06-30T14:16:54Z</time>
      </trkpt>
      <trkpt lat="43.09323" lon="0.21402">
        <ele>555.2</ele>
        <time>2020-06-30T14:16:55Z</time>
      </trkpt>
      <trkpt lat="43.09321" lon="0.21402">
        <ele>555.4</ele>
        <time>2020-06-30T14:16:56Z</time>
      </trkpt>
      <trkpt lat="43.09319" lon="0.21402">
        <ele>555.4</ele>
        <time>2020-06-30T14:16:57Z</time>
      </trkpt>
      <trkpt lat="43.09316" lon="0.21402">
        <ele>555.6</ele>
        <time>2020-06-30T14:16:58Z</time>
      </trkpt>
      <trkpt lat="43.09313" lon="0.21403">
        <ele>555.6</ele>
        <time>2020-06-30T14:16:59Z</time>
      </trkpt>
      <trkpt lat="43.09311" lon="0.21403">
        <ele>555.8</ele>
        <time>2020-06-30T14:17:00Z</time>
      </trkpt>
      <trkpt lat="43.09309" lon="0.21403">
        <ele>555.8</ele>
        <time>2020-06-30T14:17:01Z</time>
      </trkpt>
      <trkpt lat="43.09306" lon="0.21403">
        <ele>555.8</ele>
        <time>2020-06-30T14:17:02Z</time>
      </trkpt>
      <trkpt lat="43.09304" lon="0.21403">
        <ele>556</ele>
        <time>2020-06-30T14:17:03Z</time>
      </trkpt>
      <trkpt lat="43.09302" lon="0.21404">
        <ele>556.2</ele>
        <time>2020-06-30T14:17:04Z</time>
      </trkpt>
      <trkpt lat="43.093" lon="0.21405">
        <ele>556.2</ele>
        <time>2020-06-30T14:17:05Z</time>
      </trkpt>
      <trkpt lat="43.09289" lon="0.21405">
        <ele>556.6</ele>
        <time>2020-06-30T14:17:10Z</time>
      </trkpt>
      <trkpt lat="43.09286" lon="0.21405">
        <ele>556.6</ele>
        <time>2020-06-30T14:17:11Z</time>
      </trkpt>
      <trkpt lat="43.09284" lon="0.21406">
        <ele>556.8</ele>
        <time>2020-06-30T14:17:12Z</time>
      </trkpt>
      <trkpt lat="43.09281" lon="0.21406">
        <ele>556.8</ele>
        <time>2020-06-30T14:17:13Z</time>
      </trkpt>
      <trkpt lat="43.09279" lon="0.21406">
        <ele>557</ele>
        <time>2020-06-30T14:17:14Z</time>
      </trkpt>
      <trkpt lat="43.09276" lon="0.21407">
        <ele>557</ele>
        <time>2020-06-30T14:17:15Z</time>
      </trkpt>
      <trkpt lat="43.09274" lon="0.21408">
        <ele>557.2</ele>
        <time>2020-06-30T14:17:16Z</time>
      </trkpt>
      <trkpt lat="43.09272" lon="0.21409">
        <ele>557.2</ele>
        <time>2020-06-30T14:17:17Z</time>
      </trkpt>
      <trkpt lat="43.0927" lon="0.21409">
        <ele>557.4</ele>
        <time>2020-06-30T14:17:18Z</time>
      </trkpt>
      <trkpt lat="43.09267" lon="0.2141">
        <ele>557.4</ele>
        <time>2020-06-30T14:17:19Z</time>
      </trkpt>
      <trkpt lat="43.09265" lon="0.21411">
        <ele>557.4</ele>
        <time>2020-06-30T14:17:20Z</time>
      </trkpt>
      <trkpt lat="43.0926" lon="0.21413">
        <ele>557.6</ele>
        <time>2020-06-30T14:17:22Z</time>
      </trkpt>
      <trkpt lat="43.09257" lon="0.21414">
        <ele>557.6</ele>
        <time>2020-06-30T14:17:23Z</time>
      </trkpt>
      <trkpt lat="43.09254" lon="0.21414">
        <ele>557.6</ele>
        <time>2020-06-30T14:17:24Z</time>
      </trkpt>
      <trkpt lat="43.09251" lon="0.21414">
        <ele>557.6</ele>
        <time>2020-06-30T14:17:25Z</time>
      </trkpt>
      <trkpt lat="43.09247" lon="0.21414">
        <ele>557.6</ele>
        <time>2020-06-30T14:17:26Z</time>
      </trkpt>
      <trkpt lat="43.09239" lon="0.21412">
        <ele>557.4</ele>
        <time>2020-06-30T14:17:28Z</time>
      </trkpt>
      <trkpt lat="43.09235" lon="0.21411">
        <ele>557.4</ele>
        <time>2020-06-30T14:17:29Z</time>
      </trkpt>
      <trkpt lat="43.09228" lon="0.21408">
        <ele>557.6</ele>
        <time>2020-06-30T14:17:31Z</time>
      </trkpt>
      <trkpt lat="43.09225" lon="0.21408">
        <ele>557.8</ele>
        <time>2020-06-30T14:17:32Z</time>
      </trkpt>
      <trkpt lat="43.09222" lon="0.21409">
        <ele>558</ele>
        <time>2020-06-30T14:17:33Z</time>
      </trkpt>
      <trkpt lat="43.09216" lon="0.21413">
        <ele>558.4</ele>
        <time>2020-06-30T14:17:35Z</time>
      </trkpt>
      <trkpt lat="43.09214" lon="0.21416">
        <ele>558.6</ele>
        <time>2020-06-30T14:17:36Z</time>
      </trkpt>
      <trkpt lat="43.09212" lon="0.21419">
        <ele>558.8</ele>
        <time>2020-06-30T14:17:37Z</time>
      </trkpt>
      <trkpt lat="43.0921" lon="0.21422">
        <ele>559.2</ele>
        <time>2020-06-30T14:17:38Z</time>
      </trkpt>
      <trkpt lat="43.09209" lon="0.21425">
        <ele>559.2</ele>
        <time>2020-06-30T14:17:39Z</time>
      </trkpt>
      <trkpt lat="43.09208" lon="0.21428">
        <ele>559.4</ele>
        <time>2020-06-30T14:17:40Z</time>
      </trkpt>
      <trkpt lat="43.09208" lon="0.2143">
        <ele>559.4</ele>
        <time>2020-06-30T14:17:41Z</time>
      </trkpt>
      <trkpt lat="43.09207" lon="0.21432">
        <ele>559.6</ele>
        <time>2020-06-30T14:17:42Z</time>
      </trkpt>
      <trkpt lat="43.09207" lon="0.21434">
        <ele>559.8</ele>
        <time>2020-06-30T14:17:43Z</time>
      </trkpt>
      <trkpt lat="43.09206" lon="0.21436">
        <ele>559.8</ele>
        <time>2020-06-30T14:17:44Z</time>
      </trkpt>
      <trkpt lat="43.09206" lon="0.2144">
        <ele>559.8</ele>
        <time>2020-06-30T14:17:45Z</time>
      </trkpt>
      <trkpt lat="43.09205" lon="0.21442">
        <ele>560</ele>
        <time>2020-06-30T14:17:46Z</time>
      </trkpt>
      <trkpt lat="43.09204" lon="0.21445">
        <ele>560</ele>
        <time>2020-06-30T14:17:47Z</time>
      </trkpt>
      <trkpt lat="43.09204" lon="0.21448">
        <ele>560</ele>
        <time>2020-06-30T14:17:48Z</time>
      </trkpt>
      <trkpt lat="43.09203" lon="0.21451">
        <ele>560.2</ele>
        <time>2020-06-30T14:17:49Z</time>
      </trkpt>
      <trkpt lat="43.09203" lon="0.21455">
        <ele>560.2</ele>
        <time>2020-06-30T14:17:50Z</time>
      </trkpt>
      <trkpt lat="43.09202" lon="0.21458">
        <ele>560.2</ele>
        <time>2020-06-30T14:17:51Z</time>
      </trkpt>
      <trkpt lat="43.09202" lon="0.21462">
        <ele>560.2</ele>
        <time>2020-06-30T14:17:52Z</time>
      </trkpt>
      <trkpt lat="43.09202" lon="0.21465">
        <ele>560.2</ele>
        <time>2020-06-30T14:17:53Z</time>
      </trkpt>
      <trkpt lat="43.09201" lon="0.21468">
        <ele>560.4</ele>
        <time>2020-06-30T14:17:54Z</time>
      </trkpt>
      <trkpt lat="43.092" lon="0.21472">
        <ele>560.4</ele>
        <time>2020-06-30T14:17:55Z</time>
      </trkpt>
      <trkpt lat="43.092" lon="0.21475">
        <ele>560.4</ele>
        <time>2020-06-30T14:17:56Z</time>
      </trkpt>
      <trkpt lat="43.092" lon="0.21479">
        <ele>560.4</ele>
        <time>2020-06-30T14:17:57Z</time>
      </trkpt>
      <trkpt lat="43.09199" lon="0.21482">
        <ele>560.4</ele>
        <time>2020-06-30T14:17:58Z</time>
      </trkpt>
      <trkpt lat="43.09199" lon="0.21485">
        <ele>560.4</ele>
        <time>2020-06-30T14:17:59Z</time>
      </trkpt>
      <trkpt lat="43.09198" lon="0.21489">
        <ele>560.2</ele>
        <time>2020-06-30T14:18:00Z</time>
      </trkpt>
      <trkpt lat="43.09197" lon="0.21493">
        <ele>560</ele>
        <time>2020-06-30T14:18:01Z</time>
      </trkpt>
      <trkpt lat="43.09196" lon="0.21497">
        <ele>559.8</ele>
        <time>2020-06-30T14:18:02Z</time>
      </trkpt>
      <trkpt lat="43.09195" lon="0.21501">
        <ele>559.8</ele>
        <time>2020-06-30T14:18:03Z</time>
      </trkpt>
      <trkpt lat="43.09191" lon="0.2151">
        <ele>559.4</ele>
        <time>2020-06-30T14:18:05Z</time>
      </trkpt>
      <trkpt lat="43.0919" lon="0.21516">
        <ele>559.2</ele>
        <time>2020-06-30T14:18:06Z</time>
      </trkpt>
      <trkpt lat="43.09187" lon="0.21521">
        <ele>559</ele>
        <time>2020-06-30T14:18:07Z</time>
      </trkpt>
      <trkpt lat="43.09184" lon="0.21525">
        <ele>559</ele>
        <time>2020-06-30T14:18:08Z</time>
      </trkpt>
      <trkpt lat="43.09177" lon="0.21534">
        <ele>559</ele>
        <time>2020-06-30T14:18:10Z</time>
      </trkpt>
      <trkpt lat="43.09174" lon="0.21537">
        <ele>559</ele>
        <time>2020-06-30T14:18:11Z</time>
      </trkpt>
      <trkpt lat="43.0917" lon="0.2154">
        <ele>559</ele>
        <time>2020-06-30T14:18:12Z</time>
      </trkpt>
      <trkpt lat="43.09167" lon="0.21542">
        <ele>559</ele>
        <time>2020-06-30T14:18:13Z</time>
      </trkpt>
      <trkpt lat="43.0916" lon="0.21545">
        <ele>559</ele>
        <time>2020-06-30T14:18:15Z</time>
      </trkpt>
      <trkpt lat="43.09156" lon="0.21546">
        <ele>559.2</ele>
        <time>2020-06-30T14:18:16Z</time>
      </trkpt>
      <trkpt lat="43.09153" lon="0.21548">
        <ele>559.2</ele>
        <time>2020-06-30T14:18:17Z</time>
      </trkpt>
      <trkpt lat="43.09149" lon="0.2155">
        <ele>559.2</ele>
        <time>2020-06-30T14:18:18Z</time>
      </trkpt>
      <trkpt lat="43.09142" lon="0.21552">
        <ele>559.4</ele>
        <time>2020-06-30T14:18:20Z</time>
      </trkpt>
      <trkpt lat="43.09139" lon="0.21554">
        <ele>559.6</ele>
        <time>2020-06-30T14:18:21Z</time>
      </trkpt>
      <trkpt lat="43.09136" lon="0.21556">
        <ele>559.8</ele>
        <time>2020-06-30T14:18:22Z</time>
      </trkpt>
      <trkpt lat="43.09131" lon="0.2156">
        <ele>560.4</ele>
        <time>2020-06-30T14:18:24Z</time>
      </trkpt>
      <trkpt lat="43.09129" lon="0.21561">
        <ele>560.6</ele>
        <time>2020-06-30T14:18:25Z</time>
      </trkpt>
      <trkpt lat="43.09127" lon="0.21561">
        <ele>560.8</ele>
        <time>2020-06-30T14:18:26Z</time>
      </trkpt>
      <trkpt lat="43.09124" lon="0.21561">
        <ele>561</ele>
        <time>2020-06-30T14:18:27Z</time>
      </trkpt>
      <trkpt lat="43.09122" lon="0.21562">
        <ele>561.2</ele>
        <time>2020-06-30T14:18:28Z</time>
      </trkpt>
      <trkpt lat="43.0912" lon="0.21562">
        <ele>561.4</ele>
        <time>2020-06-30T14:18:29Z</time>
      </trkpt>
      <trkpt lat="43.09118" lon="0.21563">
        <ele>561.6</ele>
        <time>2020-06-30T14:18:30Z</time>
      </trkpt>
      <trkpt lat="43.09116" lon="0.21562">
        <ele>561.8</ele>
        <time>2020-06-30T14:18:31Z</time>
      </trkpt>
      <trkpt lat="43.09114" lon="0.21562">
        <ele>561.8</ele>
        <time>2020-06-30T14:18:32Z</time>
      </trkpt>
      <trkpt lat="43.09111" lon="0.21562">
        <ele>562</ele>
        <time>2020-06-30T14:18:33Z</time>
      </trkpt>
      <trkpt lat="43.0911" lon="0.21561">
        <ele>562</ele>
        <time>2020-06-30T14:18:34Z</time>
      </trkpt>
      <trkpt lat="43.09109" lon="0.2156">
        <ele>562.2</ele>
        <time>2020-06-30T14:18:35Z</time>
      </trkpt>
      <trkpt lat="43.09108" lon="0.21557">
        <ele>562.2</ele>
        <time>2020-06-30T14:18:36Z</time>
      </trkpt>
      <trkpt lat="43.09107" lon="0.21556">
        <ele>562.4</ele>
        <time>2020-06-30T14:18:37Z</time>
      </trkpt>
      <trkpt lat="43.09106" lon="0.21554">
        <ele>562.4</ele>
        <time>2020-06-30T14:18:38Z</time>
      </trkpt>
      <trkpt lat="43.09103" lon="0.2155">
        <ele>562.6</ele>
        <time>2020-06-30T14:18:40Z</time>
      </trkpt>
      <trkpt lat="43.09101" lon="0.21547">
        <ele>562.8</ele>
        <time>2020-06-30T14:18:41Z</time>
      </trkpt>
      <trkpt lat="43.091" lon="0.21545">
        <ele>563</ele>
        <time>2020-06-30T14:18:42Z</time>
      </trkpt>
      <trkpt lat="43.09098" lon="0.21543">
        <ele>563.2</ele>
        <time>2020-06-30T14:18:43Z</time>
      </trkpt>
      <trkpt lat="43.09097" lon="0.2154">
        <ele>563.2</ele>
        <time>2020-06-30T14:18:44Z</time>
      </trkpt>
      <trkpt lat="43.09095" lon="0.21537">
        <ele>563.4</ele>
        <time>2020-06-30T14:18:45Z</time>
      </trkpt>
      <trkpt lat="43.09094" lon="0.21534">
        <ele>563.4</ele>
        <time>2020-06-30T14:18:46Z</time>
      </trkpt>
      <trkpt lat="43.09093" lon="0.21531">
        <ele>563.6</ele>
        <time>2020-06-30T14:18:47Z</time>
      </trkpt>
      <trkpt lat="43.09092" lon="0.21527">
        <ele>563.6</ele>
        <time>2020-06-30T14:18:48Z</time>
      </trkpt>
      <trkpt lat="43.09091" lon="0.21523">
        <ele>563.6</ele>
        <time>2020-06-30T14:18:49Z</time>
      </trkpt>
      <trkpt lat="43.0909" lon="0.2152">
        <ele>563.6</ele>
        <time>2020-06-30T14:18:50Z</time>
      </trkpt>
      <trkpt lat="43.09089" lon="0.21511">
        <ele>563.8</ele>
        <time>2020-06-30T14:18:52Z</time>
      </trkpt>
      <trkpt lat="43.09087" lon="0.21507">
        <ele>563.6</ele>
        <time>2020-06-30T14:18:53Z</time>
      </trkpt>
      <trkpt lat="43.09086" lon="0.21502">
        <ele>563.6</ele>
        <time>2020-06-30T14:18:54Z</time>
      </trkpt>
      <trkpt lat="43.09085" lon="0.21498">
        <ele>563.6</ele>
        <time>2020-06-30T14:18:55Z</time>
      </trkpt>
      <trkpt lat="43.09082" lon="0.21493">
        <ele>563.6</ele>
        <time>2020-06-30T14:18:56Z</time>
      </trkpt>
      <trkpt lat="43.09081" lon="0.21488">
        <ele>563.6</ele>
        <time>2020-06-30T14:18:57Z</time>
      </trkpt>
      <trkpt lat="43.09079" lon="0.21484">
        <ele>563.6</ele>
        <time>2020-06-30T14:18:58Z</time>
      </trkpt>
      <trkpt lat="43.09077" lon="0.2148">
        <ele>563.4</ele>
        <time>2020-06-30T14:18:59Z</time>
      </trkpt>
      <trkpt lat="43.09074" lon="0.21476">
        <ele>563.4</ele>
        <time>2020-06-30T14:19:00Z</time>
      </trkpt>
      <trkpt lat="43.09071" lon="0.21472">
        <ele>563.4</ele>
        <time>2020-06-30T14:19:01Z</time>
      </trkpt>
      <trkpt lat="43.09066" lon="0.21466">
        <ele>563.4</ele>
        <time>2020-06-30T14:19:03Z</time>
      </trkpt>
      <trkpt lat="43.09061" lon="0.21463">
        <ele>563.4</ele>
        <time>2020-06-30T14:19:04Z</time>
      </trkpt>
      <trkpt lat="43.09058" lon="0.21459">
        <ele>563.4</ele>
        <time>2020-06-30T14:19:05Z</time>
      </trkpt>
      <trkpt lat="43.09056" lon="0.21457">
        <ele>563.2</ele>
        <time>2020-06-30T14:19:06Z</time>
      </trkpt>
      <trkpt lat="43.09052" lon="0.21454">
        <ele>563.4</ele>
        <time>2020-06-30T14:19:07Z</time>
      </trkpt>
      <trkpt lat="43.09048" lon="0.21452">
        <ele>563.4</ele>
        <time>2020-06-30T14:19:08Z</time>
      </trkpt>
      <trkpt lat="43.09044" lon="0.2145">
        <ele>563.4</ele>
        <time>2020-06-30T14:19:09Z</time>
      </trkpt>
      <trkpt lat="43.09041" lon="0.21449">
        <ele>563.6</ele>
        <time>2020-06-30T14:19:10Z</time>
      </trkpt>
      <trkpt lat="43.09038" lon="0.21448">
        <ele>563.6</ele>
        <time>2020-06-30T14:19:11Z</time>
      </trkpt>
      <trkpt lat="43.09034" lon="0.21446">
        <ele>563.8</ele>
        <time>2020-06-30T14:19:12Z</time>
      </trkpt>
      <trkpt lat="43.09031" lon="0.21446">
        <ele>564</ele>
        <time>2020-06-30T14:19:13Z</time>
      </trkpt>
      <trkpt lat="43.09028" lon="0.21446">
        <ele>564.2</ele>
        <time>2020-06-30T14:19:14Z</time>
      </trkpt>
      <trkpt lat="43.09024" lon="0.21446">
        <ele>564.2</ele>
        <time>2020-06-30T14:19:15Z</time>
      </trkpt>
      <trkpt lat="43.0902" lon="0.21446">
        <ele>564.2</ele>
        <time>2020-06-30T14:19:16Z</time>
      </trkpt>
      <trkpt lat="43.09017" lon="0.21446">
        <ele>564.4</ele>
        <time>2020-06-30T14:19:17Z</time>
      </trkpt>
      <trkpt lat="43.09014" lon="0.21446">
        <ele>564.4</ele>
        <time>2020-06-30T14:19:18Z</time>
      </trkpt>
      <trkpt lat="43.09011" lon="0.21446">
        <ele>564.4</ele>
        <time>2020-06-30T14:19:19Z</time>
      </trkpt>
      <trkpt lat="43.09008" lon="0.21446">
        <ele>564.4</ele>
        <time>2020-06-30T14:19:20Z</time>
      </trkpt>
      <trkpt lat="43.09005" lon="0.21446">
        <ele>564.6</ele>
        <time>2020-06-30T14:19:21Z</time>
      </trkpt>
      <trkpt lat="43.09003" lon="0.21446">
        <ele>564.4</ele>
        <time>2020-06-30T14:19:22Z</time>
      </trkpt>
      <trkpt lat="43.09001" lon="0.21446">
        <ele>564.4</ele>
        <time>2020-06-30T14:19:23Z</time>
      </trkpt>
      <trkpt lat="43.09" lon="0.21446">
        <ele>564.4</ele>
        <time>2020-06-30T14:19:24Z</time>
      </trkpt>
      <trkpt lat="43.08997" lon="0.21446">
        <ele>564.2</ele>
        <time>2020-06-30T14:19:25Z</time>
      </trkpt>
      <trkpt lat="43.08994" lon="0.21447">
        <ele>564.2</ele>
        <time>2020-06-30T14:19:26Z</time>
      </trkpt>
      <trkpt lat="43.08991" lon="0.21448">
        <ele>564</ele>
        <time>2020-06-30T14:19:27Z</time>
      </trkpt>
      <trkpt lat="43.08989" lon="0.21448">
        <ele>563.8</ele>
        <time>2020-06-30T14:19:28Z</time>
      </trkpt>
      <trkpt lat="43.08984" lon="0.21449">
        <ele>563.8</ele>
        <time>2020-06-30T14:19:29Z</time>
      </trkpt>
      <trkpt lat="43.0898" lon="0.21449">
        <ele>563.6</ele>
        <time>2020-06-30T14:19:30Z</time>
      </trkpt>
      <trkpt lat="43.08975" lon="0.2145">
        <ele>563.4</ele>
        <time>2020-06-30T14:19:31Z</time>
      </trkpt>
      <trkpt lat="43.08964" lon="0.21452">
        <ele>562.8</ele>
        <time>2020-06-30T14:19:33Z</time>
      </trkpt>
      <trkpt lat="43.08958" lon="0.21452">
        <ele>562.4</ele>
        <time>2020-06-30T14:19:34Z</time>
      </trkpt>
      <trkpt lat="43.08946" lon="0.21453">
        <ele>562</ele>
        <time>2020-06-30T14:19:36Z</time>
      </trkpt>
      <trkpt lat="43.0894" lon="0.21453">
        <ele>561.6</ele>
        <time>2020-06-30T14:19:37Z</time>
      </trkpt>
      <trkpt lat="43.08933" lon="0.21454">
        <ele>561.4</ele>
        <time>2020-06-30T14:19:38Z</time>
      </trkpt>
      <trkpt lat="43.08926" lon="0.21455">
        <ele>561.2</ele>
        <time>2020-06-30T14:19:39Z</time>
      </trkpt>
      <trkpt lat="43.08919" lon="0.21456">
        <ele>560.8</ele>
        <time>2020-06-30T14:19:40Z</time>
      </trkpt>
      <trkpt lat="43.08912" lon="0.21456">
        <ele>560.8</ele>
        <time>2020-06-30T14:19:41Z</time>
      </trkpt>
      <trkpt lat="43.08898" lon="0.21457">
        <ele>560.2</ele>
        <time>2020-06-30T14:19:43Z</time>
      </trkpt>
      <trkpt lat="43.08891" lon="0.21458">
        <ele>559.8</ele>
        <time>2020-06-30T14:19:44Z</time>
      </trkpt>
      <trkpt lat="43.08875" lon="0.21463">
        <ele>559.2</ele>
        <time>2020-06-30T14:19:46Z</time>
      </trkpt>
      <trkpt lat="43.08867" lon="0.21466">
        <ele>559</ele>
        <time>2020-06-30T14:19:47Z</time>
      </trkpt>
      <trkpt lat="43.08859" lon="0.21468">
        <ele>558.8</ele>
        <time>2020-06-30T14:19:48Z</time>
      </trkpt>
      <trkpt lat="43.08844" lon="0.21471">
        <ele>558.4</ele>
        <time>2020-06-30T14:19:50Z</time>
      </trkpt>
      <trkpt lat="43.08837" lon="0.21473">
        <ele>558.4</ele>
        <time>2020-06-30T14:19:51Z</time>
      </trkpt>
      <trkpt lat="43.08823" lon="0.21477">
        <ele>558.2</ele>
        <time>2020-06-30T14:19:53Z</time>
      </trkpt>
      <trkpt lat="43.08817" lon="0.2148">
        <ele>558.2</ele>
        <time>2020-06-30T14:19:54Z</time>
      </trkpt>
      <trkpt lat="43.0881" lon="0.21483">
        <ele>558</ele>
        <time>2020-06-30T14:19:55Z</time>
      </trkpt>
      <trkpt lat="43.08804" lon="0.21486">
        <ele>558</ele>
        <time>2020-06-30T14:19:56Z</time>
      </trkpt>
      <trkpt lat="43.08797" lon="0.21489">
        <ele>558</ele>
        <time>2020-06-30T14:19:57Z</time>
      </trkpt>
      <trkpt lat="43.08792" lon="0.21491">
        <ele>558.2</ele>
        <time>2020-06-30T14:19:58Z</time>
      </trkpt>
      <trkpt lat="43.08786" lon="0.21493">
        <ele>558.2</ele>
        <time>2020-06-30T14:19:59Z</time>
      </trkpt>
      <trkpt lat="43.08781" lon="0.21495">
        <ele>558.4</ele>
        <time>2020-06-30T14:20:00Z</time>
      </trkpt>
      <trkpt lat="43.08776" lon="0.21496">
        <ele>558.6</ele>
        <time>2020-06-30T14:20:01Z</time>
      </trkpt>
      <trkpt lat="43.08766" lon="0.21496">
        <ele>558.6</ele>
        <time>2020-06-30T14:20:03Z</time>
      </trkpt>
      <trkpt lat="43.08762" lon="0.21496">
        <ele>558.6</ele>
        <time>2020-06-30T14:20:04Z</time>
      </trkpt>
      <trkpt lat="43.08757" lon="0.21497">
        <ele>558.6</ele>
        <time>2020-06-30T14:20:05Z</time>
      </trkpt>
      <trkpt lat="43.08752" lon="0.21498">
        <ele>558.6</ele>
        <time>2020-06-30T14:20:06Z</time>
      </trkpt>
      <trkpt lat="43.08743" lon="0.21503">
        <ele>558.6</ele>
        <time>2020-06-30T14:20:08Z</time>
      </trkpt>
      <trkpt lat="43.08739" lon="0.21505">
        <ele>558.6</ele>
        <time>2020-06-30T14:20:09Z</time>
      </trkpt>
      <trkpt lat="43.08734" lon="0.21507">
        <ele>558.8</ele>
        <time>2020-06-30T14:20:10Z</time>
      </trkpt>
      <trkpt lat="43.0873" lon="0.2151">
        <ele>558.8</ele>
        <time>2020-06-30T14:20:11Z</time>
      </trkpt>
      <trkpt lat="43.08726" lon="0.21514">
        <ele>558.8</ele>
        <time>2020-06-30T14:20:12Z</time>
      </trkpt>
      <trkpt lat="43.08718" lon="0.21521">
        <ele>559</ele>
        <time>2020-06-30T14:20:14Z</time>
      </trkpt>
      <trkpt lat="43.08714" lon="0.21524">
        <ele>559</ele>
        <time>2020-06-30T14:20:15Z</time>
      </trkpt>
      <trkpt lat="43.08711" lon="0.21527">
        <ele>559</ele>
        <time>2020-06-30T14:20:16Z</time>
      </trkpt>
      <trkpt lat="43.08707" lon="0.21531">
        <ele>559</ele>
        <time>2020-06-30T14:20:17Z</time>
      </trkpt>
      <trkpt lat="43.08705" lon="0.21535">
        <ele>559</ele>
        <time>2020-06-30T14:20:18Z</time>
      </trkpt>
      <trkpt lat="43.08701" lon="0.21539">
        <ele>558.8</ele>
        <time>2020-06-30T14:20:19Z</time>
      </trkpt>
      <trkpt lat="43.08698" lon="0.21542">
        <ele>558.8</ele>
        <time>2020-06-30T14:20:20Z</time>
      </trkpt>
      <trkpt lat="43.08696" lon="0.21547">
        <ele>558.6</ele>
        <time>2020-06-30T14:20:21Z</time>
      </trkpt>
      <trkpt lat="43.08693" lon="0.21553">
        <ele>558.4</ele>
        <time>2020-06-30T14:20:22Z</time>
      </trkpt>
      <trkpt lat="43.08687" lon="0.21564">
        <ele>558</ele>
        <time>2020-06-30T14:20:24Z</time>
      </trkpt>
      <trkpt lat="43.08684" lon="0.21571">
        <ele>557.6</ele>
        <time>2020-06-30T14:20:25Z</time>
      </trkpt>
      <trkpt lat="43.0868" lon="0.21576">
        <ele>557.2</ele>
        <time>2020-06-30T14:20:26Z</time>
      </trkpt>
      <trkpt lat="43.08677" lon="0.21583">
        <ele>557</ele>
        <time>2020-06-30T14:20:27Z</time>
      </trkpt>
      <trkpt lat="43.08674" lon="0.21591">
        <ele>556.6</ele>
        <time>2020-06-30T14:20:28Z</time>
      </trkpt>
      <trkpt lat="43.08666" lon="0.21605">
        <ele>556</ele>
        <time>2020-06-30T14:20:30Z</time>
      </trkpt>
      <trkpt lat="43.08662" lon="0.21612">
        <ele>555.4</ele>
        <time>2020-06-30T14:20:31Z</time>
      </trkpt>
      <trkpt lat="43.08657" lon="0.21619">
        <ele>555</ele>
        <time>2020-06-30T14:20:32Z</time>
      </trkpt>
      <trkpt lat="43.08654" lon="0.21627">
        <ele>554.4</ele>
        <time>2020-06-30T14:20:33Z</time>
      </trkpt>
      <trkpt lat="43.08651" lon="0.21635">
        <ele>553.6</ele>
        <time>2020-06-30T14:20:34Z</time>
      </trkpt>
      <trkpt lat="43.08648" lon="0.21642">
        <ele>553</ele>
        <time>2020-06-30T14:20:35Z</time>
      </trkpt>
      <trkpt lat="43.08642" lon="0.21658">
        <ele>551.6</ele>
        <time>2020-06-30T14:20:37Z</time>
      </trkpt>
      <trkpt lat="43.0864" lon="0.21665">
        <ele>551</ele>
        <time>2020-06-30T14:20:38Z</time>
      </trkpt>
      <trkpt lat="43.08637" lon="0.2167">
        <ele>550.2</ele>
        <time>2020-06-30T14:20:39Z</time>
      </trkpt>
      <trkpt lat="43.08633" lon="0.21675">
        <ele>549.6</ele>
        <time>2020-06-30T14:20:40Z</time>
      </trkpt>
      <trkpt lat="43.08629" lon="0.2168">
        <ele>548.8</ele>
        <time>2020-06-30T14:20:41Z</time>
      </trkpt>
      <trkpt lat="43.08625" lon="0.21684">
        <ele>548</ele>
        <time>2020-06-30T14:20:42Z</time>
      </trkpt>
      <trkpt lat="43.08619" lon="0.21686">
        <ele>547.2</ele>
        <time>2020-06-30T14:20:43Z</time>
      </trkpt>
      <trkpt lat="43.08612" lon="0.21685">
        <ele>546.4</ele>
        <time>2020-06-30T14:20:44Z</time>
      </trkpt>
      <trkpt lat="43.08604" lon="0.21683">
        <ele>545.4</ele>
        <time>2020-06-30T14:20:45Z</time>
      </trkpt>
      <trkpt lat="43.08596" lon="0.21679">
        <ele>544.8</ele>
        <time>2020-06-30T14:20:46Z</time>
      </trkpt>
      <trkpt lat="43.08581" lon="0.21667">
        <ele>543.4</ele>
        <time>2020-06-30T14:20:48Z</time>
      </trkpt>
      <trkpt lat="43.08573" lon="0.2166">
        <ele>542.4</ele>
        <time>2020-06-30T14:20:49Z</time>
      </trkpt>
      <trkpt lat="43.08566" lon="0.21653">
        <ele>541.6</ele>
        <time>2020-06-30T14:20:50Z</time>
      </trkpt>
      <trkpt lat="43.08558" lon="0.21645">
        <ele>541</ele>
        <time>2020-06-30T14:20:51Z</time>
      </trkpt>
      <trkpt lat="43.08549" lon="0.21638">
        <ele>540.4</ele>
        <time>2020-06-30T14:20:52Z</time>
      </trkpt>
      <trkpt lat="43.0854" lon="0.21632">
        <ele>540.2</ele>
        <time>2020-06-30T14:20:53Z</time>
      </trkpt>
      <trkpt lat="43.08524" lon="0.2162">
        <ele>539.8</ele>
        <time>2020-06-30T14:20:55Z</time>
      </trkpt>
      <trkpt lat="43.08517" lon="0.21615">
        <ele>539.6</ele>
        <time>2020-06-30T14:20:56Z</time>
      </trkpt>
      <trkpt lat="43.0851" lon="0.21611">
        <ele>539.4</ele>
        <time>2020-06-30T14:20:57Z</time>
      </trkpt>
      <trkpt lat="43.08505" lon="0.21607">
        <ele>539.4</ele>
        <time>2020-06-30T14:20:58Z</time>
      </trkpt>
      <trkpt lat="43.08499" lon="0.21603">
        <ele>539.4</ele>
        <time>2020-06-30T14:20:59Z</time>
      </trkpt>
      <trkpt lat="43.08491" lon="0.21599">
        <ele>539.4</ele>
        <time>2020-06-30T14:21:01Z</time>
      </trkpt>
      <trkpt lat="43.08489" lon="0.21597">
        <ele>539.4</ele>
        <time>2020-06-30T14:21:02Z</time>
      </trkpt>
      <trkpt lat="43.08488" lon="0.21597">
        <ele>539.4</ele>
        <time>2020-06-30T14:21:03Z</time>
      </trkpt>
      <trkpt lat="43.08488" lon="0.21595">
        <ele>539.4</ele>
        <time>2020-06-30T14:21:04Z</time>
      </trkpt>
      <trkpt lat="43.08487" lon="0.21595">
        <ele>539.2</ele>
        <time>2020-06-30T14:21:06Z</time>
      </trkpt>
      <trkpt lat="43.08487" lon="0.21595">
        <ele>539.4</ele>
        <time>2020-06-30T14:21:07Z</time>
      </trkpt>
      <trkpt lat="43.08487" lon="0.21595">
        <ele>539.6</ele>
        <time>2020-06-30T14:21:08Z</time>
      </trkpt>
      <trkpt lat="43.08487" lon="0.21595">
        <ele>539.2</ele>
        <time>2020-06-30T14:21:09Z</time>
      </trkpt>
      <trkpt lat="43.08488" lon="0.21595">
        <ele>539.4</ele>
        <time>2020-06-30T14:21:10Z</time>
      </trkpt>
      <trkpt lat="43.08489" lon="0.21595">
        <ele>539.4</ele>
        <time>2020-06-30T14:21:11Z</time>
      </trkpt>
      <trkpt lat="43.0849" lon="0.21596">
        <ele>539.4</ele>
        <time>2020-06-30T14:21:12Z</time>
      </trkpt>
      <trkpt lat="43.0849" lon="0.21595">
        <ele>539.4</ele>
        <time>2020-06-30T14:21:13Z</time>
      </trkpt>
      <trkpt lat="43.0849" lon="0.21596">
        <ele>539.2</ele>
        <time>2020-06-30T14:21:14Z</time>
      </trkpt>
      <trkpt lat="43.08491" lon="0.21596">
        <ele>539.2</ele>
        <time>2020-06-30T14:22:43Z</time>
      </trkpt>
      <trkpt lat="43.08492" lon="0.21595">
        <ele>539.2</ele>
        <time>2020-06-30T14:22:44Z</time>
      </trkpt>
      <trkpt lat="43.08493" lon="0.21595">
        <ele>539</ele>
        <time>2020-06-30T14:22:45Z</time>
      </trkpt>
      <trkpt lat="43.08493" lon="0.21595">
        <ele>539.2</ele>
        <time>2020-06-30T14:22:46Z</time>
      </trkpt>
      <trkpt lat="43.08493" lon="0.21595">
        <ele>539.2</ele>
        <time>2020-06-30T14:22:47Z</time>
      </trkpt>
      <trkpt lat="43.08493" lon="0.21595">
        <ele>539.2</ele>
        <time>2020-06-30T14:22:48Z</time>
      </trkpt>
      <trkpt lat="43.08493" lon="0.21595">
        <ele>539.2</ele>
        <time>2020-06-30T14:22:49Z</time>
      </trkpt>
      <trkpt lat="43.08494" lon="0.21595">
        <ele>539.2</ele>
        <time>2020-06-30T14:22:50Z</time>
      </trkpt>
      <trkpt lat="43.08494" lon="0.21595">
        <ele>539.2</ele>
        <time>2020-06-30T14:22:51Z</time>
      </trkpt>
      <trkpt lat="43.08494" lon="0.21596">
        <ele>539.2</ele>
        <time>2020-06-30T14:22:52Z</time>
      </trkpt>
      <trkpt lat="43.08494" lon="0.21595">
        <ele>539.2</ele>
        <time>2020-06-30T14:22:56Z</time>
      </trkpt>
      <trkpt lat="43.08494" lon="0.21594">
        <ele>539.2</ele>
        <time>2020-06-30T14:22:57Z</time>
      </trkpt>
      <trkpt lat="43.08494" lon="0.21594">
        <ele>539.2</ele>
        <time>2020-06-30T14:22:58Z</time>
      </trkpt>
      <trkpt lat="43.08495" lon="0.21594">
        <ele>539.2</ele>
        <time>2020-06-30T14:22:59Z</time>
      </trkpt>
      <trkpt lat="43.08495" lon="0.21594">
        <ele>539.2</ele>
        <time>2020-06-30T14:23:00Z</time>
      </trkpt>
      <trkpt lat="43.08495" lon="0.21593">
        <ele>539.2</ele>
        <time>2020-06-30T14:23:01Z</time>
      </trkpt>
      <trkpt lat="43.08495" lon="0.21592">
        <ele>539.2</ele>
        <time>2020-06-30T14:23:02Z</time>
      </trkpt>
      <trkpt lat="43.08495" lon="0.2159">
        <ele>539</ele>
        <time>2020-06-30T14:23:03Z</time>
      </trkpt>
      <trkpt lat="43.08495" lon="0.21588">
        <ele>539</ele>
        <time>2020-06-30T14:23:04Z</time>
      </trkpt>
      <trkpt lat="43.08494" lon="0.21586">
        <ele>539</ele>
        <time>2020-06-30T14:23:05Z</time>
      </trkpt>
      <trkpt lat="43.08494" lon="0.21583">
        <ele>538.8</ele>
        <time>2020-06-30T14:23:06Z</time>
      </trkpt>
      <trkpt lat="43.08494" lon="0.21581">
        <ele>538.8</ele>
        <time>2020-06-30T14:23:07Z</time>
      </trkpt>
      <trkpt lat="43.08494" lon="0.21579">
        <ele>538.8</ele>
        <time>2020-06-30T14:23:08Z</time>
      </trkpt>
      <trkpt lat="43.08493" lon="0.21577">
        <ele>538.8</ele>
        <time>2020-06-30T14:23:09Z</time>
      </trkpt>
      <trkpt lat="43.08493" lon="0.21574">
        <ele>538.6</ele>
        <time>2020-06-30T14:23:10Z</time>
      </trkpt>
      <trkpt lat="43.08493" lon="0.21571">
        <ele>538.6</ele>
        <time>2020-06-30T14:23:11Z</time>
      </trkpt>
      <trkpt lat="43.08492" lon="0.21567">
        <ele>538.8</ele>
        <time>2020-06-30T14:23:12Z</time>
      </trkpt>
      <trkpt lat="43.08491" lon="0.21564">
        <ele>538.8</ele>
        <time>2020-06-30T14:23:13Z</time>
      </trkpt>
      <trkpt lat="43.0849" lon="0.21553">
        <ele>538.8</ele>
        <time>2020-06-30T14:23:15Z</time>
      </trkpt>
      <trkpt lat="43.0849" lon="0.21548">
        <ele>538.8</ele>
        <time>2020-06-30T14:23:16Z</time>
      </trkpt>
      <trkpt lat="43.08488" lon="0.21542">
        <ele>538.6</ele>
        <time>2020-06-30T14:23:17Z</time>
      </trkpt>
      <trkpt lat="43.08486" lon="0.21531">
        <ele>538.6</ele>
        <time>2020-06-30T14:23:19Z</time>
      </trkpt>
      <trkpt lat="43.08486" lon="0.21526">
        <ele>538.6</ele>
        <time>2020-06-30T14:23:20Z</time>
      </trkpt>
      <trkpt lat="43.08485" lon="0.21519">
        <ele>538.6</ele>
        <time>2020-06-30T14:23:21Z</time>
      </trkpt>
      <trkpt lat="43.08484" lon="0.21513">
        <ele>538.6</ele>
        <time>2020-06-30T14:23:22Z</time>
      </trkpt>
      <trkpt lat="43.08483" lon="0.21506">
        <ele>538.6</ele>
        <time>2020-06-30T14:23:23Z</time>
      </trkpt>
      <trkpt lat="43.08482" lon="0.21501">
        <ele>538.6</ele>
        <time>2020-06-30T14:23:24Z</time>
      </trkpt>
      <trkpt lat="43.08481" lon="0.21494">
        <ele>538.6</ele>
        <time>2020-06-30T14:23:25Z</time>
      </trkpt>
      <trkpt lat="43.0848" lon="0.21489">
        <ele>538.4</ele>
        <time>2020-06-30T14:23:26Z</time>
      </trkpt>
      <trkpt lat="43.0848" lon="0.21483">
        <ele>538.4</ele>
        <time>2020-06-30T14:23:27Z</time>
      </trkpt>
      <trkpt lat="43.0848" lon="0.21476">
        <ele>538.4</ele>
        <time>2020-06-30T14:23:28Z</time>
      </trkpt>
      <trkpt lat="43.08478" lon="0.21464">
        <ele>538.4</ele>
        <time>2020-06-30T14:23:30Z</time>
      </trkpt>
      <trkpt lat="43.08477" lon="0.21458">
        <ele>538.4</ele>
        <time>2020-06-30T14:23:31Z</time>
      </trkpt>
      <trkpt lat="43.08477" lon="0.21452">
        <ele>538.6</ele>
        <time>2020-06-30T14:23:32Z</time>
      </trkpt>
      <trkpt lat="43.08475" lon="0.21445">
        <ele>538.4</ele>
        <time>2020-06-30T14:23:33Z</time>
      </trkpt>
      <trkpt lat="43.08475" lon="0.21439">
        <ele>538.6</ele>
        <time>2020-06-30T14:23:34Z</time>
      </trkpt>
      <trkpt lat="43.08475" lon="0.21433">
        <ele>538.6</ele>
        <time>2020-06-30T14:23:35Z</time>
      </trkpt>
      <trkpt lat="43.08474" lon="0.21427">
        <ele>538.6</ele>
        <time>2020-06-30T14:23:36Z</time>
      </trkpt>
      <trkpt lat="43.08473" lon="0.21414">
        <ele>538.6</ele>
        <time>2020-06-30T14:23:38Z</time>
      </trkpt>
      <trkpt lat="43.08473" lon="0.21408">
        <ele>538.6</ele>
        <time>2020-06-30T14:23:39Z</time>
      </trkpt>
      <trkpt lat="43.08473" lon="0.21401">
        <ele>538.6</ele>
        <time>2020-06-30T14:23:40Z</time>
      </trkpt>
      <trkpt lat="43.08473" lon="0.21395">
        <ele>538.6</ele>
        <time>2020-06-30T14:23:41Z</time>
      </trkpt>
      <trkpt lat="43.08472" lon="0.21388">
        <ele>538.6</ele>
        <time>2020-06-30T14:23:42Z</time>
      </trkpt>
      <trkpt lat="43.08471" lon="0.21383">
        <ele>538.6</ele>
        <time>2020-06-30T14:23:43Z</time>
      </trkpt>
      <trkpt lat="43.0847" lon="0.21376">
        <ele>538.8</ele>
        <time>2020-06-30T14:23:44Z</time>
      </trkpt>
      <trkpt lat="43.0847" lon="0.2137">
        <ele>538.6</ele>
        <time>2020-06-30T14:23:45Z</time>
      </trkpt>
      <trkpt lat="43.08469" lon="0.21358">
        <ele>538.6</ele>
        <time>2020-06-30T14:23:47Z</time>
      </trkpt>
      <trkpt lat="43.08469" lon="0.21353">
        <ele>538.8</ele>
        <time>2020-06-30T14:23:48Z</time>
      </trkpt>
      <trkpt lat="43.08468" lon="0.21347">
        <ele>538.8</ele>
        <time>2020-06-30T14:23:49Z</time>
      </trkpt>
      <trkpt lat="43.08469" lon="0.21341">
        <ele>538.8</ele>
        <time>2020-06-30T14:23:50Z</time>
      </trkpt>
      <trkpt lat="43.08468" lon="0.21335">
        <ele>538.8</ele>
        <time>2020-06-30T14:23:51Z</time>
      </trkpt>
      <trkpt lat="43.08468" lon="0.2133">
        <ele>538.6</ele>
        <time>2020-06-30T14:23:52Z</time>
      </trkpt>
      <trkpt lat="43.08468" lon="0.21324">
        <ele>538.8</ele>
        <time>2020-06-30T14:23:53Z</time>
      </trkpt>
      <trkpt lat="43.08468" lon="0.21311">
        <ele>538.6</ele>
        <time>2020-06-30T14:23:55Z</time>
      </trkpt>
      <trkpt lat="43.08468" lon="0.21304">
        <ele>538.6</ele>
        <time>2020-06-30T14:23:56Z</time>
      </trkpt>
      <trkpt lat="43.08468" lon="0.21298">
        <ele>538.4</ele>
        <time>2020-06-30T14:23:57Z</time>
      </trkpt>
      <trkpt lat="43.08467" lon="0.21292">
        <ele>538.4</ele>
        <time>2020-06-30T14:23:58Z</time>
      </trkpt>
      <trkpt lat="43.08467" lon="0.21285">
        <ele>538.4</ele>
        <time>2020-06-30T14:23:59Z</time>
      </trkpt>
      <trkpt lat="43.08466" lon="0.21278">
        <ele>538.2</ele>
        <time>2020-06-30T14:24:00Z</time>
      </trkpt>
      <trkpt lat="43.08467" lon="0.21271">
        <ele>538.2</ele>
        <time>2020-06-30T14:24:01Z</time>
      </trkpt>
      <trkpt lat="43.08467" lon="0.21264">
        <ele>538.2</ele>
        <time>2020-06-30T14:24:02Z</time>
      </trkpt>
      <trkpt lat="43.08467" lon="0.21258">
        <ele>538.2</ele>
        <time>2020-06-30T14:24:03Z</time>
      </trkpt>
      <trkpt lat="43.08467" lon="0.21251">
        <ele>538.2</ele>
        <time>2020-06-30T14:24:04Z</time>
      </trkpt>
      <trkpt lat="43.08465" lon="0.21239">
        <ele>538.2</ele>
        <time>2020-06-30T14:24:06Z</time>
      </trkpt>
      <trkpt lat="43.08463" lon="0.21235">
        <ele>538.2</ele>
        <time>2020-06-30T14:24:07Z</time>
      </trkpt>
      <trkpt lat="43.0846" lon="0.21229">
        <ele>538.2</ele>
        <time>2020-06-30T14:24:08Z</time>
      </trkpt>
      <trkpt lat="43.08457" lon="0.21225">
        <ele>538.4</ele>
        <time>2020-06-30T14:24:09Z</time>
      </trkpt>
      <trkpt lat="43.08454" lon="0.2122">
        <ele>538.4</ele>
        <time>2020-06-30T14:24:10Z</time>
      </trkpt>
      <trkpt lat="43.0845" lon="0.21215">
        <ele>538.4</ele>
        <time>2020-06-30T14:24:11Z</time>
      </trkpt>
      <trkpt lat="43.08446" lon="0.21211">
        <ele>538.4</ele>
        <time>2020-06-30T14:24:12Z</time>
      </trkpt>
      <trkpt lat="43.08443" lon="0.21206">
        <ele>538.4</ele>
        <time>2020-06-30T14:24:13Z</time>
      </trkpt>
      <trkpt lat="43.08439" lon="0.21201">
        <ele>538.4</ele>
        <time>2020-06-30T14:24:14Z</time>
      </trkpt>
      <trkpt lat="43.08436" lon="0.21197">
        <ele>538.4</ele>
        <time>2020-06-30T14:24:15Z</time>
      </trkpt>
      <trkpt lat="43.08432" lon="0.21192">
        <ele>538.4</ele>
        <time>2020-06-30T14:24:16Z</time>
      </trkpt>
      <trkpt lat="43.08428" lon="0.21188">
        <ele>538.4</ele>
        <time>2020-06-30T14:24:17Z</time>
      </trkpt>
      <trkpt lat="43.08424" lon="0.21184">
        <ele>538.4</ele>
        <time>2020-06-30T14:24:18Z</time>
      </trkpt>
      <trkpt lat="43.0842" lon="0.21181">
        <ele>538.4</ele>
        <time>2020-06-30T14:24:19Z</time>
      </trkpt>
      <trkpt lat="43.08415" lon="0.21177">
        <ele>538.4</ele>
        <time>2020-06-30T14:24:20Z</time>
      </trkpt>
      <trkpt lat="43.08411" lon="0.21174">
        <ele>538.6</ele>
        <time>2020-06-30T14:24:21Z</time>
      </trkpt>
      <trkpt lat="43.08407" lon="0.21171">
        <ele>538.4</ele>
        <time>2020-06-30T14:24:22Z</time>
      </trkpt>
      <trkpt lat="43.08403" lon="0.21168">
        <ele>538.4</ele>
        <time>2020-06-30T14:24:23Z</time>
      </trkpt>
      <trkpt lat="43.08399" lon="0.21165">
        <ele>538.4</ele>
        <time>2020-06-30T14:24:24Z</time>
      </trkpt>
      <trkpt lat="43.08395" lon="0.21162">
        <ele>538.4</ele>
        <time>2020-06-30T14:24:25Z</time>
      </trkpt>
      <trkpt lat="43.08392" lon="0.21159">
        <ele>538.4</ele>
        <time>2020-06-30T14:24:26Z</time>
      </trkpt>
      <trkpt lat="43.08389" lon="0.21154">
        <ele>538.2</ele>
        <time>2020-06-30T14:24:27Z</time>
      </trkpt>
      <trkpt lat="43.08388" lon="0.21148">
        <ele>538.2</ele>
        <time>2020-06-30T14:24:28Z</time>
      </trkpt>
      <trkpt lat="43.08389" lon="0.21142">
        <ele>538.2</ele>
        <time>2020-06-30T14:24:29Z</time>
      </trkpt>
      <trkpt lat="43.08391" lon="0.21137">
        <ele>538.2</ele>
        <time>2020-06-30T14:24:30Z</time>
      </trkpt>
      <trkpt lat="43.08394" lon="0.21132">
        <ele>538.2</ele>
        <time>2020-06-30T14:24:31Z</time>
      </trkpt>
      <trkpt lat="43.08397" lon="0.21128">
        <ele>538.2</ele>
        <time>2020-06-30T14:24:32Z</time>
      </trkpt>
      <trkpt lat="43.084" lon="0.21123">
        <ele>538.2</ele>
        <time>2020-06-30T14:24:33Z</time>
      </trkpt>
      <trkpt lat="43.08404" lon="0.21118">
        <ele>538.2</ele>
        <time>2020-06-30T14:24:34Z</time>
      </trkpt>
      <trkpt lat="43.08408" lon="0.21114">
        <ele>538.2</ele>
        <time>2020-06-30T14:24:35Z</time>
      </trkpt>
      <trkpt lat="43.08412" lon="0.2111">
        <ele>538.2</ele>
        <time>2020-06-30T14:24:36Z</time>
      </trkpt>
      <trkpt lat="43.08416" lon="0.21105">
        <ele>538.2</ele>
        <time>2020-06-30T14:24:37Z</time>
      </trkpt>
      <trkpt lat="43.08419" lon="0.21101">
        <ele>538.2</ele>
        <time>2020-06-30T14:24:38Z</time>
      </trkpt>
      <trkpt lat="43.08422" lon="0.21096">
        <ele>538.2</ele>
        <time>2020-06-30T14:24:39Z</time>
      </trkpt>
      <trkpt lat="43.08424" lon="0.21093">
        <ele>538.4</ele>
        <time>2020-06-30T14:24:40Z</time>
      </trkpt>
      <trkpt lat="43.08426" lon="0.21089">
        <ele>538.4</ele>
        <time>2020-06-30T14:24:41Z</time>
      </trkpt>
      <trkpt lat="43.08427" lon="0.21084">
        <ele>538.4</ele>
        <time>2020-06-30T14:24:42Z</time>
      </trkpt>
      <trkpt lat="43.08427" lon="0.21079">
        <ele>538.6</ele>
        <time>2020-06-30T14:24:43Z</time>
      </trkpt>
      <trkpt lat="43.08425" lon="0.21075">
        <ele>538.8</ele>
        <time>2020-06-30T14:24:44Z</time>
      </trkpt>
      <trkpt lat="43.08423" lon="0.21071">
        <ele>538.8</ele>
        <time>2020-06-30T14:24:45Z</time>
      </trkpt>
      <trkpt lat="43.08419" lon="0.21068">
        <ele>539</ele>
        <time>2020-06-30T14:24:46Z</time>
      </trkpt>
      <trkpt lat="43.08415" lon="0.21066">
        <ele>539</ele>
        <time>2020-06-30T14:24:47Z</time>
      </trkpt>
      <trkpt lat="43.0841" lon="0.21064">
        <ele>539</ele>
        <time>2020-06-30T14:24:48Z</time>
      </trkpt>
      <trkpt lat="43.08407" lon="0.21062">
        <ele>539.2</ele>
        <time>2020-06-30T14:24:49Z</time>
      </trkpt>
      <trkpt lat="43.08402" lon="0.21061">
        <ele>539.2</ele>
        <time>2020-06-30T14:24:50Z</time>
      </trkpt>
      <trkpt lat="43.08398" lon="0.21059">
        <ele>539.2</ele>
        <time>2020-06-30T14:24:51Z</time>
      </trkpt>
      <trkpt lat="43.08394" lon="0.21057">
        <ele>539.2</ele>
        <time>2020-06-30T14:24:52Z</time>
      </trkpt>
      <trkpt lat="43.08389" lon="0.21056">
        <ele>539.2</ele>
        <time>2020-06-30T14:24:53Z</time>
      </trkpt>
      <trkpt lat="43.08385" lon="0.21054">
        <ele>539.2</ele>
        <time>2020-06-30T14:24:54Z</time>
      </trkpt>
      <trkpt lat="43.08379" lon="0.21053">
        <ele>539</ele>
        <time>2020-06-30T14:24:55Z</time>
      </trkpt>
      <trkpt lat="43.08375" lon="0.21051">
        <ele>539</ele>
        <time>2020-06-30T14:24:56Z</time>
      </trkpt>
      <trkpt lat="43.0837" lon="0.2105">
        <ele>539</ele>
        <time>2020-06-30T14:24:57Z</time>
      </trkpt>
      <trkpt lat="43.08365" lon="0.21048">
        <ele>538.8</ele>
        <time>2020-06-30T14:24:58Z</time>
      </trkpt>
      <trkpt lat="43.08361" lon="0.21047">
        <ele>538.8</ele>
        <time>2020-06-30T14:24:59Z</time>
      </trkpt>
      <trkpt lat="43.08356" lon="0.21045">
        <ele>538.8</ele>
        <time>2020-06-30T14:25:00Z</time>
      </trkpt>
      <trkpt lat="43.08351" lon="0.21043">
        <ele>538.8</ele>
        <time>2020-06-30T14:25:01Z</time>
      </trkpt>
      <trkpt lat="43.08346" lon="0.21042">
        <ele>538.8</ele>
        <time>2020-06-30T14:25:02Z</time>
      </trkpt>
      <trkpt lat="43.08341" lon="0.2104">
        <ele>538.6</ele>
        <time>2020-06-30T14:25:03Z</time>
      </trkpt>
      <trkpt lat="43.08336" lon="0.2104">
        <ele>538.6</ele>
        <time>2020-06-30T14:25:04Z</time>
      </trkpt>
      <trkpt lat="43.08331" lon="0.21039">
        <ele>538.8</ele>
        <time>2020-06-30T14:25:05Z</time>
      </trkpt>
      <trkpt lat="43.08327" lon="0.21038">
        <ele>538.8</ele>
        <time>2020-06-30T14:25:06Z</time>
      </trkpt>
      <trkpt lat="43.08322" lon="0.21038">
        <ele>538.8</ele>
        <time>2020-06-30T14:25:07Z</time>
      </trkpt>
      <trkpt lat="43.08317" lon="0.21038">
        <ele>538.8</ele>
        <time>2020-06-30T14:25:08Z</time>
      </trkpt>
      <trkpt lat="43.08311" lon="0.21038">
        <ele>538.8</ele>
        <time>2020-06-30T14:25:09Z</time>
      </trkpt>
      <trkpt lat="43.08307" lon="0.21039">
        <ele>538.8</ele>
        <time>2020-06-30T14:25:10Z</time>
      </trkpt>
      <trkpt lat="43.08302" lon="0.2104">
        <ele>538.8</ele>
        <time>2020-06-30T14:25:11Z</time>
      </trkpt>
      <trkpt lat="43.08297" lon="0.21041">
        <ele>538.8</ele>
        <time>2020-06-30T14:25:12Z</time>
      </trkpt>
      <trkpt lat="43.08291" lon="0.21042">
        <ele>539</ele>
        <time>2020-06-30T14:25:13Z</time>
      </trkpt>
      <trkpt lat="43.08286" lon="0.21043">
        <ele>538.8</ele>
        <time>2020-06-30T14:25:14Z</time>
      </trkpt>
      <trkpt lat="43.08282" lon="0.21044">
        <ele>538.8</ele>
        <time>2020-06-30T14:25:15Z</time>
      </trkpt>
      <trkpt lat="43.08277" lon="0.21046">
        <ele>538.8</ele>
        <time>2020-06-30T14:25:16Z</time>
      </trkpt>
      <trkpt lat="43.08273" lon="0.21048">
        <ele>538.8</ele>
        <time>2020-06-30T14:25:17Z</time>
      </trkpt>
      <trkpt lat="43.08269" lon="0.21051">
        <ele>538.8</ele>
        <time>2020-06-30T14:25:18Z</time>
      </trkpt>
      <trkpt lat="43.08266" lon="0.21054">
        <ele>538.8</ele>
        <time>2020-06-30T14:25:19Z</time>
      </trkpt>
      <trkpt lat="43.08262" lon="0.21057">
        <ele>538.8</ele>
        <time>2020-06-30T14:25:20Z</time>
      </trkpt>
      <trkpt lat="43.08257" lon="0.21062">
        <ele>538.6</ele>
        <time>2020-06-30T14:25:21Z</time>
      </trkpt>
      <trkpt lat="43.08253" lon="0.21066">
        <ele>538.4</ele>
        <time>2020-06-30T14:25:22Z</time>
      </trkpt>
      <trkpt lat="43.08249" lon="0.2107">
        <ele>538.4</ele>
        <time>2020-06-30T14:25:23Z</time>
      </trkpt>
      <trkpt lat="43.08244" lon="0.21072">
        <ele>538.4</ele>
        <time>2020-06-30T14:25:24Z</time>
      </trkpt>
      <trkpt lat="43.08239" lon="0.21075">
        <ele>538.4</ele>
        <time>2020-06-30T14:25:25Z</time>
      </trkpt>
      <trkpt lat="43.08234" lon="0.21077">
        <ele>538.4</ele>
        <time>2020-06-30T14:25:26Z</time>
      </trkpt>
      <trkpt lat="43.0823" lon="0.21079">
        <ele>538.2</ele>
        <time>2020-06-30T14:25:27Z</time>
      </trkpt>
      <trkpt lat="43.08225" lon="0.21081">
        <ele>538.2</ele>
        <time>2020-06-30T14:25:28Z</time>
      </trkpt>
      <trkpt lat="43.08221" lon="0.21082">
        <ele>538.2</ele>
        <time>2020-06-30T14:25:29Z</time>
      </trkpt>
      <trkpt lat="43.08216" lon="0.21082">
        <ele>538.2</ele>
        <time>2020-06-30T14:25:30Z</time>
      </trkpt>
      <trkpt lat="43.08212" lon="0.2108">
        <ele>538.4</ele>
        <time>2020-06-30T14:25:31Z</time>
      </trkpt>
      <trkpt lat="43.08209" lon="0.21076">
        <ele>538.4</ele>
        <time>2020-06-30T14:25:32Z</time>
      </trkpt>
      <trkpt lat="43.08208" lon="0.21071">
        <ele>538.4</ele>
        <time>2020-06-30T14:25:33Z</time>
      </trkpt>
      <trkpt lat="43.08207" lon="0.21065">
        <ele>538.6</ele>
        <time>2020-06-30T14:25:34Z</time>
      </trkpt>
      <trkpt lat="43.08207" lon="0.21058">
        <ele>538.6</ele>
        <time>2020-06-30T14:25:35Z</time>
      </trkpt>
      <trkpt lat="43.08205" lon="0.21053">
        <ele>538.4</ele>
        <time>2020-06-30T14:25:36Z</time>
      </trkpt>
      <trkpt lat="43.08204" lon="0.21047">
        <ele>538.2</ele>
        <time>2020-06-30T14:25:37Z</time>
      </trkpt>
      <trkpt lat="43.08201" lon="0.21041">
        <ele>538.2</ele>
        <time>2020-06-30T14:25:38Z</time>
      </trkpt>
      <trkpt lat="43.08198" lon="0.21035">
        <ele>538</ele>
        <time>2020-06-30T14:25:39Z</time>
      </trkpt>
      <trkpt lat="43.08196" lon="0.2103">
        <ele>538</ele>
        <time>2020-06-30T14:25:40Z</time>
      </trkpt>
      <trkpt lat="43.08193" lon="0.21025">
        <ele>537.8</ele>
        <time>2020-06-30T14:25:41Z</time>
      </trkpt>
      <trkpt lat="43.0819" lon="0.21019">
        <ele>537.6</ele>
        <time>2020-06-30T14:25:42Z</time>
      </trkpt>
      <trkpt lat="43.08187" lon="0.21013">
        <ele>537.6</ele>
        <time>2020-06-30T14:25:43Z</time>
      </trkpt>
      <trkpt lat="43.08184" lon="0.21006">
        <ele>537.4</ele>
        <time>2020-06-30T14:25:44Z</time>
      </trkpt>
      <trkpt lat="43.08181" lon="0.21">
        <ele>537.4</ele>
        <time>2020-06-30T14:25:45Z</time>
      </trkpt>
      <trkpt lat="43.0818" lon="0.20993">
        <ele>537.4</ele>
        <time>2020-06-30T14:25:46Z</time>
      </trkpt>
      <trkpt lat="43.08179" lon="0.20987">
        <ele>537.2</ele>
        <time>2020-06-30T14:25:47Z</time>
      </trkpt>
      <trkpt lat="43.08177" lon="0.20981">
        <ele>537.2</ele>
        <time>2020-06-30T14:25:48Z</time>
      </trkpt>
      <trkpt lat="43.08175" lon="0.20974">
        <ele>537</ele>
        <time>2020-06-30T14:25:49Z</time>
      </trkpt>
      <trkpt lat="43.08173" lon="0.20968">
        <ele>536.8</ele>
        <time>2020-06-30T14:25:50Z</time>
      </trkpt>
      <trkpt lat="43.08171" lon="0.20961">
        <ele>536.6</ele>
        <time>2020-06-30T14:25:51Z</time>
      </trkpt>
      <trkpt lat="43.08168" lon="0.20954">
        <ele>536.4</ele>
        <time>2020-06-30T14:25:52Z</time>
      </trkpt>
      <trkpt lat="43.08166" lon="0.20947">
        <ele>536.2</ele>
        <time>2020-06-30T14:25:53Z</time>
      </trkpt>
      <trkpt lat="43.08163" lon="0.2094">
        <ele>536.2</ele>
        <time>2020-06-30T14:25:54Z</time>
      </trkpt>
      <trkpt lat="43.0816" lon="0.20935">
        <ele>536</ele>
        <time>2020-06-30T14:25:55Z</time>
      </trkpt>
      <trkpt lat="43.08157" lon="0.20929">
        <ele>535.8</ele>
        <time>2020-06-30T14:25:56Z</time>
      </trkpt>
      <trkpt lat="43.08153" lon="0.20925">
        <ele>535.6</ele>
        <time>2020-06-30T14:25:57Z</time>
      </trkpt>
      <trkpt lat="43.08148" lon="0.20921">
        <ele>535.6</ele>
        <time>2020-06-30T14:25:58Z</time>
      </trkpt>
      <trkpt lat="43.08143" lon="0.20918">
        <ele>535.4</ele>
        <time>2020-06-30T14:25:59Z</time>
      </trkpt>
      <trkpt lat="43.08138" lon="0.20917">
        <ele>535.2</ele>
        <time>2020-06-30T14:26:00Z</time>
      </trkpt>
      <trkpt lat="43.08132" lon="0.20915">
        <ele>535</ele>
        <time>2020-06-30T14:26:01Z</time>
      </trkpt>
      <trkpt lat="43.08126" lon="0.20913">
        <ele>535</ele>
        <time>2020-06-30T14:26:02Z</time>
      </trkpt>
      <trkpt lat="43.08121" lon="0.20913">
        <ele>534.8</ele>
        <time>2020-06-30T14:26:03Z</time>
      </trkpt>
      <trkpt lat="43.08115" lon="0.20914">
        <ele>534.6</ele>
        <time>2020-06-30T14:26:04Z</time>
      </trkpt>
      <trkpt lat="43.08111" lon="0.20915">
        <ele>534.4</ele>
        <time>2020-06-30T14:26:05Z</time>
      </trkpt>
      <trkpt lat="43.08105" lon="0.20914">
        <ele>534.4</ele>
        <time>2020-06-30T14:26:06Z</time>
      </trkpt>
      <trkpt lat="43.08099" lon="0.20915">
        <ele>534.2</ele>
        <time>2020-06-30T14:26:07Z</time>
      </trkpt>
      <trkpt lat="43.08093" lon="0.20916">
        <ele>534.2</ele>
        <time>2020-06-30T14:26:08Z</time>
      </trkpt>
      <trkpt lat="43.08087" lon="0.20917">
        <ele>534.4</ele>
        <time>2020-06-30T14:26:09Z</time>
      </trkpt>
      <trkpt lat="43.08082" lon="0.20917">
        <ele>534.4</ele>
        <time>2020-06-30T14:26:10Z</time>
      </trkpt>
      <trkpt lat="43.08077" lon="0.20916">
        <ele>534.2</ele>
        <time>2020-06-30T14:26:11Z</time>
      </trkpt>
      <trkpt lat="43.08076" lon="0.20911">
        <ele>533.8</ele>
        <time>2020-06-30T14:26:12Z</time>
      </trkpt>
      <trkpt lat="43.08072" lon="0.20908">
        <ele>533.6</ele>
        <time>2020-06-30T14:26:13Z</time>
      </trkpt>
      <trkpt lat="43.08071" lon="0.20903">
        <ele>533.4</ele>
        <time>2020-06-30T14:26:14Z</time>
      </trkpt>
      <trkpt lat="43.08072" lon="0.20899">
        <ele>533.2</ele>
        <time>2020-06-30T14:26:15Z</time>
      </trkpt>
      <trkpt lat="43.0807" lon="0.20891">
        <ele>533</ele>
        <time>2020-06-30T14:26:16Z</time>
      </trkpt>
      <trkpt lat="43.08066" lon="0.20884">
        <ele>532.8</ele>
        <time>2020-06-30T14:26:17Z</time>
      </trkpt>
      <trkpt lat="43.0806" lon="0.20879">
        <ele>532.6</ele>
        <time>2020-06-30T14:26:18Z</time>
      </trkpt>
      <trkpt lat="43.08055" lon="0.20876">
        <ele>532.6</ele>
        <time>2020-06-30T14:26:19Z</time>
      </trkpt>
      <trkpt lat="43.08049" lon="0.20873">
        <ele>532.4</ele>
        <time>2020-06-30T14:26:20Z</time>
      </trkpt>
      <trkpt lat="43.08044" lon="0.20873">
        <ele>532.4</ele>
        <time>2020-06-30T14:26:21Z</time>
      </trkpt>
      <trkpt lat="43.0804" lon="0.20874">
        <ele>532.2</ele>
        <time>2020-06-30T14:26:22Z</time>
      </trkpt>
      <trkpt lat="43.08036" lon="0.20875">
        <ele>532.2</ele>
        <time>2020-06-30T14:26:23Z</time>
      </trkpt>
      <trkpt lat="43.08031" lon="0.20875">
        <ele>531.8</ele>
        <time>2020-06-30T14:26:24Z</time>
      </trkpt>
      <trkpt lat="43.08025" lon="0.20874">
        <ele>531.8</ele>
        <time>2020-06-30T14:26:25Z</time>
      </trkpt>
      <trkpt lat="43.08018" lon="0.20875">
        <ele>531.6</ele>
        <time>2020-06-30T14:26:26Z</time>
      </trkpt>
      <trkpt lat="43.08012" lon="0.20873">
        <ele>531.6</ele>
        <time>2020-06-30T14:26:27Z</time>
      </trkpt>
      <trkpt lat="43.08005" lon="0.20869">
        <ele>531.4</ele>
        <time>2020-06-30T14:26:28Z</time>
      </trkpt>
      <trkpt lat="43.07998" lon="0.20865">
        <ele>531.2</ele>
        <time>2020-06-30T14:26:29Z</time>
      </trkpt>
      <trkpt lat="43.07993" lon="0.20863">
        <ele>531</ele>
        <time>2020-06-30T14:26:30Z</time>
      </trkpt>
      <trkpt lat="43.07987" lon="0.20859">
        <ele>530.8</ele>
        <time>2020-06-30T14:26:31Z</time>
      </trkpt>
      <trkpt lat="43.07981" lon="0.20855">
        <ele>530.6</ele>
        <time>2020-06-30T14:26:32Z</time>
      </trkpt>
      <trkpt lat="43.07975" lon="0.20851">
        <ele>530.6</ele>
        <time>2020-06-30T14:26:33Z</time>
      </trkpt>
      <trkpt lat="43.0797" lon="0.20849">
        <ele>530.4</ele>
        <time>2020-06-30T14:26:34Z</time>
      </trkpt>
      <trkpt lat="43.07965" lon="0.20847">
        <ele>530.4</ele>
        <time>2020-06-30T14:26:35Z</time>
      </trkpt>
      <trkpt lat="43.07959" lon="0.20848">
        <ele>530.2</ele>
        <time>2020-06-30T14:26:36Z</time>
      </trkpt>
      <trkpt lat="43.07952" lon="0.20847">
        <ele>530.2</ele>
        <time>2020-06-30T14:26:37Z</time>
      </trkpt>
      <trkpt lat="43.07946" lon="0.20848">
        <ele>530</ele>
        <time>2020-06-30T14:26:38Z</time>
      </trkpt>
      <trkpt lat="43.07939" lon="0.20851">
        <ele>529.8</ele>
        <time>2020-06-30T14:26:39Z</time>
      </trkpt>
      <trkpt lat="43.07932" lon="0.20855">
        <ele>529.6</ele>
        <time>2020-06-30T14:26:40Z</time>
      </trkpt>
      <trkpt lat="43.07928" lon="0.2086">
        <ele>529.4</ele>
        <time>2020-06-30T14:26:41Z</time>
      </trkpt>
      <trkpt lat="43.07921" lon="0.20863">
        <ele>529</ele>
        <time>2020-06-30T14:26:42Z</time>
      </trkpt>
      <trkpt lat="43.07916" lon="0.20868">
        <ele>528.8</ele>
        <time>2020-06-30T14:26:43Z</time>
      </trkpt>
      <trkpt lat="43.0791" lon="0.20873">
        <ele>528.8</ele>
        <time>2020-06-30T14:26:44Z</time>
      </trkpt>
      <trkpt lat="43.07906" lon="0.20879">
        <ele>528.6</ele>
        <time>2020-06-30T14:26:45Z</time>
      </trkpt>
      <trkpt lat="43.07903" lon="0.20885">
        <ele>528.6</ele>
        <time>2020-06-30T14:26:46Z</time>
      </trkpt>
      <trkpt lat="43.07899" lon="0.2089">
        <ele>528.6</ele>
        <time>2020-06-30T14:26:47Z</time>
      </trkpt>
      <trkpt lat="43.07895" lon="0.20893">
        <ele>528.4</ele>
        <time>2020-06-30T14:26:48Z</time>
      </trkpt>
      <trkpt lat="43.07892" lon="0.20898">
        <ele>528.2</ele>
        <time>2020-06-30T14:26:49Z</time>
      </trkpt>
      <trkpt lat="43.07888" lon="0.20903">
        <ele>528.2</ele>
        <time>2020-06-30T14:26:50Z</time>
      </trkpt>
      <trkpt lat="43.07884" lon="0.20911">
        <ele>528</ele>
        <time>2020-06-30T14:26:51Z</time>
      </trkpt>
      <trkpt lat="43.0788" lon="0.20916">
        <ele>528.2</ele>
        <time>2020-06-30T14:26:52Z</time>
      </trkpt>
      <trkpt lat="43.07876" lon="0.20918">
        <ele>528.2</ele>
        <time>2020-06-30T14:26:53Z</time>
      </trkpt>
      <trkpt lat="43.07873" lon="0.20922">
        <ele>528.2</ele>
        <time>2020-06-30T14:26:54Z</time>
      </trkpt>
      <trkpt lat="43.07871" lon="0.20924">
        <ele>528</ele>
        <time>2020-06-30T14:26:55Z</time>
      </trkpt>
      <trkpt lat="43.07866" lon="0.20924">
        <ele>528</ele>
        <time>2020-06-30T14:26:56Z</time>
      </trkpt>
      <trkpt lat="43.0786" lon="0.20926">
        <ele>528</ele>
        <time>2020-06-30T14:26:57Z</time>
      </trkpt>
      <trkpt lat="43.07853" lon="0.20928">
        <ele>528.2</ele>
        <time>2020-06-30T14:26:58Z</time>
      </trkpt>
      <trkpt lat="43.07848" lon="0.20928">
        <ele>528.2</ele>
        <time>2020-06-30T14:26:59Z</time>
      </trkpt>
      <trkpt lat="43.07842" lon="0.20932">
        <ele>528.2</ele>
        <time>2020-06-30T14:27:00Z</time>
      </trkpt>
      <trkpt lat="43.07838" lon="0.20934">
        <ele>528.2</ele>
        <time>2020-06-30T14:27:01Z</time>
      </trkpt>
      <trkpt lat="43.07833" lon="0.20938">
        <ele>528.2</ele>
        <time>2020-06-30T14:27:02Z</time>
      </trkpt>
      <trkpt lat="43.07827" lon="0.20941">
        <ele>528.2</ele>
        <time>2020-06-30T14:27:03Z</time>
      </trkpt>
      <trkpt lat="43.07822" lon="0.20945">
        <ele>528.2</ele>
        <time>2020-06-30T14:27:04Z</time>
      </trkpt>
      <trkpt lat="43.07818" lon="0.20948">
        <ele>528.2</ele>
        <time>2020-06-30T14:27:05Z</time>
      </trkpt>
      <trkpt lat="43.07815" lon="0.20954">
        <ele>528.2</ele>
        <time>2020-06-30T14:27:06Z</time>
      </trkpt>
      <trkpt lat="43.07813" lon="0.20959">
        <ele>528</ele>
        <time>2020-06-30T14:27:07Z</time>
      </trkpt>
      <trkpt lat="43.07811" lon="0.20966">
        <ele>527.8</ele>
        <time>2020-06-30T14:27:08Z</time>
      </trkpt>
      <trkpt lat="43.07808" lon="0.20972">
        <ele>527.6</ele>
        <time>2020-06-30T14:27:09Z</time>
      </trkpt>
      <trkpt lat="43.07802" lon="0.20981">
        <ele>527.4</ele>
        <time>2020-06-30T14:27:10Z</time>
      </trkpt>
      <trkpt lat="43.07799" lon="0.20984">
        <ele>527.4</ele>
        <time>2020-06-30T14:27:11Z</time>
      </trkpt>
      <trkpt lat="43.07794" lon="0.20989">
        <ele>527.4</ele>
        <time>2020-06-30T14:27:12Z</time>
      </trkpt>
      <trkpt lat="43.07789" lon="0.2099">
        <ele>527.4</ele>
        <time>2020-06-30T14:27:13Z</time>
      </trkpt>
      <trkpt lat="43.07783" lon="0.20991">
        <ele>527.4</ele>
        <time>2020-06-30T14:27:14Z</time>
      </trkpt>
      <trkpt lat="43.07779" lon="0.20989">
        <ele>527.4</ele>
        <time>2020-06-30T14:27:15Z</time>
      </trkpt>
      <trkpt lat="43.07774" lon="0.20987">
        <ele>527.4</ele>
        <time>2020-06-30T14:27:16Z</time>
      </trkpt>
      <trkpt lat="43.07768" lon="0.20983">
        <ele>527.6</ele>
        <time>2020-06-30T14:27:17Z</time>
      </trkpt>
      <trkpt lat="43.07764" lon="0.20983">
        <ele>527.6</ele>
        <time>2020-06-30T14:27:18Z</time>
      </trkpt>
      <trkpt lat="43.07758" lon="0.20984">
        <ele>527.6</ele>
        <time>2020-06-30T14:27:19Z</time>
      </trkpt>
      <trkpt lat="43.07754" lon="0.20982">
        <ele>527.6</ele>
        <time>2020-06-30T14:27:20Z</time>
      </trkpt>
      <trkpt lat="43.0775" lon="0.20981">
        <ele>527.6</ele>
        <time>2020-06-30T14:27:21Z</time>
      </trkpt>
      <trkpt lat="43.07745" lon="0.20983">
        <ele>527.8</ele>
        <time>2020-06-30T14:27:22Z</time>
      </trkpt>
      <trkpt lat="43.0774" lon="0.20982">
        <ele>527.8</ele>
        <time>2020-06-30T14:27:23Z</time>
      </trkpt>
      <trkpt lat="43.07736" lon="0.20983">
        <ele>527.8</ele>
        <time>2020-06-30T14:27:24Z</time>
      </trkpt>
      <trkpt lat="43.0773" lon="0.20985">
        <ele>528</ele>
        <time>2020-06-30T14:27:25Z</time>
      </trkpt>
      <trkpt lat="43.07727" lon="0.20986">
        <ele>528</ele>
        <time>2020-06-30T14:27:26Z</time>
      </trkpt>
      <trkpt lat="43.07724" lon="0.20989">
        <ele>528</ele>
        <time>2020-06-30T14:27:27Z</time>
      </trkpt>
      <trkpt lat="43.0772" lon="0.2099">
        <ele>528</ele>
        <time>2020-06-30T14:27:28Z</time>
      </trkpt>
      <trkpt lat="43.07716" lon="0.20991">
        <ele>528.2</ele>
        <time>2020-06-30T14:27:29Z</time>
      </trkpt>
      <trkpt lat="43.07711" lon="0.20991">
        <ele>528.2</ele>
        <time>2020-06-30T14:27:30Z</time>
      </trkpt>
      <trkpt lat="43.07707" lon="0.20993">
        <ele>528.2</ele>
        <time>2020-06-30T14:27:31Z</time>
      </trkpt>
      <trkpt lat="43.07702" lon="0.2099">
        <ele>528.2</ele>
        <time>2020-06-30T14:27:32Z</time>
      </trkpt>
      <trkpt lat="43.07697" lon="0.2099">
        <ele>528.4</ele>
        <time>2020-06-30T14:27:33Z</time>
      </trkpt>
      <trkpt lat="43.07694" lon="0.20988">
        <ele>528.4</ele>
        <time>2020-06-30T14:27:34Z</time>
      </trkpt>
      <trkpt lat="43.07691" lon="0.20987">
        <ele>528.4</ele>
        <time>2020-06-30T14:27:35Z</time>
      </trkpt>
      <trkpt lat="43.07688" lon="0.20985">
        <ele>528.6</ele>
        <time>2020-06-30T14:27:36Z</time>
      </trkpt>
      <trkpt lat="43.07684" lon="0.20982">
        <ele>528.6</ele>
        <time>2020-06-30T14:27:37Z</time>
      </trkpt>
      <trkpt lat="43.07684" lon="0.20979">
        <ele>528.4</ele>
        <time>2020-06-30T14:27:38Z</time>
      </trkpt>
      <trkpt lat="43.07683" lon="0.20977">
        <ele>528.4</ele>
        <time>2020-06-30T14:27:39Z</time>
      </trkpt>
      <trkpt lat="43.07684" lon="0.20973">
        <ele>528.2</ele>
        <time>2020-06-30T14:27:40Z</time>
      </trkpt>
      <trkpt lat="43.07686" lon="0.2097">
        <ele>528</ele>
        <time>2020-06-30T14:27:41Z</time>
      </trkpt>
      <trkpt lat="43.07688" lon="0.20967">
        <ele>528</ele>
        <time>2020-06-30T14:27:42Z</time>
      </trkpt>
      <trkpt lat="43.07689" lon="0.20962">
        <ele>527.8</ele>
        <time>2020-06-30T14:27:43Z</time>
      </trkpt>
      <trkpt lat="43.07691" lon="0.20959">
        <ele>527.6</ele>
        <time>2020-06-30T14:27:44Z</time>
      </trkpt>
      <trkpt lat="43.07691" lon="0.20952">
        <ele>527.4</ele>
        <time>2020-06-30T14:27:45Z</time>
      </trkpt>
      <trkpt lat="43.07695" lon="0.20947">
        <ele>527.2</ele>
        <time>2020-06-30T14:27:46Z</time>
      </trkpt>
      <trkpt lat="43.07701" lon="0.20941">
        <ele>527</ele>
        <time>2020-06-30T14:27:47Z</time>
      </trkpt>
      <trkpt lat="43.07705" lon="0.20936">
        <ele>526.8</ele>
        <time>2020-06-30T14:27:48Z</time>
      </trkpt>
      <trkpt lat="43.0771" lon="0.20931">
        <ele>526.8</ele>
        <time>2020-06-30T14:27:49Z</time>
      </trkpt>
      <trkpt lat="43.07713" lon="0.20926">
        <ele>526.6</ele>
        <time>2020-06-30T14:27:50Z</time>
      </trkpt>
      <trkpt lat="43.07717" lon="0.20919">
        <ele>526.4</ele>
        <time>2020-06-30T14:27:51Z</time>
      </trkpt>
      <trkpt lat="43.07721" lon="0.20914">
        <ele>526.4</ele>
        <time>2020-06-30T14:27:52Z</time>
      </trkpt>
      <trkpt lat="43.07724" lon="0.2091">
        <ele>526.2</ele>
        <time>2020-06-30T14:27:53Z</time>
      </trkpt>
      <trkpt lat="43.07728" lon="0.20905">
        <ele>526</ele>
        <time>2020-06-30T14:27:54Z</time>
      </trkpt>
      <trkpt lat="43.07732" lon="0.209">
        <ele>525.8</ele>
        <time>2020-06-30T14:27:55Z</time>
      </trkpt>
      <trkpt lat="43.07735" lon="0.20894">
        <ele>525.8</ele>
        <time>2020-06-30T14:27:56Z</time>
      </trkpt>
      <trkpt lat="43.07737" lon="0.20888">
        <ele>525.6</ele>
        <time>2020-06-30T14:27:57Z</time>
      </trkpt>
      <trkpt lat="43.0774" lon="0.2088">
        <ele>525.6</ele>
        <time>2020-06-30T14:27:58Z</time>
      </trkpt>
      <trkpt lat="43.07745" lon="0.20874">
        <ele>525.4</ele>
        <time>2020-06-30T14:27:59Z</time>
      </trkpt>
      <trkpt lat="43.07746" lon="0.20867">
        <ele>525.2</ele>
        <time>2020-06-30T14:28:00Z</time>
      </trkpt>
      <trkpt lat="43.07747" lon="0.2086">
        <ele>525</ele>
        <time>2020-06-30T14:28:01Z</time>
      </trkpt>
      <trkpt lat="43.07749" lon="0.20853">
        <ele>525</ele>
        <time>2020-06-30T14:28:02Z</time>
      </trkpt>
      <trkpt lat="43.07751" lon="0.20847">
        <ele>524.8</ele>
        <time>2020-06-30T14:28:03Z</time>
      </trkpt>
      <trkpt lat="43.0775" lon="0.20841">
        <ele>524.8</ele>
        <time>2020-06-30T14:28:04Z</time>
      </trkpt>
      <trkpt lat="43.07752" lon="0.20833">
        <ele>524.6</ele>
        <time>2020-06-30T14:28:05Z</time>
      </trkpt>
      <trkpt lat="43.07754" lon="0.20827">
        <ele>524.6</ele>
        <time>2020-06-30T14:28:06Z</time>
      </trkpt>
      <trkpt lat="43.07754" lon="0.2082">
        <ele>524.4</ele>
        <time>2020-06-30T14:28:07Z</time>
      </trkpt>
      <trkpt lat="43.07756" lon="0.20814">
        <ele>524.2</ele>
        <time>2020-06-30T14:28:08Z</time>
      </trkpt>
      <trkpt lat="43.07757" lon="0.20807">
        <ele>524.2</ele>
        <time>2020-06-30T14:28:09Z</time>
      </trkpt>
      <trkpt lat="43.07757" lon="0.20801">
        <ele>524</ele>
        <time>2020-06-30T14:28:10Z</time>
      </trkpt>
      <trkpt lat="43.07756" lon="0.20796">
        <ele>523.8</ele>
        <time>2020-06-30T14:28:11Z</time>
      </trkpt>
      <trkpt lat="43.07752" lon="0.20787">
        <ele>523.8</ele>
        <time>2020-06-30T14:28:12Z</time>
      </trkpt>
      <trkpt lat="43.07749" lon="0.20782">
        <ele>523.6</ele>
        <time>2020-06-30T14:28:13Z</time>
      </trkpt>
      <trkpt lat="43.07746" lon="0.20778">
        <ele>523.4</ele>
        <time>2020-06-30T14:28:14Z</time>
      </trkpt>
      <trkpt lat="43.07743" lon="0.2077">
        <ele>523.4</ele>
        <time>2020-06-30T14:28:15Z</time>
      </trkpt>
      <trkpt lat="43.07739" lon="0.20764">
        <ele>523.2</ele>
        <time>2020-06-30T14:28:16Z</time>
      </trkpt>
      <trkpt lat="43.07738" lon="0.20759">
        <ele>523</ele>
        <time>2020-06-30T14:28:17Z</time>
      </trkpt>
      <trkpt lat="43.07736" lon="0.20757">
        <ele>523</ele>
        <time>2020-06-30T14:28:18Z</time>
      </trkpt>
      <trkpt lat="43.07734" lon="0.20753">
        <ele>523</ele>
        <time>2020-06-30T14:28:19Z</time>
      </trkpt>
      <trkpt lat="43.07731" lon="0.20747">
        <ele>522.8</ele>
        <time>2020-06-30T14:28:20Z</time>
      </trkpt>
      <trkpt lat="43.07728" lon="0.20742">
        <ele>522.8</ele>
        <time>2020-06-30T14:28:21Z</time>
      </trkpt>
      <trkpt lat="43.07724" lon="0.20734">
        <ele>522.6</ele>
        <time>2020-06-30T14:28:22Z</time>
      </trkpt>
      <trkpt lat="43.0772" lon="0.20724">
        <ele>522.6</ele>
        <time>2020-06-30T14:28:23Z</time>
      </trkpt>
      <trkpt lat="43.07719" lon="0.20718">
        <ele>522.4</ele>
        <time>2020-06-30T14:28:24Z</time>
      </trkpt>
      <trkpt lat="43.07718" lon="0.20711">
        <ele>522.2</ele>
        <time>2020-06-30T14:28:25Z</time>
      </trkpt>
      <trkpt lat="43.07718" lon="0.20702">
        <ele>522.2</ele>
        <time>2020-06-30T14:28:26Z</time>
      </trkpt>
      <trkpt lat="43.07714" lon="0.20699">
        <ele>521.8</ele>
        <time>2020-06-30T14:28:27Z</time>
      </trkpt>
      <trkpt lat="43.07714" lon="0.2069">
        <ele>521.8</ele>
        <time>2020-06-30T14:28:28Z</time>
      </trkpt>
      <trkpt lat="43.07711" lon="0.20681">
        <ele>521.6</ele>
        <time>2020-06-30T14:28:29Z</time>
      </trkpt>
      <trkpt lat="43.07708" lon="0.20673">
        <ele>521.4</ele>
        <time>2020-06-30T14:28:30Z</time>
      </trkpt>
      <trkpt lat="43.07708" lon="0.20666">
        <ele>521.4</ele>
        <time>2020-06-30T14:28:31Z</time>
      </trkpt>
      <trkpt lat="43.07711" lon="0.20655">
        <ele>521.2</ele>
        <time>2020-06-30T14:28:32Z</time>
      </trkpt>
      <trkpt lat="43.07706" lon="0.20649">
        <ele>521.2</ele>
        <time>2020-06-30T14:28:33Z</time>
      </trkpt>
      <trkpt lat="43.07702" lon="0.20642">
        <ele>521</ele>
        <time>2020-06-30T14:28:34Z</time>
      </trkpt>
      <trkpt lat="43.07699" lon="0.20635">
        <ele>521</ele>
        <time>2020-06-30T14:28:35Z</time>
      </trkpt>
      <trkpt lat="43.07697" lon="0.20626">
        <ele>520.8</ele>
        <time>2020-06-30T14:28:36Z</time>
      </trkpt>
      <trkpt lat="43.07696" lon="0.20619">
        <ele>520.8</ele>
        <time>2020-06-30T14:28:37Z</time>
      </trkpt>
      <trkpt lat="43.07692" lon="0.2061">
        <ele>520.6</ele>
        <time>2020-06-30T14:28:38Z</time>
      </trkpt>
      <trkpt lat="43.07688" lon="0.20602">
        <ele>520.4</ele>
        <time>2020-06-30T14:28:39Z</time>
      </trkpt>
      <trkpt lat="43.07686" lon="0.20594">
        <ele>520.4</ele>
        <time>2020-06-30T14:28:40Z</time>
      </trkpt>
      <trkpt lat="43.07683" lon="0.20586">
        <ele>520.2</ele>
        <time>2020-06-30T14:28:41Z</time>
      </trkpt>
      <trkpt lat="43.0768" lon="0.2058">
        <ele>520</ele>
        <time>2020-06-30T14:28:42Z</time>
      </trkpt>
      <trkpt lat="43.07678" lon="0.20574">
        <ele>520</ele>
        <time>2020-06-30T14:28:43Z</time>
      </trkpt>
      <trkpt lat="43.07674" lon="0.20567">
        <ele>519.8</ele>
        <time>2020-06-30T14:28:44Z</time>
      </trkpt>
      <trkpt lat="43.07671" lon="0.2056">
        <ele>519.6</ele>
        <time>2020-06-30T14:28:45Z</time>
      </trkpt>
      <trkpt lat="43.07668" lon="0.20554">
        <ele>519.4</ele>
        <time>2020-06-30T14:28:46Z</time>
      </trkpt>
      <trkpt lat="43.07666" lon="0.20547">
        <ele>519.4</ele>
        <time>2020-06-30T14:28:47Z</time>
      </trkpt>
      <trkpt lat="43.07662" lon="0.2054">
        <ele>519.2</ele>
        <time>2020-06-30T14:28:48Z</time>
      </trkpt>
      <trkpt lat="43.07657" lon="0.20534">
        <ele>519</ele>
        <time>2020-06-30T14:28:49Z</time>
      </trkpt>
      <trkpt lat="43.07655" lon="0.20528">
        <ele>519</ele>
        <time>2020-06-30T14:28:50Z</time>
      </trkpt>
      <trkpt lat="43.07652" lon="0.20521">
        <ele>518.8</ele>
        <time>2020-06-30T14:28:51Z</time>
      </trkpt>
      <trkpt lat="43.0765" lon="0.20512">
        <ele>518.8</ele>
        <time>2020-06-30T14:28:52Z</time>
      </trkpt>
      <trkpt lat="43.07649" lon="0.20504">
        <ele>518.8</ele>
        <time>2020-06-30T14:28:53Z</time>
      </trkpt>
      <trkpt lat="43.07647" lon="0.20495">
        <ele>518.8</ele>
        <time>2020-06-30T14:28:54Z</time>
      </trkpt>
      <trkpt lat="43.07643" lon="0.20488">
        <ele>518.8</ele>
        <time>2020-06-30T14:28:55Z</time>
      </trkpt>
      <trkpt lat="43.07639" lon="0.20485">
        <ele>518.6</ele>
        <time>2020-06-30T14:28:56Z</time>
      </trkpt>
      <trkpt lat="43.07635" lon="0.20484">
        <ele>518.4</ele>
        <time>2020-06-30T14:28:57Z</time>
      </trkpt>
      <trkpt lat="43.07629" lon="0.20484">
        <ele>518.4</ele>
        <time>2020-06-30T14:28:58Z</time>
      </trkpt>
      <trkpt lat="43.07627" lon="0.20486">
        <ele>518.2</ele>
        <time>2020-06-30T14:28:59Z</time>
      </trkpt>
      <trkpt lat="43.07624" lon="0.20488">
        <ele>518.2</ele>
        <time>2020-06-30T14:29:00Z</time>
      </trkpt>
      <trkpt lat="43.07621" lon="0.20489">
        <ele>518</ele>
        <time>2020-06-30T14:29:01Z</time>
      </trkpt>
      <trkpt lat="43.07618" lon="0.20492">
        <ele>518</ele>
        <time>2020-06-30T14:29:02Z</time>
      </trkpt>
      <trkpt lat="43.07615" lon="0.20493">
        <ele>517.8</ele>
        <time>2020-06-30T14:29:03Z</time>
      </trkpt>
      <trkpt lat="43.0761" lon="0.20496">
        <ele>517.6</ele>
        <time>2020-06-30T14:29:04Z</time>
      </trkpt>
      <trkpt lat="43.07603" lon="0.20493">
        <ele>517.6</ele>
        <time>2020-06-30T14:29:05Z</time>
      </trkpt>
      <trkpt lat="43.07598" lon="0.20491">
        <ele>517.6</ele>
        <time>2020-06-30T14:29:06Z</time>
      </trkpt>
      <trkpt lat="43.07594" lon="0.20489">
        <ele>517.6</ele>
        <time>2020-06-30T14:29:07Z</time>
      </trkpt>
      <trkpt lat="43.07589" lon="0.20487">
        <ele>517.6</ele>
        <time>2020-06-30T14:29:08Z</time>
      </trkpt>
      <trkpt lat="43.07584" lon="0.20484">
        <ele>517.8</ele>
        <time>2020-06-30T14:29:09Z</time>
      </trkpt>
      <trkpt lat="43.0758" lon="0.20481">
        <ele>517.8</ele>
        <time>2020-06-30T14:29:10Z</time>
      </trkpt>
      <trkpt lat="43.07576" lon="0.2048">
        <ele>517.8</ele>
        <time>2020-06-30T14:29:11Z</time>
      </trkpt>
      <trkpt lat="43.07573" lon="0.20476">
        <ele>517.8</ele>
        <time>2020-06-30T14:29:12Z</time>
      </trkpt>
      <trkpt lat="43.07568" lon="0.20476">
        <ele>517.8</ele>
        <time>2020-06-30T14:29:13Z</time>
      </trkpt>
      <trkpt lat="43.07565" lon="0.20474">
        <ele>517.8</ele>
        <time>2020-06-30T14:29:14Z</time>
      </trkpt>
      <trkpt lat="43.07561" lon="0.20473">
        <ele>517.8</ele>
        <time>2020-06-30T14:29:15Z</time>
      </trkpt>
      <trkpt lat="43.07557" lon="0.20472">
        <ele>518</ele>
        <time>2020-06-30T14:29:16Z</time>
      </trkpt>
      <trkpt lat="43.07551" lon="0.20467">
        <ele>518</ele>
        <time>2020-06-30T14:29:17Z</time>
      </trkpt>
      <trkpt lat="43.07547" lon="0.20468">
        <ele>518.2</ele>
        <time>2020-06-30T14:29:18Z</time>
      </trkpt>
      <trkpt lat="43.07542" lon="0.20468">
        <ele>518.2</ele>
        <time>2020-06-30T14:29:19Z</time>
      </trkpt>
      <trkpt lat="43.07539" lon="0.20467">
        <ele>518</ele>
        <time>2020-06-30T14:29:20Z</time>
      </trkpt>
      <trkpt lat="43.07538" lon="0.20464">
        <ele>518</ele>
        <time>2020-06-30T14:29:21Z</time>
      </trkpt>
      <trkpt lat="43.07535" lon="0.20459">
        <ele>517.8</ele>
        <time>2020-06-30T14:29:22Z</time>
      </trkpt>
      <trkpt lat="43.07533" lon="0.20456">
        <ele>517.8</ele>
        <time>2020-06-30T14:29:23Z</time>
      </trkpt>
      <trkpt lat="43.07534" lon="0.2045">
        <ele>517.6</ele>
        <time>2020-06-30T14:29:24Z</time>
      </trkpt>
      <trkpt lat="43.07534" lon="0.20446">
        <ele>517.6</ele>
        <time>2020-06-30T14:29:25Z</time>
      </trkpt>
      <trkpt lat="43.07536" lon="0.20438">
        <ele>517.4</ele>
        <time>2020-06-30T14:29:26Z</time>
      </trkpt>
      <trkpt lat="43.07538" lon="0.20431">
        <ele>517.2</ele>
        <time>2020-06-30T14:29:27Z</time>
      </trkpt>
      <trkpt lat="43.07542" lon="0.20425">
        <ele>517</ele>
        <time>2020-06-30T14:29:28Z</time>
      </trkpt>
      <trkpt lat="43.07546" lon="0.20421">
        <ele>516.6</ele>
        <time>2020-06-30T14:29:29Z</time>
      </trkpt>
      <trkpt lat="43.07552" lon="0.20415">
        <ele>516.4</ele>
        <time>2020-06-30T14:29:30Z</time>
      </trkpt>
      <trkpt lat="43.07556" lon="0.20409">
        <ele>516.2</ele>
        <time>2020-06-30T14:29:31Z</time>
      </trkpt>
      <trkpt lat="43.0756" lon="0.20401">
        <ele>515.8</ele>
        <time>2020-06-30T14:29:32Z</time>
      </trkpt>
      <trkpt lat="43.07564" lon="0.20393">
        <ele>515.6</ele>
        <time>2020-06-30T14:29:33Z</time>
      </trkpt>
      <trkpt lat="43.07568" lon="0.20386">
        <ele>515.4</ele>
        <time>2020-06-30T14:29:34Z</time>
      </trkpt>
      <trkpt lat="43.07572" lon="0.2038">
        <ele>515</ele>
        <time>2020-06-30T14:29:35Z</time>
      </trkpt>
      <trkpt lat="43.07577" lon="0.20375">
        <ele>514.6</ele>
        <time>2020-06-30T14:29:36Z</time>
      </trkpt>
      <trkpt lat="43.07581" lon="0.20367">
        <ele>514.4</ele>
        <time>2020-06-30T14:29:37Z</time>
      </trkpt>
      <trkpt lat="43.07586" lon="0.20363">
        <ele>514.2</ele>
        <time>2020-06-30T14:29:38Z</time>
      </trkpt>
      <trkpt lat="43.07592" lon="0.20355">
        <ele>514</ele>
        <time>2020-06-30T14:29:39Z</time>
      </trkpt>
      <trkpt lat="43.07595" lon="0.20347">
        <ele>513.6</ele>
        <time>2020-06-30T14:29:40Z</time>
      </trkpt>
      <trkpt lat="43.076" lon="0.20341">
        <ele>513.4</ele>
        <time>2020-06-30T14:29:41Z</time>
      </trkpt>
      <trkpt lat="43.07606" lon="0.20334">
        <ele>513.2</ele>
        <time>2020-06-30T14:29:42Z</time>
      </trkpt>
      <trkpt lat="43.07608" lon="0.20326">
        <ele>513</ele>
        <time>2020-06-30T14:29:43Z</time>
      </trkpt>
      <trkpt lat="43.07612" lon="0.20319">
        <ele>512.8</ele>
        <time>2020-06-30T14:29:44Z</time>
      </trkpt>
      <trkpt lat="43.07615" lon="0.20309">
        <ele>512.8</ele>
        <time>2020-06-30T14:29:45Z</time>
      </trkpt>
      <trkpt lat="43.07619" lon="0.203">
        <ele>512.6</ele>
        <time>2020-06-30T14:29:46Z</time>
      </trkpt>
      <trkpt lat="43.0762" lon="0.20292">
        <ele>512.4</ele>
        <time>2020-06-30T14:29:47Z</time>
      </trkpt>
      <trkpt lat="43.0762" lon="0.20285">
        <ele>512.2</ele>
        <time>2020-06-30T14:29:48Z</time>
      </trkpt>
      <trkpt lat="43.0762" lon="0.20276">
        <ele>512</ele>
        <time>2020-06-30T14:29:49Z</time>
      </trkpt>
      <trkpt lat="43.0762" lon="0.2027">
        <ele>511.8</ele>
        <time>2020-06-30T14:29:50Z</time>
      </trkpt>
      <trkpt lat="43.0762" lon="0.20263">
        <ele>511.6</ele>
        <time>2020-06-30T14:29:51Z</time>
      </trkpt>
      <trkpt lat="43.0762" lon="0.20257">
        <ele>511.4</ele>
        <time>2020-06-30T14:29:52Z</time>
      </trkpt>
      <trkpt lat="43.07619" lon="0.20248">
        <ele>511.2</ele>
        <time>2020-06-30T14:29:53Z</time>
      </trkpt>
      <trkpt lat="43.07618" lon="0.20238">
        <ele>511</ele>
        <time>2020-06-30T14:29:54Z</time>
      </trkpt>
      <trkpt lat="43.07618" lon="0.20229">
        <ele>511</ele>
        <time>2020-06-30T14:29:55Z</time>
      </trkpt>
      <trkpt lat="43.07616" lon="0.20221">
        <ele>510.8</ele>
        <time>2020-06-30T14:29:56Z</time>
      </trkpt>
      <trkpt lat="43.07615" lon="0.20213">
        <ele>510.6</ele>
        <time>2020-06-30T14:29:57Z</time>
      </trkpt>
      <trkpt lat="43.07612" lon="0.20205">
        <ele>510.6</ele>
        <time>2020-06-30T14:29:58Z</time>
      </trkpt>
      <trkpt lat="43.07609" lon="0.20197">
        <ele>510.4</ele>
        <time>2020-06-30T14:29:59Z</time>
      </trkpt>
      <trkpt lat="43.07606" lon="0.20189">
        <ele>510.4</ele>
        <time>2020-06-30T14:30:00Z</time>
      </trkpt>
      <trkpt lat="43.07605" lon="0.2018">
        <ele>510.2</ele>
        <time>2020-06-30T14:30:01Z</time>
      </trkpt>
      <trkpt lat="43.07603" lon="0.20172">
        <ele>510</ele>
        <time>2020-06-30T14:30:02Z</time>
      </trkpt>
      <trkpt lat="43.07602" lon="0.20162">
        <ele>509.8</ele>
        <time>2020-06-30T14:30:03Z</time>
      </trkpt>
      <trkpt lat="43.076" lon="0.20152">
        <ele>509.6</ele>
        <time>2020-06-30T14:30:04Z</time>
      </trkpt>
      <trkpt lat="43.07599" lon="0.20143">
        <ele>509.4</ele>
        <time>2020-06-30T14:30:05Z</time>
      </trkpt>
      <trkpt lat="43.076" lon="0.20135">
        <ele>509.4</ele>
        <time>2020-06-30T14:30:06Z</time>
      </trkpt>
      <trkpt lat="43.07602" lon="0.20128">
        <ele>509.2</ele>
        <time>2020-06-30T14:30:07Z</time>
      </trkpt>
      <trkpt lat="43.07603" lon="0.20122">
        <ele>509</ele>
        <time>2020-06-30T14:30:08Z</time>
      </trkpt>
      <trkpt lat="43.07603" lon="0.20116">
        <ele>508.8</ele>
        <time>2020-06-30T14:30:09Z</time>
      </trkpt>
      <trkpt lat="43.07604" lon="0.20109">
        <ele>508.8</ele>
        <time>2020-06-30T14:30:10Z</time>
      </trkpt>
      <trkpt lat="43.07605" lon="0.20102">
        <ele>508.6</ele>
        <time>2020-06-30T14:30:11Z</time>
      </trkpt>
      <trkpt lat="43.07607" lon="0.20094">
        <ele>508.4</ele>
        <time>2020-06-30T14:30:12Z</time>
      </trkpt>
      <trkpt lat="43.07609" lon="0.20085">
        <ele>508.2</ele>
        <time>2020-06-30T14:30:13Z</time>
      </trkpt>
      <trkpt lat="43.07611" lon="0.20076">
        <ele>508</ele>
        <time>2020-06-30T14:30:14Z</time>
      </trkpt>
      <trkpt lat="43.07614" lon="0.20068">
        <ele>507.6</ele>
        <time>2020-06-30T14:30:15Z</time>
      </trkpt>
      <trkpt lat="43.07616" lon="0.2006">
        <ele>507.4</ele>
        <time>2020-06-30T14:30:16Z</time>
      </trkpt>
      <trkpt lat="43.07618" lon="0.20051">
        <ele>507</ele>
        <time>2020-06-30T14:30:17Z</time>
      </trkpt>
      <trkpt lat="43.07621" lon="0.20043">
        <ele>506.8</ele>
        <time>2020-06-30T14:30:18Z</time>
      </trkpt>
      <trkpt lat="43.07624" lon="0.20035">
        <ele>506.8</ele>
        <time>2020-06-30T14:30:19Z</time>
      </trkpt>
      <trkpt lat="43.07625" lon="0.20026">
        <ele>506.6</ele>
        <time>2020-06-30T14:30:20Z</time>
      </trkpt>
      <trkpt lat="43.07626" lon="0.20017">
        <ele>506.6</ele>
        <time>2020-06-30T14:30:21Z</time>
      </trkpt>
      <trkpt lat="43.07625" lon="0.20009">
        <ele>506.4</ele>
        <time>2020-06-30T14:30:22Z</time>
      </trkpt>
      <trkpt lat="43.07626" lon="0.2">
        <ele>506.2</ele>
        <time>2020-06-30T14:30:23Z</time>
      </trkpt>
      <trkpt lat="43.07626" lon="0.19991">
        <ele>505.8</ele>
        <time>2020-06-30T14:30:24Z</time>
      </trkpt>
      <trkpt lat="43.07624" lon="0.19982">
        <ele>505.6</ele>
        <time>2020-06-30T14:30:25Z</time>
      </trkpt>
      <trkpt lat="43.07623" lon="0.19973">
        <ele>505.4</ele>
        <time>2020-06-30T14:30:26Z</time>
      </trkpt>
      <trkpt lat="43.07622" lon="0.19963">
        <ele>505.2</ele>
        <time>2020-06-30T14:30:27Z</time>
      </trkpt>
      <trkpt lat="43.07619" lon="0.19954">
        <ele>505</ele>
        <time>2020-06-30T14:30:28Z</time>
      </trkpt>
      <trkpt lat="43.07615" lon="0.19947">
        <ele>504.8</ele>
        <time>2020-06-30T14:30:29Z</time>
      </trkpt>
      <trkpt lat="43.07611" lon="0.19942">
        <ele>504.6</ele>
        <time>2020-06-30T14:30:30Z</time>
      </trkpt>
      <trkpt lat="43.07605" lon="0.1994">
        <ele>504.4</ele>
        <time>2020-06-30T14:30:31Z</time>
      </trkpt>
      <trkpt lat="43.07601" lon="0.19939">
        <ele>504.2</ele>
        <time>2020-06-30T14:30:32Z</time>
      </trkpt>
      <trkpt lat="43.07596" lon="0.19939">
        <ele>504</ele>
        <time>2020-06-30T14:30:33Z</time>
      </trkpt>
      <trkpt lat="43.07591" lon="0.19939">
        <ele>504</ele>
        <time>2020-06-30T14:30:34Z</time>
      </trkpt>
      <trkpt lat="43.07585" lon="0.19939">
        <ele>503.8</ele>
        <time>2020-06-30T14:30:35Z</time>
      </trkpt>
      <trkpt lat="43.07579" lon="0.19938">
        <ele>503.6</ele>
        <time>2020-06-30T14:30:36Z</time>
      </trkpt>
      <trkpt lat="43.07573" lon="0.19937">
        <ele>503.6</ele>
        <time>2020-06-30T14:30:37Z</time>
      </trkpt>
      <trkpt lat="43.07567" lon="0.19936">
        <ele>503.6</ele>
        <time>2020-06-30T14:30:38Z</time>
      </trkpt>
      <trkpt lat="43.07562" lon="0.19935">
        <ele>503.6</ele>
        <time>2020-06-30T14:30:39Z</time>
      </trkpt>
      <trkpt lat="43.07557" lon="0.19934">
        <ele>503.6</ele>
        <time>2020-06-30T14:30:40Z</time>
      </trkpt>
      <trkpt lat="43.07553" lon="0.19933">
        <ele>503.4</ele>
        <time>2020-06-30T14:30:41Z</time>
      </trkpt>
      <trkpt lat="43.07549" lon="0.19932">
        <ele>503.2</ele>
        <time>2020-06-30T14:30:42Z</time>
      </trkpt>
      <trkpt lat="43.07544" lon="0.19931">
        <ele>502.8</ele>
        <time>2020-06-30T14:30:43Z</time>
      </trkpt>
      <trkpt lat="43.07538" lon="0.19929">
        <ele>502.8</ele>
        <time>2020-06-30T14:30:44Z</time>
      </trkpt>
      <trkpt lat="43.07534" lon="0.19929">
        <ele>502.4</ele>
        <time>2020-06-30T14:30:45Z</time>
      </trkpt>
      <trkpt lat="43.07528" lon="0.19928">
        <ele>502.2</ele>
        <time>2020-06-30T14:30:46Z</time>
      </trkpt>
      <trkpt lat="43.0752" lon="0.1993">
        <ele>502</ele>
        <time>2020-06-30T14:30:47Z</time>
      </trkpt>
      <trkpt lat="43.07514" lon="0.1993">
        <ele>502</ele>
        <time>2020-06-30T14:30:48Z</time>
      </trkpt>
      <trkpt lat="43.07506" lon="0.19928">
        <ele>501.6</ele>
        <time>2020-06-30T14:30:49Z</time>
      </trkpt>
      <trkpt lat="43.07502" lon="0.19923">
        <ele>501.4</ele>
        <time>2020-06-30T14:30:50Z</time>
      </trkpt>
      <trkpt lat="43.075" lon="0.19915">
        <ele>501.4</ele>
        <time>2020-06-30T14:30:51Z</time>
      </trkpt>
      <trkpt lat="43.07499" lon="0.19907">
        <ele>501.4</ele>
        <time>2020-06-30T14:30:52Z</time>
      </trkpt>
      <trkpt lat="43.07499" lon="0.199">
        <ele>501.2</ele>
        <time>2020-06-30T14:30:53Z</time>
      </trkpt>
      <trkpt lat="43.07502" lon="0.19895">
        <ele>501.2</ele>
        <time>2020-06-30T14:30:54Z</time>
      </trkpt>
      <trkpt lat="43.07501" lon="0.19885">
        <ele>501.2</ele>
        <time>2020-06-30T14:30:55Z</time>
      </trkpt>
      <trkpt lat="43.07503" lon="0.19878">
        <ele>501.2</ele>
        <time>2020-06-30T14:30:56Z</time>
      </trkpt>
      <trkpt lat="43.07504" lon="0.1987">
        <ele>501</ele>
        <time>2020-06-30T14:30:57Z</time>
      </trkpt>
      <trkpt lat="43.07507" lon="0.19864">
        <ele>501.2</ele>
        <time>2020-06-30T14:30:58Z</time>
      </trkpt>
      <trkpt lat="43.07507" lon="0.19853">
        <ele>501</ele>
        <time>2020-06-30T14:30:59Z</time>
      </trkpt>
      <trkpt lat="43.07508" lon="0.19846">
        <ele>501</ele>
        <time>2020-06-30T14:31:00Z</time>
      </trkpt>
      <trkpt lat="43.07509" lon="0.19838">
        <ele>501</ele>
        <time>2020-06-30T14:31:01Z</time>
      </trkpt>
      <trkpt lat="43.0751" lon="0.19829">
        <ele>501</ele>
        <time>2020-06-30T14:31:02Z</time>
      </trkpt>
      <trkpt lat="43.07511" lon="0.19822">
        <ele>500.8</ele>
        <time>2020-06-30T14:31:03Z</time>
      </trkpt>
      <trkpt lat="43.07512" lon="0.19816">
        <ele>500.6</ele>
        <time>2020-06-30T14:31:04Z</time>
      </trkpt>
      <trkpt lat="43.07513" lon="0.1981">
        <ele>500.4</ele>
        <time>2020-06-30T14:31:05Z</time>
      </trkpt>
      <trkpt lat="43.07516" lon="0.19803">
        <ele>500</ele>
        <time>2020-06-30T14:31:06Z</time>
      </trkpt>
      <trkpt lat="43.07518" lon="0.19797">
        <ele>499.6</ele>
        <time>2020-06-30T14:31:07Z</time>
      </trkpt>
      <trkpt lat="43.07521" lon="0.19791">
        <ele>499.4</ele>
        <time>2020-06-30T14:31:08Z</time>
      </trkpt>
      <trkpt lat="43.07522" lon="0.19783">
        <ele>499.2</ele>
        <time>2020-06-30T14:31:09Z</time>
      </trkpt>
      <trkpt lat="43.07524" lon="0.19776">
        <ele>498.8</ele>
        <time>2020-06-30T14:31:10Z</time>
      </trkpt>
      <trkpt lat="43.07528" lon="0.19769">
        <ele>498.4</ele>
        <time>2020-06-30T14:31:11Z</time>
      </trkpt>
      <trkpt lat="43.07531" lon="0.19762">
        <ele>498.2</ele>
        <time>2020-06-30T14:31:12Z</time>
      </trkpt>
      <trkpt lat="43.07533" lon="0.19752">
        <ele>497.8</ele>
        <time>2020-06-30T14:31:13Z</time>
      </trkpt>
      <trkpt lat="43.07536" lon="0.19743">
        <ele>497.4</ele>
        <time>2020-06-30T14:31:14Z</time>
      </trkpt>
      <trkpt lat="43.07539" lon="0.19735">
        <ele>496.8</ele>
        <time>2020-06-30T14:31:15Z</time>
      </trkpt>
      <trkpt lat="43.07542" lon="0.19726">
        <ele>496.4</ele>
        <time>2020-06-30T14:31:16Z</time>
      </trkpt>
      <trkpt lat="43.07547" lon="0.19717">
        <ele>496.4</ele>
        <time>2020-06-30T14:31:17Z</time>
      </trkpt>
      <trkpt lat="43.07549" lon="0.19709">
        <ele>496.4</ele>
        <time>2020-06-30T14:31:18Z</time>
      </trkpt>
      <trkpt lat="43.07552" lon="0.19699">
        <ele>496.8</ele>
        <time>2020-06-30T14:31:19Z</time>
      </trkpt>
      <trkpt lat="43.07555" lon="0.1969">
        <ele>497</ele>
        <time>2020-06-30T14:31:20Z</time>
      </trkpt>
      <trkpt lat="43.07556" lon="0.19682">
        <ele>497.2</ele>
        <time>2020-06-30T14:31:21Z</time>
      </trkpt>
      <trkpt lat="43.07556" lon="0.19675">
        <ele>497.6</ele>
        <time>2020-06-30T14:31:22Z</time>
      </trkpt>
      <trkpt lat="43.07557" lon="0.19667">
        <ele>498</ele>
        <time>2020-06-30T14:31:23Z</time>
      </trkpt>
      <trkpt lat="43.07558" lon="0.19661">
        <ele>498.4</ele>
        <time>2020-06-30T14:31:24Z</time>
      </trkpt>
      <trkpt lat="43.07557" lon="0.19652">
        <ele>498.8</ele>
        <time>2020-06-30T14:31:25Z</time>
      </trkpt>
      <trkpt lat="43.07556" lon="0.19646">
        <ele>499</ele>
        <time>2020-06-30T14:31:26Z</time>
      </trkpt>
      <trkpt lat="43.07557" lon="0.1964">
        <ele>499.4</ele>
        <time>2020-06-30T14:31:27Z</time>
      </trkpt>
      <trkpt lat="43.07556" lon="0.19635">
        <ele>499.6</ele>
        <time>2020-06-30T14:31:28Z</time>
      </trkpt>
      <trkpt lat="43.07555" lon="0.19631">
        <ele>500</ele>
        <time>2020-06-30T14:31:29Z</time>
      </trkpt>
      <trkpt lat="43.07554" lon="0.19625">
        <ele>500.2</ele>
        <time>2020-06-30T14:31:30Z</time>
      </trkpt>
      <trkpt lat="43.07554" lon="0.19621">
        <ele>500.4</ele>
        <time>2020-06-30T14:31:31Z</time>
      </trkpt>
      <trkpt lat="43.07554" lon="0.19618">
        <ele>500.6</ele>
        <time>2020-06-30T14:31:32Z</time>
      </trkpt>
      <trkpt lat="43.07553" lon="0.19615">
        <ele>500.8</ele>
        <time>2020-06-30T14:31:33Z</time>
      </trkpt>
      <trkpt lat="43.07553" lon="0.19612">
        <ele>501</ele>
        <time>2020-06-30T14:31:34Z</time>
      </trkpt>
      <trkpt lat="43.07552" lon="0.19608">
        <ele>501.2</ele>
        <time>2020-06-30T14:31:35Z</time>
      </trkpt>
      <trkpt lat="43.07553" lon="0.19605">
        <ele>501.4</ele>
        <time>2020-06-30T14:31:36Z</time>
      </trkpt>
      <trkpt lat="43.07553" lon="0.19602">
        <ele>501.4</ele>
        <time>2020-06-30T14:31:37Z</time>
      </trkpt>
      <trkpt lat="43.07554" lon="0.19599">
        <ele>501.6</ele>
        <time>2020-06-30T14:31:38Z</time>
      </trkpt>
      <trkpt lat="43.07554" lon="0.19596">
        <ele>501.8</ele>
        <time>2020-06-30T14:31:39Z</time>
      </trkpt>
      <trkpt lat="43.07553" lon="0.19593">
        <ele>502</ele>
        <time>2020-06-30T14:31:40Z</time>
      </trkpt>
      <trkpt lat="43.07553" lon="0.19591">
        <ele>502</ele>
        <time>2020-06-30T14:31:41Z</time>
      </trkpt>
      <trkpt lat="43.07553" lon="0.19587">
        <ele>502.2</ele>
        <time>2020-06-30T14:31:42Z</time>
      </trkpt>
      <trkpt lat="43.07552" lon="0.19585">
        <ele>502.2</ele>
        <time>2020-06-30T14:31:43Z</time>
      </trkpt>
      <trkpt lat="43.07552" lon="0.19582">
        <ele>502.4</ele>
        <time>2020-06-30T14:31:44Z</time>
      </trkpt>
      <trkpt lat="43.07551" lon="0.19579">
        <ele>502.6</ele>
        <time>2020-06-30T14:31:45Z</time>
      </trkpt>
      <trkpt lat="43.07552" lon="0.19577">
        <ele>502.6</ele>
        <time>2020-06-30T14:31:46Z</time>
      </trkpt>
      <trkpt lat="43.07552" lon="0.19575">
        <ele>502.8</ele>
        <time>2020-06-30T14:31:47Z</time>
      </trkpt>
      <trkpt lat="43.07551" lon="0.19572">
        <ele>503</ele>
        <time>2020-06-30T14:31:48Z</time>
      </trkpt>
      <trkpt lat="43.0755" lon="0.1957">
        <ele>503.2</ele>
        <time>2020-06-30T14:31:49Z</time>
      </trkpt>
      <trkpt lat="43.0755" lon="0.19568">
        <ele>503.2</ele>
        <time>2020-06-30T14:31:50Z</time>
      </trkpt>
      <trkpt lat="43.07548" lon="0.19566">
        <ele>503.4</ele>
        <time>2020-06-30T14:31:51Z</time>
      </trkpt>
      <trkpt lat="43.07547" lon="0.19563">
        <ele>503.6</ele>
        <time>2020-06-30T14:31:52Z</time>
      </trkpt>
      <trkpt lat="43.07547" lon="0.1956">
        <ele>503.6</ele>
        <time>2020-06-30T14:31:53Z</time>
      </trkpt>
      <trkpt lat="43.07547" lon="0.19557">
        <ele>503.8</ele>
        <time>2020-06-30T14:31:54Z</time>
      </trkpt>
      <trkpt lat="43.07548" lon="0.19554">
        <ele>504</ele>
        <time>2020-06-30T14:31:55Z</time>
      </trkpt>
      <trkpt lat="43.07549" lon="0.19552">
        <ele>504</ele>
        <time>2020-06-30T14:31:56Z</time>
      </trkpt>
      <trkpt lat="43.07548" lon="0.19549">
        <ele>504.2</ele>
        <time>2020-06-30T14:31:57Z</time>
      </trkpt>
      <trkpt lat="43.07548" lon="0.19547">
        <ele>504.4</ele>
        <time>2020-06-30T14:31:58Z</time>
      </trkpt>
      <trkpt lat="43.07549" lon="0.19545">
        <ele>504.4</ele>
        <time>2020-06-30T14:31:59Z</time>
      </trkpt>
      <trkpt lat="43.07549" lon="0.19543">
        <ele>504.6</ele>
        <time>2020-06-30T14:32:00Z</time>
      </trkpt>
      <trkpt lat="43.07548" lon="0.19539">
        <ele>504.6</ele>
        <time>2020-06-30T14:32:01Z</time>
      </trkpt>
      <trkpt lat="43.0755" lon="0.19538">
        <ele>504.8</ele>
        <time>2020-06-30T14:32:02Z</time>
      </trkpt>
      <trkpt lat="43.0755" lon="0.19535">
        <ele>505</ele>
        <time>2020-06-30T14:32:03Z</time>
      </trkpt>
      <trkpt lat="43.0755" lon="0.19532">
        <ele>505</ele>
        <time>2020-06-30T14:32:04Z</time>
      </trkpt>
      <trkpt lat="43.07551" lon="0.1953">
        <ele>505.2</ele>
        <time>2020-06-30T14:32:05Z</time>
      </trkpt>
      <trkpt lat="43.07551" lon="0.19526">
        <ele>505.2</ele>
        <time>2020-06-30T14:32:06Z</time>
      </trkpt>
      <trkpt lat="43.07552" lon="0.19523">
        <ele>505.4</ele>
        <time>2020-06-30T14:32:07Z</time>
      </trkpt>
      <trkpt lat="43.07552" lon="0.19521">
        <ele>505.6</ele>
        <time>2020-06-30T14:32:08Z</time>
      </trkpt>
      <trkpt lat="43.07552" lon="0.19518">
        <ele>505.6</ele>
        <time>2020-06-30T14:32:09Z</time>
      </trkpt>
      <trkpt lat="43.07552" lon="0.19514">
        <ele>505.8</ele>
        <time>2020-06-30T14:32:10Z</time>
      </trkpt>
      <trkpt lat="43.07552" lon="0.19513">
        <ele>506</ele>
        <time>2020-06-30T14:32:11Z</time>
      </trkpt>
      <trkpt lat="43.07553" lon="0.19511">
        <ele>506</ele>
        <time>2020-06-30T14:32:12Z</time>
      </trkpt>
      <trkpt lat="43.07553" lon="0.19509">
        <ele>506.2</ele>
        <time>2020-06-30T14:32:13Z</time>
      </trkpt>
      <trkpt lat="43.07553" lon="0.19508">
        <ele>506.2</ele>
        <time>2020-06-30T14:32:14Z</time>
      </trkpt>
      <trkpt lat="43.07553" lon="0.19506">
        <ele>506.4</ele>
        <time>2020-06-30T14:32:15Z</time>
      </trkpt>
      <trkpt lat="43.07554" lon="0.19504">
        <ele>506.6</ele>
        <time>2020-06-30T14:32:16Z</time>
      </trkpt>
      <trkpt lat="43.07555" lon="0.19502">
        <ele>506.6</ele>
        <time>2020-06-30T14:32:17Z</time>
      </trkpt>
      <trkpt lat="43.07556" lon="0.19501">
        <ele>506.8</ele>
        <time>2020-06-30T14:32:18Z</time>
      </trkpt>
      <trkpt lat="43.07556" lon="0.19497">
        <ele>506.8</ele>
        <time>2020-06-30T14:32:19Z</time>
      </trkpt>
      <trkpt lat="43.07556" lon="0.19495">
        <ele>507</ele>
        <time>2020-06-30T14:32:20Z</time>
      </trkpt>
      <trkpt lat="43.07557" lon="0.19493">
        <ele>507.2</ele>
        <time>2020-06-30T14:32:21Z</time>
      </trkpt>
      <trkpt lat="43.07558" lon="0.19491">
        <ele>507.2</ele>
        <time>2020-06-30T14:32:22Z</time>
      </trkpt>
      <trkpt lat="43.07559" lon="0.19489">
        <ele>507.4</ele>
        <time>2020-06-30T14:32:23Z</time>
      </trkpt>
      <trkpt lat="43.0756" lon="0.19488">
        <ele>507.4</ele>
        <time>2020-06-30T14:32:24Z</time>
      </trkpt>
      <trkpt lat="43.07561" lon="0.19487">
        <ele>507.6</ele>
        <time>2020-06-30T14:32:25Z</time>
      </trkpt>
      <trkpt lat="43.07562" lon="0.19486">
        <ele>507.8</ele>
        <time>2020-06-30T14:32:26Z</time>
      </trkpt>
      <trkpt lat="43.07564" lon="0.19485">
        <ele>507.8</ele>
        <time>2020-06-30T14:32:27Z</time>
      </trkpt>
      <trkpt lat="43.07564" lon="0.19485">
        <ele>508</ele>
        <time>2020-06-30T14:32:28Z</time>
      </trkpt>
      <trkpt lat="43.07566" lon="0.19482">
        <ele>508.2</ele>
        <time>2020-06-30T14:32:29Z</time>
      </trkpt>
      <trkpt lat="43.07567" lon="0.19481">
        <ele>508.4</ele>
        <time>2020-06-30T14:32:30Z</time>
      </trkpt>
      <trkpt lat="43.07571" lon="0.1948">
        <ele>508.4</ele>
        <time>2020-06-30T14:32:31Z</time>
      </trkpt>
      <trkpt lat="43.07572" lon="0.19478">
        <ele>508.6</ele>
        <time>2020-06-30T14:32:32Z</time>
      </trkpt>
      <trkpt lat="43.07573" lon="0.19477">
        <ele>508.8</ele>
        <time>2020-06-30T14:32:33Z</time>
      </trkpt>
      <trkpt lat="43.07573" lon="0.19473">
        <ele>508.8</ele>
        <time>2020-06-30T14:32:34Z</time>
      </trkpt>
      <trkpt lat="43.07575" lon="0.19471">
        <ele>509.2</ele>
        <time>2020-06-30T14:32:35Z</time>
      </trkpt>
      <trkpt lat="43.07575" lon="0.1947">
        <ele>509.2</ele>
        <time>2020-06-30T14:32:36Z</time>
      </trkpt>
      <trkpt lat="43.07575" lon="0.19468">
        <ele>509.4</ele>
        <time>2020-06-30T14:32:37Z</time>
      </trkpt>
      <trkpt lat="43.07577" lon="0.19465">
        <ele>509.4</ele>
        <time>2020-06-30T14:32:38Z</time>
      </trkpt>
      <trkpt lat="43.07578" lon="0.19463">
        <ele>509.6</ele>
        <time>2020-06-30T14:32:39Z</time>
      </trkpt>
      <trkpt lat="43.07581" lon="0.19462">
        <ele>509.8</ele>
        <time>2020-06-30T14:32:40Z</time>
      </trkpt>
      <trkpt lat="43.07582" lon="0.19462">
        <ele>509.8</ele>
        <time>2020-06-30T14:32:41Z</time>
      </trkpt>
      <trkpt lat="43.07584" lon="0.19461">
        <ele>510</ele>
        <time>2020-06-30T14:32:42Z</time>
      </trkpt>
      <trkpt lat="43.07585" lon="0.1946">
        <ele>510.2</ele>
        <time>2020-06-30T14:32:43Z</time>
      </trkpt>
      <trkpt lat="43.07586" lon="0.19459">
        <ele>510</ele>
        <time>2020-06-30T14:32:44Z</time>
      </trkpt>
      <trkpt lat="43.07587" lon="0.19458">
        <ele>510</ele>
        <time>2020-06-30T14:32:45Z</time>
      </trkpt>
      <trkpt lat="43.07588" lon="0.19457">
        <ele>510</ele>
        <time>2020-06-30T14:32:46Z</time>
      </trkpt>
      <trkpt lat="43.07589" lon="0.19457">
        <ele>510</ele>
        <time>2020-06-30T14:32:47Z</time>
      </trkpt>
      <trkpt lat="43.0759" lon="0.19456">
        <ele>509.4</ele>
        <time>2020-06-30T14:32:48Z</time>
      </trkpt>
      <trkpt lat="43.0759" lon="0.19455">
        <ele>509.4</ele>
        <time>2020-06-30T14:32:49Z</time>
      </trkpt>
      <trkpt lat="43.07593" lon="0.19452">
        <ele>509.4</ele>
        <time>2020-06-30T14:32:50Z</time>
      </trkpt>
      <trkpt lat="43.07596" lon="0.19449">
        <ele>509.4</ele>
        <time>2020-06-30T14:32:51Z</time>
      </trkpt>
      <trkpt lat="43.07596" lon="0.19448">
        <ele>509.4</ele>
        <time>2020-06-30T14:32:52Z</time>
      </trkpt>
      <trkpt lat="43.07598" lon="0.19447">
        <ele>509.4</ele>
        <time>2020-06-30T14:32:53Z</time>
      </trkpt>
      <trkpt lat="43.07597" lon="0.19444">
        <ele>509.4</ele>
        <time>2020-06-30T14:32:54Z</time>
      </trkpt>
      <trkpt lat="43.07601" lon="0.19442">
        <ele>509.4</ele>
        <time>2020-06-30T14:32:55Z</time>
      </trkpt>
      <trkpt lat="43.07602" lon="0.1944">
        <ele>509.4</ele>
        <time>2020-06-30T14:32:56Z</time>
      </trkpt>
      <trkpt lat="43.07603" lon="0.19437">
        <ele>511.8</ele>
        <time>2020-06-30T14:32:57Z</time>
      </trkpt>
      <trkpt lat="43.07604" lon="0.19435">
        <ele>512</ele>
        <time>2020-06-30T14:32:58Z</time>
      </trkpt>
      <trkpt lat="43.07607" lon="0.19433">
        <ele>512</ele>
        <time>2020-06-30T14:32:59Z</time>
      </trkpt>
      <trkpt lat="43.07607" lon="0.19431">
        <ele>512.2</ele>
        <time>2020-06-30T14:33:00Z</time>
      </trkpt>
      <trkpt lat="43.07608" lon="0.1943">
        <ele>512.2</ele>
        <time>2020-06-30T14:33:01Z</time>
      </trkpt>
      <trkpt lat="43.0761" lon="0.19428">
        <ele>512.4</ele>
        <time>2020-06-30T14:33:02Z</time>
      </trkpt>
      <trkpt lat="43.07612" lon="0.19429">
        <ele>512.4</ele>
        <time>2020-06-30T14:33:03Z</time>
      </trkpt>
      <trkpt lat="43.07612" lon="0.19428">
        <ele>512.6</ele>
        <time>2020-06-30T14:33:04Z</time>
      </trkpt>
      <trkpt lat="43.07614" lon="0.19428">
        <ele>512.6</ele>
        <time>2020-06-30T14:33:05Z</time>
      </trkpt>
      <trkpt lat="43.07615" lon="0.19427">
        <ele>512.8</ele>
        <time>2020-06-30T14:33:06Z</time>
      </trkpt>
      <trkpt lat="43.07616" lon="0.19426">
        <ele>512.8</ele>
        <time>2020-06-30T14:33:07Z</time>
      </trkpt>
      <trkpt lat="43.07616" lon="0.19424">
        <ele>513</ele>
        <time>2020-06-30T14:33:08Z</time>
      </trkpt>
      <trkpt lat="43.07618" lon="0.19422">
        <ele>513</ele>
        <time>2020-06-30T14:33:09Z</time>
      </trkpt>
      <trkpt lat="43.07619" lon="0.19421">
        <ele>513.2</ele>
        <time>2020-06-30T14:33:10Z</time>
      </trkpt>
      <trkpt lat="43.0762" lon="0.19419">
        <ele>513.2</ele>
        <time>2020-06-30T14:33:11Z</time>
      </trkpt>
      <trkpt lat="43.0762" lon="0.19418">
        <ele>513.4</ele>
        <time>2020-06-30T14:33:12Z</time>
      </trkpt>
      <trkpt lat="43.0762" lon="0.19416">
        <ele>513.4</ele>
        <time>2020-06-30T14:33:13Z</time>
      </trkpt>
      <trkpt lat="43.0762" lon="0.19415">
        <ele>513.6</ele>
        <time>2020-06-30T14:33:14Z</time>
      </trkpt>
      <trkpt lat="43.0762" lon="0.19414">
        <ele>513.8</ele>
        <time>2020-06-30T14:33:15Z</time>
      </trkpt>
      <trkpt lat="43.07619" lon="0.1941">
        <ele>513.8</ele>
        <time>2020-06-30T14:33:16Z</time>
      </trkpt>
      <trkpt lat="43.0762" lon="0.19411">
        <ele>514</ele>
        <time>2020-06-30T14:33:17Z</time>
      </trkpt>
      <trkpt lat="43.07621" lon="0.1941">
        <ele>514</ele>
        <time>2020-06-30T14:33:18Z</time>
      </trkpt>
      <trkpt lat="43.07622" lon="0.19408">
        <ele>514.2</ele>
        <time>2020-06-30T14:33:19Z</time>
      </trkpt>
      <trkpt lat="43.07624" lon="0.19408">
        <ele>514.2</ele>
        <time>2020-06-30T14:33:20Z</time>
      </trkpt>
      <trkpt lat="43.07624" lon="0.19407">
        <ele>514.4</ele>
        <time>2020-06-30T14:33:21Z</time>
      </trkpt>
      <trkpt lat="43.07626" lon="0.19405">
        <ele>514.4</ele>
        <time>2020-06-30T14:33:22Z</time>
      </trkpt>
      <trkpt lat="43.07628" lon="0.19403">
        <ele>514.6</ele>
        <time>2020-06-30T14:33:23Z</time>
      </trkpt>
      <trkpt lat="43.07628" lon="0.19403">
        <ele>514.6</ele>
        <time>2020-06-30T14:33:24Z</time>
      </trkpt>
      <trkpt lat="43.07628" lon="0.19402">
        <ele>514.8</ele>
        <time>2020-06-30T14:33:25Z</time>
      </trkpt>
      <trkpt lat="43.07629" lon="0.194">
        <ele>515</ele>
        <time>2020-06-30T14:33:26Z</time>
      </trkpt>
      <trkpt lat="43.07629" lon="0.19399">
        <ele>515</ele>
        <time>2020-06-30T14:33:27Z</time>
      </trkpt>
      <trkpt lat="43.07631" lon="0.19397">
        <ele>515</ele>
        <time>2020-06-30T14:33:28Z</time>
      </trkpt>
      <trkpt lat="43.07632" lon="0.19397">
        <ele>515.2</ele>
        <time>2020-06-30T14:33:29Z</time>
      </trkpt>
      <trkpt lat="43.07633" lon="0.19395">
        <ele>515.4</ele>
        <time>2020-06-30T14:33:30Z</time>
      </trkpt>
      <trkpt lat="43.07631" lon="0.19393">
        <ele>515.4</ele>
        <time>2020-06-30T14:33:31Z</time>
      </trkpt>
      <trkpt lat="43.07631" lon="0.19392">
        <ele>515.6</ele>
        <time>2020-06-30T14:33:32Z</time>
      </trkpt>
      <trkpt lat="43.07632" lon="0.19392">
        <ele>515.8</ele>
        <time>2020-06-30T14:33:33Z</time>
      </trkpt>
      <trkpt lat="43.07634" lon="0.1939">
        <ele>515.8</ele>
        <time>2020-06-30T14:33:34Z</time>
      </trkpt>
      <trkpt lat="43.07635" lon="0.19388">
        <ele>516</ele>
        <time>2020-06-30T14:33:35Z</time>
      </trkpt>
      <trkpt lat="43.07636" lon="0.19388">
        <ele>516.2</ele>
        <time>2020-06-30T14:33:36Z</time>
      </trkpt>
      <trkpt lat="43.07637" lon="0.19386">
        <ele>516.2</ele>
        <time>2020-06-30T14:33:37Z</time>
      </trkpt>
      <trkpt lat="43.07636" lon="0.19384">
        <ele>516.4</ele>
        <time>2020-06-30T14:33:38Z</time>
      </trkpt>
      <trkpt lat="43.07638" lon="0.19381">
        <ele>516.4</ele>
        <time>2020-06-30T14:33:39Z</time>
      </trkpt>
      <trkpt lat="43.07639" lon="0.19382">
        <ele>516.6</ele>
        <time>2020-06-30T14:33:40Z</time>
      </trkpt>
      <trkpt lat="43.07639" lon="0.1938">
        <ele>516.6</ele>
        <time>2020-06-30T14:33:41Z</time>
      </trkpt>
      <trkpt lat="43.0764" lon="0.19379">
        <ele>516.6</ele>
        <time>2020-06-30T14:33:42Z</time>
      </trkpt>
      <trkpt lat="43.07641" lon="0.19379">
        <ele>516.8</ele>
        <time>2020-06-30T14:33:43Z</time>
      </trkpt>
      <trkpt lat="43.0764" lon="0.19378">
        <ele>517</ele>
        <time>2020-06-30T14:33:44Z</time>
      </trkpt>
      <trkpt lat="43.07641" lon="0.19378">
        <ele>517</ele>
        <time>2020-06-30T14:33:45Z</time>
      </trkpt>
      <trkpt lat="43.07641" lon="0.19377">
        <ele>517.2</ele>
        <time>2020-06-30T14:33:46Z</time>
      </trkpt>
      <trkpt lat="43.07642" lon="0.19375">
        <ele>517.2</ele>
        <time>2020-06-30T14:33:47Z</time>
      </trkpt>
      <trkpt lat="43.07644" lon="0.19373">
        <ele>517.4</ele>
        <time>2020-06-30T14:33:48Z</time>
      </trkpt>
      <trkpt lat="43.07645" lon="0.19372">
        <ele>517.4</ele>
        <time>2020-06-30T14:33:49Z</time>
      </trkpt>
      <trkpt lat="43.07645" lon="0.19369">
        <ele>517.4</ele>
        <time>2020-06-30T14:33:50Z</time>
      </trkpt>
      <trkpt lat="43.07648" lon="0.19366">
        <ele>517.6</ele>
        <time>2020-06-30T14:33:51Z</time>
      </trkpt>
      <trkpt lat="43.07648" lon="0.19364">
        <ele>517.6</ele>
        <time>2020-06-30T14:33:52Z</time>
      </trkpt>
      <trkpt lat="43.07649" lon="0.19363">
        <ele>517.8</ele>
        <time>2020-06-30T14:33:53Z</time>
      </trkpt>
      <trkpt lat="43.07651" lon="0.19361">
        <ele>517.8</ele>
        <time>2020-06-30T14:33:54Z</time>
      </trkpt>
      <trkpt lat="43.07651" lon="0.19358">
        <ele>518</ele>
        <time>2020-06-30T14:33:55Z</time>
      </trkpt>
      <trkpt lat="43.07652" lon="0.19358">
        <ele>518.2</ele>
        <time>2020-06-30T14:33:56Z</time>
      </trkpt>
      <trkpt lat="43.07652" lon="0.19356">
        <ele>518.2</ele>
        <time>2020-06-30T14:33:57Z</time>
      </trkpt>
      <trkpt lat="43.07652" lon="0.19354">
        <ele>518.4</ele>
        <time>2020-06-30T14:33:58Z</time>
      </trkpt>
      <trkpt lat="43.07653" lon="0.19353">
        <ele>518.4</ele>
        <time>2020-06-30T14:33:59Z</time>
      </trkpt>
      <trkpt lat="43.07653" lon="0.19352">
        <ele>518.6</ele>
        <time>2020-06-30T14:34:00Z</time>
      </trkpt>
      <trkpt lat="43.07655" lon="0.19351">
        <ele>518.6</ele>
        <time>2020-06-30T14:34:01Z</time>
      </trkpt>
      <trkpt lat="43.07655" lon="0.1935">
        <ele>518.8</ele>
        <time>2020-06-30T14:34:02Z</time>
      </trkpt>
      <trkpt lat="43.07656" lon="0.19347">
        <ele>518.8</ele>
        <time>2020-06-30T14:34:03Z</time>
      </trkpt>
      <trkpt lat="43.07657" lon="0.19346">
        <ele>519</ele>
        <time>2020-06-30T14:34:04Z</time>
      </trkpt>
      <trkpt lat="43.07658" lon="0.19343">
        <ele>519</ele>
        <time>2020-06-30T14:34:05Z</time>
      </trkpt>
      <trkpt lat="43.07659" lon="0.19342">
        <ele>519.2</ele>
        <time>2020-06-30T14:34:06Z</time>
      </trkpt>
      <trkpt lat="43.0766" lon="0.19341">
        <ele>519.2</ele>
        <time>2020-06-30T14:34:07Z</time>
      </trkpt>
      <trkpt lat="43.07662" lon="0.19339">
        <ele>519.4</ele>
        <time>2020-06-30T14:34:08Z</time>
      </trkpt>
      <trkpt lat="43.07663" lon="0.19336">
        <ele>519.4</ele>
        <time>2020-06-30T14:34:09Z</time>
      </trkpt>
      <trkpt lat="43.07665" lon="0.19334">
        <ele>519.4</ele>
        <time>2020-06-30T14:34:10Z</time>
      </trkpt>
      <trkpt lat="43.07667" lon="0.19332">
        <ele>519.6</ele>
        <time>2020-06-30T14:34:11Z</time>
      </trkpt>
      <trkpt lat="43.07669" lon="0.19331">
        <ele>519.6</ele>
        <time>2020-06-30T14:34:12Z</time>
      </trkpt>
      <trkpt lat="43.0767" lon="0.19329">
        <ele>519.8</ele>
        <time>2020-06-30T14:34:13Z</time>
      </trkpt>
      <trkpt lat="43.07671" lon="0.19327">
        <ele>519.8</ele>
        <time>2020-06-30T14:34:14Z</time>
      </trkpt>
      <trkpt lat="43.07672" lon="0.19326">
        <ele>520</ele>
        <time>2020-06-30T14:34:15Z</time>
      </trkpt>
      <trkpt lat="43.07674" lon="0.19325">
        <ele>520.2</ele>
        <time>2020-06-30T14:34:16Z</time>
      </trkpt>
      <trkpt lat="43.07674" lon="0.19324">
        <ele>520.2</ele>
        <time>2020-06-30T14:34:17Z</time>
      </trkpt>
      <trkpt lat="43.07675" lon="0.19323">
        <ele>520.4</ele>
        <time>2020-06-30T14:34:18Z</time>
      </trkpt>
      <trkpt lat="43.07677" lon="0.19321">
        <ele>520.4</ele>
        <time>2020-06-30T14:34:19Z</time>
      </trkpt>
      <trkpt lat="43.07678" lon="0.19321">
        <ele>520.6</ele>
        <time>2020-06-30T14:34:20Z</time>
      </trkpt>
      <trkpt lat="43.0768" lon="0.19319">
        <ele>520.6</ele>
        <time>2020-06-30T14:34:21Z</time>
      </trkpt>
      <trkpt lat="43.07681" lon="0.19317">
        <ele>520.8</ele>
        <time>2020-06-30T14:34:22Z</time>
      </trkpt>
      <trkpt lat="43.07683" lon="0.19316">
        <ele>520.8</ele>
        <time>2020-06-30T14:34:23Z</time>
      </trkpt>
      <trkpt lat="43.07684" lon="0.19315">
        <ele>521</ele>
        <time>2020-06-30T14:34:24Z</time>
      </trkpt>
      <trkpt lat="43.07684" lon="0.19313">
        <ele>521</ele>
        <time>2020-06-30T14:34:25Z</time>
      </trkpt>
      <trkpt lat="43.07686" lon="0.19311">
        <ele>521.2</ele>
        <time>2020-06-30T14:34:26Z</time>
      </trkpt>
      <trkpt lat="43.07688" lon="0.1931">
        <ele>521.4</ele>
        <time>2020-06-30T14:34:27Z</time>
      </trkpt>
      <trkpt lat="43.0769" lon="0.19308">
        <ele>521.4</ele>
        <time>2020-06-30T14:34:28Z</time>
      </trkpt>
      <trkpt lat="43.07692" lon="0.19307">
        <ele>521.6</ele>
        <time>2020-06-30T14:34:29Z</time>
      </trkpt>
      <trkpt lat="43.07694" lon="0.19308">
        <ele>521.6</ele>
        <time>2020-06-30T14:34:30Z</time>
      </trkpt>
      <trkpt lat="43.07695" lon="0.19309">
        <ele>521.8</ele>
        <time>2020-06-30T14:34:31Z</time>
      </trkpt>
      <trkpt lat="43.07697" lon="0.19308">
        <ele>522</ele>
        <time>2020-06-30T14:34:32Z</time>
      </trkpt>
      <trkpt lat="43.07698" lon="0.19306">
        <ele>522</ele>
        <time>2020-06-30T14:34:33Z</time>
      </trkpt>
      <trkpt lat="43.07699" lon="0.19307">
        <ele>522.2</ele>
        <time>2020-06-30T14:34:34Z</time>
      </trkpt>
      <trkpt lat="43.077" lon="0.19305">
        <ele>522.2</ele>
        <time>2020-06-30T14:34:35Z</time>
      </trkpt>
      <trkpt lat="43.07702" lon="0.19305">
        <ele>522.2</ele>
        <time>2020-06-30T14:34:36Z</time>
      </trkpt>
      <trkpt lat="43.07704" lon="0.19304">
        <ele>522.4</ele>
        <time>2020-06-30T14:34:37Z</time>
      </trkpt>
      <trkpt lat="43.07706" lon="0.19304">
        <ele>522.4</ele>
        <time>2020-06-30T14:34:38Z</time>
      </trkpt>
      <trkpt lat="43.07708" lon="0.19304">
        <ele>522.6</ele>
        <time>2020-06-30T14:34:39Z</time>
      </trkpt>
      <trkpt lat="43.07709" lon="0.19304">
        <ele>522.6</ele>
        <time>2020-06-30T14:34:40Z</time>
      </trkpt>
      <trkpt lat="43.0771" lon="0.19304">
        <ele>522.6</ele>
        <time>2020-06-30T14:34:41Z</time>
      </trkpt>
      <trkpt lat="43.0771" lon="0.19304">
        <ele>522.6</ele>
        <time>2020-06-30T14:34:42Z</time>
      </trkpt>
      <trkpt lat="43.07711" lon="0.19304">
        <ele>522.6</ele>
        <time>2020-06-30T14:34:43Z</time>
      </trkpt>
      <trkpt lat="43.0771" lon="0.19304">
        <ele>522.6</ele>
        <time>2020-06-30T14:34:44Z</time>
      </trkpt>
      <trkpt lat="43.07711" lon="0.19304">
        <ele>522.6</ele>
        <time>2020-06-30T14:34:45Z</time>
      </trkpt>
      <trkpt lat="43.07712" lon="0.19305">
        <ele>522.6</ele>
        <time>2020-06-30T14:34:46Z</time>
      </trkpt>
      <trkpt lat="43.07712" lon="0.19304">
        <ele>522.6</ele>
        <time>2020-06-30T14:34:47Z</time>
      </trkpt>
      <trkpt lat="43.07711" lon="0.19304">
        <ele>522.6</ele>
        <time>2020-06-30T14:34:48Z</time>
      </trkpt>
      <trkpt lat="43.07711" lon="0.19304">
        <ele>522.6</ele>
        <time>2020-06-30T14:34:49Z</time>
      </trkpt>
      <trkpt lat="43.07711" lon="0.19304">
        <ele>522.6</ele>
        <time>2020-06-30T14:34:50Z</time>
      </trkpt>
      <trkpt lat="43.07711" lon="0.19304">
        <ele>522.6</ele>
        <time>2020-06-30T14:34:51Z</time>
      </trkpt>
      <trkpt lat="43.07711" lon="0.19304">
        <ele>522.6</ele>
        <time>2020-06-30T14:34:52Z</time>
      </trkpt>
      <trkpt lat="43.07711" lon="0.19304">
        <ele>522.6</ele>
        <time>2020-06-30T14:34:53Z</time>
      </trkpt>
      <trkpt lat="43.07711" lon="0.19304">
        <ele>522.6</ele>
        <time>2020-06-30T14:34:54Z</time>
      </trkpt>
      <trkpt lat="43.07711" lon="0.19303">
        <ele>522.6</ele>
        <time>2020-06-30T14:34:55Z</time>
      </trkpt>
      <trkpt lat="43.07711" lon="0.19302">
        <ele>522.6</ele>
        <time>2020-06-30T14:34:56Z</time>
      </trkpt>
      <trkpt lat="43.0771" lon="0.19302">
        <ele>522.6</ele>
        <time>2020-06-30T14:34:57Z</time>
      </trkpt>
      <trkpt lat="43.07711" lon="0.19302">
        <ele>522.6</ele>
        <time>2020-06-30T14:34:58Z</time>
      </trkpt>
      <trkpt lat="43.07711" lon="0.19301">
        <ele>522.6</ele>
        <time>2020-06-30T14:34:59Z</time>
      </trkpt>
      <trkpt lat="43.07712" lon="0.19301">
        <ele>522.6</ele>
        <time>2020-06-30T14:35:00Z</time>
      </trkpt>
      <trkpt lat="43.07712" lon="0.193">
        <ele>522.6</ele>
        <time>2020-06-30T14:35:01Z</time>
      </trkpt>
      <trkpt lat="43.07712" lon="0.193">
        <ele>522.6</ele>
        <time>2020-06-30T14:35:02Z</time>
      </trkpt>
      <trkpt lat="43.07712" lon="0.193">
        <ele>522.6</ele>
        <time>2020-06-30T14:35:03Z</time>
      </trkpt>
      <trkpt lat="43.07713" lon="0.193">
        <ele>522.6</ele>
        <time>2020-06-30T14:35:04Z</time>
      </trkpt>
      <trkpt lat="43.07714" lon="0.193">
        <ele>522.8</ele>
        <time>2020-06-30T14:35:05Z</time>
      </trkpt>
      <trkpt lat="43.07715" lon="0.19301">
        <ele>522.8</ele>
        <time>2020-06-30T14:35:06Z</time>
      </trkpt>
      <trkpt lat="43.07715" lon="0.193">
        <ele>522.8</ele>
        <time>2020-06-30T14:35:07Z</time>
      </trkpt>
      <trkpt lat="43.07716" lon="0.193">
        <ele>522.8</ele>
        <time>2020-06-30T14:35:08Z</time>
      </trkpt>
      <trkpt lat="43.07718" lon="0.193">
        <ele>523</ele>
        <time>2020-06-30T14:35:09Z</time>
      </trkpt>
      <trkpt lat="43.07719" lon="0.19299">
        <ele>523</ele>
        <time>2020-06-30T14:35:10Z</time>
      </trkpt>
      <trkpt lat="43.07721" lon="0.19299">
        <ele>523.2</ele>
        <time>2020-06-30T14:35:11Z</time>
      </trkpt>
      <trkpt lat="43.07722" lon="0.19298">
        <ele>523.4</ele>
        <time>2020-06-30T14:35:12Z</time>
      </trkpt>
      <trkpt lat="43.07723" lon="0.19297">
        <ele>523.6</ele>
        <time>2020-06-30T14:35:13Z</time>
      </trkpt>
      <trkpt lat="43.07724" lon="0.19296">
        <ele>523.6</ele>
        <time>2020-06-30T14:35:14Z</time>
      </trkpt>
      <trkpt lat="43.07725" lon="0.19296">
        <ele>523.8</ele>
        <time>2020-06-30T14:35:15Z</time>
      </trkpt>
      <trkpt lat="43.07728" lon="0.19296">
        <ele>524</ele>
        <time>2020-06-30T14:35:16Z</time>
      </trkpt>
      <trkpt lat="43.07729" lon="0.19294">
        <ele>524.2</ele>
        <time>2020-06-30T14:35:17Z</time>
      </trkpt>
      <trkpt lat="43.07732" lon="0.19293">
        <ele>524.6</ele>
        <time>2020-06-30T14:35:18Z</time>
      </trkpt>
      <trkpt lat="43.07734" lon="0.19292">
        <ele>524.6</ele>
        <time>2020-06-30T14:35:19Z</time>
      </trkpt>
      <trkpt lat="43.07735" lon="0.1929">
        <ele>524.8</ele>
        <time>2020-06-30T14:35:20Z</time>
      </trkpt>
      <trkpt lat="43.07736" lon="0.19287">
        <ele>525</ele>
        <time>2020-06-30T14:35:21Z</time>
      </trkpt>
      <trkpt lat="43.07738" lon="0.19286">
        <ele>525.2</ele>
        <time>2020-06-30T14:35:22Z</time>
      </trkpt>
      <trkpt lat="43.07738" lon="0.19285">
        <ele>525.2</ele>
        <time>2020-06-30T14:35:23Z</time>
      </trkpt>
      <trkpt lat="43.07739" lon="0.19283">
        <ele>525.4</ele>
        <time>2020-06-30T14:35:24Z</time>
      </trkpt>
      <trkpt lat="43.0774" lon="0.19281">
        <ele>525.4</ele>
        <time>2020-06-30T14:35:25Z</time>
      </trkpt>
      <trkpt lat="43.07741" lon="0.19279">
        <ele>525.6</ele>
        <time>2020-06-30T14:35:26Z</time>
      </trkpt>
      <trkpt lat="43.07743" lon="0.19278">
        <ele>525.6</ele>
        <time>2020-06-30T14:35:27Z</time>
      </trkpt>
      <trkpt lat="43.07744" lon="0.19276">
        <ele>525.8</ele>
        <time>2020-06-30T14:35:28Z</time>
      </trkpt>
      <trkpt lat="43.07746" lon="0.19275">
        <ele>526</ele>
        <time>2020-06-30T14:35:29Z</time>
      </trkpt>
      <trkpt lat="43.07747" lon="0.19274">
        <ele>526</ele>
        <time>2020-06-30T14:35:30Z</time>
      </trkpt>
      <trkpt lat="43.07749" lon="0.19273">
        <ele>526.2</ele>
        <time>2020-06-30T14:35:31Z</time>
      </trkpt>
      <trkpt lat="43.0775" lon="0.19271">
        <ele>526.4</ele>
        <time>2020-06-30T14:35:32Z</time>
      </trkpt>
      <trkpt lat="43.07751" lon="0.1927">
        <ele>526.4</ele>
        <time>2020-06-30T14:35:33Z</time>
      </trkpt>
      <trkpt lat="43.07752" lon="0.19269">
        <ele>526.6</ele>
        <time>2020-06-30T14:35:34Z</time>
      </trkpt>
      <trkpt lat="43.07753" lon="0.19266">
        <ele>526.6</ele>
        <time>2020-06-30T14:35:35Z</time>
      </trkpt>
      <trkpt lat="43.07754" lon="0.19265">
        <ele>526.8</ele>
        <time>2020-06-30T14:35:36Z</time>
      </trkpt>
      <trkpt lat="43.07756" lon="0.19264">
        <ele>526.8</ele>
        <time>2020-06-30T14:35:37Z</time>
      </trkpt>
      <trkpt lat="43.07759" lon="0.19263">
        <ele>527</ele>
        <time>2020-06-30T14:35:38Z</time>
      </trkpt>
      <trkpt lat="43.0776" lon="0.19262">
        <ele>527</ele>
        <time>2020-06-30T14:35:39Z</time>
      </trkpt>
      <trkpt lat="43.07762" lon="0.19261">
        <ele>527.4</ele>
        <time>2020-06-30T14:35:40Z</time>
      </trkpt>
      <trkpt lat="43.07762" lon="0.1926">
        <ele>527.4</ele>
        <time>2020-06-30T14:35:41Z</time>
      </trkpt>
      <trkpt lat="43.07763" lon="0.19259">
        <ele>527.4</ele>
        <time>2020-06-30T14:35:42Z</time>
      </trkpt>
      <trkpt lat="43.07764" lon="0.19258">
        <ele>527.6</ele>
        <time>2020-06-30T14:35:43Z</time>
      </trkpt>
      <trkpt lat="43.07766" lon="0.19257">
        <ele>527.6</ele>
        <time>2020-06-30T14:35:44Z</time>
      </trkpt>
      <trkpt lat="43.07768" lon="0.19256">
        <ele>527.6</ele>
        <time>2020-06-30T14:35:45Z</time>
      </trkpt>
      <trkpt lat="43.07769" lon="0.19255">
        <ele>527.8</ele>
        <time>2020-06-30T14:35:46Z</time>
      </trkpt>
      <trkpt lat="43.0777" lon="0.19255">
        <ele>528</ele>
        <time>2020-06-30T14:35:47Z</time>
      </trkpt>
      <trkpt lat="43.07772" lon="0.19255">
        <ele>528</ele>
        <time>2020-06-30T14:35:48Z</time>
      </trkpt>
      <trkpt lat="43.07774" lon="0.19255">
        <ele>528</ele>
        <time>2020-06-30T14:35:49Z</time>
      </trkpt>
      <trkpt lat="43.07775" lon="0.19254">
        <ele>528.2</ele>
        <time>2020-06-30T14:35:50Z</time>
      </trkpt>
      <trkpt lat="43.07776" lon="0.19253">
        <ele>528.2</ele>
        <time>2020-06-30T14:35:51Z</time>
      </trkpt>
      <trkpt lat="43.07777" lon="0.19253">
        <ele>528.4</ele>
        <time>2020-06-30T14:35:52Z</time>
      </trkpt>
      <trkpt lat="43.07778" lon="0.19252">
        <ele>528.6</ele>
        <time>2020-06-30T14:35:53Z</time>
      </trkpt>
      <trkpt lat="43.07779" lon="0.19252">
        <ele>528.6</ele>
        <time>2020-06-30T14:35:54Z</time>
      </trkpt>
      <trkpt lat="43.0778" lon="0.1925">
        <ele>528.6</ele>
        <time>2020-06-30T14:35:55Z</time>
      </trkpt>
      <trkpt lat="43.07782" lon="0.1925">
        <ele>528.8</ele>
        <time>2020-06-30T14:35:56Z</time>
      </trkpt>
      <trkpt lat="43.07783" lon="0.1925">
        <ele>528.8</ele>
        <time>2020-06-30T14:35:57Z</time>
      </trkpt>
      <trkpt lat="43.07784" lon="0.19249">
        <ele>529</ele>
        <time>2020-06-30T14:35:58Z</time>
      </trkpt>
      <trkpt lat="43.07786" lon="0.19249">
        <ele>529</ele>
        <time>2020-06-30T14:35:59Z</time>
      </trkpt>
      <trkpt lat="43.07788" lon="0.19249">
        <ele>529.2</ele>
        <time>2020-06-30T14:36:00Z</time>
      </trkpt>
      <trkpt lat="43.0779" lon="0.19249">
        <ele>529.2</ele>
        <time>2020-06-30T14:36:01Z</time>
      </trkpt>
      <trkpt lat="43.07791" lon="0.19249">
        <ele>529.4</ele>
        <time>2020-06-30T14:36:02Z</time>
      </trkpt>
      <trkpt lat="43.07793" lon="0.19249">
        <ele>529.4</ele>
        <time>2020-06-30T14:36:03Z</time>
      </trkpt>
      <trkpt lat="43.07794" lon="0.1925">
        <ele>529.6</ele>
        <time>2020-06-30T14:36:04Z</time>
      </trkpt>
      <trkpt lat="43.07795" lon="0.19251">
        <ele>529.6</ele>
        <time>2020-06-30T14:36:05Z</time>
      </trkpt>
      <trkpt lat="43.07797" lon="0.19251">
        <ele>529.8</ele>
        <time>2020-06-30T14:36:06Z</time>
      </trkpt>
      <trkpt lat="43.07798" lon="0.19251">
        <ele>530</ele>
        <time>2020-06-30T14:36:07Z</time>
      </trkpt>
      <trkpt lat="43.078" lon="0.19251">
        <ele>530</ele>
        <time>2020-06-30T14:36:08Z</time>
      </trkpt>
      <trkpt lat="43.07801" lon="0.19252">
        <ele>530.2</ele>
        <time>2020-06-30T14:36:09Z</time>
      </trkpt>
      <trkpt lat="43.07802" lon="0.19252">
        <ele>530.2</ele>
        <time>2020-06-30T14:36:10Z</time>
      </trkpt>
      <trkpt lat="43.07803" lon="0.19252">
        <ele>530.4</ele>
        <time>2020-06-30T14:36:11Z</time>
      </trkpt>
      <trkpt lat="43.07804" lon="0.19253">
        <ele>530.4</ele>
        <time>2020-06-30T14:36:12Z</time>
      </trkpt>
      <trkpt lat="43.07805" lon="0.19252">
        <ele>530.6</ele>
        <time>2020-06-30T14:36:13Z</time>
      </trkpt>
      <trkpt lat="43.07807" lon="0.19252">
        <ele>530.6</ele>
        <time>2020-06-30T14:36:14Z</time>
      </trkpt>
      <trkpt lat="43.07808" lon="0.19252">
        <ele>530.8</ele>
        <time>2020-06-30T14:36:15Z</time>
      </trkpt>
      <trkpt lat="43.0781" lon="0.19253">
        <ele>530.8</ele>
        <time>2020-06-30T14:36:16Z</time>
      </trkpt>
      <trkpt lat="43.07811" lon="0.19253">
        <ele>531</ele>
        <time>2020-06-30T14:36:17Z</time>
      </trkpt>
      <trkpt lat="43.07813" lon="0.19253">
        <ele>531</ele>
        <time>2020-06-30T14:36:18Z</time>
      </trkpt>
      <trkpt lat="43.07813" lon="0.19253">
        <ele>531.2</ele>
        <time>2020-06-30T14:36:19Z</time>
      </trkpt>
      <trkpt lat="43.07815" lon="0.19253">
        <ele>531.2</ele>
        <time>2020-06-30T14:36:20Z</time>
      </trkpt>
      <trkpt lat="43.07816" lon="0.19251">
        <ele>531.2</ele>
        <time>2020-06-30T14:36:21Z</time>
      </trkpt>
      <trkpt lat="43.07817" lon="0.19251">
        <ele>531.4</ele>
        <time>2020-06-30T14:36:22Z</time>
      </trkpt>
      <trkpt lat="43.07819" lon="0.19251">
        <ele>531.4</ele>
        <time>2020-06-30T14:36:23Z</time>
      </trkpt>
      <trkpt lat="43.0782" lon="0.19251">
        <ele>531.6</ele>
        <time>2020-06-30T14:36:24Z</time>
      </trkpt>
      <trkpt lat="43.07822" lon="0.19251">
        <ele>531.6</ele>
        <time>2020-06-30T14:36:25Z</time>
      </trkpt>
      <trkpt lat="43.07824" lon="0.1925">
        <ele>531.8</ele>
        <time>2020-06-30T14:36:26Z</time>
      </trkpt>
      <trkpt lat="43.07825" lon="0.19249">
        <ele>532</ele>
        <time>2020-06-30T14:36:27Z</time>
      </trkpt>
      <trkpt lat="43.07827" lon="0.19248">
        <ele>532</ele>
        <time>2020-06-30T14:36:28Z</time>
      </trkpt>
      <trkpt lat="43.07829" lon="0.19247">
        <ele>532.2</ele>
        <time>2020-06-30T14:36:29Z</time>
      </trkpt>
      <trkpt lat="43.07831" lon="0.19246">
        <ele>532.4</ele>
        <time>2020-06-30T14:36:30Z</time>
      </trkpt>
      <trkpt lat="43.07832" lon="0.19245">
        <ele>532.4</ele>
        <time>2020-06-30T14:36:31Z</time>
      </trkpt>
      <trkpt lat="43.07833" lon="0.19243">
        <ele>532.6</ele>
        <time>2020-06-30T14:36:32Z</time>
      </trkpt>
      <trkpt lat="43.07834" lon="0.19242">
        <ele>532.6</ele>
        <time>2020-06-30T14:36:33Z</time>
      </trkpt>
      <trkpt lat="43.07835" lon="0.1924">
        <ele>532.8</ele>
        <time>2020-06-30T14:36:34Z</time>
      </trkpt>
      <trkpt lat="43.07836" lon="0.19238">
        <ele>533</ele>
        <time>2020-06-30T14:36:35Z</time>
      </trkpt>
      <trkpt lat="43.07837" lon="0.19237">
        <ele>533</ele>
        <time>2020-06-30T14:36:36Z</time>
      </trkpt>
      <trkpt lat="43.07838" lon="0.19235">
        <ele>533.2</ele>
        <time>2020-06-30T14:36:37Z</time>
      </trkpt>
      <trkpt lat="43.07839" lon="0.19232">
        <ele>533.2</ele>
        <time>2020-06-30T14:36:38Z</time>
      </trkpt>
      <trkpt lat="43.07839" lon="0.19231">
        <ele>533.4</ele>
        <time>2020-06-30T14:36:39Z</time>
      </trkpt>
      <trkpt lat="43.07839" lon="0.19228">
        <ele>533.4</ele>
        <time>2020-06-30T14:36:40Z</time>
      </trkpt>
      <trkpt lat="43.07839" lon="0.19226">
        <ele>533.6</ele>
        <time>2020-06-30T14:36:41Z</time>
      </trkpt>
      <trkpt lat="43.0784" lon="0.19224">
        <ele>533.8</ele>
        <time>2020-06-30T14:36:42Z</time>
      </trkpt>
      <trkpt lat="43.0784" lon="0.19222">
        <ele>533.8</ele>
        <time>2020-06-30T14:36:43Z</time>
      </trkpt>
      <trkpt lat="43.0784" lon="0.19221">
        <ele>534</ele>
        <time>2020-06-30T14:36:44Z</time>
      </trkpt>
      <trkpt lat="43.07841" lon="0.19219">
        <ele>534</ele>
        <time>2020-06-30T14:36:45Z</time>
      </trkpt>
      <trkpt lat="43.07842" lon="0.19217">
        <ele>534.2</ele>
        <time>2020-06-30T14:36:46Z</time>
      </trkpt>
      <trkpt lat="43.07842" lon="0.19215">
        <ele>534.2</ele>
        <time>2020-06-30T14:36:47Z</time>
      </trkpt>
      <trkpt lat="43.07843" lon="0.19213">
        <ele>534.4</ele>
        <time>2020-06-30T14:36:48Z</time>
      </trkpt>
      <trkpt lat="43.07843" lon="0.19212">
        <ele>534.4</ele>
        <time>2020-06-30T14:36:49Z</time>
      </trkpt>
      <trkpt lat="43.07843" lon="0.1921">
        <ele>534.6</ele>
        <time>2020-06-30T14:36:50Z</time>
      </trkpt>
      <trkpt lat="43.07844" lon="0.19208">
        <ele>534.6</ele>
        <time>2020-06-30T14:36:51Z</time>
      </trkpt>
      <trkpt lat="43.07845" lon="0.19206">
        <ele>534.8</ele>
        <time>2020-06-30T14:36:52Z</time>
      </trkpt>
      <trkpt lat="43.07845" lon="0.19204">
        <ele>534.8</ele>
        <time>2020-06-30T14:36:53Z</time>
      </trkpt>
      <trkpt lat="43.07846" lon="0.19202">
        <ele>534.8</ele>
        <time>2020-06-30T14:36:54Z</time>
      </trkpt>
      <trkpt lat="43.07846" lon="0.19201">
        <ele>535</ele>
        <time>2020-06-30T14:36:55Z</time>
      </trkpt>
      <trkpt lat="43.07847" lon="0.19199">
        <ele>535</ele>
        <time>2020-06-30T14:36:56Z</time>
      </trkpt>
      <trkpt lat="43.07848" lon="0.19198">
        <ele>535</ele>
        <time>2020-06-30T14:36:57Z</time>
      </trkpt>
      <trkpt lat="43.07849" lon="0.19196">
        <ele>535</ele>
        <time>2020-06-30T14:36:58Z</time>
      </trkpt>
      <trkpt lat="43.07849" lon="0.19194">
        <ele>535.2</ele>
        <time>2020-06-30T14:36:59Z</time>
      </trkpt>
      <trkpt lat="43.0785" lon="0.19193">
        <ele>535.4</ele>
        <time>2020-06-30T14:37:00Z</time>
      </trkpt>
      <trkpt lat="43.0785" lon="0.19192">
        <ele>535.4</ele>
        <time>2020-06-30T14:37:01Z</time>
      </trkpt>
      <trkpt lat="43.07851" lon="0.19191">
        <ele>535.4</ele>
        <time>2020-06-30T14:37:02Z</time>
      </trkpt>
      <trkpt lat="43.07851" lon="0.19189">
        <ele>535.6</ele>
        <time>2020-06-30T14:37:03Z</time>
      </trkpt>
      <trkpt lat="43.07852" lon="0.19189">
        <ele>535.6</ele>
        <time>2020-06-30T14:37:04Z</time>
      </trkpt>
      <trkpt lat="43.07853" lon="0.19187">
        <ele>535.6</ele>
        <time>2020-06-30T14:37:05Z</time>
      </trkpt>
      <trkpt lat="43.07853" lon="0.19185">
        <ele>535.8</ele>
        <time>2020-06-30T14:37:06Z</time>
      </trkpt>
      <trkpt lat="43.07854" lon="0.19184">
        <ele>535.8</ele>
        <time>2020-06-30T14:37:07Z</time>
      </trkpt>
      <trkpt lat="43.07855" lon="0.19181">
        <ele>536</ele>
        <time>2020-06-30T14:37:08Z</time>
      </trkpt>
      <trkpt lat="43.07857" lon="0.19179">
        <ele>536</ele>
        <time>2020-06-30T14:37:09Z</time>
      </trkpt>
      <trkpt lat="43.07858" lon="0.19178">
        <ele>536.2</ele>
        <time>2020-06-30T14:37:10Z</time>
      </trkpt>
      <trkpt lat="43.07858" lon="0.19176">
        <ele>536.2</ele>
        <time>2020-06-30T14:37:11Z</time>
      </trkpt>
      <trkpt lat="43.0786" lon="0.19175">
        <ele>536.2</ele>
        <time>2020-06-30T14:37:12Z</time>
      </trkpt>
      <trkpt lat="43.07862" lon="0.19173">
        <ele>536.4</ele>
        <time>2020-06-30T14:37:13Z</time>
      </trkpt>
      <trkpt lat="43.07863" lon="0.19171">
        <ele>536.4</ele>
        <time>2020-06-30T14:37:14Z</time>
      </trkpt>
      <trkpt lat="43.07863" lon="0.1917">
        <ele>536.6</ele>
        <time>2020-06-30T14:37:15Z</time>
      </trkpt>
      <trkpt lat="43.07864" lon="0.19169">
        <ele>536.6</ele>
        <time>2020-06-30T14:37:16Z</time>
      </trkpt>
      <trkpt lat="43.07865" lon="0.19168">
        <ele>536.8</ele>
        <time>2020-06-30T14:37:17Z</time>
      </trkpt>
      <trkpt lat="43.07866" lon="0.19166">
        <ele>536.8</ele>
        <time>2020-06-30T14:37:18Z</time>
      </trkpt>
      <trkpt lat="43.07867" lon="0.19165">
        <ele>536.8</ele>
        <time>2020-06-30T14:37:19Z</time>
      </trkpt>
      <trkpt lat="43.07868" lon="0.19164">
        <ele>537</ele>
        <time>2020-06-30T14:37:20Z</time>
      </trkpt>
      <trkpt lat="43.0787" lon="0.19163">
        <ele>537</ele>
        <time>2020-06-30T14:37:21Z</time>
      </trkpt>
      <trkpt lat="43.0787" lon="0.19162">
        <ele>537.2</ele>
        <time>2020-06-30T14:37:22Z</time>
      </trkpt>
      <trkpt lat="43.07871" lon="0.19161">
        <ele>537.2</ele>
        <time>2020-06-30T14:37:23Z</time>
      </trkpt>
      <trkpt lat="43.07872" lon="0.19159">
        <ele>537.2</ele>
        <time>2020-06-30T14:37:24Z</time>
      </trkpt>
      <trkpt lat="43.07872" lon="0.19157">
        <ele>537.4</ele>
        <time>2020-06-30T14:37:25Z</time>
      </trkpt>
      <trkpt lat="43.07873" lon="0.19156">
        <ele>537.4</ele>
        <time>2020-06-30T14:37:26Z</time>
      </trkpt>
      <trkpt lat="43.07874" lon="0.19155">
        <ele>537.6</ele>
        <time>2020-06-30T14:37:27Z</time>
      </trkpt>
      <trkpt lat="43.07875" lon="0.19153">
        <ele>537.6</ele>
        <time>2020-06-30T14:37:28Z</time>
      </trkpt>
      <trkpt lat="43.07876" lon="0.19151">
        <ele>537.6</ele>
        <time>2020-06-30T14:37:29Z</time>
      </trkpt>
      <trkpt lat="43.07877" lon="0.1915">
        <ele>537.8</ele>
        <time>2020-06-30T14:37:30Z</time>
      </trkpt>
      <trkpt lat="43.07877" lon="0.19149">
        <ele>537.8</ele>
        <time>2020-06-30T14:37:31Z</time>
      </trkpt>
      <trkpt lat="43.07878" lon="0.19147">
        <ele>538</ele>
        <time>2020-06-30T14:37:32Z</time>
      </trkpt>
      <trkpt lat="43.07879" lon="0.19144">
        <ele>538.2</ele>
        <time>2020-06-30T14:37:33Z</time>
      </trkpt>
      <trkpt lat="43.07879" lon="0.19143">
        <ele>538.2</ele>
        <time>2020-06-30T14:37:34Z</time>
      </trkpt>
      <trkpt lat="43.0788" lon="0.19142">
        <ele>538.4</ele>
        <time>2020-06-30T14:37:35Z</time>
      </trkpt>
      <trkpt lat="43.07881" lon="0.19141">
        <ele>538.4</ele>
        <time>2020-06-30T14:37:36Z</time>
      </trkpt>
      <trkpt lat="43.07881" lon="0.1914">
        <ele>538.6</ele>
        <time>2020-06-30T14:37:37Z</time>
      </trkpt>
      <trkpt lat="43.07882" lon="0.19139">
        <ele>538.6</ele>
        <time>2020-06-30T14:37:38Z</time>
      </trkpt>
      <trkpt lat="43.07883" lon="0.19137">
        <ele>538.8</ele>
        <time>2020-06-30T14:37:39Z</time>
      </trkpt>
      <trkpt lat="43.07884" lon="0.19135">
        <ele>538.8</ele>
        <time>2020-06-30T14:37:40Z</time>
      </trkpt>
      <trkpt lat="43.07885" lon="0.19133">
        <ele>539</ele>
        <time>2020-06-30T14:37:41Z</time>
      </trkpt>
      <trkpt lat="43.07887" lon="0.19133">
        <ele>539</ele>
        <time>2020-06-30T14:37:42Z</time>
      </trkpt>
      <trkpt lat="43.07888" lon="0.19131">
        <ele>539.2</ele>
        <time>2020-06-30T14:37:43Z</time>
      </trkpt>
      <trkpt lat="43.07889" lon="0.1913">
        <ele>539.2</ele>
        <time>2020-06-30T14:37:44Z</time>
      </trkpt>
      <trkpt lat="43.0789" lon="0.19129">
        <ele>539.2</ele>
        <time>2020-06-30T14:37:45Z</time>
      </trkpt>
      <trkpt lat="43.07891" lon="0.19128">
        <ele>539.4</ele>
        <time>2020-06-30T14:37:46Z</time>
      </trkpt>
      <trkpt lat="43.07892" lon="0.19126">
        <ele>539.4</ele>
        <time>2020-06-30T14:37:47Z</time>
      </trkpt>
      <trkpt lat="43.07893" lon="0.19124">
        <ele>539.6</ele>
        <time>2020-06-30T14:37:48Z</time>
      </trkpt>
      <trkpt lat="43.07894" lon="0.19123">
        <ele>539.6</ele>
        <time>2020-06-30T14:37:49Z</time>
      </trkpt>
      <trkpt lat="43.07895" lon="0.19122">
        <ele>539.8</ele>
        <time>2020-06-30T14:37:50Z</time>
      </trkpt>
      <trkpt lat="43.07897" lon="0.19121">
        <ele>539.8</ele>
        <time>2020-06-30T14:37:51Z</time>
      </trkpt>
      <trkpt lat="43.07897" lon="0.1912">
        <ele>540</ele>
        <time>2020-06-30T14:37:52Z</time>
      </trkpt>
      <trkpt lat="43.07898" lon="0.19119">
        <ele>540</ele>
        <time>2020-06-30T14:37:53Z</time>
      </trkpt>
      <trkpt lat="43.07899" lon="0.19118">
        <ele>540.2</ele>
        <time>2020-06-30T14:37:54Z</time>
      </trkpt>
      <trkpt lat="43.07902" lon="0.19116">
        <ele>540.2</ele>
        <time>2020-06-30T14:37:55Z</time>
      </trkpt>
      <trkpt lat="43.07903" lon="0.19115">
        <ele>540.4</ele>
        <time>2020-06-30T14:37:56Z</time>
      </trkpt>
      <trkpt lat="43.07904" lon="0.19114">
        <ele>540.4</ele>
        <time>2020-06-30T14:37:57Z</time>
      </trkpt>
      <trkpt lat="43.07906" lon="0.19113">
        <ele>540.6</ele>
        <time>2020-06-30T14:37:58Z</time>
      </trkpt>
      <trkpt lat="43.07906" lon="0.19112">
        <ele>540.6</ele>
        <time>2020-06-30T14:37:59Z</time>
      </trkpt>
      <trkpt lat="43.07907" lon="0.19111">
        <ele>540.8</ele>
        <time>2020-06-30T14:38:00Z</time>
      </trkpt>
      <trkpt lat="43.07908" lon="0.1911">
        <ele>540.8</ele>
        <time>2020-06-30T14:38:01Z</time>
      </trkpt>
      <trkpt lat="43.07909" lon="0.19109">
        <ele>541</ele>
        <time>2020-06-30T14:38:02Z</time>
      </trkpt>
      <trkpt lat="43.07911" lon="0.19108">
        <ele>541.2</ele>
        <time>2020-06-30T14:38:03Z</time>
      </trkpt>
      <trkpt lat="43.07912" lon="0.19107">
        <ele>541.2</ele>
        <time>2020-06-30T14:38:04Z</time>
      </trkpt>
      <trkpt lat="43.07914" lon="0.19106">
        <ele>541.2</ele>
        <time>2020-06-30T14:38:05Z</time>
      </trkpt>
      <trkpt lat="43.07915" lon="0.19105">
        <ele>541.4</ele>
        <time>2020-06-30T14:38:06Z</time>
      </trkpt>
      <trkpt lat="43.07916" lon="0.19104">
        <ele>541.4</ele>
        <time>2020-06-30T14:38:07Z</time>
      </trkpt>
      <trkpt lat="43.07917" lon="0.19103">
        <ele>541.6</ele>
        <time>2020-06-30T14:38:08Z</time>
      </trkpt>
      <trkpt lat="43.07918" lon="0.19102">
        <ele>541.6</ele>
        <time>2020-06-30T14:38:09Z</time>
      </trkpt>
      <trkpt lat="43.0792" lon="0.19101">
        <ele>541.8</ele>
        <time>2020-06-30T14:38:10Z</time>
      </trkpt>
      <trkpt lat="43.07921" lon="0.191">
        <ele>541.8</ele>
        <time>2020-06-30T14:38:11Z</time>
      </trkpt>
      <trkpt lat="43.07923" lon="0.19099">
        <ele>542</ele>
        <time>2020-06-30T14:38:12Z</time>
      </trkpt>
      <trkpt lat="43.07924" lon="0.19099">
        <ele>542</ele>
        <time>2020-06-30T14:38:13Z</time>
      </trkpt>
      <trkpt lat="43.07926" lon="0.19097">
        <ele>542.2</ele>
        <time>2020-06-30T14:38:14Z</time>
      </trkpt>
      <trkpt lat="43.07927" lon="0.19097">
        <ele>542.2</ele>
        <time>2020-06-30T14:38:15Z</time>
      </trkpt>
      <trkpt lat="43.07929" lon="0.19095">
        <ele>542.4</ele>
        <time>2020-06-30T14:38:16Z</time>
      </trkpt>
      <trkpt lat="43.0793" lon="0.19095">
        <ele>542.4</ele>
        <time>2020-06-30T14:38:17Z</time>
      </trkpt>
      <trkpt lat="43.07931" lon="0.19095">
        <ele>542.6</ele>
        <time>2020-06-30T14:38:18Z</time>
      </trkpt>
      <trkpt lat="43.07932" lon="0.19094">
        <ele>542.8</ele>
        <time>2020-06-30T14:38:19Z</time>
      </trkpt>
      <trkpt lat="43.07933" lon="0.19093">
        <ele>542.8</ele>
        <time>2020-06-30T14:38:20Z</time>
      </trkpt>
      <trkpt lat="43.07934" lon="0.19093">
        <ele>543</ele>
        <time>2020-06-30T14:38:21Z</time>
      </trkpt>
      <trkpt lat="43.07935" lon="0.19092">
        <ele>543</ele>
        <time>2020-06-30T14:38:22Z</time>
      </trkpt>
      <trkpt lat="43.07936" lon="0.1909">
        <ele>543.2</ele>
        <time>2020-06-30T14:38:23Z</time>
      </trkpt>
      <trkpt lat="43.07938" lon="0.19089">
        <ele>543.2</ele>
        <time>2020-06-30T14:38:24Z</time>
      </trkpt>
      <trkpt lat="43.0794" lon="0.19088">
        <ele>543.2</ele>
        <time>2020-06-30T14:38:25Z</time>
      </trkpt>
      <trkpt lat="43.07941" lon="0.19087">
        <ele>543.4</ele>
        <time>2020-06-30T14:38:26Z</time>
      </trkpt>
      <trkpt lat="43.07942" lon="0.19087">
        <ele>543.6</ele>
        <time>2020-06-30T14:38:27Z</time>
      </trkpt>
      <trkpt lat="43.07944" lon="0.19085">
        <ele>543.6</ele>
        <time>2020-06-30T14:38:28Z</time>
      </trkpt>
      <trkpt lat="43.07946" lon="0.19085">
        <ele>543.6</ele>
        <time>2020-06-30T14:38:29Z</time>
      </trkpt>
      <trkpt lat="43.07947" lon="0.19084">
        <ele>543.8</ele>
        <time>2020-06-30T14:38:30Z</time>
      </trkpt>
      <trkpt lat="43.07948" lon="0.19083">
        <ele>543.8</ele>
        <time>2020-06-30T14:38:31Z</time>
      </trkpt>
      <trkpt lat="43.07949" lon="0.19082">
        <ele>544</ele>
        <time>2020-06-30T14:38:32Z</time>
      </trkpt>
      <trkpt lat="43.07951" lon="0.19082">
        <ele>544</ele>
        <time>2020-06-30T14:38:33Z</time>
      </trkpt>
      <trkpt lat="43.07952" lon="0.19081">
        <ele>544.2</ele>
        <time>2020-06-30T14:38:34Z</time>
      </trkpt>
      <trkpt lat="43.07953" lon="0.1908">
        <ele>544.2</ele>
        <time>2020-06-30T14:38:35Z</time>
      </trkpt>
      <trkpt lat="43.07954" lon="0.1908">
        <ele>544.2</ele>
        <time>2020-06-30T14:38:36Z</time>
      </trkpt>
      <trkpt lat="43.07956" lon="0.1908">
        <ele>544.4</ele>
        <time>2020-06-30T14:38:37Z</time>
      </trkpt>
      <trkpt lat="43.07957" lon="0.19079">
        <ele>544.4</ele>
        <time>2020-06-30T14:38:38Z</time>
      </trkpt>
      <trkpt lat="43.07958" lon="0.19078">
        <ele>544.6</ele>
        <time>2020-06-30T14:38:39Z</time>
      </trkpt>
      <trkpt lat="43.0796" lon="0.19077">
        <ele>544.8</ele>
        <time>2020-06-30T14:38:40Z</time>
      </trkpt>
      <trkpt lat="43.07962" lon="0.19076">
        <ele>544.8</ele>
        <time>2020-06-30T14:38:41Z</time>
      </trkpt>
      <trkpt lat="43.07963" lon="0.19076">
        <ele>545</ele>
        <time>2020-06-30T14:38:42Z</time>
      </trkpt>
      <trkpt lat="43.07964" lon="0.19075">
        <ele>545</ele>
        <time>2020-06-30T14:38:43Z</time>
      </trkpt>
      <trkpt lat="43.07966" lon="0.19074">
        <ele>545.2</ele>
        <time>2020-06-30T14:38:44Z</time>
      </trkpt>
      <trkpt lat="43.07967" lon="0.19072">
        <ele>545.2</ele>
        <time>2020-06-30T14:38:45Z</time>
      </trkpt>
      <trkpt lat="43.0797" lon="0.19072">
        <ele>545.4</ele>
        <time>2020-06-30T14:38:46Z</time>
      </trkpt>
      <trkpt lat="43.07971" lon="0.1907">
        <ele>545.4</ele>
        <time>2020-06-30T14:38:47Z</time>
      </trkpt>
      <trkpt lat="43.07973" lon="0.1907">
        <ele>545.6</ele>
        <time>2020-06-30T14:38:48Z</time>
      </trkpt>
      <trkpt lat="43.07974" lon="0.1907">
        <ele>545.8</ele>
        <time>2020-06-30T14:38:49Z</time>
      </trkpt>
      <trkpt lat="43.07975" lon="0.19069">
        <ele>545.8</ele>
        <time>2020-06-30T14:38:50Z</time>
      </trkpt>
      <trkpt lat="43.07977" lon="0.19069">
        <ele>545.8</ele>
        <time>2020-06-30T14:38:51Z</time>
      </trkpt>
      <trkpt lat="43.07978" lon="0.19067">
        <ele>546</ele>
        <time>2020-06-30T14:38:52Z</time>
      </trkpt>
      <trkpt lat="43.0798" lon="0.19066">
        <ele>546</ele>
        <time>2020-06-30T14:38:53Z</time>
      </trkpt>
      <trkpt lat="43.07982" lon="0.19065">
        <ele>546.2</ele>
        <time>2020-06-30T14:38:54Z</time>
      </trkpt>
      <trkpt lat="43.07984" lon="0.19063">
        <ele>546.2</ele>
        <time>2020-06-30T14:38:55Z</time>
      </trkpt>
      <trkpt lat="43.07986" lon="0.19063">
        <ele>546.4</ele>
        <time>2020-06-30T14:38:56Z</time>
      </trkpt>
      <trkpt lat="43.07987" lon="0.19063">
        <ele>546.4</ele>
        <time>2020-06-30T14:38:57Z</time>
      </trkpt>
      <trkpt lat="43.07989" lon="0.19062">
        <ele>546.4</ele>
        <time>2020-06-30T14:38:58Z</time>
      </trkpt>
      <trkpt lat="43.07991" lon="0.19062">
        <ele>546.6</ele>
        <time>2020-06-30T14:38:59Z</time>
      </trkpt>
      <trkpt lat="43.07992" lon="0.19061">
        <ele>546.8</ele>
        <time>2020-06-30T14:39:00Z</time>
      </trkpt>
      <trkpt lat="43.07993" lon="0.19061">
        <ele>546.8</ele>
        <time>2020-06-30T14:39:01Z</time>
      </trkpt>
      <trkpt lat="43.07996" lon="0.1906">
        <ele>546.8</ele>
        <time>2020-06-30T14:39:02Z</time>
      </trkpt>
      <trkpt lat="43.07997" lon="0.1906">
        <ele>546.8</ele>
        <time>2020-06-30T14:39:03Z</time>
      </trkpt>
      <trkpt lat="43.07998" lon="0.19059">
        <ele>547</ele>
        <time>2020-06-30T14:39:04Z</time>
      </trkpt>
      <trkpt lat="43.08" lon="0.19057">
        <ele>547.2</ele>
        <time>2020-06-30T14:39:05Z</time>
      </trkpt>
      <trkpt lat="43.08002" lon="0.19056">
        <ele>547.2</ele>
        <time>2020-06-30T14:39:06Z</time>
      </trkpt>
      <trkpt lat="43.08003" lon="0.19055">
        <ele>547.4</ele>
        <time>2020-06-30T14:39:07Z</time>
      </trkpt>
      <trkpt lat="43.08005" lon="0.19055">
        <ele>547.4</ele>
        <time>2020-06-30T14:39:08Z</time>
      </trkpt>
      <trkpt lat="43.08007" lon="0.19053">
        <ele>547.4</ele>
        <time>2020-06-30T14:39:09Z</time>
      </trkpt>
      <trkpt lat="43.08009" lon="0.19052">
        <ele>547.6</ele>
        <time>2020-06-30T14:39:10Z</time>
      </trkpt>
      <trkpt lat="43.0801" lon="0.19052">
        <ele>547.8</ele>
        <time>2020-06-30T14:39:11Z</time>
      </trkpt>
      <trkpt lat="43.08011" lon="0.19051">
        <ele>547.8</ele>
        <time>2020-06-30T14:39:12Z</time>
      </trkpt>
      <trkpt lat="43.08014" lon="0.1905">
        <ele>547.8</ele>
        <time>2020-06-30T14:39:13Z</time>
      </trkpt>
      <trkpt lat="43.08015" lon="0.1905">
        <ele>548</ele>
        <time>2020-06-30T14:39:14Z</time>
      </trkpt>
      <trkpt lat="43.08016" lon="0.19049">
        <ele>548</ele>
        <time>2020-06-30T14:39:15Z</time>
      </trkpt>
      <trkpt lat="43.08018" lon="0.19047">
        <ele>548.2</ele>
        <time>2020-06-30T14:39:16Z</time>
      </trkpt>
      <trkpt lat="43.0802" lon="0.19047">
        <ele>548.2</ele>
        <time>2020-06-30T14:39:17Z</time>
      </trkpt>
      <trkpt lat="43.08022" lon="0.19046">
        <ele>548.2</ele>
        <time>2020-06-30T14:39:18Z</time>
      </trkpt>
      <trkpt lat="43.08023" lon="0.19046">
        <ele>548.4</ele>
        <time>2020-06-30T14:39:19Z</time>
      </trkpt>
      <trkpt lat="43.08025" lon="0.19044">
        <ele>548.4</ele>
        <time>2020-06-30T14:39:20Z</time>
      </trkpt>
      <trkpt lat="43.08026" lon="0.19044">
        <ele>548.6</ele>
        <time>2020-06-30T14:39:21Z</time>
      </trkpt>
      <trkpt lat="43.08028" lon="0.19043">
        <ele>548.6</ele>
        <time>2020-06-30T14:39:22Z</time>
      </trkpt>
      <trkpt lat="43.0803" lon="0.19042">
        <ele>548.6</ele>
        <time>2020-06-30T14:39:23Z</time>
      </trkpt>
      <trkpt lat="43.08031" lon="0.19041">
        <ele>548.6</ele>
        <time>2020-06-30T14:39:24Z</time>
      </trkpt>
      <trkpt lat="43.08033" lon="0.19041">
        <ele>548.6</ele>
        <time>2020-06-30T14:39:25Z</time>
      </trkpt>
      <trkpt lat="43.08034" lon="0.1904">
        <ele>548.8</ele>
        <time>2020-06-30T14:39:26Z</time>
      </trkpt>
      <trkpt lat="43.08036" lon="0.19039">
        <ele>549</ele>
        <time>2020-06-30T14:39:27Z</time>
      </trkpt>
      <trkpt lat="43.08037" lon="0.19038">
        <ele>549</ele>
        <time>2020-06-30T14:39:28Z</time>
      </trkpt>
      <trkpt lat="43.08038" lon="0.19037">
        <ele>549</ele>
        <time>2020-06-30T14:39:29Z</time>
      </trkpt>
      <trkpt lat="43.0804" lon="0.19035">
        <ele>549.2</ele>
        <time>2020-06-30T14:39:30Z</time>
      </trkpt>
      <trkpt lat="43.08041" lon="0.19034">
        <ele>549.2</ele>
        <time>2020-06-30T14:39:31Z</time>
      </trkpt>
      <trkpt lat="43.08043" lon="0.19033">
        <ele>549.2</ele>
        <time>2020-06-30T14:39:32Z</time>
      </trkpt>
      <trkpt lat="43.08044" lon="0.19031">
        <ele>549.4</ele>
        <time>2020-06-30T14:39:33Z</time>
      </trkpt>
      <trkpt lat="43.08045" lon="0.19029">
        <ele>549.4</ele>
        <time>2020-06-30T14:39:34Z</time>
      </trkpt>
      <trkpt lat="43.08046" lon="0.19028">
        <ele>549.6</ele>
        <time>2020-06-30T14:39:35Z</time>
      </trkpt>
      <trkpt lat="43.08047" lon="0.19027">
        <ele>549.6</ele>
        <time>2020-06-30T14:39:36Z</time>
      </trkpt>
      <trkpt lat="43.08048" lon="0.19026">
        <ele>549.8</ele>
        <time>2020-06-30T14:39:37Z</time>
      </trkpt>
      <trkpt lat="43.08049" lon="0.19025">
        <ele>549.8</ele>
        <time>2020-06-30T14:39:38Z</time>
      </trkpt>
      <trkpt lat="43.0805" lon="0.19023">
        <ele>549.8</ele>
        <time>2020-06-30T14:39:39Z</time>
      </trkpt>
      <trkpt lat="43.08051" lon="0.19021">
        <ele>550</ele>
        <time>2020-06-30T14:39:40Z</time>
      </trkpt>
      <trkpt lat="43.08052" lon="0.1902">
        <ele>550.2</ele>
        <time>2020-06-30T14:39:41Z</time>
      </trkpt>
      <trkpt lat="43.08053" lon="0.19019">
        <ele>550.4</ele>
        <time>2020-06-30T14:39:42Z</time>
      </trkpt>
      <trkpt lat="43.08054" lon="0.19017">
        <ele>550.4</ele>
        <time>2020-06-30T14:39:43Z</time>
      </trkpt>
      <trkpt lat="43.08055" lon="0.19016">
        <ele>550.6</ele>
        <time>2020-06-30T14:39:44Z</time>
      </trkpt>
      <trkpt lat="43.08056" lon="0.19014">
        <ele>550.6</ele>
        <time>2020-06-30T14:39:45Z</time>
      </trkpt>
      <trkpt lat="43.08057" lon="0.19012">
        <ele>550.6</ele>
        <time>2020-06-30T14:39:46Z</time>
      </trkpt>
      <trkpt lat="43.08058" lon="0.1901">
        <ele>550.8</ele>
        <time>2020-06-30T14:39:47Z</time>
      </trkpt>
      <trkpt lat="43.08059" lon="0.19008">
        <ele>550.8</ele>
        <time>2020-06-30T14:39:48Z</time>
      </trkpt>
      <trkpt lat="43.0806" lon="0.19006">
        <ele>550.8</ele>
        <time>2020-06-30T14:39:49Z</time>
      </trkpt>
      <trkpt lat="43.08061" lon="0.19004">
        <ele>551</ele>
        <time>2020-06-30T14:39:50Z</time>
      </trkpt>
      <trkpt lat="43.08062" lon="0.19003">
        <ele>551.2</ele>
        <time>2020-06-30T14:39:51Z</time>
      </trkpt>
      <trkpt lat="43.08063" lon="0.19">
        <ele>551.4</ele>
        <time>2020-06-30T14:39:52Z</time>
      </trkpt>
      <trkpt lat="43.08064" lon="0.18998">
        <ele>551.4</ele>
        <time>2020-06-30T14:39:53Z</time>
      </trkpt>
      <trkpt lat="43.08065" lon="0.18996">
        <ele>551.4</ele>
        <time>2020-06-30T14:39:54Z</time>
      </trkpt>
      <trkpt lat="43.08066" lon="0.18994">
        <ele>551.6</ele>
        <time>2020-06-30T14:39:55Z</time>
      </trkpt>
      <trkpt lat="43.08067" lon="0.18991">
        <ele>551.6</ele>
        <time>2020-06-30T14:39:56Z</time>
      </trkpt>
      <trkpt lat="43.08068" lon="0.18989">
        <ele>551.8</ele>
        <time>2020-06-30T14:39:57Z</time>
      </trkpt>
      <trkpt lat="43.08068" lon="0.18987">
        <ele>552</ele>
        <time>2020-06-30T14:39:58Z</time>
      </trkpt>
      <trkpt lat="43.08068" lon="0.18985">
        <ele>552</ele>
        <time>2020-06-30T14:39:59Z</time>
      </trkpt>
      <trkpt lat="43.08068" lon="0.18983">
        <ele>552</ele>
        <time>2020-06-30T14:40:00Z</time>
      </trkpt>
      <trkpt lat="43.08069" lon="0.18981">
        <ele>552.2</ele>
        <time>2020-06-30T14:40:01Z</time>
      </trkpt>
      <trkpt lat="43.0807" lon="0.18979">
        <ele>552.2</ele>
        <time>2020-06-30T14:40:02Z</time>
      </trkpt>
      <trkpt lat="43.08071" lon="0.18977">
        <ele>552.4</ele>
        <time>2020-06-30T14:40:03Z</time>
      </trkpt>
      <trkpt lat="43.08071" lon="0.18974">
        <ele>552.4</ele>
        <time>2020-06-30T14:40:04Z</time>
      </trkpt>
      <trkpt lat="43.08073" lon="0.18972">
        <ele>552.6</ele>
        <time>2020-06-30T14:40:05Z</time>
      </trkpt>
      <trkpt lat="43.08075" lon="0.18969">
        <ele>552.8</ele>
        <time>2020-06-30T14:40:06Z</time>
      </trkpt>
      <trkpt lat="43.08076" lon="0.18967">
        <ele>553</ele>
        <time>2020-06-30T14:40:07Z</time>
      </trkpt>
      <trkpt lat="43.08077" lon="0.18964">
        <ele>553</ele>
        <time>2020-06-30T14:40:08Z</time>
      </trkpt>
      <trkpt lat="43.08077" lon="0.18963">
        <ele>553</ele>
        <time>2020-06-30T14:40:09Z</time>
      </trkpt>
      <trkpt lat="43.08078" lon="0.18961">
        <ele>553.2</ele>
        <time>2020-06-30T14:40:10Z</time>
      </trkpt>
      <trkpt lat="43.08079" lon="0.18958">
        <ele>553.2</ele>
        <time>2020-06-30T14:40:11Z</time>
      </trkpt>
      <trkpt lat="43.0808" lon="0.18956">
        <ele>553.4</ele>
        <time>2020-06-30T14:40:12Z</time>
      </trkpt>
      <trkpt lat="43.08081" lon="0.18954">
        <ele>553.4</ele>
        <time>2020-06-30T14:40:13Z</time>
      </trkpt>
      <trkpt lat="43.08082" lon="0.18951">
        <ele>553.6</ele>
        <time>2020-06-30T14:40:14Z</time>
      </trkpt>
      <trkpt lat="43.08084" lon="0.18948">
        <ele>553.6</ele>
        <time>2020-06-30T14:40:15Z</time>
      </trkpt>
      <trkpt lat="43.08085" lon="0.18946">
        <ele>553.6</ele>
        <time>2020-06-30T14:40:16Z</time>
      </trkpt>
      <trkpt lat="43.08085" lon="0.18945">
        <ele>553.8</ele>
        <time>2020-06-30T14:40:17Z</time>
      </trkpt>
      <trkpt lat="43.08087" lon="0.18942">
        <ele>553.8</ele>
        <time>2020-06-30T14:40:18Z</time>
      </trkpt>
      <trkpt lat="43.08087" lon="0.1894">
        <ele>554</ele>
        <time>2020-06-30T14:40:19Z</time>
      </trkpt>
      <trkpt lat="43.08088" lon="0.18938">
        <ele>554.2</ele>
        <time>2020-06-30T14:40:20Z</time>
      </trkpt>
      <trkpt lat="43.08088" lon="0.18935">
        <ele>554.2</ele>
        <time>2020-06-30T14:40:21Z</time>
      </trkpt>
      <trkpt lat="43.08088" lon="0.18933">
        <ele>554.4</ele>
        <time>2020-06-30T14:40:22Z</time>
      </trkpt>
      <trkpt lat="43.08089" lon="0.1893">
        <ele>554.4</ele>
        <time>2020-06-30T14:40:23Z</time>
      </trkpt>
      <trkpt lat="43.08089" lon="0.18927">
        <ele>554.6</ele>
        <time>2020-06-30T14:40:24Z</time>
      </trkpt>
      <trkpt lat="43.08089" lon="0.18924">
        <ele>554.6</ele>
        <time>2020-06-30T14:40:25Z</time>
      </trkpt>
      <trkpt lat="43.08089" lon="0.18922">
        <ele>554.8</ele>
        <time>2020-06-30T14:40:26Z</time>
      </trkpt>
      <trkpt lat="43.08089" lon="0.18919">
        <ele>554.8</ele>
        <time>2020-06-30T14:40:27Z</time>
      </trkpt>
      <trkpt lat="43.0809" lon="0.18917">
        <ele>555</ele>
        <time>2020-06-30T14:40:28Z</time>
      </trkpt>
      <trkpt lat="43.0809" lon="0.18914">
        <ele>555.2</ele>
        <time>2020-06-30T14:40:29Z</time>
      </trkpt>
      <trkpt lat="43.08089" lon="0.18912">
        <ele>555.2</ele>
        <time>2020-06-30T14:40:30Z</time>
      </trkpt>
      <trkpt lat="43.0809" lon="0.18909">
        <ele>555.4</ele>
        <time>2020-06-30T14:40:31Z</time>
      </trkpt>
      <trkpt lat="43.0809" lon="0.18906">
        <ele>555.4</ele>
        <time>2020-06-30T14:40:32Z</time>
      </trkpt>
      <trkpt lat="43.0809" lon="0.18903">
        <ele>555.6</ele>
        <time>2020-06-30T14:40:33Z</time>
      </trkpt>
      <trkpt lat="43.08091" lon="0.189">
        <ele>555.8</ele>
        <time>2020-06-30T14:40:34Z</time>
      </trkpt>
      <trkpt lat="43.08091" lon="0.18897">
        <ele>555.8</ele>
        <time>2020-06-30T14:40:35Z</time>
      </trkpt>
      <trkpt lat="43.08091" lon="0.18894">
        <ele>556</ele>
        <time>2020-06-30T14:40:36Z</time>
      </trkpt>
      <trkpt lat="43.08092" lon="0.18891">
        <ele>556.2</ele>
        <time>2020-06-30T14:40:37Z</time>
      </trkpt>
      <trkpt lat="43.08091" lon="0.18888">
        <ele>556.4</ele>
        <time>2020-06-30T14:40:38Z</time>
      </trkpt>
      <trkpt lat="43.08091" lon="0.18885">
        <ele>556.4</ele>
        <time>2020-06-30T14:40:39Z</time>
      </trkpt>
      <trkpt lat="43.08091" lon="0.18882">
        <ele>556.6</ele>
        <time>2020-06-30T14:40:40Z</time>
      </trkpt>
      <trkpt lat="43.08092" lon="0.18879">
        <ele>556.6</ele>
        <time>2020-06-30T14:40:41Z</time>
      </trkpt>
      <trkpt lat="43.08092" lon="0.18877">
        <ele>556.8</ele>
        <time>2020-06-30T14:40:42Z</time>
      </trkpt>
      <trkpt lat="43.08092" lon="0.18874">
        <ele>556.8</ele>
        <time>2020-06-30T14:40:43Z</time>
      </trkpt>
      <trkpt lat="43.08092" lon="0.18872">
        <ele>557</ele>
        <time>2020-06-30T14:40:44Z</time>
      </trkpt>
      <trkpt lat="43.08092" lon="0.18869">
        <ele>557.2</ele>
        <time>2020-06-30T14:40:45Z</time>
      </trkpt>
      <trkpt lat="43.08092" lon="0.18867">
        <ele>557.2</ele>
        <time>2020-06-30T14:40:46Z</time>
      </trkpt>
      <trkpt lat="43.08093" lon="0.18864">
        <ele>557.2</ele>
        <time>2020-06-30T14:40:47Z</time>
      </trkpt>
      <trkpt lat="43.08094" lon="0.18861">
        <ele>557.4</ele>
        <time>2020-06-30T14:40:48Z</time>
      </trkpt>
      <trkpt lat="43.08095" lon="0.18858">
        <ele>557.4</ele>
        <time>2020-06-30T14:40:49Z</time>
      </trkpt>
      <trkpt lat="43.08095" lon="0.18856">
        <ele>557.6</ele>
        <time>2020-06-30T14:40:50Z</time>
      </trkpt>
      <trkpt lat="43.08096" lon="0.18853">
        <ele>557.8</ele>
        <time>2020-06-30T14:40:51Z</time>
      </trkpt>
      <trkpt lat="43.08095" lon="0.1885">
        <ele>557.8</ele>
        <time>2020-06-30T14:40:52Z</time>
      </trkpt>
      <trkpt lat="43.08096" lon="0.18847">
        <ele>558</ele>
        <time>2020-06-30T14:40:53Z</time>
      </trkpt>
      <trkpt lat="43.08095" lon="0.18845">
        <ele>558</ele>
        <time>2020-06-30T14:40:54Z</time>
      </trkpt>
      <trkpt lat="43.08095" lon="0.18842">
        <ele>558.2</ele>
        <time>2020-06-30T14:40:55Z</time>
      </trkpt>
      <trkpt lat="43.08096" lon="0.1884">
        <ele>558.4</ele>
        <time>2020-06-30T14:40:56Z</time>
      </trkpt>
      <trkpt lat="43.08097" lon="0.18837">
        <ele>558.4</ele>
        <time>2020-06-30T14:40:57Z</time>
      </trkpt>
      <trkpt lat="43.08097" lon="0.18834">
        <ele>558.6</ele>
        <time>2020-06-30T14:40:58Z</time>
      </trkpt>
      <trkpt lat="43.08097" lon="0.18831">
        <ele>558.8</ele>
        <time>2020-06-30T14:40:59Z</time>
      </trkpt>
      <trkpt lat="43.08098" lon="0.18827">
        <ele>559</ele>
        <time>2020-06-30T14:41:00Z</time>
      </trkpt>
      <trkpt lat="43.08098" lon="0.18825">
        <ele>559</ele>
        <time>2020-06-30T14:41:01Z</time>
      </trkpt>
      <trkpt lat="43.08098" lon="0.18822">
        <ele>559.2</ele>
        <time>2020-06-30T14:41:02Z</time>
      </trkpt>
      <trkpt lat="43.08098" lon="0.18819">
        <ele>559.2</ele>
        <time>2020-06-30T14:41:03Z</time>
      </trkpt>
      <trkpt lat="43.08098" lon="0.18816">
        <ele>559.4</ele>
        <time>2020-06-30T14:41:04Z</time>
      </trkpt>
      <trkpt lat="43.08099" lon="0.18814">
        <ele>559.4</ele>
        <time>2020-06-30T14:41:05Z</time>
      </trkpt>
      <trkpt lat="43.08099" lon="0.18812">
        <ele>559.6</ele>
        <time>2020-06-30T14:41:06Z</time>
      </trkpt>
      <trkpt lat="43.08099" lon="0.18809">
        <ele>559.8</ele>
        <time>2020-06-30T14:41:07Z</time>
      </trkpt>
      <trkpt lat="43.08099" lon="0.18806">
        <ele>559.8</ele>
        <time>2020-06-30T14:41:08Z</time>
      </trkpt>
      <trkpt lat="43.08099" lon="0.18803">
        <ele>560</ele>
        <time>2020-06-30T14:41:09Z</time>
      </trkpt>
      <trkpt lat="43.08098" lon="0.18801">
        <ele>560</ele>
        <time>2020-06-30T14:41:10Z</time>
      </trkpt>
      <trkpt lat="43.08099" lon="0.18799">
        <ele>560.2</ele>
        <time>2020-06-30T14:41:11Z</time>
      </trkpt>
      <trkpt lat="43.08099" lon="0.18796">
        <ele>560.2</ele>
        <time>2020-06-30T14:41:12Z</time>
      </trkpt>
      <trkpt lat="43.081" lon="0.18793">
        <ele>560.4</ele>
        <time>2020-06-30T14:41:13Z</time>
      </trkpt>
      <trkpt lat="43.08099" lon="0.18791">
        <ele>560.4</ele>
        <time>2020-06-30T14:41:14Z</time>
      </trkpt>
      <trkpt lat="43.081" lon="0.18789">
        <ele>560.6</ele>
        <time>2020-06-30T14:41:15Z</time>
      </trkpt>
      <trkpt lat="43.081" lon="0.18785">
        <ele>560.6</ele>
        <time>2020-06-30T14:41:16Z</time>
      </trkpt>
      <trkpt lat="43.081" lon="0.18783">
        <ele>560.6</ele>
        <time>2020-06-30T14:41:17Z</time>
      </trkpt>
      <trkpt lat="43.08099" lon="0.1878">
        <ele>560.8</ele>
        <time>2020-06-30T14:41:18Z</time>
      </trkpt>
      <trkpt lat="43.08099" lon="0.18777">
        <ele>561</ele>
        <time>2020-06-30T14:41:19Z</time>
      </trkpt>
      <trkpt lat="43.08099" lon="0.18774">
        <ele>561.2</ele>
        <time>2020-06-30T14:41:20Z</time>
      </trkpt>
      <trkpt lat="43.08099" lon="0.18771">
        <ele>561.4</ele>
        <time>2020-06-30T14:41:21Z</time>
      </trkpt>
      <trkpt lat="43.08099" lon="0.18767">
        <ele>561.4</ele>
        <time>2020-06-30T14:41:22Z</time>
      </trkpt>
      <trkpt lat="43.08099" lon="0.18764">
        <ele>561.6</ele>
        <time>2020-06-30T14:41:23Z</time>
      </trkpt>
      <trkpt lat="43.08099" lon="0.18761">
        <ele>561.6</ele>
        <time>2020-06-30T14:41:24Z</time>
      </trkpt>
      <trkpt lat="43.08099" lon="0.18759">
        <ele>561.8</ele>
        <time>2020-06-30T14:41:25Z</time>
      </trkpt>
      <trkpt lat="43.08099" lon="0.18755">
        <ele>561.8</ele>
        <time>2020-06-30T14:41:26Z</time>
      </trkpt>
      <trkpt lat="43.081" lon="0.18752">
        <ele>562</ele>
        <time>2020-06-30T14:41:27Z</time>
      </trkpt>
      <trkpt lat="43.081" lon="0.1875">
        <ele>562</ele>
        <time>2020-06-30T14:41:28Z</time>
      </trkpt>
      <trkpt lat="43.081" lon="0.18746">
        <ele>562.2</ele>
        <time>2020-06-30T14:41:29Z</time>
      </trkpt>
      <trkpt lat="43.081" lon="0.18744">
        <ele>562.4</ele>
        <time>2020-06-30T14:41:30Z</time>
      </trkpt>
      <trkpt lat="43.08101" lon="0.18741">
        <ele>562.4</ele>
        <time>2020-06-30T14:41:31Z</time>
      </trkpt>
      <trkpt lat="43.08102" lon="0.18739">
        <ele>562.4</ele>
        <time>2020-06-30T14:41:32Z</time>
      </trkpt>
      <trkpt lat="43.08103" lon="0.18737">
        <ele>562.6</ele>
        <time>2020-06-30T14:41:33Z</time>
      </trkpt>
      <trkpt lat="43.08104" lon="0.18735">
        <ele>562.8</ele>
        <time>2020-06-30T14:41:34Z</time>
      </trkpt>
      <trkpt lat="43.08105" lon="0.18732">
        <ele>562.8</ele>
        <time>2020-06-30T14:41:35Z</time>
      </trkpt>
      <trkpt lat="43.08107" lon="0.18731">
        <ele>563</ele>
        <time>2020-06-30T14:41:36Z</time>
      </trkpt>
      <trkpt lat="43.08108" lon="0.18728">
        <ele>563.2</ele>
        <time>2020-06-30T14:41:37Z</time>
      </trkpt>
      <trkpt lat="43.0811" lon="0.18726">
        <ele>563.2</ele>
        <time>2020-06-30T14:41:38Z</time>
      </trkpt>
      <trkpt lat="43.08111" lon="0.18724">
        <ele>563.4</ele>
        <time>2020-06-30T14:41:39Z</time>
      </trkpt>
      <trkpt lat="43.08113" lon="0.18723">
        <ele>563.6</ele>
        <time>2020-06-30T14:41:40Z</time>
      </trkpt>
      <trkpt lat="43.08114" lon="0.18721">
        <ele>563.8</ele>
        <time>2020-06-30T14:41:41Z</time>
      </trkpt>
      <trkpt lat="43.08116" lon="0.18719">
        <ele>563.8</ele>
        <time>2020-06-30T14:41:42Z</time>
      </trkpt>
      <trkpt lat="43.08118" lon="0.18717">
        <ele>564</ele>
        <time>2020-06-30T14:41:43Z</time>
      </trkpt>
      <trkpt lat="43.08119" lon="0.18716">
        <ele>564.2</ele>
        <time>2020-06-30T14:41:44Z</time>
      </trkpt>
      <trkpt lat="43.08121" lon="0.18715">
        <ele>564.2</ele>
        <time>2020-06-30T14:41:45Z</time>
      </trkpt>
      <trkpt lat="43.08123" lon="0.18714">
        <ele>564.4</ele>
        <time>2020-06-30T14:41:46Z</time>
      </trkpt>
      <trkpt lat="43.08126" lon="0.18714">
        <ele>564.6</ele>
        <time>2020-06-30T14:41:47Z</time>
      </trkpt>
      <trkpt lat="43.08127" lon="0.18713">
        <ele>564.6</ele>
        <time>2020-06-30T14:41:48Z</time>
      </trkpt>
      <trkpt lat="43.0813" lon="0.18711">
        <ele>564.8</ele>
        <time>2020-06-30T14:41:49Z</time>
      </trkpt>
      <trkpt lat="43.08132" lon="0.18711">
        <ele>565</ele>
        <time>2020-06-30T14:41:50Z</time>
      </trkpt>
      <trkpt lat="43.08133" lon="0.1871">
        <ele>565</ele>
        <time>2020-06-30T14:41:51Z</time>
      </trkpt>
      <trkpt lat="43.08134" lon="0.18709">
        <ele>565.2</ele>
        <time>2020-06-30T14:41:52Z</time>
      </trkpt>
      <trkpt lat="43.08137" lon="0.18708">
        <ele>565.4</ele>
        <time>2020-06-30T14:41:53Z</time>
      </trkpt>
      <trkpt lat="43.08139" lon="0.18706">
        <ele>565.4</ele>
        <time>2020-06-30T14:41:54Z</time>
      </trkpt>
      <trkpt lat="43.08141" lon="0.18706">
        <ele>565.6</ele>
        <time>2020-06-30T14:41:55Z</time>
      </trkpt>
      <trkpt lat="43.08143" lon="0.18705">
        <ele>565.8</ele>
        <time>2020-06-30T14:41:56Z</time>
      </trkpt>
      <trkpt lat="43.08145" lon="0.18705">
        <ele>566</ele>
        <time>2020-06-30T14:41:57Z</time>
      </trkpt>
      <trkpt lat="43.08147" lon="0.18704">
        <ele>566</ele>
        <time>2020-06-30T14:41:58Z</time>
      </trkpt>
      <trkpt lat="43.08149" lon="0.18703">
        <ele>566.2</ele>
        <time>2020-06-30T14:41:59Z</time>
      </trkpt>
      <trkpt lat="43.0815" lon="0.18702">
        <ele>566.4</ele>
        <time>2020-06-30T14:42:00Z</time>
      </trkpt>
      <trkpt lat="43.08152" lon="0.18702">
        <ele>566.6</ele>
        <time>2020-06-30T14:42:01Z</time>
      </trkpt>
      <trkpt lat="43.08154" lon="0.187">
        <ele>566.6</ele>
        <time>2020-06-30T14:42:02Z</time>
      </trkpt>
      <trkpt lat="43.08156" lon="0.18699">
        <ele>566.8</ele>
        <time>2020-06-30T14:42:03Z</time>
      </trkpt>
      <trkpt lat="43.08158" lon="0.18698">
        <ele>566.8</ele>
        <time>2020-06-30T14:42:04Z</time>
      </trkpt>
      <trkpt lat="43.08159" lon="0.18697">
        <ele>567</ele>
        <time>2020-06-30T14:42:05Z</time>
      </trkpt>
      <trkpt lat="43.08162" lon="0.18696">
        <ele>567</ele>
        <time>2020-06-30T14:42:06Z</time>
      </trkpt>
      <trkpt lat="43.08163" lon="0.18694">
        <ele>567.2</ele>
        <time>2020-06-30T14:42:07Z</time>
      </trkpt>
      <trkpt lat="43.08165" lon="0.18692">
        <ele>567.2</ele>
        <time>2020-06-30T14:42:08Z</time>
      </trkpt>
      <trkpt lat="43.08167" lon="0.18691">
        <ele>567.2</ele>
        <time>2020-06-30T14:42:09Z</time>
      </trkpt>
      <trkpt lat="43.08168" lon="0.1869">
        <ele>567.2</ele>
        <time>2020-06-30T14:42:10Z</time>
      </trkpt>
      <trkpt lat="43.0817" lon="0.1869">
        <ele>567.2</ele>
        <time>2020-06-30T14:42:11Z</time>
      </trkpt>
      <trkpt lat="43.08171" lon="0.1869">
        <ele>567.2</ele>
        <time>2020-06-30T14:42:12Z</time>
      </trkpt>
      <trkpt lat="43.08171" lon="0.1869">
        <ele>567.2</ele>
        <time>2020-06-30T14:42:13Z</time>
      </trkpt>
      <trkpt lat="43.08172" lon="0.1869">
        <ele>567.2</ele>
        <time>2020-06-30T14:42:14Z</time>
      </trkpt>
      <trkpt lat="43.08172" lon="0.18689">
        <ele>567.6</ele>
        <time>2020-06-30T14:42:15Z</time>
      </trkpt>
      <trkpt lat="43.08172" lon="0.1869">
        <ele>567.4</ele>
        <time>2020-06-30T14:42:16Z</time>
      </trkpt>
      <trkpt lat="43.08173" lon="0.18689">
        <ele>567.4</ele>
        <time>2020-06-30T14:42:17Z</time>
      </trkpt>
      <trkpt lat="43.08174" lon="0.18688">
        <ele>567.4</ele>
        <time>2020-06-30T14:42:18Z</time>
      </trkpt>
      <trkpt lat="43.08174" lon="0.18689">
        <ele>567.4</ele>
        <time>2020-06-30T14:42:19Z</time>
      </trkpt>
      <trkpt lat="43.08176" lon="0.18685">
        <ele>567.4</ele>
        <time>2020-06-30T14:42:20Z</time>
      </trkpt>
      <trkpt lat="43.08174" lon="0.18689">
        <ele>567.4</ele>
        <time>2020-06-30T14:42:21Z</time>
      </trkpt>
      <trkpt lat="43.08175" lon="0.1869">
        <ele>567.2</ele>
        <time>2020-06-30T14:42:30Z</time>
      </trkpt>
      <trkpt lat="43.08175" lon="0.1869">
        <ele>567.4</ele>
        <time>2020-06-30T14:42:31Z</time>
      </trkpt>
      <trkpt lat="43.08176" lon="0.18688">
        <ele>567.4</ele>
        <time>2020-06-30T14:42:32Z</time>
      </trkpt>
      <trkpt lat="43.08176" lon="0.18688">
        <ele>567.4</ele>
        <time>2020-06-30T14:42:33Z</time>
      </trkpt>
      <trkpt lat="43.08176" lon="0.18688">
        <ele>567.4</ele>
        <time>2020-06-30T14:42:34Z</time>
      </trkpt>
      <trkpt lat="43.08176" lon="0.18688">
        <ele>567.4</ele>
        <time>2020-06-30T14:42:35Z</time>
      </trkpt>
      <trkpt lat="43.08175" lon="0.18688">
        <ele>567.2</ele>
        <time>2020-06-30T14:42:36Z</time>
      </trkpt>
      <trkpt lat="43.08175" lon="0.18686">
        <ele>567.2</ele>
        <time>2020-06-30T14:42:37Z</time>
      </trkpt>
      <trkpt lat="43.08176" lon="0.18686">
        <ele>567.2</ele>
        <time>2020-06-30T14:42:38Z</time>
      </trkpt>
      <trkpt lat="43.08176" lon="0.18686">
        <ele>567.2</ele>
        <time>2020-06-30T14:42:39Z</time>
      </trkpt>
      <trkpt lat="43.08176" lon="0.18686">
        <ele>567.2</ele>
        <time>2020-06-30T14:42:40Z</time>
      </trkpt>
      <trkpt lat="43.08176" lon="0.18686">
        <ele>567.2</ele>
        <time>2020-06-30T14:42:41Z</time>
      </trkpt>
      <trkpt lat="43.08175" lon="0.18687">
        <ele>567.2</ele>
        <time>2020-06-30T14:42:42Z</time>
      </trkpt>
      <trkpt lat="43.08175" lon="0.18687">
        <ele>567.2</ele>
        <time>2020-06-30T14:42:43Z</time>
      </trkpt>
      <trkpt lat="43.08175" lon="0.18688">
        <ele>567.2</ele>
        <time>2020-06-30T14:42:44Z</time>
      </trkpt>
      <trkpt lat="43.08174" lon="0.18688">
        <ele>567.2</ele>
        <time>2020-06-30T14:42:45Z</time>
      </trkpt>
      <trkpt lat="43.08174" lon="0.18688">
        <ele>567.2</ele>
        <time>2020-06-30T14:42:46Z</time>
      </trkpt>
      <trkpt lat="43.08169" lon="0.18685">
        <ele>566</ele>
        <time>2020-06-30T14:59:44Z</time>
      </trkpt>
      <trkpt lat="43.08168" lon="0.18685">
        <ele>566</ele>
        <time>2020-06-30T14:59:45Z</time>
      </trkpt>
      <trkpt lat="43.08168" lon="0.18683">
        <ele>565.8</ele>
        <time>2020-06-30T14:59:46Z</time>
      </trkpt>
      <trkpt lat="43.08168" lon="0.18681">
        <ele>566</ele>
        <time>2020-06-30T14:59:47Z</time>
      </trkpt>
      <trkpt lat="43.08169" lon="0.18679">
        <ele>565.8</ele>
        <time>2020-06-30T14:59:48Z</time>
      </trkpt>
      <trkpt lat="43.08169" lon="0.18676">
        <ele>565.8</ele>
        <time>2020-06-30T14:59:49Z</time>
      </trkpt>
      <trkpt lat="43.08169" lon="0.18673">
        <ele>565.8</ele>
        <time>2020-06-30T14:59:50Z</time>
      </trkpt>
      <trkpt lat="43.0817" lon="0.18669">
        <ele>565.6</ele>
        <time>2020-06-30T14:59:51Z</time>
      </trkpt>
      <trkpt lat="43.08171" lon="0.18665">
        <ele>565.6</ele>
        <time>2020-06-30T14:59:52Z</time>
      </trkpt>
      <trkpt lat="43.08172" lon="0.18661">
        <ele>565.4</ele>
        <time>2020-06-30T14:59:53Z</time>
      </trkpt>
      <trkpt lat="43.08172" lon="0.18656">
        <ele>565.4</ele>
        <time>2020-06-30T14:59:54Z</time>
      </trkpt>
      <trkpt lat="43.08172" lon="0.18652">
        <ele>565.2</ele>
        <time>2020-06-30T14:59:55Z</time>
      </trkpt>
      <trkpt lat="43.08171" lon="0.18647">
        <ele>565.2</ele>
        <time>2020-06-30T14:59:56Z</time>
      </trkpt>
      <trkpt lat="43.08171" lon="0.18642">
        <ele>565.2</ele>
        <time>2020-06-30T14:59:57Z</time>
      </trkpt>
      <trkpt lat="43.08171" lon="0.18636">
        <ele>565</ele>
        <time>2020-06-30T14:59:58Z</time>
      </trkpt>
      <trkpt lat="43.0817" lon="0.18631">
        <ele>565</ele>
        <time>2020-06-30T14:59:59Z</time>
      </trkpt>
      <trkpt lat="43.0817" lon="0.18626">
        <ele>564.8</ele>
        <time>2020-06-30T15:00:00Z</time>
      </trkpt>
      <trkpt lat="43.0817" lon="0.1862">
        <ele>564.8</ele>
        <time>2020-06-30T15:00:01Z</time>
      </trkpt>
      <trkpt lat="43.08169" lon="0.18615">
        <ele>564.6</ele>
        <time>2020-06-30T15:00:02Z</time>
      </trkpt>
      <trkpt lat="43.08169" lon="0.1861">
        <ele>564.6</ele>
        <time>2020-06-30T15:00:03Z</time>
      </trkpt>
      <trkpt lat="43.08168" lon="0.18604">
        <ele>564.4</ele>
        <time>2020-06-30T15:00:04Z</time>
      </trkpt>
      <trkpt lat="43.08168" lon="0.18599">
        <ele>564.4</ele>
        <time>2020-06-30T15:00:05Z</time>
      </trkpt>
      <trkpt lat="43.08167" lon="0.18593">
        <ele>564.2</ele>
        <time>2020-06-30T15:00:06Z</time>
      </trkpt>
      <trkpt lat="43.08166" lon="0.18587">
        <ele>564.2</ele>
        <time>2020-06-30T15:00:07Z</time>
      </trkpt>
      <trkpt lat="43.08165" lon="0.18581">
        <ele>564.2</ele>
        <time>2020-06-30T15:00:08Z</time>
      </trkpt>
      <trkpt lat="43.08164" lon="0.18576">
        <ele>563.8</ele>
        <time>2020-06-30T15:00:09Z</time>
      </trkpt>
      <trkpt lat="43.08163" lon="0.18569">
        <ele>563.6</ele>
        <time>2020-06-30T15:00:10Z</time>
      </trkpt>
      <trkpt lat="43.08162" lon="0.18563">
        <ele>563.6</ele>
        <time>2020-06-30T15:00:11Z</time>
      </trkpt>
      <trkpt lat="43.0816" lon="0.18556">
        <ele>563.6</ele>
        <time>2020-06-30T15:00:12Z</time>
      </trkpt>
      <trkpt lat="43.08159" lon="0.18549">
        <ele>563.4</ele>
        <time>2020-06-30T15:00:13Z</time>
      </trkpt>
      <trkpt lat="43.08158" lon="0.18542">
        <ele>563.2</ele>
        <time>2020-06-30T15:00:14Z</time>
      </trkpt>
      <trkpt lat="43.08157" lon="0.18534">
        <ele>563</ele>
        <time>2020-06-30T15:00:15Z</time>
      </trkpt>
      <trkpt lat="43.08156" lon="0.18526">
        <ele>562.8</ele>
        <time>2020-06-30T15:00:16Z</time>
      </trkpt>
      <trkpt lat="43.08156" lon="0.18518">
        <ele>562.6</ele>
        <time>2020-06-30T15:00:17Z</time>
      </trkpt>
      <trkpt lat="43.08156" lon="0.1851">
        <ele>562.4</ele>
        <time>2020-06-30T15:00:18Z</time>
      </trkpt>
      <trkpt lat="43.08156" lon="0.18501">
        <ele>562.2</ele>
        <time>2020-06-30T15:00:19Z</time>
      </trkpt>
      <trkpt lat="43.08157" lon="0.18493">
        <ele>562.4</ele>
        <time>2020-06-30T15:00:20Z</time>
      </trkpt>
      <trkpt lat="43.08157" lon="0.18485">
        <ele>562.2</ele>
        <time>2020-06-30T15:00:21Z</time>
      </trkpt>
      <trkpt lat="43.08157" lon="0.18477">
        <ele>562.2</ele>
        <time>2020-06-30T15:00:22Z</time>
      </trkpt>
      <trkpt lat="43.08156" lon="0.18469">
        <ele>562</ele>
        <time>2020-06-30T15:00:23Z</time>
      </trkpt>
      <trkpt lat="43.08154" lon="0.18461">
        <ele>561.8</ele>
        <time>2020-06-30T15:00:24Z</time>
      </trkpt>
      <trkpt lat="43.08151" lon="0.18452">
        <ele>561.6</ele>
        <time>2020-06-30T15:00:25Z</time>
      </trkpt>
      <trkpt lat="43.08147" lon="0.18444">
        <ele>561.6</ele>
        <time>2020-06-30T15:00:26Z</time>
      </trkpt>
      <trkpt lat="43.08143" lon="0.18437">
        <ele>561.2</ele>
        <time>2020-06-30T15:00:27Z</time>
      </trkpt>
      <trkpt lat="43.08139" lon="0.18429">
        <ele>561</ele>
        <time>2020-06-30T15:00:28Z</time>
      </trkpt>
      <trkpt lat="43.08134" lon="0.18421">
        <ele>561</ele>
        <time>2020-06-30T15:00:29Z</time>
      </trkpt>
      <trkpt lat="43.08129" lon="0.18414">
        <ele>560.8</ele>
        <time>2020-06-30T15:00:30Z</time>
      </trkpt>
      <trkpt lat="43.08125" lon="0.18406">
        <ele>560.8</ele>
        <time>2020-06-30T15:00:31Z</time>
      </trkpt>
      <trkpt lat="43.08121" lon="0.18398">
        <ele>560.6</ele>
        <time>2020-06-30T15:00:32Z</time>
      </trkpt>
      <trkpt lat="43.08117" lon="0.18391">
        <ele>560.6</ele>
        <time>2020-06-30T15:00:33Z</time>
      </trkpt>
      <trkpt lat="43.08112" lon="0.18384">
        <ele>560.4</ele>
        <time>2020-06-30T15:00:34Z</time>
      </trkpt>
      <trkpt lat="43.08108" lon="0.18377">
        <ele>560.2</ele>
        <time>2020-06-30T15:00:35Z</time>
      </trkpt>
      <trkpt lat="43.08103" lon="0.1837">
        <ele>560</ele>
        <time>2020-06-30T15:00:36Z</time>
      </trkpt>
      <trkpt lat="43.081" lon="0.18362">
        <ele>559.8</ele>
        <time>2020-06-30T15:00:37Z</time>
      </trkpt>
      <trkpt lat="43.08096" lon="0.18353">
        <ele>560</ele>
        <time>2020-06-30T15:00:38Z</time>
      </trkpt>
      <trkpt lat="43.08093" lon="0.18345">
        <ele>559.8</ele>
        <time>2020-06-30T15:00:39Z</time>
      </trkpt>
      <trkpt lat="43.0809" lon="0.18338">
        <ele>559.8</ele>
        <time>2020-06-30T15:00:40Z</time>
      </trkpt>
      <trkpt lat="43.08088" lon="0.18332">
        <ele>559.6</ele>
        <time>2020-06-30T15:00:41Z</time>
      </trkpt>
      <trkpt lat="43.08087" lon="0.18326">
        <ele>559.4</ele>
        <time>2020-06-30T15:00:42Z</time>
      </trkpt>
      <trkpt lat="43.08085" lon="0.18319">
        <ele>559.2</ele>
        <time>2020-06-30T15:00:43Z</time>
      </trkpt>
      <trkpt lat="43.08084" lon="0.18312">
        <ele>558.8</ele>
        <time>2020-06-30T15:00:44Z</time>
      </trkpt>
      <trkpt lat="43.08084" lon="0.18301">
        <ele>558.6</ele>
        <time>2020-06-30T15:00:45Z</time>
      </trkpt>
      <trkpt lat="43.08084" lon="0.1829">
        <ele>558.2</ele>
        <time>2020-06-30T15:00:46Z</time>
      </trkpt>
      <trkpt lat="43.08086" lon="0.18279">
        <ele>558.2</ele>
        <time>2020-06-30T15:00:47Z</time>
      </trkpt>
      <trkpt lat="43.08087" lon="0.18268">
        <ele>558</ele>
        <time>2020-06-30T15:00:48Z</time>
      </trkpt>
      <trkpt lat="43.08086" lon="0.18257">
        <ele>557.8</ele>
        <time>2020-06-30T15:00:49Z</time>
      </trkpt>
      <trkpt lat="43.08083" lon="0.18246">
        <ele>557.6</ele>
        <time>2020-06-30T15:00:50Z</time>
      </trkpt>
      <trkpt lat="43.08077" lon="0.18236">
        <ele>557.4</ele>
        <time>2020-06-30T15:00:51Z</time>
      </trkpt>
      <trkpt lat="43.08072" lon="0.18228">
        <ele>557.4</ele>
        <time>2020-06-30T15:00:52Z</time>
      </trkpt>
      <trkpt lat="43.08066" lon="0.1822">
        <ele>557</ele>
        <time>2020-06-30T15:00:53Z</time>
      </trkpt>
      <trkpt lat="43.08062" lon="0.18214">
        <ele>557</ele>
        <time>2020-06-30T15:00:54Z</time>
      </trkpt>
      <trkpt lat="43.08055" lon="0.18208">
        <ele>557</ele>
        <time>2020-06-30T15:00:55Z</time>
      </trkpt>
      <trkpt lat="43.0805" lon="0.18204">
        <ele>556.8</ele>
        <time>2020-06-30T15:00:56Z</time>
      </trkpt>
      <trkpt lat="43.08043" lon="0.18202">
        <ele>556.6</ele>
        <time>2020-06-30T15:00:57Z</time>
      </trkpt>
      <trkpt lat="43.08037" lon="0.18197">
        <ele>556.4</ele>
        <time>2020-06-30T15:00:58Z</time>
      </trkpt>
      <trkpt lat="43.08028" lon="0.1819">
        <ele>556</ele>
        <time>2020-06-30T15:00:59Z</time>
      </trkpt>
      <trkpt lat="43.08023" lon="0.18181">
        <ele>556</ele>
        <time>2020-06-30T15:01:00Z</time>
      </trkpt>
      <trkpt lat="43.08021" lon="0.18176">
        <ele>555.8</ele>
        <time>2020-06-30T15:01:01Z</time>
      </trkpt>
      <trkpt lat="43.0802" lon="0.1817">
        <ele>555.8</ele>
        <time>2020-06-30T15:01:02Z</time>
      </trkpt>
      <trkpt lat="43.0802" lon="0.18164">
        <ele>555.6</ele>
        <time>2020-06-30T15:01:03Z</time>
      </trkpt>
      <trkpt lat="43.08018" lon="0.18159">
        <ele>555.4</ele>
        <time>2020-06-30T15:01:04Z</time>
      </trkpt>
      <trkpt lat="43.08016" lon="0.18153">
        <ele>555.2</ele>
        <time>2020-06-30T15:01:05Z</time>
      </trkpt>
      <trkpt lat="43.08014" lon="0.18145">
        <ele>555.2</ele>
        <time>2020-06-30T15:01:06Z</time>
      </trkpt>
      <trkpt lat="43.0801" lon="0.18137">
        <ele>555</ele>
        <time>2020-06-30T15:01:07Z</time>
      </trkpt>
      <trkpt lat="43.08006" lon="0.18126">
        <ele>555</ele>
        <time>2020-06-30T15:01:08Z</time>
      </trkpt>
      <trkpt lat="43.08001" lon="0.18118">
        <ele>554.6</ele>
        <time>2020-06-30T15:01:09Z</time>
      </trkpt>
      <trkpt lat="43.07996" lon="0.18109">
        <ele>554.4</ele>
        <time>2020-06-30T15:01:10Z</time>
      </trkpt>
      <trkpt lat="43.0799" lon="0.18104">
        <ele>554.2</ele>
        <time>2020-06-30T15:01:11Z</time>
      </trkpt>
      <trkpt lat="43.07985" lon="0.18098">
        <ele>554</ele>
        <time>2020-06-30T15:01:12Z</time>
      </trkpt>
      <trkpt lat="43.07979" lon="0.18092">
        <ele>553.8</ele>
        <time>2020-06-30T15:01:13Z</time>
      </trkpt>
      <trkpt lat="43.07971" lon="0.18087">
        <ele>553.6</ele>
        <time>2020-06-30T15:01:14Z</time>
      </trkpt>
      <trkpt lat="43.07964" lon="0.18086">
        <ele>553.6</ele>
        <time>2020-06-30T15:01:15Z</time>
      </trkpt>
      <trkpt lat="43.07956" lon="0.18082">
        <ele>553.6</ele>
        <time>2020-06-30T15:01:16Z</time>
      </trkpt>
      <trkpt lat="43.07948" lon="0.18079">
        <ele>553.4</ele>
        <time>2020-06-30T15:01:17Z</time>
      </trkpt>
      <trkpt lat="43.07941" lon="0.18072">
        <ele>553.2</ele>
        <time>2020-06-30T15:01:18Z</time>
      </trkpt>
      <trkpt lat="43.07933" lon="0.18069">
        <ele>553</ele>
        <time>2020-06-30T15:01:19Z</time>
      </trkpt>
      <trkpt lat="43.07926" lon="0.18063">
        <ele>552.8</ele>
        <time>2020-06-30T15:01:20Z</time>
      </trkpt>
      <trkpt lat="43.0792" lon="0.18058">
        <ele>552.6</ele>
        <time>2020-06-30T15:01:21Z</time>
      </trkpt>
      <trkpt lat="43.07912" lon="0.18054">
        <ele>552.4</ele>
        <time>2020-06-30T15:01:22Z</time>
      </trkpt>
      <trkpt lat="43.07906" lon="0.18048">
        <ele>552.2</ele>
        <time>2020-06-30T15:01:23Z</time>
      </trkpt>
      <trkpt lat="43.07901" lon="0.18045">
        <ele>552.2</ele>
        <time>2020-06-30T15:01:24Z</time>
      </trkpt>
      <trkpt lat="43.07895" lon="0.1804">
        <ele>552</ele>
        <time>2020-06-30T15:01:25Z</time>
      </trkpt>
      <trkpt lat="43.07889" lon="0.18036">
        <ele>551.8</ele>
        <time>2020-06-30T15:01:26Z</time>
      </trkpt>
      <trkpt lat="43.07883" lon="0.18028">
        <ele>551.6</ele>
        <time>2020-06-30T15:01:27Z</time>
      </trkpt>
      <trkpt lat="43.07877" lon="0.18023">
        <ele>551.6</ele>
        <time>2020-06-30T15:01:28Z</time>
      </trkpt>
      <trkpt lat="43.07871" lon="0.18018">
        <ele>551.6</ele>
        <time>2020-06-30T15:01:29Z</time>
      </trkpt>
      <trkpt lat="43.07863" lon="0.18015">
        <ele>551.4</ele>
        <time>2020-06-30T15:01:30Z</time>
      </trkpt>
      <trkpt lat="43.07857" lon="0.18013">
        <ele>551</ele>
        <time>2020-06-30T15:01:31Z</time>
      </trkpt>
      <trkpt lat="43.0785" lon="0.1801">
        <ele>551</ele>
        <time>2020-06-30T15:01:32Z</time>
      </trkpt>
      <trkpt lat="43.07844" lon="0.1801">
        <ele>550.8</ele>
        <time>2020-06-30T15:01:33Z</time>
      </trkpt>
      <trkpt lat="43.07838" lon="0.18009">
        <ele>550.8</ele>
        <time>2020-06-30T15:01:34Z</time>
      </trkpt>
      <trkpt lat="43.07832" lon="0.18008">
        <ele>550.6</ele>
        <time>2020-06-30T15:01:35Z</time>
      </trkpt>
      <trkpt lat="43.07824" lon="0.18007">
        <ele>550.4</ele>
        <time>2020-06-30T15:01:36Z</time>
      </trkpt>
      <trkpt lat="43.07816" lon="0.18005">
        <ele>550</ele>
        <time>2020-06-30T15:01:37Z</time>
      </trkpt>
      <trkpt lat="43.0781" lon="0.18004">
        <ele>550</ele>
        <time>2020-06-30T15:01:38Z</time>
      </trkpt>
      <trkpt lat="43.07802" lon="0.18005">
        <ele>549.6</ele>
        <time>2020-06-30T15:01:39Z</time>
      </trkpt>
      <trkpt lat="43.07794" lon="0.18004">
        <ele>549.4</ele>
        <time>2020-06-30T15:01:40Z</time>
      </trkpt>
      <trkpt lat="43.07786" lon="0.18003">
        <ele>549</ele>
        <time>2020-06-30T15:01:41Z</time>
      </trkpt>
      <trkpt lat="43.07778" lon="0.17999">
        <ele>548.8</ele>
        <time>2020-06-30T15:01:42Z</time>
      </trkpt>
      <trkpt lat="43.0777" lon="0.17997">
        <ele>548.6</ele>
        <time>2020-06-30T15:01:43Z</time>
      </trkpt>
      <trkpt lat="43.07763" lon="0.17994">
        <ele>548.6</ele>
        <time>2020-06-30T15:01:44Z</time>
      </trkpt>
      <trkpt lat="43.07754" lon="0.17993">
        <ele>548.4</ele>
        <time>2020-06-30T15:01:45Z</time>
      </trkpt>
      <trkpt lat="43.07748" lon="0.17993">
        <ele>548.2</ele>
        <time>2020-06-30T15:01:46Z</time>
      </trkpt>
      <trkpt lat="43.07739" lon="0.17989">
        <ele>548</ele>
        <time>2020-06-30T15:01:47Z</time>
      </trkpt>
      <trkpt lat="43.07733" lon="0.17984">
        <ele>547.6</ele>
        <time>2020-06-30T15:01:48Z</time>
      </trkpt>
      <trkpt lat="43.07729" lon="0.17978">
        <ele>547.2</ele>
        <time>2020-06-30T15:01:49Z</time>
      </trkpt>
      <trkpt lat="43.07724" lon="0.17974">
        <ele>547.2</ele>
        <time>2020-06-30T15:01:50Z</time>
      </trkpt>
      <trkpt lat="43.0772" lon="0.17964">
        <ele>547</ele>
        <time>2020-06-30T15:01:51Z</time>
      </trkpt>
      <trkpt lat="43.07719" lon="0.17957">
        <ele>547</ele>
        <time>2020-06-30T15:01:52Z</time>
      </trkpt>
      <trkpt lat="43.07716" lon="0.17948">
        <ele>546.8</ele>
        <time>2020-06-30T15:01:53Z</time>
      </trkpt>
      <trkpt lat="43.07714" lon="0.17939">
        <ele>546.6</ele>
        <time>2020-06-30T15:01:54Z</time>
      </trkpt>
      <trkpt lat="43.07711" lon="0.17935">
        <ele>546.4</ele>
        <time>2020-06-30T15:01:55Z</time>
      </trkpt>
      <trkpt lat="43.07706" lon="0.17926">
        <ele>546.4</ele>
        <time>2020-06-30T15:01:56Z</time>
      </trkpt>
      <trkpt lat="43.07702" lon="0.17916">
        <ele>546.2</ele>
        <time>2020-06-30T15:01:57Z</time>
      </trkpt>
      <trkpt lat="43.07696" lon="0.17911">
        <ele>546</ele>
        <time>2020-06-30T15:01:58Z</time>
      </trkpt>
      <trkpt lat="43.07691" lon="0.17905">
        <ele>545.6</ele>
        <time>2020-06-30T15:01:59Z</time>
      </trkpt>
      <trkpt lat="43.07685" lon="0.17899">
        <ele>545.6</ele>
        <time>2020-06-30T15:02:00Z</time>
      </trkpt>
      <trkpt lat="43.07681" lon="0.17892">
        <ele>545.2</ele>
        <time>2020-06-30T15:02:01Z</time>
      </trkpt>
      <trkpt lat="43.07677" lon="0.1788">
        <ele>545</ele>
        <time>2020-06-30T15:02:02Z</time>
      </trkpt>
      <trkpt lat="43.07675" lon="0.17872">
        <ele>545</ele>
        <time>2020-06-30T15:02:03Z</time>
      </trkpt>
      <trkpt lat="43.07674" lon="0.17863">
        <ele>545</ele>
        <time>2020-06-30T15:02:04Z</time>
      </trkpt>
      <trkpt lat="43.07676" lon="0.17854">
        <ele>545.2</ele>
        <time>2020-06-30T15:02:05Z</time>
      </trkpt>
      <trkpt lat="43.07675" lon="0.17845">
        <ele>545.2</ele>
        <time>2020-06-30T15:02:06Z</time>
      </trkpt>
      <trkpt lat="43.07676" lon="0.17838">
        <ele>545.4</ele>
        <time>2020-06-30T15:02:07Z</time>
      </trkpt>
      <trkpt lat="43.07676" lon="0.17831">
        <ele>545.4</ele>
        <time>2020-06-30T15:02:08Z</time>
      </trkpt>
      <trkpt lat="43.07676" lon="0.17826">
        <ele>545.4</ele>
        <time>2020-06-30T15:02:09Z</time>
      </trkpt>
      <trkpt lat="43.07676" lon="0.17818">
        <ele>545.4</ele>
        <time>2020-06-30T15:02:10Z</time>
      </trkpt>
      <trkpt lat="43.07674" lon="0.1781">
        <ele>545.4</ele>
        <time>2020-06-30T15:02:11Z</time>
      </trkpt>
      <trkpt lat="43.07672" lon="0.17803">
        <ele>545.4</ele>
        <time>2020-06-30T15:02:12Z</time>
      </trkpt>
      <trkpt lat="43.07669" lon="0.17794">
        <ele>545.4</ele>
        <time>2020-06-30T15:02:13Z</time>
      </trkpt>
      <trkpt lat="43.07667" lon="0.17788">
        <ele>545.4</ele>
        <time>2020-06-30T15:02:14Z</time>
      </trkpt>
      <trkpt lat="43.07665" lon="0.17782">
        <ele>545.2</ele>
        <time>2020-06-30T15:02:15Z</time>
      </trkpt>
      <trkpt lat="43.07662" lon="0.17776">
        <ele>544.8</ele>
        <time>2020-06-30T15:02:16Z</time>
      </trkpt>
      <trkpt lat="43.07662" lon="0.17769">
        <ele>544.4</ele>
        <time>2020-06-30T15:02:17Z</time>
      </trkpt>
      <trkpt lat="43.0766" lon="0.17762">
        <ele>544</ele>
        <time>2020-06-30T15:02:18Z</time>
      </trkpt>
      <trkpt lat="43.07657" lon="0.17754">
        <ele>543.6</ele>
        <time>2020-06-30T15:02:19Z</time>
      </trkpt>
      <trkpt lat="43.07654" lon="0.17746">
        <ele>543.2</ele>
        <time>2020-06-30T15:02:20Z</time>
      </trkpt>
      <trkpt lat="43.07653" lon="0.17737">
        <ele>542.8</ele>
        <time>2020-06-30T15:02:21Z</time>
      </trkpt>
      <trkpt lat="43.07654" lon="0.17729">
        <ele>542.4</ele>
        <time>2020-06-30T15:02:22Z</time>
      </trkpt>
      <trkpt lat="43.07654" lon="0.17718">
        <ele>542</ele>
        <time>2020-06-30T15:02:23Z</time>
      </trkpt>
      <trkpt lat="43.07656" lon="0.1771">
        <ele>541.6</ele>
        <time>2020-06-30T15:02:24Z</time>
      </trkpt>
      <trkpt lat="43.07656" lon="0.17702">
        <ele>541.2</ele>
        <time>2020-06-30T15:02:25Z</time>
      </trkpt>
      <trkpt lat="43.0766" lon="0.17699">
        <ele>541.2</ele>
        <time>2020-06-30T15:02:26Z</time>
      </trkpt>
      <trkpt lat="43.07664" lon="0.17696">
        <ele>541.2</ele>
        <time>2020-06-30T15:02:27Z</time>
      </trkpt>
      <trkpt lat="43.07669" lon="0.17695">
        <ele>541.4</ele>
        <time>2020-06-30T15:02:28Z</time>
      </trkpt>
      <trkpt lat="43.07673" lon="0.17695">
        <ele>541.6</ele>
        <time>2020-06-30T15:02:29Z</time>
      </trkpt>
      <trkpt lat="43.07677" lon="0.17696">
        <ele>541.8</ele>
        <time>2020-06-30T15:02:30Z</time>
      </trkpt>
      <trkpt lat="43.07681" lon="0.17698">
        <ele>542.2</ele>
        <time>2020-06-30T15:02:31Z</time>
      </trkpt>
      <trkpt lat="43.07684" lon="0.17701">
        <ele>542.4</ele>
        <time>2020-06-30T15:02:32Z</time>
      </trkpt>
      <trkpt lat="43.07686" lon="0.17703">
        <ele>542.4</ele>
        <time>2020-06-30T15:02:33Z</time>
      </trkpt>
      <trkpt lat="43.07689" lon="0.17704">
        <ele>542.8</ele>
        <time>2020-06-30T15:02:34Z</time>
      </trkpt>
      <trkpt lat="43.07692" lon="0.17705">
        <ele>543</ele>
        <time>2020-06-30T15:02:35Z</time>
      </trkpt>
      <trkpt lat="43.07694" lon="0.17708">
        <ele>543.2</ele>
        <time>2020-06-30T15:02:36Z</time>
      </trkpt>
      <trkpt lat="43.07695" lon="0.17709">
        <ele>543.4</ele>
        <time>2020-06-30T15:02:37Z</time>
      </trkpt>
      <trkpt lat="43.07697" lon="0.1771">
        <ele>543.6</ele>
        <time>2020-06-30T15:02:38Z</time>
      </trkpt>
      <trkpt lat="43.07698" lon="0.17711">
        <ele>543.8</ele>
        <time>2020-06-30T15:02:39Z</time>
      </trkpt>
      <trkpt lat="43.077" lon="0.17713">
        <ele>543.8</ele>
        <time>2020-06-30T15:02:40Z</time>
      </trkpt>
      <trkpt lat="43.07702" lon="0.17714">
        <ele>544.2</ele>
        <time>2020-06-30T15:02:41Z</time>
      </trkpt>
      <trkpt lat="43.07704" lon="0.17715">
        <ele>544.2</ele>
        <time>2020-06-30T15:02:42Z</time>
      </trkpt>
      <trkpt lat="43.07706" lon="0.17715">
        <ele>544.4</ele>
        <time>2020-06-30T15:02:43Z</time>
      </trkpt>
      <trkpt lat="43.07708" lon="0.17716">
        <ele>544.6</ele>
        <time>2020-06-30T15:02:44Z</time>
      </trkpt>
      <trkpt lat="43.07708" lon="0.17717">
        <ele>544.6</ele>
        <time>2020-06-30T15:02:45Z</time>
      </trkpt>
      <trkpt lat="43.07709" lon="0.17718">
        <ele>544.8</ele>
        <time>2020-06-30T15:02:46Z</time>
      </trkpt>
      <trkpt lat="43.0771" lon="0.17718">
        <ele>545</ele>
        <time>2020-06-30T15:02:47Z</time>
      </trkpt>
      <trkpt lat="43.07711" lon="0.1772">
        <ele>545</ele>
        <time>2020-06-30T15:02:48Z</time>
      </trkpt>
      <trkpt lat="43.07712" lon="0.17721">
        <ele>545.2</ele>
        <time>2020-06-30T15:02:49Z</time>
      </trkpt>
      <trkpt lat="43.07713" lon="0.17723">
        <ele>545.4</ele>
        <time>2020-06-30T15:02:50Z</time>
      </trkpt>
      <trkpt lat="43.07715" lon="0.17724">
        <ele>545.6</ele>
        <time>2020-06-30T15:02:51Z</time>
      </trkpt>
      <trkpt lat="43.07716" lon="0.17726">
        <ele>545.6</ele>
        <time>2020-06-30T15:02:52Z</time>
      </trkpt>
      <trkpt lat="43.07715" lon="0.17727">
        <ele>545.8</ele>
        <time>2020-06-30T15:02:53Z</time>
      </trkpt>
      <trkpt lat="43.07717" lon="0.17729">
        <ele>546</ele>
        <time>2020-06-30T15:02:54Z</time>
      </trkpt>
      <trkpt lat="43.07718" lon="0.17731">
        <ele>546</ele>
        <time>2020-06-30T15:02:55Z</time>
      </trkpt>
      <trkpt lat="43.07719" lon="0.17733">
        <ele>546.2</ele>
        <time>2020-06-30T15:02:56Z</time>
      </trkpt>
      <trkpt lat="43.0772" lon="0.17734">
        <ele>546.4</ele>
        <time>2020-06-30T15:02:57Z</time>
      </trkpt>
      <trkpt lat="43.0772" lon="0.17735">
        <ele>546.6</ele>
        <time>2020-06-30T15:02:58Z</time>
      </trkpt>
      <trkpt lat="43.0772" lon="0.17737">
        <ele>546.8</ele>
        <time>2020-06-30T15:02:59Z</time>
      </trkpt>
      <trkpt lat="43.07721" lon="0.17738">
        <ele>546.8</ele>
        <time>2020-06-30T15:03:00Z</time>
      </trkpt>
      <trkpt lat="43.0772" lon="0.17739">
        <ele>546.8</ele>
        <time>2020-06-30T15:03:01Z</time>
      </trkpt>
      <trkpt lat="43.07721" lon="0.1774">
        <ele>547</ele>
        <time>2020-06-30T15:03:02Z</time>
      </trkpt>
      <trkpt lat="43.07722" lon="0.17742">
        <ele>547.2</ele>
        <time>2020-06-30T15:03:03Z</time>
      </trkpt>
      <trkpt lat="43.07723" lon="0.17743">
        <ele>547.2</ele>
        <time>2020-06-30T15:03:04Z</time>
      </trkpt>
      <trkpt lat="43.07725" lon="0.17745">
        <ele>547.4</ele>
        <time>2020-06-30T15:03:05Z</time>
      </trkpt>
      <trkpt lat="43.07726" lon="0.17746">
        <ele>547.4</ele>
        <time>2020-06-30T15:03:06Z</time>
      </trkpt>
      <trkpt lat="43.07726" lon="0.17747">
        <ele>547.6</ele>
        <time>2020-06-30T15:03:07Z</time>
      </trkpt>
      <trkpt lat="43.07726" lon="0.17748">
        <ele>547.6</ele>
        <time>2020-06-30T15:03:08Z</time>
      </trkpt>
      <trkpt lat="43.07727" lon="0.17749">
        <ele>547.8</ele>
        <time>2020-06-30T15:03:09Z</time>
      </trkpt>
      <trkpt lat="43.07726" lon="0.1775">
        <ele>548</ele>
        <time>2020-06-30T15:03:10Z</time>
      </trkpt>
      <trkpt lat="43.07726" lon="0.17751">
        <ele>548</ele>
        <time>2020-06-30T15:03:11Z</time>
      </trkpt>
      <trkpt lat="43.07726" lon="0.17751">
        <ele>548.2</ele>
        <time>2020-06-30T15:03:12Z</time>
      </trkpt>
      <trkpt lat="43.07727" lon="0.17752">
        <ele>548.4</ele>
        <time>2020-06-30T15:03:13Z</time>
      </trkpt>
      <trkpt lat="43.07728" lon="0.17754">
        <ele>548.4</ele>
        <time>2020-06-30T15:03:14Z</time>
      </trkpt>
      <trkpt lat="43.07727" lon="0.17756">
        <ele>548.6</ele>
        <time>2020-06-30T15:03:15Z</time>
      </trkpt>
      <trkpt lat="43.07728" lon="0.17758">
        <ele>548.6</ele>
        <time>2020-06-30T15:03:16Z</time>
      </trkpt>
      <trkpt lat="43.07728" lon="0.1776">
        <ele>548.8</ele>
        <time>2020-06-30T15:03:17Z</time>
      </trkpt>
      <trkpt lat="43.07728" lon="0.17762">
        <ele>549</ele>
        <time>2020-06-30T15:03:18Z</time>
      </trkpt>
      <trkpt lat="43.0773" lon="0.17764">
        <ele>549</ele>
        <time>2020-06-30T15:03:19Z</time>
      </trkpt>
      <trkpt lat="43.07731" lon="0.17765">
        <ele>549.2</ele>
        <time>2020-06-30T15:03:20Z</time>
      </trkpt>
      <trkpt lat="43.07732" lon="0.17767">
        <ele>549.2</ele>
        <time>2020-06-30T15:03:21Z</time>
      </trkpt>
      <trkpt lat="43.07733" lon="0.17768">
        <ele>549.4</ele>
        <time>2020-06-30T15:03:22Z</time>
      </trkpt>
      <trkpt lat="43.07733" lon="0.1777">
        <ele>549.4</ele>
        <time>2020-06-30T15:03:23Z</time>
      </trkpt>
      <trkpt lat="43.07734" lon="0.17771">
        <ele>549.6</ele>
        <time>2020-06-30T15:03:24Z</time>
      </trkpt>
      <trkpt lat="43.07734" lon="0.17772">
        <ele>549.8</ele>
        <time>2020-06-30T15:03:25Z</time>
      </trkpt>
      <trkpt lat="43.07731" lon="0.17773">
        <ele>549.8</ele>
        <time>2020-06-30T15:03:26Z</time>
      </trkpt>
      <trkpt lat="43.07732" lon="0.17775">
        <ele>550</ele>
        <time>2020-06-30T15:03:27Z</time>
      </trkpt>
      <trkpt lat="43.07733" lon="0.17777">
        <ele>550</ele>
        <time>2020-06-30T15:03:28Z</time>
      </trkpt>
      <trkpt lat="43.07736" lon="0.17779">
        <ele>550.2</ele>
        <time>2020-06-30T15:03:29Z</time>
      </trkpt>
      <trkpt lat="43.07735" lon="0.17778">
        <ele>550.2</ele>
        <time>2020-06-30T15:03:30Z</time>
      </trkpt>
      <trkpt lat="43.07735" lon="0.17779">
        <ele>550.4</ele>
        <time>2020-06-30T15:03:31Z</time>
      </trkpt>
      <trkpt lat="43.07736" lon="0.1778">
        <ele>550.4</ele>
        <time>2020-06-30T15:03:32Z</time>
      </trkpt>
      <trkpt lat="43.07737" lon="0.17783">
        <ele>550.6</ele>
        <time>2020-06-30T15:03:33Z</time>
      </trkpt>
      <trkpt lat="43.07739" lon="0.17787">
        <ele>550.6</ele>
        <time>2020-06-30T15:03:34Z</time>
      </trkpt>
      <trkpt lat="43.07741" lon="0.17789">
        <ele>550.6</ele>
        <time>2020-06-30T15:03:35Z</time>
      </trkpt>
      <trkpt lat="43.07741" lon="0.17791">
        <ele>550.8</ele>
        <time>2020-06-30T15:03:36Z</time>
      </trkpt>
      <trkpt lat="43.07742" lon="0.17792">
        <ele>550.8</ele>
        <time>2020-06-30T15:03:37Z</time>
      </trkpt>
      <trkpt lat="43.07743" lon="0.17793">
        <ele>550.8</ele>
        <time>2020-06-30T15:03:38Z</time>
      </trkpt>
      <trkpt lat="43.07742" lon="0.17794">
        <ele>551</ele>
        <time>2020-06-30T15:03:39Z</time>
      </trkpt>
      <trkpt lat="43.07744" lon="0.17796">
        <ele>551.2</ele>
        <time>2020-06-30T15:03:40Z</time>
      </trkpt>
      <trkpt lat="43.07744" lon="0.17797">
        <ele>551.2</ele>
        <time>2020-06-30T15:03:41Z</time>
      </trkpt>
      <trkpt lat="43.07745" lon="0.17798">
        <ele>551.4</ele>
        <time>2020-06-30T15:03:42Z</time>
      </trkpt>
      <trkpt lat="43.07747" lon="0.178">
        <ele>551.4</ele>
        <time>2020-06-30T15:03:43Z</time>
      </trkpt>
      <trkpt lat="43.07747" lon="0.178">
        <ele>551.4</ele>
        <time>2020-06-30T15:03:44Z</time>
      </trkpt>
      <trkpt lat="43.07747" lon="0.178">
        <ele>551.6</ele>
        <time>2020-06-30T15:03:45Z</time>
      </trkpt>
      <trkpt lat="43.07748" lon="0.17804">
        <ele>551.8</ele>
        <time>2020-06-30T15:03:46Z</time>
      </trkpt>
      <trkpt lat="43.07749" lon="0.17804">
        <ele>552</ele>
        <time>2020-06-30T15:03:47Z</time>
      </trkpt>
      <trkpt lat="43.07749" lon="0.17804">
        <ele>552</ele>
        <time>2020-06-30T15:03:48Z</time>
      </trkpt>
      <trkpt lat="43.07751" lon="0.17806">
        <ele>552.2</ele>
        <time>2020-06-30T15:03:49Z</time>
      </trkpt>
      <trkpt lat="43.07752" lon="0.17808">
        <ele>552.2</ele>
        <time>2020-06-30T15:03:50Z</time>
      </trkpt>
      <trkpt lat="43.07755" lon="0.17809">
        <ele>552.4</ele>
        <time>2020-06-30T15:03:51Z</time>
      </trkpt>
      <trkpt lat="43.07756" lon="0.1781">
        <ele>552.4</ele>
        <time>2020-06-30T15:03:52Z</time>
      </trkpt>
      <trkpt lat="43.07758" lon="0.17812">
        <ele>552.6</ele>
        <time>2020-06-30T15:03:53Z</time>
      </trkpt>
      <trkpt lat="43.07759" lon="0.17814">
        <ele>552.8</ele>
        <time>2020-06-30T15:03:54Z</time>
      </trkpt>
      <trkpt lat="43.07759" lon="0.17814">
        <ele>552.8</ele>
        <time>2020-06-30T15:03:55Z</time>
      </trkpt>
      <trkpt lat="43.0776" lon="0.17814">
        <ele>552.8</ele>
        <time>2020-06-30T15:03:56Z</time>
      </trkpt>
      <trkpt lat="43.07761" lon="0.17815">
        <ele>553</ele>
        <time>2020-06-30T15:03:57Z</time>
      </trkpt>
      <trkpt lat="43.07761" lon="0.17815">
        <ele>553</ele>
        <time>2020-06-30T15:03:58Z</time>
      </trkpt>
      <trkpt lat="43.07762" lon="0.17816">
        <ele>553.2</ele>
        <time>2020-06-30T15:03:59Z</time>
      </trkpt>
      <trkpt lat="43.07765" lon="0.17817">
        <ele>553.2</ele>
        <time>2020-06-30T15:04:00Z</time>
      </trkpt>
      <trkpt lat="43.07766" lon="0.17818">
        <ele>553.4</ele>
        <time>2020-06-30T15:04:01Z</time>
      </trkpt>
      <trkpt lat="43.07768" lon="0.17819">
        <ele>553.4</ele>
        <time>2020-06-30T15:04:02Z</time>
      </trkpt>
      <trkpt lat="43.07769" lon="0.17819">
        <ele>553.6</ele>
        <time>2020-06-30T15:04:03Z</time>
      </trkpt>
      <trkpt lat="43.07771" lon="0.1782">
        <ele>553.6</ele>
        <time>2020-06-30T15:04:04Z</time>
      </trkpt>
      <trkpt lat="43.07772" lon="0.17821">
        <ele>553.8</ele>
        <time>2020-06-30T15:04:05Z</time>
      </trkpt>
      <trkpt lat="43.07772" lon="0.17821">
        <ele>554</ele>
        <time>2020-06-30T15:04:06Z</time>
      </trkpt>
      <trkpt lat="43.07774" lon="0.17822">
        <ele>554</ele>
        <time>2020-06-30T15:04:07Z</time>
      </trkpt>
      <trkpt lat="43.07775" lon="0.17822">
        <ele>554</ele>
        <time>2020-06-30T15:04:08Z</time>
      </trkpt>
      <trkpt lat="43.07778" lon="0.17823">
        <ele>554.2</ele>
        <time>2020-06-30T15:04:09Z</time>
      </trkpt>
      <trkpt lat="43.07781" lon="0.17823">
        <ele>554.4</ele>
        <time>2020-06-30T15:04:10Z</time>
      </trkpt>
      <trkpt lat="43.07783" lon="0.17824">
        <ele>554.4</ele>
        <time>2020-06-30T15:04:11Z</time>
      </trkpt>
      <trkpt lat="43.07784" lon="0.17825">
        <ele>554.6</ele>
        <time>2020-06-30T15:04:12Z</time>
      </trkpt>
      <trkpt lat="43.07785" lon="0.17824">
        <ele>554.6</ele>
        <time>2020-06-30T15:04:13Z</time>
      </trkpt>
      <trkpt lat="43.07786" lon="0.17824">
        <ele>554.8</ele>
        <time>2020-06-30T15:04:14Z</time>
      </trkpt>
      <trkpt lat="43.07788" lon="0.17825">
        <ele>554.8</ele>
        <time>2020-06-30T15:04:15Z</time>
      </trkpt>
      <trkpt lat="43.07789" lon="0.17825">
        <ele>555</ele>
        <time>2020-06-30T15:04:16Z</time>
      </trkpt>
      <trkpt lat="43.07791" lon="0.17826">
        <ele>555</ele>
        <time>2020-06-30T15:04:17Z</time>
      </trkpt>
      <trkpt lat="43.07793" lon="0.17825">
        <ele>555.2</ele>
        <time>2020-06-30T15:04:18Z</time>
      </trkpt>
      <trkpt lat="43.07795" lon="0.17825">
        <ele>555.2</ele>
        <time>2020-06-30T15:04:19Z</time>
      </trkpt>
      <trkpt lat="43.07797" lon="0.17825">
        <ele>555.4</ele>
        <time>2020-06-30T15:04:20Z</time>
      </trkpt>
      <trkpt lat="43.07799" lon="0.17826">
        <ele>555.4</ele>
        <time>2020-06-30T15:04:21Z</time>
      </trkpt>
      <trkpt lat="43.078" lon="0.17827">
        <ele>555.6</ele>
        <time>2020-06-30T15:04:22Z</time>
      </trkpt>
      <trkpt lat="43.07801" lon="0.17825">
        <ele>555.6</ele>
        <time>2020-06-30T15:04:23Z</time>
      </trkpt>
      <trkpt lat="43.07804" lon="0.17825">
        <ele>555.8</ele>
        <time>2020-06-30T15:04:24Z</time>
      </trkpt>
      <trkpt lat="43.07806" lon="0.17825">
        <ele>555.8</ele>
        <time>2020-06-30T15:04:25Z</time>
      </trkpt>
      <trkpt lat="43.07808" lon="0.17824">
        <ele>556</ele>
        <time>2020-06-30T15:04:26Z</time>
      </trkpt>
      <trkpt lat="43.07809" lon="0.17823">
        <ele>556</ele>
        <time>2020-06-30T15:04:27Z</time>
      </trkpt>
      <trkpt lat="43.0781" lon="0.17823">
        <ele>556.2</ele>
        <time>2020-06-30T15:04:28Z</time>
      </trkpt>
      <trkpt lat="43.07811" lon="0.17821">
        <ele>556.4</ele>
        <time>2020-06-30T15:04:29Z</time>
      </trkpt>
      <trkpt lat="43.07813" lon="0.17822">
        <ele>556.4</ele>
        <time>2020-06-30T15:04:30Z</time>
      </trkpt>
      <trkpt lat="43.07814" lon="0.17822">
        <ele>556.6</ele>
        <time>2020-06-30T15:04:31Z</time>
      </trkpt>
      <trkpt lat="43.07817" lon="0.17822">
        <ele>556.6</ele>
        <time>2020-06-30T15:04:32Z</time>
      </trkpt>
      <trkpt lat="43.07818" lon="0.17822">
        <ele>556.8</ele>
        <time>2020-06-30T15:04:33Z</time>
      </trkpt>
      <trkpt lat="43.07819" lon="0.17822">
        <ele>556.8</ele>
        <time>2020-06-30T15:04:34Z</time>
      </trkpt>
      <trkpt lat="43.07821" lon="0.17822">
        <ele>557</ele>
        <time>2020-06-30T15:04:35Z</time>
      </trkpt>
      <trkpt lat="43.07822" lon="0.17822">
        <ele>557</ele>
        <time>2020-06-30T15:04:36Z</time>
      </trkpt>
      <trkpt lat="43.07824" lon="0.17823">
        <ele>557.2</ele>
        <time>2020-06-30T15:04:37Z</time>
      </trkpt>
      <trkpt lat="43.07825" lon="0.17821">
        <ele>557.2</ele>
        <time>2020-06-30T15:04:38Z</time>
      </trkpt>
      <trkpt lat="43.07827" lon="0.1782">
        <ele>557.4</ele>
        <time>2020-06-30T15:04:39Z</time>
      </trkpt>
      <trkpt lat="43.07828" lon="0.1782">
        <ele>557.6</ele>
        <time>2020-06-30T15:04:40Z</time>
      </trkpt>
      <trkpt lat="43.0783" lon="0.1782">
        <ele>557.6</ele>
        <time>2020-06-30T15:04:41Z</time>
      </trkpt>
      <trkpt lat="43.0783" lon="0.17821">
        <ele>557.8</ele>
        <time>2020-06-30T15:04:42Z</time>
      </trkpt>
      <trkpt lat="43.07831" lon="0.1782">
        <ele>557.8</ele>
        <time>2020-06-30T15:04:43Z</time>
      </trkpt>
      <trkpt lat="43.07833" lon="0.1782">
        <ele>558</ele>
        <time>2020-06-30T15:04:44Z</time>
      </trkpt>
      <trkpt lat="43.07834" lon="0.17819">
        <ele>558.2</ele>
        <time>2020-06-30T15:04:45Z</time>
      </trkpt>
      <trkpt lat="43.07836" lon="0.17818">
        <ele>558.2</ele>
        <time>2020-06-30T15:04:46Z</time>
      </trkpt>
      <trkpt lat="43.07837" lon="0.17818">
        <ele>558.4</ele>
        <time>2020-06-30T15:04:47Z</time>
      </trkpt>
      <trkpt lat="43.07839" lon="0.17818">
        <ele>558.4</ele>
        <time>2020-06-30T15:04:48Z</time>
      </trkpt>
      <trkpt lat="43.07841" lon="0.17817">
        <ele>558.6</ele>
        <time>2020-06-30T15:04:49Z</time>
      </trkpt>
      <trkpt lat="43.07843" lon="0.17817">
        <ele>558.8</ele>
        <time>2020-06-30T15:04:50Z</time>
      </trkpt>
      <trkpt lat="43.07845" lon="0.17816">
        <ele>558.8</ele>
        <time>2020-06-30T15:04:51Z</time>
      </trkpt>
      <trkpt lat="43.07847" lon="0.17815">
        <ele>559</ele>
        <time>2020-06-30T15:04:52Z</time>
      </trkpt>
      <trkpt lat="43.07849" lon="0.17815">
        <ele>559</ele>
        <time>2020-06-30T15:04:53Z</time>
      </trkpt>
      <trkpt lat="43.07849" lon="0.17815">
        <ele>559.2</ele>
        <time>2020-06-30T15:04:54Z</time>
      </trkpt>
      <trkpt lat="43.0785" lon="0.17814">
        <ele>559.4</ele>
        <time>2020-06-30T15:04:55Z</time>
      </trkpt>
      <trkpt lat="43.07851" lon="0.17813">
        <ele>559.6</ele>
        <time>2020-06-30T15:04:56Z</time>
      </trkpt>
      <trkpt lat="43.07853" lon="0.17813">
        <ele>559.6</ele>
        <time>2020-06-30T15:04:57Z</time>
      </trkpt>
      <trkpt lat="43.07854" lon="0.17811">
        <ele>559.8</ele>
        <time>2020-06-30T15:04:58Z</time>
      </trkpt>
      <trkpt lat="43.07854" lon="0.1781">
        <ele>559.8</ele>
        <time>2020-06-30T15:04:59Z</time>
      </trkpt>
      <trkpt lat="43.07855" lon="0.1781">
        <ele>559.8</ele>
        <time>2020-06-30T15:05:00Z</time>
      </trkpt>
      <trkpt lat="43.07856" lon="0.17809">
        <ele>560</ele>
        <time>2020-06-30T15:05:01Z</time>
      </trkpt>
      <trkpt lat="43.07858" lon="0.17809">
        <ele>560</ele>
        <time>2020-06-30T15:05:02Z</time>
      </trkpt>
      <trkpt lat="43.0786" lon="0.17807">
        <ele>560.2</ele>
        <time>2020-06-30T15:05:03Z</time>
      </trkpt>
      <trkpt lat="43.07863" lon="0.17806">
        <ele>560.4</ele>
        <time>2020-06-30T15:05:04Z</time>
      </trkpt>
      <trkpt lat="43.07866" lon="0.17806">
        <ele>560.4</ele>
        <time>2020-06-30T15:05:05Z</time>
      </trkpt>
      <trkpt lat="43.07868" lon="0.17806">
        <ele>560.6</ele>
        <time>2020-06-30T15:05:06Z</time>
      </trkpt>
      <trkpt lat="43.0787" lon="0.17806">
        <ele>560.6</ele>
        <time>2020-06-30T15:05:07Z</time>
      </trkpt>
      <trkpt lat="43.07871" lon="0.17805">
        <ele>560.6</ele>
        <time>2020-06-30T15:05:08Z</time>
      </trkpt>
      <trkpt lat="43.07872" lon="0.17805">
        <ele>560.8</ele>
        <time>2020-06-30T15:05:09Z</time>
      </trkpt>
      <trkpt lat="43.07875" lon="0.17806">
        <ele>561</ele>
        <time>2020-06-30T15:05:10Z</time>
      </trkpt>
      <trkpt lat="43.07877" lon="0.17806">
        <ele>561</ele>
        <time>2020-06-30T15:05:11Z</time>
      </trkpt>
      <trkpt lat="43.07878" lon="0.17806">
        <ele>561.2</ele>
        <time>2020-06-30T15:05:12Z</time>
      </trkpt>
      <trkpt lat="43.07879" lon="0.17806">
        <ele>561.2</ele>
        <time>2020-06-30T15:05:13Z</time>
      </trkpt>
      <trkpt lat="43.0788" lon="0.17807">
        <ele>561.4</ele>
        <time>2020-06-30T15:05:14Z</time>
      </trkpt>
      <trkpt lat="43.07881" lon="0.17807">
        <ele>561.4</ele>
        <time>2020-06-30T15:05:15Z</time>
      </trkpt>
      <trkpt lat="43.07882" lon="0.17807">
        <ele>561.4</ele>
        <time>2020-06-30T15:05:16Z</time>
      </trkpt>
      <trkpt lat="43.07884" lon="0.17807">
        <ele>561.6</ele>
        <time>2020-06-30T15:05:17Z</time>
      </trkpt>
      <trkpt lat="43.07885" lon="0.17809">
        <ele>561.6</ele>
        <time>2020-06-30T15:05:18Z</time>
      </trkpt>
      <trkpt lat="43.07887" lon="0.17809">
        <ele>561.8</ele>
        <time>2020-06-30T15:05:19Z</time>
      </trkpt>
      <trkpt lat="43.07888" lon="0.17809">
        <ele>561.8</ele>
        <time>2020-06-30T15:05:20Z</time>
      </trkpt>
      <trkpt lat="43.0789" lon="0.17809">
        <ele>562</ele>
        <time>2020-06-30T15:05:21Z</time>
      </trkpt>
      <trkpt lat="43.07891" lon="0.17811">
        <ele>562.2</ele>
        <time>2020-06-30T15:05:22Z</time>
      </trkpt>
      <trkpt lat="43.07892" lon="0.17813">
        <ele>562.2</ele>
        <time>2020-06-30T15:05:23Z</time>
      </trkpt>
      <trkpt lat="43.07893" lon="0.17813">
        <ele>562.4</ele>
        <time>2020-06-30T15:05:24Z</time>
      </trkpt>
      <trkpt lat="43.07894" lon="0.17813">
        <ele>562.4</ele>
        <time>2020-06-30T15:05:25Z</time>
      </trkpt>
      <trkpt lat="43.07895" lon="0.17813">
        <ele>562.6</ele>
        <time>2020-06-30T15:05:26Z</time>
      </trkpt>
      <trkpt lat="43.07897" lon="0.17814">
        <ele>562.6</ele>
        <time>2020-06-30T15:05:27Z</time>
      </trkpt>
      <trkpt lat="43.07899" lon="0.17814">
        <ele>562.8</ele>
        <time>2020-06-30T15:05:28Z</time>
      </trkpt>
      <trkpt lat="43.079" lon="0.17814">
        <ele>563</ele>
        <time>2020-06-30T15:05:29Z</time>
      </trkpt>
      <trkpt lat="43.07901" lon="0.17815">
        <ele>563.2</ele>
        <time>2020-06-30T15:05:30Z</time>
      </trkpt>
      <trkpt lat="43.07902" lon="0.17815">
        <ele>563.2</ele>
        <time>2020-06-30T15:05:31Z</time>
      </trkpt>
      <trkpt lat="43.07903" lon="0.17817">
        <ele>563.2</ele>
        <time>2020-06-30T15:05:32Z</time>
      </trkpt>
      <trkpt lat="43.07905" lon="0.17817">
        <ele>563.4</ele>
        <time>2020-06-30T15:05:33Z</time>
      </trkpt>
      <trkpt lat="43.07907" lon="0.17818">
        <ele>563.6</ele>
        <time>2020-06-30T15:05:34Z</time>
      </trkpt>
      <trkpt lat="43.07908" lon="0.17818">
        <ele>563.6</ele>
        <time>2020-06-30T15:05:35Z</time>
      </trkpt>
      <trkpt lat="43.07911" lon="0.17819">
        <ele>563.8</ele>
        <time>2020-06-30T15:05:36Z</time>
      </trkpt>
      <trkpt lat="43.07912" lon="0.17819">
        <ele>564</ele>
        <time>2020-06-30T15:05:37Z</time>
      </trkpt>
      <trkpt lat="43.07914" lon="0.1782">
        <ele>564</ele>
        <time>2020-06-30T15:05:38Z</time>
      </trkpt>
      <trkpt lat="43.07915" lon="0.1782">
        <ele>564.2</ele>
        <time>2020-06-30T15:05:39Z</time>
      </trkpt>
      <trkpt lat="43.07917" lon="0.1782">
        <ele>564.2</ele>
        <time>2020-06-30T15:05:40Z</time>
      </trkpt>
      <trkpt lat="43.07919" lon="0.17822">
        <ele>564.4</ele>
        <time>2020-06-30T15:05:41Z</time>
      </trkpt>
      <trkpt lat="43.0792" lon="0.17821">
        <ele>564.4</ele>
        <time>2020-06-30T15:05:42Z</time>
      </trkpt>
      <trkpt lat="43.07922" lon="0.17821">
        <ele>564.6</ele>
        <time>2020-06-30T15:05:43Z</time>
      </trkpt>
      <trkpt lat="43.07922" lon="0.17821">
        <ele>564.8</ele>
        <time>2020-06-30T15:05:44Z</time>
      </trkpt>
      <trkpt lat="43.07924" lon="0.17821">
        <ele>564.8</ele>
        <time>2020-06-30T15:05:45Z</time>
      </trkpt>
      <trkpt lat="43.07925" lon="0.17821">
        <ele>565</ele>
        <time>2020-06-30T15:05:46Z</time>
      </trkpt>
      <trkpt lat="43.07928" lon="0.17822">
        <ele>565</ele>
        <time>2020-06-30T15:05:47Z</time>
      </trkpt>
      <trkpt lat="43.07929" lon="0.17822">
        <ele>565.2</ele>
        <time>2020-06-30T15:05:48Z</time>
      </trkpt>
      <trkpt lat="43.07931" lon="0.17822">
        <ele>565.4</ele>
        <time>2020-06-30T15:05:49Z</time>
      </trkpt>
      <trkpt lat="43.07933" lon="0.17822">
        <ele>565.4</ele>
        <time>2020-06-30T15:05:50Z</time>
      </trkpt>
      <trkpt lat="43.07935" lon="0.17821">
        <ele>565.6</ele>
        <time>2020-06-30T15:05:51Z</time>
      </trkpt>
      <trkpt lat="43.07936" lon="0.17821">
        <ele>565.6</ele>
        <time>2020-06-30T15:05:52Z</time>
      </trkpt>
      <trkpt lat="43.07938" lon="0.1782">
        <ele>565.8</ele>
        <time>2020-06-30T15:05:53Z</time>
      </trkpt>
      <trkpt lat="43.07939" lon="0.1782">
        <ele>565.8</ele>
        <time>2020-06-30T15:05:54Z</time>
      </trkpt>
      <trkpt lat="43.07941" lon="0.17818">
        <ele>566</ele>
        <time>2020-06-30T15:05:55Z</time>
      </trkpt>
      <trkpt lat="43.07942" lon="0.17817">
        <ele>566</ele>
        <time>2020-06-30T15:05:56Z</time>
      </trkpt>
      <trkpt lat="43.07942" lon="0.17814">
        <ele>566.2</ele>
        <time>2020-06-30T15:05:57Z</time>
      </trkpt>
      <trkpt lat="43.07944" lon="0.17813">
        <ele>566.2</ele>
        <time>2020-06-30T15:05:58Z</time>
      </trkpt>
      <trkpt lat="43.07944" lon="0.17812">
        <ele>566.4</ele>
        <time>2020-06-30T15:05:59Z</time>
      </trkpt>
      <trkpt lat="43.07945" lon="0.1781">
        <ele>566.6</ele>
        <time>2020-06-30T15:06:00Z</time>
      </trkpt>
      <trkpt lat="43.07946" lon="0.17807">
        <ele>566.6</ele>
        <time>2020-06-30T15:06:01Z</time>
      </trkpt>
      <trkpt lat="43.07946" lon="0.17804">
        <ele>566.8</ele>
        <time>2020-06-30T15:06:02Z</time>
      </trkpt>
      <trkpt lat="43.07947" lon="0.17801">
        <ele>567</ele>
        <time>2020-06-30T15:06:03Z</time>
      </trkpt>
      <trkpt lat="43.07948" lon="0.17799">
        <ele>567</ele>
        <time>2020-06-30T15:06:04Z</time>
      </trkpt>
      <trkpt lat="43.07949" lon="0.17798">
        <ele>567.2</ele>
        <time>2020-06-30T15:06:05Z</time>
      </trkpt>
      <trkpt lat="43.07949" lon="0.17796">
        <ele>567.2</ele>
        <time>2020-06-30T15:06:06Z</time>
      </trkpt>
      <trkpt lat="43.07949" lon="0.17794">
        <ele>567.4</ele>
        <time>2020-06-30T15:06:07Z</time>
      </trkpt>
      <trkpt lat="43.07949" lon="0.17792">
        <ele>567.4</ele>
        <time>2020-06-30T15:06:08Z</time>
      </trkpt>
      <trkpt lat="43.07951" lon="0.1779">
        <ele>567.6</ele>
        <time>2020-06-30T15:06:09Z</time>
      </trkpt>
      <trkpt lat="43.07953" lon="0.17789">
        <ele>567.8</ele>
        <time>2020-06-30T15:06:10Z</time>
      </trkpt>
      <trkpt lat="43.07954" lon="0.17787">
        <ele>567.8</ele>
        <time>2020-06-30T15:06:11Z</time>
      </trkpt>
      <trkpt lat="43.07955" lon="0.17786">
        <ele>568</ele>
        <time>2020-06-30T15:06:12Z</time>
      </trkpt>
      <trkpt lat="43.07956" lon="0.17783">
        <ele>568</ele>
        <time>2020-06-30T15:06:13Z</time>
      </trkpt>
      <trkpt lat="43.07956" lon="0.17781">
        <ele>568.2</ele>
        <time>2020-06-30T15:06:14Z</time>
      </trkpt>
      <trkpt lat="43.07957" lon="0.17779">
        <ele>568.4</ele>
        <time>2020-06-30T15:06:15Z</time>
      </trkpt>
      <trkpt lat="43.07958" lon="0.17776">
        <ele>568.4</ele>
        <time>2020-06-30T15:06:16Z</time>
      </trkpt>
      <trkpt lat="43.07958" lon="0.17775">
        <ele>568.6</ele>
        <time>2020-06-30T15:06:17Z</time>
      </trkpt>
      <trkpt lat="43.07959" lon="0.17774">
        <ele>568.6</ele>
        <time>2020-06-30T15:06:18Z</time>
      </trkpt>
      <trkpt lat="43.07961" lon="0.17773">
        <ele>568.8</ele>
        <time>2020-06-30T15:06:19Z</time>
      </trkpt>
      <trkpt lat="43.07963" lon="0.17772">
        <ele>569</ele>
        <time>2020-06-30T15:06:20Z</time>
      </trkpt>
      <trkpt lat="43.07963" lon="0.1777">
        <ele>569.2</ele>
        <time>2020-06-30T15:06:21Z</time>
      </trkpt>
      <trkpt lat="43.07964" lon="0.17768">
        <ele>569.2</ele>
        <time>2020-06-30T15:06:22Z</time>
      </trkpt>
      <trkpt lat="43.07965" lon="0.17768">
        <ele>569.4</ele>
        <time>2020-06-30T15:06:23Z</time>
      </trkpt>
      <trkpt lat="43.07966" lon="0.17766">
        <ele>569.4</ele>
        <time>2020-06-30T15:06:24Z</time>
      </trkpt>
      <trkpt lat="43.07967" lon="0.17766">
        <ele>569.6</ele>
        <time>2020-06-30T15:06:25Z</time>
      </trkpt>
      <trkpt lat="43.07969" lon="0.17765">
        <ele>569.8</ele>
        <time>2020-06-30T15:06:26Z</time>
      </trkpt>
      <trkpt lat="43.07969" lon="0.17763">
        <ele>569.8</ele>
        <time>2020-06-30T15:06:27Z</time>
      </trkpt>
      <trkpt lat="43.0797" lon="0.17762">
        <ele>570</ele>
        <time>2020-06-30T15:06:28Z</time>
      </trkpt>
      <trkpt lat="43.0797" lon="0.17761">
        <ele>570.2</ele>
        <time>2020-06-30T15:06:29Z</time>
      </trkpt>
      <trkpt lat="43.07971" lon="0.17761">
        <ele>570.2</ele>
        <time>2020-06-30T15:06:30Z</time>
      </trkpt>
      <trkpt lat="43.07971" lon="0.1776">
        <ele>570.4</ele>
        <time>2020-06-30T15:06:31Z</time>
      </trkpt>
      <trkpt lat="43.07973" lon="0.17759">
        <ele>570.6</ele>
        <time>2020-06-30T15:06:32Z</time>
      </trkpt>
      <trkpt lat="43.07975" lon="0.17759">
        <ele>570.8</ele>
        <time>2020-06-30T15:06:33Z</time>
      </trkpt>
      <trkpt lat="43.07977" lon="0.17757">
        <ele>570.8</ele>
        <time>2020-06-30T15:06:34Z</time>
      </trkpt>
      <trkpt lat="43.07978" lon="0.17756">
        <ele>571</ele>
        <time>2020-06-30T15:06:35Z</time>
      </trkpt>
      <trkpt lat="43.0798" lon="0.17756">
        <ele>571.2</ele>
        <time>2020-06-30T15:06:36Z</time>
      </trkpt>
      <trkpt lat="43.07981" lon="0.17756">
        <ele>571.2</ele>
        <time>2020-06-30T15:06:37Z</time>
      </trkpt>
      <trkpt lat="43.07982" lon="0.17756">
        <ele>571.4</ele>
        <time>2020-06-30T15:06:38Z</time>
      </trkpt>
      <trkpt lat="43.07985" lon="0.17757">
        <ele>571.4</ele>
        <time>2020-06-30T15:06:39Z</time>
      </trkpt>
      <trkpt lat="43.07987" lon="0.17756">
        <ele>571.6</ele>
        <time>2020-06-30T15:06:40Z</time>
      </trkpt>
      <trkpt lat="43.07988" lon="0.17756">
        <ele>571.6</ele>
        <time>2020-06-30T15:06:41Z</time>
      </trkpt>
      <trkpt lat="43.07989" lon="0.17756">
        <ele>571.8</ele>
        <time>2020-06-30T15:06:42Z</time>
      </trkpt>
      <trkpt lat="43.0799" lon="0.17758">
        <ele>571.8</ele>
        <time>2020-06-30T15:06:43Z</time>
      </trkpt>
      <trkpt lat="43.07992" lon="0.17759">
        <ele>572</ele>
        <time>2020-06-30T15:06:44Z</time>
      </trkpt>
      <trkpt lat="43.07994" lon="0.1776">
        <ele>572</ele>
        <time>2020-06-30T15:06:45Z</time>
      </trkpt>
      <trkpt lat="43.07996" lon="0.1776">
        <ele>572</ele>
        <time>2020-06-30T15:06:46Z</time>
      </trkpt>
      <trkpt lat="43.07998" lon="0.17761">
        <ele>572.2</ele>
        <time>2020-06-30T15:06:47Z</time>
      </trkpt>
      <trkpt lat="43.07999" lon="0.17762">
        <ele>572.4</ele>
        <time>2020-06-30T15:06:48Z</time>
      </trkpt>
      <trkpt lat="43.08001" lon="0.17763">
        <ele>572.4</ele>
        <time>2020-06-30T15:06:49Z</time>
      </trkpt>
      <trkpt lat="43.08002" lon="0.17763">
        <ele>572.4</ele>
        <time>2020-06-30T15:06:50Z</time>
      </trkpt>
      <trkpt lat="43.08003" lon="0.17762">
        <ele>572.6</ele>
        <time>2020-06-30T15:06:51Z</time>
      </trkpt>
      <trkpt lat="43.08005" lon="0.17763">
        <ele>572.6</ele>
        <time>2020-06-30T15:06:52Z</time>
      </trkpt>
      <trkpt lat="43.08005" lon="0.17763">
        <ele>572.8</ele>
        <time>2020-06-30T15:06:53Z</time>
      </trkpt>
      <trkpt lat="43.08005" lon="0.17765">
        <ele>573</ele>
        <time>2020-06-30T15:06:54Z</time>
      </trkpt>
      <trkpt lat="43.08007" lon="0.17768">
        <ele>573</ele>
        <time>2020-06-30T15:06:55Z</time>
      </trkpt>
      <trkpt lat="43.08009" lon="0.17769">
        <ele>573</ele>
        <time>2020-06-30T15:06:56Z</time>
      </trkpt>
      <trkpt lat="43.0801" lon="0.1777">
        <ele>573.2</ele>
        <time>2020-06-30T15:06:57Z</time>
      </trkpt>
      <trkpt lat="43.08011" lon="0.17772">
        <ele>573.4</ele>
        <time>2020-06-30T15:06:58Z</time>
      </trkpt>
      <trkpt lat="43.08011" lon="0.17774">
        <ele>573.4</ele>
        <time>2020-06-30T15:06:59Z</time>
      </trkpt>
      <trkpt lat="43.08012" lon="0.17776">
        <ele>573.4</ele>
        <time>2020-06-30T15:07:00Z</time>
      </trkpt>
      <trkpt lat="43.08014" lon="0.17777">
        <ele>573.6</ele>
        <time>2020-06-30T15:07:01Z</time>
      </trkpt>
      <trkpt lat="43.08015" lon="0.17779">
        <ele>573.8</ele>
        <time>2020-06-30T15:07:02Z</time>
      </trkpt>
      <trkpt lat="43.08016" lon="0.17781">
        <ele>573.8</ele>
        <time>2020-06-30T15:07:03Z</time>
      </trkpt>
      <trkpt lat="43.08018" lon="0.17783">
        <ele>574</ele>
        <time>2020-06-30T15:07:04Z</time>
      </trkpt>
      <trkpt lat="43.08019" lon="0.17785">
        <ele>574</ele>
        <time>2020-06-30T15:07:05Z</time>
      </trkpt>
      <trkpt lat="43.0802" lon="0.17787">
        <ele>574.2</ele>
        <time>2020-06-30T15:07:06Z</time>
      </trkpt>
      <trkpt lat="43.08023" lon="0.17788">
        <ele>574.2</ele>
        <time>2020-06-30T15:07:07Z</time>
      </trkpt>
      <trkpt lat="43.08024" lon="0.17789">
        <ele>574.4</ele>
        <time>2020-06-30T15:07:08Z</time>
      </trkpt>
      <trkpt lat="43.08026" lon="0.17792">
        <ele>574.4</ele>
        <time>2020-06-30T15:07:09Z</time>
      </trkpt>
      <trkpt lat="43.08028" lon="0.17794">
        <ele>574.6</ele>
        <time>2020-06-30T15:07:10Z</time>
      </trkpt>
      <trkpt lat="43.08031" lon="0.17795">
        <ele>574.6</ele>
        <time>2020-06-30T15:07:11Z</time>
      </trkpt>
      <trkpt lat="43.08034" lon="0.17797">
        <ele>574.6</ele>
        <time>2020-06-30T15:07:12Z</time>
      </trkpt>
      <trkpt lat="43.08037" lon="0.17799">
        <ele>574.8</ele>
        <time>2020-06-30T15:07:13Z</time>
      </trkpt>
      <trkpt lat="43.08038" lon="0.178">
        <ele>575</ele>
        <time>2020-06-30T15:07:14Z</time>
      </trkpt>
      <trkpt lat="43.08038" lon="0.17802">
        <ele>575</ele>
        <time>2020-06-30T15:07:15Z</time>
      </trkpt>
      <trkpt lat="43.08039" lon="0.17803">
        <ele>575.2</ele>
        <time>2020-06-30T15:07:16Z</time>
      </trkpt>
      <trkpt lat="43.0804" lon="0.17805">
        <ele>575.2</ele>
        <time>2020-06-30T15:07:17Z</time>
      </trkpt>
      <trkpt lat="43.08041" lon="0.17805">
        <ele>575.2</ele>
        <time>2020-06-30T15:07:18Z</time>
      </trkpt>
      <trkpt lat="43.08043" lon="0.17806">
        <ele>575.4</ele>
        <time>2020-06-30T15:07:19Z</time>
      </trkpt>
      <trkpt lat="43.08044" lon="0.17807">
        <ele>575.6</ele>
        <time>2020-06-30T15:07:20Z</time>
      </trkpt>
      <trkpt lat="43.08045" lon="0.17808">
        <ele>575.8</ele>
        <time>2020-06-30T15:07:21Z</time>
      </trkpt>
      <trkpt lat="43.08048" lon="0.1781">
        <ele>575.8</ele>
        <time>2020-06-30T15:07:22Z</time>
      </trkpt>
      <trkpt lat="43.08049" lon="0.17812">
        <ele>576</ele>
        <time>2020-06-30T15:07:23Z</time>
      </trkpt>
      <trkpt lat="43.0805" lon="0.17812">
        <ele>576</ele>
        <time>2020-06-30T15:07:24Z</time>
      </trkpt>
      <trkpt lat="43.08051" lon="0.17812">
        <ele>576.2</ele>
        <time>2020-06-30T15:07:25Z</time>
      </trkpt>
      <trkpt lat="43.08053" lon="0.17813">
        <ele>576.2</ele>
        <time>2020-06-30T15:07:26Z</time>
      </trkpt>
      <trkpt lat="43.08054" lon="0.17813">
        <ele>576.4</ele>
        <time>2020-06-30T15:07:27Z</time>
      </trkpt>
      <trkpt lat="43.08055" lon="0.17814">
        <ele>576.4</ele>
        <time>2020-06-30T15:07:28Z</time>
      </trkpt>
      <trkpt lat="43.08056" lon="0.17815">
        <ele>576.6</ele>
        <time>2020-06-30T15:07:29Z</time>
      </trkpt>
      <trkpt lat="43.08059" lon="0.17816">
        <ele>576.6</ele>
        <time>2020-06-30T15:07:30Z</time>
      </trkpt>
      <trkpt lat="43.0806" lon="0.17816">
        <ele>576.8</ele>
        <time>2020-06-30T15:07:31Z</time>
      </trkpt>
      <trkpt lat="43.08062" lon="0.17816">
        <ele>577</ele>
        <time>2020-06-30T15:07:32Z</time>
      </trkpt>
      <trkpt lat="43.08064" lon="0.17817">
        <ele>577</ele>
        <time>2020-06-30T15:07:33Z</time>
      </trkpt>
      <trkpt lat="43.08066" lon="0.17816">
        <ele>577.2</ele>
        <time>2020-06-30T15:07:34Z</time>
      </trkpt>
      <trkpt lat="43.08068" lon="0.17816">
        <ele>577.2</ele>
        <time>2020-06-30T15:07:35Z</time>
      </trkpt>
      <trkpt lat="43.08069" lon="0.17816">
        <ele>577.4</ele>
        <time>2020-06-30T15:07:36Z</time>
      </trkpt>
      <trkpt lat="43.08071" lon="0.17815">
        <ele>577.4</ele>
        <time>2020-06-30T15:07:37Z</time>
      </trkpt>
      <trkpt lat="43.08073" lon="0.17816">
        <ele>577.6</ele>
        <time>2020-06-30T15:07:38Z</time>
      </trkpt>
      <trkpt lat="43.08075" lon="0.17816">
        <ele>577.8</ele>
        <time>2020-06-30T15:07:39Z</time>
      </trkpt>
      <trkpt lat="43.08076" lon="0.17816">
        <ele>577.8</ele>
        <time>2020-06-30T15:07:40Z</time>
      </trkpt>
      <trkpt lat="43.08077" lon="0.17814">
        <ele>578</ele>
        <time>2020-06-30T15:07:41Z</time>
      </trkpt>
      <trkpt lat="43.08079" lon="0.17813">
        <ele>578</ele>
        <time>2020-06-30T15:07:42Z</time>
      </trkpt>
      <trkpt lat="43.0808" lon="0.17812">
        <ele>578.2</ele>
        <time>2020-06-30T15:07:43Z</time>
      </trkpt>
      <trkpt lat="43.08081" lon="0.17811">
        <ele>578.4</ele>
        <time>2020-06-30T15:07:44Z</time>
      </trkpt>
      <trkpt lat="43.08082" lon="0.17809">
        <ele>578.6</ele>
        <time>2020-06-30T15:07:45Z</time>
      </trkpt>
      <trkpt lat="43.08084" lon="0.17808">
        <ele>578.6</ele>
        <time>2020-06-30T15:07:46Z</time>
      </trkpt>
      <trkpt lat="43.08085" lon="0.17807">
        <ele>578.8</ele>
        <time>2020-06-30T15:07:47Z</time>
      </trkpt>
      <trkpt lat="43.08087" lon="0.17805">
        <ele>578.8</ele>
        <time>2020-06-30T15:07:48Z</time>
      </trkpt>
      <trkpt lat="43.08088" lon="0.17804">
        <ele>579</ele>
        <time>2020-06-30T15:07:49Z</time>
      </trkpt>
      <trkpt lat="43.08089" lon="0.17804">
        <ele>579.2</ele>
        <time>2020-06-30T15:07:50Z</time>
      </trkpt>
      <trkpt lat="43.08092" lon="0.17803">
        <ele>579.2</ele>
        <time>2020-06-30T15:07:51Z</time>
      </trkpt>
      <trkpt lat="43.08092" lon="0.17802">
        <ele>579.2</ele>
        <time>2020-06-30T15:07:52Z</time>
      </trkpt>
      <trkpt lat="43.08094" lon="0.17801">
        <ele>579.4</ele>
        <time>2020-06-30T15:07:53Z</time>
      </trkpt>
      <trkpt lat="43.08096" lon="0.178">
        <ele>579.6</ele>
        <time>2020-06-30T15:07:54Z</time>
      </trkpt>
      <trkpt lat="43.08097" lon="0.17798">
        <ele>579.6</ele>
        <time>2020-06-30T15:07:55Z</time>
      </trkpt>
      <trkpt lat="43.08099" lon="0.17796">
        <ele>579.8</ele>
        <time>2020-06-30T15:07:56Z</time>
      </trkpt>
      <trkpt lat="43.081" lon="0.17795">
        <ele>579.8</ele>
        <time>2020-06-30T15:07:57Z</time>
      </trkpt>
      <trkpt lat="43.08102" lon="0.17796">
        <ele>580</ele>
        <time>2020-06-30T15:07:58Z</time>
      </trkpt>
      <trkpt lat="43.08102" lon="0.17797">
        <ele>580</ele>
        <time>2020-06-30T15:07:59Z</time>
      </trkpt>
      <trkpt lat="43.08103" lon="0.17796">
        <ele>580.2</ele>
        <time>2020-06-30T15:08:00Z</time>
      </trkpt>
      <trkpt lat="43.08104" lon="0.17795">
        <ele>580.2</ele>
        <time>2020-06-30T15:08:01Z</time>
      </trkpt>
      <trkpt lat="43.08107" lon="0.17794">
        <ele>580.4</ele>
        <time>2020-06-30T15:08:02Z</time>
      </trkpt>
      <trkpt lat="43.08108" lon="0.17793">
        <ele>580.4</ele>
        <time>2020-06-30T15:08:03Z</time>
      </trkpt>
      <trkpt lat="43.0811" lon="0.17793">
        <ele>580.6</ele>
        <time>2020-06-30T15:08:04Z</time>
      </trkpt>
      <trkpt lat="43.08111" lon="0.17793">
        <ele>580.6</ele>
        <time>2020-06-30T15:08:05Z</time>
      </trkpt>
      <trkpt lat="43.08112" lon="0.17793">
        <ele>580.8</ele>
        <time>2020-06-30T15:08:06Z</time>
      </trkpt>
      <trkpt lat="43.08113" lon="0.17792">
        <ele>580.8</ele>
        <time>2020-06-30T15:08:07Z</time>
      </trkpt>
      <trkpt lat="43.08115" lon="0.17792">
        <ele>581</ele>
        <time>2020-06-30T15:08:08Z</time>
      </trkpt>
      <trkpt lat="43.08119" lon="0.17791">
        <ele>581</ele>
        <time>2020-06-30T15:08:09Z</time>
      </trkpt>
      <trkpt lat="43.0812" lon="0.17791">
        <ele>581.2</ele>
        <time>2020-06-30T15:08:10Z</time>
      </trkpt>
      <trkpt lat="43.08122" lon="0.17792">
        <ele>581.2</ele>
        <time>2020-06-30T15:08:11Z</time>
      </trkpt>
      <trkpt lat="43.08124" lon="0.17791">
        <ele>581.2</ele>
        <time>2020-06-30T15:08:12Z</time>
      </trkpt>
      <trkpt lat="43.08124" lon="0.17791">
        <ele>581.4</ele>
        <time>2020-06-30T15:08:13Z</time>
      </trkpt>
      <trkpt lat="43.08125" lon="0.17792">
        <ele>581.4</ele>
        <time>2020-06-30T15:08:14Z</time>
      </trkpt>
      <trkpt lat="43.08127" lon="0.17792">
        <ele>581.6</ele>
        <time>2020-06-30T15:08:15Z</time>
      </trkpt>
      <trkpt lat="43.0813" lon="0.17793">
        <ele>581.6</ele>
        <time>2020-06-30T15:08:16Z</time>
      </trkpt>
      <trkpt lat="43.08131" lon="0.17795">
        <ele>581.6</ele>
        <time>2020-06-30T15:08:17Z</time>
      </trkpt>
      <trkpt lat="43.08133" lon="0.17797">
        <ele>581.8</ele>
        <time>2020-06-30T15:08:18Z</time>
      </trkpt>
      <trkpt lat="43.08137" lon="0.17799">
        <ele>581.8</ele>
        <time>2020-06-30T15:08:19Z</time>
      </trkpt>
      <trkpt lat="43.08139" lon="0.178">
        <ele>581.8</ele>
        <time>2020-06-30T15:08:20Z</time>
      </trkpt>
      <trkpt lat="43.08141" lon="0.17802">
        <ele>582</ele>
        <time>2020-06-30T15:08:21Z</time>
      </trkpt>
      <trkpt lat="43.08143" lon="0.17804">
        <ele>582.2</ele>
        <time>2020-06-30T15:08:22Z</time>
      </trkpt>
      <trkpt lat="43.08145" lon="0.17805">
        <ele>582.2</ele>
        <time>2020-06-30T15:08:23Z</time>
      </trkpt>
      <trkpt lat="43.08146" lon="0.17807">
        <ele>582.4</ele>
        <time>2020-06-30T15:08:24Z</time>
      </trkpt>
      <trkpt lat="43.08148" lon="0.17808">
        <ele>582.4</ele>
        <time>2020-06-30T15:08:25Z</time>
      </trkpt>
      <trkpt lat="43.08151" lon="0.1781">
        <ele>582.6</ele>
        <time>2020-06-30T15:08:26Z</time>
      </trkpt>
      <trkpt lat="43.08152" lon="0.17811">
        <ele>582.8</ele>
        <time>2020-06-30T15:08:27Z</time>
      </trkpt>
      <trkpt lat="43.08153" lon="0.17813">
        <ele>583</ele>
        <time>2020-06-30T15:08:28Z</time>
      </trkpt>
      <trkpt lat="43.08155" lon="0.17814">
        <ele>583.2</ele>
        <time>2020-06-30T15:08:29Z</time>
      </trkpt>
      <trkpt lat="43.08156" lon="0.17816">
        <ele>583.2</ele>
        <time>2020-06-30T15:08:30Z</time>
      </trkpt>
      <trkpt lat="43.08157" lon="0.17817">
        <ele>583.4</ele>
        <time>2020-06-30T15:08:31Z</time>
      </trkpt>
      <trkpt lat="43.08156" lon="0.17818">
        <ele>583.6</ele>
        <time>2020-06-30T15:08:32Z</time>
      </trkpt>
      <trkpt lat="43.08158" lon="0.17821">
        <ele>583.8</ele>
        <time>2020-06-30T15:08:33Z</time>
      </trkpt>
      <trkpt lat="43.08159" lon="0.17823">
        <ele>583.8</ele>
        <time>2020-06-30T15:08:34Z</time>
      </trkpt>
      <trkpt lat="43.08161" lon="0.17823">
        <ele>584</ele>
        <time>2020-06-30T15:08:35Z</time>
      </trkpt>
      <trkpt lat="43.08162" lon="0.17824">
        <ele>584.2</ele>
        <time>2020-06-30T15:08:36Z</time>
      </trkpt>
      <trkpt lat="43.08164" lon="0.17826">
        <ele>584.2</ele>
        <time>2020-06-30T15:08:37Z</time>
      </trkpt>
      <trkpt lat="43.08164" lon="0.17827">
        <ele>584.4</ele>
        <time>2020-06-30T15:08:38Z</time>
      </trkpt>
      <trkpt lat="43.08166" lon="0.17828">
        <ele>584.6</ele>
        <time>2020-06-30T15:08:39Z</time>
      </trkpt>
      <trkpt lat="43.08168" lon="0.17829">
        <ele>584.8</ele>
        <time>2020-06-30T15:08:40Z</time>
      </trkpt>
      <trkpt lat="43.0817" lon="0.1783">
        <ele>584.8</ele>
        <time>2020-06-30T15:08:41Z</time>
      </trkpt>
      <trkpt lat="43.08172" lon="0.17831">
        <ele>585</ele>
        <time>2020-06-30T15:08:42Z</time>
      </trkpt>
      <trkpt lat="43.08174" lon="0.17831">
        <ele>585.2</ele>
        <time>2020-06-30T15:08:43Z</time>
      </trkpt>
      <trkpt lat="43.08175" lon="0.17832">
        <ele>585.2</ele>
        <time>2020-06-30T15:08:44Z</time>
      </trkpt>
      <trkpt lat="43.08176" lon="0.17833">
        <ele>585.4</ele>
        <time>2020-06-30T15:08:45Z</time>
      </trkpt>
      <trkpt lat="43.08178" lon="0.17832">
        <ele>585.4</ele>
        <time>2020-06-30T15:08:46Z</time>
      </trkpt>
      <trkpt lat="43.0818" lon="0.17832">
        <ele>585.6</ele>
        <time>2020-06-30T15:08:47Z</time>
      </trkpt>
      <trkpt lat="43.08181" lon="0.17831">
        <ele>585.6</ele>
        <time>2020-06-30T15:08:48Z</time>
      </trkpt>
      <trkpt lat="43.08182" lon="0.17832">
        <ele>585.8</ele>
        <time>2020-06-30T15:08:49Z</time>
      </trkpt>
      <trkpt lat="43.08183" lon="0.17832">
        <ele>585.8</ele>
        <time>2020-06-30T15:08:50Z</time>
      </trkpt>
      <trkpt lat="43.08183" lon="0.17833">
        <ele>586</ele>
        <time>2020-06-30T15:08:51Z</time>
      </trkpt>
      <trkpt lat="43.08185" lon="0.17833">
        <ele>586</ele>
        <time>2020-06-30T15:08:52Z</time>
      </trkpt>
      <trkpt lat="43.08186" lon="0.17831">
        <ele>586.2</ele>
        <time>2020-06-30T15:08:53Z</time>
      </trkpt>
      <trkpt lat="43.08186" lon="0.1783">
        <ele>586.2</ele>
        <time>2020-06-30T15:08:54Z</time>
      </trkpt>
      <trkpt lat="43.08187" lon="0.17829">
        <ele>586.4</ele>
        <time>2020-06-30T15:08:55Z</time>
      </trkpt>
      <trkpt lat="43.08189" lon="0.17829">
        <ele>586.4</ele>
        <time>2020-06-30T15:08:56Z</time>
      </trkpt>
      <trkpt lat="43.0819" lon="0.17829">
        <ele>586.6</ele>
        <time>2020-06-30T15:08:57Z</time>
      </trkpt>
      <trkpt lat="43.08191" lon="0.17829">
        <ele>586.6</ele>
        <time>2020-06-30T15:08:58Z</time>
      </trkpt>
      <trkpt lat="43.08192" lon="0.17829">
        <ele>586.8</ele>
        <time>2020-06-30T15:08:59Z</time>
      </trkpt>
      <trkpt lat="43.08193" lon="0.17829">
        <ele>586.8</ele>
        <time>2020-06-30T15:09:00Z</time>
      </trkpt>
      <trkpt lat="43.08196" lon="0.17828">
        <ele>586.8</ele>
        <time>2020-06-30T15:09:01Z</time>
      </trkpt>
      <trkpt lat="43.08198" lon="0.17827">
        <ele>587</ele>
        <time>2020-06-30T15:09:02Z</time>
      </trkpt>
      <trkpt lat="43.08199" lon="0.17825">
        <ele>587</ele>
        <time>2020-06-30T15:09:03Z</time>
      </trkpt>
      <trkpt lat="43.08201" lon="0.17824">
        <ele>587.2</ele>
        <time>2020-06-30T15:09:04Z</time>
      </trkpt>
      <trkpt lat="43.08202" lon="0.17823">
        <ele>587.2</ele>
        <time>2020-06-30T15:09:05Z</time>
      </trkpt>
      <trkpt lat="43.08204" lon="0.17821">
        <ele>587.4</ele>
        <time>2020-06-30T15:09:06Z</time>
      </trkpt>
      <trkpt lat="43.08205" lon="0.1782">
        <ele>587.4</ele>
        <time>2020-06-30T15:09:07Z</time>
      </trkpt>
      <trkpt lat="43.08206" lon="0.17819">
        <ele>587.6</ele>
        <time>2020-06-30T15:09:08Z</time>
      </trkpt>
      <trkpt lat="43.08208" lon="0.17816">
        <ele>587.6</ele>
        <time>2020-06-30T15:09:09Z</time>
      </trkpt>
      <trkpt lat="43.08209" lon="0.17815">
        <ele>587.6</ele>
        <time>2020-06-30T15:09:10Z</time>
      </trkpt>
      <trkpt lat="43.0821" lon="0.17815">
        <ele>587.8</ele>
        <time>2020-06-30T15:09:11Z</time>
      </trkpt>
      <trkpt lat="43.08212" lon="0.17814">
        <ele>587.8</ele>
        <time>2020-06-30T15:09:12Z</time>
      </trkpt>
      <trkpt lat="43.08213" lon="0.17812">
        <ele>588</ele>
        <time>2020-06-30T15:09:13Z</time>
      </trkpt>
      <trkpt lat="43.08215" lon="0.17812">
        <ele>588</ele>
        <time>2020-06-30T15:09:14Z</time>
      </trkpt>
      <trkpt lat="43.08218" lon="0.1781">
        <ele>588.2</ele>
        <time>2020-06-30T15:09:15Z</time>
      </trkpt>
      <trkpt lat="43.08219" lon="0.17809">
        <ele>588.4</ele>
        <time>2020-06-30T15:09:16Z</time>
      </trkpt>
      <trkpt lat="43.08221" lon="0.17809">
        <ele>588.4</ele>
        <time>2020-06-30T15:09:17Z</time>
      </trkpt>
      <trkpt lat="43.08223" lon="0.17809">
        <ele>588.6</ele>
        <time>2020-06-30T15:09:18Z</time>
      </trkpt>
      <trkpt lat="43.08224" lon="0.17808">
        <ele>588.6</ele>
        <time>2020-06-30T15:09:19Z</time>
      </trkpt>
      <trkpt lat="43.08226" lon="0.17808">
        <ele>588.8</ele>
        <time>2020-06-30T15:09:20Z</time>
      </trkpt>
      <trkpt lat="43.08228" lon="0.17806">
        <ele>588.8</ele>
        <time>2020-06-30T15:09:21Z</time>
      </trkpt>
      <trkpt lat="43.08229" lon="0.17805">
        <ele>589</ele>
        <time>2020-06-30T15:09:22Z</time>
      </trkpt>
      <trkpt lat="43.0823" lon="0.17804">
        <ele>589</ele>
        <time>2020-06-30T15:09:23Z</time>
      </trkpt>
      <trkpt lat="43.08232" lon="0.17803">
        <ele>589.2</ele>
        <time>2020-06-30T15:09:24Z</time>
      </trkpt>
      <trkpt lat="43.08234" lon="0.17803">
        <ele>589.2</ele>
        <time>2020-06-30T15:09:25Z</time>
      </trkpt>
      <trkpt lat="43.08236" lon="0.17802">
        <ele>589.4</ele>
        <time>2020-06-30T15:09:26Z</time>
      </trkpt>
      <trkpt lat="43.08237" lon="0.17801">
        <ele>589.4</ele>
        <time>2020-06-30T15:09:27Z</time>
      </trkpt>
      <trkpt lat="43.08239" lon="0.17801">
        <ele>589.6</ele>
        <time>2020-06-30T15:09:28Z</time>
      </trkpt>
      <trkpt lat="43.08241" lon="0.17801">
        <ele>589.6</ele>
        <time>2020-06-30T15:09:29Z</time>
      </trkpt>
      <trkpt lat="43.08244" lon="0.17801">
        <ele>589.8</ele>
        <time>2020-06-30T15:09:30Z</time>
      </trkpt>
      <trkpt lat="43.08245" lon="0.178">
        <ele>589.8</ele>
        <time>2020-06-30T15:09:31Z</time>
      </trkpt>
      <trkpt lat="43.08247" lon="0.17799">
        <ele>590</ele>
        <time>2020-06-30T15:09:32Z</time>
      </trkpt>
      <trkpt lat="43.08248" lon="0.17798">
        <ele>590.2</ele>
        <time>2020-06-30T15:09:33Z</time>
      </trkpt>
      <trkpt lat="43.08249" lon="0.17798">
        <ele>590.2</ele>
        <time>2020-06-30T15:09:34Z</time>
      </trkpt>
      <trkpt lat="43.0825" lon="0.17796">
        <ele>590.4</ele>
        <time>2020-06-30T15:09:35Z</time>
      </trkpt>
      <trkpt lat="43.08251" lon="0.17795">
        <ele>590.4</ele>
        <time>2020-06-30T15:09:36Z</time>
      </trkpt>
      <trkpt lat="43.08253" lon="0.17795">
        <ele>590.6</ele>
        <time>2020-06-30T15:09:37Z</time>
      </trkpt>
      <trkpt lat="43.08254" lon="0.17795">
        <ele>590.6</ele>
        <time>2020-06-30T15:09:38Z</time>
      </trkpt>
      <trkpt lat="43.08257" lon="0.17793">
        <ele>590.6</ele>
        <time>2020-06-30T15:09:39Z</time>
      </trkpt>
      <trkpt lat="43.08258" lon="0.17793">
        <ele>590.8</ele>
        <time>2020-06-30T15:09:40Z</time>
      </trkpt>
      <trkpt lat="43.0826" lon="0.17792">
        <ele>590.8</ele>
        <time>2020-06-30T15:09:41Z</time>
      </trkpt>
      <trkpt lat="43.08263" lon="0.17792">
        <ele>591</ele>
        <time>2020-06-30T15:09:42Z</time>
      </trkpt>
      <trkpt lat="43.08264" lon="0.17791">
        <ele>591</ele>
        <time>2020-06-30T15:09:43Z</time>
      </trkpt>
      <trkpt lat="43.08265" lon="0.1779">
        <ele>591.2</ele>
        <time>2020-06-30T15:09:44Z</time>
      </trkpt>
      <trkpt lat="43.08266" lon="0.17791">
        <ele>591.2</ele>
        <time>2020-06-30T15:09:45Z</time>
      </trkpt>
      <trkpt lat="43.08268" lon="0.17789">
        <ele>591.4</ele>
        <time>2020-06-30T15:09:46Z</time>
      </trkpt>
      <trkpt lat="43.0827" lon="0.17789">
        <ele>591.4</ele>
        <time>2020-06-30T15:09:47Z</time>
      </trkpt>
      <trkpt lat="43.08272" lon="0.17788">
        <ele>591.6</ele>
        <time>2020-06-30T15:09:48Z</time>
      </trkpt>
      <trkpt lat="43.08274" lon="0.17787">
        <ele>591.6</ele>
        <time>2020-06-30T15:09:49Z</time>
      </trkpt>
      <trkpt lat="43.08276" lon="0.17787">
        <ele>591.8</ele>
        <time>2020-06-30T15:09:50Z</time>
      </trkpt>
      <trkpt lat="43.08277" lon="0.17786">
        <ele>592</ele>
        <time>2020-06-30T15:09:51Z</time>
      </trkpt>
      <trkpt lat="43.08279" lon="0.17785">
        <ele>592</ele>
        <time>2020-06-30T15:09:52Z</time>
      </trkpt>
      <trkpt lat="43.08281" lon="0.17785">
        <ele>592.2</ele>
        <time>2020-06-30T15:09:53Z</time>
      </trkpt>
      <trkpt lat="43.08282" lon="0.17784">
        <ele>592.2</ele>
        <time>2020-06-30T15:09:54Z</time>
      </trkpt>
      <trkpt lat="43.08285" lon="0.17783">
        <ele>592.4</ele>
        <time>2020-06-30T15:09:55Z</time>
      </trkpt>
      <trkpt lat="43.08285" lon="0.17782">
        <ele>592.6</ele>
        <time>2020-06-30T15:09:56Z</time>
      </trkpt>
      <trkpt lat="43.08287" lon="0.17779">
        <ele>592.6</ele>
        <time>2020-06-30T15:09:57Z</time>
      </trkpt>
      <trkpt lat="43.08288" lon="0.17778">
        <ele>592.8</ele>
        <time>2020-06-30T15:09:58Z</time>
      </trkpt>
      <trkpt lat="43.08289" lon="0.17777">
        <ele>593</ele>
        <time>2020-06-30T15:09:59Z</time>
      </trkpt>
      <trkpt lat="43.08291" lon="0.17776">
        <ele>593</ele>
        <time>2020-06-30T15:10:00Z</time>
      </trkpt>
      <trkpt lat="43.08292" lon="0.17774">
        <ele>593.2</ele>
        <time>2020-06-30T15:10:01Z</time>
      </trkpt>
      <trkpt lat="43.08293" lon="0.17772">
        <ele>593.2</ele>
        <time>2020-06-30T15:10:02Z</time>
      </trkpt>
      <trkpt lat="43.08295" lon="0.17771">
        <ele>593.4</ele>
        <time>2020-06-30T15:10:03Z</time>
      </trkpt>
      <trkpt lat="43.08296" lon="0.17769">
        <ele>593.6</ele>
        <time>2020-06-30T15:10:04Z</time>
      </trkpt>
      <trkpt lat="43.08297" lon="0.17769">
        <ele>593.6</ele>
        <time>2020-06-30T15:10:05Z</time>
      </trkpt>
      <trkpt lat="43.08299" lon="0.17768">
        <ele>593.8</ele>
        <time>2020-06-30T15:10:06Z</time>
      </trkpt>
      <trkpt lat="43.083" lon="0.17767">
        <ele>594</ele>
        <time>2020-06-30T15:10:07Z</time>
      </trkpt>
      <trkpt lat="43.08301" lon="0.17766">
        <ele>594</ele>
        <time>2020-06-30T15:10:08Z</time>
      </trkpt>
      <trkpt lat="43.08302" lon="0.17765">
        <ele>594</ele>
        <time>2020-06-30T15:10:09Z</time>
      </trkpt>
      <trkpt lat="43.08303" lon="0.17764">
        <ele>594.2</ele>
        <time>2020-06-30T15:10:10Z</time>
      </trkpt>
      <trkpt lat="43.08305" lon="0.17763">
        <ele>594.2</ele>
        <time>2020-06-30T15:10:11Z</time>
      </trkpt>
      <trkpt lat="43.08305" lon="0.17762">
        <ele>594.4</ele>
        <time>2020-06-30T15:10:12Z</time>
      </trkpt>
      <trkpt lat="43.08307" lon="0.1776">
        <ele>594.4</ele>
        <time>2020-06-30T15:10:13Z</time>
      </trkpt>
      <trkpt lat="43.08308" lon="0.17758">
        <ele>594.6</ele>
        <time>2020-06-30T15:10:14Z</time>
      </trkpt>
      <trkpt lat="43.0831" lon="0.17757">
        <ele>594.6</ele>
        <time>2020-06-30T15:10:15Z</time>
      </trkpt>
      <trkpt lat="43.08311" lon="0.17755">
        <ele>594.8</ele>
        <time>2020-06-30T15:10:16Z</time>
      </trkpt>
      <trkpt lat="43.08312" lon="0.17754">
        <ele>594.8</ele>
        <time>2020-06-30T15:10:17Z</time>
      </trkpt>
      <trkpt lat="43.08313" lon="0.17753">
        <ele>595</ele>
        <time>2020-06-30T15:10:18Z</time>
      </trkpt>
      <trkpt lat="43.08314" lon="0.17751">
        <ele>595</ele>
        <time>2020-06-30T15:10:19Z</time>
      </trkpt>
      <trkpt lat="43.08314" lon="0.17749">
        <ele>595.2</ele>
        <time>2020-06-30T15:10:20Z</time>
      </trkpt>
      <trkpt lat="43.08314" lon="0.17747">
        <ele>595.2</ele>
        <time>2020-06-30T15:10:21Z</time>
      </trkpt>
      <trkpt lat="43.08315" lon="0.17745">
        <ele>595.4</ele>
        <time>2020-06-30T15:10:22Z</time>
      </trkpt>
      <trkpt lat="43.08315" lon="0.17742">
        <ele>595.6</ele>
        <time>2020-06-30T15:10:23Z</time>
      </trkpt>
      <trkpt lat="43.08316" lon="0.1774">
        <ele>595.6</ele>
        <time>2020-06-30T15:10:24Z</time>
      </trkpt>
      <trkpt lat="43.08316" lon="0.17739">
        <ele>595.8</ele>
        <time>2020-06-30T15:10:25Z</time>
      </trkpt>
      <trkpt lat="43.08317" lon="0.17736">
        <ele>595.8</ele>
        <time>2020-06-30T15:10:26Z</time>
      </trkpt>
      <trkpt lat="43.08317" lon="0.17734">
        <ele>595.8</ele>
        <time>2020-06-30T15:10:27Z</time>
      </trkpt>
      <trkpt lat="43.08317" lon="0.17733">
        <ele>596</ele>
        <time>2020-06-30T15:10:28Z</time>
      </trkpt>
      <trkpt lat="43.08318" lon="0.17731">
        <ele>596</ele>
        <time>2020-06-30T15:10:29Z</time>
      </trkpt>
      <trkpt lat="43.08318" lon="0.17729">
        <ele>596.2</ele>
        <time>2020-06-30T15:10:30Z</time>
      </trkpt>
      <trkpt lat="43.0832" lon="0.17727">
        <ele>596.2</ele>
        <time>2020-06-30T15:10:31Z</time>
      </trkpt>
      <trkpt lat="43.0832" lon="0.17725">
        <ele>596.4</ele>
        <time>2020-06-30T15:10:32Z</time>
      </trkpt>
      <trkpt lat="43.0832" lon="0.17723">
        <ele>596.6</ele>
        <time>2020-06-30T15:10:33Z</time>
      </trkpt>
      <trkpt lat="43.08321" lon="0.17721">
        <ele>596.6</ele>
        <time>2020-06-30T15:10:34Z</time>
      </trkpt>
      <trkpt lat="43.08321" lon="0.17718">
        <ele>596.6</ele>
        <time>2020-06-30T15:10:35Z</time>
      </trkpt>
      <trkpt lat="43.0832" lon="0.17714">
        <ele>596.8</ele>
        <time>2020-06-30T15:10:36Z</time>
      </trkpt>
      <trkpt lat="43.08321" lon="0.17713">
        <ele>596.8</ele>
        <time>2020-06-30T15:10:37Z</time>
      </trkpt>
      <trkpt lat="43.0832" lon="0.1771">
        <ele>597</ele>
        <time>2020-06-30T15:10:38Z</time>
      </trkpt>
      <trkpt lat="43.08321" lon="0.17707">
        <ele>597</ele>
        <time>2020-06-30T15:10:39Z</time>
      </trkpt>
      <trkpt lat="43.08321" lon="0.17704">
        <ele>597</ele>
        <time>2020-06-30T15:10:40Z</time>
      </trkpt>
      <trkpt lat="43.08321" lon="0.17701">
        <ele>597.2</ele>
        <time>2020-06-30T15:10:41Z</time>
      </trkpt>
      <trkpt lat="43.08322" lon="0.17699">
        <ele>597.2</ele>
        <time>2020-06-30T15:10:42Z</time>
      </trkpt>
      <trkpt lat="43.08322" lon="0.17697">
        <ele>597.4</ele>
        <time>2020-06-30T15:10:43Z</time>
      </trkpt>
      <trkpt lat="43.08322" lon="0.17695">
        <ele>597.4</ele>
        <time>2020-06-30T15:10:44Z</time>
      </trkpt>
      <trkpt lat="43.08322" lon="0.17692">
        <ele>597.6</ele>
        <time>2020-06-30T15:10:45Z</time>
      </trkpt>
      <trkpt lat="43.08322" lon="0.17691">
        <ele>597.6</ele>
        <time>2020-06-30T15:10:46Z</time>
      </trkpt>
      <trkpt lat="43.08322" lon="0.17687">
        <ele>597.8</ele>
        <time>2020-06-30T15:10:47Z</time>
      </trkpt>
      <trkpt lat="43.08321" lon="0.17685">
        <ele>597.8</ele>
        <time>2020-06-30T15:10:48Z</time>
      </trkpt>
      <trkpt lat="43.08321" lon="0.17683">
        <ele>598</ele>
        <time>2020-06-30T15:10:49Z</time>
      </trkpt>
      <trkpt lat="43.08322" lon="0.17682">
        <ele>598</ele>
        <time>2020-06-30T15:10:50Z</time>
      </trkpt>
      <trkpt lat="43.08321" lon="0.17679">
        <ele>598.2</ele>
        <time>2020-06-30T15:10:51Z</time>
      </trkpt>
      <trkpt lat="43.08321" lon="0.17677">
        <ele>598.2</ele>
        <time>2020-06-30T15:10:52Z</time>
      </trkpt>
      <trkpt lat="43.08321" lon="0.17675">
        <ele>598.4</ele>
        <time>2020-06-30T15:10:53Z</time>
      </trkpt>
      <trkpt lat="43.08321" lon="0.17672">
        <ele>598.4</ele>
        <time>2020-06-30T15:10:54Z</time>
      </trkpt>
      <trkpt lat="43.08322" lon="0.1767">
        <ele>598.6</ele>
        <time>2020-06-30T15:10:55Z</time>
      </trkpt>
      <trkpt lat="43.08322" lon="0.17669">
        <ele>598.6</ele>
        <time>2020-06-30T15:10:56Z</time>
      </trkpt>
      <trkpt lat="43.08321" lon="0.17666">
        <ele>598.8</ele>
        <time>2020-06-30T15:10:57Z</time>
      </trkpt>
      <trkpt lat="43.0832" lon="0.17664">
        <ele>598.8</ele>
        <time>2020-06-30T15:10:58Z</time>
      </trkpt>
      <trkpt lat="43.08319" lon="0.1766">
        <ele>599</ele>
        <time>2020-06-30T15:10:59Z</time>
      </trkpt>
      <trkpt lat="43.08319" lon="0.17658">
        <ele>599.2</ele>
        <time>2020-06-30T15:11:00Z</time>
      </trkpt>
      <trkpt lat="43.08319" lon="0.17657">
        <ele>599.2</ele>
        <time>2020-06-30T15:11:01Z</time>
      </trkpt>
      <trkpt lat="43.08319" lon="0.17655">
        <ele>599.2</ele>
        <time>2020-06-30T15:11:02Z</time>
      </trkpt>
      <trkpt lat="43.08319" lon="0.17654">
        <ele>599.4</ele>
        <time>2020-06-30T15:11:03Z</time>
      </trkpt>
      <trkpt lat="43.08318" lon="0.17652">
        <ele>599.6</ele>
        <time>2020-06-30T15:11:04Z</time>
      </trkpt>
      <trkpt lat="43.08317" lon="0.17649">
        <ele>599.8</ele>
        <time>2020-06-30T15:11:05Z</time>
      </trkpt>
      <trkpt lat="43.08316" lon="0.17646">
        <ele>599.8</ele>
        <time>2020-06-30T15:11:06Z</time>
      </trkpt>
      <trkpt lat="43.08316" lon="0.17643">
        <ele>599.8</ele>
        <time>2020-06-30T15:11:07Z</time>
      </trkpt>
      <trkpt lat="43.08316" lon="0.1764">
        <ele>600</ele>
        <time>2020-06-30T15:11:08Z</time>
      </trkpt>
      <trkpt lat="43.08315" lon="0.17638">
        <ele>600</ele>
        <time>2020-06-30T15:11:09Z</time>
      </trkpt>
      <trkpt lat="43.08315" lon="0.17636">
        <ele>600.2</ele>
        <time>2020-06-30T15:11:10Z</time>
      </trkpt>
      <trkpt lat="43.08314" lon="0.17633">
        <ele>600.4</ele>
        <time>2020-06-30T15:11:11Z</time>
      </trkpt>
      <trkpt lat="43.08314" lon="0.17631">
        <ele>600.6</ele>
        <time>2020-06-30T15:11:12Z</time>
      </trkpt>
      <trkpt lat="43.08313" lon="0.17628">
        <ele>600.8</ele>
        <time>2020-06-30T15:11:13Z</time>
      </trkpt>
      <trkpt lat="43.08313" lon="0.17625">
        <ele>601</ele>
        <time>2020-06-30T15:11:14Z</time>
      </trkpt>
      <trkpt lat="43.08312" lon="0.17623">
        <ele>601</ele>
        <time>2020-06-30T15:11:15Z</time>
      </trkpt>
      <trkpt lat="43.08312" lon="0.17621">
        <ele>601</ele>
        <time>2020-06-30T15:11:16Z</time>
      </trkpt>
      <trkpt lat="43.08311" lon="0.17619">
        <ele>601.2</ele>
        <time>2020-06-30T15:11:17Z</time>
      </trkpt>
      <trkpt lat="43.08311" lon="0.17616">
        <ele>601.4</ele>
        <time>2020-06-30T15:11:18Z</time>
      </trkpt>
      <trkpt lat="43.08311" lon="0.17614">
        <ele>601.6</ele>
        <time>2020-06-30T15:11:19Z</time>
      </trkpt>
      <trkpt lat="43.0831" lon="0.17611">
        <ele>601.6</ele>
        <time>2020-06-30T15:11:20Z</time>
      </trkpt>
      <trkpt lat="43.0831" lon="0.17608">
        <ele>601.8</ele>
        <time>2020-06-30T15:11:21Z</time>
      </trkpt>
      <trkpt lat="43.08309" lon="0.17605">
        <ele>602</ele>
        <time>2020-06-30T15:11:22Z</time>
      </trkpt>
      <trkpt lat="43.08308" lon="0.17602">
        <ele>602</ele>
        <time>2020-06-30T15:11:23Z</time>
      </trkpt>
      <trkpt lat="43.08308" lon="0.176">
        <ele>602.2</ele>
        <time>2020-06-30T15:11:24Z</time>
      </trkpt>
      <trkpt lat="43.08308" lon="0.17597">
        <ele>602.2</ele>
        <time>2020-06-30T15:11:25Z</time>
      </trkpt>
      <trkpt lat="43.08308" lon="0.17594">
        <ele>602.4</ele>
        <time>2020-06-30T15:11:26Z</time>
      </trkpt>
      <trkpt lat="43.08308" lon="0.17592">
        <ele>602.4</ele>
        <time>2020-06-30T15:11:27Z</time>
      </trkpt>
      <trkpt lat="43.08307" lon="0.17589">
        <ele>602.6</ele>
        <time>2020-06-30T15:11:28Z</time>
      </trkpt>
      <trkpt lat="43.08306" lon="0.17586">
        <ele>602.6</ele>
        <time>2020-06-30T15:11:29Z</time>
      </trkpt>
      <trkpt lat="43.08306" lon="0.17583">
        <ele>602.8</ele>
        <time>2020-06-30T15:11:30Z</time>
      </trkpt>
      <trkpt lat="43.08305" lon="0.1758">
        <ele>602.8</ele>
        <time>2020-06-30T15:11:31Z</time>
      </trkpt>
      <trkpt lat="43.08305" lon="0.17577">
        <ele>603</ele>
        <time>2020-06-30T15:11:32Z</time>
      </trkpt>
      <trkpt lat="43.08305" lon="0.17574">
        <ele>603.2</ele>
        <time>2020-06-30T15:11:33Z</time>
      </trkpt>
      <trkpt lat="43.08303" lon="0.17572">
        <ele>603.2</ele>
        <time>2020-06-30T15:11:34Z</time>
      </trkpt>
      <trkpt lat="43.08302" lon="0.1757">
        <ele>603.4</ele>
        <time>2020-06-30T15:11:35Z</time>
      </trkpt>
      <trkpt lat="43.08302" lon="0.17567">
        <ele>603.4</ele>
        <time>2020-06-30T15:11:36Z</time>
      </trkpt>
      <trkpt lat="43.08301" lon="0.17565">
        <ele>603.6</ele>
        <time>2020-06-30T15:11:37Z</time>
      </trkpt>
      <trkpt lat="43.08301" lon="0.17563">
        <ele>603.6</ele>
        <time>2020-06-30T15:11:38Z</time>
      </trkpt>
      <trkpt lat="43.08301" lon="0.1756">
        <ele>603.8</ele>
        <time>2020-06-30T15:11:39Z</time>
      </trkpt>
      <trkpt lat="43.08301" lon="0.17558">
        <ele>603.8</ele>
        <time>2020-06-30T15:11:40Z</time>
      </trkpt>
      <trkpt lat="43.083" lon="0.17556">
        <ele>604</ele>
        <time>2020-06-30T15:11:41Z</time>
      </trkpt>
      <trkpt lat="43.083" lon="0.17553">
        <ele>604.2</ele>
        <time>2020-06-30T15:11:42Z</time>
      </trkpt>
      <trkpt lat="43.08299" lon="0.17551">
        <ele>604.2</ele>
        <time>2020-06-30T15:11:43Z</time>
      </trkpt>
      <trkpt lat="43.08299" lon="0.17549">
        <ele>604.2</ele>
        <time>2020-06-30T15:11:44Z</time>
      </trkpt>
      <trkpt lat="43.08299" lon="0.17546">
        <ele>604.4</ele>
        <time>2020-06-30T15:11:45Z</time>
      </trkpt>
      <trkpt lat="43.08298" lon="0.17544">
        <ele>604.4</ele>
        <time>2020-06-30T15:11:46Z</time>
      </trkpt>
      <trkpt lat="43.08297" lon="0.17542">
        <ele>604.6</ele>
        <time>2020-06-30T15:11:47Z</time>
      </trkpt>
      <trkpt lat="43.08297" lon="0.17539">
        <ele>604.8</ele>
        <time>2020-06-30T15:11:48Z</time>
      </trkpt>
      <trkpt lat="43.08297" lon="0.17537">
        <ele>604.8</ele>
        <time>2020-06-30T15:11:49Z</time>
      </trkpt>
      <trkpt lat="43.08297" lon="0.17534">
        <ele>605</ele>
        <time>2020-06-30T15:11:50Z</time>
      </trkpt>
      <trkpt lat="43.08296" lon="0.17532">
        <ele>605</ele>
        <time>2020-06-30T15:11:51Z</time>
      </trkpt>
      <trkpt lat="43.08295" lon="0.17529">
        <ele>605.2</ele>
        <time>2020-06-30T15:11:52Z</time>
      </trkpt>
      <trkpt lat="43.08295" lon="0.17526">
        <ele>605.2</ele>
        <time>2020-06-30T15:11:53Z</time>
      </trkpt>
      <trkpt lat="43.08294" lon="0.17524">
        <ele>605.4</ele>
        <time>2020-06-30T15:11:54Z</time>
      </trkpt>
      <trkpt lat="43.08294" lon="0.17521">
        <ele>605.4</ele>
        <time>2020-06-30T15:11:55Z</time>
      </trkpt>
      <trkpt lat="43.08293" lon="0.17518">
        <ele>605.6</ele>
        <time>2020-06-30T15:11:56Z</time>
      </trkpt>
      <trkpt lat="43.08293" lon="0.17516">
        <ele>605.8</ele>
        <time>2020-06-30T15:11:57Z</time>
      </trkpt>
      <trkpt lat="43.08293" lon="0.17513">
        <ele>605.8</ele>
        <time>2020-06-30T15:11:58Z</time>
      </trkpt>
      <trkpt lat="43.08293" lon="0.17511">
        <ele>606</ele>
        <time>2020-06-30T15:11:59Z</time>
      </trkpt>
      <trkpt lat="43.08292" lon="0.17509">
        <ele>606.2</ele>
        <time>2020-06-30T15:12:00Z</time>
      </trkpt>
      <trkpt lat="43.08292" lon="0.17506">
        <ele>606.2</ele>
        <time>2020-06-30T15:12:01Z</time>
      </trkpt>
      <trkpt lat="43.08291" lon="0.17503">
        <ele>606.4</ele>
        <time>2020-06-30T15:12:02Z</time>
      </trkpt>
      <trkpt lat="43.08291" lon="0.17501">
        <ele>606.4</ele>
        <time>2020-06-30T15:12:03Z</time>
      </trkpt>
      <trkpt lat="43.08291" lon="0.17499">
        <ele>606.6</ele>
        <time>2020-06-30T15:12:04Z</time>
      </trkpt>
      <trkpt lat="43.08291" lon="0.17496">
        <ele>606.8</ele>
        <time>2020-06-30T15:12:05Z</time>
      </trkpt>
      <trkpt lat="43.0829" lon="0.17494">
        <ele>606.8</ele>
        <time>2020-06-30T15:12:06Z</time>
      </trkpt>
      <trkpt lat="43.0829" lon="0.17492">
        <ele>607</ele>
        <time>2020-06-30T15:12:07Z</time>
      </trkpt>
      <trkpt lat="43.0829" lon="0.1749">
        <ele>607.2</ele>
        <time>2020-06-30T15:12:08Z</time>
      </trkpt>
      <trkpt lat="43.0829" lon="0.17487">
        <ele>607.2</ele>
        <time>2020-06-30T15:12:09Z</time>
      </trkpt>
      <trkpt lat="43.08289" lon="0.17484">
        <ele>607.4</ele>
        <time>2020-06-30T15:12:10Z</time>
      </trkpt>
      <trkpt lat="43.08289" lon="0.17482">
        <ele>607.4</ele>
        <time>2020-06-30T15:12:11Z</time>
      </trkpt>
      <trkpt lat="43.08289" lon="0.1748">
        <ele>607.6</ele>
        <time>2020-06-30T15:12:12Z</time>
      </trkpt>
      <trkpt lat="43.08288" lon="0.17476">
        <ele>607.8</ele>
        <time>2020-06-30T15:12:13Z</time>
      </trkpt>
      <trkpt lat="43.08288" lon="0.17474">
        <ele>607.8</ele>
        <time>2020-06-30T15:12:14Z</time>
      </trkpt>
      <trkpt lat="43.08287" lon="0.17472">
        <ele>608</ele>
        <time>2020-06-30T15:12:15Z</time>
      </trkpt>
      <trkpt lat="43.08287" lon="0.17469">
        <ele>608.2</ele>
        <time>2020-06-30T15:12:16Z</time>
      </trkpt>
      <trkpt lat="43.08286" lon="0.17467">
        <ele>608.2</ele>
        <time>2020-06-30T15:12:17Z</time>
      </trkpt>
      <trkpt lat="43.08286" lon="0.17465">
        <ele>608.4</ele>
        <time>2020-06-30T15:12:18Z</time>
      </trkpt>
      <trkpt lat="43.08285" lon="0.17462">
        <ele>608.4</ele>
        <time>2020-06-30T15:12:19Z</time>
      </trkpt>
      <trkpt lat="43.08285" lon="0.17459">
        <ele>608.6</ele>
        <time>2020-06-30T15:12:20Z</time>
      </trkpt>
      <trkpt lat="43.08284" lon="0.17457">
        <ele>608.6</ele>
        <time>2020-06-30T15:12:21Z</time>
      </trkpt>
      <trkpt lat="43.08284" lon="0.17455">
        <ele>608.8</ele>
        <time>2020-06-30T15:12:22Z</time>
      </trkpt>
      <trkpt lat="43.08283" lon="0.17453">
        <ele>609</ele>
        <time>2020-06-30T15:12:23Z</time>
      </trkpt>
      <trkpt lat="43.08283" lon="0.1745">
        <ele>609</ele>
        <time>2020-06-30T15:12:24Z</time>
      </trkpt>
      <trkpt lat="43.08283" lon="0.17447">
        <ele>609.2</ele>
        <time>2020-06-30T15:12:25Z</time>
      </trkpt>
      <trkpt lat="43.08283" lon="0.17445">
        <ele>609.2</ele>
        <time>2020-06-30T15:12:26Z</time>
      </trkpt>
      <trkpt lat="43.08284" lon="0.17443">
        <ele>609.4</ele>
        <time>2020-06-30T15:12:27Z</time>
      </trkpt>
      <trkpt lat="43.08283" lon="0.17442">
        <ele>609.4</ele>
        <time>2020-06-30T15:12:28Z</time>
      </trkpt>
      <trkpt lat="43.08283" lon="0.1744">
        <ele>609.4</ele>
        <time>2020-06-30T15:12:29Z</time>
      </trkpt>
      <trkpt lat="43.08283" lon="0.17437">
        <ele>609.6</ele>
        <time>2020-06-30T15:12:30Z</time>
      </trkpt>
      <trkpt lat="43.08283" lon="0.17435">
        <ele>609.8</ele>
        <time>2020-06-30T15:12:31Z</time>
      </trkpt>
      <trkpt lat="43.08283" lon="0.17432">
        <ele>610</ele>
        <time>2020-06-30T15:12:32Z</time>
      </trkpt>
      <trkpt lat="43.08283" lon="0.1743">
        <ele>610</ele>
        <time>2020-06-30T15:12:33Z</time>
      </trkpt>
      <trkpt lat="43.08282" lon="0.17428">
        <ele>610</ele>
        <time>2020-06-30T15:12:34Z</time>
      </trkpt>
      <trkpt lat="43.08282" lon="0.17425">
        <ele>610.2</ele>
        <time>2020-06-30T15:12:35Z</time>
      </trkpt>
      <trkpt lat="43.08281" lon="0.17423">
        <ele>610.4</ele>
        <time>2020-06-30T15:12:36Z</time>
      </trkpt>
      <trkpt lat="43.0828" lon="0.1742">
        <ele>610.4</ele>
        <time>2020-06-30T15:12:37Z</time>
      </trkpt>
      <trkpt lat="43.0828" lon="0.17418">
        <ele>610.6</ele>
        <time>2020-06-30T15:12:38Z</time>
      </trkpt>
      <trkpt lat="43.08279" lon="0.17415">
        <ele>610.8</ele>
        <time>2020-06-30T15:12:39Z</time>
      </trkpt>
      <trkpt lat="43.08279" lon="0.17413">
        <ele>610.8</ele>
        <time>2020-06-30T15:12:40Z</time>
      </trkpt>
      <trkpt lat="43.08277" lon="0.17411">
        <ele>610.8</ele>
        <time>2020-06-30T15:12:41Z</time>
      </trkpt>
      <trkpt lat="43.08277" lon="0.17408">
        <ele>611</ele>
        <time>2020-06-30T15:12:42Z</time>
      </trkpt>
      <trkpt lat="43.08277" lon="0.17406">
        <ele>611.2</ele>
        <time>2020-06-30T15:12:43Z</time>
      </trkpt>
      <trkpt lat="43.08278" lon="0.17404">
        <ele>611.4</ele>
        <time>2020-06-30T15:12:44Z</time>
      </trkpt>
      <trkpt lat="43.08277" lon="0.17402">
        <ele>611.4</ele>
        <time>2020-06-30T15:12:45Z</time>
      </trkpt>
      <trkpt lat="43.08277" lon="0.17399">
        <ele>611.4</ele>
        <time>2020-06-30T15:12:46Z</time>
      </trkpt>
      <trkpt lat="43.08277" lon="0.17397">
        <ele>611.6</ele>
        <time>2020-06-30T15:12:47Z</time>
      </trkpt>
      <trkpt lat="43.08276" lon="0.17394">
        <ele>611.8</ele>
        <time>2020-06-30T15:12:48Z</time>
      </trkpt>
      <trkpt lat="43.08276" lon="0.17391">
        <ele>611.8</ele>
        <time>2020-06-30T15:12:49Z</time>
      </trkpt>
      <trkpt lat="43.08276" lon="0.17389">
        <ele>612</ele>
        <time>2020-06-30T15:12:50Z</time>
      </trkpt>
      <trkpt lat="43.08276" lon="0.17386">
        <ele>612</ele>
        <time>2020-06-30T15:12:51Z</time>
      </trkpt>
      <trkpt lat="43.08275" lon="0.17383">
        <ele>612.2</ele>
        <time>2020-06-30T15:12:52Z</time>
      </trkpt>
      <trkpt lat="43.08275" lon="0.17381">
        <ele>612.2</ele>
        <time>2020-06-30T15:12:53Z</time>
      </trkpt>
      <trkpt lat="43.08275" lon="0.17379">
        <ele>612.4</ele>
        <time>2020-06-30T15:12:54Z</time>
      </trkpt>
      <trkpt lat="43.08275" lon="0.17377">
        <ele>612.4</ele>
        <time>2020-06-30T15:12:55Z</time>
      </trkpt>
      <trkpt lat="43.08275" lon="0.17375">
        <ele>612.6</ele>
        <time>2020-06-30T15:12:56Z</time>
      </trkpt>
      <trkpt lat="43.08274" lon="0.17372">
        <ele>612.8</ele>
        <time>2020-06-30T15:12:57Z</time>
      </trkpt>
      <trkpt lat="43.08274" lon="0.1737">
        <ele>612.8</ele>
        <time>2020-06-30T15:12:58Z</time>
      </trkpt>
      <trkpt lat="43.08273" lon="0.17368">
        <ele>613</ele>
        <time>2020-06-30T15:12:59Z</time>
      </trkpt>
      <trkpt lat="43.08274" lon="0.17365">
        <ele>613</ele>
        <time>2020-06-30T15:13:00Z</time>
      </trkpt>
      <trkpt lat="43.08273" lon="0.17363">
        <ele>613</ele>
        <time>2020-06-30T15:13:01Z</time>
      </trkpt>
      <trkpt lat="43.08273" lon="0.1736">
        <ele>613.2</ele>
        <time>2020-06-30T15:13:02Z</time>
      </trkpt>
      <trkpt lat="43.08273" lon="0.17357">
        <ele>613.2</ele>
        <time>2020-06-30T15:13:03Z</time>
      </trkpt>
      <trkpt lat="43.08272" lon="0.17354">
        <ele>613.4</ele>
        <time>2020-06-30T15:13:04Z</time>
      </trkpt>
      <trkpt lat="43.08272" lon="0.17351">
        <ele>613.4</ele>
        <time>2020-06-30T15:13:05Z</time>
      </trkpt>
      <trkpt lat="43.08271" lon="0.17348">
        <ele>613.6</ele>
        <time>2020-06-30T15:13:06Z</time>
      </trkpt>
      <trkpt lat="43.0827" lon="0.17345">
        <ele>613.6</ele>
        <time>2020-06-30T15:13:07Z</time>
      </trkpt>
      <trkpt lat="43.0827" lon="0.17343">
        <ele>613.8</ele>
        <time>2020-06-30T15:13:08Z</time>
      </trkpt>
      <trkpt lat="43.0827" lon="0.17341">
        <ele>613.8</ele>
        <time>2020-06-30T15:13:09Z</time>
      </trkpt>
      <trkpt lat="43.08269" lon="0.17339">
        <ele>614</ele>
        <time>2020-06-30T15:13:10Z</time>
      </trkpt>
      <trkpt lat="43.08269" lon="0.17337">
        <ele>614.2</ele>
        <time>2020-06-30T15:13:11Z</time>
      </trkpt>
      <trkpt lat="43.08269" lon="0.17334">
        <ele>614.2</ele>
        <time>2020-06-30T15:13:12Z</time>
      </trkpt>
      <trkpt lat="43.08268" lon="0.17331">
        <ele>614.4</ele>
        <time>2020-06-30T15:13:13Z</time>
      </trkpt>
      <trkpt lat="43.08268" lon="0.17329">
        <ele>614.4</ele>
        <time>2020-06-30T15:13:14Z</time>
      </trkpt>
      <trkpt lat="43.08268" lon="0.17327">
        <ele>614.6</ele>
        <time>2020-06-30T15:13:15Z</time>
      </trkpt>
      <trkpt lat="43.08268" lon="0.17325">
        <ele>614.6</ele>
        <time>2020-06-30T15:13:16Z</time>
      </trkpt>
      <trkpt lat="43.08269" lon="0.17322">
        <ele>614.8</ele>
        <time>2020-06-30T15:13:17Z</time>
      </trkpt>
      <trkpt lat="43.08269" lon="0.17319">
        <ele>615</ele>
        <time>2020-06-30T15:13:18Z</time>
      </trkpt>
      <trkpt lat="43.08269" lon="0.17316">
        <ele>615</ele>
        <time>2020-06-30T15:13:19Z</time>
      </trkpt>
      <trkpt lat="43.08269" lon="0.17313">
        <ele>615</ele>
        <time>2020-06-30T15:13:20Z</time>
      </trkpt>
      <trkpt lat="43.08271" lon="0.17311">
        <ele>615.2</ele>
        <time>2020-06-30T15:13:21Z</time>
      </trkpt>
      <trkpt lat="43.08272" lon="0.17306">
        <ele>615.4</ele>
        <time>2020-06-30T15:13:22Z</time>
      </trkpt>
      <trkpt lat="43.08272" lon="0.17302">
        <ele>615.4</ele>
        <time>2020-06-30T15:13:23Z</time>
      </trkpt>
      <trkpt lat="43.08271" lon="0.17301">
        <ele>615.6</ele>
        <time>2020-06-30T15:13:24Z</time>
      </trkpt>
      <trkpt lat="43.0827" lon="0.17298">
        <ele>615.8</ele>
        <time>2020-06-30T15:13:25Z</time>
      </trkpt>
      <trkpt lat="43.08269" lon="0.17297">
        <ele>615.8</ele>
        <time>2020-06-30T15:13:26Z</time>
      </trkpt>
      <trkpt lat="43.08271" lon="0.17294">
        <ele>616</ele>
        <time>2020-06-30T15:13:27Z</time>
      </trkpt>
      <trkpt lat="43.08271" lon="0.1729">
        <ele>616</ele>
        <time>2020-06-30T15:13:28Z</time>
      </trkpt>
      <trkpt lat="43.0827" lon="0.17288">
        <ele>616.2</ele>
        <time>2020-06-30T15:13:29Z</time>
      </trkpt>
      <trkpt lat="43.0827" lon="0.17285">
        <ele>616.4</ele>
        <time>2020-06-30T15:13:30Z</time>
      </trkpt>
      <trkpt lat="43.08271" lon="0.17284">
        <ele>616.4</ele>
        <time>2020-06-30T15:13:31Z</time>
      </trkpt>
      <trkpt lat="43.08272" lon="0.1728">
        <ele>616.6</ele>
        <time>2020-06-30T15:13:32Z</time>
      </trkpt>
      <trkpt lat="43.08269" lon="0.17276">
        <ele>616.6</ele>
        <time>2020-06-30T15:13:33Z</time>
      </trkpt>
      <trkpt lat="43.0827" lon="0.17275">
        <ele>616.8</ele>
        <time>2020-06-30T15:13:34Z</time>
      </trkpt>
      <trkpt lat="43.08271" lon="0.17271">
        <ele>617</ele>
        <time>2020-06-30T15:13:35Z</time>
      </trkpt>
      <trkpt lat="43.08271" lon="0.17269">
        <ele>617</ele>
        <time>2020-06-30T15:13:36Z</time>
      </trkpt>
      <trkpt lat="43.0827" lon="0.17267">
        <ele>617.2</ele>
        <time>2020-06-30T15:13:37Z</time>
      </trkpt>
      <trkpt lat="43.08271" lon="0.17263">
        <ele>617.2</ele>
        <time>2020-06-30T15:13:38Z</time>
      </trkpt>
      <trkpt lat="43.08269" lon="0.1726">
        <ele>617.4</ele>
        <time>2020-06-30T15:13:39Z</time>
      </trkpt>
      <trkpt lat="43.08271" lon="0.17258">
        <ele>617.6</ele>
        <time>2020-06-30T15:13:40Z</time>
      </trkpt>
      <trkpt lat="43.08271" lon="0.17255">
        <ele>617.6</ele>
        <time>2020-06-30T15:13:41Z</time>
      </trkpt>
      <trkpt lat="43.08271" lon="0.17252">
        <ele>617.8</ele>
        <time>2020-06-30T15:13:42Z</time>
      </trkpt>
      <trkpt lat="43.08271" lon="0.1725">
        <ele>617.8</ele>
        <time>2020-06-30T15:13:43Z</time>
      </trkpt>
      <trkpt lat="43.0827" lon="0.17248">
        <ele>618</ele>
        <time>2020-06-30T15:13:44Z</time>
      </trkpt>
      <trkpt lat="43.0827" lon="0.17244">
        <ele>618.2</ele>
        <time>2020-06-30T15:13:45Z</time>
      </trkpt>
      <trkpt lat="43.08272" lon="0.17243">
        <ele>618.2</ele>
        <time>2020-06-30T15:13:46Z</time>
      </trkpt>
      <trkpt lat="43.08273" lon="0.17239">
        <ele>618.4</ele>
        <time>2020-06-30T15:13:47Z</time>
      </trkpt>
      <trkpt lat="43.08273" lon="0.17238">
        <ele>618.4</ele>
        <time>2020-06-30T15:13:48Z</time>
      </trkpt>
      <trkpt lat="43.08273" lon="0.17234">
        <ele>618.6</ele>
        <time>2020-06-30T15:13:49Z</time>
      </trkpt>
      <trkpt lat="43.08274" lon="0.17232">
        <ele>618.6</ele>
        <time>2020-06-30T15:13:50Z</time>
      </trkpt>
      <trkpt lat="43.08274" lon="0.17231">
        <ele>618.8</ele>
        <time>2020-06-30T15:13:51Z</time>
      </trkpt>
      <trkpt lat="43.08275" lon="0.17228">
        <ele>618.8</ele>
        <time>2020-06-30T15:13:52Z</time>
      </trkpt>
      <trkpt lat="43.08275" lon="0.17224">
        <ele>619</ele>
        <time>2020-06-30T15:13:54Z</time>
      </trkpt>
      <trkpt lat="43.08274" lon="0.17217">
        <ele>619.2</ele>
        <time>2020-06-30T15:13:55Z</time>
      </trkpt>
      <trkpt lat="43.08275" lon="0.17214">
        <ele>619.4</ele>
        <time>2020-06-30T15:13:56Z</time>
      </trkpt>
      <trkpt lat="43.08276" lon="0.17211">
        <ele>619.4</ele>
        <time>2020-06-30T15:13:57Z</time>
      </trkpt>
      <trkpt lat="43.08277" lon="0.17209">
        <ele>619.6</ele>
        <time>2020-06-30T15:13:58Z</time>
      </trkpt>
      <trkpt lat="43.08278" lon="0.17206">
        <ele>619.6</ele>
        <time>2020-06-30T15:13:59Z</time>
      </trkpt>
      <trkpt lat="43.08279" lon="0.17204">
        <ele>619.8</ele>
        <time>2020-06-30T15:14:00Z</time>
      </trkpt>
      <trkpt lat="43.08278" lon="0.17201">
        <ele>619.8</ele>
        <time>2020-06-30T15:14:01Z</time>
      </trkpt>
      <trkpt lat="43.08279" lon="0.17198">
        <ele>620</ele>
        <time>2020-06-30T15:14:02Z</time>
      </trkpt>
      <trkpt lat="43.08279" lon="0.17194">
        <ele>620</ele>
        <time>2020-06-30T15:14:03Z</time>
      </trkpt>
      <trkpt lat="43.08278" lon="0.17191">
        <ele>620.2</ele>
        <time>2020-06-30T15:14:04Z</time>
      </trkpt>
      <trkpt lat="43.08277" lon="0.1719">
        <ele>620.2</ele>
        <time>2020-06-30T15:14:05Z</time>
      </trkpt>
      <trkpt lat="43.08278" lon="0.17188">
        <ele>620.4</ele>
        <time>2020-06-30T15:14:07Z</time>
      </trkpt>
      <trkpt lat="43.08279" lon="0.17185">
        <ele>620.6</ele>
        <time>2020-06-30T15:14:08Z</time>
      </trkpt>
      <trkpt lat="43.08281" lon="0.17184">
        <ele>620.6</ele>
        <time>2020-06-30T15:14:09Z</time>
      </trkpt>
      <trkpt lat="43.08281" lon="0.1718">
        <ele>620.8</ele>
        <time>2020-06-30T15:14:10Z</time>
      </trkpt>
      <trkpt lat="43.0828" lon="0.17176">
        <ele>621</ele>
        <time>2020-06-30T15:14:11Z</time>
      </trkpt>
      <trkpt lat="43.0828" lon="0.17174">
        <ele>621</ele>
        <time>2020-06-30T15:14:12Z</time>
      </trkpt>
      <trkpt lat="43.0828" lon="0.17172">
        <ele>621</ele>
        <time>2020-06-30T15:14:13Z</time>
      </trkpt>
      <trkpt lat="43.0828" lon="0.17169">
        <ele>621.2</ele>
        <time>2020-06-30T15:14:14Z</time>
      </trkpt>
      <trkpt lat="43.08283" lon="0.17167">
        <ele>621.4</ele>
        <time>2020-06-30T15:14:15Z</time>
      </trkpt>
      <trkpt lat="43.08282" lon="0.17165">
        <ele>621.6</ele>
        <time>2020-06-30T15:14:16Z</time>
      </trkpt>
      <trkpt lat="43.08282" lon="0.17164">
        <ele>621.6</ele>
        <time>2020-06-30T15:14:17Z</time>
      </trkpt>
      <trkpt lat="43.08285" lon="0.17162">
        <ele>621.8</ele>
        <time>2020-06-30T15:14:18Z</time>
      </trkpt>
      <trkpt lat="43.08288" lon="0.1716">
        <ele>621.8</ele>
        <time>2020-06-30T15:14:20Z</time>
      </trkpt>
      <trkpt lat="43.08293" lon="0.17157">
        <ele>622.2</ele>
        <time>2020-06-30T15:14:21Z</time>
      </trkpt>
      <trkpt lat="43.08294" lon="0.17155">
        <ele>622.2</ele>
        <time>2020-06-30T15:14:22Z</time>
      </trkpt>
      <trkpt lat="43.08296" lon="0.17153">
        <ele>622.4</ele>
        <time>2020-06-30T15:14:23Z</time>
      </trkpt>
      <trkpt lat="43.08297" lon="0.17151">
        <ele>622.4</ele>
        <time>2020-06-30T15:14:24Z</time>
      </trkpt>
      <trkpt lat="43.08299" lon="0.17148">
        <ele>622.6</ele>
        <time>2020-06-30T15:14:25Z</time>
      </trkpt>
      <trkpt lat="43.08299" lon="0.17146">
        <ele>622.6</ele>
        <time>2020-06-30T15:14:26Z</time>
      </trkpt>
      <trkpt lat="43.08299" lon="0.17143">
        <ele>622.8</ele>
        <time>2020-06-30T15:14:27Z</time>
      </trkpt>
      <trkpt lat="43.08299" lon="0.17139">
        <ele>623</ele>
        <time>2020-06-30T15:14:28Z</time>
      </trkpt>
      <trkpt lat="43.08298" lon="0.17137">
        <ele>623</ele>
        <time>2020-06-30T15:14:29Z</time>
      </trkpt>
      <trkpt lat="43.083" lon="0.17135">
        <ele>623.2</ele>
        <time>2020-06-30T15:14:31Z</time>
      </trkpt>
      <trkpt lat="43.08302" lon="0.17133">
        <ele>623.4</ele>
        <time>2020-06-30T15:14:32Z</time>
      </trkpt>
      <trkpt lat="43.08303" lon="0.17132">
        <ele>623.4</ele>
        <time>2020-06-30T15:14:33Z</time>
      </trkpt>
      <trkpt lat="43.08306" lon="0.1713">
        <ele>623.6</ele>
        <time>2020-06-30T15:14:34Z</time>
      </trkpt>
      <trkpt lat="43.08308" lon="0.17129">
        <ele>623.6</ele>
        <time>2020-06-30T15:14:35Z</time>
      </trkpt>
      <trkpt lat="43.0831" lon="0.17129">
        <ele>623.8</ele>
        <time>2020-06-30T15:14:36Z</time>
      </trkpt>
      <trkpt lat="43.08312" lon="0.17126">
        <ele>624</ele>
        <time>2020-06-30T15:14:38Z</time>
      </trkpt>
      <trkpt lat="43.08315" lon="0.17122">
        <ele>624.2</ele>
        <time>2020-06-30T15:14:39Z</time>
      </trkpt>
      <trkpt lat="43.08315" lon="0.1712">
        <ele>624.2</ele>
        <time>2020-06-30T15:14:40Z</time>
      </trkpt>
      <trkpt lat="43.08316" lon="0.17118">
        <ele>624.4</ele>
        <time>2020-06-30T15:14:41Z</time>
      </trkpt>
      <trkpt lat="43.08317" lon="0.17115">
        <ele>624.4</ele>
        <time>2020-06-30T15:14:42Z</time>
      </trkpt>
      <trkpt lat="43.08319" lon="0.17112">
        <ele>624.6</ele>
        <time>2020-06-30T15:14:44Z</time>
      </trkpt>
      <trkpt lat="43.08323" lon="0.17107">
        <ele>624.8</ele>
        <time>2020-06-30T15:14:45Z</time>
      </trkpt>
      <trkpt lat="43.08324" lon="0.17107">
        <ele>624.8</ele>
        <time>2020-06-30T15:14:46Z</time>
      </trkpt>
      <trkpt lat="43.08327" lon="0.17106">
        <ele>625</ele>
        <time>2020-06-30T15:14:47Z</time>
      </trkpt>
      <trkpt lat="43.0833" lon="0.17105">
        <ele>625</ele>
        <time>2020-06-30T15:14:49Z</time>
      </trkpt>
      <trkpt lat="43.08332" lon="0.17101">
        <ele>625.2</ele>
        <time>2020-06-30T15:14:50Z</time>
      </trkpt>
      <trkpt lat="43.08333" lon="0.17099">
        <ele>625.4</ele>
        <time>2020-06-30T15:14:51Z</time>
      </trkpt>
      <trkpt lat="43.08334" lon="0.17097">
        <ele>625.4</ele>
        <time>2020-06-30T15:14:53Z</time>
      </trkpt>
      <trkpt lat="43.08336" lon="0.17092">
        <ele>625.8</ele>
        <time>2020-06-30T15:14:54Z</time>
      </trkpt>
      <trkpt lat="43.08336" lon="0.17089">
        <ele>625.8</ele>
        <time>2020-06-30T15:14:55Z</time>
      </trkpt>
      <trkpt lat="43.08339" lon="0.17087">
        <ele>626</ele>
        <time>2020-06-30T15:14:56Z</time>
      </trkpt>
      <trkpt lat="43.0834" lon="0.17084">
        <ele>626</ele>
        <time>2020-06-30T15:14:57Z</time>
      </trkpt>
      <trkpt lat="43.08341" lon="0.17083">
        <ele>626.2</ele>
        <time>2020-06-30T15:14:58Z</time>
      </trkpt>
      <trkpt lat="43.08343" lon="0.17081">
        <ele>626.2</ele>
        <time>2020-06-30T15:14:59Z</time>
      </trkpt>
      <trkpt lat="43.08343" lon="0.17079">
        <ele>626.4</ele>
        <time>2020-06-30T15:15:00Z</time>
      </trkpt>
      <trkpt lat="43.08345" lon="0.17077">
        <ele>626.6</ele>
        <time>2020-06-30T15:15:01Z</time>
      </trkpt>
      <trkpt lat="43.08345" lon="0.17074">
        <ele>626.6</ele>
        <time>2020-06-30T15:15:03Z</time>
      </trkpt>
      <trkpt lat="43.08347" lon="0.17072">
        <ele>626.8</ele>
        <time>2020-06-30T15:15:04Z</time>
      </trkpt>
      <trkpt lat="43.08347" lon="0.17071">
        <ele>627</ele>
        <time>2020-06-30T15:15:05Z</time>
      </trkpt>
      <trkpt lat="43.08347" lon="0.17068">
        <ele>627</ele>
        <time>2020-06-30T15:15:06Z</time>
      </trkpt>
      <trkpt lat="43.0835" lon="0.17064">
        <ele>627.2</ele>
        <time>2020-06-30T15:15:07Z</time>
      </trkpt>
      <trkpt lat="43.08353" lon="0.17063">
        <ele>627.2</ele>
        <time>2020-06-30T15:15:08Z</time>
      </trkpt>
      <trkpt lat="43.08353" lon="0.1706">
        <ele>627.2</ele>
        <time>2020-06-30T15:15:09Z</time>
      </trkpt>
      <trkpt lat="43.08354" lon="0.17056">
        <ele>627.4</ele>
        <time>2020-06-30T15:15:10Z</time>
      </trkpt>
      <trkpt lat="43.08357" lon="0.17054">
        <ele>627.4</ele>
        <time>2020-06-30T15:15:11Z</time>
      </trkpt>
      <trkpt lat="43.08358" lon="0.17051">
        <ele>627.4</ele>
        <time>2020-06-30T15:15:12Z</time>
      </trkpt>
      <trkpt lat="43.08357" lon="0.17047">
        <ele>627.4</ele>
        <time>2020-06-30T15:15:14Z</time>
      </trkpt>
      <trkpt lat="43.08357" lon="0.17043">
        <ele>627.4</ele>
        <time>2020-06-30T15:15:15Z</time>
      </trkpt>
      <trkpt lat="43.08358" lon="0.1704">
        <ele>627.4</ele>
        <time>2020-06-30T15:15:16Z</time>
      </trkpt>
      <trkpt lat="43.08362" lon="0.17038">
        <ele>627.6</ele>
        <time>2020-06-30T15:15:17Z</time>
      </trkpt>
      <trkpt lat="43.08362" lon="0.17034">
        <ele>627.6</ele>
        <time>2020-06-30T15:15:18Z</time>
      </trkpt>
      <trkpt lat="43.0836" lon="0.17026">
        <ele>627.8</ele>
        <time>2020-06-30T15:15:19Z</time>
      </trkpt>
      <trkpt lat="43.08361" lon="0.17023">
        <ele>627.8</ele>
        <time>2020-06-30T15:15:21Z</time>
      </trkpt>
      <trkpt lat="43.0836" lon="0.17019">
        <ele>627.8</ele>
        <time>2020-06-30T15:15:22Z</time>
      </trkpt>
      <trkpt lat="43.08359" lon="0.17013">
        <ele>628</ele>
        <time>2020-06-30T15:15:23Z</time>
      </trkpt>
      <trkpt lat="43.08359" lon="0.17008">
        <ele>628</ele>
        <time>2020-06-30T15:15:24Z</time>
      </trkpt>
      <trkpt lat="43.08358" lon="0.17003">
        <ele>628</ele>
        <time>2020-06-30T15:15:25Z</time>
      </trkpt>
      <trkpt lat="43.08359" lon="0.16999">
        <ele>628</ele>
        <time>2020-06-30T15:15:27Z</time>
      </trkpt>
      <trkpt lat="43.08359" lon="0.16996">
        <ele>628.2</ele>
        <time>2020-06-30T15:15:28Z</time>
      </trkpt>
      <trkpt lat="43.08358" lon="0.16987">
        <ele>628.2</ele>
        <time>2020-06-30T15:15:29Z</time>
      </trkpt>
      <trkpt lat="43.08356" lon="0.16985">
        <ele>628.4</ele>
        <time>2020-06-30T15:15:31Z</time>
      </trkpt>
      <trkpt lat="43.08355" lon="0.16981">
        <ele>628.4</ele>
        <time>2020-06-30T15:15:32Z</time>
      </trkpt>
      <trkpt lat="43.08356" lon="0.16977">
        <ele>628.6</ele>
        <time>2020-06-30T15:15:33Z</time>
      </trkpt>
      <trkpt lat="43.08355" lon="0.16973">
        <ele>628.6</ele>
        <time>2020-06-30T15:15:34Z</time>
      </trkpt>
      <trkpt lat="43.08354" lon="0.16969">
        <ele>628.6</ele>
        <time>2020-06-30T15:15:35Z</time>
      </trkpt>
      <trkpt lat="43.08353" lon="0.16966">
        <ele>628.6</ele>
        <time>2020-06-30T15:15:36Z</time>
      </trkpt>
      <trkpt lat="43.08351" lon="0.16966">
        <ele>628.8</ele>
        <time>2020-06-30T15:15:37Z</time>
      </trkpt>
      <trkpt lat="43.08351" lon="0.16967">
        <ele>628.6</ele>
        <time>2020-06-30T15:15:38Z</time>
      </trkpt>
      <trkpt lat="43.0835" lon="0.16967">
        <ele>628.6</ele>
        <time>2020-06-30T15:15:39Z</time>
      </trkpt>
      <trkpt lat="43.08349" lon="0.16968">
        <ele>628.8</ele>
        <time>2020-06-30T15:15:40Z</time>
      </trkpt>
      <trkpt lat="43.08348" lon="0.16968">
        <ele>628.8</ele>
        <time>2020-06-30T15:15:41Z</time>
      </trkpt>
      <trkpt lat="43.0835" lon="0.16969">
        <ele>628.8</ele>
        <time>2020-06-30T15:15:42Z</time>
      </trkpt>
      <trkpt lat="43.08349" lon="0.16968">
        <ele>628.8</ele>
        <time>2020-06-30T15:15:43Z</time>
      </trkpt>
      <trkpt lat="43.08349" lon="0.16968">
        <ele>628.6</ele>
        <time>2020-06-30T15:15:44Z</time>
      </trkpt>
      <trkpt lat="43.08337" lon="0.16962">
        <ele>629.2</ele>
        <time>2020-06-30T15:16:02Z</time>
      </trkpt>
      <trkpt lat="43.08335" lon="0.16959">
        <ele>629.4</ele>
        <time>2020-06-30T15:16:03Z</time>
      </trkpt>
      <trkpt lat="43.08332" lon="0.16957">
        <ele>629.6</ele>
        <time>2020-06-30T15:16:04Z</time>
      </trkpt>
      <trkpt lat="43.08329" lon="0.16955">
        <ele>629.8</ele>
        <time>2020-06-30T15:16:05Z</time>
      </trkpt>
      <trkpt lat="43.08329" lon="0.16953">
        <ele>630</ele>
        <time>2020-06-30T15:16:06Z</time>
      </trkpt>
      <trkpt lat="43.08328" lon="0.16951">
        <ele>630</ele>
        <time>2020-06-30T15:16:07Z</time>
      </trkpt>
      <trkpt lat="43.08328" lon="0.1695">
        <ele>630</ele>
        <time>2020-06-30T15:16:08Z</time>
      </trkpt>
      <trkpt lat="43.08326" lon="0.16949">
        <ele>630</ele>
        <time>2020-06-30T15:16:09Z</time>
      </trkpt>
      <trkpt lat="43.08326" lon="0.16948">
        <ele>630.2</ele>
        <time>2020-06-30T15:16:10Z</time>
      </trkpt>
      <trkpt lat="43.08327" lon="0.1695">
        <ele>630.2</ele>
        <time>2020-06-30T15:16:11Z</time>
      </trkpt>
      <trkpt lat="43.08326" lon="0.16948">
        <ele>630.2</ele>
        <time>2020-06-30T15:16:12Z</time>
      </trkpt>
      <trkpt lat="43.08324" lon="0.16949">
        <ele>630.2</ele>
        <time>2020-06-30T15:16:14Z</time>
      </trkpt>
      <trkpt lat="43.08324" lon="0.16947">
        <ele>630.4</ele>
        <time>2020-06-30T15:16:15Z</time>
      </trkpt>
      <trkpt lat="43.08323" lon="0.16947">
        <ele>630.4</ele>
        <time>2020-06-30T15:16:16Z</time>
      </trkpt>
      <trkpt lat="43.08322" lon="0.16946">
        <ele>630.6</ele>
        <time>2020-06-30T15:16:17Z</time>
      </trkpt>
      <trkpt lat="43.08319" lon="0.16945">
        <ele>630.6</ele>
        <time>2020-06-30T15:16:18Z</time>
      </trkpt>
      <trkpt lat="43.08319" lon="0.16944">
        <ele>630.8</ele>
        <time>2020-06-30T15:16:19Z</time>
      </trkpt>
      <trkpt lat="43.08319" lon="0.16941">
        <ele>630.8</ele>
        <time>2020-06-30T15:16:20Z</time>
      </trkpt>
      <trkpt lat="43.08317" lon="0.16939">
        <ele>631</ele>
        <time>2020-06-30T15:16:21Z</time>
      </trkpt>
      <trkpt lat="43.08316" lon="0.16939">
        <ele>631.2</ele>
        <time>2020-06-30T15:16:22Z</time>
      </trkpt>
      <trkpt lat="43.08313" lon="0.16934">
        <ele>631.4</ele>
        <time>2020-06-30T15:16:23Z</time>
      </trkpt>
      <trkpt lat="43.08312" lon="0.16933">
        <ele>631.4</ele>
        <time>2020-06-30T15:16:25Z</time>
      </trkpt>
      <trkpt lat="43.08312" lon="0.16933">
        <ele>631.4</ele>
        <time>2020-06-30T15:16:26Z</time>
      </trkpt>
      <trkpt lat="43.08312" lon="0.16933">
        <ele>631.4</ele>
        <time>2020-06-30T15:16:27Z</time>
      </trkpt>
      <trkpt lat="43.08313" lon="0.16933">
        <ele>631.4</ele>
        <time>2020-06-30T15:16:28Z</time>
      </trkpt>
      <trkpt lat="43.08312" lon="0.16933">
        <ele>631</ele>
        <time>2020-06-30T15:16:29Z</time>
      </trkpt>
      <trkpt lat="43.08312" lon="0.16933">
        <ele>631</ele>
        <time>2020-06-30T15:16:30Z</time>
      </trkpt>
      <trkpt lat="43.08311" lon="0.16932">
        <ele>631</ele>
        <time>2020-06-30T15:16:31Z</time>
      </trkpt>
      <trkpt lat="43.08311" lon="0.16932">
        <ele>630.8</ele>
        <time>2020-06-30T15:16:32Z</time>
      </trkpt>
      <trkpt lat="43.08312" lon="0.16932">
        <ele>630.8</ele>
        <time>2020-06-30T15:16:33Z</time>
      </trkpt>
      <trkpt lat="43.08312" lon="0.16933">
        <ele>632.6</ele>
        <time>2020-06-30T15:16:34Z</time>
      </trkpt>
      <trkpt lat="43.08311" lon="0.16934">
        <ele>631.6</ele>
        <time>2020-06-30T15:16:35Z</time>
      </trkpt>
      <trkpt lat="43.08311" lon="0.16934">
        <ele>631.4</ele>
        <time>2020-06-30T15:16:36Z</time>
      </trkpt>
      <trkpt lat="43.08311" lon="0.16936">
        <ele>631.4</ele>
        <time>2020-06-30T15:16:37Z</time>
      </trkpt>
      <trkpt lat="43.08312" lon="0.16935">
        <ele>631</ele>
        <time>2020-06-30T15:18:45Z</time>
      </trkpt>
      <trkpt lat="43.08311" lon="0.16933">
        <ele>631</ele>
        <time>2020-06-30T15:18:46Z</time>
      </trkpt>
      <trkpt lat="43.08311" lon="0.16932">
        <ele>631.2</ele>
        <time>2020-06-30T15:18:47Z</time>
      </trkpt>
      <trkpt lat="43.08309" lon="0.16932">
        <ele>631.2</ele>
        <time>2020-06-30T15:18:48Z</time>
      </trkpt>
      <trkpt lat="43.08308" lon="0.1693">
        <ele>631.4</ele>
        <time>2020-06-30T15:18:49Z</time>
      </trkpt>
      <trkpt lat="43.08307" lon="0.16929">
        <ele>631.4</ele>
        <time>2020-06-30T15:18:50Z</time>
      </trkpt>
      <trkpt lat="43.08306" lon="0.16928">
        <ele>631.4</ele>
        <time>2020-06-30T15:18:51Z</time>
      </trkpt>
      <trkpt lat="43.08305" lon="0.16927">
        <ele>631.4</ele>
        <time>2020-06-30T15:18:52Z</time>
      </trkpt>
      <trkpt lat="43.08303" lon="0.16925">
        <ele>631.6</ele>
        <time>2020-06-30T15:18:53Z</time>
      </trkpt>
      <trkpt lat="43.08301" lon="0.16924">
        <ele>631.6</ele>
        <time>2020-06-30T15:18:54Z</time>
      </trkpt>
      <trkpt lat="43.08299" lon="0.16923">
        <ele>631.8</ele>
        <time>2020-06-30T15:18:55Z</time>
      </trkpt>
      <trkpt lat="43.08297" lon="0.16921">
        <ele>631.8</ele>
        <time>2020-06-30T15:18:56Z</time>
      </trkpt>
      <trkpt lat="43.08296" lon="0.1692">
        <ele>631.8</ele>
        <time>2020-06-30T15:18:57Z</time>
      </trkpt>
      <trkpt lat="43.08294" lon="0.16918">
        <ele>632</ele>
        <time>2020-06-30T15:18:58Z</time>
      </trkpt>
      <trkpt lat="43.08293" lon="0.16917">
        <ele>632</ele>
        <time>2020-06-30T15:18:59Z</time>
      </trkpt>
      <trkpt lat="43.08291" lon="0.16916">
        <ele>632.2</ele>
        <time>2020-06-30T15:19:00Z</time>
      </trkpt>
      <trkpt lat="43.0829" lon="0.16914">
        <ele>632.2</ele>
        <time>2020-06-30T15:19:01Z</time>
      </trkpt>
      <trkpt lat="43.08289" lon="0.16912">
        <ele>632.4</ele>
        <time>2020-06-30T15:19:02Z</time>
      </trkpt>
      <trkpt lat="43.08288" lon="0.16911">
        <ele>632.4</ele>
        <time>2020-06-30T15:19:03Z</time>
      </trkpt>
      <trkpt lat="43.08285" lon="0.16909">
        <ele>632.6</ele>
        <time>2020-06-30T15:19:04Z</time>
      </trkpt>
      <trkpt lat="43.08283" lon="0.16907">
        <ele>632.8</ele>
        <time>2020-06-30T15:19:05Z</time>
      </trkpt>
      <trkpt lat="43.08281" lon="0.16906">
        <ele>632.8</ele>
        <time>2020-06-30T15:19:06Z</time>
      </trkpt>
      <trkpt lat="43.08279" lon="0.16904">
        <ele>632.8</ele>
        <time>2020-06-30T15:19:07Z</time>
      </trkpt>
      <trkpt lat="43.08278" lon="0.16902">
        <ele>633</ele>
        <time>2020-06-30T15:19:08Z</time>
      </trkpt>
      <trkpt lat="43.08276" lon="0.16901">
        <ele>633.2</ele>
        <time>2020-06-30T15:19:09Z</time>
      </trkpt>
      <trkpt lat="43.08274" lon="0.169">
        <ele>633.2</ele>
        <time>2020-06-30T15:19:10Z</time>
      </trkpt>
      <trkpt lat="43.08272" lon="0.16899">
        <ele>633.4</ele>
        <time>2020-06-30T15:19:11Z</time>
      </trkpt>
      <trkpt lat="43.08271" lon="0.16897">
        <ele>633.4</ele>
        <time>2020-06-30T15:19:12Z</time>
      </trkpt>
      <trkpt lat="43.08269" lon="0.16895">
        <ele>633.6</ele>
        <time>2020-06-30T15:19:13Z</time>
      </trkpt>
      <trkpt lat="43.08267" lon="0.16893">
        <ele>633.6</ele>
        <time>2020-06-30T15:19:14Z</time>
      </trkpt>
      <trkpt lat="43.08253" lon="0.16878">
        <ele>634.4</ele>
        <time>2020-06-30T15:19:23Z</time>
      </trkpt>
      <trkpt lat="43.08251" lon="0.16876">
        <ele>634.4</ele>
        <time>2020-06-30T15:19:24Z</time>
      </trkpt>
      <trkpt lat="43.08249" lon="0.16875">
        <ele>634.4</ele>
        <time>2020-06-30T15:19:25Z</time>
      </trkpt>
      <trkpt lat="43.08247" lon="0.16873">
        <ele>634.6</ele>
        <time>2020-06-30T15:19:26Z</time>
      </trkpt>
      <trkpt lat="43.08245" lon="0.16872">
        <ele>634.6</ele>
        <time>2020-06-30T15:19:27Z</time>
      </trkpt>
      <trkpt lat="43.08244" lon="0.1687">
        <ele>634.8</ele>
        <time>2020-06-30T15:19:28Z</time>
      </trkpt>
      <trkpt lat="43.08242" lon="0.16868">
        <ele>634.8</ele>
        <time>2020-06-30T15:19:29Z</time>
      </trkpt>
      <trkpt lat="43.0824" lon="0.16867">
        <ele>635</ele>
        <time>2020-06-30T15:19:30Z</time>
      </trkpt>
      <trkpt lat="43.0824" lon="0.16866">
        <ele>635</ele>
        <time>2020-06-30T15:19:31Z</time>
      </trkpt>
      <trkpt lat="43.08238" lon="0.16864">
        <ele>635.2</ele>
        <time>2020-06-30T15:19:32Z</time>
      </trkpt>
      <trkpt lat="43.08236" lon="0.16863">
        <ele>635.4</ele>
        <time>2020-06-30T15:19:33Z</time>
      </trkpt>
      <trkpt lat="43.08235" lon="0.16862">
        <ele>635.4</ele>
        <time>2020-06-30T15:19:34Z</time>
      </trkpt>
      <trkpt lat="43.08233" lon="0.16861">
        <ele>635.6</ele>
        <time>2020-06-30T15:19:35Z</time>
      </trkpt>
      <trkpt lat="43.08232" lon="0.16859">
        <ele>635.6</ele>
        <time>2020-06-30T15:19:36Z</time>
      </trkpt>
      <trkpt lat="43.0823" lon="0.16858">
        <ele>635.8</ele>
        <time>2020-06-30T15:19:37Z</time>
      </trkpt>
      <trkpt lat="43.08229" lon="0.16857">
        <ele>635.8</ele>
        <time>2020-06-30T15:19:38Z</time>
      </trkpt>
      <trkpt lat="43.08228" lon="0.16855">
        <ele>635.8</ele>
        <time>2020-06-30T15:19:39Z</time>
      </trkpt>
      <trkpt lat="43.08226" lon="0.16854">
        <ele>636</ele>
        <time>2020-06-30T15:19:40Z</time>
      </trkpt>
      <trkpt lat="43.08225" lon="0.16852">
        <ele>636.2</ele>
        <time>2020-06-30T15:19:41Z</time>
      </trkpt>
      <trkpt lat="43.08225" lon="0.16851">
        <ele>636.2</ele>
        <time>2020-06-30T15:19:42Z</time>
      </trkpt>
      <trkpt lat="43.08223" lon="0.16849">
        <ele>636.4</ele>
        <time>2020-06-30T15:19:43Z</time>
      </trkpt>
      <trkpt lat="43.08222" lon="0.16847">
        <ele>636.4</ele>
        <time>2020-06-30T15:19:44Z</time>
      </trkpt>
      <trkpt lat="43.08221" lon="0.16846">
        <ele>636.4</ele>
        <time>2020-06-30T15:19:45Z</time>
      </trkpt>
      <trkpt lat="43.08218" lon="0.16844">
        <ele>636.6</ele>
        <time>2020-06-30T15:19:46Z</time>
      </trkpt>
      <trkpt lat="43.08217" lon="0.16842">
        <ele>636.6</ele>
        <time>2020-06-30T15:19:47Z</time>
      </trkpt>
      <trkpt lat="43.08215" lon="0.1684">
        <ele>636.6</ele>
        <time>2020-06-30T15:19:48Z</time>
      </trkpt>
      <trkpt lat="43.08213" lon="0.16839">
        <ele>636.8</ele>
        <time>2020-06-30T15:19:49Z</time>
      </trkpt>
      <trkpt lat="43.08211" lon="0.16838">
        <ele>636.8</ele>
        <time>2020-06-30T15:19:50Z</time>
      </trkpt>
      <trkpt lat="43.08209" lon="0.16836">
        <ele>636.8</ele>
        <time>2020-06-30T15:19:51Z</time>
      </trkpt>
      <trkpt lat="43.08208" lon="0.16835">
        <ele>636.8</ele>
        <time>2020-06-30T15:19:52Z</time>
      </trkpt>
      <trkpt lat="43.08206" lon="0.16834">
        <ele>637</ele>
        <time>2020-06-30T15:19:53Z</time>
      </trkpt>
      <trkpt lat="43.08204" lon="0.16832">
        <ele>637</ele>
        <time>2020-06-30T15:19:54Z</time>
      </trkpt>
      <trkpt lat="43.08203" lon="0.16831">
        <ele>637</ele>
        <time>2020-06-30T15:19:55Z</time>
      </trkpt>
      <trkpt lat="43.08201" lon="0.16829">
        <ele>637.2</ele>
        <time>2020-06-30T15:19:56Z</time>
      </trkpt>
      <trkpt lat="43.08199" lon="0.16827">
        <ele>637.2</ele>
        <time>2020-06-30T15:19:57Z</time>
      </trkpt>
      <trkpt lat="43.08197" lon="0.16825">
        <ele>637.2</ele>
        <time>2020-06-30T15:19:58Z</time>
      </trkpt>
      <trkpt lat="43.08196" lon="0.16823">
        <ele>637.4</ele>
        <time>2020-06-30T15:19:59Z</time>
      </trkpt>
      <trkpt lat="43.08194" lon="0.16821">
        <ele>637.4</ele>
        <time>2020-06-30T15:20:00Z</time>
      </trkpt>
      <trkpt lat="43.08193" lon="0.16819">
        <ele>637.6</ele>
        <time>2020-06-30T15:20:01Z</time>
      </trkpt>
      <trkpt lat="43.08191" lon="0.16817">
        <ele>637.6</ele>
        <time>2020-06-30T15:20:02Z</time>
      </trkpt>
      <trkpt lat="43.08189" lon="0.16815">
        <ele>637.8</ele>
        <time>2020-06-30T15:20:03Z</time>
      </trkpt>
      <trkpt lat="43.08188" lon="0.16813">
        <ele>637.8</ele>
        <time>2020-06-30T15:20:04Z</time>
      </trkpt>
      <trkpt lat="43.08187" lon="0.16811">
        <ele>638</ele>
        <time>2020-06-30T15:20:05Z</time>
      </trkpt>
      <trkpt lat="43.08185" lon="0.1681">
        <ele>638</ele>
        <time>2020-06-30T15:20:06Z</time>
      </trkpt>
      <trkpt lat="43.08183" lon="0.16808">
        <ele>638</ele>
        <time>2020-06-30T15:20:07Z</time>
      </trkpt>
      <trkpt lat="43.08181" lon="0.16806">
        <ele>638.2</ele>
        <time>2020-06-30T15:20:08Z</time>
      </trkpt>
      <trkpt lat="43.0818" lon="0.16805">
        <ele>638.2</ele>
        <time>2020-06-30T15:20:09Z</time>
      </trkpt>
      <trkpt lat="43.08178" lon="0.16803">
        <ele>638.4</ele>
        <time>2020-06-30T15:20:10Z</time>
      </trkpt>
      <trkpt lat="43.08176" lon="0.16802">
        <ele>638.4</ele>
        <time>2020-06-30T15:20:11Z</time>
      </trkpt>
      <trkpt lat="43.08174" lon="0.168">
        <ele>638.6</ele>
        <time>2020-06-30T15:20:12Z</time>
      </trkpt>
      <trkpt lat="43.08173" lon="0.16799">
        <ele>638.8</ele>
        <time>2020-06-30T15:20:13Z</time>
      </trkpt>
      <trkpt lat="43.0817" lon="0.16797">
        <ele>638.8</ele>
        <time>2020-06-30T15:20:14Z</time>
      </trkpt>
      <trkpt lat="43.08169" lon="0.16796">
        <ele>638.8</ele>
        <time>2020-06-30T15:20:15Z</time>
      </trkpt>
      <trkpt lat="43.08168" lon="0.16794">
        <ele>639</ele>
        <time>2020-06-30T15:20:16Z</time>
      </trkpt>
      <trkpt lat="43.08165" lon="0.16792">
        <ele>639</ele>
        <time>2020-06-30T15:20:17Z</time>
      </trkpt>
      <trkpt lat="43.08163" lon="0.1679">
        <ele>639.2</ele>
        <time>2020-06-30T15:20:18Z</time>
      </trkpt>
      <trkpt lat="43.08162" lon="0.16787">
        <ele>639.2</ele>
        <time>2020-06-30T15:20:19Z</time>
      </trkpt>
      <trkpt lat="43.08161" lon="0.16785">
        <ele>639.4</ele>
        <time>2020-06-30T15:20:20Z</time>
      </trkpt>
      <trkpt lat="43.0816" lon="0.16784">
        <ele>639.4</ele>
        <time>2020-06-30T15:20:21Z</time>
      </trkpt>
      <trkpt lat="43.08159" lon="0.16784">
        <ele>639.6</ele>
        <time>2020-06-30T15:20:22Z</time>
      </trkpt>
      <trkpt lat="43.08157" lon="0.16782">
        <ele>639.8</ele>
        <time>2020-06-30T15:20:23Z</time>
      </trkpt>
      <trkpt lat="43.08155" lon="0.16781">
        <ele>639.8</ele>
        <time>2020-06-30T15:20:24Z</time>
      </trkpt>
      <trkpt lat="43.08154" lon="0.16779">
        <ele>639.8</ele>
        <time>2020-06-30T15:20:25Z</time>
      </trkpt>
      <trkpt lat="43.08152" lon="0.16777">
        <ele>640</ele>
        <time>2020-06-30T15:20:26Z</time>
      </trkpt>
      <trkpt lat="43.08149" lon="0.16777">
        <ele>640.2</ele>
        <time>2020-06-30T15:20:27Z</time>
      </trkpt>
      <trkpt lat="43.08148" lon="0.16775">
        <ele>640.2</ele>
        <time>2020-06-30T15:20:28Z</time>
      </trkpt>
      <trkpt lat="43.08146" lon="0.16773">
        <ele>640.4</ele>
        <time>2020-06-30T15:20:29Z</time>
      </trkpt>
      <trkpt lat="43.08144" lon="0.16771">
        <ele>640.4</ele>
        <time>2020-06-30T15:20:30Z</time>
      </trkpt>
      <trkpt lat="43.08142" lon="0.16769">
        <ele>640.6</ele>
        <time>2020-06-30T15:20:31Z</time>
      </trkpt>
      <trkpt lat="43.08141" lon="0.16767">
        <ele>640.8</ele>
        <time>2020-06-30T15:20:32Z</time>
      </trkpt>
      <trkpt lat="43.08139" lon="0.16766">
        <ele>641</ele>
        <time>2020-06-30T15:20:33Z</time>
      </trkpt>
      <trkpt lat="43.08137" lon="0.16764">
        <ele>641</ele>
        <time>2020-06-30T15:20:34Z</time>
      </trkpt>
      <trkpt lat="43.08136" lon="0.16763">
        <ele>641.2</ele>
        <time>2020-06-30T15:20:35Z</time>
      </trkpt>
      <trkpt lat="43.08134" lon="0.16762">
        <ele>641.2</ele>
        <time>2020-06-30T15:20:36Z</time>
      </trkpt>
      <trkpt lat="43.08132" lon="0.1676">
        <ele>641.4</ele>
        <time>2020-06-30T15:20:37Z</time>
      </trkpt>
      <trkpt lat="43.08131" lon="0.16759">
        <ele>641.6</ele>
        <time>2020-06-30T15:20:38Z</time>
      </trkpt>
      <trkpt lat="43.0813" lon="0.16758">
        <ele>641.6</ele>
        <time>2020-06-30T15:20:39Z</time>
      </trkpt>
      <trkpt lat="43.08128" lon="0.16757">
        <ele>641.8</ele>
        <time>2020-06-30T15:20:40Z</time>
      </trkpt>
      <trkpt lat="43.08126" lon="0.16755">
        <ele>642</ele>
        <time>2020-06-30T15:20:41Z</time>
      </trkpt>
      <trkpt lat="43.08124" lon="0.16753">
        <ele>642.2</ele>
        <time>2020-06-30T15:20:42Z</time>
      </trkpt>
      <trkpt lat="43.08122" lon="0.16752">
        <ele>642.2</ele>
        <time>2020-06-30T15:20:43Z</time>
      </trkpt>
      <trkpt lat="43.08121" lon="0.1675">
        <ele>642.4</ele>
        <time>2020-06-30T15:20:44Z</time>
      </trkpt>
      <trkpt lat="43.0812" lon="0.16748">
        <ele>642.4</ele>
        <time>2020-06-30T15:20:45Z</time>
      </trkpt>
      <trkpt lat="43.08118" lon="0.16747">
        <ele>642.6</ele>
        <time>2020-06-30T15:20:46Z</time>
      </trkpt>
      <trkpt lat="43.08117" lon="0.16745">
        <ele>642.8</ele>
        <time>2020-06-30T15:20:47Z</time>
      </trkpt>
      <trkpt lat="43.08116" lon="0.16743">
        <ele>643</ele>
        <time>2020-06-30T15:20:48Z</time>
      </trkpt>
      <trkpt lat="43.08115" lon="0.16742">
        <ele>643</ele>
        <time>2020-06-30T15:20:49Z</time>
      </trkpt>
      <trkpt lat="43.08113" lon="0.16741">
        <ele>643.2</ele>
        <time>2020-06-30T15:20:50Z</time>
      </trkpt>
      <trkpt lat="43.08112" lon="0.16739">
        <ele>643.4</ele>
        <time>2020-06-30T15:20:51Z</time>
      </trkpt>
      <trkpt lat="43.08111" lon="0.16737">
        <ele>643.6</ele>
        <time>2020-06-30T15:20:52Z</time>
      </trkpt>
      <trkpt lat="43.0811" lon="0.16736">
        <ele>643.6</ele>
        <time>2020-06-30T15:20:53Z</time>
      </trkpt>
      <trkpt lat="43.08108" lon="0.16734">
        <ele>643.6</ele>
        <time>2020-06-30T15:20:54Z</time>
      </trkpt>
      <trkpt lat="43.08107" lon="0.16733">
        <ele>643.8</ele>
        <time>2020-06-30T15:20:55Z</time>
      </trkpt>
      <trkpt lat="43.08105" lon="0.16731">
        <ele>644</ele>
        <time>2020-06-30T15:20:56Z</time>
      </trkpt>
      <trkpt lat="43.08104" lon="0.16729">
        <ele>644</ele>
        <time>2020-06-30T15:20:57Z</time>
      </trkpt>
      <trkpt lat="43.08104" lon="0.16727">
        <ele>644.2</ele>
        <time>2020-06-30T15:20:58Z</time>
      </trkpt>
      <trkpt lat="43.08102" lon="0.16725">
        <ele>644.2</ele>
        <time>2020-06-30T15:20:59Z</time>
      </trkpt>
      <trkpt lat="43.08102" lon="0.16724">
        <ele>644.4</ele>
        <time>2020-06-30T15:21:00Z</time>
      </trkpt>
      <trkpt lat="43.08101" lon="0.16721">
        <ele>644.4</ele>
        <time>2020-06-30T15:21:01Z</time>
      </trkpt>
      <trkpt lat="43.081" lon="0.1672">
        <ele>644.4</ele>
        <time>2020-06-30T15:21:02Z</time>
      </trkpt>
      <trkpt lat="43.08099" lon="0.16718">
        <ele>644.6</ele>
        <time>2020-06-30T15:21:03Z</time>
      </trkpt>
      <trkpt lat="43.08098" lon="0.16716">
        <ele>644.6</ele>
        <time>2020-06-30T15:21:04Z</time>
      </trkpt>
      <trkpt lat="43.08096" lon="0.16715">
        <ele>644.8</ele>
        <time>2020-06-30T15:21:05Z</time>
      </trkpt>
      <trkpt lat="43.08095" lon="0.16713">
        <ele>645</ele>
        <time>2020-06-30T15:21:06Z</time>
      </trkpt>
      <trkpt lat="43.08094" lon="0.16711">
        <ele>645</ele>
        <time>2020-06-30T15:21:07Z</time>
      </trkpt>
      <trkpt lat="43.08092" lon="0.16709">
        <ele>645</ele>
        <time>2020-06-30T15:21:08Z</time>
      </trkpt>
      <trkpt lat="43.0809" lon="0.16708">
        <ele>645.2</ele>
        <time>2020-06-30T15:21:09Z</time>
      </trkpt>
      <trkpt lat="43.08089" lon="0.16707">
        <ele>645.2</ele>
        <time>2020-06-30T15:21:10Z</time>
      </trkpt>
      <trkpt lat="43.08088" lon="0.16705">
        <ele>645.2</ele>
        <time>2020-06-30T15:21:11Z</time>
      </trkpt>
      <trkpt lat="43.08087" lon="0.16703">
        <ele>645.4</ele>
        <time>2020-06-30T15:21:12Z</time>
      </trkpt>
      <trkpt lat="43.08086" lon="0.16701">
        <ele>645.4</ele>
        <time>2020-06-30T15:21:13Z</time>
      </trkpt>
      <trkpt lat="43.08084" lon="0.167">
        <ele>645.4</ele>
        <time>2020-06-30T15:21:14Z</time>
      </trkpt>
      <trkpt lat="43.08083" lon="0.16697">
        <ele>645.4</ele>
        <time>2020-06-30T15:21:15Z</time>
      </trkpt>
      <trkpt lat="43.08082" lon="0.16696">
        <ele>645.4</ele>
        <time>2020-06-30T15:21:16Z</time>
      </trkpt>
      <trkpt lat="43.08081" lon="0.16694">
        <ele>645.4</ele>
        <time>2020-06-30T15:21:17Z</time>
      </trkpt>
      <trkpt lat="43.0808" lon="0.16692">
        <ele>645.2</ele>
        <time>2020-06-30T15:21:18Z</time>
      </trkpt>
      <trkpt lat="43.08078" lon="0.1669">
        <ele>645.2</ele>
        <time>2020-06-30T15:21:19Z</time>
      </trkpt>
      <trkpt lat="43.08076" lon="0.16688">
        <ele>645</ele>
        <time>2020-06-30T15:21:20Z</time>
      </trkpt>
      <trkpt lat="43.08074" lon="0.16686">
        <ele>645</ele>
        <time>2020-06-30T15:21:21Z</time>
      </trkpt>
      <trkpt lat="43.08073" lon="0.16684">
        <ele>645</ele>
        <time>2020-06-30T15:21:22Z</time>
      </trkpt>
      <trkpt lat="43.08071" lon="0.16681">
        <ele>645</ele>
        <time>2020-06-30T15:21:23Z</time>
      </trkpt>
      <trkpt lat="43.0807" lon="0.16678">
        <ele>644.8</ele>
        <time>2020-06-30T15:21:24Z</time>
      </trkpt>
      <trkpt lat="43.08069" lon="0.16676">
        <ele>644.8</ele>
        <time>2020-06-30T15:21:25Z</time>
      </trkpt>
      <trkpt lat="43.08068" lon="0.16674">
        <ele>644.8</ele>
        <time>2020-06-30T15:21:26Z</time>
      </trkpt>
      <trkpt lat="43.08067" lon="0.16672">
        <ele>644.8</ele>
        <time>2020-06-30T15:21:27Z</time>
      </trkpt>
      <trkpt lat="43.08065" lon="0.16672">
        <ele>644.8</ele>
        <time>2020-06-30T15:21:28Z</time>
      </trkpt>
      <trkpt lat="43.08063" lon="0.16672">
        <ele>644.8</ele>
        <time>2020-06-30T15:21:29Z</time>
      </trkpt>
      <trkpt lat="43.08061" lon="0.16672">
        <ele>644.8</ele>
        <time>2020-06-30T15:21:30Z</time>
      </trkpt>
      <trkpt lat="43.08058" lon="0.16673">
        <ele>644.8</ele>
        <time>2020-06-30T15:21:31Z</time>
      </trkpt>
      <trkpt lat="43.08054" lon="0.16676">
        <ele>644.8</ele>
        <time>2020-06-30T15:21:34Z</time>
      </trkpt>
      <trkpt lat="43.08052" lon="0.16677">
        <ele>644.8</ele>
        <time>2020-06-30T15:21:35Z</time>
      </trkpt>
      <trkpt lat="43.08051" lon="0.16676">
        <ele>644.8</ele>
        <time>2020-06-30T15:21:36Z</time>
      </trkpt>
      <trkpt lat="43.08049" lon="0.16672">
        <ele>644.8</ele>
        <time>2020-06-30T15:21:37Z</time>
      </trkpt>
      <trkpt lat="43.08049" lon="0.1667">
        <ele>644.6</ele>
        <time>2020-06-30T15:21:38Z</time>
      </trkpt>
      <trkpt lat="43.08048" lon="0.16667">
        <ele>644.6</ele>
        <time>2020-06-30T15:21:39Z</time>
      </trkpt>
      <trkpt lat="43.08047" lon="0.16664">
        <ele>644.4</ele>
        <time>2020-06-30T15:21:40Z</time>
      </trkpt>
      <trkpt lat="43.08046" lon="0.1666">
        <ele>644.2</ele>
        <time>2020-06-30T15:21:41Z</time>
      </trkpt>
      <trkpt lat="43.08044" lon="0.16656">
        <ele>644</ele>
        <time>2020-06-30T15:21:42Z</time>
      </trkpt>
      <trkpt lat="43.08043" lon="0.1665">
        <ele>643.6</ele>
        <time>2020-06-30T15:21:43Z</time>
      </trkpt>
      <trkpt lat="43.08041" lon="0.16645">
        <ele>643.4</ele>
        <time>2020-06-30T15:21:44Z</time>
      </trkpt>
      <trkpt lat="43.08039" lon="0.1664">
        <ele>643</ele>
        <time>2020-06-30T15:21:45Z</time>
      </trkpt>
      <trkpt lat="43.08037" lon="0.16633">
        <ele>642.8</ele>
        <time>2020-06-30T15:21:46Z</time>
      </trkpt>
      <trkpt lat="43.08035" lon="0.16627">
        <ele>642.4</ele>
        <time>2020-06-30T15:21:47Z</time>
      </trkpt>
      <trkpt lat="43.08032" lon="0.1662">
        <ele>642.2</ele>
        <time>2020-06-30T15:21:48Z</time>
      </trkpt>
      <trkpt lat="43.0803" lon="0.16612">
        <ele>641.6</ele>
        <time>2020-06-30T15:21:49Z</time>
      </trkpt>
      <trkpt lat="43.08027" lon="0.16606">
        <ele>641.2</ele>
        <time>2020-06-30T15:21:50Z</time>
      </trkpt>
      <trkpt lat="43.08023" lon="0.16597">
        <ele>640.8</ele>
        <time>2020-06-30T15:21:51Z</time>
      </trkpt>
      <trkpt lat="43.0802" lon="0.16588">
        <ele>640.4</ele>
        <time>2020-06-30T15:21:52Z</time>
      </trkpt>
      <trkpt lat="43.08012" lon="0.16573">
        <ele>639.6</ele>
        <time>2020-06-30T15:21:54Z</time>
      </trkpt>
      <trkpt lat="43.08008" lon="0.16567">
        <ele>639</ele>
        <time>2020-06-30T15:21:55Z</time>
      </trkpt>
      <trkpt lat="43.08002" lon="0.1656">
        <ele>638.6</ele>
        <time>2020-06-30T15:21:56Z</time>
      </trkpt>
      <trkpt lat="43.07996" lon="0.16551">
        <ele>638.2</ele>
        <time>2020-06-30T15:21:57Z</time>
      </trkpt>
      <trkpt lat="43.07992" lon="0.16543">
        <ele>637.8</ele>
        <time>2020-06-30T15:21:58Z</time>
      </trkpt>
      <trkpt lat="43.07988" lon="0.16536">
        <ele>637.2</ele>
        <time>2020-06-30T15:21:59Z</time>
      </trkpt>
      <trkpt lat="43.07978" lon="0.16521">
        <ele>636.6</ele>
        <time>2020-06-30T15:22:01Z</time>
      </trkpt>
      <trkpt lat="43.07974" lon="0.16513">
        <ele>636</ele>
        <time>2020-06-30T15:22:02Z</time>
      </trkpt>
      <trkpt lat="43.07969" lon="0.16505">
        <ele>635.4</ele>
        <time>2020-06-30T15:22:03Z</time>
      </trkpt>
      <trkpt lat="43.07965" lon="0.16498">
        <ele>634.8</ele>
        <time>2020-06-30T15:22:04Z</time>
      </trkpt>
      <trkpt lat="43.07955" lon="0.16483">
        <ele>634</ele>
        <time>2020-06-30T15:22:06Z</time>
      </trkpt>
      <trkpt lat="43.07949" lon="0.16476">
        <ele>633.2</ele>
        <time>2020-06-30T15:22:07Z</time>
      </trkpt>
      <trkpt lat="43.07944" lon="0.16468">
        <ele>632.8</ele>
        <time>2020-06-30T15:22:08Z</time>
      </trkpt>
      <trkpt lat="43.07939" lon="0.16461">
        <ele>632.2</ele>
        <time>2020-06-30T15:22:09Z</time>
      </trkpt>
      <trkpt lat="43.07933" lon="0.16453">
        <ele>631.6</ele>
        <time>2020-06-30T15:22:10Z</time>
      </trkpt>
      <trkpt lat="43.07928" lon="0.16446">
        <ele>631.2</ele>
        <time>2020-06-30T15:22:11Z</time>
      </trkpt>
      <trkpt lat="43.07923" lon="0.16438">
        <ele>630.8</ele>
        <time>2020-06-30T15:22:12Z</time>
      </trkpt>
      <trkpt lat="43.07917" lon="0.16432">
        <ele>630</ele>
        <time>2020-06-30T15:22:13Z</time>
      </trkpt>
      <trkpt lat="43.07912" lon="0.16424">
        <ele>629.4</ele>
        <time>2020-06-30T15:22:14Z</time>
      </trkpt>
      <trkpt lat="43.07907" lon="0.16415">
        <ele>628.8</ele>
        <time>2020-06-30T15:22:15Z</time>
      </trkpt>
      <trkpt lat="43.07896" lon="0.164">
        <ele>628</ele>
        <time>2020-06-30T15:22:17Z</time>
      </trkpt>
      <trkpt lat="43.07891" lon="0.16392">
        <ele>627.2</ele>
        <time>2020-06-30T15:22:18Z</time>
      </trkpt>
      <trkpt lat="43.07886" lon="0.16383">
        <ele>626.6</ele>
        <time>2020-06-30T15:22:19Z</time>
      </trkpt>
      <trkpt lat="43.0788" lon="0.16375">
        <ele>626</ele>
        <time>2020-06-30T15:22:20Z</time>
      </trkpt>
      <trkpt lat="43.07875" lon="0.16366">
        <ele>625.6</ele>
        <time>2020-06-30T15:22:21Z</time>
      </trkpt>
      <trkpt lat="43.07869" lon="0.16358">
        <ele>624.8</ele>
        <time>2020-06-30T15:22:22Z</time>
      </trkpt>
      <trkpt lat="43.07863" lon="0.16349">
        <ele>624.4</ele>
        <time>2020-06-30T15:22:23Z</time>
      </trkpt>
      <trkpt lat="43.07852" lon="0.16331">
        <ele>623.6</ele>
        <time>2020-06-30T15:22:25Z</time>
      </trkpt>
      <trkpt lat="43.07847" lon="0.16324">
        <ele>623</ele>
        <time>2020-06-30T15:22:26Z</time>
      </trkpt>
      <trkpt lat="43.07842" lon="0.16317">
        <ele>622.4</ele>
        <time>2020-06-30T15:22:27Z</time>
      </trkpt>
      <trkpt lat="43.07836" lon="0.16309">
        <ele>621.6</ele>
        <time>2020-06-30T15:22:28Z</time>
      </trkpt>
      <trkpt lat="43.0783" lon="0.16301">
        <ele>621</ele>
        <time>2020-06-30T15:22:29Z</time>
      </trkpt>
      <trkpt lat="43.07826" lon="0.16293">
        <ele>620.2</ele>
        <time>2020-06-30T15:22:30Z</time>
      </trkpt>
      <trkpt lat="43.07816" lon="0.1628">
        <ele>619.2</ele>
        <time>2020-06-30T15:22:32Z</time>
      </trkpt>
      <trkpt lat="43.07811" lon="0.16273">
        <ele>618.6</ele>
        <time>2020-06-30T15:22:33Z</time>
      </trkpt>
      <trkpt lat="43.07807" lon="0.16265">
        <ele>618</ele>
        <time>2020-06-30T15:22:34Z</time>
      </trkpt>
      <trkpt lat="43.07802" lon="0.16259">
        <ele>617.6</ele>
        <time>2020-06-30T15:22:35Z</time>
      </trkpt>
      <trkpt lat="43.07797" lon="0.16252">
        <ele>617</ele>
        <time>2020-06-30T15:22:36Z</time>
      </trkpt>
      <trkpt lat="43.07793" lon="0.16248">
        <ele>616.6</ele>
        <time>2020-06-30T15:22:37Z</time>
      </trkpt>
      <trkpt lat="43.07788" lon="0.16241">
        <ele>616</ele>
        <time>2020-06-30T15:22:38Z</time>
      </trkpt>
      <trkpt lat="43.07784" lon="0.16235">
        <ele>615.6</ele>
        <time>2020-06-30T15:22:39Z</time>
      </trkpt>
      <trkpt lat="43.07779" lon="0.1623">
        <ele>614.8</ele>
        <time>2020-06-30T15:22:40Z</time>
      </trkpt>
      <trkpt lat="43.0777" lon="0.16218">
        <ele>613.8</ele>
        <time>2020-06-30T15:22:41Z</time>
      </trkpt>
      <trkpt lat="43.07764" lon="0.16211">
        <ele>613.2</ele>
        <time>2020-06-30T15:22:43Z</time>
      </trkpt>
      <trkpt lat="43.07759" lon="0.16205">
        <ele>612.6</ele>
        <time>2020-06-30T15:22:44Z</time>
      </trkpt>
      <trkpt lat="43.07756" lon="0.16199">
        <ele>612</ele>
        <time>2020-06-30T15:22:45Z</time>
      </trkpt>
      <trkpt lat="43.07751" lon="0.16193">
        <ele>611.6</ele>
        <time>2020-06-30T15:22:46Z</time>
      </trkpt>
      <trkpt lat="43.07747" lon="0.16187">
        <ele>611</ele>
        <time>2020-06-30T15:22:47Z</time>
      </trkpt>
      <trkpt lat="43.07742" lon="0.16179">
        <ele>610.6</ele>
        <time>2020-06-30T15:22:48Z</time>
      </trkpt>
      <trkpt lat="43.07736" lon="0.16174">
        <ele>610.2</ele>
        <time>2020-06-30T15:22:49Z</time>
      </trkpt>
      <trkpt lat="43.0773" lon="0.16169">
        <ele>609.8</ele>
        <time>2020-06-30T15:22:50Z</time>
      </trkpt>
      <trkpt lat="43.07728" lon="0.16163">
        <ele>609.8</ele>
        <time>2020-06-30T15:22:51Z</time>
      </trkpt>
      <trkpt lat="43.07723" lon="0.16158">
        <ele>609.6</ele>
        <time>2020-06-30T15:22:52Z</time>
      </trkpt>
      <trkpt lat="43.07719" lon="0.16152">
        <ele>609.6</ele>
        <time>2020-06-30T15:22:53Z</time>
      </trkpt>
      <trkpt lat="43.07716" lon="0.16147">
        <ele>609.4</ele>
        <time>2020-06-30T15:22:54Z</time>
      </trkpt>
      <trkpt lat="43.07711" lon="0.16141">
        <ele>609.2</ele>
        <time>2020-06-30T15:22:55Z</time>
      </trkpt>
      <trkpt lat="43.07703" lon="0.16132">
        <ele>608.6</ele>
        <time>2020-06-30T15:22:57Z</time>
      </trkpt>
      <trkpt lat="43.07698" lon="0.16128">
        <ele>608.2</ele>
        <time>2020-06-30T15:22:58Z</time>
      </trkpt>
      <trkpt lat="43.07692" lon="0.16125">
        <ele>607.6</ele>
        <time>2020-06-30T15:22:59Z</time>
      </trkpt>
      <trkpt lat="43.07685" lon="0.16121">
        <ele>607.2</ele>
        <time>2020-06-30T15:23:00Z</time>
      </trkpt>
      <trkpt lat="43.07679" lon="0.1612">
        <ele>606.6</ele>
        <time>2020-06-30T15:23:01Z</time>
      </trkpt>
      <trkpt lat="43.07674" lon="0.16118">
        <ele>606.2</ele>
        <time>2020-06-30T15:23:02Z</time>
      </trkpt>
      <trkpt lat="43.07669" lon="0.16117">
        <ele>605.8</ele>
        <time>2020-06-30T15:23:03Z</time>
      </trkpt>
      <trkpt lat="43.07663" lon="0.16116">
        <ele>605.6</ele>
        <time>2020-06-30T15:23:04Z</time>
      </trkpt>
      <trkpt lat="43.07653" lon="0.16113">
        <ele>605</ele>
        <time>2020-06-30T15:23:06Z</time>
      </trkpt>
      <trkpt lat="43.07646" lon="0.1611">
        <ele>604.4</ele>
        <time>2020-06-30T15:23:07Z</time>
      </trkpt>
      <trkpt lat="43.0764" lon="0.16106">
        <ele>604</ele>
        <time>2020-06-30T15:23:08Z</time>
      </trkpt>
      <trkpt lat="43.07635" lon="0.16102">
        <ele>603.4</ele>
        <time>2020-06-30T15:23:09Z</time>
      </trkpt>
      <trkpt lat="43.0763" lon="0.16096">
        <ele>602.8</ele>
        <time>2020-06-30T15:23:10Z</time>
      </trkpt>
      <trkpt lat="43.07625" lon="0.1609">
        <ele>602</ele>
        <time>2020-06-30T15:23:11Z</time>
      </trkpt>
      <trkpt lat="43.07619" lon="0.16084">
        <ele>601</ele>
        <time>2020-06-30T15:23:12Z</time>
      </trkpt>
      <trkpt lat="43.07614" lon="0.16078">
        <ele>600.2</ele>
        <time>2020-06-30T15:23:13Z</time>
      </trkpt>
      <trkpt lat="43.07611" lon="0.16068">
        <ele>599.2</ele>
        <time>2020-06-30T15:23:14Z</time>
      </trkpt>
      <trkpt lat="43.07605" lon="0.16053">
        <ele>597.8</ele>
        <time>2020-06-30T15:23:16Z</time>
      </trkpt>
      <trkpt lat="43.07603" lon="0.16044">
        <ele>596.8</ele>
        <time>2020-06-30T15:23:17Z</time>
      </trkpt>
      <trkpt lat="43.07599" lon="0.16036">
        <ele>595.8</ele>
        <time>2020-06-30T15:23:18Z</time>
      </trkpt>
      <trkpt lat="43.07594" lon="0.16021">
        <ele>594.2</ele>
        <time>2020-06-30T15:23:20Z</time>
      </trkpt>
      <trkpt lat="43.07592" lon="0.16012">
        <ele>593.2</ele>
        <time>2020-06-30T15:23:21Z</time>
      </trkpt>
      <trkpt lat="43.0759" lon="0.16004">
        <ele>592.4</ele>
        <time>2020-06-30T15:23:22Z</time>
      </trkpt>
      <trkpt lat="43.07589" lon="0.15995">
        <ele>591.4</ele>
        <time>2020-06-30T15:23:23Z</time>
      </trkpt>
      <trkpt lat="43.07586" lon="0.15986">
        <ele>590.4</ele>
        <time>2020-06-30T15:23:24Z</time>
      </trkpt>
      <trkpt lat="43.07584" lon="0.15967">
        <ele>588.6</ele>
        <time>2020-06-30T15:23:26Z</time>
      </trkpt>
      <trkpt lat="43.07582" lon="0.15959">
        <ele>587.8</ele>
        <time>2020-06-30T15:23:27Z</time>
      </trkpt>
      <trkpt lat="43.07581" lon="0.15951">
        <ele>587</ele>
        <time>2020-06-30T15:23:28Z</time>
      </trkpt>
      <trkpt lat="43.07579" lon="0.15943">
        <ele>586.2</ele>
        <time>2020-06-30T15:23:29Z</time>
      </trkpt>
      <trkpt lat="43.07577" lon="0.15935">
        <ele>585.4</ele>
        <time>2020-06-30T15:23:30Z</time>
      </trkpt>
      <trkpt lat="43.07574" lon="0.15927">
        <ele>584.8</ele>
        <time>2020-06-30T15:23:31Z</time>
      </trkpt>
      <trkpt lat="43.07562" lon="0.15915">
        <ele>583.8</ele>
        <time>2020-06-30T15:23:33Z</time>
      </trkpt>
      <trkpt lat="43.07557" lon="0.15917">
        <ele>583.4</ele>
        <time>2020-06-30T15:23:34Z</time>
      </trkpt>
      <trkpt lat="43.07552" lon="0.1592">
        <ele>583</ele>
        <time>2020-06-30T15:23:35Z</time>
      </trkpt>
      <trkpt lat="43.07547" lon="0.15924">
        <ele>582.4</ele>
        <time>2020-06-30T15:23:36Z</time>
      </trkpt>
      <trkpt lat="43.0754" lon="0.15929">
        <ele>581.6</ele>
        <time>2020-06-30T15:23:37Z</time>
      </trkpt>
      <trkpt lat="43.07534" lon="0.15939">
        <ele>580.2</ele>
        <time>2020-06-30T15:23:39Z</time>
      </trkpt>
      <trkpt lat="43.07529" lon="0.15943">
        <ele>579.2</ele>
        <time>2020-06-30T15:23:40Z</time>
      </trkpt>
      <trkpt lat="43.07524" lon="0.15946">
        <ele>578.6</ele>
        <time>2020-06-30T15:23:41Z</time>
      </trkpt>
      <trkpt lat="43.07519" lon="0.15949">
        <ele>577.6</ele>
        <time>2020-06-30T15:23:42Z</time>
      </trkpt>
      <trkpt lat="43.07514" lon="0.1595">
        <ele>576.6</ele>
        <time>2020-06-30T15:23:43Z</time>
      </trkpt>
      <trkpt lat="43.07509" lon="0.15951">
        <ele>575.6</ele>
        <time>2020-06-30T15:23:44Z</time>
      </trkpt>
      <trkpt lat="43.07502" lon="0.15946">
        <ele>574</ele>
        <time>2020-06-30T15:23:46Z</time>
      </trkpt>
      <trkpt lat="43.07498" lon="0.15943">
        <ele>573.2</ele>
        <time>2020-06-30T15:23:47Z</time>
      </trkpt>
      <trkpt lat="43.07496" lon="0.15939">
        <ele>572.6</ele>
        <time>2020-06-30T15:23:48Z</time>
      </trkpt>
      <trkpt lat="43.0749" lon="0.15934">
        <ele>571.8</ele>
        <time>2020-06-30T15:23:50Z</time>
      </trkpt>
      <trkpt lat="43.07489" lon="0.15932">
        <ele>571.6</ele>
        <time>2020-06-30T15:23:51Z</time>
      </trkpt>
      <trkpt lat="43.07487" lon="0.15929">
        <ele>571.4</ele>
        <time>2020-06-30T15:23:52Z</time>
      </trkpt>
      <trkpt lat="43.07485" lon="0.15926">
        <ele>571.2</ele>
        <time>2020-06-30T15:23:53Z</time>
      </trkpt>
      <trkpt lat="43.07483" lon="0.15925">
        <ele>571</ele>
        <time>2020-06-30T15:23:54Z</time>
      </trkpt>
      <trkpt lat="43.07476" lon="0.15924">
        <ele>570.4</ele>
        <time>2020-06-30T15:23:56Z</time>
      </trkpt>
      <trkpt lat="43.07473" lon="0.15923">
        <ele>570.2</ele>
        <time>2020-06-30T15:23:57Z</time>
      </trkpt>
      <trkpt lat="43.07469" lon="0.15922">
        <ele>570</ele>
        <time>2020-06-30T15:23:58Z</time>
      </trkpt>
      <trkpt lat="43.07465" lon="0.15922">
        <ele>569.6</ele>
        <time>2020-06-30T15:23:59Z</time>
      </trkpt>
      <trkpt lat="43.07458" lon="0.15922">
        <ele>568.8</ele>
        <time>2020-06-30T15:24:01Z</time>
      </trkpt>
      <trkpt lat="43.07453" lon="0.1592">
        <ele>568.4</ele>
        <time>2020-06-30T15:24:02Z</time>
      </trkpt>
      <trkpt lat="43.07446" lon="0.15919">
        <ele>567.8</ele>
        <time>2020-06-30T15:24:03Z</time>
      </trkpt>
      <trkpt lat="43.07438" lon="0.15916">
        <ele>567.4</ele>
        <time>2020-06-30T15:24:04Z</time>
      </trkpt>
      <trkpt lat="43.07431" lon="0.15913">
        <ele>566.6</ele>
        <time>2020-06-30T15:24:05Z</time>
      </trkpt>
      <trkpt lat="43.07422" lon="0.15909">
        <ele>566</ele>
        <time>2020-06-30T15:24:06Z</time>
      </trkpt>
      <trkpt lat="43.07415" lon="0.15906">
        <ele>565.4</ele>
        <time>2020-06-30T15:24:07Z</time>
      </trkpt>
      <trkpt lat="43.07408" lon="0.15902">
        <ele>565</ele>
        <time>2020-06-30T15:24:08Z</time>
      </trkpt>
      <trkpt lat="43.07393" lon="0.15893">
        <ele>563.6</ele>
        <time>2020-06-30T15:24:10Z</time>
      </trkpt>
      <trkpt lat="43.07385" lon="0.15889">
        <ele>562.8</ele>
        <time>2020-06-30T15:24:11Z</time>
      </trkpt>
      <trkpt lat="43.07375" lon="0.15887">
        <ele>562</ele>
        <time>2020-06-30T15:24:12Z</time>
      </trkpt>
      <trkpt lat="43.07357" lon="0.15889">
        <ele>560.6</ele>
        <time>2020-06-30T15:24:14Z</time>
      </trkpt>
      <trkpt lat="43.07349" lon="0.15892">
        <ele>559.8</ele>
        <time>2020-06-30T15:24:15Z</time>
      </trkpt>
      <trkpt lat="43.0734" lon="0.15896">
        <ele>559</ele>
        <time>2020-06-30T15:24:16Z</time>
      </trkpt>
      <trkpt lat="43.07332" lon="0.159">
        <ele>558.4</ele>
        <time>2020-06-30T15:24:17Z</time>
      </trkpt>
      <trkpt lat="43.07318" lon="0.15906">
        <ele>557.2</ele>
        <time>2020-06-30T15:24:19Z</time>
      </trkpt>
      <trkpt lat="43.0731" lon="0.15909">
        <ele>556.4</ele>
        <time>2020-06-30T15:24:20Z</time>
      </trkpt>
      <trkpt lat="43.07303" lon="0.15911">
        <ele>555.8</ele>
        <time>2020-06-30T15:24:21Z</time>
      </trkpt>
      <trkpt lat="43.07288" lon="0.15912">
        <ele>554.4</ele>
        <time>2020-06-30T15:24:23Z</time>
      </trkpt>
      <trkpt lat="43.07279" lon="0.15909">
        <ele>553.4</ele>
        <time>2020-06-30T15:24:24Z</time>
      </trkpt>
      <trkpt lat="43.07272" lon="0.15904">
        <ele>552.6</ele>
        <time>2020-06-30T15:24:25Z</time>
      </trkpt>
      <trkpt lat="43.07264" lon="0.15898">
        <ele>552</ele>
        <time>2020-06-30T15:24:26Z</time>
      </trkpt>
      <trkpt lat="43.07256" lon="0.15891">
        <ele>551.4</ele>
        <time>2020-06-30T15:24:27Z</time>
      </trkpt>
      <trkpt lat="43.07248" lon="0.15884">
        <ele>550.8</ele>
        <time>2020-06-30T15:24:28Z</time>
      </trkpt>
      <trkpt lat="43.07229" lon="0.15867">
        <ele>549.6</ele>
        <time>2020-06-30T15:24:30Z</time>
      </trkpt>
      <trkpt lat="43.0722" lon="0.15859">
        <ele>548.8</ele>
        <time>2020-06-30T15:24:31Z</time>
      </trkpt>
      <trkpt lat="43.07211" lon="0.1585">
        <ele>548.2</ele>
        <time>2020-06-30T15:24:32Z</time>
      </trkpt>
      <trkpt lat="43.07203" lon="0.15842">
        <ele>547.8</ele>
        <time>2020-06-30T15:24:33Z</time>
      </trkpt>
      <trkpt lat="43.07194" lon="0.15833">
        <ele>547.2</ele>
        <time>2020-06-30T15:24:34Z</time>
      </trkpt>
      <trkpt lat="43.07186" lon="0.15826">
        <ele>546.8</ele>
        <time>2020-06-30T15:24:35Z</time>
      </trkpt>
      <trkpt lat="43.0717" lon="0.15809">
        <ele>546.2</ele>
        <time>2020-06-30T15:24:37Z</time>
      </trkpt>
      <trkpt lat="43.07163" lon="0.15801">
        <ele>546</ele>
        <time>2020-06-30T15:24:38Z</time>
      </trkpt>
      <trkpt lat="43.07155" lon="0.15794">
        <ele>545.8</ele>
        <time>2020-06-30T15:24:39Z</time>
      </trkpt>
      <trkpt lat="43.07147" lon="0.15786">
        <ele>545.4</ele>
        <time>2020-06-30T15:24:40Z</time>
      </trkpt>
      <trkpt lat="43.0714" lon="0.15779">
        <ele>545.2</ele>
        <time>2020-06-30T15:24:41Z</time>
      </trkpt>
      <trkpt lat="43.07134" lon="0.15771">
        <ele>545.2</ele>
        <time>2020-06-30T15:24:42Z</time>
      </trkpt>
      <trkpt lat="43.07121" lon="0.15757">
        <ele>544.8</ele>
        <time>2020-06-30T15:24:44Z</time>
      </trkpt>
      <trkpt lat="43.07114" lon="0.15751">
        <ele>544.6</ele>
        <time>2020-06-30T15:24:45Z</time>
      </trkpt>
      <trkpt lat="43.07109" lon="0.15744">
        <ele>544.4</ele>
        <time>2020-06-30T15:24:46Z</time>
      </trkpt>
      <trkpt lat="43.07102" lon="0.15738">
        <ele>544.4</ele>
        <time>2020-06-30T15:24:47Z</time>
      </trkpt>
      <trkpt lat="43.0709" lon="0.15727">
        <ele>544.2</ele>
        <time>2020-06-30T15:24:49Z</time>
      </trkpt>
      <trkpt lat="43.07085" lon="0.15721">
        <ele>544</ele>
        <time>2020-06-30T15:24:50Z</time>
      </trkpt>
      <trkpt lat="43.07079" lon="0.15716">
        <ele>543.8</ele>
        <time>2020-06-30T15:24:51Z</time>
      </trkpt>
      <trkpt lat="43.07072" lon="0.1571">
        <ele>543.8</ele>
        <time>2020-06-30T15:24:52Z</time>
      </trkpt>
      <trkpt lat="43.07067" lon="0.15706">
        <ele>543.8</ele>
        <time>2020-06-30T15:24:53Z</time>
      </trkpt>
      <trkpt lat="43.07055" lon="0.15695">
        <ele>543.6</ele>
        <time>2020-06-30T15:24:55Z</time>
      </trkpt>
      <trkpt lat="43.0705" lon="0.1569">
        <ele>543.4</ele>
        <time>2020-06-30T15:24:56Z</time>
      </trkpt>
      <trkpt lat="43.07045" lon="0.15685">
        <ele>543.2</ele>
        <time>2020-06-30T15:24:57Z</time>
      </trkpt>
      <trkpt lat="43.07035" lon="0.15676">
        <ele>543</ele>
        <time>2020-06-30T15:24:59Z</time>
      </trkpt>
      <trkpt lat="43.07031" lon="0.15671">
        <ele>542.8</ele>
        <time>2020-06-30T15:25:00Z</time>
      </trkpt>
      <trkpt lat="43.07028" lon="0.15667">
        <ele>542.6</ele>
        <time>2020-06-30T15:25:01Z</time>
      </trkpt>
      <trkpt lat="43.07026" lon="0.15664">
        <ele>542.4</ele>
        <time>2020-06-30T15:25:02Z</time>
      </trkpt>
      <trkpt lat="43.07025" lon="0.15663">
        <ele>542.4</ele>
        <time>2020-06-30T15:25:03Z</time>
      </trkpt>
      <trkpt lat="43.07024" lon="0.15662">
        <ele>542.4</ele>
        <time>2020-06-30T15:25:04Z</time>
      </trkpt>
      <trkpt lat="43.07024" lon="0.1566">
        <ele>542.2</ele>
        <time>2020-06-30T15:25:05Z</time>
      </trkpt>
      <trkpt lat="43.07024" lon="0.15657">
        <ele>542.2</ele>
        <time>2020-06-30T15:25:06Z</time>
      </trkpt>
      <trkpt lat="43.07021" lon="0.15654">
        <ele>542</ele>
        <time>2020-06-30T15:25:07Z</time>
      </trkpt>
      <trkpt lat="43.0702" lon="0.1565">
        <ele>542</ele>
        <time>2020-06-30T15:25:08Z</time>
      </trkpt>
      <trkpt lat="43.07016" lon="0.15647">
        <ele>542.2</ele>
        <time>2020-06-30T15:25:09Z</time>
      </trkpt>
      <trkpt lat="43.07009" lon="0.15643">
        <ele>542.2</ele>
        <time>2020-06-30T15:25:11Z</time>
      </trkpt>
      <trkpt lat="43.07006" lon="0.15641">
        <ele>542.2</ele>
        <time>2020-06-30T15:25:12Z</time>
      </trkpt>
      <trkpt lat="43.07002" lon="0.1564">
        <ele>542.2</ele>
        <time>2020-06-30T15:25:13Z</time>
      </trkpt>
      <trkpt lat="43.06995" lon="0.15634">
        <ele>542.2</ele>
        <time>2020-06-30T15:25:15Z</time>
      </trkpt>
      <trkpt lat="43.06992" lon="0.15632">
        <ele>542.2</ele>
        <time>2020-06-30T15:25:16Z</time>
      </trkpt>
      <trkpt lat="43.06989" lon="0.15629">
        <ele>542.2</ele>
        <time>2020-06-30T15:25:17Z</time>
      </trkpt>
      <trkpt lat="43.06983" lon="0.15623">
        <ele>542.4</ele>
        <time>2020-06-30T15:25:19Z</time>
      </trkpt>
      <trkpt lat="43.0698" lon="0.15619">
        <ele>542.4</ele>
        <time>2020-06-30T15:25:20Z</time>
      </trkpt>
      <trkpt lat="43.06977" lon="0.15617">
        <ele>542.4</ele>
        <time>2020-06-30T15:25:21Z</time>
      </trkpt>
      <trkpt lat="43.06974" lon="0.15615">
        <ele>542.4</ele>
        <time>2020-06-30T15:25:22Z</time>
      </trkpt>
      <trkpt lat="43.06972" lon="0.15613">
        <ele>542.4</ele>
        <time>2020-06-30T15:25:23Z</time>
      </trkpt>
      <trkpt lat="43.0697" lon="0.15611">
        <ele>542.4</ele>
        <time>2020-06-30T15:25:24Z</time>
      </trkpt>
      <trkpt lat="43.06969" lon="0.15609">
        <ele>542.4</ele>
        <time>2020-06-30T15:25:25Z</time>
      </trkpt>
      <trkpt lat="43.06968" lon="0.15607">
        <ele>542.4</ele>
        <time>2020-06-30T15:25:26Z</time>
      </trkpt>
      <trkpt lat="43.06967" lon="0.15604">
        <ele>542.4</ele>
        <time>2020-06-30T15:25:27Z</time>
      </trkpt>
      <trkpt lat="43.06966" lon="0.15602">
        <ele>542.4</ele>
        <time>2020-06-30T15:25:28Z</time>
      </trkpt>
      <trkpt lat="43.06964" lon="0.156">
        <ele>542.4</ele>
        <time>2020-06-30T15:25:29Z</time>
      </trkpt>
      <trkpt lat="43.06962" lon="0.15599">
        <ele>542.4</ele>
        <time>2020-06-30T15:25:30Z</time>
      </trkpt>
      <trkpt lat="43.0696" lon="0.15597">
        <ele>542.4</ele>
        <time>2020-06-30T15:25:31Z</time>
      </trkpt>
      <trkpt lat="43.06958" lon="0.15595">
        <ele>542.4</ele>
        <time>2020-06-30T15:25:32Z</time>
      </trkpt>
      <trkpt lat="43.06956" lon="0.15593">
        <ele>542.4</ele>
        <time>2020-06-30T15:25:33Z</time>
      </trkpt>
      <trkpt lat="43.06953" lon="0.15591">
        <ele>542.4</ele>
        <time>2020-06-30T15:25:34Z</time>
      </trkpt>
      <trkpt lat="43.06951" lon="0.1559">
        <ele>542.4</ele>
        <time>2020-06-30T15:25:35Z</time>
      </trkpt>
      <trkpt lat="43.06949" lon="0.15587">
        <ele>542.4</ele>
        <time>2020-06-30T15:25:36Z</time>
      </trkpt>
      <trkpt lat="43.06947" lon="0.15585">
        <ele>542.6</ele>
        <time>2020-06-30T15:25:37Z</time>
      </trkpt>
      <trkpt lat="43.06944" lon="0.15582">
        <ele>542.6</ele>
        <time>2020-06-30T15:25:38Z</time>
      </trkpt>
      <trkpt lat="43.06937" lon="0.15577">
        <ele>542.8</ele>
        <time>2020-06-30T15:25:40Z</time>
      </trkpt>
      <trkpt lat="43.06935" lon="0.15574">
        <ele>542.6</ele>
        <time>2020-06-30T15:25:41Z</time>
      </trkpt>
      <trkpt lat="43.06932" lon="0.15572">
        <ele>542.8</ele>
        <time>2020-06-30T15:25:42Z</time>
      </trkpt>
      <trkpt lat="43.0693" lon="0.15568">
        <ele>542.8</ele>
        <time>2020-06-30T15:25:43Z</time>
      </trkpt>
      <trkpt lat="43.06924" lon="0.15563">
        <ele>543</ele>
        <time>2020-06-30T15:25:45Z</time>
      </trkpt>
      <trkpt lat="43.06921" lon="0.1556">
        <ele>543</ele>
        <time>2020-06-30T15:25:46Z</time>
      </trkpt>
      <trkpt lat="43.06918" lon="0.15557">
        <ele>543.2</ele>
        <time>2020-06-30T15:25:47Z</time>
      </trkpt>
      <trkpt lat="43.06915" lon="0.15554">
        <ele>543.2</ele>
        <time>2020-06-30T15:25:48Z</time>
      </trkpt>
      <trkpt lat="43.06914" lon="0.15551">
        <ele>543.2</ele>
        <time>2020-06-30T15:25:49Z</time>
      </trkpt>
      <trkpt lat="43.06911" lon="0.15548">
        <ele>543.4</ele>
        <time>2020-06-30T15:25:50Z</time>
      </trkpt>
      <trkpt lat="43.06906" lon="0.15542">
        <ele>543.4</ele>
        <time>2020-06-30T15:25:52Z</time>
      </trkpt>
      <trkpt lat="43.06904" lon="0.15538">
        <ele>543.6</ele>
        <time>2020-06-30T15:25:53Z</time>
      </trkpt>
      <trkpt lat="43.06901" lon="0.15535">
        <ele>543.6</ele>
        <time>2020-06-30T15:25:54Z</time>
      </trkpt>
      <trkpt lat="43.06898" lon="0.15533">
        <ele>543.6</ele>
        <time>2020-06-30T15:25:55Z</time>
      </trkpt>
      <trkpt lat="43.06895" lon="0.15529">
        <ele>543.6</ele>
        <time>2020-06-30T15:25:56Z</time>
      </trkpt>
      <trkpt lat="43.06891" lon="0.15527">
        <ele>543.8</ele>
        <time>2020-06-30T15:25:57Z</time>
      </trkpt>
      <trkpt lat="43.06887" lon="0.15524">
        <ele>543.8</ele>
        <time>2020-06-30T15:25:58Z</time>
      </trkpt>
      <trkpt lat="43.06884" lon="0.1552">
        <ele>543.8</ele>
        <time>2020-06-30T15:25:59Z</time>
      </trkpt>
      <trkpt lat="43.06881" lon="0.15518">
        <ele>543.8</ele>
        <time>2020-06-30T15:26:00Z</time>
      </trkpt>
      <trkpt lat="43.06878" lon="0.15516">
        <ele>544</ele>
        <time>2020-06-30T15:26:01Z</time>
      </trkpt>
      <trkpt lat="43.06875" lon="0.15513">
        <ele>544</ele>
        <time>2020-06-30T15:26:02Z</time>
      </trkpt>
      <trkpt lat="43.06872" lon="0.15511">
        <ele>544</ele>
        <time>2020-06-30T15:26:03Z</time>
      </trkpt>
      <trkpt lat="43.06869" lon="0.15509">
        <ele>544.2</ele>
        <time>2020-06-30T15:26:04Z</time>
      </trkpt>
      <trkpt lat="43.06865" lon="0.15507">
        <ele>544.2</ele>
        <time>2020-06-30T15:26:05Z</time>
      </trkpt>
      <trkpt lat="43.06862" lon="0.15504">
        <ele>544.2</ele>
        <time>2020-06-30T15:26:06Z</time>
      </trkpt>
      <trkpt lat="43.0686" lon="0.15501">
        <ele>544.4</ele>
        <time>2020-06-30T15:26:07Z</time>
      </trkpt>
      <trkpt lat="43.06857" lon="0.15497">
        <ele>544.4</ele>
        <time>2020-06-30T15:26:08Z</time>
      </trkpt>
      <trkpt lat="43.06854" lon="0.15494">
        <ele>544.6</ele>
        <time>2020-06-30T15:26:09Z</time>
      </trkpt>
      <trkpt lat="43.06852" lon="0.15491">
        <ele>544.6</ele>
        <time>2020-06-30T15:26:10Z</time>
      </trkpt>
      <trkpt lat="43.0685" lon="0.15487">
        <ele>544.6</ele>
        <time>2020-06-30T15:26:11Z</time>
      </trkpt>
      <trkpt lat="43.06845" lon="0.15479">
        <ele>544.6</ele>
        <time>2020-06-30T15:26:13Z</time>
      </trkpt>
      <trkpt lat="43.06842" lon="0.15476">
        <ele>544.8</ele>
        <time>2020-06-30T15:26:14Z</time>
      </trkpt>
      <trkpt lat="43.06839" lon="0.15473">
        <ele>544.8</ele>
        <time>2020-06-30T15:26:15Z</time>
      </trkpt>
      <trkpt lat="43.06837" lon="0.1547">
        <ele>544.8</ele>
        <time>2020-06-30T15:26:16Z</time>
      </trkpt>
      <trkpt lat="43.06834" lon="0.15466">
        <ele>544.8</ele>
        <time>2020-06-30T15:26:17Z</time>
      </trkpt>
      <trkpt lat="43.06828" lon="0.15459">
        <ele>545</ele>
        <time>2020-06-30T15:26:19Z</time>
      </trkpt>
      <trkpt lat="43.06827" lon="0.15456">
        <ele>545</ele>
        <time>2020-06-30T15:26:20Z</time>
      </trkpt>
      <trkpt lat="43.06825" lon="0.15452">
        <ele>545</ele>
        <time>2020-06-30T15:26:21Z</time>
      </trkpt>
      <trkpt lat="43.06823" lon="0.1545">
        <ele>545.2</ele>
        <time>2020-06-30T15:26:22Z</time>
      </trkpt>
      <trkpt lat="43.06819" lon="0.15448">
        <ele>545.2</ele>
        <time>2020-06-30T15:26:23Z</time>
      </trkpt>
      <trkpt lat="43.06816" lon="0.15445">
        <ele>545.2</ele>
        <time>2020-06-30T15:26:24Z</time>
      </trkpt>
      <trkpt lat="43.0681" lon="0.15442">
        <ele>545</ele>
        <time>2020-06-30T15:26:26Z</time>
      </trkpt>
      <trkpt lat="43.06807" lon="0.15439">
        <ele>545</ele>
        <time>2020-06-30T15:26:27Z</time>
      </trkpt>
      <trkpt lat="43.06805" lon="0.15436">
        <ele>545</ele>
        <time>2020-06-30T15:26:28Z</time>
      </trkpt>
      <trkpt lat="43.06799" lon="0.15434">
        <ele>545</ele>
        <time>2020-06-30T15:26:30Z</time>
      </trkpt>
      <trkpt lat="43.06796" lon="0.15433">
        <ele>545.2</ele>
        <time>2020-06-30T15:26:31Z</time>
      </trkpt>
      <trkpt lat="43.06794" lon="0.1543">
        <ele>545.2</ele>
        <time>2020-06-30T15:26:32Z</time>
      </trkpt>
      <trkpt lat="43.06791" lon="0.15428">
        <ele>545.2</ele>
        <time>2020-06-30T15:26:33Z</time>
      </trkpt>
      <trkpt lat="43.06788" lon="0.15426">
        <ele>545.2</ele>
        <time>2020-06-30T15:26:34Z</time>
      </trkpt>
      <trkpt lat="43.06785" lon="0.15427">
        <ele>545.2</ele>
        <time>2020-06-30T15:26:35Z</time>
      </trkpt>
      <trkpt lat="43.06781" lon="0.15425">
        <ele>545.2</ele>
        <time>2020-06-30T15:26:36Z</time>
      </trkpt>
      <trkpt lat="43.06779" lon="0.15424">
        <ele>545.2</ele>
        <time>2020-06-30T15:26:37Z</time>
      </trkpt>
      <trkpt lat="43.06777" lon="0.15421">
        <ele>545.2</ele>
        <time>2020-06-30T15:26:38Z</time>
      </trkpt>
      <trkpt lat="43.06771" lon="0.15417">
        <ele>545.2</ele>
        <time>2020-06-30T15:26:40Z</time>
      </trkpt>
      <trkpt lat="43.06768" lon="0.15414">
        <ele>545.4</ele>
        <time>2020-06-30T15:26:41Z</time>
      </trkpt>
      <trkpt lat="43.06765" lon="0.15412">
        <ele>545.4</ele>
        <time>2020-06-30T15:26:42Z</time>
      </trkpt>
      <trkpt lat="43.06762" lon="0.15409">
        <ele>545.4</ele>
        <time>2020-06-30T15:26:43Z</time>
      </trkpt>
      <trkpt lat="43.0676" lon="0.15407">
        <ele>545.4</ele>
        <time>2020-06-30T15:26:44Z</time>
      </trkpt>
      <trkpt lat="43.06758" lon="0.15403">
        <ele>545.4</ele>
        <time>2020-06-30T15:26:45Z</time>
      </trkpt>
      <trkpt lat="43.06755" lon="0.15401">
        <ele>545.4</ele>
        <time>2020-06-30T15:26:46Z</time>
      </trkpt>
      <trkpt lat="43.06752" lon="0.15398">
        <ele>545.4</ele>
        <time>2020-06-30T15:26:47Z</time>
      </trkpt>
      <trkpt lat="43.06749" lon="0.15395">
        <ele>545.6</ele>
        <time>2020-06-30T15:26:48Z</time>
      </trkpt>
      <trkpt lat="43.06746" lon="0.15392">
        <ele>545.4</ele>
        <time>2020-06-30T15:26:49Z</time>
      </trkpt>
      <trkpt lat="43.06744" lon="0.15389">
        <ele>545.6</ele>
        <time>2020-06-30T15:26:50Z</time>
      </trkpt>
      <trkpt lat="43.06742" lon="0.15386">
        <ele>545.6</ele>
        <time>2020-06-30T15:26:51Z</time>
      </trkpt>
      <trkpt lat="43.06739" lon="0.15383">
        <ele>545.6</ele>
        <time>2020-06-30T15:26:52Z</time>
      </trkpt>
      <trkpt lat="43.06732" lon="0.15377">
        <ele>545.6</ele>
        <time>2020-06-30T15:26:54Z</time>
      </trkpt>
      <trkpt lat="43.06729" lon="0.15374">
        <ele>545.6</ele>
        <time>2020-06-30T15:26:55Z</time>
      </trkpt>
      <trkpt lat="43.06726" lon="0.15371">
        <ele>545.6</ele>
        <time>2020-06-30T15:26:56Z</time>
      </trkpt>
      <trkpt lat="43.06723" lon="0.15368">
        <ele>545.6</ele>
        <time>2020-06-30T15:26:57Z</time>
      </trkpt>
      <trkpt lat="43.0672" lon="0.15366">
        <ele>545.6</ele>
        <time>2020-06-30T15:26:58Z</time>
      </trkpt>
      <trkpt lat="43.06717" lon="0.15363">
        <ele>545.6</ele>
        <time>2020-06-30T15:26:59Z</time>
      </trkpt>
      <trkpt lat="43.0671" lon="0.15357">
        <ele>545.8</ele>
        <time>2020-06-30T15:27:01Z</time>
      </trkpt>
      <trkpt lat="43.06707" lon="0.15354">
        <ele>545.8</ele>
        <time>2020-06-30T15:27:02Z</time>
      </trkpt>
      <trkpt lat="43.06704" lon="0.15352">
        <ele>545.8</ele>
        <time>2020-06-30T15:27:03Z</time>
      </trkpt>
      <trkpt lat="43.067" lon="0.15349">
        <ele>545.8</ele>
        <time>2020-06-30T15:27:04Z</time>
      </trkpt>
      <trkpt lat="43.06697" lon="0.15347">
        <ele>545.8</ele>
        <time>2020-06-30T15:27:05Z</time>
      </trkpt>
      <trkpt lat="43.06692" lon="0.15342">
        <ele>545.8</ele>
        <time>2020-06-30T15:27:07Z</time>
      </trkpt>
      <trkpt lat="43.06689" lon="0.15338">
        <ele>545.8</ele>
        <time>2020-06-30T15:27:08Z</time>
      </trkpt>
      <trkpt lat="43.06685" lon="0.15335">
        <ele>546</ele>
        <time>2020-06-30T15:27:09Z</time>
      </trkpt>
      <trkpt lat="43.06681" lon="0.15332">
        <ele>546</ele>
        <time>2020-06-30T15:27:10Z</time>
      </trkpt>
      <trkpt lat="43.06677" lon="0.15328">
        <ele>546</ele>
        <time>2020-06-30T15:27:11Z</time>
      </trkpt>
      <trkpt lat="43.06674" lon="0.15326">
        <ele>546.2</ele>
        <time>2020-06-30T15:27:12Z</time>
      </trkpt>
      <trkpt lat="43.06671" lon="0.15323">
        <ele>546.2</ele>
        <time>2020-06-30T15:27:13Z</time>
      </trkpt>
      <trkpt lat="43.06668" lon="0.15321">
        <ele>546.2</ele>
        <time>2020-06-30T15:27:14Z</time>
      </trkpt>
      <trkpt lat="43.06665" lon="0.15319">
        <ele>546.4</ele>
        <time>2020-06-30T15:27:15Z</time>
      </trkpt>
      <trkpt lat="43.06658" lon="0.15312">
        <ele>546.4</ele>
        <time>2020-06-30T15:27:17Z</time>
      </trkpt>
      <trkpt lat="43.06657" lon="0.15309">
        <ele>546.6</ele>
        <time>2020-06-30T15:27:18Z</time>
      </trkpt>
      <trkpt lat="43.06655" lon="0.15305">
        <ele>546.6</ele>
        <time>2020-06-30T15:27:19Z</time>
      </trkpt>
      <trkpt lat="43.06651" lon="0.15303">
        <ele>546.6</ele>
        <time>2020-06-30T15:27:20Z</time>
      </trkpt>
      <trkpt lat="43.06648" lon="0.15299">
        <ele>547</ele>
        <time>2020-06-30T15:27:21Z</time>
      </trkpt>
      <trkpt lat="43.06645" lon="0.15295">
        <ele>546.8</ele>
        <time>2020-06-30T15:27:22Z</time>
      </trkpt>
      <trkpt lat="43.06638" lon="0.15289">
        <ele>546.8</ele>
        <time>2020-06-30T15:27:24Z</time>
      </trkpt>
      <trkpt lat="43.06636" lon="0.15285">
        <ele>546.8</ele>
        <time>2020-06-30T15:27:25Z</time>
      </trkpt>
      <trkpt lat="43.06632" lon="0.15282">
        <ele>546.8</ele>
        <time>2020-06-30T15:27:26Z</time>
      </trkpt>
      <trkpt lat="43.06629" lon="0.15278">
        <ele>546.8</ele>
        <time>2020-06-30T15:27:27Z</time>
      </trkpt>
      <trkpt lat="43.06626" lon="0.15275">
        <ele>546.8</ele>
        <time>2020-06-30T15:27:28Z</time>
      </trkpt>
      <trkpt lat="43.06623" lon="0.15268">
        <ele>546.8</ele>
        <time>2020-06-30T15:27:30Z</time>
      </trkpt>
      <trkpt lat="43.06622" lon="0.15266">
        <ele>546.8</ele>
        <time>2020-06-30T15:27:31Z</time>
      </trkpt>
      <trkpt lat="43.06621" lon="0.15264">
        <ele>546.6</ele>
        <time>2020-06-30T15:27:32Z</time>
      </trkpt>
      <trkpt lat="43.06621" lon="0.15263">
        <ele>546.6</ele>
        <time>2020-06-30T15:27:33Z</time>
      </trkpt>
      <trkpt lat="43.0662" lon="0.15263">
        <ele>546.6</ele>
        <time>2020-06-30T15:27:34Z</time>
      </trkpt>
      <trkpt lat="43.0662" lon="0.15262">
        <ele>546.8</ele>
        <time>2020-06-30T15:27:35Z</time>
      </trkpt>
      <trkpt lat="43.06621" lon="0.15262">
        <ele>546.8</ele>
        <time>2020-06-30T15:27:36Z</time>
      </trkpt>
      <trkpt lat="43.06621" lon="0.15262">
        <ele>546.8</ele>
        <time>2020-06-30T15:27:37Z</time>
      </trkpt>
      <trkpt lat="43.06622" lon="0.15263">
        <ele>546.8</ele>
        <time>2020-06-30T15:27:38Z</time>
      </trkpt>
      <trkpt lat="43.06622" lon="0.15262">
        <ele>546.8</ele>
        <time>2020-06-30T15:27:39Z</time>
      </trkpt>
      <trkpt lat="43.06611" lon="0.15251">
        <ele>546.6</ele>
        <time>2020-06-30T15:28:01Z</time>
      </trkpt>
      <trkpt lat="43.06609" lon="0.15248">
        <ele>546.6</ele>
        <time>2020-06-30T15:28:02Z</time>
      </trkpt>
      <trkpt lat="43.06607" lon="0.15245">
        <ele>546.6</ele>
        <time>2020-06-30T15:28:03Z</time>
      </trkpt>
      <trkpt lat="43.06604" lon="0.15242">
        <ele>546.6</ele>
        <time>2020-06-30T15:28:04Z</time>
      </trkpt>
      <trkpt lat="43.06601" lon="0.15238">
        <ele>546.4</ele>
        <time>2020-06-30T15:28:05Z</time>
      </trkpt>
      <trkpt lat="43.06598" lon="0.15235">
        <ele>546.4</ele>
        <time>2020-06-30T15:28:06Z</time>
      </trkpt>
      <trkpt lat="43.06597" lon="0.15231">
        <ele>546.4</ele>
        <time>2020-06-30T15:28:07Z</time>
      </trkpt>
      <trkpt lat="43.06595" lon="0.15227">
        <ele>546.4</ele>
        <time>2020-06-30T15:28:08Z</time>
      </trkpt>
      <trkpt lat="43.06591" lon="0.15219">
        <ele>546.4</ele>
        <time>2020-06-30T15:28:10Z</time>
      </trkpt>
      <trkpt lat="43.06589" lon="0.15214">
        <ele>546.4</ele>
        <time>2020-06-30T15:28:11Z</time>
      </trkpt>
      <trkpt lat="43.06587" lon="0.15209">
        <ele>546.4</ele>
        <time>2020-06-30T15:28:12Z</time>
      </trkpt>
      <trkpt lat="43.06585" lon="0.15205">
        <ele>546.4</ele>
        <time>2020-06-30T15:28:13Z</time>
      </trkpt>
      <trkpt lat="43.06583" lon="0.152">
        <ele>546.6</ele>
        <time>2020-06-30T15:28:14Z</time>
      </trkpt>
      <trkpt lat="43.06581" lon="0.15195">
        <ele>546.6</ele>
        <time>2020-06-30T15:28:15Z</time>
      </trkpt>
      <trkpt lat="43.06577" lon="0.15185">
        <ele>546.6</ele>
        <time>2020-06-30T15:28:17Z</time>
      </trkpt>
      <trkpt lat="43.06575" lon="0.15179">
        <ele>546.8</ele>
        <time>2020-06-30T15:28:18Z</time>
      </trkpt>
      <trkpt lat="43.06573" lon="0.15174">
        <ele>546.8</ele>
        <time>2020-06-30T15:28:19Z</time>
      </trkpt>
      <trkpt lat="43.06571" lon="0.15168">
        <ele>546.8</ele>
        <time>2020-06-30T15:28:20Z</time>
      </trkpt>
      <trkpt lat="43.06568" lon="0.15164">
        <ele>547</ele>
        <time>2020-06-30T15:28:21Z</time>
      </trkpt>
      <trkpt lat="43.06566" lon="0.15159">
        <ele>547</ele>
        <time>2020-06-30T15:28:22Z</time>
      </trkpt>
      <trkpt lat="43.06564" lon="0.15154">
        <ele>547</ele>
        <time>2020-06-30T15:28:23Z</time>
      </trkpt>
      <trkpt lat="43.06563" lon="0.15149">
        <ele>547</ele>
        <time>2020-06-30T15:28:24Z</time>
      </trkpt>
      <trkpt lat="43.06563" lon="0.15143">
        <ele>547.2</ele>
        <time>2020-06-30T15:28:25Z</time>
      </trkpt>
      <trkpt lat="43.06563" lon="0.15137">
        <ele>547.2</ele>
        <time>2020-06-30T15:28:26Z</time>
      </trkpt>
      <trkpt lat="43.06562" lon="0.15133">
        <ele>547.4</ele>
        <time>2020-06-30T15:28:27Z</time>
      </trkpt>
      <trkpt lat="43.0656" lon="0.15128">
        <ele>547.4</ele>
        <time>2020-06-30T15:28:28Z</time>
      </trkpt>
      <trkpt lat="43.0656" lon="0.15125">
        <ele>547.4</ele>
        <time>2020-06-30T15:28:29Z</time>
      </trkpt>
      <trkpt lat="43.06559" lon="0.1512">
        <ele>547.6</ele>
        <time>2020-06-30T15:28:30Z</time>
      </trkpt>
      <trkpt lat="43.06558" lon="0.15114">
        <ele>547.8</ele>
        <time>2020-06-30T15:28:31Z</time>
      </trkpt>
      <trkpt lat="43.06557" lon="0.15109">
        <ele>547.8</ele>
        <time>2020-06-30T15:28:32Z</time>
      </trkpt>
      <trkpt lat="43.06555" lon="0.15098">
        <ele>548</ele>
        <time>2020-06-30T15:28:34Z</time>
      </trkpt>
      <trkpt lat="43.06555" lon="0.15093">
        <ele>548.2</ele>
        <time>2020-06-30T15:28:35Z</time>
      </trkpt>
      <trkpt lat="43.06553" lon="0.15088">
        <ele>548.2</ele>
        <time>2020-06-30T15:28:36Z</time>
      </trkpt>
      <trkpt lat="43.06552" lon="0.15082">
        <ele>548.2</ele>
        <time>2020-06-30T15:28:37Z</time>
      </trkpt>
      <trkpt lat="43.0655" lon="0.15077">
        <ele>548.4</ele>
        <time>2020-06-30T15:28:38Z</time>
      </trkpt>
      <trkpt lat="43.0655" lon="0.15073">
        <ele>548.4</ele>
        <time>2020-06-30T15:28:39Z</time>
      </trkpt>
      <trkpt lat="43.06549" lon="0.15068">
        <ele>548.6</ele>
        <time>2020-06-30T15:28:40Z</time>
      </trkpt>
      <trkpt lat="43.06548" lon="0.15064">
        <ele>548.8</ele>
        <time>2020-06-30T15:28:41Z</time>
      </trkpt>
      <trkpt lat="43.06548" lon="0.15062">
        <ele>549</ele>
        <time>2020-06-30T15:28:42Z</time>
      </trkpt>
      <trkpt lat="43.06549" lon="0.15059">
        <ele>549</ele>
        <time>2020-06-30T15:28:43Z</time>
      </trkpt>
      <trkpt lat="43.06549" lon="0.15056">
        <ele>549</ele>
        <time>2020-06-30T15:28:44Z</time>
      </trkpt>
      <trkpt lat="43.06548" lon="0.15052">
        <ele>549.2</ele>
        <time>2020-06-30T15:28:45Z</time>
      </trkpt>
      <trkpt lat="43.06548" lon="0.1505">
        <ele>549.2</ele>
        <time>2020-06-30T15:28:46Z</time>
      </trkpt>
      <trkpt lat="43.06549" lon="0.15049">
        <ele>549.4</ele>
        <time>2020-06-30T15:28:47Z</time>
      </trkpt>
      <trkpt lat="43.06551" lon="0.15047">
        <ele>549.4</ele>
        <time>2020-06-30T15:28:48Z</time>
      </trkpt>
      <trkpt lat="43.0655" lon="0.15046">
        <ele>549.4</ele>
        <time>2020-06-30T15:28:49Z</time>
      </trkpt>
      <trkpt lat="43.0655" lon="0.15044">
        <ele>549.6</ele>
        <time>2020-06-30T15:28:50Z</time>
      </trkpt>
      <trkpt lat="43.06548" lon="0.15041">
        <ele>549.6</ele>
        <time>2020-06-30T15:28:51Z</time>
      </trkpt>
      <trkpt lat="43.06547" lon="0.15041">
        <ele>549.6</ele>
        <time>2020-06-30T15:28:52Z</time>
      </trkpt>
      <trkpt lat="43.06545" lon="0.15039">
        <ele>549.6</ele>
        <time>2020-06-30T15:28:53Z</time>
      </trkpt>
      <trkpt lat="43.06545" lon="0.15038">
        <ele>549.6</ele>
        <time>2020-06-30T15:28:54Z</time>
      </trkpt>
      <trkpt lat="43.06545" lon="0.1504">
        <ele>549.6</ele>
        <time>2020-06-30T15:28:55Z</time>
      </trkpt>
      <trkpt lat="43.06543" lon="0.15039">
        <ele>549.6</ele>
        <time>2020-06-30T15:28:56Z</time>
      </trkpt>
      <trkpt lat="43.06543" lon="0.15039">
        <ele>549.6</ele>
        <time>2020-06-30T15:28:57Z</time>
      </trkpt>
      <trkpt lat="43.06543" lon="0.1504">
        <ele>549.6</ele>
        <time>2020-06-30T15:28:58Z</time>
      </trkpt>
      <trkpt lat="43.0654" lon="0.15038">
        <ele>549.6</ele>
        <time>2020-06-30T15:28:59Z</time>
      </trkpt>
      <trkpt lat="43.06541" lon="0.1504">
        <ele>549.6</ele>
        <time>2020-06-30T15:29:00Z</time>
      </trkpt>
      <trkpt lat="43.06541" lon="0.15039">
        <ele>549.6</ele>
        <time>2020-06-30T15:29:01Z</time>
      </trkpt>
      <trkpt lat="43.0654" lon="0.15039">
        <ele>549.6</ele>
        <time>2020-06-30T15:29:02Z</time>
      </trkpt>
      <trkpt lat="43.06538" lon="0.15035">
        <ele>549.8</ele>
        <time>2020-06-30T15:29:11Z</time>
      </trkpt>
      <trkpt lat="43.06539" lon="0.15037">
        <ele>549.6</ele>
        <time>2020-06-30T15:29:12Z</time>
      </trkpt>
      <trkpt lat="43.06535" lon="0.15036">
        <ele>549.6</ele>
        <time>2020-06-30T15:29:13Z</time>
      </trkpt>
      <trkpt lat="43.06537" lon="0.15037">
        <ele>549.6</ele>
        <time>2020-06-30T15:29:14Z</time>
      </trkpt>
      <trkpt lat="43.06538" lon="0.15036">
        <ele>549.6</ele>
        <time>2020-06-30T15:29:15Z</time>
      </trkpt>
      <trkpt lat="43.06539" lon="0.15035">
        <ele>549.6</ele>
        <time>2020-06-30T15:29:16Z</time>
      </trkpt>
      <trkpt lat="43.0654" lon="0.15033">
        <ele>549.6</ele>
        <time>2020-06-30T15:29:17Z</time>
      </trkpt>
      <trkpt lat="43.06541" lon="0.15034">
        <ele>549.6</ele>
        <time>2020-06-30T15:29:18Z</time>
      </trkpt>
      <trkpt lat="43.06542" lon="0.15032">
        <ele>549.6</ele>
        <time>2020-06-30T15:29:19Z</time>
      </trkpt>
      <trkpt lat="43.06541" lon="0.15031">
        <ele>549.6</ele>
        <time>2020-06-30T15:29:20Z</time>
      </trkpt>
      <trkpt lat="43.06541" lon="0.15032">
        <ele>549.6</ele>
        <time>2020-06-30T15:29:21Z</time>
      </trkpt>
      <trkpt lat="43.06542" lon="0.1503">
        <ele>549.6</ele>
        <time>2020-06-30T15:29:22Z</time>
      </trkpt>
      <trkpt lat="43.06541" lon="0.15039">
        <ele>549.8</ele>
        <time>2020-06-30T15:30:31Z</time>
      </trkpt>
      <trkpt lat="43.06541" lon="0.15039">
        <ele>549.6</ele>
        <time>2020-06-30T15:30:32Z</time>
      </trkpt>
      <trkpt lat="43.06541" lon="0.15039">
        <ele>549.6</ele>
        <time>2020-06-30T15:30:33Z</time>
      </trkpt>
      <trkpt lat="43.06541" lon="0.15039">
        <ele>549.8</ele>
        <time>2020-06-30T15:30:34Z</time>
      </trkpt>
      <trkpt lat="43.06541" lon="0.15039">
        <ele>549.8</ele>
        <time>2020-06-30T15:30:35Z</time>
      </trkpt>
      <trkpt lat="43.06541" lon="0.15039">
        <ele>549.8</ele>
        <time>2020-06-30T15:30:36Z</time>
      </trkpt>
      <trkpt lat="43.06541" lon="0.15039">
        <ele>549.8</ele>
        <time>2020-06-30T15:30:37Z</time>
      </trkpt>
      <trkpt lat="43.0654" lon="0.15039">
        <ele>549.8</ele>
        <time>2020-06-30T15:30:38Z</time>
      </trkpt>
      <trkpt lat="43.0654" lon="0.15039">
        <ele>549.8</ele>
        <time>2020-06-30T15:30:39Z</time>
      </trkpt>
      <trkpt lat="43.0654" lon="0.15039">
        <ele>549.8</ele>
        <time>2020-06-30T15:30:40Z</time>
      </trkpt>
      <trkpt lat="43.0654" lon="0.15039">
        <ele>549.8</ele>
        <time>2020-06-30T15:30:41Z</time>
      </trkpt>
      <trkpt lat="43.06541" lon="0.15038">
        <ele>549.2</ele>
        <time>2020-06-30T15:47:53Z</time>
      </trkpt>
      <trkpt lat="43.06543" lon="0.15041">
        <ele>549</ele>
        <time>2020-06-30T15:47:54Z</time>
      </trkpt>
      <trkpt lat="43.06541" lon="0.15041">
        <ele>549</ele>
        <time>2020-06-30T15:47:55Z</time>
      </trkpt>
      <trkpt lat="43.06541" lon="0.1504">
        <ele>549</ele>
        <time>2020-06-30T15:47:56Z</time>
      </trkpt>
      <trkpt lat="43.06544" lon="0.15041">
        <ele>549</ele>
        <time>2020-06-30T15:47:57Z</time>
      </trkpt>
      <trkpt lat="43.06543" lon="0.15042">
        <ele>549</ele>
        <time>2020-06-30T15:47:58Z</time>
      </trkpt>
      <trkpt lat="43.06543" lon="0.1504">
        <ele>549</ele>
        <time>2020-06-30T15:47:59Z</time>
      </trkpt>
      <trkpt lat="43.06544" lon="0.15041">
        <ele>549</ele>
        <time>2020-06-30T15:48:00Z</time>
      </trkpt>
      <trkpt lat="43.06544" lon="0.15038">
        <ele>549</ele>
        <time>2020-06-30T15:48:01Z</time>
      </trkpt>
      <trkpt lat="43.06545" lon="0.15038">
        <ele>549</ele>
        <time>2020-06-30T15:48:02Z</time>
      </trkpt>
      <trkpt lat="43.06545" lon="0.15038">
        <ele>549</ele>
        <time>2020-06-30T15:48:03Z</time>
      </trkpt>
      <trkpt lat="43.06547" lon="0.15039">
        <ele>549</ele>
        <time>2020-06-30T15:48:04Z</time>
      </trkpt>
      <trkpt lat="43.06545" lon="0.1504">
        <ele>549</ele>
        <time>2020-06-30T15:48:05Z</time>
      </trkpt>
      <trkpt lat="43.06545" lon="0.1504">
        <ele>549</ele>
        <time>2020-06-30T15:48:06Z</time>
      </trkpt>
      <trkpt lat="43.06544" lon="0.1504">
        <ele>549</ele>
        <time>2020-06-30T15:48:07Z</time>
      </trkpt>
      <trkpt lat="43.06544" lon="0.1504">
        <ele>548.8</ele>
        <time>2020-06-30T15:48:08Z</time>
      </trkpt>
      <trkpt lat="43.06545" lon="0.15042">
        <ele>548.8</ele>
        <time>2020-06-30T15:48:09Z</time>
      </trkpt>
      <trkpt lat="43.06546" lon="0.15038">
        <ele>548.8</ele>
        <time>2020-06-30T15:48:10Z</time>
      </trkpt>
      <trkpt lat="43.06543" lon="0.15038">
        <ele>548.8</ele>
        <time>2020-06-30T15:48:11Z</time>
      </trkpt>
      <trkpt lat="43.06544" lon="0.15038">
        <ele>548.8</ele>
        <time>2020-06-30T15:48:12Z</time>
      </trkpt>
      <trkpt lat="43.06544" lon="0.1504">
        <ele>548.6</ele>
        <time>2020-06-30T15:48:13Z</time>
      </trkpt>
      <trkpt lat="43.06545" lon="0.15041">
        <ele>548.6</ele>
        <time>2020-06-30T15:48:14Z</time>
      </trkpt>
      <trkpt lat="43.06544" lon="0.15042">
        <ele>548.4</ele>
        <time>2020-06-30T15:48:15Z</time>
      </trkpt>
      <trkpt lat="43.06545" lon="0.15044">
        <ele>548.4</ele>
        <time>2020-06-30T15:48:16Z</time>
      </trkpt>
      <trkpt lat="43.06548" lon="0.15047">
        <ele>548.4</ele>
        <time>2020-06-30T15:48:17Z</time>
      </trkpt>
      <trkpt lat="43.06546" lon="0.15052">
        <ele>548.4</ele>
        <time>2020-06-30T15:48:18Z</time>
      </trkpt>
      <trkpt lat="43.06547" lon="0.15052">
        <ele>548.4</ele>
        <time>2020-06-30T15:48:19Z</time>
      </trkpt>
      <trkpt lat="43.06548" lon="0.15054">
        <ele>548.4</ele>
        <time>2020-06-30T15:48:20Z</time>
      </trkpt>
      <trkpt lat="43.06549" lon="0.15052">
        <ele>548.2</ele>
        <time>2020-06-30T15:48:21Z</time>
      </trkpt>
      <trkpt lat="43.06548" lon="0.15059">
        <ele>548</ele>
        <time>2020-06-30T15:48:22Z</time>
      </trkpt>
      <trkpt lat="43.06549" lon="0.1506">
        <ele>547.8</ele>
        <time>2020-06-30T15:48:23Z</time>
      </trkpt>
      <trkpt lat="43.0655" lon="0.15061">
        <ele>547.8</ele>
        <time>2020-06-30T15:48:24Z</time>
      </trkpt>
      <trkpt lat="43.06551" lon="0.15063">
        <ele>547.8</ele>
        <time>2020-06-30T15:48:25Z</time>
      </trkpt>
      <trkpt lat="43.06552" lon="0.15065">
        <ele>547.6</ele>
        <time>2020-06-30T15:48:26Z</time>
      </trkpt>
      <trkpt lat="43.06554" lon="0.15066">
        <ele>547.6</ele>
        <time>2020-06-30T15:48:27Z</time>
      </trkpt>
      <trkpt lat="43.06554" lon="0.15067">
        <ele>547.6</ele>
        <time>2020-06-30T15:48:28Z</time>
      </trkpt>
      <trkpt lat="43.06553" lon="0.15069">
        <ele>547.6</ele>
        <time>2020-06-30T15:48:29Z</time>
      </trkpt>
      <trkpt lat="43.06554" lon="0.1507">
        <ele>547.6</ele>
        <time>2020-06-30T15:48:30Z</time>
      </trkpt>
      <trkpt lat="43.06554" lon="0.15074">
        <ele>547.4</ele>
        <time>2020-06-30T15:48:31Z</time>
      </trkpt>
      <trkpt lat="43.06556" lon="0.15076">
        <ele>547.4</ele>
        <time>2020-06-30T15:48:32Z</time>
      </trkpt>
      <trkpt lat="43.06555" lon="0.15076">
        <ele>547.4</ele>
        <time>2020-06-30T15:48:33Z</time>
      </trkpt>
      <trkpt lat="43.06555" lon="0.15078">
        <ele>547.4</ele>
        <time>2020-06-30T15:48:34Z</time>
      </trkpt>
      <trkpt lat="43.06554" lon="0.15082">
        <ele>547.2</ele>
        <time>2020-06-30T15:48:35Z</time>
      </trkpt>
      <trkpt lat="43.06557" lon="0.15086">
        <ele>547.2</ele>
        <time>2020-06-30T15:48:36Z</time>
      </trkpt>
      <trkpt lat="43.06558" lon="0.15088">
        <ele>547</ele>
        <time>2020-06-30T15:48:37Z</time>
      </trkpt>
      <trkpt lat="43.06558" lon="0.15092">
        <ele>547</ele>
        <time>2020-06-30T15:48:38Z</time>
      </trkpt>
      <trkpt lat="43.06561" lon="0.151">
        <ele>547</ele>
        <time>2020-06-30T15:48:39Z</time>
      </trkpt>
      <trkpt lat="43.06558" lon="0.15101">
        <ele>547</ele>
        <time>2020-06-30T15:48:40Z</time>
      </trkpt>
      <trkpt lat="43.0656" lon="0.15107">
        <ele>547</ele>
        <time>2020-06-30T15:48:41Z</time>
      </trkpt>
      <trkpt lat="43.0656" lon="0.15107">
        <ele>547</ele>
        <time>2020-06-30T15:48:42Z</time>
      </trkpt>
      <trkpt lat="43.06561" lon="0.15109">
        <ele>546.8</ele>
        <time>2020-06-30T15:48:43Z</time>
      </trkpt>
      <trkpt lat="43.06561" lon="0.15112">
        <ele>546.8</ele>
        <time>2020-06-30T15:48:44Z</time>
      </trkpt>
      <trkpt lat="43.0656" lon="0.15113">
        <ele>546.6</ele>
        <time>2020-06-30T15:48:45Z</time>
      </trkpt>
      <trkpt lat="43.0656" lon="0.15113">
        <ele>546.6</ele>
        <time>2020-06-30T15:48:46Z</time>
      </trkpt>
      <trkpt lat="43.06561" lon="0.15116">
        <ele>546.6</ele>
        <time>2020-06-30T15:48:47Z</time>
      </trkpt>
      <trkpt lat="43.06561" lon="0.15118">
        <ele>546.4</ele>
        <time>2020-06-30T15:48:48Z</time>
      </trkpt>
      <trkpt lat="43.06561" lon="0.15121">
        <ele>546.4</ele>
        <time>2020-06-30T15:48:49Z</time>
      </trkpt>
      <trkpt lat="43.06563" lon="0.15124">
        <ele>546.4</ele>
        <time>2020-06-30T15:48:50Z</time>
      </trkpt>
      <trkpt lat="43.06561" lon="0.15127">
        <ele>546.4</ele>
        <time>2020-06-30T15:48:51Z</time>
      </trkpt>
      <trkpt lat="43.0656" lon="0.15132">
        <ele>546.4</ele>
        <time>2020-06-30T15:48:52Z</time>
      </trkpt>
      <trkpt lat="43.06559" lon="0.15136">
        <ele>546.2</ele>
        <time>2020-06-30T15:48:53Z</time>
      </trkpt>
      <trkpt lat="43.06559" lon="0.15143">
        <ele>546.2</ele>
        <time>2020-06-30T15:48:54Z</time>
      </trkpt>
      <trkpt lat="43.06561" lon="0.15146">
        <ele>546.2</ele>
        <time>2020-06-30T15:48:55Z</time>
      </trkpt>
      <trkpt lat="43.06559" lon="0.15149">
        <ele>546.2</ele>
        <time>2020-06-30T15:48:56Z</time>
      </trkpt>
      <trkpt lat="43.06559" lon="0.15152">
        <ele>546.2</ele>
        <time>2020-06-30T15:48:57Z</time>
      </trkpt>
      <trkpt lat="43.06558" lon="0.15155">
        <ele>546.2</ele>
        <time>2020-06-30T15:48:58Z</time>
      </trkpt>
      <trkpt lat="43.0656" lon="0.15157">
        <ele>546.2</ele>
        <time>2020-06-30T15:48:59Z</time>
      </trkpt>
      <trkpt lat="43.06562" lon="0.15159">
        <ele>546</ele>
        <time>2020-06-30T15:49:00Z</time>
      </trkpt>
      <trkpt lat="43.06562" lon="0.1516">
        <ele>546</ele>
        <time>2020-06-30T15:49:01Z</time>
      </trkpt>
      <trkpt lat="43.06563" lon="0.15162">
        <ele>546</ele>
        <time>2020-06-30T15:49:02Z</time>
      </trkpt>
      <trkpt lat="43.06564" lon="0.15164">
        <ele>546</ele>
        <time>2020-06-30T15:49:03Z</time>
      </trkpt>
      <trkpt lat="43.06563" lon="0.15166">
        <ele>546</ele>
        <time>2020-06-30T15:49:04Z</time>
      </trkpt>
      <trkpt lat="43.06569" lon="0.15161">
        <ele>546</ele>
        <time>2020-06-30T15:49:36Z</time>
      </trkpt>
      <trkpt lat="43.06569" lon="0.1516">
        <ele>546</ele>
        <time>2020-06-30T15:49:37Z</time>
      </trkpt>
      <trkpt lat="43.06567" lon="0.15161">
        <ele>546</ele>
        <time>2020-06-30T15:49:38Z</time>
      </trkpt>
      <trkpt lat="43.06567" lon="0.15161">
        <ele>546</ele>
        <time>2020-06-30T15:49:39Z</time>
      </trkpt>
      <trkpt lat="43.06566" lon="0.1516">
        <ele>546</ele>
        <time>2020-06-30T15:49:40Z</time>
      </trkpt>
      <trkpt lat="43.06566" lon="0.1516">
        <ele>546</ele>
        <time>2020-06-30T15:49:41Z</time>
      </trkpt>
      <trkpt lat="43.06566" lon="0.15159">
        <ele>546</ele>
        <time>2020-06-30T15:49:42Z</time>
      </trkpt>
      <trkpt lat="43.06566" lon="0.1516">
        <ele>546</ele>
        <time>2020-06-30T15:49:43Z</time>
      </trkpt>
      <trkpt lat="43.06566" lon="0.15158">
        <ele>546</ele>
        <time>2020-06-30T15:49:44Z</time>
      </trkpt>
      <trkpt lat="43.06567" lon="0.15157">
        <ele>546</ele>
        <time>2020-06-30T15:49:45Z</time>
      </trkpt>
      <trkpt lat="43.06568" lon="0.15156">
        <ele>546</ele>
        <time>2020-06-30T15:49:46Z</time>
      </trkpt>
      <trkpt lat="43.06567" lon="0.15156">
        <ele>546</ele>
        <time>2020-06-30T15:49:47Z</time>
      </trkpt>
      <trkpt lat="43.06567" lon="0.15156">
        <ele>546</ele>
        <time>2020-06-30T15:49:48Z</time>
      </trkpt>
      <trkpt lat="43.06568" lon="0.15156">
        <ele>546</ele>
        <time>2020-06-30T15:49:49Z</time>
      </trkpt>
      <trkpt lat="43.06569" lon="0.15155">
        <ele>546</ele>
        <time>2020-06-30T15:49:50Z</time>
      </trkpt>
      <trkpt lat="43.06566" lon="0.1516">
        <ele>545.8</ele>
        <time>2020-06-30T15:50:15Z</time>
      </trkpt>
      <trkpt lat="43.06571" lon="0.15159">
        <ele>545.8</ele>
        <time>2020-06-30T15:50:16Z</time>
      </trkpt>
      <trkpt lat="43.06569" lon="0.1516">
        <ele>545.8</ele>
        <time>2020-06-30T15:50:17Z</time>
      </trkpt>
      <trkpt lat="43.06569" lon="0.15161">
        <ele>545.8</ele>
        <time>2020-06-30T15:50:18Z</time>
      </trkpt>
      <trkpt lat="43.0657" lon="0.15162">
        <ele>545.8</ele>
        <time>2020-06-30T15:50:19Z</time>
      </trkpt>
      <trkpt lat="43.06571" lon="0.15163">
        <ele>545.8</ele>
        <time>2020-06-30T15:50:20Z</time>
      </trkpt>
      <trkpt lat="43.0657" lon="0.15166">
        <ele>545.8</ele>
        <time>2020-06-30T15:50:21Z</time>
      </trkpt>
      <trkpt lat="43.06569" lon="0.15168">
        <ele>545.8</ele>
        <time>2020-06-30T15:50:22Z</time>
      </trkpt>
      <trkpt lat="43.06569" lon="0.15172">
        <ele>545.8</ele>
        <time>2020-06-30T15:50:23Z</time>
      </trkpt>
      <trkpt lat="43.06568" lon="0.15174">
        <ele>545.8</ele>
        <time>2020-06-30T15:50:24Z</time>
      </trkpt>
      <trkpt lat="43.06567" lon="0.15178">
        <ele>545.8</ele>
        <time>2020-06-30T15:50:25Z</time>
      </trkpt>
      <trkpt lat="43.06567" lon="0.1518">
        <ele>545.6</ele>
        <time>2020-06-30T15:50:26Z</time>
      </trkpt>
      <trkpt lat="43.0657" lon="0.15181">
        <ele>545.6</ele>
        <time>2020-06-30T15:50:27Z</time>
      </trkpt>
      <trkpt lat="43.06572" lon="0.15182">
        <ele>545.6</ele>
        <time>2020-06-30T15:50:28Z</time>
      </trkpt>
      <trkpt lat="43.06575" lon="0.15185">
        <ele>545.6</ele>
        <time>2020-06-30T15:50:29Z</time>
      </trkpt>
      <trkpt lat="43.06574" lon="0.15188">
        <ele>545.6</ele>
        <time>2020-06-30T15:50:30Z</time>
      </trkpt>
      <trkpt lat="43.06574" lon="0.15191">
        <ele>545.6</ele>
        <time>2020-06-30T15:50:31Z</time>
      </trkpt>
      <trkpt lat="43.06575" lon="0.15193">
        <ele>545.6</ele>
        <time>2020-06-30T15:50:32Z</time>
      </trkpt>
      <trkpt lat="43.06576" lon="0.15195">
        <ele>545.4</ele>
        <time>2020-06-30T15:50:33Z</time>
      </trkpt>
      <trkpt lat="43.06577" lon="0.15197">
        <ele>545.4</ele>
        <time>2020-06-30T15:50:34Z</time>
      </trkpt>
      <trkpt lat="43.06577" lon="0.15199">
        <ele>545.4</ele>
        <time>2020-06-30T15:50:35Z</time>
      </trkpt>
      <trkpt lat="43.06577" lon="0.15201">
        <ele>545.4</ele>
        <time>2020-06-30T15:50:36Z</time>
      </trkpt>
      <trkpt lat="43.06578" lon="0.15202">
        <ele>545.4</ele>
        <time>2020-06-30T15:50:37Z</time>
      </trkpt>
      <trkpt lat="43.06579" lon="0.15205">
        <ele>545.4</ele>
        <time>2020-06-30T15:50:38Z</time>
      </trkpt>
      <trkpt lat="43.06579" lon="0.15206">
        <ele>545.4</ele>
        <time>2020-06-30T15:50:39Z</time>
      </trkpt>
      <trkpt lat="43.06581" lon="0.1521">
        <ele>545.2</ele>
        <time>2020-06-30T15:50:40Z</time>
      </trkpt>
      <trkpt lat="43.06581" lon="0.15212">
        <ele>545.2</ele>
        <time>2020-06-30T15:50:41Z</time>
      </trkpt>
      <trkpt lat="43.06582" lon="0.15214">
        <ele>545.2</ele>
        <time>2020-06-30T15:50:42Z</time>
      </trkpt>
      <trkpt lat="43.06583" lon="0.15217">
        <ele>545.2</ele>
        <time>2020-06-30T15:50:43Z</time>
      </trkpt>
      <trkpt lat="43.06585" lon="0.15218">
        <ele>545.2</ele>
        <time>2020-06-30T15:50:44Z</time>
      </trkpt>
      <trkpt lat="43.06586" lon="0.1522">
        <ele>545.2</ele>
        <time>2020-06-30T15:50:45Z</time>
      </trkpt>
      <trkpt lat="43.06588" lon="0.15221">
        <ele>545.2</ele>
        <time>2020-06-30T15:50:46Z</time>
      </trkpt>
      <trkpt lat="43.0659" lon="0.15224">
        <ele>545.2</ele>
        <time>2020-06-30T15:50:47Z</time>
      </trkpt>
      <trkpt lat="43.06591" lon="0.15226">
        <ele>545</ele>
        <time>2020-06-30T15:50:48Z</time>
      </trkpt>
      <trkpt lat="43.06595" lon="0.15227">
        <ele>545</ele>
        <time>2020-06-30T15:50:49Z</time>
      </trkpt>
      <trkpt lat="43.06596" lon="0.15228">
        <ele>545</ele>
        <time>2020-06-30T15:50:50Z</time>
      </trkpt>
      <trkpt lat="43.06597" lon="0.15229">
        <ele>545</ele>
        <time>2020-06-30T15:50:51Z</time>
      </trkpt>
      <trkpt lat="43.06598" lon="0.15231">
        <ele>545</ele>
        <time>2020-06-30T15:50:52Z</time>
      </trkpt>
      <trkpt lat="43.066" lon="0.15234">
        <ele>544.8</ele>
        <time>2020-06-30T15:50:53Z</time>
      </trkpt>
      <trkpt lat="43.066" lon="0.15235">
        <ele>544.8</ele>
        <time>2020-06-30T15:50:54Z</time>
      </trkpt>
      <trkpt lat="43.06603" lon="0.15235">
        <ele>544.8</ele>
        <time>2020-06-30T15:50:55Z</time>
      </trkpt>
      <trkpt lat="43.06603" lon="0.15235">
        <ele>544.8</ele>
        <time>2020-06-30T15:50:56Z</time>
      </trkpt>
      <trkpt lat="43.06603" lon="0.15236">
        <ele>544.6</ele>
        <time>2020-06-30T15:50:57Z</time>
      </trkpt>
      <trkpt lat="43.06603" lon="0.15236">
        <ele>544.6</ele>
        <time>2020-06-30T15:50:58Z</time>
      </trkpt>
      <trkpt lat="43.06604" lon="0.15235">
        <ele>544.6</ele>
        <time>2020-06-30T15:50:59Z</time>
      </trkpt>
      <trkpt lat="43.06604" lon="0.15234">
        <ele>544.6</ele>
        <time>2020-06-30T15:51:00Z</time>
      </trkpt>
      <trkpt lat="43.06605" lon="0.15233">
        <ele>544.6</ele>
        <time>2020-06-30T15:51:01Z</time>
      </trkpt>
      <trkpt lat="43.06605" lon="0.15233">
        <ele>544.6</ele>
        <time>2020-06-30T15:51:02Z</time>
      </trkpt>
      <trkpt lat="43.06606" lon="0.15234">
        <ele>544.6</ele>
        <time>2020-06-30T15:51:03Z</time>
      </trkpt>
      <trkpt lat="43.06608" lon="0.15234">
        <ele>544.6</ele>
        <time>2020-06-30T15:51:04Z</time>
      </trkpt>
      <trkpt lat="43.06609" lon="0.15233">
        <ele>544.6</ele>
        <time>2020-06-30T15:51:05Z</time>
      </trkpt>
      <trkpt lat="43.0661" lon="0.15232">
        <ele>544.6</ele>
        <time>2020-06-30T15:51:06Z</time>
      </trkpt>
      <trkpt lat="43.06612" lon="0.15231">
        <ele>544.2</ele>
        <time>2020-06-30T15:51:07Z</time>
      </trkpt>
      <trkpt lat="43.06613" lon="0.15229">
        <ele>544</ele>
        <time>2020-06-30T15:51:08Z</time>
      </trkpt>
      <trkpt lat="43.06615" lon="0.15227">
        <ele>543.8</ele>
        <time>2020-06-30T15:51:09Z</time>
      </trkpt>
      <trkpt lat="43.06617" lon="0.15227">
        <ele>543.6</ele>
        <time>2020-06-30T15:51:10Z</time>
      </trkpt>
      <trkpt lat="43.0662" lon="0.15226">
        <ele>543.6</ele>
        <time>2020-06-30T15:51:11Z</time>
      </trkpt>
      <trkpt lat="43.06622" lon="0.15225">
        <ele>543.6</ele>
        <time>2020-06-30T15:51:12Z</time>
      </trkpt>
      <trkpt lat="43.06623" lon="0.15224">
        <ele>543.6</ele>
        <time>2020-06-30T15:51:13Z</time>
      </trkpt>
      <trkpt lat="43.06624" lon="0.15223">
        <ele>543.6</ele>
        <time>2020-06-30T15:51:14Z</time>
      </trkpt>
      <trkpt lat="43.06626" lon="0.15223">
        <ele>543.6</ele>
        <time>2020-06-30T15:51:15Z</time>
      </trkpt>
      <trkpt lat="43.06627" lon="0.15222">
        <ele>543.6</ele>
        <time>2020-06-30T15:51:16Z</time>
      </trkpt>
      <trkpt lat="43.06629" lon="0.15221">
        <ele>543.6</ele>
        <time>2020-06-30T15:51:17Z</time>
      </trkpt>
      <trkpt lat="43.0663" lon="0.1522">
        <ele>543.8</ele>
        <time>2020-06-30T15:51:18Z</time>
      </trkpt>
      <trkpt lat="43.06632" lon="0.1522">
        <ele>543.8</ele>
        <time>2020-06-30T15:51:19Z</time>
      </trkpt>
      <trkpt lat="43.06633" lon="0.15218">
        <ele>543.8</ele>
        <time>2020-06-30T15:51:20Z</time>
      </trkpt>
      <trkpt lat="43.06636" lon="0.15214">
        <ele>543.8</ele>
        <time>2020-06-30T15:51:21Z</time>
      </trkpt>
      <trkpt lat="43.06638" lon="0.15214">
        <ele>543.8</ele>
        <time>2020-06-30T15:51:22Z</time>
      </trkpt>
      <trkpt lat="43.06639" lon="0.15212">
        <ele>543.8</ele>
        <time>2020-06-30T15:51:23Z</time>
      </trkpt>
      <trkpt lat="43.06641" lon="0.1521">
        <ele>543.8</ele>
        <time>2020-06-30T15:51:24Z</time>
      </trkpt>
      <trkpt lat="43.06642" lon="0.15209">
        <ele>543.8</ele>
        <time>2020-06-30T15:51:25Z</time>
      </trkpt>
      <trkpt lat="43.06644" lon="0.15212">
        <ele>543.8</ele>
        <time>2020-06-30T15:51:26Z</time>
      </trkpt>
      <trkpt lat="43.06646" lon="0.15212">
        <ele>543.8</ele>
        <time>2020-06-30T15:51:27Z</time>
      </trkpt>
      <trkpt lat="43.06648" lon="0.15213">
        <ele>543.8</ele>
        <time>2020-06-30T15:51:28Z</time>
      </trkpt>
      <trkpt lat="43.06648" lon="0.15213">
        <ele>543.8</ele>
        <time>2020-06-30T15:51:29Z</time>
      </trkpt>
      <trkpt lat="43.06649" lon="0.15214">
        <ele>543.8</ele>
        <time>2020-06-30T15:51:30Z</time>
      </trkpt>
      <trkpt lat="43.0665" lon="0.15213">
        <ele>543.8</ele>
        <time>2020-06-30T15:51:31Z</time>
      </trkpt>
      <trkpt lat="43.06651" lon="0.15212">
        <ele>543.8</ele>
        <time>2020-06-30T15:51:32Z</time>
      </trkpt>
      <trkpt lat="43.06651" lon="0.15213">
        <ele>543.6</ele>
        <time>2020-06-30T15:51:33Z</time>
      </trkpt>
      <trkpt lat="43.06652" lon="0.15212">
        <ele>543.6</ele>
        <time>2020-06-30T15:51:34Z</time>
      </trkpt>
      <trkpt lat="43.06653" lon="0.15209">
        <ele>543.8</ele>
        <time>2020-06-30T15:51:35Z</time>
      </trkpt>
      <trkpt lat="43.06654" lon="0.15209">
        <ele>543.8</ele>
        <time>2020-06-30T15:51:36Z</time>
      </trkpt>
      <trkpt lat="43.06654" lon="0.15211">
        <ele>543.8</ele>
        <time>2020-06-30T15:51:37Z</time>
      </trkpt>
      <trkpt lat="43.06654" lon="0.15212">
        <ele>543.8</ele>
        <time>2020-06-30T15:51:38Z</time>
      </trkpt>
      <trkpt lat="43.06655" lon="0.15212">
        <ele>543.8</ele>
        <time>2020-06-30T15:51:39Z</time>
      </trkpt>
      <trkpt lat="43.06656" lon="0.15212">
        <ele>543.8</ele>
        <time>2020-06-30T15:51:40Z</time>
      </trkpt>
      <trkpt lat="43.06657" lon="0.15213">
        <ele>543.8</ele>
        <time>2020-06-30T15:51:41Z</time>
      </trkpt>
      <trkpt lat="43.06657" lon="0.15213">
        <ele>543.8</ele>
        <time>2020-06-30T15:51:42Z</time>
      </trkpt>
      <trkpt lat="43.06658" lon="0.15213">
        <ele>543.8</ele>
        <time>2020-06-30T15:51:43Z</time>
      </trkpt>
      <trkpt lat="43.06658" lon="0.15212">
        <ele>543.6</ele>
        <time>2020-06-30T15:51:44Z</time>
      </trkpt>
      <trkpt lat="43.0666" lon="0.15209">
        <ele>543.6</ele>
        <time>2020-06-30T15:51:45Z</time>
      </trkpt>
      <trkpt lat="43.06662" lon="0.15209">
        <ele>543.6</ele>
        <time>2020-06-30T15:51:46Z</time>
      </trkpt>
      <trkpt lat="43.06665" lon="0.15208">
        <ele>543.6</ele>
        <time>2020-06-30T15:51:47Z</time>
      </trkpt>
      <trkpt lat="43.06667" lon="0.15207">
        <ele>543.4</ele>
        <time>2020-06-30T15:51:48Z</time>
      </trkpt>
      <trkpt lat="43.06671" lon="0.15206">
        <ele>543.4</ele>
        <time>2020-06-30T15:51:49Z</time>
      </trkpt>
      <trkpt lat="43.06673" lon="0.15206">
        <ele>543.2</ele>
        <time>2020-06-30T15:51:50Z</time>
      </trkpt>
      <trkpt lat="43.06676" lon="0.15206">
        <ele>543.2</ele>
        <time>2020-06-30T15:51:51Z</time>
      </trkpt>
      <trkpt lat="43.0668" lon="0.15206">
        <ele>543</ele>
        <time>2020-06-30T15:51:52Z</time>
      </trkpt>
      <trkpt lat="43.06684" lon="0.15205">
        <ele>542.8</ele>
        <time>2020-06-30T15:51:53Z</time>
      </trkpt>
      <trkpt lat="43.06688" lon="0.15204">
        <ele>542.8</ele>
        <time>2020-06-30T15:51:54Z</time>
      </trkpt>
      <trkpt lat="43.06691" lon="0.15201">
        <ele>542.8</ele>
        <time>2020-06-30T15:51:55Z</time>
      </trkpt>
      <trkpt lat="43.06694" lon="0.152">
        <ele>542.6</ele>
        <time>2020-06-30T15:51:56Z</time>
      </trkpt>
      <trkpt lat="43.06698" lon="0.15198">
        <ele>542.6</ele>
        <time>2020-06-30T15:51:57Z</time>
      </trkpt>
      <trkpt lat="43.067" lon="0.15197">
        <ele>542.6</ele>
        <time>2020-06-30T15:51:58Z</time>
      </trkpt>
      <trkpt lat="43.06703" lon="0.15195">
        <ele>542.6</ele>
        <time>2020-06-30T15:51:59Z</time>
      </trkpt>
      <trkpt lat="43.06705" lon="0.15194">
        <ele>542.6</ele>
        <time>2020-06-30T15:52:00Z</time>
      </trkpt>
      <trkpt lat="43.06708" lon="0.15193">
        <ele>542.4</ele>
        <time>2020-06-30T15:52:01Z</time>
      </trkpt>
      <trkpt lat="43.06711" lon="0.15192">
        <ele>542.4</ele>
        <time>2020-06-30T15:52:02Z</time>
      </trkpt>
      <trkpt lat="43.06713" lon="0.15191">
        <ele>542.4</ele>
        <time>2020-06-30T15:52:03Z</time>
      </trkpt>
      <trkpt lat="43.06716" lon="0.15189">
        <ele>542.4</ele>
        <time>2020-06-30T15:52:04Z</time>
      </trkpt>
      <trkpt lat="43.06718" lon="0.15188">
        <ele>542.4</ele>
        <time>2020-06-30T15:52:05Z</time>
      </trkpt>
      <trkpt lat="43.0672" lon="0.15187">
        <ele>542.4</ele>
        <time>2020-06-30T15:52:06Z</time>
      </trkpt>
      <trkpt lat="43.06722" lon="0.15186">
        <ele>542.2</ele>
        <time>2020-06-30T15:52:07Z</time>
      </trkpt>
      <trkpt lat="43.06724" lon="0.15184">
        <ele>542.2</ele>
        <time>2020-06-30T15:52:08Z</time>
      </trkpt>
      <trkpt lat="43.06726" lon="0.15184">
        <ele>542</ele>
        <time>2020-06-30T15:52:09Z</time>
      </trkpt>
      <trkpt lat="43.06727" lon="0.15183">
        <ele>542</ele>
        <time>2020-06-30T15:52:10Z</time>
      </trkpt>
      <trkpt lat="43.06728" lon="0.15182">
        <ele>542</ele>
        <time>2020-06-30T15:52:11Z</time>
      </trkpt>
      <trkpt lat="43.0673" lon="0.15182">
        <ele>542</ele>
        <time>2020-06-30T15:52:12Z</time>
      </trkpt>
      <trkpt lat="43.0673" lon="0.15181">
        <ele>542</ele>
        <time>2020-06-30T15:52:13Z</time>
      </trkpt>
      <trkpt lat="43.06731" lon="0.1518">
        <ele>542</ele>
        <time>2020-06-30T15:52:14Z</time>
      </trkpt>
      <trkpt lat="43.06731" lon="0.15179">
        <ele>542</ele>
        <time>2020-06-30T15:52:15Z</time>
      </trkpt>
      <trkpt lat="43.06731" lon="0.15178">
        <ele>542</ele>
        <time>2020-06-30T15:52:16Z</time>
      </trkpt>
      <trkpt lat="43.06731" lon="0.15177">
        <ele>542</ele>
        <time>2020-06-30T15:52:17Z</time>
      </trkpt>
      <trkpt lat="43.06731" lon="0.15177">
        <ele>542.2</ele>
        <time>2020-06-30T15:52:18Z</time>
      </trkpt>
      <trkpt lat="43.06731" lon="0.15178">
        <ele>542.2</ele>
        <time>2020-06-30T15:52:19Z</time>
      </trkpt>
      <trkpt lat="43.06731" lon="0.15179">
        <ele>542.2</ele>
        <time>2020-06-30T15:52:20Z</time>
      </trkpt>
      <trkpt lat="43.0673" lon="0.15178">
        <ele>542.2</ele>
        <time>2020-06-30T15:52:21Z</time>
      </trkpt>
      <trkpt lat="43.06731" lon="0.15178">
        <ele>542.2</ele>
        <time>2020-06-30T15:52:22Z</time>
      </trkpt>
      <trkpt lat="43.0673" lon="0.15178">
        <ele>542.2</ele>
        <time>2020-06-30T15:52:23Z</time>
      </trkpt>
      <trkpt lat="43.06731" lon="0.15177">
        <ele>542.2</ele>
        <time>2020-06-30T15:52:24Z</time>
      </trkpt>
      <trkpt lat="43.06732" lon="0.15178">
        <ele>542.2</ele>
        <time>2020-06-30T15:52:25Z</time>
      </trkpt>
      <trkpt lat="43.06732" lon="0.15178">
        <ele>542.2</ele>
        <time>2020-06-30T15:52:26Z</time>
      </trkpt>
      <trkpt lat="43.06733" lon="0.15179">
        <ele>542.2</ele>
        <time>2020-06-30T15:52:27Z</time>
      </trkpt>
      <trkpt lat="43.06734" lon="0.1518">
        <ele>542</ele>
        <time>2020-06-30T15:52:28Z</time>
      </trkpt>
      <trkpt lat="43.06735" lon="0.15179">
        <ele>542</ele>
        <time>2020-06-30T15:52:29Z</time>
      </trkpt>
      <trkpt lat="43.06736" lon="0.15178">
        <ele>542</ele>
        <time>2020-06-30T15:52:30Z</time>
      </trkpt>
      <trkpt lat="43.06737" lon="0.15178">
        <ele>542.2</ele>
        <time>2020-06-30T15:52:31Z</time>
      </trkpt>
      <trkpt lat="43.06738" lon="0.15176">
        <ele>542.2</ele>
        <time>2020-06-30T15:52:32Z</time>
      </trkpt>
      <trkpt lat="43.06739" lon="0.15176">
        <ele>542</ele>
        <time>2020-06-30T15:52:33Z</time>
      </trkpt>
      <trkpt lat="43.06738" lon="0.15175">
        <ele>542.2</ele>
        <time>2020-06-30T15:52:34Z</time>
      </trkpt>
      <trkpt lat="43.06739" lon="0.15175">
        <ele>542</ele>
        <time>2020-06-30T15:52:35Z</time>
      </trkpt>
      <trkpt lat="43.06738" lon="0.15174">
        <ele>542</ele>
        <time>2020-06-30T15:52:36Z</time>
      </trkpt>
      <trkpt lat="43.06738" lon="0.15174">
        <ele>542</ele>
        <time>2020-06-30T15:52:37Z</time>
      </trkpt>
      <trkpt lat="43.06739" lon="0.15174">
        <ele>542</ele>
        <time>2020-06-30T15:52:38Z</time>
      </trkpt>
      <trkpt lat="43.06739" lon="0.15174">
        <ele>542</ele>
        <time>2020-06-30T15:52:39Z</time>
      </trkpt>
      <trkpt lat="43.06738" lon="0.15175">
        <ele>542</ele>
        <time>2020-06-30T15:52:40Z</time>
      </trkpt>
      <trkpt lat="43.06738" lon="0.15175">
        <ele>542</ele>
        <time>2020-06-30T15:52:41Z</time>
      </trkpt>
      <trkpt lat="43.06738" lon="0.15175">
        <ele>542</ele>
        <time>2020-06-30T15:52:42Z</time>
      </trkpt>
      <trkpt lat="43.06738" lon="0.15173">
        <ele>542</ele>
        <time>2020-06-30T15:52:43Z</time>
      </trkpt>
      <trkpt lat="43.06741" lon="0.15164">
        <ele>542</ele>
        <time>2020-06-30T15:53:04Z</time>
      </trkpt>
      <trkpt lat="43.0674" lon="0.15166">
        <ele>542</ele>
        <time>2020-06-30T15:53:05Z</time>
      </trkpt>
      <trkpt lat="43.0674" lon="0.15167">
        <ele>542</ele>
        <time>2020-06-30T15:53:06Z</time>
      </trkpt>
      <trkpt lat="43.0674" lon="0.15167">
        <ele>542</ele>
        <time>2020-06-30T15:53:07Z</time>
      </trkpt>
      <trkpt lat="43.0674" lon="0.15168">
        <ele>542</ele>
        <time>2020-06-30T15:53:08Z</time>
      </trkpt>
      <trkpt lat="43.06741" lon="0.15167">
        <ele>542</ele>
        <time>2020-06-30T15:53:09Z</time>
      </trkpt>
      <trkpt lat="43.0674" lon="0.15168">
        <ele>542</ele>
        <time>2020-06-30T15:53:10Z</time>
      </trkpt>
      <trkpt lat="43.0674" lon="0.15169">
        <ele>542</ele>
        <time>2020-06-30T15:53:11Z</time>
      </trkpt>
      <trkpt lat="43.0674" lon="0.15168">
        <ele>542</ele>
        <time>2020-06-30T15:53:12Z</time>
      </trkpt>
      <trkpt lat="43.0674" lon="0.15168">
        <ele>542</ele>
        <time>2020-06-30T15:53:13Z</time>
      </trkpt>
      <trkpt lat="43.06739" lon="0.15167">
        <ele>542</ele>
        <time>2020-06-30T15:53:42Z</time>
      </trkpt>
      <trkpt lat="43.0674" lon="0.15166">
        <ele>542</ele>
        <time>2020-06-30T15:53:43Z</time>
      </trkpt>
      <trkpt lat="43.0674" lon="0.15166">
        <ele>542</ele>
        <time>2020-06-30T15:53:44Z</time>
      </trkpt>
      <trkpt lat="43.0674" lon="0.15165">
        <ele>542</ele>
        <time>2020-06-30T15:53:45Z</time>
      </trkpt>
      <trkpt lat="43.0674" lon="0.15166">
        <ele>542</ele>
        <time>2020-06-30T15:53:46Z</time>
      </trkpt>
      <trkpt lat="43.0674" lon="0.15166">
        <ele>542</ele>
        <time>2020-06-30T15:53:47Z</time>
      </trkpt>
      <trkpt lat="43.0674" lon="0.15166">
        <ele>542</ele>
        <time>2020-06-30T15:53:48Z</time>
      </trkpt>
      <trkpt lat="43.0674" lon="0.15169">
        <ele>542</ele>
        <time>2020-06-30T15:53:49Z</time>
      </trkpt>
      <trkpt lat="43.06741" lon="0.15166">
        <ele>542</ele>
        <time>2020-06-30T15:53:50Z</time>
      </trkpt>
      <trkpt lat="43.06741" lon="0.15168">
        <ele>542</ele>
        <time>2020-06-30T15:53:51Z</time>
      </trkpt>
      <trkpt lat="43.06741" lon="0.15167">
        <ele>542</ele>
        <time>2020-06-30T15:53:52Z</time>
      </trkpt>
      <trkpt lat="43.06741" lon="0.15166">
        <ele>542</ele>
        <time>2020-06-30T15:53:53Z</time>
      </trkpt>
      <trkpt lat="43.06741" lon="0.15164">
        <ele>542</ele>
        <time>2020-06-30T15:53:54Z</time>
      </trkpt>
      <trkpt lat="43.0674" lon="0.15164">
        <ele>542</ele>
        <time>2020-06-30T15:53:55Z</time>
      </trkpt>
      <trkpt lat="43.06741" lon="0.15162">
        <ele>542</ele>
        <time>2020-06-30T15:53:56Z</time>
      </trkpt>
      <trkpt lat="43.06742" lon="0.1516">
        <ele>542</ele>
        <time>2020-06-30T15:53:57Z</time>
      </trkpt>
      <trkpt lat="43.06743" lon="0.15161">
        <ele>542</ele>
        <time>2020-06-30T15:53:58Z</time>
      </trkpt>
      <trkpt lat="43.06741" lon="0.1516">
        <ele>542</ele>
        <time>2020-06-30T15:53:59Z</time>
      </trkpt>
      <trkpt lat="43.06739" lon="0.15162">
        <ele>542</ele>
        <time>2020-06-30T15:54:00Z</time>
      </trkpt>
      <trkpt lat="43.06739" lon="0.15163">
        <ele>542</ele>
        <time>2020-06-30T15:54:01Z</time>
      </trkpt>
      <trkpt lat="43.06738" lon="0.15162">
        <ele>542</ele>
        <time>2020-06-30T15:54:02Z</time>
      </trkpt>
      <trkpt lat="43.06738" lon="0.15157">
        <ele>542</ele>
        <time>2020-06-30T15:54:03Z</time>
      </trkpt>
      <trkpt lat="43.06738" lon="0.15157">
        <ele>542</ele>
        <time>2020-06-30T15:54:04Z</time>
      </trkpt>
      <trkpt lat="43.06739" lon="0.15156">
        <ele>542</ele>
        <time>2020-06-30T15:54:05Z</time>
      </trkpt>
      <trkpt lat="43.0674" lon="0.15154">
        <ele>542</ele>
        <time>2020-06-30T15:54:06Z</time>
      </trkpt>
      <trkpt lat="43.06738" lon="0.15172">
        <ele>542.2</ele>
        <time>2020-06-30T16:19:31Z</time>
      </trkpt>
      <trkpt lat="43.06737" lon="0.15172">
        <ele>542.2</ele>
        <time>2020-06-30T16:19:32Z</time>
      </trkpt>
      <trkpt lat="43.06737" lon="0.15172">
        <ele>542.2</ele>
        <time>2020-06-30T16:19:33Z</time>
      </trkpt>
      <trkpt lat="43.06737" lon="0.15172">
        <ele>542.2</ele>
        <time>2020-06-30T16:19:34Z</time>
      </trkpt>
      <trkpt lat="43.06737" lon="0.15171">
        <ele>542.2</ele>
        <time>2020-06-30T16:19:35Z</time>
      </trkpt>
      <trkpt lat="43.06737" lon="0.15172">
        <ele>542.2</ele>
        <time>2020-06-30T16:19:36Z</time>
      </trkpt>
      <trkpt lat="43.06738" lon="0.15172">
        <ele>542.2</ele>
        <time>2020-06-30T16:19:37Z</time>
      </trkpt>
      <trkpt lat="43.06738" lon="0.15172">
        <ele>542.2</ele>
        <time>2020-06-30T16:19:38Z</time>
      </trkpt>
      <trkpt lat="43.06738" lon="0.1517">
        <ele>542.2</ele>
        <time>2020-06-30T16:19:39Z</time>
      </trkpt>
      <trkpt lat="43.06738" lon="0.15169">
        <ele>542.2</ele>
        <time>2020-06-30T16:19:40Z</time>
      </trkpt>
      <trkpt lat="43.06738" lon="0.15168">
        <ele>542.2</ele>
        <time>2020-06-30T16:19:41Z</time>
      </trkpt>
      <trkpt lat="43.06743" lon="0.15166">
        <ele>542.2</ele>
        <time>2020-06-30T16:19:48Z</time>
      </trkpt>
      <trkpt lat="43.06744" lon="0.15168">
        <ele>542.2</ele>
        <time>2020-06-30T16:19:49Z</time>
      </trkpt>
      <trkpt lat="43.06741" lon="0.1517">
        <ele>542</ele>
        <time>2020-06-30T16:19:50Z</time>
      </trkpt>
      <trkpt lat="43.0674" lon="0.15167">
        <ele>542</ele>
        <time>2020-06-30T16:19:51Z</time>
      </trkpt>
      <trkpt lat="43.0674" lon="0.15168">
        <ele>542</ele>
        <time>2020-06-30T16:19:52Z</time>
      </trkpt>
      <trkpt lat="43.06739" lon="0.15167">
        <ele>542</ele>
        <time>2020-06-30T16:19:53Z</time>
      </trkpt>
      <trkpt lat="43.06739" lon="0.15167">
        <ele>542</ele>
        <time>2020-06-30T16:19:54Z</time>
      </trkpt>
      <trkpt lat="43.06738" lon="0.15168">
        <ele>542</ele>
        <time>2020-06-30T16:19:55Z</time>
      </trkpt>
      <trkpt lat="43.06738" lon="0.15171">
        <ele>542.2</ele>
        <time>2020-06-30T16:19:56Z</time>
      </trkpt>
      <trkpt lat="43.06737" lon="0.15173">
        <ele>542.2</ele>
        <time>2020-06-30T16:19:57Z</time>
      </trkpt>
      <trkpt lat="43.06736" lon="0.15173">
        <ele>542.2</ele>
        <time>2020-06-30T16:19:58Z</time>
      </trkpt>
      <trkpt lat="43.06735" lon="0.15171">
        <ele>542.2</ele>
        <time>2020-06-30T16:19:59Z</time>
      </trkpt>
      <trkpt lat="43.06733" lon="0.15172">
        <ele>542.2</ele>
        <time>2020-06-30T16:20:00Z</time>
      </trkpt>
      <trkpt lat="43.06731" lon="0.15173">
        <ele>542.4</ele>
        <time>2020-06-30T16:20:01Z</time>
      </trkpt>
      <trkpt lat="43.0673" lon="0.15174">
        <ele>542.4</ele>
        <time>2020-06-30T16:20:02Z</time>
      </trkpt>
      <trkpt lat="43.06727" lon="0.15176">
        <ele>542.4</ele>
        <time>2020-06-30T16:20:03Z</time>
      </trkpt>
      <trkpt lat="43.06725" lon="0.15176">
        <ele>542.4</ele>
        <time>2020-06-30T16:20:04Z</time>
      </trkpt>
      <trkpt lat="43.06723" lon="0.15176">
        <ele>542.4</ele>
        <time>2020-06-30T16:20:05Z</time>
      </trkpt>
      <trkpt lat="43.0672" lon="0.15178">
        <ele>542.4</ele>
        <time>2020-06-30T16:20:06Z</time>
      </trkpt>
      <trkpt lat="43.06717" lon="0.15177">
        <ele>542.4</ele>
        <time>2020-06-30T16:20:07Z</time>
      </trkpt>
      <trkpt lat="43.06714" lon="0.15179">
        <ele>542.4</ele>
        <time>2020-06-30T16:20:08Z</time>
      </trkpt>
      <trkpt lat="43.06712" lon="0.1518">
        <ele>542.4</ele>
        <time>2020-06-30T16:20:09Z</time>
      </trkpt>
      <trkpt lat="43.0671" lon="0.15181">
        <ele>542.4</ele>
        <time>2020-06-30T16:20:10Z</time>
      </trkpt>
      <trkpt lat="43.06707" lon="0.15181">
        <ele>542.4</ele>
        <time>2020-06-30T16:20:11Z</time>
      </trkpt>
      <trkpt lat="43.06704" lon="0.15183">
        <ele>542.6</ele>
        <time>2020-06-30T16:20:12Z</time>
      </trkpt>
      <trkpt lat="43.06702" lon="0.15183">
        <ele>542.6</ele>
        <time>2020-06-30T16:20:13Z</time>
      </trkpt>
      <trkpt lat="43.06699" lon="0.15185">
        <ele>542.6</ele>
        <time>2020-06-30T16:20:14Z</time>
      </trkpt>
      <trkpt lat="43.06696" lon="0.15186">
        <ele>542.6</ele>
        <time>2020-06-30T16:20:15Z</time>
      </trkpt>
      <trkpt lat="43.06693" lon="0.15188">
        <ele>542.6</ele>
        <time>2020-06-30T16:20:16Z</time>
      </trkpt>
      <trkpt lat="43.06689" lon="0.15189">
        <ele>542.8</ele>
        <time>2020-06-30T16:20:17Z</time>
      </trkpt>
      <trkpt lat="43.06686" lon="0.15189">
        <ele>542.8</ele>
        <time>2020-06-30T16:20:18Z</time>
      </trkpt>
      <trkpt lat="43.06682" lon="0.15191">
        <ele>542.8</ele>
        <time>2020-06-30T16:20:19Z</time>
      </trkpt>
      <trkpt lat="43.06682" lon="0.15191">
        <ele>543</ele>
        <time>2020-06-30T16:20:20Z</time>
      </trkpt>
      <trkpt lat="43.0668" lon="0.15193">
        <ele>543</ele>
        <time>2020-06-30T16:20:21Z</time>
      </trkpt>
      <trkpt lat="43.06676" lon="0.15194">
        <ele>543.2</ele>
        <time>2020-06-30T16:20:22Z</time>
      </trkpt>
      <trkpt lat="43.06673" lon="0.15195">
        <ele>543.2</ele>
        <time>2020-06-30T16:20:23Z</time>
      </trkpt>
      <trkpt lat="43.0667" lon="0.15196">
        <ele>543.4</ele>
        <time>2020-06-30T16:20:24Z</time>
      </trkpt>
      <trkpt lat="43.06666" lon="0.15198">
        <ele>543.4</ele>
        <time>2020-06-30T16:20:25Z</time>
      </trkpt>
      <trkpt lat="43.06664" lon="0.15199">
        <ele>543.6</ele>
        <time>2020-06-30T16:20:26Z</time>
      </trkpt>
      <trkpt lat="43.06662" lon="0.152">
        <ele>543.8</ele>
        <time>2020-06-30T16:20:27Z</time>
      </trkpt>
      <trkpt lat="43.0666" lon="0.152">
        <ele>543.8</ele>
        <time>2020-06-30T16:20:28Z</time>
      </trkpt>
      <trkpt lat="43.06659" lon="0.15202">
        <ele>544</ele>
        <time>2020-06-30T16:20:29Z</time>
      </trkpt>
      <trkpt lat="43.06657" lon="0.15203">
        <ele>544</ele>
        <time>2020-06-30T16:20:30Z</time>
      </trkpt>
      <trkpt lat="43.06655" lon="0.15205">
        <ele>544</ele>
        <time>2020-06-30T16:20:31Z</time>
      </trkpt>
      <trkpt lat="43.06653" lon="0.15207">
        <ele>544</ele>
        <time>2020-06-30T16:20:32Z</time>
      </trkpt>
      <trkpt lat="43.06651" lon="0.1521">
        <ele>544</ele>
        <time>2020-06-30T16:20:33Z</time>
      </trkpt>
      <trkpt lat="43.06649" lon="0.15213">
        <ele>544</ele>
        <time>2020-06-30T16:20:34Z</time>
      </trkpt>
      <trkpt lat="43.06647" lon="0.15212">
        <ele>544</ele>
        <time>2020-06-30T16:20:35Z</time>
      </trkpt>
      <trkpt lat="43.06645" lon="0.15215">
        <ele>544</ele>
        <time>2020-06-30T16:20:36Z</time>
      </trkpt>
      <trkpt lat="43.06643" lon="0.15216">
        <ele>544</ele>
        <time>2020-06-30T16:20:37Z</time>
      </trkpt>
      <trkpt lat="43.06641" lon="0.15216">
        <ele>544</ele>
        <time>2020-06-30T16:20:38Z</time>
      </trkpt>
      <trkpt lat="43.06639" lon="0.15218">
        <ele>544</ele>
        <time>2020-06-30T16:20:39Z</time>
      </trkpt>
      <trkpt lat="43.06636" lon="0.1522">
        <ele>543.8</ele>
        <time>2020-06-30T16:20:40Z</time>
      </trkpt>
      <trkpt lat="43.06633" lon="0.1522">
        <ele>543.8</ele>
        <time>2020-06-30T16:20:41Z</time>
      </trkpt>
      <trkpt lat="43.0663" lon="0.15221">
        <ele>543.8</ele>
        <time>2020-06-30T16:20:42Z</time>
      </trkpt>
      <trkpt lat="43.06627" lon="0.15222">
        <ele>543.8</ele>
        <time>2020-06-30T16:20:43Z</time>
      </trkpt>
      <trkpt lat="43.06625" lon="0.15224">
        <ele>543.8</ele>
        <time>2020-06-30T16:20:44Z</time>
      </trkpt>
      <trkpt lat="43.06623" lon="0.15224">
        <ele>543.8</ele>
        <time>2020-06-30T16:20:45Z</time>
      </trkpt>
      <trkpt lat="43.06621" lon="0.15225">
        <ele>543.8</ele>
        <time>2020-06-30T16:20:46Z</time>
      </trkpt>
      <trkpt lat="43.06618" lon="0.15226">
        <ele>543.8</ele>
        <time>2020-06-30T16:20:47Z</time>
      </trkpt>
      <trkpt lat="43.06614" lon="0.15228">
        <ele>543.8</ele>
        <time>2020-06-30T16:20:48Z</time>
      </trkpt>
      <trkpt lat="43.06613" lon="0.15226">
        <ele>543.8</ele>
        <time>2020-06-30T16:20:49Z</time>
      </trkpt>
      <trkpt lat="43.06611" lon="0.15227">
        <ele>544</ele>
        <time>2020-06-30T16:20:50Z</time>
      </trkpt>
      <trkpt lat="43.06609" lon="0.15229">
        <ele>544.2</ele>
        <time>2020-06-30T16:20:51Z</time>
      </trkpt>
      <trkpt lat="43.06608" lon="0.15228">
        <ele>544.4</ele>
        <time>2020-06-30T16:20:52Z</time>
      </trkpt>
      <trkpt lat="43.06606" lon="0.15226">
        <ele>544.6</ele>
        <time>2020-06-30T16:20:53Z</time>
      </trkpt>
      <trkpt lat="43.06604" lon="0.1523">
        <ele>544.8</ele>
        <time>2020-06-30T16:20:54Z</time>
      </trkpt>
      <trkpt lat="43.06603" lon="0.15229">
        <ele>544.8</ele>
        <time>2020-06-30T16:20:55Z</time>
      </trkpt>
      <trkpt lat="43.06602" lon="0.15228">
        <ele>544.8</ele>
        <time>2020-06-30T16:20:56Z</time>
      </trkpt>
      <trkpt lat="43.06602" lon="0.15229">
        <ele>545</ele>
        <time>2020-06-30T16:20:57Z</time>
      </trkpt>
      <trkpt lat="43.06602" lon="0.15229">
        <ele>545</ele>
        <time>2020-06-30T16:20:58Z</time>
      </trkpt>
      <trkpt lat="43.06601" lon="0.15228">
        <ele>545</ele>
        <time>2020-06-30T16:20:59Z</time>
      </trkpt>
      <trkpt lat="43.06602" lon="0.15227">
        <ele>545</ele>
        <time>2020-06-30T16:21:00Z</time>
      </trkpt>
      <trkpt lat="43.06601" lon="0.15225">
        <ele>545</ele>
        <time>2020-06-30T16:21:01Z</time>
      </trkpt>
      <trkpt lat="43.066" lon="0.15223">
        <ele>545</ele>
        <time>2020-06-30T16:21:02Z</time>
      </trkpt>
      <trkpt lat="43.066" lon="0.15222">
        <ele>545</ele>
        <time>2020-06-30T16:21:03Z</time>
      </trkpt>
      <trkpt lat="43.066" lon="0.15223">
        <ele>545.2</ele>
        <time>2020-06-30T16:21:04Z</time>
      </trkpt>
      <trkpt lat="43.06599" lon="0.15222">
        <ele>545.2</ele>
        <time>2020-06-30T16:21:05Z</time>
      </trkpt>
      <trkpt lat="43.06597" lon="0.15224">
        <ele>545.2</ele>
        <time>2020-06-30T16:21:06Z</time>
      </trkpt>
      <trkpt lat="43.06597" lon="0.15224">
        <ele>545.2</ele>
        <time>2020-06-30T16:21:07Z</time>
      </trkpt>
      <trkpt lat="43.06596" lon="0.15224">
        <ele>545.2</ele>
        <time>2020-06-30T16:21:08Z</time>
      </trkpt>
      <trkpt lat="43.06596" lon="0.15222">
        <ele>545.2</ele>
        <time>2020-06-30T16:21:09Z</time>
      </trkpt>
      <trkpt lat="43.06594" lon="0.15224">
        <ele>545.2</ele>
        <time>2020-06-30T16:21:10Z</time>
      </trkpt>
      <trkpt lat="43.06594" lon="0.15223">
        <ele>545.2</ele>
        <time>2020-06-30T16:21:11Z</time>
      </trkpt>
      <trkpt lat="43.06594" lon="0.15222">
        <ele>545.2</ele>
        <time>2020-06-30T16:21:12Z</time>
      </trkpt>
      <trkpt lat="43.06592" lon="0.15222">
        <ele>545.2</ele>
        <time>2020-06-30T16:21:13Z</time>
      </trkpt>
      <trkpt lat="43.06589" lon="0.15218">
        <ele>545</ele>
        <time>2020-06-30T16:21:14Z</time>
      </trkpt>
      <trkpt lat="43.06588" lon="0.15214">
        <ele>545.2</ele>
        <time>2020-06-30T16:21:15Z</time>
      </trkpt>
      <trkpt lat="43.06587" lon="0.15212">
        <ele>545.2</ele>
        <time>2020-06-30T16:21:16Z</time>
      </trkpt>
      <trkpt lat="43.06587" lon="0.15209">
        <ele>545.2</ele>
        <time>2020-06-30T16:21:17Z</time>
      </trkpt>
      <trkpt lat="43.06585" lon="0.15207">
        <ele>545.2</ele>
        <time>2020-06-30T16:21:18Z</time>
      </trkpt>
      <trkpt lat="43.06583" lon="0.15202">
        <ele>545.2</ele>
        <time>2020-06-30T16:21:19Z</time>
      </trkpt>
      <trkpt lat="43.0658" lon="0.15198">
        <ele>545.2</ele>
        <time>2020-06-30T16:21:20Z</time>
      </trkpt>
      <trkpt lat="43.06578" lon="0.15195">
        <ele>545.2</ele>
        <time>2020-06-30T16:21:21Z</time>
      </trkpt>
      <trkpt lat="43.06576" lon="0.15192">
        <ele>545.2</ele>
        <time>2020-06-30T16:21:22Z</time>
      </trkpt>
      <trkpt lat="43.06574" lon="0.15188">
        <ele>545.4</ele>
        <time>2020-06-30T16:21:23Z</time>
      </trkpt>
      <trkpt lat="43.06572" lon="0.15184">
        <ele>545.4</ele>
        <time>2020-06-30T16:21:24Z</time>
      </trkpt>
      <trkpt lat="43.06573" lon="0.1518">
        <ele>545.4</ele>
        <time>2020-06-30T16:21:25Z</time>
      </trkpt>
      <trkpt lat="43.06572" lon="0.15176">
        <ele>545.4</ele>
        <time>2020-06-30T16:21:26Z</time>
      </trkpt>
      <trkpt lat="43.06573" lon="0.15169">
        <ele>545.4</ele>
        <time>2020-06-30T16:21:27Z</time>
      </trkpt>
      <trkpt lat="43.06571" lon="0.15166">
        <ele>545.6</ele>
        <time>2020-06-30T16:21:28Z</time>
      </trkpt>
      <trkpt lat="43.06569" lon="0.15161">
        <ele>545.6</ele>
        <time>2020-06-30T16:21:29Z</time>
      </trkpt>
      <trkpt lat="43.06567" lon="0.15154">
        <ele>545.6</ele>
        <time>2020-06-30T16:21:30Z</time>
      </trkpt>
      <trkpt lat="43.06563" lon="0.15149">
        <ele>545.8</ele>
        <time>2020-06-30T16:21:31Z</time>
      </trkpt>
      <trkpt lat="43.06562" lon="0.15144">
        <ele>545.8</ele>
        <time>2020-06-30T16:21:32Z</time>
      </trkpt>
      <trkpt lat="43.06561" lon="0.15141">
        <ele>545.8</ele>
        <time>2020-06-30T16:21:33Z</time>
      </trkpt>
      <trkpt lat="43.0656" lon="0.15134">
        <ele>545.8</ele>
        <time>2020-06-30T16:21:34Z</time>
      </trkpt>
      <trkpt lat="43.0656" lon="0.15129">
        <ele>546</ele>
        <time>2020-06-30T16:21:35Z</time>
      </trkpt>
      <trkpt lat="43.06559" lon="0.15126">
        <ele>546</ele>
        <time>2020-06-30T16:21:36Z</time>
      </trkpt>
      <trkpt lat="43.06558" lon="0.1512">
        <ele>546</ele>
        <time>2020-06-30T16:21:37Z</time>
      </trkpt>
      <trkpt lat="43.06556" lon="0.15115">
        <ele>546.2</ele>
        <time>2020-06-30T16:21:38Z</time>
      </trkpt>
      <trkpt lat="43.06554" lon="0.15113">
        <ele>546.2</ele>
        <time>2020-06-30T16:21:39Z</time>
      </trkpt>
      <trkpt lat="43.06549" lon="0.15112">
        <ele>546.2</ele>
        <time>2020-06-30T16:21:40Z</time>
      </trkpt>
      <trkpt lat="43.0655" lon="0.1511">
        <ele>546.4</ele>
        <time>2020-06-30T16:21:41Z</time>
      </trkpt>
      <trkpt lat="43.06549" lon="0.15105">
        <ele>546.4</ele>
        <time>2020-06-30T16:21:42Z</time>
      </trkpt>
      <trkpt lat="43.06549" lon="0.15101">
        <ele>546.4</ele>
        <time>2020-06-30T16:21:43Z</time>
      </trkpt>
      <trkpt lat="43.06548" lon="0.15096">
        <ele>546.6</ele>
        <time>2020-06-30T16:21:44Z</time>
      </trkpt>
      <trkpt lat="43.06546" lon="0.15092">
        <ele>546.6</ele>
        <time>2020-06-30T16:21:45Z</time>
      </trkpt>
      <trkpt lat="43.06543" lon="0.15088">
        <ele>546.8</ele>
        <time>2020-06-30T16:21:46Z</time>
      </trkpt>
      <trkpt lat="43.06542" lon="0.15084">
        <ele>547</ele>
        <time>2020-06-30T16:21:47Z</time>
      </trkpt>
      <trkpt lat="43.06543" lon="0.15079">
        <ele>547</ele>
        <time>2020-06-30T16:21:48Z</time>
      </trkpt>
      <trkpt lat="43.06541" lon="0.15075">
        <ele>547.2</ele>
        <time>2020-06-30T16:21:49Z</time>
      </trkpt>
      <trkpt lat="43.06539" lon="0.1507">
        <ele>547.2</ele>
        <time>2020-06-30T16:21:50Z</time>
      </trkpt>
      <trkpt lat="43.06538" lon="0.15067">
        <ele>547.2</ele>
        <time>2020-06-30T16:21:51Z</time>
      </trkpt>
      <trkpt lat="43.06538" lon="0.15063">
        <ele>547.4</ele>
        <time>2020-06-30T16:21:52Z</time>
      </trkpt>
      <trkpt lat="43.06538" lon="0.1506">
        <ele>547.6</ele>
        <time>2020-06-30T16:21:53Z</time>
      </trkpt>
      <trkpt lat="43.06539" lon="0.15058">
        <ele>547.8</ele>
        <time>2020-06-30T16:21:54Z</time>
      </trkpt>
      <trkpt lat="43.0654" lon="0.15057">
        <ele>547.8</ele>
        <time>2020-06-30T16:21:55Z</time>
      </trkpt>
      <trkpt lat="43.06541" lon="0.15056">
        <ele>548</ele>
        <time>2020-06-30T16:21:56Z</time>
      </trkpt>
      <trkpt lat="43.06542" lon="0.15054">
        <ele>548</ele>
        <time>2020-06-30T16:21:57Z</time>
      </trkpt>
      <trkpt lat="43.06543" lon="0.15052">
        <ele>548</ele>
        <time>2020-06-30T16:21:58Z</time>
      </trkpt>
      <trkpt lat="43.06543" lon="0.1505">
        <ele>548.2</ele>
        <time>2020-06-30T16:21:59Z</time>
      </trkpt>
      <trkpt lat="43.06539" lon="0.15046">
        <ele>548.2</ele>
        <time>2020-06-30T16:22:00Z</time>
      </trkpt>
      <trkpt lat="43.06539" lon="0.15045">
        <ele>548.2</ele>
        <time>2020-06-30T16:22:01Z</time>
      </trkpt>
      <trkpt lat="43.06539" lon="0.15044">
        <ele>548.2</ele>
        <time>2020-06-30T16:22:02Z</time>
      </trkpt>
      <trkpt lat="43.06538" lon="0.1504">
        <ele>548.4</ele>
        <time>2020-06-30T16:22:03Z</time>
      </trkpt>
      <trkpt lat="43.06536" lon="0.15038">
        <ele>548.4</ele>
        <time>2020-06-30T16:22:04Z</time>
      </trkpt>
      <trkpt lat="43.06536" lon="0.15037">
        <ele>548.4</ele>
        <time>2020-06-30T16:22:05Z</time>
      </trkpt>
      <trkpt lat="43.06535" lon="0.15036">
        <ele>548.4</ele>
        <time>2020-06-30T16:22:06Z</time>
      </trkpt>
      <trkpt lat="43.06533" lon="0.15035">
        <ele>548.6</ele>
        <time>2020-06-30T16:22:07Z</time>
      </trkpt>
      <trkpt lat="43.06534" lon="0.15032">
        <ele>548.6</ele>
        <time>2020-06-30T16:22:08Z</time>
      </trkpt>
      <trkpt lat="43.06535" lon="0.15028">
        <ele>548.6</ele>
        <time>2020-06-30T16:22:09Z</time>
      </trkpt>
      <trkpt lat="43.06534" lon="0.15028">
        <ele>548.6</ele>
        <time>2020-06-30T16:22:10Z</time>
      </trkpt>
      <trkpt lat="43.06533" lon="0.15026">
        <ele>548.6</ele>
        <time>2020-06-30T16:22:11Z</time>
      </trkpt>
      <trkpt lat="43.06532" lon="0.15025">
        <ele>548.6</ele>
        <time>2020-06-30T16:22:12Z</time>
      </trkpt>
      <trkpt lat="43.0653" lon="0.15022">
        <ele>548.8</ele>
        <time>2020-06-30T16:22:13Z</time>
      </trkpt>
      <trkpt lat="43.0653" lon="0.15019">
        <ele>548.8</ele>
        <time>2020-06-30T16:22:14Z</time>
      </trkpt>
      <trkpt lat="43.06531" lon="0.15013">
        <ele>548.8</ele>
        <time>2020-06-30T16:22:15Z</time>
      </trkpt>
      <trkpt lat="43.06529" lon="0.1501">
        <ele>548.8</ele>
        <time>2020-06-30T16:22:16Z</time>
      </trkpt>
      <trkpt lat="43.06526" lon="0.15008">
        <ele>548.8</ele>
        <time>2020-06-30T16:22:17Z</time>
      </trkpt>
      <trkpt lat="43.06526" lon="0.15008">
        <ele>548.8</ele>
        <time>2020-06-30T16:22:18Z</time>
      </trkpt>
      <trkpt lat="43.06526" lon="0.1501">
        <ele>548.8</ele>
        <time>2020-06-30T16:22:19Z</time>
      </trkpt>
      <trkpt lat="43.06526" lon="0.15008">
        <ele>548.6</ele>
        <time>2020-06-30T16:22:20Z</time>
      </trkpt>
      <trkpt lat="43.06527" lon="0.15008">
        <ele>548.8</ele>
        <time>2020-06-30T16:22:21Z</time>
      </trkpt>
      <trkpt lat="43.06525" lon="0.15006">
        <ele>548.8</ele>
        <time>2020-06-30T16:22:22Z</time>
      </trkpt>
      <trkpt lat="43.06528" lon="0.15009">
        <ele>548.8</ele>
        <time>2020-06-30T16:22:23Z</time>
      </trkpt>
      <trkpt lat="43.06529" lon="0.1501">
        <ele>548.6</ele>
        <time>2020-06-30T16:22:24Z</time>
      </trkpt>
      <trkpt lat="43.06527" lon="0.15007">
        <ele>548.6</ele>
        <time>2020-06-30T16:22:25Z</time>
      </trkpt>
      <trkpt lat="43.06528" lon="0.15006">
        <ele>548.6</ele>
        <time>2020-06-30T16:22:26Z</time>
      </trkpt>
      <trkpt lat="43.06529" lon="0.1501">
        <ele>548.6</ele>
        <time>2020-06-30T16:22:27Z</time>
      </trkpt>
      <trkpt lat="43.0653" lon="0.15007">
        <ele>548.6</ele>
        <time>2020-06-30T16:22:28Z</time>
      </trkpt>
      <trkpt lat="43.06532" lon="0.1501">
        <ele>548.8</ele>
        <time>2020-06-30T16:22:29Z</time>
      </trkpt>
      <trkpt lat="43.06531" lon="0.15012">
        <ele>548.8</ele>
        <time>2020-06-30T16:22:30Z</time>
      </trkpt>
      <trkpt lat="43.06532" lon="0.1501">
        <ele>548.8</ele>
        <time>2020-06-30T16:22:31Z</time>
      </trkpt>
      <trkpt lat="43.06529" lon="0.15012">
        <ele>548.8</ele>
        <time>2020-06-30T16:22:32Z</time>
      </trkpt>
      <trkpt lat="43.06527" lon="0.15014">
        <ele>548.8</ele>
        <time>2020-06-30T16:22:33Z</time>
      </trkpt>
      <trkpt lat="43.06525" lon="0.15015">
        <ele>548.8</ele>
        <time>2020-06-30T16:22:34Z</time>
      </trkpt>
      <trkpt lat="43.06523" lon="0.15016">
        <ele>548.8</ele>
        <time>2020-06-30T16:22:35Z</time>
      </trkpt>
      <trkpt lat="43.06523" lon="0.15018">
        <ele>548.8</ele>
        <time>2020-06-30T16:22:36Z</time>
      </trkpt>
      <trkpt lat="43.06523" lon="0.15019">
        <ele>548.8</ele>
        <time>2020-06-30T16:22:37Z</time>
      </trkpt>
      <trkpt lat="43.06523" lon="0.15019">
        <ele>548.8</ele>
        <time>2020-06-30T16:22:38Z</time>
      </trkpt>
      <trkpt lat="43.06523" lon="0.15019">
        <ele>548.8</ele>
        <time>2020-06-30T16:22:39Z</time>
      </trkpt>
      <trkpt lat="43.06524" lon="0.15019">
        <ele>548.8</ele>
        <time>2020-06-30T16:22:40Z</time>
      </trkpt>
      <trkpt lat="43.0653" lon="0.15022">
        <ele>548.8</ele>
        <time>2020-06-30T16:23:24Z</time>
      </trkpt>
      <trkpt lat="43.06529" lon="0.1502">
        <ele>548.8</ele>
        <time>2020-06-30T16:23:25Z</time>
      </trkpt>
      <trkpt lat="43.06529" lon="0.15018">
        <ele>548.8</ele>
        <time>2020-06-30T16:23:26Z</time>
      </trkpt>
      <trkpt lat="43.0653" lon="0.15021">
        <ele>548.8</ele>
        <time>2020-06-30T16:23:27Z</time>
      </trkpt>
      <trkpt lat="43.06529" lon="0.15022">
        <ele>548.8</ele>
        <time>2020-06-30T16:23:28Z</time>
      </trkpt>
      <trkpt lat="43.06526" lon="0.15019">
        <ele>548.8</ele>
        <time>2020-06-30T16:23:29Z</time>
      </trkpt>
      <trkpt lat="43.06525" lon="0.1502">
        <ele>548.8</ele>
        <time>2020-06-30T16:23:30Z</time>
      </trkpt>
      <trkpt lat="43.06525" lon="0.15021">
        <ele>548.8</ele>
        <time>2020-06-30T16:23:31Z</time>
      </trkpt>
      <trkpt lat="43.06526" lon="0.15023">
        <ele>548.8</ele>
        <time>2020-06-30T16:23:32Z</time>
      </trkpt>
      <trkpt lat="43.06527" lon="0.15025">
        <ele>548.6</ele>
        <time>2020-06-30T16:23:33Z</time>
      </trkpt>
      <trkpt lat="43.06527" lon="0.15025">
        <ele>548.6</ele>
        <time>2020-06-30T16:23:34Z</time>
      </trkpt>
      <trkpt lat="43.06527" lon="0.15026">
        <ele>548.6</ele>
        <time>2020-06-30T16:23:35Z</time>
      </trkpt>
      <trkpt lat="43.06528" lon="0.15027">
        <ele>548.6</ele>
        <time>2020-06-30T16:23:36Z</time>
      </trkpt>
      <trkpt lat="43.06528" lon="0.15028">
        <ele>548.6</ele>
        <time>2020-06-30T16:23:37Z</time>
      </trkpt>
      <trkpt lat="43.06528" lon="0.1503">
        <ele>548.6</ele>
        <time>2020-06-30T16:23:38Z</time>
      </trkpt>
      <trkpt lat="43.06529" lon="0.1503">
        <ele>548.6</ele>
        <time>2020-06-30T16:23:39Z</time>
      </trkpt>
      <trkpt lat="43.0653" lon="0.15031">
        <ele>548.6</ele>
        <time>2020-06-30T16:23:40Z</time>
      </trkpt>
      <trkpt lat="43.06531" lon="0.15032">
        <ele>548.6</ele>
        <time>2020-06-30T16:23:41Z</time>
      </trkpt>
      <trkpt lat="43.0653" lon="0.15033">
        <ele>548.6</ele>
        <time>2020-06-30T16:23:42Z</time>
      </trkpt>
      <trkpt lat="43.06531" lon="0.15032">
        <ele>548.6</ele>
        <time>2020-06-30T16:23:43Z</time>
      </trkpt>
      <trkpt lat="43.0653" lon="0.15033">
        <ele>548.6</ele>
        <time>2020-06-30T16:23:44Z</time>
      </trkpt>
      <trkpt lat="43.0653" lon="0.15035">
        <ele>548.6</ele>
        <time>2020-06-30T16:23:45Z</time>
      </trkpt>
      <trkpt lat="43.0653" lon="0.15036">
        <ele>548.6</ele>
        <time>2020-06-30T16:23:46Z</time>
      </trkpt>
      <trkpt lat="43.06531" lon="0.15035">
        <ele>548.6</ele>
        <time>2020-06-30T16:23:47Z</time>
      </trkpt>
      <trkpt lat="43.06532" lon="0.15036">
        <ele>548.6</ele>
        <time>2020-06-30T16:23:48Z</time>
      </trkpt>
      <trkpt lat="43.06531" lon="0.15035">
        <ele>548.6</ele>
        <time>2020-06-30T16:23:49Z</time>
      </trkpt>
      <trkpt lat="43.06533" lon="0.15033">
        <ele>548.6</ele>
        <time>2020-06-30T16:23:50Z</time>
      </trkpt>
      <trkpt lat="43.06534" lon="0.15033">
        <ele>548.6</ele>
        <time>2020-06-30T16:23:51Z</time>
      </trkpt>
      <trkpt lat="43.06532" lon="0.15034">
        <ele>548.4</ele>
        <time>2020-06-30T16:23:52Z</time>
      </trkpt>
      <trkpt lat="43.06532" lon="0.15034">
        <ele>548.4</ele>
        <time>2020-06-30T16:23:53Z</time>
      </trkpt>
      <trkpt lat="43.06532" lon="0.15032">
        <ele>548.2</ele>
        <time>2020-06-30T16:24:05Z</time>
      </trkpt>
      <trkpt lat="43.06533" lon="0.15032">
        <ele>548.2</ele>
        <time>2020-06-30T16:24:06Z</time>
      </trkpt>
      <trkpt lat="43.06535" lon="0.15032">
        <ele>548.4</ele>
        <time>2020-06-30T16:24:07Z</time>
      </trkpt>
      <trkpt lat="43.06535" lon="0.15033">
        <ele>548.4</ele>
        <time>2020-06-30T16:24:08Z</time>
      </trkpt>
      <trkpt lat="43.06534" lon="0.15034">
        <ele>548.2</ele>
        <time>2020-06-30T16:24:09Z</time>
      </trkpt>
      <trkpt lat="43.06536" lon="0.15034">
        <ele>548.2</ele>
        <time>2020-06-30T16:24:10Z</time>
      </trkpt>
      <trkpt lat="43.06537" lon="0.15036">
        <ele>548.2</ele>
        <time>2020-06-30T16:24:11Z</time>
      </trkpt>
      <trkpt lat="43.06538" lon="0.15036">
        <ele>548</ele>
        <time>2020-06-30T16:24:12Z</time>
      </trkpt>
      <trkpt lat="43.06538" lon="0.15036">
        <ele>548</ele>
        <time>2020-06-30T16:24:13Z</time>
      </trkpt>
      <trkpt lat="43.06535" lon="0.15037">
        <ele>548</ele>
        <time>2020-06-30T16:24:14Z</time>
      </trkpt>
      <trkpt lat="43.06534" lon="0.15037">
        <ele>548</ele>
        <time>2020-06-30T16:24:15Z</time>
      </trkpt>
      <trkpt lat="43.06532" lon="0.15037">
        <ele>548</ele>
        <time>2020-06-30T16:24:16Z</time>
      </trkpt>
      <trkpt lat="43.06533" lon="0.15037">
        <ele>548</ele>
        <time>2020-06-30T16:24:17Z</time>
      </trkpt>
      <trkpt lat="43.06534" lon="0.15036">
        <ele>548</ele>
        <time>2020-06-30T16:24:18Z</time>
      </trkpt>
      <trkpt lat="43.06533" lon="0.15035">
        <ele>548</ele>
        <time>2020-06-30T16:24:19Z</time>
      </trkpt>
      <trkpt lat="43.06529" lon="0.15031">
        <ele>548.2</ele>
        <time>2020-06-30T16:26:44Z</time>
      </trkpt>
      <trkpt lat="43.06529" lon="0.1503">
        <ele>548.2</ele>
        <time>2020-06-30T16:26:45Z</time>
      </trkpt>
      <trkpt lat="43.06529" lon="0.1503">
        <ele>548.2</ele>
        <time>2020-06-30T16:26:46Z</time>
      </trkpt>
      <trkpt lat="43.06529" lon="0.1503">
        <ele>548.2</ele>
        <time>2020-06-30T16:26:47Z</time>
      </trkpt>
      <trkpt lat="43.06528" lon="0.15029">
        <ele>548.2</ele>
        <time>2020-06-30T16:26:48Z</time>
      </trkpt>
      <trkpt lat="43.06527" lon="0.1503">
        <ele>548.2</ele>
        <time>2020-06-30T16:26:49Z</time>
      </trkpt>
      <trkpt lat="43.06528" lon="0.1503">
        <ele>548.2</ele>
        <time>2020-06-30T16:26:50Z</time>
      </trkpt>
      <trkpt lat="43.06528" lon="0.1503">
        <ele>548.2</ele>
        <time>2020-06-30T16:26:51Z</time>
      </trkpt>
      <trkpt lat="43.06527" lon="0.1503">
        <ele>548.2</ele>
        <time>2020-06-30T16:26:52Z</time>
      </trkpt>
      <trkpt lat="43.06529" lon="0.15029">
        <ele>548.2</ele>
        <time>2020-06-30T16:26:53Z</time>
      </trkpt>
      <trkpt lat="43.06529" lon="0.15029">
        <ele>548.2</ele>
        <time>2020-06-30T16:26:54Z</time>
      </trkpt>
      <trkpt lat="43.06546" lon="0.15033">
        <ele>548.8</ele>
        <time>2020-06-30T16:40:55Z</time>
      </trkpt>
      <trkpt lat="43.06541" lon="0.15029">
        <ele>548.8</ele>
        <time>2020-06-30T16:40:56Z</time>
      </trkpt>
      <trkpt lat="43.06536" lon="0.15025">
        <ele>548.8</ele>
        <time>2020-06-30T16:40:57Z</time>
      </trkpt>
      <trkpt lat="43.06537" lon="0.15028">
        <ele>548.8</ele>
        <time>2020-06-30T16:40:58Z</time>
      </trkpt>
      <trkpt lat="43.06534" lon="0.15027">
        <ele>548.8</ele>
        <time>2020-06-30T16:40:59Z</time>
      </trkpt>
      <trkpt lat="43.06534" lon="0.15025">
        <ele>548.8</ele>
        <time>2020-06-30T16:41:00Z</time>
      </trkpt>
      <trkpt lat="43.06534" lon="0.15024">
        <ele>548.8</ele>
        <time>2020-06-30T16:41:01Z</time>
      </trkpt>
      <trkpt lat="43.06534" lon="0.15024">
        <ele>548.8</ele>
        <time>2020-06-30T16:41:02Z</time>
      </trkpt>
      <trkpt lat="43.06534" lon="0.15023">
        <ele>548.8</ele>
        <time>2020-06-30T16:41:03Z</time>
      </trkpt>
      <trkpt lat="43.06533" lon="0.15023">
        <ele>548.8</ele>
        <time>2020-06-30T16:41:04Z</time>
      </trkpt>
      <trkpt lat="43.06533" lon="0.15026">
        <ele>548.8</ele>
        <time>2020-06-30T16:41:05Z</time>
      </trkpt>
      <trkpt lat="43.06532" lon="0.15025">
        <ele>549</ele>
        <time>2020-06-30T16:41:06Z</time>
      </trkpt>
      <trkpt lat="43.06533" lon="0.15026">
        <ele>548.8</ele>
        <time>2020-06-30T16:41:07Z</time>
      </trkpt>
      <trkpt lat="43.06532" lon="0.15024">
        <ele>549</ele>
        <time>2020-06-30T16:41:08Z</time>
      </trkpt>
      <trkpt lat="43.06532" lon="0.15024">
        <ele>549</ele>
        <time>2020-06-30T16:41:09Z</time>
      </trkpt>
      <trkpt lat="43.06532" lon="0.15022">
        <ele>549</ele>
        <time>2020-06-30T16:41:10Z</time>
      </trkpt>
      <trkpt lat="43.06528" lon="0.15018">
        <ele>549</ele>
        <time>2020-06-30T16:41:11Z</time>
      </trkpt>
      <trkpt lat="43.06528" lon="0.15016">
        <ele>549</ele>
        <time>2020-06-30T16:41:12Z</time>
      </trkpt>
      <trkpt lat="43.06528" lon="0.15015">
        <ele>549</ele>
        <time>2020-06-30T16:41:13Z</time>
      </trkpt>
      <trkpt lat="43.06527" lon="0.15015">
        <ele>549</ele>
        <time>2020-06-30T16:41:14Z</time>
      </trkpt>
      <trkpt lat="43.06525" lon="0.15013">
        <ele>549</ele>
        <time>2020-06-30T16:41:15Z</time>
      </trkpt>
      <trkpt lat="43.06523" lon="0.15011">
        <ele>549</ele>
        <time>2020-06-30T16:41:16Z</time>
      </trkpt>
      <trkpt lat="43.06522" lon="0.15011">
        <ele>549</ele>
        <time>2020-06-30T16:41:17Z</time>
      </trkpt>
      <trkpt lat="43.06522" lon="0.15009">
        <ele>549</ele>
        <time>2020-06-30T16:41:18Z</time>
      </trkpt>
      <trkpt lat="43.06524" lon="0.15008">
        <ele>549</ele>
        <time>2020-06-30T16:41:19Z</time>
      </trkpt>
      <trkpt lat="43.06524" lon="0.15005">
        <ele>549</ele>
        <time>2020-06-30T16:41:20Z</time>
      </trkpt>
      <trkpt lat="43.06522" lon="0.15003">
        <ele>549</ele>
        <time>2020-06-30T16:41:21Z</time>
      </trkpt>
      <trkpt lat="43.06523" lon="0.15002">
        <ele>549</ele>
        <time>2020-06-30T16:41:22Z</time>
      </trkpt>
      <trkpt lat="43.06528" lon="0.15005">
        <ele>549</ele>
        <time>2020-06-30T16:41:23Z</time>
      </trkpt>
      <trkpt lat="43.06528" lon="0.15007">
        <ele>549</ele>
        <time>2020-06-30T16:41:24Z</time>
      </trkpt>
      <trkpt lat="43.06528" lon="0.15009">
        <ele>549</ele>
        <time>2020-06-30T16:41:25Z</time>
      </trkpt>
      <trkpt lat="43.06529" lon="0.15012">
        <ele>549</ele>
        <time>2020-06-30T16:41:26Z</time>
      </trkpt>
      <trkpt lat="43.06532" lon="0.15015">
        <ele>549</ele>
        <time>2020-06-30T16:41:27Z</time>
      </trkpt>
      <trkpt lat="43.06535" lon="0.15017">
        <ele>549</ele>
        <time>2020-06-30T16:41:28Z</time>
      </trkpt>
      <trkpt lat="43.06534" lon="0.15019">
        <ele>549</ele>
        <time>2020-06-30T16:41:29Z</time>
      </trkpt>
      <trkpt lat="43.06535" lon="0.15016">
        <ele>549</ele>
        <time>2020-06-30T16:41:30Z</time>
      </trkpt>
      <trkpt lat="43.06536" lon="0.15017">
        <ele>549</ele>
        <time>2020-06-30T16:41:31Z</time>
      </trkpt>
      <trkpt lat="43.06535" lon="0.15019">
        <ele>549</ele>
        <time>2020-06-30T16:41:32Z</time>
      </trkpt>
      <trkpt lat="43.06534" lon="0.15021">
        <ele>549</ele>
        <time>2020-06-30T16:41:33Z</time>
      </trkpt>
      <trkpt lat="43.06535" lon="0.15021">
        <ele>549</ele>
        <time>2020-06-30T16:41:34Z</time>
      </trkpt>
      <trkpt lat="43.06534" lon="0.15024">
        <ele>549</ele>
        <time>2020-06-30T16:41:35Z</time>
      </trkpt>
      <trkpt lat="43.06535" lon="0.15025">
        <ele>549</ele>
        <time>2020-06-30T16:41:36Z</time>
      </trkpt>
      <trkpt lat="43.06533" lon="0.15025">
        <ele>549</ele>
        <time>2020-06-30T16:41:37Z</time>
      </trkpt>
      <trkpt lat="43.06531" lon="0.15025">
        <ele>549</ele>
        <time>2020-06-30T16:41:38Z</time>
      </trkpt>
      <trkpt lat="43.06531" lon="0.15024">
        <ele>549</ele>
        <time>2020-06-30T16:41:39Z</time>
      </trkpt>
      <trkpt lat="43.06528" lon="0.15025">
        <ele>549</ele>
        <time>2020-06-30T16:41:40Z</time>
      </trkpt>
      <trkpt lat="43.06527" lon="0.15024">
        <ele>549</ele>
        <time>2020-06-30T16:41:41Z</time>
      </trkpt>
      <trkpt lat="43.06526" lon="0.15024">
        <ele>549</ele>
        <time>2020-06-30T16:41:42Z</time>
      </trkpt>
      <trkpt lat="43.06526" lon="0.15023">
        <ele>549</ele>
        <time>2020-06-30T16:41:43Z</time>
      </trkpt>
      <trkpt lat="43.06524" lon="0.15023">
        <ele>549</ele>
        <time>2020-06-30T16:41:44Z</time>
      </trkpt>
      <trkpt lat="43.06526" lon="0.1502">
        <ele>549</ele>
        <time>2020-06-30T16:41:45Z</time>
      </trkpt>
      <trkpt lat="43.06527" lon="0.15014">
        <ele>549</ele>
        <time>2020-06-30T16:41:46Z</time>
      </trkpt>
      <trkpt lat="43.06518" lon="0.15024">
        <ele>549</ele>
        <time>2020-06-30T16:42:59Z</time>
      </trkpt>
      <trkpt lat="43.06519" lon="0.15018">
        <ele>548.8</ele>
        <time>2020-06-30T16:43:00Z</time>
      </trkpt>
      <trkpt lat="43.06517" lon="0.15015">
        <ele>548.8</ele>
        <time>2020-06-30T16:43:01Z</time>
      </trkpt>
      <trkpt lat="43.06518" lon="0.15015">
        <ele>548.8</ele>
        <time>2020-06-30T16:43:02Z</time>
      </trkpt>
      <trkpt lat="43.06518" lon="0.15013">
        <ele>548.8</ele>
        <time>2020-06-30T16:43:03Z</time>
      </trkpt>
      <trkpt lat="43.06518" lon="0.1501">
        <ele>548.8</ele>
        <time>2020-06-30T16:43:04Z</time>
      </trkpt>
      <trkpt lat="43.06518" lon="0.15007">
        <ele>548.8</ele>
        <time>2020-06-30T16:43:05Z</time>
      </trkpt>
      <trkpt lat="43.06519" lon="0.15005">
        <ele>548.8</ele>
        <time>2020-06-30T16:43:06Z</time>
      </trkpt>
      <trkpt lat="43.0652" lon="0.15004">
        <ele>548.8</ele>
        <time>2020-06-30T16:43:07Z</time>
      </trkpt>
      <trkpt lat="43.0652" lon="0.15002">
        <ele>548.8</ele>
        <time>2020-06-30T16:43:08Z</time>
      </trkpt>
      <trkpt lat="43.0652" lon="0.15">
        <ele>548.8</ele>
        <time>2020-06-30T16:43:09Z</time>
      </trkpt>
      <trkpt lat="43.0652" lon="0.14999">
        <ele>548.8</ele>
        <time>2020-06-30T16:43:10Z</time>
      </trkpt>
      <trkpt lat="43.06519" lon="0.14996">
        <ele>548.8</ele>
        <time>2020-06-30T16:43:11Z</time>
      </trkpt>
      <trkpt lat="43.06521" lon="0.14995">
        <ele>548.8</ele>
        <time>2020-06-30T16:43:12Z</time>
      </trkpt>
      <trkpt lat="43.06522" lon="0.14995">
        <ele>548.8</ele>
        <time>2020-06-30T16:43:13Z</time>
      </trkpt>
      <trkpt lat="43.06523" lon="0.14994">
        <ele>548.8</ele>
        <time>2020-06-30T16:43:14Z</time>
      </trkpt>
      <trkpt lat="43.06526" lon="0.1499">
        <ele>548.6</ele>
        <time>2020-06-30T16:43:15Z</time>
      </trkpt>
      <trkpt lat="43.06527" lon="0.14991">
        <ele>548.6</ele>
        <time>2020-06-30T16:43:16Z</time>
      </trkpt>
      <trkpt lat="43.06528" lon="0.14991">
        <ele>548.4</ele>
        <time>2020-06-30T16:43:17Z</time>
      </trkpt>
      <trkpt lat="43.06531" lon="0.14989">
        <ele>548.4</ele>
        <time>2020-06-30T16:43:18Z</time>
      </trkpt>
      <trkpt lat="43.06531" lon="0.14989">
        <ele>548.4</ele>
        <time>2020-06-30T16:43:19Z</time>
      </trkpt>
      <trkpt lat="43.06533" lon="0.14984">
        <ele>548.4</ele>
        <time>2020-06-30T16:43:20Z</time>
      </trkpt>
      <trkpt lat="43.06535" lon="0.14983">
        <ele>548.2</ele>
        <time>2020-06-30T16:43:21Z</time>
      </trkpt>
      <trkpt lat="43.06535" lon="0.14982">
        <ele>548.2</ele>
        <time>2020-06-30T16:43:22Z</time>
      </trkpt>
      <trkpt lat="43.06536" lon="0.14981">
        <ele>548.2</ele>
        <time>2020-06-30T16:43:23Z</time>
      </trkpt>
      <trkpt lat="43.06541" lon="0.14982">
        <ele>548</ele>
        <time>2020-06-30T16:43:24Z</time>
      </trkpt>
      <trkpt lat="43.06542" lon="0.14983">
        <ele>548</ele>
        <time>2020-06-30T16:43:25Z</time>
      </trkpt>
      <trkpt lat="43.06544" lon="0.14983">
        <ele>548</ele>
        <time>2020-06-30T16:43:26Z</time>
      </trkpt>
      <trkpt lat="43.06544" lon="0.14983">
        <ele>547.8</ele>
        <time>2020-06-30T16:43:27Z</time>
      </trkpt>
      <trkpt lat="43.06544" lon="0.14981">
        <ele>547.8</ele>
        <time>2020-06-30T16:43:28Z</time>
      </trkpt>
      <trkpt lat="43.06545" lon="0.14981">
        <ele>548</ele>
        <time>2020-06-30T16:43:29Z</time>
      </trkpt>
      <trkpt lat="43.06542" lon="0.14983">
        <ele>548</ele>
        <time>2020-06-30T16:43:30Z</time>
      </trkpt>
      <trkpt lat="43.06545" lon="0.14978">
        <ele>548</ele>
        <time>2020-06-30T16:43:31Z</time>
      </trkpt>
      <trkpt lat="43.06547" lon="0.14976">
        <ele>548</ele>
        <time>2020-06-30T16:43:32Z</time>
      </trkpt>
      <trkpt lat="43.06547" lon="0.14977">
        <ele>548</ele>
        <time>2020-06-30T16:43:33Z</time>
      </trkpt>
      <trkpt lat="43.06548" lon="0.14978">
        <ele>548.2</ele>
        <time>2020-06-30T16:43:34Z</time>
      </trkpt>
      <trkpt lat="43.06547" lon="0.14978">
        <ele>548.2</ele>
        <time>2020-06-30T16:43:35Z</time>
      </trkpt>
      <trkpt lat="43.06547" lon="0.14978">
        <ele>548</ele>
        <time>2020-06-30T16:43:36Z</time>
      </trkpt>
      <trkpt lat="43.06547" lon="0.14977">
        <ele>548</ele>
        <time>2020-06-30T16:43:37Z</time>
      </trkpt>
      <trkpt lat="43.06548" lon="0.14976">
        <ele>548</ele>
        <time>2020-06-30T16:43:38Z</time>
      </trkpt>
      <trkpt lat="43.06547" lon="0.14975">
        <ele>548</ele>
        <time>2020-06-30T16:43:39Z</time>
      </trkpt>
      <trkpt lat="43.06549" lon="0.14975">
        <ele>548</ele>
        <time>2020-06-30T16:43:40Z</time>
      </trkpt>
      <trkpt lat="43.06549" lon="0.14974">
        <ele>548.2</ele>
        <time>2020-06-30T16:43:41Z</time>
      </trkpt>
      <trkpt lat="43.06549" lon="0.14974">
        <ele>548.2</ele>
        <time>2020-06-30T16:43:42Z</time>
      </trkpt>
      <trkpt lat="43.06549" lon="0.14974">
        <ele>548.2</ele>
        <time>2020-06-30T16:43:43Z</time>
      </trkpt>
      <trkpt lat="43.0655" lon="0.14973">
        <ele>548.2</ele>
        <time>2020-06-30T16:43:44Z</time>
      </trkpt>
      <trkpt lat="43.0655" lon="0.14971">
        <ele>548</ele>
        <time>2020-06-30T16:43:45Z</time>
      </trkpt>
      <trkpt lat="43.0655" lon="0.1497">
        <ele>548.2</ele>
        <time>2020-06-30T16:43:46Z</time>
      </trkpt>
      <trkpt lat="43.0655" lon="0.1497">
        <ele>548</ele>
        <time>2020-06-30T16:43:47Z</time>
      </trkpt>
      <trkpt lat="43.0655" lon="0.14968">
        <ele>548</ele>
        <time>2020-06-30T16:43:48Z</time>
      </trkpt>
      <trkpt lat="43.06551" lon="0.14968">
        <ele>548</ele>
        <time>2020-06-30T16:43:49Z</time>
      </trkpt>
      <trkpt lat="43.06552" lon="0.14967">
        <ele>548</ele>
        <time>2020-06-30T16:43:50Z</time>
      </trkpt>
      <trkpt lat="43.06553" lon="0.14965">
        <ele>548</ele>
        <time>2020-06-30T16:43:51Z</time>
      </trkpt>
      <trkpt lat="43.06554" lon="0.14963">
        <ele>547.8</ele>
        <time>2020-06-30T16:43:52Z</time>
      </trkpt>
      <trkpt lat="43.06555" lon="0.14963">
        <ele>547.8</ele>
        <time>2020-06-30T16:43:53Z</time>
      </trkpt>
      <trkpt lat="43.06556" lon="0.14962">
        <ele>547.8</ele>
        <time>2020-06-30T16:43:54Z</time>
      </trkpt>
      <trkpt lat="43.06558" lon="0.14961">
        <ele>547.8</ele>
        <time>2020-06-30T16:43:55Z</time>
      </trkpt>
      <trkpt lat="43.06559" lon="0.1496">
        <ele>547.6</ele>
        <time>2020-06-30T16:43:56Z</time>
      </trkpt>
      <trkpt lat="43.06559" lon="0.14959">
        <ele>547.6</ele>
        <time>2020-06-30T16:43:57Z</time>
      </trkpt>
      <trkpt lat="43.0656" lon="0.14957">
        <ele>547.6</ele>
        <time>2020-06-30T16:43:58Z</time>
      </trkpt>
      <trkpt lat="43.06562" lon="0.14957">
        <ele>547.8</ele>
        <time>2020-06-30T16:43:59Z</time>
      </trkpt>
      <trkpt lat="43.06563" lon="0.14956">
        <ele>547.8</ele>
        <time>2020-06-30T16:44:00Z</time>
      </trkpt>
      <trkpt lat="43.06564" lon="0.14954">
        <ele>547.6</ele>
        <time>2020-06-30T16:44:01Z</time>
      </trkpt>
      <trkpt lat="43.06565" lon="0.14953">
        <ele>547.6</ele>
        <time>2020-06-30T16:44:02Z</time>
      </trkpt>
      <trkpt lat="43.06567" lon="0.14953">
        <ele>547.6</ele>
        <time>2020-06-30T16:44:03Z</time>
      </trkpt>
      <trkpt lat="43.06568" lon="0.14952">
        <ele>547.6</ele>
        <time>2020-06-30T16:44:04Z</time>
      </trkpt>
      <trkpt lat="43.06571" lon="0.14951">
        <ele>547.4</ele>
        <time>2020-06-30T16:44:05Z</time>
      </trkpt>
      <trkpt lat="43.06572" lon="0.1495">
        <ele>547.4</ele>
        <time>2020-06-30T16:44:06Z</time>
      </trkpt>
      <trkpt lat="43.06573" lon="0.1495">
        <ele>547.2</ele>
        <time>2020-06-30T16:44:07Z</time>
      </trkpt>
      <trkpt lat="43.06575" lon="0.14949">
        <ele>547.2</ele>
        <time>2020-06-30T16:44:08Z</time>
      </trkpt>
      <trkpt lat="43.06576" lon="0.14949">
        <ele>547</ele>
        <time>2020-06-30T16:44:09Z</time>
      </trkpt>
      <trkpt lat="43.06578" lon="0.14949">
        <ele>547</ele>
        <time>2020-06-30T16:44:10Z</time>
      </trkpt>
      <trkpt lat="43.06578" lon="0.14948">
        <ele>547</ele>
        <time>2020-06-30T16:44:11Z</time>
      </trkpt>
      <trkpt lat="43.06578" lon="0.14947">
        <ele>546.8</ele>
        <time>2020-06-30T16:44:12Z</time>
      </trkpt>
      <trkpt lat="43.06579" lon="0.14945">
        <ele>546.8</ele>
        <time>2020-06-30T16:44:13Z</time>
      </trkpt>
      <trkpt lat="43.06579" lon="0.14944">
        <ele>546.8</ele>
        <time>2020-06-30T16:44:14Z</time>
      </trkpt>
      <trkpt lat="43.0658" lon="0.14944">
        <ele>546.8</ele>
        <time>2020-06-30T16:44:15Z</time>
      </trkpt>
      <trkpt lat="43.06583" lon="0.1494">
        <ele>547</ele>
        <time>2020-06-30T16:44:16Z</time>
      </trkpt>
      <trkpt lat="43.06581" lon="0.14944">
        <ele>547</ele>
        <time>2020-06-30T16:44:17Z</time>
      </trkpt>
      <trkpt lat="43.06584" lon="0.1494">
        <ele>547</ele>
        <time>2020-06-30T16:44:18Z</time>
      </trkpt>
      <trkpt lat="43.06583" lon="0.14944">
        <ele>547</ele>
        <time>2020-06-30T16:44:19Z</time>
      </trkpt>
      <trkpt lat="43.06586" lon="0.1494">
        <ele>547</ele>
        <time>2020-06-30T16:44:20Z</time>
      </trkpt>
      <trkpt lat="43.06586" lon="0.14941">
        <ele>546.8</ele>
        <time>2020-06-30T16:44:21Z</time>
      </trkpt>
      <trkpt lat="43.06586" lon="0.14941">
        <ele>546.8</ele>
        <time>2020-06-30T16:44:22Z</time>
      </trkpt>
      <trkpt lat="43.06585" lon="0.14943">
        <ele>546.8</ele>
        <time>2020-06-30T16:44:23Z</time>
      </trkpt>
      <trkpt lat="43.06586" lon="0.14943">
        <ele>546.8</ele>
        <time>2020-06-30T16:44:24Z</time>
      </trkpt>
      <trkpt lat="43.06586" lon="0.14944">
        <ele>546.8</ele>
        <time>2020-06-30T16:44:25Z</time>
      </trkpt>
      <trkpt lat="43.06585" lon="0.14944">
        <ele>547</ele>
        <time>2020-06-30T16:44:26Z</time>
      </trkpt>
      <trkpt lat="43.06584" lon="0.14944">
        <ele>546.8</ele>
        <time>2020-06-30T16:44:27Z</time>
      </trkpt>
      <trkpt lat="43.06583" lon="0.14948">
        <ele>546.8</ele>
        <time>2020-06-30T16:44:28Z</time>
      </trkpt>
      <trkpt lat="43.0658" lon="0.14955">
        <ele>546.8</ele>
        <time>2020-06-30T16:44:29Z</time>
      </trkpt>
      <trkpt lat="43.0658" lon="0.14953">
        <ele>546.8</ele>
        <time>2020-06-30T16:44:30Z</time>
      </trkpt>
      <trkpt lat="43.0658" lon="0.14949">
        <ele>546.8</ele>
        <time>2020-06-30T16:44:31Z</time>
      </trkpt>
      <trkpt lat="43.06579" lon="0.14949">
        <ele>546.8</ele>
        <time>2020-06-30T16:44:32Z</time>
      </trkpt>
      <trkpt lat="43.06579" lon="0.1495">
        <ele>547</ele>
        <time>2020-06-30T16:44:33Z</time>
      </trkpt>
      <trkpt lat="43.06579" lon="0.14954">
        <ele>546.8</ele>
        <time>2020-06-30T16:44:34Z</time>
      </trkpt>
      <trkpt lat="43.06579" lon="0.14955">
        <ele>546.8</ele>
        <time>2020-06-30T16:44:35Z</time>
      </trkpt>
      <trkpt lat="43.06578" lon="0.14955">
        <ele>546.8</ele>
        <time>2020-06-30T16:44:36Z</time>
      </trkpt>
      <trkpt lat="43.06577" lon="0.14955">
        <ele>546.8</ele>
        <time>2020-06-30T16:44:37Z</time>
      </trkpt>
      <trkpt lat="43.06577" lon="0.14958">
        <ele>547</ele>
        <time>2020-06-30T16:44:38Z</time>
      </trkpt>
      <trkpt lat="43.06576" lon="0.14959">
        <ele>547</ele>
        <time>2020-06-30T16:44:39Z</time>
      </trkpt>
      <trkpt lat="43.06576" lon="0.1496">
        <ele>547</ele>
        <time>2020-06-30T16:44:40Z</time>
      </trkpt>
      <trkpt lat="43.06577" lon="0.14962">
        <ele>547</ele>
        <time>2020-06-30T16:44:41Z</time>
      </trkpt>
      <trkpt lat="43.06577" lon="0.14964">
        <ele>547.2</ele>
        <time>2020-06-30T16:44:42Z</time>
      </trkpt>
      <trkpt lat="43.06577" lon="0.14966">
        <ele>547.2</ele>
        <time>2020-06-30T16:44:43Z</time>
      </trkpt>
      <trkpt lat="43.06578" lon="0.14968">
        <ele>547</ele>
        <time>2020-06-30T16:44:44Z</time>
      </trkpt>
      <trkpt lat="43.06579" lon="0.14969">
        <ele>547.2</ele>
        <time>2020-06-30T16:44:45Z</time>
      </trkpt>
      <trkpt lat="43.0658" lon="0.14971">
        <ele>547</ele>
        <time>2020-06-30T16:44:46Z</time>
      </trkpt>
      <trkpt lat="43.06581" lon="0.14973">
        <ele>547</ele>
        <time>2020-06-30T16:44:47Z</time>
      </trkpt>
      <trkpt lat="43.06581" lon="0.14974">
        <ele>547</ele>
        <time>2020-06-30T16:44:48Z</time>
      </trkpt>
      <trkpt lat="43.06582" lon="0.14974">
        <ele>547</ele>
        <time>2020-06-30T16:44:49Z</time>
      </trkpt>
      <trkpt lat="43.06583" lon="0.14976">
        <ele>547</ele>
        <time>2020-06-30T16:44:50Z</time>
      </trkpt>
      <trkpt lat="43.06583" lon="0.14979">
        <ele>546.4</ele>
        <time>2020-06-30T16:44:51Z</time>
      </trkpt>
      <trkpt lat="43.06584" lon="0.14979">
        <ele>546.6</ele>
        <time>2020-06-30T16:44:52Z</time>
      </trkpt>
      <trkpt lat="43.06584" lon="0.14982">
        <ele>546.6</ele>
        <time>2020-06-30T16:44:53Z</time>
      </trkpt>
      <trkpt lat="43.06584" lon="0.14985">
        <ele>547.6</ele>
        <time>2020-06-30T16:44:54Z</time>
      </trkpt>
      <trkpt lat="43.06583" lon="0.14988">
        <ele>547.4</ele>
        <time>2020-06-30T16:44:55Z</time>
      </trkpt>
      <trkpt lat="43.06581" lon="0.14992">
        <ele>547.4</ele>
        <time>2020-06-30T16:44:56Z</time>
      </trkpt>
      <trkpt lat="43.0658" lon="0.14993">
        <ele>547.4</ele>
        <time>2020-06-30T16:44:57Z</time>
      </trkpt>
      <trkpt lat="43.06578" lon="0.14995">
        <ele>547.4</ele>
        <time>2020-06-30T16:44:58Z</time>
      </trkpt>
      <trkpt lat="43.06577" lon="0.14997">
        <ele>547.4</ele>
        <time>2020-06-30T16:44:59Z</time>
      </trkpt>
      <trkpt lat="43.06574" lon="0.14997">
        <ele>547.6</ele>
        <time>2020-06-30T16:45:00Z</time>
      </trkpt>
      <trkpt lat="43.06572" lon="0.14998">
        <ele>547.6</ele>
        <time>2020-06-30T16:45:01Z</time>
      </trkpt>
      <trkpt lat="43.06571" lon="0.15001">
        <ele>547.6</ele>
        <time>2020-06-30T16:45:02Z</time>
      </trkpt>
      <trkpt lat="43.0657" lon="0.15001">
        <ele>547.6</ele>
        <time>2020-06-30T16:45:03Z</time>
      </trkpt>
      <trkpt lat="43.06567" lon="0.15003">
        <ele>547.6</ele>
        <time>2020-06-30T16:45:04Z</time>
      </trkpt>
      <trkpt lat="43.06565" lon="0.15004">
        <ele>547.6</ele>
        <time>2020-06-30T16:45:05Z</time>
      </trkpt>
      <trkpt lat="43.06564" lon="0.15005">
        <ele>547.8</ele>
        <time>2020-06-30T16:45:06Z</time>
      </trkpt>
      <trkpt lat="43.06562" lon="0.15006">
        <ele>547.8</ele>
        <time>2020-06-30T16:45:07Z</time>
      </trkpt>
      <trkpt lat="43.06561" lon="0.15006">
        <ele>547.8</ele>
        <time>2020-06-30T16:45:08Z</time>
      </trkpt>
      <trkpt lat="43.0656" lon="0.15006">
        <ele>547.8</ele>
        <time>2020-06-30T16:45:09Z</time>
      </trkpt>
      <trkpt lat="43.06559" lon="0.15003">
        <ele>547.8</ele>
        <time>2020-06-30T16:45:10Z</time>
      </trkpt>
      <trkpt lat="43.06557" lon="0.14999">
        <ele>547.8</ele>
        <time>2020-06-30T16:45:11Z</time>
      </trkpt>
      <trkpt lat="43.06555" lon="0.14996">
        <ele>547.8</ele>
        <time>2020-06-30T16:45:12Z</time>
      </trkpt>
      <trkpt lat="43.06555" lon="0.14994">
        <ele>547.8</ele>
        <time>2020-06-30T16:45:13Z</time>
      </trkpt>
      <trkpt lat="43.06555" lon="0.1499">
        <ele>548</ele>
        <time>2020-06-30T16:45:14Z</time>
      </trkpt>
      <trkpt lat="43.06554" lon="0.14987">
        <ele>548</ele>
        <time>2020-06-30T16:45:15Z</time>
      </trkpt>
      <trkpt lat="43.06555" lon="0.14984">
        <ele>548</ele>
        <time>2020-06-30T16:45:16Z</time>
      </trkpt>
      <trkpt lat="43.06555" lon="0.14983">
        <ele>548</ele>
        <time>2020-06-30T16:45:17Z</time>
      </trkpt>
      <trkpt lat="43.06553" lon="0.14981">
        <ele>548</ele>
        <time>2020-06-30T16:45:18Z</time>
      </trkpt>
      <trkpt lat="43.06555" lon="0.1498">
        <ele>548</ele>
        <time>2020-06-30T16:45:19Z</time>
      </trkpt>
      <trkpt lat="43.06558" lon="0.14978">
        <ele>548</ele>
        <time>2020-06-30T16:45:20Z</time>
      </trkpt>
      <trkpt lat="43.06559" lon="0.14979">
        <ele>548</ele>
        <time>2020-06-30T16:45:21Z</time>
      </trkpt>
      <trkpt lat="43.0656" lon="0.14976">
        <ele>547.8</ele>
        <time>2020-06-30T16:45:22Z</time>
      </trkpt>
      <trkpt lat="43.0656" lon="0.14975">
        <ele>547.8</ele>
        <time>2020-06-30T16:45:23Z</time>
      </trkpt>
      <trkpt lat="43.06562" lon="0.14973">
        <ele>547.8</ele>
        <time>2020-06-30T16:45:24Z</time>
      </trkpt>
      <trkpt lat="43.06564" lon="0.14971">
        <ele>547.6</ele>
        <time>2020-06-30T16:45:25Z</time>
      </trkpt>
      <trkpt lat="43.06565" lon="0.1497">
        <ele>547.6</ele>
        <time>2020-06-30T16:45:26Z</time>
      </trkpt>
      <trkpt lat="43.06567" lon="0.14969">
        <ele>547.6</ele>
        <time>2020-06-30T16:45:27Z</time>
      </trkpt>
      <trkpt lat="43.06569" lon="0.14968">
        <ele>547.6</ele>
        <time>2020-06-30T16:45:28Z</time>
      </trkpt>
      <trkpt lat="43.06571" lon="0.14968">
        <ele>547.4</ele>
        <time>2020-06-30T16:45:29Z</time>
      </trkpt>
      <trkpt lat="43.06573" lon="0.14966">
        <ele>547.2</ele>
        <time>2020-06-30T16:45:30Z</time>
      </trkpt>
      <trkpt lat="43.06576" lon="0.14964">
        <ele>547.2</ele>
        <time>2020-06-30T16:45:31Z</time>
      </trkpt>
      <trkpt lat="43.06577" lon="0.14964">
        <ele>547</ele>
        <time>2020-06-30T16:45:32Z</time>
      </trkpt>
      <trkpt lat="43.06579" lon="0.14963">
        <ele>547</ele>
        <time>2020-06-30T16:45:33Z</time>
      </trkpt>
      <trkpt lat="43.06579" lon="0.14962">
        <ele>547</ele>
        <time>2020-06-30T16:45:34Z</time>
      </trkpt>
      <trkpt lat="43.06579" lon="0.14962">
        <ele>547</ele>
        <time>2020-06-30T16:45:35Z</time>
      </trkpt>
      <trkpt lat="43.06578" lon="0.14961">
        <ele>547</ele>
        <time>2020-06-30T16:45:36Z</time>
      </trkpt>
      <trkpt lat="43.06578" lon="0.1496">
        <ele>547</ele>
        <time>2020-06-30T16:45:37Z</time>
      </trkpt>
      <trkpt lat="43.06578" lon="0.14958">
        <ele>547</ele>
        <time>2020-06-30T16:45:38Z</time>
      </trkpt>
      <trkpt lat="43.06579" lon="0.14957">
        <ele>547</ele>
        <time>2020-06-30T16:45:39Z</time>
      </trkpt>
      <trkpt lat="43.06579" lon="0.14955">
        <ele>547</ele>
        <time>2020-06-30T16:45:40Z</time>
      </trkpt>
      <trkpt lat="43.06579" lon="0.14954">
        <ele>547</ele>
        <time>2020-06-30T16:45:41Z</time>
      </trkpt>
      <trkpt lat="43.06579" lon="0.14953">
        <ele>547</ele>
        <time>2020-06-30T16:45:42Z</time>
      </trkpt>
      <trkpt lat="43.06579" lon="0.14951">
        <ele>547</ele>
        <time>2020-06-30T16:45:43Z</time>
      </trkpt>
      <trkpt lat="43.0658" lon="0.1495">
        <ele>546.8</ele>
        <time>2020-06-30T16:45:44Z</time>
      </trkpt>
      <trkpt lat="43.0658" lon="0.14949">
        <ele>546.8</ele>
        <time>2020-06-30T16:45:45Z</time>
      </trkpt>
      <trkpt lat="43.0658" lon="0.14948">
        <ele>546.8</ele>
        <time>2020-06-30T16:45:46Z</time>
      </trkpt>
      <trkpt lat="43.06579" lon="0.14948">
        <ele>546.8</ele>
        <time>2020-06-30T16:45:47Z</time>
      </trkpt>
      <trkpt lat="43.0658" lon="0.14948">
        <ele>546.8</ele>
        <time>2020-06-30T16:45:48Z</time>
      </trkpt>
      <trkpt lat="43.0658" lon="0.1495">
        <ele>546.6</ele>
        <time>2020-06-30T16:45:49Z</time>
      </trkpt>
      <trkpt lat="43.0658" lon="0.1495">
        <ele>547</ele>
        <time>2020-06-30T16:45:50Z</time>
      </trkpt>
      <trkpt lat="43.06581" lon="0.14949">
        <ele>546.8</ele>
        <time>2020-06-30T16:45:51Z</time>
      </trkpt>
      <trkpt lat="43.06581" lon="0.1495">
        <ele>546.8</ele>
        <time>2020-06-30T16:45:52Z</time>
      </trkpt>
      <trkpt lat="43.06581" lon="0.14951">
        <ele>546.8</ele>
        <time>2020-06-30T16:45:53Z</time>
      </trkpt>
      <trkpt lat="43.06581" lon="0.1495">
        <ele>546.8</ele>
        <time>2020-06-30T16:45:54Z</time>
      </trkpt>
      <trkpt lat="43.06581" lon="0.1495">
        <ele>546.8</ele>
        <time>2020-06-30T16:45:55Z</time>
      </trkpt>
      <trkpt lat="43.06574" lon="0.14951">
        <ele>546.8</ele>
        <time>2020-06-30T16:46:05Z</time>
      </trkpt>
      <trkpt lat="43.06573" lon="0.14951">
        <ele>546.8</ele>
        <time>2020-06-30T16:46:06Z</time>
      </trkpt>
      <trkpt lat="43.06571" lon="0.14952">
        <ele>546.8</ele>
        <time>2020-06-30T16:46:07Z</time>
      </trkpt>
      <trkpt lat="43.06571" lon="0.14952">
        <ele>546.8</ele>
        <time>2020-06-30T16:46:08Z</time>
      </trkpt>
      <trkpt lat="43.06572" lon="0.14952">
        <ele>546.8</ele>
        <time>2020-06-30T16:46:09Z</time>
      </trkpt>
      <trkpt lat="43.06572" lon="0.14954">
        <ele>546.8</ele>
        <time>2020-06-30T16:46:10Z</time>
      </trkpt>
      <trkpt lat="43.06572" lon="0.14954">
        <ele>546.8</ele>
        <time>2020-06-30T16:46:11Z</time>
      </trkpt>
      <trkpt lat="43.06573" lon="0.14956">
        <ele>546.8</ele>
        <time>2020-06-30T16:46:12Z</time>
      </trkpt>
      <trkpt lat="43.06573" lon="0.14955">
        <ele>546.8</ele>
        <time>2020-06-30T16:46:13Z</time>
      </trkpt>
      <trkpt lat="43.06573" lon="0.14955">
        <ele>546.8</ele>
        <time>2020-06-30T16:46:14Z</time>
      </trkpt>
      <trkpt lat="43.06574" lon="0.14958">
        <ele>546.8</ele>
        <time>2020-06-30T16:46:15Z</time>
      </trkpt>
      <trkpt lat="43.06575" lon="0.14959">
        <ele>546.8</ele>
        <time>2020-06-30T16:46:16Z</time>
      </trkpt>
      <trkpt lat="43.06575" lon="0.1496">
        <ele>546.8</ele>
        <time>2020-06-30T16:46:17Z</time>
      </trkpt>
      <trkpt lat="43.06577" lon="0.14949">
        <ele>546</ele>
        <time>2020-06-30T17:04:14Z</time>
      </trkpt>
      <trkpt lat="43.06581" lon="0.14947">
        <ele>546</ele>
        <time>2020-06-30T17:04:15Z</time>
      </trkpt>
      <trkpt lat="43.06578" lon="0.14949">
        <ele>546</ele>
        <time>2020-06-30T17:04:16Z</time>
      </trkpt>
      <trkpt lat="43.06577" lon="0.14952">
        <ele>546</ele>
        <time>2020-06-30T17:04:17Z</time>
      </trkpt>
      <trkpt lat="43.06578" lon="0.14954">
        <ele>546</ele>
        <time>2020-06-30T17:04:18Z</time>
      </trkpt>
      <trkpt lat="43.06579" lon="0.14954">
        <ele>546</ele>
        <time>2020-06-30T17:04:19Z</time>
      </trkpt>
      <trkpt lat="43.06577" lon="0.14953">
        <ele>546</ele>
        <time>2020-06-30T17:04:20Z</time>
      </trkpt>
      <trkpt lat="43.06572" lon="0.14941">
        <ele>545.4</ele>
        <time>2020-06-30T17:06:06Z</time>
      </trkpt>
      <trkpt lat="43.06572" lon="0.14938">
        <ele>545.4</ele>
        <time>2020-06-30T17:06:07Z</time>
      </trkpt>
      <trkpt lat="43.06571" lon="0.14937">
        <ele>545.4</ele>
        <time>2020-06-30T17:06:08Z</time>
      </trkpt>
      <trkpt lat="43.06573" lon="0.14935">
        <ele>545.4</ele>
        <time>2020-06-30T17:06:09Z</time>
      </trkpt>
      <trkpt lat="43.06575" lon="0.14935">
        <ele>545.4</ele>
        <time>2020-06-30T17:06:10Z</time>
      </trkpt>
      <trkpt lat="43.06578" lon="0.14936">
        <ele>545.2</ele>
        <time>2020-06-30T17:06:11Z</time>
      </trkpt>
      <trkpt lat="43.06578" lon="0.14935">
        <ele>543.8</ele>
        <time>2020-06-30T17:06:12Z</time>
      </trkpt>
      <trkpt lat="43.06578" lon="0.14935">
        <ele>543.8</ele>
        <time>2020-06-30T17:06:13Z</time>
      </trkpt>
      <trkpt lat="43.06579" lon="0.14935">
        <ele>545.6</ele>
        <time>2020-06-30T17:06:14Z</time>
      </trkpt>
      <trkpt lat="43.06579" lon="0.14936">
        <ele>545.4</ele>
        <time>2020-06-30T17:06:15Z</time>
      </trkpt>
      <trkpt lat="43.06578" lon="0.14935">
        <ele>545.4</ele>
        <time>2020-06-30T17:06:16Z</time>
      </trkpt>
      <trkpt lat="43.06579" lon="0.14936">
        <ele>545.4</ele>
        <time>2020-06-30T17:06:17Z</time>
      </trkpt>
      <trkpt lat="43.06579" lon="0.14937">
        <ele>545.4</ele>
        <time>2020-06-30T17:06:18Z</time>
      </trkpt>
      <trkpt lat="43.06578" lon="0.14938">
        <ele>545.4</ele>
        <time>2020-06-30T17:06:19Z</time>
      </trkpt>
      <trkpt lat="43.0658" lon="0.1494">
        <ele>545.2</ele>
        <time>2020-06-30T17:06:20Z</time>
      </trkpt>
      <trkpt lat="43.06582" lon="0.1494">
        <ele>545.2</ele>
        <time>2020-06-30T17:06:21Z</time>
      </trkpt>
      <trkpt lat="43.06584" lon="0.14938">
        <ele>545.2</ele>
        <time>2020-06-30T17:06:22Z</time>
      </trkpt>
      <trkpt lat="43.06587" lon="0.14938">
        <ele>545</ele>
        <time>2020-06-30T17:06:23Z</time>
      </trkpt>
      <trkpt lat="43.0659" lon="0.14938">
        <ele>545</ele>
        <time>2020-06-30T17:06:24Z</time>
      </trkpt>
      <trkpt lat="43.06594" lon="0.14936">
        <ele>544.8</ele>
        <time>2020-06-30T17:06:25Z</time>
      </trkpt>
      <trkpt lat="43.06597" lon="0.14934">
        <ele>544.8</ele>
        <time>2020-06-30T17:06:26Z</time>
      </trkpt>
      <trkpt lat="43.066" lon="0.14933">
        <ele>544.8</ele>
        <time>2020-06-30T17:06:27Z</time>
      </trkpt>
      <trkpt lat="43.06604" lon="0.14934">
        <ele>544.8</ele>
        <time>2020-06-30T17:06:28Z</time>
      </trkpt>
      <trkpt lat="43.06606" lon="0.14935">
        <ele>544.8</ele>
        <time>2020-06-30T17:06:29Z</time>
      </trkpt>
      <trkpt lat="43.06609" lon="0.14938">
        <ele>544.6</ele>
        <time>2020-06-30T17:06:30Z</time>
      </trkpt>
      <trkpt lat="43.06611" lon="0.14943">
        <ele>544.6</ele>
        <time>2020-06-30T17:06:31Z</time>
      </trkpt>
      <trkpt lat="43.06612" lon="0.14946">
        <ele>544.6</ele>
        <time>2020-06-30T17:06:32Z</time>
      </trkpt>
      <trkpt lat="43.06615" lon="0.1495">
        <ele>544.6</ele>
        <time>2020-06-30T17:06:33Z</time>
      </trkpt>
      <trkpt lat="43.06617" lon="0.14954">
        <ele>544.4</ele>
        <time>2020-06-30T17:06:34Z</time>
      </trkpt>
      <trkpt lat="43.06619" lon="0.14959">
        <ele>544.4</ele>
        <time>2020-06-30T17:06:35Z</time>
      </trkpt>
      <trkpt lat="43.06622" lon="0.14962">
        <ele>544.6</ele>
        <time>2020-06-30T17:06:36Z</time>
      </trkpt>
      <trkpt lat="43.06623" lon="0.14967">
        <ele>544.6</ele>
        <time>2020-06-30T17:06:37Z</time>
      </trkpt>
      <trkpt lat="43.06624" lon="0.14973">
        <ele>544.6</ele>
        <time>2020-06-30T17:06:38Z</time>
      </trkpt>
      <trkpt lat="43.06625" lon="0.14977">
        <ele>544.6</ele>
        <time>2020-06-30T17:06:39Z</time>
      </trkpt>
      <trkpt lat="43.06628" lon="0.14981">
        <ele>544.6</ele>
        <time>2020-06-30T17:06:40Z</time>
      </trkpt>
      <trkpt lat="43.0663" lon="0.14986">
        <ele>544.6</ele>
        <time>2020-06-30T17:06:41Z</time>
      </trkpt>
      <trkpt lat="43.0663" lon="0.1499">
        <ele>544.6</ele>
        <time>2020-06-30T17:06:42Z</time>
      </trkpt>
      <trkpt lat="43.06631" lon="0.14994">
        <ele>544.6</ele>
        <time>2020-06-30T17:06:43Z</time>
      </trkpt>
      <trkpt lat="43.06633" lon="0.15">
        <ele>544.6</ele>
        <time>2020-06-30T17:06:44Z</time>
      </trkpt>
      <trkpt lat="43.06637" lon="0.15005">
        <ele>544.6</ele>
        <time>2020-06-30T17:06:45Z</time>
      </trkpt>
      <trkpt lat="43.0664" lon="0.15008">
        <ele>544.6</ele>
        <time>2020-06-30T17:06:46Z</time>
      </trkpt>
      <trkpt lat="43.06641" lon="0.15014">
        <ele>544.6</ele>
        <time>2020-06-30T17:06:47Z</time>
      </trkpt>
      <trkpt lat="43.06643" lon="0.15017">
        <ele>544.6</ele>
        <time>2020-06-30T17:06:48Z</time>
      </trkpt>
      <trkpt lat="43.06642" lon="0.1502">
        <ele>544.6</ele>
        <time>2020-06-30T17:06:49Z</time>
      </trkpt>
      <trkpt lat="43.06639" lon="0.15023">
        <ele>544.6</ele>
        <time>2020-06-30T17:06:50Z</time>
      </trkpt>
      <trkpt lat="43.06639" lon="0.15026">
        <ele>544.6</ele>
        <time>2020-06-30T17:06:51Z</time>
      </trkpt>
      <trkpt lat="43.06638" lon="0.15027">
        <ele>544.6</ele>
        <time>2020-06-30T17:06:52Z</time>
      </trkpt>
      <trkpt lat="43.06636" lon="0.1503">
        <ele>544.6</ele>
        <time>2020-06-30T17:06:53Z</time>
      </trkpt>
      <trkpt lat="43.06637" lon="0.15034">
        <ele>544.4</ele>
        <time>2020-06-30T17:06:54Z</time>
      </trkpt>
      <trkpt lat="43.06637" lon="0.1504">
        <ele>544.2</ele>
        <time>2020-06-30T17:06:55Z</time>
      </trkpt>
      <trkpt lat="43.06637" lon="0.15044">
        <ele>544</ele>
        <time>2020-06-30T17:06:56Z</time>
      </trkpt>
      <trkpt lat="43.06637" lon="0.15051">
        <ele>543.8</ele>
        <time>2020-06-30T17:06:57Z</time>
      </trkpt>
      <trkpt lat="43.06638" lon="0.15058">
        <ele>543.4</ele>
        <time>2020-06-30T17:06:58Z</time>
      </trkpt>
      <trkpt lat="43.06638" lon="0.15065">
        <ele>543.4</ele>
        <time>2020-06-30T17:06:59Z</time>
      </trkpt>
      <trkpt lat="43.06639" lon="0.1507">
        <ele>543.2</ele>
        <time>2020-06-30T17:07:00Z</time>
      </trkpt>
      <trkpt lat="43.0664" lon="0.15077">
        <ele>543.2</ele>
        <time>2020-06-30T17:07:01Z</time>
      </trkpt>
      <trkpt lat="43.06641" lon="0.15084">
        <ele>543.2</ele>
        <time>2020-06-30T17:07:02Z</time>
      </trkpt>
      <trkpt lat="43.06641" lon="0.15093">
        <ele>543</ele>
        <time>2020-06-30T17:07:03Z</time>
      </trkpt>
      <trkpt lat="43.06642" lon="0.15099">
        <ele>543</ele>
        <time>2020-06-30T17:07:04Z</time>
      </trkpt>
      <trkpt lat="43.06644" lon="0.15106">
        <ele>543</ele>
        <time>2020-06-30T17:07:05Z</time>
      </trkpt>
      <trkpt lat="43.06644" lon="0.15111">
        <ele>543</ele>
        <time>2020-06-30T17:07:06Z</time>
      </trkpt>
      <trkpt lat="43.06645" lon="0.15117">
        <ele>543</ele>
        <time>2020-06-30T17:07:07Z</time>
      </trkpt>
      <trkpt lat="43.06646" lon="0.15123">
        <ele>543</ele>
        <time>2020-06-30T17:07:08Z</time>
      </trkpt>
      <trkpt lat="43.06647" lon="0.15129">
        <ele>543</ele>
        <time>2020-06-30T17:07:09Z</time>
      </trkpt>
      <trkpt lat="43.06649" lon="0.15135">
        <ele>542.8</ele>
        <time>2020-06-30T17:07:10Z</time>
      </trkpt>
      <trkpt lat="43.06649" lon="0.15141">
        <ele>542.8</ele>
        <time>2020-06-30T17:07:11Z</time>
      </trkpt>
      <trkpt lat="43.0665" lon="0.15146">
        <ele>543</ele>
        <time>2020-06-30T17:07:12Z</time>
      </trkpt>
      <trkpt lat="43.0665" lon="0.15152">
        <ele>543</ele>
        <time>2020-06-30T17:07:13Z</time>
      </trkpt>
      <trkpt lat="43.06649" lon="0.15157">
        <ele>543</ele>
        <time>2020-06-30T17:07:14Z</time>
      </trkpt>
      <trkpt lat="43.06651" lon="0.15163">
        <ele>543</ele>
        <time>2020-06-30T17:07:15Z</time>
      </trkpt>
      <trkpt lat="43.06652" lon="0.15169">
        <ele>543</ele>
        <time>2020-06-30T17:07:16Z</time>
      </trkpt>
      <trkpt lat="43.06651" lon="0.15174">
        <ele>543</ele>
        <time>2020-06-30T17:07:17Z</time>
      </trkpt>
      <trkpt lat="43.06651" lon="0.1518">
        <ele>543</ele>
        <time>2020-06-30T17:07:18Z</time>
      </trkpt>
      <trkpt lat="43.06651" lon="0.15184">
        <ele>543</ele>
        <time>2020-06-30T17:07:19Z</time>
      </trkpt>
      <trkpt lat="43.06651" lon="0.15189">
        <ele>542.8</ele>
        <time>2020-06-30T17:07:20Z</time>
      </trkpt>
      <trkpt lat="43.06651" lon="0.15193">
        <ele>543</ele>
        <time>2020-06-30T17:07:21Z</time>
      </trkpt>
      <trkpt lat="43.06648" lon="0.15197">
        <ele>543</ele>
        <time>2020-06-30T17:07:22Z</time>
      </trkpt>
      <trkpt lat="43.06648" lon="0.15201">
        <ele>543</ele>
        <time>2020-06-30T17:07:23Z</time>
      </trkpt>
      <trkpt lat="43.06645" lon="0.15205">
        <ele>543</ele>
        <time>2020-06-30T17:07:24Z</time>
      </trkpt>
      <trkpt lat="43.06643" lon="0.15207">
        <ele>543</ele>
        <time>2020-06-30T17:07:25Z</time>
      </trkpt>
      <trkpt lat="43.0664" lon="0.1521">
        <ele>543</ele>
        <time>2020-06-30T17:07:26Z</time>
      </trkpt>
      <trkpt lat="43.06637" lon="0.15213">
        <ele>543</ele>
        <time>2020-06-30T17:07:27Z</time>
      </trkpt>
      <trkpt lat="43.06634" lon="0.15215">
        <ele>543</ele>
        <time>2020-06-30T17:07:28Z</time>
      </trkpt>
      <trkpt lat="43.0663" lon="0.15219">
        <ele>543</ele>
        <time>2020-06-30T17:07:29Z</time>
      </trkpt>
      <trkpt lat="43.06628" lon="0.15219">
        <ele>542.8</ele>
        <time>2020-06-30T17:07:30Z</time>
      </trkpt>
      <trkpt lat="43.06625" lon="0.1522">
        <ele>542.8</ele>
        <time>2020-06-30T17:07:31Z</time>
      </trkpt>
      <trkpt lat="43.06624" lon="0.1522">
        <ele>542.8</ele>
        <time>2020-06-30T17:07:32Z</time>
      </trkpt>
      <trkpt lat="43.06623" lon="0.15222">
        <ele>542.8</ele>
        <time>2020-06-30T17:07:33Z</time>
      </trkpt>
      <trkpt lat="43.06622" lon="0.15222">
        <ele>542.8</ele>
        <time>2020-06-30T17:07:34Z</time>
      </trkpt>
      <trkpt lat="43.06621" lon="0.15222">
        <ele>542.8</ele>
        <time>2020-06-30T17:07:35Z</time>
      </trkpt>
      <trkpt lat="43.0662" lon="0.15223">
        <ele>542.8</ele>
        <time>2020-06-30T17:07:36Z</time>
      </trkpt>
      <trkpt lat="43.06618" lon="0.15226">
        <ele>542.8</ele>
        <time>2020-06-30T17:07:37Z</time>
      </trkpt>
      <trkpt lat="43.06616" lon="0.15228">
        <ele>542.8</ele>
        <time>2020-06-30T17:07:38Z</time>
      </trkpt>
      <trkpt lat="43.06614" lon="0.15229">
        <ele>542.8</ele>
        <time>2020-06-30T17:07:39Z</time>
      </trkpt>
      <trkpt lat="43.06612" lon="0.1523">
        <ele>543</ele>
        <time>2020-06-30T17:07:40Z</time>
      </trkpt>
      <trkpt lat="43.0661" lon="0.15229">
        <ele>543.2</ele>
        <time>2020-06-30T17:07:41Z</time>
      </trkpt>
      <trkpt lat="43.06608" lon="0.1523">
        <ele>543.4</ele>
        <time>2020-06-30T17:07:42Z</time>
      </trkpt>
      <trkpt lat="43.06607" lon="0.15231">
        <ele>543.6</ele>
        <time>2020-06-30T17:07:43Z</time>
      </trkpt>
      <trkpt lat="43.06606" lon="0.15232">
        <ele>543.8</ele>
        <time>2020-06-30T17:07:44Z</time>
      </trkpt>
      <trkpt lat="43.06605" lon="0.15232">
        <ele>543.8</ele>
        <time>2020-06-30T17:07:45Z</time>
      </trkpt>
      <trkpt lat="43.06603" lon="0.15235">
        <ele>544</ele>
        <time>2020-06-30T17:07:46Z</time>
      </trkpt>
      <trkpt lat="43.06602" lon="0.15236">
        <ele>544</ele>
        <time>2020-06-30T17:07:47Z</time>
      </trkpt>
      <trkpt lat="43.06601" lon="0.15237">
        <ele>544</ele>
        <time>2020-06-30T17:07:48Z</time>
      </trkpt>
      <trkpt lat="43.066" lon="0.15237">
        <ele>544</ele>
        <time>2020-06-30T17:07:49Z</time>
      </trkpt>
      <trkpt lat="43.066" lon="0.15236">
        <ele>544</ele>
        <time>2020-06-30T17:07:50Z</time>
      </trkpt>
      <trkpt lat="43.066" lon="0.15236">
        <ele>544</ele>
        <time>2020-06-30T17:07:51Z</time>
      </trkpt>
      <trkpt lat="43.066" lon="0.15236">
        <ele>544</ele>
        <time>2020-06-30T17:07:52Z</time>
      </trkpt>
      <trkpt lat="43.066" lon="0.15236">
        <ele>544</ele>
        <time>2020-06-30T17:07:53Z</time>
      </trkpt>
      <trkpt lat="43.066" lon="0.15236">
        <ele>544</ele>
        <time>2020-06-30T17:07:54Z</time>
      </trkpt>
      <trkpt lat="43.06599" lon="0.15236">
        <ele>544</ele>
        <time>2020-06-30T17:07:55Z</time>
      </trkpt>
      <trkpt lat="43.06597" lon="0.1525">
        <ele>544.4</ele>
        <time>2020-06-30T17:08:21Z</time>
      </trkpt>
      <trkpt lat="43.06597" lon="0.15252">
        <ele>544.4</ele>
        <time>2020-06-30T17:08:22Z</time>
      </trkpt>
      <trkpt lat="43.06599" lon="0.15256">
        <ele>544.4</ele>
        <time>2020-06-30T17:08:23Z</time>
      </trkpt>
      <trkpt lat="43.06601" lon="0.15259">
        <ele>544.6</ele>
        <time>2020-06-30T17:08:24Z</time>
      </trkpt>
      <trkpt lat="43.06603" lon="0.15263">
        <ele>544.4</ele>
        <time>2020-06-30T17:08:25Z</time>
      </trkpt>
      <trkpt lat="43.06605" lon="0.15266">
        <ele>544.4</ele>
        <time>2020-06-30T17:08:26Z</time>
      </trkpt>
      <trkpt lat="43.06607" lon="0.15268">
        <ele>544.4</ele>
        <time>2020-06-30T17:08:27Z</time>
      </trkpt>
      <trkpt lat="43.0661" lon="0.15272">
        <ele>544.6</ele>
        <time>2020-06-30T17:08:28Z</time>
      </trkpt>
      <trkpt lat="43.06613" lon="0.15276">
        <ele>544.6</ele>
        <time>2020-06-30T17:08:29Z</time>
      </trkpt>
      <trkpt lat="43.06616" lon="0.1528">
        <ele>544.6</ele>
        <time>2020-06-30T17:08:30Z</time>
      </trkpt>
      <trkpt lat="43.06618" lon="0.15283">
        <ele>544.6</ele>
        <time>2020-06-30T17:08:31Z</time>
      </trkpt>
      <trkpt lat="43.06622" lon="0.15285">
        <ele>544.6</ele>
        <time>2020-06-30T17:08:32Z</time>
      </trkpt>
      <trkpt lat="43.06625" lon="0.15289">
        <ele>544.6</ele>
        <time>2020-06-30T17:08:33Z</time>
      </trkpt>
      <trkpt lat="43.06628" lon="0.15292">
        <ele>544.6</ele>
        <time>2020-06-30T17:08:34Z</time>
      </trkpt>
      <trkpt lat="43.06631" lon="0.15294">
        <ele>544.6</ele>
        <time>2020-06-30T17:08:35Z</time>
      </trkpt>
      <trkpt lat="43.06635" lon="0.15298">
        <ele>544.4</ele>
        <time>2020-06-30T17:08:36Z</time>
      </trkpt>
      <trkpt lat="43.06638" lon="0.15301">
        <ele>544.4</ele>
        <time>2020-06-30T17:08:37Z</time>
      </trkpt>
      <trkpt lat="43.06641" lon="0.15304">
        <ele>544.4</ele>
        <time>2020-06-30T17:08:38Z</time>
      </trkpt>
      <trkpt lat="43.06645" lon="0.15306">
        <ele>544.2</ele>
        <time>2020-06-30T17:08:39Z</time>
      </trkpt>
      <trkpt lat="43.06649" lon="0.15309">
        <ele>544.2</ele>
        <time>2020-06-30T17:08:40Z</time>
      </trkpt>
      <trkpt lat="43.06655" lon="0.15312">
        <ele>544.2</ele>
        <time>2020-06-30T17:08:41Z</time>
      </trkpt>
      <trkpt lat="43.06658" lon="0.15315">
        <ele>544</ele>
        <time>2020-06-30T17:08:42Z</time>
      </trkpt>
      <trkpt lat="43.06661" lon="0.15319">
        <ele>544</ele>
        <time>2020-06-30T17:08:43Z</time>
      </trkpt>
      <trkpt lat="43.06664" lon="0.15322">
        <ele>543.8</ele>
        <time>2020-06-30T17:08:44Z</time>
      </trkpt>
      <trkpt lat="43.06669" lon="0.15325">
        <ele>543.8</ele>
        <time>2020-06-30T17:08:45Z</time>
      </trkpt>
      <trkpt lat="43.06673" lon="0.15329">
        <ele>543.8</ele>
        <time>2020-06-30T17:08:46Z</time>
      </trkpt>
      <trkpt lat="43.06677" lon="0.15332">
        <ele>543.6</ele>
        <time>2020-06-30T17:08:47Z</time>
      </trkpt>
      <trkpt lat="43.06682" lon="0.15335">
        <ele>543.6</ele>
        <time>2020-06-30T17:08:48Z</time>
      </trkpt>
      <trkpt lat="43.06687" lon="0.15339">
        <ele>543.6</ele>
        <time>2020-06-30T17:08:49Z</time>
      </trkpt>
      <trkpt lat="43.06691" lon="0.15342">
        <ele>543.6</ele>
        <time>2020-06-30T17:08:50Z</time>
      </trkpt>
      <trkpt lat="43.06695" lon="0.15346">
        <ele>543.6</ele>
        <time>2020-06-30T17:08:51Z</time>
      </trkpt>
      <trkpt lat="43.06699" lon="0.15349">
        <ele>543.6</ele>
        <time>2020-06-30T17:08:52Z</time>
      </trkpt>
      <trkpt lat="43.06702" lon="0.15352">
        <ele>543.6</ele>
        <time>2020-06-30T17:08:53Z</time>
      </trkpt>
      <trkpt lat="43.06705" lon="0.15356">
        <ele>543.6</ele>
        <time>2020-06-30T17:08:54Z</time>
      </trkpt>
      <trkpt lat="43.06709" lon="0.1536">
        <ele>543.6</ele>
        <time>2020-06-30T17:08:55Z</time>
      </trkpt>
      <trkpt lat="43.06712" lon="0.15365">
        <ele>543.4</ele>
        <time>2020-06-30T17:08:56Z</time>
      </trkpt>
      <trkpt lat="43.06715" lon="0.15369">
        <ele>543.4</ele>
        <time>2020-06-30T17:08:57Z</time>
      </trkpt>
      <trkpt lat="43.06718" lon="0.15372">
        <ele>543.4</ele>
        <time>2020-06-30T17:08:58Z</time>
      </trkpt>
      <trkpt lat="43.06722" lon="0.15377">
        <ele>543.4</ele>
        <time>2020-06-30T17:08:59Z</time>
      </trkpt>
      <trkpt lat="43.06725" lon="0.15382">
        <ele>543.4</ele>
        <time>2020-06-30T17:09:00Z</time>
      </trkpt>
      <trkpt lat="43.06727" lon="0.15386">
        <ele>543.4</ele>
        <time>2020-06-30T17:09:01Z</time>
      </trkpt>
      <trkpt lat="43.06731" lon="0.15389">
        <ele>543.4</ele>
        <time>2020-06-30T17:09:02Z</time>
      </trkpt>
      <trkpt lat="43.06735" lon="0.15393">
        <ele>543.4</ele>
        <time>2020-06-30T17:09:03Z</time>
      </trkpt>
      <trkpt lat="43.06738" lon="0.15396">
        <ele>543.2</ele>
        <time>2020-06-30T17:09:04Z</time>
      </trkpt>
      <trkpt lat="43.06742" lon="0.15399">
        <ele>543.2</ele>
        <time>2020-06-30T17:09:05Z</time>
      </trkpt>
      <trkpt lat="43.06746" lon="0.15402">
        <ele>543</ele>
        <time>2020-06-30T17:09:06Z</time>
      </trkpt>
      <trkpt lat="43.06753" lon="0.15404">
        <ele>543</ele>
        <time>2020-06-30T17:09:07Z</time>
      </trkpt>
      <trkpt lat="43.06757" lon="0.15405">
        <ele>543</ele>
        <time>2020-06-30T17:09:08Z</time>
      </trkpt>
      <trkpt lat="43.06761" lon="0.15408">
        <ele>543</ele>
        <time>2020-06-30T17:09:09Z</time>
      </trkpt>
      <trkpt lat="43.06765" lon="0.15412">
        <ele>543</ele>
        <time>2020-06-30T17:09:10Z</time>
      </trkpt>
      <trkpt lat="43.06768" lon="0.15415">
        <ele>543</ele>
        <time>2020-06-30T17:09:11Z</time>
      </trkpt>
      <trkpt lat="43.06772" lon="0.1542">
        <ele>543</ele>
        <time>2020-06-30T17:09:12Z</time>
      </trkpt>
      <trkpt lat="43.06776" lon="0.15424">
        <ele>543</ele>
        <time>2020-06-30T17:09:13Z</time>
      </trkpt>
      <trkpt lat="43.06779" lon="0.15427">
        <ele>543</ele>
        <time>2020-06-30T17:09:14Z</time>
      </trkpt>
      <trkpt lat="43.06782" lon="0.1543">
        <ele>543</ele>
        <time>2020-06-30T17:09:15Z</time>
      </trkpt>
      <trkpt lat="43.06785" lon="0.15434">
        <ele>542.8</ele>
        <time>2020-06-30T17:09:16Z</time>
      </trkpt>
      <trkpt lat="43.06787" lon="0.15439">
        <ele>542.8</ele>
        <time>2020-06-30T17:09:17Z</time>
      </trkpt>
      <trkpt lat="43.0679" lon="0.15443">
        <ele>542.8</ele>
        <time>2020-06-30T17:09:18Z</time>
      </trkpt>
      <trkpt lat="43.06793" lon="0.15446">
        <ele>542.8</ele>
        <time>2020-06-30T17:09:19Z</time>
      </trkpt>
      <trkpt lat="43.06797" lon="0.1545">
        <ele>542.6</ele>
        <time>2020-06-30T17:09:20Z</time>
      </trkpt>
      <trkpt lat="43.06801" lon="0.15454">
        <ele>542.6</ele>
        <time>2020-06-30T17:09:21Z</time>
      </trkpt>
      <trkpt lat="43.06805" lon="0.15457">
        <ele>542.6</ele>
        <time>2020-06-30T17:09:22Z</time>
      </trkpt>
      <trkpt lat="43.06809" lon="0.1546">
        <ele>542.6</ele>
        <time>2020-06-30T17:09:23Z</time>
      </trkpt>
      <trkpt lat="43.06813" lon="0.15463">
        <ele>542.4</ele>
        <time>2020-06-30T17:09:24Z</time>
      </trkpt>
      <trkpt lat="43.06816" lon="0.15467">
        <ele>542.4</ele>
        <time>2020-06-30T17:09:25Z</time>
      </trkpt>
      <trkpt lat="43.06819" lon="0.15471">
        <ele>542.4</ele>
        <time>2020-06-30T17:09:26Z</time>
      </trkpt>
      <trkpt lat="43.06822" lon="0.15474">
        <ele>542.4</ele>
        <time>2020-06-30T17:09:27Z</time>
      </trkpt>
      <trkpt lat="43.06825" lon="0.15476">
        <ele>542.2</ele>
        <time>2020-06-30T17:09:28Z</time>
      </trkpt>
      <trkpt lat="43.06828" lon="0.1548">
        <ele>542.2</ele>
        <time>2020-06-30T17:09:29Z</time>
      </trkpt>
      <trkpt lat="43.06833" lon="0.15485">
        <ele>542.2</ele>
        <time>2020-06-30T17:09:30Z</time>
      </trkpt>
      <trkpt lat="43.06836" lon="0.15489">
        <ele>542</ele>
        <time>2020-06-30T17:09:31Z</time>
      </trkpt>
      <trkpt lat="43.0684" lon="0.15492">
        <ele>542</ele>
        <time>2020-06-30T17:09:32Z</time>
      </trkpt>
      <trkpt lat="43.06844" lon="0.15496">
        <ele>542</ele>
        <time>2020-06-30T17:09:33Z</time>
      </trkpt>
      <trkpt lat="43.06847" lon="0.15499">
        <ele>542</ele>
        <time>2020-06-30T17:09:34Z</time>
      </trkpt>
      <trkpt lat="43.06851" lon="0.15502">
        <ele>541.8</ele>
        <time>2020-06-30T17:09:35Z</time>
      </trkpt>
      <trkpt lat="43.06855" lon="0.15506">
        <ele>541.8</ele>
        <time>2020-06-30T17:09:36Z</time>
      </trkpt>
      <trkpt lat="43.06859" lon="0.15509">
        <ele>541.8</ele>
        <time>2020-06-30T17:09:37Z</time>
      </trkpt>
      <trkpt lat="43.06863" lon="0.15512">
        <ele>541.6</ele>
        <time>2020-06-30T17:09:38Z</time>
      </trkpt>
      <trkpt lat="43.06867" lon="0.15516">
        <ele>541.6</ele>
        <time>2020-06-30T17:09:39Z</time>
      </trkpt>
      <trkpt lat="43.06871" lon="0.1552">
        <ele>541.4</ele>
        <time>2020-06-30T17:09:40Z</time>
      </trkpt>
      <trkpt lat="43.06876" lon="0.15523">
        <ele>541.4</ele>
        <time>2020-06-30T17:09:41Z</time>
      </trkpt>
      <trkpt lat="43.0688" lon="0.15528">
        <ele>541.4</ele>
        <time>2020-06-30T17:09:42Z</time>
      </trkpt>
      <trkpt lat="43.06885" lon="0.15532">
        <ele>541.2</ele>
        <time>2020-06-30T17:09:43Z</time>
      </trkpt>
      <trkpt lat="43.06889" lon="0.15536">
        <ele>541.2</ele>
        <time>2020-06-30T17:09:44Z</time>
      </trkpt>
      <trkpt lat="43.06893" lon="0.15541">
        <ele>541</ele>
        <time>2020-06-30T17:09:45Z</time>
      </trkpt>
      <trkpt lat="43.06897" lon="0.15545">
        <ele>540.8</ele>
        <time>2020-06-30T17:09:46Z</time>
      </trkpt>
      <trkpt lat="43.06903" lon="0.1555">
        <ele>540.8</ele>
        <time>2020-06-30T17:09:47Z</time>
      </trkpt>
      <trkpt lat="43.06907" lon="0.15554">
        <ele>540.6</ele>
        <time>2020-06-30T17:09:48Z</time>
      </trkpt>
      <trkpt lat="43.06911" lon="0.15558">
        <ele>540.6</ele>
        <time>2020-06-30T17:09:49Z</time>
      </trkpt>
      <trkpt lat="43.06916" lon="0.15563">
        <ele>540.6</ele>
        <time>2020-06-30T17:09:50Z</time>
      </trkpt>
      <trkpt lat="43.06919" lon="0.15567">
        <ele>540.4</ele>
        <time>2020-06-30T17:09:51Z</time>
      </trkpt>
      <trkpt lat="43.06924" lon="0.15571">
        <ele>540.2</ele>
        <time>2020-06-30T17:09:52Z</time>
      </trkpt>
      <trkpt lat="43.06928" lon="0.15575">
        <ele>540.2</ele>
        <time>2020-06-30T17:09:53Z</time>
      </trkpt>
      <trkpt lat="43.06932" lon="0.15579">
        <ele>540.2</ele>
        <time>2020-06-30T17:09:54Z</time>
      </trkpt>
      <trkpt lat="43.06937" lon="0.15585">
        <ele>540.2</ele>
        <time>2020-06-30T17:09:55Z</time>
      </trkpt>
      <trkpt lat="43.06941" lon="0.1559">
        <ele>540.2</ele>
        <time>2020-06-30T17:09:56Z</time>
      </trkpt>
      <trkpt lat="43.06947" lon="0.15594">
        <ele>540</ele>
        <time>2020-06-30T17:09:57Z</time>
      </trkpt>
      <trkpt lat="43.0695" lon="0.15599">
        <ele>540</ele>
        <time>2020-06-30T17:09:58Z</time>
      </trkpt>
      <trkpt lat="43.06955" lon="0.15603">
        <ele>540</ele>
        <time>2020-06-30T17:09:59Z</time>
      </trkpt>
      <trkpt lat="43.06959" lon="0.15607">
        <ele>539.8</ele>
        <time>2020-06-30T17:10:00Z</time>
      </trkpt>
      <trkpt lat="43.06964" lon="0.1561">
        <ele>539.8</ele>
        <time>2020-06-30T17:10:01Z</time>
      </trkpt>
      <trkpt lat="43.06967" lon="0.15614">
        <ele>539.8</ele>
        <time>2020-06-30T17:10:02Z</time>
      </trkpt>
      <trkpt lat="43.06972" lon="0.15619">
        <ele>539.8</ele>
        <time>2020-06-30T17:10:03Z</time>
      </trkpt>
      <trkpt lat="43.06976" lon="0.15623">
        <ele>539.8</ele>
        <time>2020-06-30T17:10:04Z</time>
      </trkpt>
      <trkpt lat="43.06979" lon="0.15627">
        <ele>539.8</ele>
        <time>2020-06-30T17:10:05Z</time>
      </trkpt>
      <trkpt lat="43.06984" lon="0.1563">
        <ele>539.8</ele>
        <time>2020-06-30T17:10:06Z</time>
      </trkpt>
      <trkpt lat="43.06988" lon="0.15634">
        <ele>539.8</ele>
        <time>2020-06-30T17:10:07Z</time>
      </trkpt>
      <trkpt lat="43.06992" lon="0.15637">
        <ele>539.8</ele>
        <time>2020-06-30T17:10:08Z</time>
      </trkpt>
      <trkpt lat="43.06995" lon="0.15641">
        <ele>539.8</ele>
        <time>2020-06-30T17:10:09Z</time>
      </trkpt>
      <trkpt lat="43.06997" lon="0.15644">
        <ele>539.8</ele>
        <time>2020-06-30T17:10:10Z</time>
      </trkpt>
      <trkpt lat="43.06999" lon="0.15649">
        <ele>540</ele>
        <time>2020-06-30T17:10:11Z</time>
      </trkpt>
      <trkpt lat="43.07002" lon="0.15653">
        <ele>540</ele>
        <time>2020-06-30T17:10:12Z</time>
      </trkpt>
      <trkpt lat="43.07004" lon="0.15656">
        <ele>540</ele>
        <time>2020-06-30T17:10:13Z</time>
      </trkpt>
      <trkpt lat="43.07005" lon="0.15662">
        <ele>540</ele>
        <time>2020-06-30T17:10:14Z</time>
      </trkpt>
      <trkpt lat="43.07007" lon="0.15665">
        <ele>540</ele>
        <time>2020-06-30T17:10:15Z</time>
      </trkpt>
      <trkpt lat="43.0701" lon="0.15667">
        <ele>540</ele>
        <time>2020-06-30T17:10:16Z</time>
      </trkpt>
      <trkpt lat="43.07013" lon="0.15667">
        <ele>540</ele>
        <time>2020-06-30T17:10:17Z</time>
      </trkpt>
      <trkpt lat="43.07016" lon="0.15666">
        <ele>540</ele>
        <time>2020-06-30T17:10:18Z</time>
      </trkpt>
      <trkpt lat="43.07018" lon="0.15664">
        <ele>540</ele>
        <time>2020-06-30T17:10:19Z</time>
      </trkpt>
      <trkpt lat="43.0702" lon="0.15661">
        <ele>539.8</ele>
        <time>2020-06-30T17:10:20Z</time>
      </trkpt>
      <trkpt lat="43.07022" lon="0.15657">
        <ele>539.6</ele>
        <time>2020-06-30T17:10:21Z</time>
      </trkpt>
      <trkpt lat="43.07024" lon="0.15653">
        <ele>539.4</ele>
        <time>2020-06-30T17:10:22Z</time>
      </trkpt>
      <trkpt lat="43.07027" lon="0.15651">
        <ele>539.2</ele>
        <time>2020-06-30T17:10:23Z</time>
      </trkpt>
      <trkpt lat="43.07031" lon="0.1565">
        <ele>539</ele>
        <time>2020-06-30T17:10:24Z</time>
      </trkpt>
      <trkpt lat="43.07034" lon="0.15648">
        <ele>538.8</ele>
        <time>2020-06-30T17:10:25Z</time>
      </trkpt>
      <trkpt lat="43.07036" lon="0.15647">
        <ele>538.8</ele>
        <time>2020-06-30T17:10:26Z</time>
      </trkpt>
      <trkpt lat="43.07039" lon="0.15646">
        <ele>538.6</ele>
        <time>2020-06-30T17:10:27Z</time>
      </trkpt>
      <trkpt lat="43.07042" lon="0.15645">
        <ele>538.4</ele>
        <time>2020-06-30T17:10:28Z</time>
      </trkpt>
      <trkpt lat="43.07046" lon="0.15644">
        <ele>538.4</ele>
        <time>2020-06-30T17:10:29Z</time>
      </trkpt>
      <trkpt lat="43.07051" lon="0.15641">
        <ele>538.2</ele>
        <time>2020-06-30T17:10:30Z</time>
      </trkpt>
      <trkpt lat="43.07056" lon="0.1564">
        <ele>538.2</ele>
        <time>2020-06-30T17:10:31Z</time>
      </trkpt>
      <trkpt lat="43.07061" lon="0.15639">
        <ele>538.2</ele>
        <time>2020-06-30T17:10:32Z</time>
      </trkpt>
      <trkpt lat="43.07066" lon="0.15637">
        <ele>538</ele>
        <time>2020-06-30T17:10:33Z</time>
      </trkpt>
      <trkpt lat="43.07071" lon="0.15636">
        <ele>538</ele>
        <time>2020-06-30T17:10:34Z</time>
      </trkpt>
      <trkpt lat="43.07076" lon="0.15634">
        <ele>537.8</ele>
        <time>2020-06-30T17:10:35Z</time>
      </trkpt>
      <trkpt lat="43.07081" lon="0.15633">
        <ele>537.8</ele>
        <time>2020-06-30T17:10:36Z</time>
      </trkpt>
      <trkpt lat="43.07086" lon="0.15631">
        <ele>537.8</ele>
        <time>2020-06-30T17:10:37Z</time>
      </trkpt>
      <trkpt lat="43.07091" lon="0.15629">
        <ele>537.6</ele>
        <time>2020-06-30T17:10:38Z</time>
      </trkpt>
      <trkpt lat="43.07094" lon="0.15627">
        <ele>537.6</ele>
        <time>2020-06-30T17:10:39Z</time>
      </trkpt>
      <trkpt lat="43.07098" lon="0.15625">
        <ele>537.4</ele>
        <time>2020-06-30T17:10:40Z</time>
      </trkpt>
      <trkpt lat="43.07102" lon="0.15624">
        <ele>537.4</ele>
        <time>2020-06-30T17:10:41Z</time>
      </trkpt>
      <trkpt lat="43.07106" lon="0.15623">
        <ele>537.4</ele>
        <time>2020-06-30T17:10:42Z</time>
      </trkpt>
      <trkpt lat="43.0711" lon="0.15622">
        <ele>537.2</ele>
        <time>2020-06-30T17:10:43Z</time>
      </trkpt>
      <trkpt lat="43.07113" lon="0.15622">
        <ele>537.2</ele>
        <time>2020-06-30T17:10:44Z</time>
      </trkpt>
      <trkpt lat="43.07115" lon="0.15622">
        <ele>537.2</ele>
        <time>2020-06-30T17:10:45Z</time>
      </trkpt>
      <trkpt lat="43.07118" lon="0.15623">
        <ele>537.2</ele>
        <time>2020-06-30T17:10:46Z</time>
      </trkpt>
      <trkpt lat="43.07119" lon="0.15624">
        <ele>537.4</ele>
        <time>2020-06-30T17:10:47Z</time>
      </trkpt>
      <trkpt lat="43.07118" lon="0.15626">
        <ele>537.4</ele>
        <time>2020-06-30T17:10:48Z</time>
      </trkpt>
      <trkpt lat="43.0712" lon="0.15628">
        <ele>537.4</ele>
        <time>2020-06-30T17:10:49Z</time>
      </trkpt>
      <trkpt lat="43.07121" lon="0.15629">
        <ele>537.4</ele>
        <time>2020-06-30T17:10:50Z</time>
      </trkpt>
      <trkpt lat="43.07122" lon="0.15631">
        <ele>537.6</ele>
        <time>2020-06-30T17:10:51Z</time>
      </trkpt>
      <trkpt lat="43.07124" lon="0.15632">
        <ele>537.6</ele>
        <time>2020-06-30T17:10:52Z</time>
      </trkpt>
      <trkpt lat="43.07125" lon="0.15633">
        <ele>537.6</ele>
        <time>2020-06-30T17:10:53Z</time>
      </trkpt>
      <trkpt lat="43.07125" lon="0.15634">
        <ele>537.8</ele>
        <time>2020-06-30T17:10:54Z</time>
      </trkpt>
      <trkpt lat="43.07126" lon="0.15637">
        <ele>537.8</ele>
        <time>2020-06-30T17:10:55Z</time>
      </trkpt>
      <trkpt lat="43.07127" lon="0.15639">
        <ele>537.8</ele>
        <time>2020-06-30T17:10:56Z</time>
      </trkpt>
      <trkpt lat="43.07129" lon="0.15641">
        <ele>537.8</ele>
        <time>2020-06-30T17:10:57Z</time>
      </trkpt>
      <trkpt lat="43.07131" lon="0.15644">
        <ele>538</ele>
        <time>2020-06-30T17:10:58Z</time>
      </trkpt>
      <trkpt lat="43.07132" lon="0.15646">
        <ele>538</ele>
        <time>2020-06-30T17:10:59Z</time>
      </trkpt>
      <trkpt lat="43.07133" lon="0.15647">
        <ele>538</ele>
        <time>2020-06-30T17:11:00Z</time>
      </trkpt>
      <trkpt lat="43.07134" lon="0.1565">
        <ele>538.2</ele>
        <time>2020-06-30T17:11:01Z</time>
      </trkpt>
      <trkpt lat="43.07136" lon="0.15653">
        <ele>538.2</ele>
        <time>2020-06-30T17:11:02Z</time>
      </trkpt>
      <trkpt lat="43.07137" lon="0.15655">
        <ele>538.2</ele>
        <time>2020-06-30T17:11:03Z</time>
      </trkpt>
      <trkpt lat="43.07139" lon="0.15656">
        <ele>538.4</ele>
        <time>2020-06-30T17:11:04Z</time>
      </trkpt>
      <trkpt lat="43.0714" lon="0.15659">
        <ele>538.4</ele>
        <time>2020-06-30T17:11:05Z</time>
      </trkpt>
      <trkpt lat="43.07141" lon="0.1566">
        <ele>538.6</ele>
        <time>2020-06-30T17:11:06Z</time>
      </trkpt>
      <trkpt lat="43.07143" lon="0.15662">
        <ele>538.6</ele>
        <time>2020-06-30T17:11:07Z</time>
      </trkpt>
      <trkpt lat="43.07144" lon="0.15664">
        <ele>538.6</ele>
        <time>2020-06-30T17:11:08Z</time>
      </trkpt>
      <trkpt lat="43.07145" lon="0.15666">
        <ele>538.6</ele>
        <time>2020-06-30T17:11:09Z</time>
      </trkpt>
      <trkpt lat="43.07146" lon="0.15668">
        <ele>538.8</ele>
        <time>2020-06-30T17:11:10Z</time>
      </trkpt>
      <trkpt lat="43.07147" lon="0.1567">
        <ele>538.8</ele>
        <time>2020-06-30T17:11:11Z</time>
      </trkpt>
      <trkpt lat="43.07149" lon="0.15672">
        <ele>538.8</ele>
        <time>2020-06-30T17:11:12Z</time>
      </trkpt>
      <trkpt lat="43.07149" lon="0.15675">
        <ele>538.8</ele>
        <time>2020-06-30T17:11:13Z</time>
      </trkpt>
      <trkpt lat="43.0715" lon="0.15677">
        <ele>539</ele>
        <time>2020-06-30T17:11:14Z</time>
      </trkpt>
      <trkpt lat="43.07151" lon="0.15679">
        <ele>539</ele>
        <time>2020-06-30T17:11:15Z</time>
      </trkpt>
      <trkpt lat="43.07151" lon="0.1568">
        <ele>539</ele>
        <time>2020-06-30T17:11:16Z</time>
      </trkpt>
      <trkpt lat="43.07152" lon="0.15681">
        <ele>539</ele>
        <time>2020-06-30T17:11:17Z</time>
      </trkpt>
      <trkpt lat="43.07153" lon="0.15681">
        <ele>539.2</ele>
        <time>2020-06-30T17:11:18Z</time>
      </trkpt>
      <trkpt lat="43.07153" lon="0.15681">
        <ele>539.2</ele>
        <time>2020-06-30T17:11:19Z</time>
      </trkpt>
      <trkpt lat="43.07153" lon="0.15682">
        <ele>539.2</ele>
        <time>2020-06-30T17:11:20Z</time>
      </trkpt>
      <trkpt lat="43.07153" lon="0.15682">
        <ele>539.2</ele>
        <time>2020-06-30T17:11:21Z</time>
      </trkpt>
      <trkpt lat="43.07153" lon="0.15682">
        <ele>539.2</ele>
        <time>2020-06-30T17:11:22Z</time>
      </trkpt>
      <trkpt lat="43.07153" lon="0.15682">
        <ele>539.2</ele>
        <time>2020-06-30T17:11:23Z</time>
      </trkpt>
      <trkpt lat="43.07154" lon="0.15682">
        <ele>539.2</ele>
        <time>2020-06-30T17:11:24Z</time>
      </trkpt>
      <trkpt lat="43.07154" lon="0.15682">
        <ele>539.2</ele>
        <time>2020-06-30T17:11:25Z</time>
      </trkpt>
      <trkpt lat="43.07154" lon="0.15682">
        <ele>539.2</ele>
        <time>2020-06-30T17:11:26Z</time>
      </trkpt>
      <trkpt lat="43.07154" lon="0.15682">
        <ele>539.2</ele>
        <time>2020-06-30T17:11:27Z</time>
      </trkpt>
      <trkpt lat="43.07153" lon="0.15682">
        <ele>539.2</ele>
        <time>2020-06-30T17:11:28Z</time>
      </trkpt>
      <trkpt lat="43.07154" lon="0.15681">
        <ele>539.2</ele>
        <time>2020-06-30T17:11:29Z</time>
      </trkpt>
      <trkpt lat="43.07155" lon="0.1569">
        <ele>539.2</ele>
        <time>2020-06-30T17:20:58Z</time>
      </trkpt>
      <trkpt lat="43.07157" lon="0.15689">
        <ele>539.2</ele>
        <time>2020-06-30T17:20:59Z</time>
      </trkpt>
      <trkpt lat="43.07155" lon="0.15693">
        <ele>539.2</ele>
        <time>2020-06-30T17:21:00Z</time>
      </trkpt>
      <trkpt lat="43.07153" lon="0.15693">
        <ele>539.2</ele>
        <time>2020-06-30T17:21:01Z</time>
      </trkpt>
      <trkpt lat="43.07152" lon="0.15694">
        <ele>539.2</ele>
        <time>2020-06-30T17:21:02Z</time>
      </trkpt>
      <trkpt lat="43.07155" lon="0.15695">
        <ele>539.2</ele>
        <time>2020-06-30T17:21:03Z</time>
      </trkpt>
      <trkpt lat="43.07157" lon="0.15695">
        <ele>539.2</ele>
        <time>2020-06-30T17:21:04Z</time>
      </trkpt>
      <trkpt lat="43.07158" lon="0.15694">
        <ele>539.2</ele>
        <time>2020-06-30T17:21:05Z</time>
      </trkpt>
      <trkpt lat="43.07158" lon="0.15695">
        <ele>539.2</ele>
        <time>2020-06-30T17:21:06Z</time>
      </trkpt>
      <trkpt lat="43.07158" lon="0.15697">
        <ele>539.2</ele>
        <time>2020-06-30T17:21:07Z</time>
      </trkpt>
      <trkpt lat="43.07158" lon="0.15698">
        <ele>539.2</ele>
        <time>2020-06-30T17:21:08Z</time>
      </trkpt>
      <trkpt lat="43.07159" lon="0.157">
        <ele>539.2</ele>
        <time>2020-06-30T17:21:09Z</time>
      </trkpt>
      <trkpt lat="43.07159" lon="0.157">
        <ele>539.2</ele>
        <time>2020-06-30T17:21:10Z</time>
      </trkpt>
      <trkpt lat="43.07158" lon="0.15701">
        <ele>539.4</ele>
        <time>2020-06-30T17:21:11Z</time>
      </trkpt>
      <trkpt lat="43.07156" lon="0.15701">
        <ele>539.4</ele>
        <time>2020-06-30T17:21:12Z</time>
      </trkpt>
      <trkpt lat="43.07157" lon="0.15703">
        <ele>539.4</ele>
        <time>2020-06-30T17:21:13Z</time>
      </trkpt>
      <trkpt lat="43.07156" lon="0.15701">
        <ele>539.4</ele>
        <time>2020-06-30T17:21:14Z</time>
      </trkpt>
      <trkpt lat="43.07157" lon="0.15702">
        <ele>539.4</ele>
        <time>2020-06-30T17:21:15Z</time>
      </trkpt>
      <trkpt lat="43.07159" lon="0.15701">
        <ele>539.4</ele>
        <time>2020-06-30T17:21:16Z</time>
      </trkpt>
      <trkpt lat="43.07159" lon="0.15703">
        <ele>539.4</ele>
        <time>2020-06-30T17:21:17Z</time>
      </trkpt>
      <trkpt lat="43.0716" lon="0.15703">
        <ele>539.4</ele>
        <time>2020-06-30T17:21:18Z</time>
      </trkpt>
      <trkpt lat="43.07161" lon="0.15702">
        <ele>539.4</ele>
        <time>2020-06-30T17:21:19Z</time>
      </trkpt>
      <trkpt lat="43.07162" lon="0.15703">
        <ele>539.4</ele>
        <time>2020-06-30T17:21:20Z</time>
      </trkpt>
      <trkpt lat="43.07163" lon="0.15707">
        <ele>539.4</ele>
        <time>2020-06-30T17:21:21Z</time>
      </trkpt>
      <trkpt lat="43.07164" lon="0.15707">
        <ele>539.4</ele>
        <time>2020-06-30T17:21:22Z</time>
      </trkpt>
      <trkpt lat="43.07165" lon="0.15711">
        <ele>539.4</ele>
        <time>2020-06-30T17:21:23Z</time>
      </trkpt>
      <trkpt lat="43.07165" lon="0.15709">
        <ele>539.4</ele>
        <time>2020-06-30T17:21:24Z</time>
      </trkpt>
      <trkpt lat="43.07166" lon="0.1571">
        <ele>539.4</ele>
        <time>2020-06-30T17:21:25Z</time>
      </trkpt>
      <trkpt lat="43.07167" lon="0.1571">
        <ele>539.4</ele>
        <time>2020-06-30T17:21:26Z</time>
      </trkpt>
      <trkpt lat="43.07169" lon="0.15709">
        <ele>539.4</ele>
        <time>2020-06-30T17:21:27Z</time>
      </trkpt>
      <trkpt lat="43.0717" lon="0.1571">
        <ele>539.4</ele>
        <time>2020-06-30T17:21:28Z</time>
      </trkpt>
      <trkpt lat="43.07169" lon="0.1571">
        <ele>539.4</ele>
        <time>2020-06-30T17:21:29Z</time>
      </trkpt>
      <trkpt lat="43.07172" lon="0.15709">
        <ele>539.4</ele>
        <time>2020-06-30T17:21:30Z</time>
      </trkpt>
      <trkpt lat="43.07173" lon="0.1571">
        <ele>539.4</ele>
        <time>2020-06-30T17:21:31Z</time>
      </trkpt>
      <trkpt lat="43.07173" lon="0.1571">
        <ele>539.4</ele>
        <time>2020-06-30T17:21:32Z</time>
      </trkpt>
      <trkpt lat="43.07173" lon="0.1571">
        <ele>539.4</ele>
        <time>2020-06-30T17:21:33Z</time>
      </trkpt>
      <trkpt lat="43.07171" lon="0.15708">
        <ele>539.4</ele>
        <time>2020-06-30T17:21:34Z</time>
      </trkpt>
      <trkpt lat="43.07171" lon="0.15708">
        <ele>539.4</ele>
        <time>2020-06-30T17:21:35Z</time>
      </trkpt>
      <trkpt lat="43.0717" lon="0.15708">
        <ele>539.2</ele>
        <time>2020-06-30T17:21:36Z</time>
      </trkpt>
      <trkpt lat="43.0717" lon="0.15708">
        <ele>539.2</ele>
        <time>2020-06-30T17:21:37Z</time>
      </trkpt>
      <trkpt lat="43.0717" lon="0.15707">
        <ele>539.2</ele>
        <time>2020-06-30T17:21:38Z</time>
      </trkpt>
      <trkpt lat="43.0717" lon="0.15707">
        <ele>539.2</ele>
        <time>2020-06-30T17:21:39Z</time>
      </trkpt>
      <trkpt lat="43.0717" lon="0.15707">
        <ele>539.2</ele>
        <time>2020-06-30T17:21:40Z</time>
      </trkpt>
      <trkpt lat="43.0717" lon="0.15707">
        <ele>539.2</ele>
        <time>2020-06-30T17:21:41Z</time>
      </trkpt>
      <trkpt lat="43.0717" lon="0.15707">
        <ele>539.2</ele>
        <time>2020-06-30T17:21:42Z</time>
      </trkpt>
      <trkpt lat="43.07172" lon="0.15708">
        <ele>539.2</ele>
        <time>2020-06-30T17:21:43Z</time>
      </trkpt>
      <trkpt lat="43.07172" lon="0.15707">
        <ele>539.2</ele>
        <time>2020-06-30T17:21:44Z</time>
      </trkpt>
      <trkpt lat="43.07173" lon="0.15706">
        <ele>539.2</ele>
        <time>2020-06-30T17:21:45Z</time>
      </trkpt>
      <trkpt lat="43.07173" lon="0.15705">
        <ele>539.2</ele>
        <time>2020-06-30T17:21:46Z</time>
      </trkpt>
      <trkpt lat="43.07173" lon="0.15705">
        <ele>539.2</ele>
        <time>2020-06-30T17:21:47Z</time>
      </trkpt>
      <trkpt lat="43.07173" lon="0.15703">
        <ele>539</ele>
        <time>2020-06-30T17:21:48Z</time>
      </trkpt>
      <trkpt lat="43.07174" lon="0.15703">
        <ele>539</ele>
        <time>2020-06-30T17:21:49Z</time>
      </trkpt>
      <trkpt lat="43.07174" lon="0.15702">
        <ele>539</ele>
        <time>2020-06-30T17:21:50Z</time>
      </trkpt>
      <trkpt lat="43.07175" lon="0.15702">
        <ele>539</ele>
        <time>2020-06-30T17:21:51Z</time>
      </trkpt>
      <trkpt lat="43.07176" lon="0.15704">
        <ele>539</ele>
        <time>2020-06-30T17:21:52Z</time>
      </trkpt>
      <trkpt lat="43.07177" lon="0.15704">
        <ele>538.8</ele>
        <time>2020-06-30T17:21:53Z</time>
      </trkpt>
      <trkpt lat="43.07178" lon="0.15704">
        <ele>538.8</ele>
        <time>2020-06-30T17:21:54Z</time>
      </trkpt>
      <trkpt lat="43.07178" lon="0.15703">
        <ele>538.8</ele>
        <time>2020-06-30T17:21:55Z</time>
      </trkpt>
      <trkpt lat="43.07178" lon="0.15703">
        <ele>538.8</ele>
        <time>2020-06-30T17:21:56Z</time>
      </trkpt>
      <trkpt lat="43.07178" lon="0.15702">
        <ele>538.8</ele>
        <time>2020-06-30T17:21:57Z</time>
      </trkpt>
      <trkpt lat="43.07179" lon="0.15701">
        <ele>538.8</ele>
        <time>2020-06-30T17:21:58Z</time>
      </trkpt>
      <trkpt lat="43.07179" lon="0.15701">
        <ele>538.8</ele>
        <time>2020-06-30T17:21:59Z</time>
      </trkpt>
      <trkpt lat="43.07179" lon="0.15702">
        <ele>538.8</ele>
        <time>2020-06-30T17:22:00Z</time>
      </trkpt>
      <trkpt lat="43.0718" lon="0.15702">
        <ele>538.8</ele>
        <time>2020-06-30T17:22:01Z</time>
      </trkpt>
      <trkpt lat="43.0718" lon="0.15702">
        <ele>538.8</ele>
        <time>2020-06-30T17:22:02Z</time>
      </trkpt>
      <trkpt lat="43.0718" lon="0.15702">
        <ele>538.8</ele>
        <time>2020-06-30T17:22:03Z</time>
      </trkpt>
      <trkpt lat="43.07179" lon="0.15702">
        <ele>538.8</ele>
        <time>2020-06-30T17:22:04Z</time>
      </trkpt>
      <trkpt lat="43.07179" lon="0.15703">
        <ele>538.8</ele>
        <time>2020-06-30T17:22:05Z</time>
      </trkpt>
      <trkpt lat="43.07179" lon="0.15703">
        <ele>538.8</ele>
        <time>2020-06-30T17:22:06Z</time>
      </trkpt>
      <trkpt lat="43.0718" lon="0.15703">
        <ele>538.8</ele>
        <time>2020-06-30T17:22:07Z</time>
      </trkpt>
      <trkpt lat="43.0718" lon="0.15704">
        <ele>538.8</ele>
        <time>2020-06-30T17:22:08Z</time>
      </trkpt>
      <trkpt lat="43.07185" lon="0.15691">
        <ele>539.6</ele>
        <time>2020-06-30T17:28:32Z</time>
      </trkpt>
      <trkpt lat="43.07188" lon="0.15691">
        <ele>539.6</ele>
        <time>2020-06-30T17:28:33Z</time>
      </trkpt>
      <trkpt lat="43.0719" lon="0.1569">
        <ele>539.6</ele>
        <time>2020-06-30T17:28:34Z</time>
      </trkpt>
      <trkpt lat="43.07192" lon="0.15689">
        <ele>539.4</ele>
        <time>2020-06-30T17:28:35Z</time>
      </trkpt>
      <trkpt lat="43.07192" lon="0.15687">
        <ele>539.4</ele>
        <time>2020-06-30T17:28:36Z</time>
      </trkpt>
      <trkpt lat="43.07192" lon="0.15686">
        <ele>539.4</ele>
        <time>2020-06-30T17:28:37Z</time>
      </trkpt>
      <trkpt lat="43.07192" lon="0.15684">
        <ele>539.4</ele>
        <time>2020-06-30T17:28:38Z</time>
      </trkpt>
      <trkpt lat="43.07194" lon="0.15683">
        <ele>539.2</ele>
        <time>2020-06-30T17:28:39Z</time>
      </trkpt>
      <trkpt lat="43.07195" lon="0.15683">
        <ele>539.2</ele>
        <time>2020-06-30T17:28:40Z</time>
      </trkpt>
      <trkpt lat="43.07195" lon="0.15681">
        <ele>539.2</ele>
        <time>2020-06-30T17:28:41Z</time>
      </trkpt>
      <trkpt lat="43.07195" lon="0.15679">
        <ele>539.2</ele>
        <time>2020-06-30T17:28:42Z</time>
      </trkpt>
      <trkpt lat="43.07195" lon="0.1568">
        <ele>539.2</ele>
        <time>2020-06-30T17:28:43Z</time>
      </trkpt>
      <trkpt lat="43.07196" lon="0.15679">
        <ele>539.2</ele>
        <time>2020-06-30T17:28:44Z</time>
      </trkpt>
      <trkpt lat="43.07196" lon="0.15678">
        <ele>539</ele>
        <time>2020-06-30T17:28:45Z</time>
      </trkpt>
      <trkpt lat="43.07197" lon="0.15675">
        <ele>539</ele>
        <time>2020-06-30T17:28:46Z</time>
      </trkpt>
      <trkpt lat="43.07198" lon="0.15673">
        <ele>539</ele>
        <time>2020-06-30T17:28:47Z</time>
      </trkpt>
      <trkpt lat="43.07199" lon="0.15672">
        <ele>539</ele>
        <time>2020-06-30T17:28:48Z</time>
      </trkpt>
      <trkpt lat="43.07199" lon="0.15671">
        <ele>539</ele>
        <time>2020-06-30T17:28:49Z</time>
      </trkpt>
      <trkpt lat="43.072" lon="0.15669">
        <ele>539</ele>
        <time>2020-06-30T17:28:50Z</time>
      </trkpt>
      <trkpt lat="43.07198" lon="0.15667">
        <ele>539</ele>
        <time>2020-06-30T17:28:51Z</time>
      </trkpt>
      <trkpt lat="43.07199" lon="0.15668">
        <ele>538.8</ele>
        <time>2020-06-30T17:28:52Z</time>
      </trkpt>
      <trkpt lat="43.07199" lon="0.15666">
        <ele>538.8</ele>
        <time>2020-06-30T17:28:53Z</time>
      </trkpt>
      <trkpt lat="43.07199" lon="0.15665">
        <ele>538.8</ele>
        <time>2020-06-30T17:28:54Z</time>
      </trkpt>
      <trkpt lat="43.07199" lon="0.15665">
        <ele>538.8</ele>
        <time>2020-06-30T17:28:55Z</time>
      </trkpt>
      <trkpt lat="43.07199" lon="0.15663">
        <ele>538.8</ele>
        <time>2020-06-30T17:28:56Z</time>
      </trkpt>
      <trkpt lat="43.07198" lon="0.15664">
        <ele>538.8</ele>
        <time>2020-06-30T17:28:57Z</time>
      </trkpt>
      <trkpt lat="43.07197" lon="0.15665">
        <ele>538.8</ele>
        <time>2020-06-30T17:28:58Z</time>
      </trkpt>
      <trkpt lat="43.07197" lon="0.15667">
        <ele>538.8</ele>
        <time>2020-06-30T17:28:59Z</time>
      </trkpt>
      <trkpt lat="43.07198" lon="0.15667">
        <ele>538.8</ele>
        <time>2020-06-30T17:29:00Z</time>
      </trkpt>
      <trkpt lat="43.07199" lon="0.15666">
        <ele>538.8</ele>
        <time>2020-06-30T17:29:01Z</time>
      </trkpt>
      <trkpt lat="43.07197" lon="0.15665">
        <ele>538.8</ele>
        <time>2020-06-30T17:29:02Z</time>
      </trkpt>
      <trkpt lat="43.07197" lon="0.15665">
        <ele>538.8</ele>
        <time>2020-06-30T17:29:03Z</time>
      </trkpt>
      <trkpt lat="43.07197" lon="0.15666">
        <ele>538.8</ele>
        <time>2020-06-30T17:29:04Z</time>
      </trkpt>
      <trkpt lat="43.07197" lon="0.15665">
        <ele>538.8</ele>
        <time>2020-06-30T17:29:05Z</time>
      </trkpt>
      <trkpt lat="43.07197" lon="0.15665">
        <ele>538.8</ele>
        <time>2020-06-30T17:29:06Z</time>
      </trkpt>
      <trkpt lat="43.07204" lon="0.15669">
        <ele>538.6</ele>
        <time>2020-06-30T17:49:12Z</time>
      </trkpt>
      <trkpt lat="43.07204" lon="0.1567">
        <ele>538.6</ele>
        <time>2020-06-30T17:49:13Z</time>
      </trkpt>
      <trkpt lat="43.07204" lon="0.15672">
        <ele>538.6</ele>
        <time>2020-06-30T17:49:14Z</time>
      </trkpt>
      <trkpt lat="43.07204" lon="0.15672">
        <ele>538.6</ele>
        <time>2020-06-30T17:49:15Z</time>
      </trkpt>
      <trkpt lat="43.07204" lon="0.15672">
        <ele>538.6</ele>
        <time>2020-06-30T17:49:16Z</time>
      </trkpt>
      <trkpt lat="43.07205" lon="0.15671">
        <ele>538.6</ele>
        <time>2020-06-30T17:49:17Z</time>
      </trkpt>
      <trkpt lat="43.07205" lon="0.15672">
        <ele>538.6</ele>
        <time>2020-06-30T17:49:18Z</time>
      </trkpt>
      <trkpt lat="43.07205" lon="0.15672">
        <ele>538.6</ele>
        <time>2020-06-30T17:49:19Z</time>
      </trkpt>
      <trkpt lat="43.07206" lon="0.15671">
        <ele>538.6</ele>
        <time>2020-06-30T17:49:20Z</time>
      </trkpt>
      <trkpt lat="43.07206" lon="0.15672">
        <ele>538.6</ele>
        <time>2020-06-30T17:49:21Z</time>
      </trkpt>
      <trkpt lat="43.07205" lon="0.15672">
        <ele>538.6</ele>
        <time>2020-06-30T17:49:22Z</time>
      </trkpt>
      <trkpt lat="43.07205" lon="0.15672">
        <ele>538.6</ele>
        <time>2020-06-30T17:49:23Z</time>
      </trkpt>
      <trkpt lat="43.07203" lon="0.15673">
        <ele>538.6</ele>
        <time>2020-06-30T17:49:24Z</time>
      </trkpt>
      <trkpt lat="43.07203" lon="0.15672">
        <ele>538.6</ele>
        <time>2020-06-30T17:49:25Z</time>
      </trkpt>
    </trkseg>
  </trk>
</gpx>